<?xml version="1.0" encoding="UTF-8" standalone="no" ?>
<gpx xmlns="http://www.topografix.com/GPX/1/1" xmlns:xsi="http://www.w3.org/2001/XMLSchema-instance" xsi:schemaLocation="http://www.topografix.com/GPX/1/1 http://www.topografix.com/GPX/1/1/gpx.xsd" version="1.1" creator="VisuGPX - https://www.visugpx.com">
  <metadata>
    <name>CMC Pla de Montcamp Gestiès</name>
    <desc><![CDATA[Première sortie de 2020 ! Belle journée, démarrage pentu par un magnifique chemin avec quelques plaques de glace. Superbe vue sur le Saint Barthélémy et la Pique d'Endron.
]]></desc>
  </metadata>
  <trk>
    <name><![CDATA[Gestiès Marche à pied]]></name>
    <trkseg>
      <trkpt lat="42.76668" lon="1.57319">
        <ele>973</ele>
        <time>2020-01-05T08:12:42.000Z</time>
      </trkpt>
      <trkpt lat="42.76651" lon="1.57338">
        <ele>977</ele>
        <time>2020-01-05T08:12:44.000Z</time>
      </trkpt>
      <trkpt lat="42.76651" lon="1.5734">
        <ele>977</ele>
        <time>2020-01-05T08:12:46.000Z</time>
      </trkpt>
      <trkpt lat="42.76677" lon="1.57335">
        <ele>977</ele>
        <time>2020-01-05T08:12:48.000Z</time>
      </trkpt>
      <trkpt lat="42.76671" lon="1.57334">
        <ele>976</ele>
        <time>2020-01-05T08:12:50.000Z</time>
      </trkpt>
      <trkpt lat="42.76671" lon="1.57334">
        <ele>976</ele>
        <time>2020-01-05T08:12:52.000Z</time>
      </trkpt>
      <trkpt lat="42.76658" lon="1.57344">
        <ele>978</ele>
        <time>2020-01-05T08:12:54.000Z</time>
      </trkpt>
      <trkpt lat="42.76651" lon="1.57349">
        <ele>979</ele>
        <time>2020-01-05T08:12:56.000Z</time>
      </trkpt>
      <trkpt lat="42.76651" lon="1.57353">
        <ele>980</ele>
        <time>2020-01-05T08:12:58.000Z</time>
      </trkpt>
      <trkpt lat="42.76652" lon="1.5735">
        <ele>979</ele>
        <time>2020-01-05T08:13:00.000Z</time>
      </trkpt>
      <trkpt lat="42.76661" lon="1.57369">
        <ele>983</ele>
        <time>2020-01-05T08:13:02.000Z</time>
      </trkpt>
      <trkpt lat="42.76663" lon="1.57376">
        <ele>985</ele>
        <time>2020-01-05T08:13:04.000Z</time>
      </trkpt>
      <trkpt lat="42.76661" lon="1.57369">
        <ele>983</ele>
        <time>2020-01-05T08:13:06.000Z</time>
      </trkpt>
      <trkpt lat="42.76662" lon="1.57369">
        <ele>983</ele>
        <time>2020-01-05T08:13:08.000Z</time>
      </trkpt>
      <trkpt lat="42.76662" lon="1.57369">
        <ele>983</ele>
        <time>2020-01-05T08:13:10.000Z</time>
      </trkpt>
      <trkpt lat="42.76662" lon="1.57372">
        <ele>984</ele>
        <time>2020-01-05T08:13:12.000Z</time>
      </trkpt>
      <trkpt lat="42.76662" lon="1.57375">
        <ele>984</ele>
        <time>2020-01-05T08:13:14.000Z</time>
      </trkpt>
      <trkpt lat="42.76662" lon="1.57377">
        <ele>985</ele>
        <time>2020-01-05T08:13:16.000Z</time>
      </trkpt>
      <trkpt lat="42.76663" lon="1.57381">
        <ele>986</ele>
        <time>2020-01-05T08:13:18.000Z</time>
      </trkpt>
      <trkpt lat="42.76663" lon="1.57382">
        <ele>986</ele>
        <time>2020-01-05T08:13:20.000Z</time>
      </trkpt>
      <trkpt lat="42.76664" lon="1.57384">
        <ele>986</ele>
        <time>2020-01-05T08:13:22.000Z</time>
      </trkpt>
      <trkpt lat="42.76664" lon="1.57385">
        <ele>987</ele>
        <time>2020-01-05T08:13:24.000Z</time>
      </trkpt>
      <trkpt lat="42.76664" lon="1.57386">
        <ele>987</ele>
        <time>2020-01-05T08:13:26.000Z</time>
      </trkpt>
      <trkpt lat="42.76664" lon="1.57387">
        <ele>987</ele>
        <time>2020-01-05T08:13:28.000Z</time>
      </trkpt>
      <trkpt lat="42.76664" lon="1.57387">
        <ele>987</ele>
        <time>2020-01-05T08:13:30.000Z</time>
      </trkpt>
      <trkpt lat="42.76665" lon="1.57389">
        <ele>987</ele>
        <time>2020-01-05T08:13:32.000Z</time>
      </trkpt>
      <trkpt lat="42.76666" lon="1.57391">
        <ele>988</ele>
        <time>2020-01-05T08:13:34.000Z</time>
      </trkpt>
      <trkpt lat="42.76666" lon="1.57392">
        <ele>988</ele>
        <time>2020-01-05T08:13:36.000Z</time>
      </trkpt>
      <trkpt lat="42.76667" lon="1.57393">
        <ele>988</ele>
        <time>2020-01-05T08:13:38.000Z</time>
      </trkpt>
      <trkpt lat="42.76668" lon="1.57393">
        <ele>988</ele>
        <time>2020-01-05T08:13:40.000Z</time>
      </trkpt>
      <trkpt lat="42.76669" lon="1.57395">
        <ele>989</ele>
        <time>2020-01-05T08:13:42.000Z</time>
      </trkpt>
      <trkpt lat="42.7667" lon="1.57396">
        <ele>989</ele>
        <time>2020-01-05T08:13:44.000Z</time>
      </trkpt>
      <trkpt lat="42.76671" lon="1.57395">
        <ele>989</ele>
        <time>2020-01-05T08:13:46.000Z</time>
      </trkpt>
      <trkpt lat="42.76672" lon="1.57396">
        <ele>989</ele>
        <time>2020-01-05T08:13:48.000Z</time>
      </trkpt>
      <trkpt lat="42.76673" lon="1.57397">
        <ele>989</ele>
        <time>2020-01-05T08:13:50.000Z</time>
      </trkpt>
      <trkpt lat="42.76674" lon="1.57398">
        <ele>990</ele>
        <time>2020-01-05T08:13:52.000Z</time>
      </trkpt>
      <trkpt lat="42.76676" lon="1.57397">
        <ele>990</ele>
        <time>2020-01-05T08:13:54.000Z</time>
      </trkpt>
      <trkpt lat="42.76677" lon="1.57398">
        <ele>990</ele>
        <time>2020-01-05T08:13:56.000Z</time>
      </trkpt>
      <trkpt lat="42.76678" lon="1.57399">
        <ele>990</ele>
        <time>2020-01-05T08:13:58.000Z</time>
      </trkpt>
      <trkpt lat="42.76679" lon="1.574">
        <ele>991</ele>
        <time>2020-01-05T08:14:00.000Z</time>
      </trkpt>
      <trkpt lat="42.76676" lon="1.5739">
        <ele>988</ele>
        <time>2020-01-05T08:14:02.000Z</time>
      </trkpt>
      <trkpt lat="42.76676" lon="1.57389">
        <ele>988</ele>
        <time>2020-01-05T08:14:04.000Z</time>
      </trkpt>
      <trkpt lat="42.76677" lon="1.57391">
        <ele>989</ele>
        <time>2020-01-05T08:14:06.000Z</time>
      </trkpt>
      <trkpt lat="42.76677" lon="1.57393">
        <ele>989</ele>
        <time>2020-01-05T08:14:08.000Z</time>
      </trkpt>
      <trkpt lat="42.76678" lon="1.57395">
        <ele>990</ele>
        <time>2020-01-05T08:14:10.000Z</time>
      </trkpt>
      <trkpt lat="42.76678" lon="1.57397">
        <ele>990</ele>
        <time>2020-01-05T08:14:12.000Z</time>
      </trkpt>
      <trkpt lat="42.76679" lon="1.57398">
        <ele>990</ele>
        <time>2020-01-05T08:14:14.000Z</time>
      </trkpt>
      <trkpt lat="42.76679" lon="1.574">
        <ele>991</ele>
        <time>2020-01-05T08:14:16.000Z</time>
      </trkpt>
      <trkpt lat="42.7668" lon="1.57401">
        <ele>991</ele>
        <time>2020-01-05T08:14:18.000Z</time>
      </trkpt>
      <trkpt lat="42.7668" lon="1.57403">
        <ele>992</ele>
        <time>2020-01-05T08:14:20.000Z</time>
      </trkpt>
      <trkpt lat="42.76681" lon="1.57405">
        <ele>992</ele>
        <time>2020-01-05T08:14:22.000Z</time>
      </trkpt>
      <trkpt lat="42.76681" lon="1.57406">
        <ele>993</ele>
        <time>2020-01-05T08:14:24.000Z</time>
      </trkpt>
      <trkpt lat="42.76682" lon="1.57408">
        <ele>993</ele>
        <time>2020-01-05T08:14:26.000Z</time>
      </trkpt>
      <trkpt lat="42.76682" lon="1.5741">
        <ele>994</ele>
        <time>2020-01-05T08:14:28.000Z</time>
      </trkpt>
      <trkpt lat="42.76682" lon="1.57411">
        <ele>994</ele>
        <time>2020-01-05T08:14:30.000Z</time>
      </trkpt>
      <trkpt lat="42.76682" lon="1.57412">
        <ele>995</ele>
        <time>2020-01-05T08:14:32.000Z</time>
      </trkpt>
      <trkpt lat="42.76682" lon="1.57414">
        <ele>995</ele>
        <time>2020-01-05T08:14:34.000Z</time>
      </trkpt>
      <trkpt lat="42.76682" lon="1.57413">
        <ele>995</ele>
        <time>2020-01-05T08:14:36.000Z</time>
      </trkpt>
      <trkpt lat="42.76682" lon="1.57414">
        <ele>995</ele>
        <time>2020-01-05T08:14:38.000Z</time>
      </trkpt>
      <trkpt lat="42.76682" lon="1.57415">
        <ele>996</ele>
        <time>2020-01-05T08:14:40.000Z</time>
      </trkpt>
      <trkpt lat="42.76682" lon="1.57417">
        <ele>996</ele>
        <time>2020-01-05T08:14:42.000Z</time>
      </trkpt>
      <trkpt lat="42.76682" lon="1.57419">
        <ele>997</ele>
        <time>2020-01-05T08:14:44.000Z</time>
      </trkpt>
      <trkpt lat="42.76682" lon="1.5742">
        <ele>998</ele>
        <time>2020-01-05T08:14:46.000Z</time>
      </trkpt>
      <trkpt lat="42.76683" lon="1.57423">
        <ele>999</ele>
        <time>2020-01-05T08:14:48.000Z</time>
      </trkpt>
      <trkpt lat="42.76683" lon="1.57425">
        <ele>999</ele>
        <time>2020-01-05T08:14:50.000Z</time>
      </trkpt>
      <trkpt lat="42.76684" lon="1.57426">
        <ele>1000</ele>
        <time>2020-01-05T08:14:52.000Z</time>
      </trkpt>
      <trkpt lat="42.76684" lon="1.57427">
        <ele>1000</ele>
        <time>2020-01-05T08:14:54.000Z</time>
      </trkpt>
      <trkpt lat="42.76684" lon="1.57429">
        <ele>1001</ele>
        <time>2020-01-05T08:14:56.000Z</time>
      </trkpt>
      <trkpt lat="42.76685" lon="1.57431">
        <ele>1002</ele>
        <time>2020-01-05T08:14:58.000Z</time>
      </trkpt>
      <trkpt lat="42.76685" lon="1.57431">
        <ele>1002</ele>
        <time>2020-01-05T08:15:00.000Z</time>
      </trkpt>
      <trkpt lat="42.76685" lon="1.57433">
        <ele>1002</ele>
        <time>2020-01-05T08:15:02.000Z</time>
      </trkpt>
      <trkpt lat="42.76685" lon="1.57434">
        <ele>1003</ele>
        <time>2020-01-05T08:15:04.000Z</time>
      </trkpt>
      <trkpt lat="42.76686" lon="1.57435">
        <ele>1003</ele>
        <time>2020-01-05T08:15:06.000Z</time>
      </trkpt>
      <trkpt lat="42.76686" lon="1.57436">
        <ele>1004</ele>
        <time>2020-01-05T08:15:08.000Z</time>
      </trkpt>
      <trkpt lat="42.76687" lon="1.57438">
        <ele>1004</ele>
        <time>2020-01-05T08:15:10.000Z</time>
      </trkpt>
      <trkpt lat="42.76688" lon="1.57439">
        <ele>1005</ele>
        <time>2020-01-05T08:15:12.000Z</time>
      </trkpt>
      <trkpt lat="42.76689" lon="1.57441">
        <ele>1006</ele>
        <time>2020-01-05T08:15:14.000Z</time>
      </trkpt>
      <trkpt lat="42.76689" lon="1.57441">
        <ele>1006</ele>
        <time>2020-01-05T08:15:16.000Z</time>
      </trkpt>
      <trkpt lat="42.76689" lon="1.57442">
        <ele>1006</ele>
        <time>2020-01-05T08:15:18.000Z</time>
      </trkpt>
      <trkpt lat="42.7669" lon="1.57444">
        <ele>1007</ele>
        <time>2020-01-05T08:15:20.000Z</time>
      </trkpt>
      <trkpt lat="42.7669" lon="1.57444">
        <ele>1007</ele>
        <time>2020-01-05T08:15:22.000Z</time>
      </trkpt>
      <trkpt lat="42.76691" lon="1.57445">
        <ele>1007</ele>
        <time>2020-01-05T08:15:24.000Z</time>
      </trkpt>
      <trkpt lat="42.76691" lon="1.57445">
        <ele>1008</ele>
        <time>2020-01-05T08:15:26.000Z</time>
      </trkpt>
      <trkpt lat="42.76691" lon="1.57446">
        <ele>1008</ele>
        <time>2020-01-05T08:15:28.000Z</time>
      </trkpt>
      <trkpt lat="42.76692" lon="1.57446">
        <ele>1008</ele>
        <time>2020-01-05T08:15:30.000Z</time>
      </trkpt>
      <trkpt lat="42.76692" lon="1.57447">
        <ele>1008</ele>
        <time>2020-01-05T08:15:32.000Z</time>
      </trkpt>
      <trkpt lat="42.76693" lon="1.57448">
        <ele>1009</ele>
        <time>2020-01-05T08:15:34.000Z</time>
      </trkpt>
      <trkpt lat="42.76694" lon="1.57449">
        <ele>1009</ele>
        <time>2020-01-05T08:15:36.000Z</time>
      </trkpt>
      <trkpt lat="42.76694" lon="1.5745">
        <ele>1009</ele>
        <time>2020-01-05T08:15:38.000Z</time>
      </trkpt>
      <trkpt lat="42.76694" lon="1.57451">
        <ele>1010</ele>
        <time>2020-01-05T08:15:40.000Z</time>
      </trkpt>
      <trkpt lat="42.76695" lon="1.57452">
        <ele>1010</ele>
        <time>2020-01-05T08:15:42.000Z</time>
      </trkpt>
      <trkpt lat="42.76695" lon="1.57453">
        <ele>1011</ele>
        <time>2020-01-05T08:15:44.000Z</time>
      </trkpt>
      <trkpt lat="42.76696" lon="1.57454">
        <ele>1011</ele>
        <time>2020-01-05T08:15:46.000Z</time>
      </trkpt>
      <trkpt lat="42.76697" lon="1.57455">
        <ele>1012</ele>
        <time>2020-01-05T08:15:48.000Z</time>
      </trkpt>
      <trkpt lat="42.76698" lon="1.57456">
        <ele>1012</ele>
        <time>2020-01-05T08:15:50.000Z</time>
      </trkpt>
      <trkpt lat="42.76699" lon="1.57458">
        <ele>1013</ele>
        <time>2020-01-05T08:15:52.000Z</time>
      </trkpt>
      <trkpt lat="42.767" lon="1.57459">
        <ele>1013</ele>
        <time>2020-01-05T08:15:54.000Z</time>
      </trkpt>
      <trkpt lat="42.767" lon="1.5746">
        <ele>1014</ele>
        <time>2020-01-05T08:15:56.000Z</time>
      </trkpt>
      <trkpt lat="42.76701" lon="1.57462">
        <ele>1014</ele>
        <time>2020-01-05T08:15:58.000Z</time>
      </trkpt>
      <trkpt lat="42.76702" lon="1.57463">
        <ele>1015</ele>
        <time>2020-01-05T08:16:00.000Z</time>
      </trkpt>
      <trkpt lat="42.76704" lon="1.57463">
        <ele>1015</ele>
        <time>2020-01-05T08:16:02.000Z</time>
      </trkpt>
      <trkpt lat="42.76704" lon="1.57464">
        <ele>1015</ele>
        <time>2020-01-05T08:16:04.000Z</time>
      </trkpt>
      <trkpt lat="42.76705" lon="1.57465">
        <ele>1016</ele>
        <time>2020-01-05T08:16:06.000Z</time>
      </trkpt>
      <trkpt lat="42.76706" lon="1.57466">
        <ele>1016</ele>
        <time>2020-01-05T08:16:08.000Z</time>
      </trkpt>
      <trkpt lat="42.76706" lon="1.57468">
        <ele>1017</ele>
        <time>2020-01-05T08:16:10.000Z</time>
      </trkpt>
      <trkpt lat="42.76706" lon="1.57468">
        <ele>1017</ele>
        <time>2020-01-05T08:16:12.000Z</time>
      </trkpt>
      <trkpt lat="42.76706" lon="1.57469">
        <ele>1017</ele>
        <time>2020-01-05T08:16:14.000Z</time>
      </trkpt>
      <trkpt lat="42.76706" lon="1.57469">
        <ele>1017</ele>
        <time>2020-01-05T08:16:16.000Z</time>
      </trkpt>
      <trkpt lat="42.76706" lon="1.5747">
        <ele>1018</ele>
        <time>2020-01-05T08:16:18.000Z</time>
      </trkpt>
      <trkpt lat="42.76705" lon="1.5747">
        <ele>1018</ele>
        <time>2020-01-05T08:16:20.000Z</time>
      </trkpt>
      <trkpt lat="42.76704" lon="1.57471">
        <ele>1018</ele>
        <time>2020-01-05T08:16:22.000Z</time>
      </trkpt>
      <trkpt lat="42.76704" lon="1.57471">
        <ele>1018</ele>
        <time>2020-01-05T08:16:24.000Z</time>
      </trkpt>
      <trkpt lat="42.76705" lon="1.57472">
        <ele>1018</ele>
        <time>2020-01-05T08:16:26.000Z</time>
      </trkpt>
      <trkpt lat="42.76704" lon="1.57473">
        <ele>1019</ele>
        <time>2020-01-05T08:16:28.000Z</time>
      </trkpt>
      <trkpt lat="42.76704" lon="1.57475">
        <ele>1019</ele>
        <time>2020-01-05T08:16:30.000Z</time>
      </trkpt>
      <trkpt lat="42.76703" lon="1.57475">
        <ele>1019</ele>
        <time>2020-01-05T08:16:32.000Z</time>
      </trkpt>
      <trkpt lat="42.76704" lon="1.57476">
        <ele>1020</ele>
        <time>2020-01-05T08:16:34.000Z</time>
      </trkpt>
      <trkpt lat="42.76704" lon="1.57476">
        <ele>1020</ele>
        <time>2020-01-05T08:16:36.000Z</time>
      </trkpt>
      <trkpt lat="42.76705" lon="1.57477">
        <ele>1020</ele>
        <time>2020-01-05T08:16:38.000Z</time>
      </trkpt>
      <trkpt lat="42.76705" lon="1.57478">
        <ele>1021</ele>
        <time>2020-01-05T08:16:40.000Z</time>
      </trkpt>
      <trkpt lat="42.76705" lon="1.57479">
        <ele>1021</ele>
        <time>2020-01-05T08:16:42.000Z</time>
      </trkpt>
      <trkpt lat="42.76706" lon="1.5748">
        <ele>1021</ele>
        <time>2020-01-05T08:16:44.000Z</time>
      </trkpt>
      <trkpt lat="42.76708" lon="1.57481">
        <ele>1022</ele>
        <time>2020-01-05T08:16:46.000Z</time>
      </trkpt>
      <trkpt lat="42.76709" lon="1.57482">
        <ele>1022</ele>
        <time>2020-01-05T08:16:48.000Z</time>
      </trkpt>
      <trkpt lat="42.7671" lon="1.57483">
        <ele>1023</ele>
        <time>2020-01-05T08:16:50.000Z</time>
      </trkpt>
      <trkpt lat="42.76711" lon="1.57483">
        <ele>1023</ele>
        <time>2020-01-05T08:16:52.000Z</time>
      </trkpt>
      <trkpt lat="42.76711" lon="1.57484">
        <ele>1023</ele>
        <time>2020-01-05T08:16:54.000Z</time>
      </trkpt>
      <trkpt lat="42.76712" lon="1.57485">
        <ele>1024</ele>
        <time>2020-01-05T08:16:56.000Z</time>
      </trkpt>
      <trkpt lat="42.76713" lon="1.57485">
        <ele>1024</ele>
        <time>2020-01-05T08:16:58.000Z</time>
      </trkpt>
      <trkpt lat="42.76713" lon="1.57485">
        <ele>1024</ele>
        <time>2020-01-05T08:17:00.000Z</time>
      </trkpt>
      <trkpt lat="42.76714" lon="1.57486">
        <ele>1024</ele>
        <time>2020-01-05T08:17:02.000Z</time>
      </trkpt>
      <trkpt lat="42.76715" lon="1.57486">
        <ele>1024</ele>
        <time>2020-01-05T08:17:04.000Z</time>
      </trkpt>
      <trkpt lat="42.76715" lon="1.57486">
        <ele>1024</ele>
        <time>2020-01-05T08:17:06.000Z</time>
      </trkpt>
      <trkpt lat="42.76716" lon="1.57487">
        <ele>1024</ele>
        <time>2020-01-05T08:17:08.000Z</time>
      </trkpt>
      <trkpt lat="42.76716" lon="1.57487">
        <ele>1024</ele>
        <time>2020-01-05T08:17:10.000Z</time>
      </trkpt>
      <trkpt lat="42.76717" lon="1.57487">
        <ele>1024</ele>
        <time>2020-01-05T08:17:12.000Z</time>
      </trkpt>
      <trkpt lat="42.76717" lon="1.57487">
        <ele>1024</ele>
        <time>2020-01-05T08:17:14.000Z</time>
      </trkpt>
      <trkpt lat="42.76718" lon="1.57487">
        <ele>1024</ele>
        <time>2020-01-05T08:17:16.000Z</time>
      </trkpt>
      <trkpt lat="42.76718" lon="1.57487">
        <ele>1024</ele>
        <time>2020-01-05T08:17:18.000Z</time>
      </trkpt>
      <trkpt lat="42.76718" lon="1.57487">
        <ele>1025</ele>
        <time>2020-01-05T08:17:20.000Z</time>
      </trkpt>
      <trkpt lat="42.76719" lon="1.57488">
        <ele>1025</ele>
        <time>2020-01-05T08:17:22.000Z</time>
      </trkpt>
      <trkpt lat="42.7672" lon="1.57489">
        <ele>1025</ele>
        <time>2020-01-05T08:17:24.000Z</time>
      </trkpt>
      <trkpt lat="42.7672" lon="1.5749">
        <ele>1025</ele>
        <time>2020-01-05T08:17:26.000Z</time>
      </trkpt>
      <trkpt lat="42.7672" lon="1.57492">
        <ele>1026</ele>
        <time>2020-01-05T08:17:28.000Z</time>
      </trkpt>
      <trkpt lat="42.7672" lon="1.57492">
        <ele>1026</ele>
        <time>2020-01-05T08:17:30.000Z</time>
      </trkpt>
      <trkpt lat="42.76721" lon="1.57494">
        <ele>1027</ele>
        <time>2020-01-05T08:17:32.000Z</time>
      </trkpt>
      <trkpt lat="42.76721" lon="1.57495">
        <ele>1027</ele>
        <time>2020-01-05T08:17:34.000Z</time>
      </trkpt>
      <trkpt lat="42.76721" lon="1.57497">
        <ele>1027</ele>
        <time>2020-01-05T08:17:36.000Z</time>
      </trkpt>
      <trkpt lat="42.76721" lon="1.57499">
        <ele>1028</ele>
        <time>2020-01-05T08:17:38.000Z</time>
      </trkpt>
      <trkpt lat="42.7672" lon="1.575">
        <ele>1028</ele>
        <time>2020-01-05T08:17:40.000Z</time>
      </trkpt>
      <trkpt lat="42.76721" lon="1.57501">
        <ele>1029</ele>
        <time>2020-01-05T08:17:42.000Z</time>
      </trkpt>
      <trkpt lat="42.7672" lon="1.57502">
        <ele>1029</ele>
        <time>2020-01-05T08:17:44.000Z</time>
      </trkpt>
      <trkpt lat="42.7672" lon="1.57503">
        <ele>1029</ele>
        <time>2020-01-05T08:17:46.000Z</time>
      </trkpt>
      <trkpt lat="42.7672" lon="1.57504">
        <ele>1029</ele>
        <time>2020-01-05T08:17:48.000Z</time>
      </trkpt>
      <trkpt lat="42.76721" lon="1.57505">
        <ele>1030</ele>
        <time>2020-01-05T08:17:50.000Z</time>
      </trkpt>
      <trkpt lat="42.76721" lon="1.57507">
        <ele>1030</ele>
        <time>2020-01-05T08:17:52.000Z</time>
      </trkpt>
      <trkpt lat="42.76721" lon="1.57508">
        <ele>1030</ele>
        <time>2020-01-05T08:17:54.000Z</time>
      </trkpt>
      <trkpt lat="42.76721" lon="1.57509">
        <ele>1031</ele>
        <time>2020-01-05T08:17:56.000Z</time>
      </trkpt>
      <trkpt lat="42.7672" lon="1.5751">
        <ele>1031</ele>
        <time>2020-01-05T08:17:58.000Z</time>
      </trkpt>
      <trkpt lat="42.76721" lon="1.57511">
        <ele>1031</ele>
        <time>2020-01-05T08:18:00.000Z</time>
      </trkpt>
      <trkpt lat="42.7672" lon="1.57512">
        <ele>1031</ele>
        <time>2020-01-05T08:18:02.000Z</time>
      </trkpt>
      <trkpt lat="42.7672" lon="1.57512">
        <ele>1032</ele>
        <time>2020-01-05T08:18:04.000Z</time>
      </trkpt>
      <trkpt lat="42.7672" lon="1.57513">
        <ele>1032</ele>
        <time>2020-01-05T08:18:06.000Z</time>
      </trkpt>
      <trkpt lat="42.7672" lon="1.57514">
        <ele>1032</ele>
        <time>2020-01-05T08:18:08.000Z</time>
      </trkpt>
      <trkpt lat="42.7672" lon="1.57514">
        <ele>1032</ele>
        <time>2020-01-05T08:18:10.000Z</time>
      </trkpt>
      <trkpt lat="42.7672" lon="1.57515">
        <ele>1032</ele>
        <time>2020-01-05T08:18:12.000Z</time>
      </trkpt>
      <trkpt lat="42.7672" lon="1.57516">
        <ele>1033</ele>
        <time>2020-01-05T08:18:14.000Z</time>
      </trkpt>
      <trkpt lat="42.7672" lon="1.57517">
        <ele>1033</ele>
        <time>2020-01-05T08:18:16.000Z</time>
      </trkpt>
      <trkpt lat="42.76719" lon="1.57517">
        <ele>1033</ele>
        <time>2020-01-05T08:18:18.000Z</time>
      </trkpt>
      <trkpt lat="42.76719" lon="1.57517">
        <ele>1033</ele>
        <time>2020-01-05T08:18:20.000Z</time>
      </trkpt>
      <trkpt lat="42.76719" lon="1.57518">
        <ele>1033</ele>
        <time>2020-01-05T08:18:22.000Z</time>
      </trkpt>
      <trkpt lat="42.76719" lon="1.57519">
        <ele>1033</ele>
        <time>2020-01-05T08:18:24.000Z</time>
      </trkpt>
      <trkpt lat="42.76719" lon="1.57519">
        <ele>1033</ele>
        <time>2020-01-05T08:18:26.000Z</time>
      </trkpt>
      <trkpt lat="42.76718" lon="1.5752">
        <ele>1033</ele>
        <time>2020-01-05T08:18:28.000Z</time>
      </trkpt>
      <trkpt lat="42.76718" lon="1.5752">
        <ele>1034</ele>
        <time>2020-01-05T08:18:30.000Z</time>
      </trkpt>
      <trkpt lat="42.76718" lon="1.57521">
        <ele>1034</ele>
        <time>2020-01-05T08:18:32.000Z</time>
      </trkpt>
      <trkpt lat="42.76718" lon="1.57521">
        <ele>1034</ele>
        <time>2020-01-05T08:18:34.000Z</time>
      </trkpt>
      <trkpt lat="42.76717" lon="1.57522">
        <ele>1034</ele>
        <time>2020-01-05T08:18:36.000Z</time>
      </trkpt>
      <trkpt lat="42.76717" lon="1.57523">
        <ele>1034</ele>
        <time>2020-01-05T08:18:38.000Z</time>
      </trkpt>
      <trkpt lat="42.76717" lon="1.57525">
        <ele>1035</ele>
        <time>2020-01-05T08:18:40.000Z</time>
      </trkpt>
      <trkpt lat="42.76716" lon="1.57525">
        <ele>1035</ele>
        <time>2020-01-05T08:18:42.000Z</time>
      </trkpt>
      <trkpt lat="42.76717" lon="1.57526">
        <ele>1035</ele>
        <time>2020-01-05T08:18:44.000Z</time>
      </trkpt>
      <trkpt lat="42.76716" lon="1.57526">
        <ele>1035</ele>
        <time>2020-01-05T08:18:46.000Z</time>
      </trkpt>
      <trkpt lat="42.76715" lon="1.57529">
        <ele>1036</ele>
        <time>2020-01-05T08:18:48.000Z</time>
      </trkpt>
      <trkpt lat="42.76714" lon="1.57531">
        <ele>1037</ele>
        <time>2020-01-05T08:18:50.000Z</time>
      </trkpt>
      <trkpt lat="42.76714" lon="1.57532">
        <ele>1037</ele>
        <time>2020-01-05T08:18:52.000Z</time>
      </trkpt>
      <trkpt lat="42.76714" lon="1.57533">
        <ele>1038</ele>
        <time>2020-01-05T08:18:54.000Z</time>
      </trkpt>
      <trkpt lat="42.76713" lon="1.57534">
        <ele>1038</ele>
        <time>2020-01-05T08:18:56.000Z</time>
      </trkpt>
      <trkpt lat="42.76712" lon="1.57535">
        <ele>1039</ele>
        <time>2020-01-05T08:18:58.000Z</time>
      </trkpt>
      <trkpt lat="42.76712" lon="1.57535">
        <ele>1039</ele>
        <time>2020-01-05T08:19:00.000Z</time>
      </trkpt>
      <trkpt lat="42.76712" lon="1.57536">
        <ele>1039</ele>
        <time>2020-01-05T08:19:02.000Z</time>
      </trkpt>
      <trkpt lat="42.76711" lon="1.57535">
        <ele>1039</ele>
        <time>2020-01-05T08:19:04.000Z</time>
      </trkpt>
      <trkpt lat="42.76711" lon="1.57534">
        <ele>1038</ele>
        <time>2020-01-05T08:19:06.000Z</time>
      </trkpt>
      <trkpt lat="42.7671" lon="1.57534">
        <ele>1038</ele>
        <time>2020-01-05T08:19:08.000Z</time>
      </trkpt>
      <trkpt lat="42.76709" lon="1.57534">
        <ele>1039</ele>
        <time>2020-01-05T08:19:10.000Z</time>
      </trkpt>
      <trkpt lat="42.76708" lon="1.57535">
        <ele>1039</ele>
        <time>2020-01-05T08:19:12.000Z</time>
      </trkpt>
      <trkpt lat="42.76707" lon="1.57535">
        <ele>1039</ele>
        <time>2020-01-05T08:19:14.000Z</time>
      </trkpt>
      <trkpt lat="42.76706" lon="1.57537">
        <ele>1040</ele>
        <time>2020-01-05T08:19:16.000Z</time>
      </trkpt>
      <trkpt lat="42.76706" lon="1.57537">
        <ele>1040</ele>
        <time>2020-01-05T08:19:18.000Z</time>
      </trkpt>
      <trkpt lat="42.76705" lon="1.57538">
        <ele>1040</ele>
        <time>2020-01-05T08:19:20.000Z</time>
      </trkpt>
      <trkpt lat="42.76704" lon="1.57539">
        <ele>1041</ele>
        <time>2020-01-05T08:19:22.000Z</time>
      </trkpt>
      <trkpt lat="42.76704" lon="1.57539">
        <ele>1041</ele>
        <time>2020-01-05T08:19:24.000Z</time>
      </trkpt>
      <trkpt lat="42.76703" lon="1.5754">
        <ele>1042</ele>
        <time>2020-01-05T08:19:26.000Z</time>
      </trkpt>
      <trkpt lat="42.76702" lon="1.5754">
        <ele>1042</ele>
        <time>2020-01-05T08:19:28.000Z</time>
      </trkpt>
      <trkpt lat="42.76701" lon="1.5754">
        <ele>1042</ele>
        <time>2020-01-05T08:19:30.000Z</time>
      </trkpt>
      <trkpt lat="42.767" lon="1.57541">
        <ele>1042</ele>
        <time>2020-01-05T08:19:32.000Z</time>
      </trkpt>
      <trkpt lat="42.767" lon="1.57543">
        <ele>1043</ele>
        <time>2020-01-05T08:19:34.000Z</time>
      </trkpt>
      <trkpt lat="42.76701" lon="1.57544">
        <ele>1043</ele>
        <time>2020-01-05T08:19:36.000Z</time>
      </trkpt>
      <trkpt lat="42.767" lon="1.57544">
        <ele>1044</ele>
        <time>2020-01-05T08:19:38.000Z</time>
      </trkpt>
      <trkpt lat="42.767" lon="1.57544">
        <ele>1043</ele>
        <time>2020-01-05T08:19:40.000Z</time>
      </trkpt>
      <trkpt lat="42.767" lon="1.57544">
        <ele>1043</ele>
        <time>2020-01-05T08:19:42.000Z</time>
      </trkpt>
      <trkpt lat="42.767" lon="1.57545">
        <ele>1044</ele>
        <time>2020-01-05T08:19:44.000Z</time>
      </trkpt>
      <trkpt lat="42.76699" lon="1.57545">
        <ele>1044</ele>
        <time>2020-01-05T08:19:46.000Z</time>
      </trkpt>
      <trkpt lat="42.76698" lon="1.57546">
        <ele>1044</ele>
        <time>2020-01-05T08:19:48.000Z</time>
      </trkpt>
      <trkpt lat="42.76697" lon="1.57547">
        <ele>1045</ele>
        <time>2020-01-05T08:19:50.000Z</time>
      </trkpt>
      <trkpt lat="42.76696" lon="1.57547">
        <ele>1045</ele>
        <time>2020-01-05T08:19:52.000Z</time>
      </trkpt>
      <trkpt lat="42.76696" lon="1.57548">
        <ele>1046</ele>
        <time>2020-01-05T08:19:54.000Z</time>
      </trkpt>
      <trkpt lat="42.76695" lon="1.57549">
        <ele>1046</ele>
        <time>2020-01-05T08:19:56.000Z</time>
      </trkpt>
      <trkpt lat="42.76693" lon="1.57549">
        <ele>1046</ele>
        <time>2020-01-05T08:19:58.000Z</time>
      </trkpt>
      <trkpt lat="42.76692" lon="1.5755">
        <ele>1047</ele>
        <time>2020-01-05T08:20:00.000Z</time>
      </trkpt>
      <trkpt lat="42.7669" lon="1.5755">
        <ele>1047</ele>
        <time>2020-01-05T08:20:02.000Z</time>
      </trkpt>
      <trkpt lat="42.76689" lon="1.57551">
        <ele>1047</ele>
        <time>2020-01-05T08:20:04.000Z</time>
      </trkpt>
      <trkpt lat="42.76689" lon="1.57552">
        <ele>1048</ele>
        <time>2020-01-05T08:20:06.000Z</time>
      </trkpt>
      <trkpt lat="42.76687" lon="1.57551">
        <ele>1048</ele>
        <time>2020-01-05T08:20:08.000Z</time>
      </trkpt>
      <trkpt lat="42.76687" lon="1.57551">
        <ele>1048</ele>
        <time>2020-01-05T08:20:10.000Z</time>
      </trkpt>
      <trkpt lat="42.76686" lon="1.57552">
        <ele>1048</ele>
        <time>2020-01-05T08:20:12.000Z</time>
      </trkpt>
      <trkpt lat="42.76686" lon="1.57552">
        <ele>1048</ele>
        <time>2020-01-05T08:20:14.000Z</time>
      </trkpt>
      <trkpt lat="42.76685" lon="1.57552">
        <ele>1048</ele>
        <time>2020-01-05T08:20:16.000Z</time>
      </trkpt>
      <trkpt lat="42.76685" lon="1.57553">
        <ele>1048</ele>
        <time>2020-01-05T08:20:18.000Z</time>
      </trkpt>
      <trkpt lat="42.76685" lon="1.57554">
        <ele>1049</ele>
        <time>2020-01-05T08:20:20.000Z</time>
      </trkpt>
      <trkpt lat="42.76684" lon="1.57556">
        <ele>1050</ele>
        <time>2020-01-05T08:20:22.000Z</time>
      </trkpt>
      <trkpt lat="42.76683" lon="1.57557">
        <ele>1050</ele>
        <time>2020-01-05T08:20:24.000Z</time>
      </trkpt>
      <trkpt lat="42.76683" lon="1.57557">
        <ele>1050</ele>
        <time>2020-01-05T08:20:26.000Z</time>
      </trkpt>
      <trkpt lat="42.76682" lon="1.57557">
        <ele>1051</ele>
        <time>2020-01-05T08:20:28.000Z</time>
      </trkpt>
      <trkpt lat="42.7668" lon="1.57556">
        <ele>1050</ele>
        <time>2020-01-05T08:20:30.000Z</time>
      </trkpt>
      <trkpt lat="42.7668" lon="1.57557">
        <ele>1051</ele>
        <time>2020-01-05T08:20:32.000Z</time>
      </trkpt>
      <trkpt lat="42.76679" lon="1.57557">
        <ele>1051</ele>
        <time>2020-01-05T08:20:34.000Z</time>
      </trkpt>
      <trkpt lat="42.76678" lon="1.57557">
        <ele>1051</ele>
        <time>2020-01-05T08:20:36.000Z</time>
      </trkpt>
      <trkpt lat="42.76677" lon="1.57556">
        <ele>1051</ele>
        <time>2020-01-05T08:20:38.000Z</time>
      </trkpt>
      <trkpt lat="42.76677" lon="1.57557">
        <ele>1051</ele>
        <time>2020-01-05T08:20:40.000Z</time>
      </trkpt>
      <trkpt lat="42.76677" lon="1.57557">
        <ele>1051</ele>
        <time>2020-01-05T08:20:42.000Z</time>
      </trkpt>
      <trkpt lat="42.76676" lon="1.57558">
        <ele>1051</ele>
        <time>2020-01-05T08:20:44.000Z</time>
      </trkpt>
      <trkpt lat="42.76675" lon="1.57559">
        <ele>1052</ele>
        <time>2020-01-05T08:20:46.000Z</time>
      </trkpt>
      <trkpt lat="42.76674" lon="1.5756">
        <ele>1052</ele>
        <time>2020-01-05T08:20:48.000Z</time>
      </trkpt>
      <trkpt lat="42.76674" lon="1.57561">
        <ele>1053</ele>
        <time>2020-01-05T08:20:50.000Z</time>
      </trkpt>
      <trkpt lat="42.76673" lon="1.57562">
        <ele>1053</ele>
        <time>2020-01-05T08:20:52.000Z</time>
      </trkpt>
      <trkpt lat="42.76673" lon="1.57563">
        <ele>1054</ele>
        <time>2020-01-05T08:20:54.000Z</time>
      </trkpt>
      <trkpt lat="42.76672" lon="1.57563">
        <ele>1054</ele>
        <time>2020-01-05T08:20:56.000Z</time>
      </trkpt>
      <trkpt lat="42.76672" lon="1.57564">
        <ele>1054</ele>
        <time>2020-01-05T08:20:58.000Z</time>
      </trkpt>
      <trkpt lat="42.76672" lon="1.57565">
        <ele>1055</ele>
        <time>2020-01-05T08:21:00.000Z</time>
      </trkpt>
      <trkpt lat="42.76672" lon="1.57565">
        <ele>1055</ele>
        <time>2020-01-05T08:21:02.000Z</time>
      </trkpt>
      <trkpt lat="42.76671" lon="1.57565">
        <ele>1055</ele>
        <time>2020-01-05T08:21:04.000Z</time>
      </trkpt>
      <trkpt lat="42.7667" lon="1.57567">
        <ele>1055</ele>
        <time>2020-01-05T08:21:06.000Z</time>
      </trkpt>
      <trkpt lat="42.76669" lon="1.57568">
        <ele>1056</ele>
        <time>2020-01-05T08:21:08.000Z</time>
      </trkpt>
      <trkpt lat="42.76669" lon="1.57569">
        <ele>1056</ele>
        <time>2020-01-05T08:21:10.000Z</time>
      </trkpt>
      <trkpt lat="42.76668" lon="1.57569">
        <ele>1056</ele>
        <time>2020-01-05T08:21:12.000Z</time>
      </trkpt>
      <trkpt lat="42.76669" lon="1.5757">
        <ele>1057</ele>
        <time>2020-01-05T08:21:14.000Z</time>
      </trkpt>
      <trkpt lat="42.76669" lon="1.57572">
        <ele>1057</ele>
        <time>2020-01-05T08:21:16.000Z</time>
      </trkpt>
      <trkpt lat="42.76668" lon="1.57572">
        <ele>1057</ele>
        <time>2020-01-05T08:21:18.000Z</time>
      </trkpt>
      <trkpt lat="42.76668" lon="1.57573">
        <ele>1057</ele>
        <time>2020-01-05T08:21:20.000Z</time>
      </trkpt>
      <trkpt lat="42.76667" lon="1.57574">
        <ele>1058</ele>
        <time>2020-01-05T08:21:22.000Z</time>
      </trkpt>
      <trkpt lat="42.76666" lon="1.57574">
        <ele>1058</ele>
        <time>2020-01-05T08:21:24.000Z</time>
      </trkpt>
      <trkpt lat="42.76666" lon="1.57575">
        <ele>1058</ele>
        <time>2020-01-05T08:21:26.000Z</time>
      </trkpt>
      <trkpt lat="42.76666" lon="1.57576">
        <ele>1058</ele>
        <time>2020-01-05T08:21:28.000Z</time>
      </trkpt>
      <trkpt lat="42.76665" lon="1.57576">
        <ele>1058</ele>
        <time>2020-01-05T08:21:30.000Z</time>
      </trkpt>
      <trkpt lat="42.76665" lon="1.57577">
        <ele>1058</ele>
        <time>2020-01-05T08:21:32.000Z</time>
      </trkpt>
      <trkpt lat="42.76664" lon="1.57578">
        <ele>1059</ele>
        <time>2020-01-05T08:21:34.000Z</time>
      </trkpt>
      <trkpt lat="42.76665" lon="1.57579">
        <ele>1059</ele>
        <time>2020-01-05T08:21:36.000Z</time>
      </trkpt>
      <trkpt lat="42.76665" lon="1.5758">
        <ele>1059</ele>
        <time>2020-01-05T08:21:38.000Z</time>
      </trkpt>
      <trkpt lat="42.76665" lon="1.57581">
        <ele>1060</ele>
        <time>2020-01-05T08:21:40.000Z</time>
      </trkpt>
      <trkpt lat="42.76666" lon="1.57582">
        <ele>1060</ele>
        <time>2020-01-05T08:21:42.000Z</time>
      </trkpt>
      <trkpt lat="42.76665" lon="1.57582">
        <ele>1060</ele>
        <time>2020-01-05T08:21:44.000Z</time>
      </trkpt>
      <trkpt lat="42.76664" lon="1.57583">
        <ele>1061</ele>
        <time>2020-01-05T08:21:46.000Z</time>
      </trkpt>
      <trkpt lat="42.76663" lon="1.57585">
        <ele>1061</ele>
        <time>2020-01-05T08:21:48.000Z</time>
      </trkpt>
      <trkpt lat="42.76662" lon="1.57585">
        <ele>1061</ele>
        <time>2020-01-05T08:21:50.000Z</time>
      </trkpt>
      <trkpt lat="42.76662" lon="1.57586">
        <ele>1061</ele>
        <time>2020-01-05T08:21:52.000Z</time>
      </trkpt>
      <trkpt lat="42.76662" lon="1.57589">
        <ele>1062</ele>
        <time>2020-01-05T08:21:54.000Z</time>
      </trkpt>
      <trkpt lat="42.76661" lon="1.5759">
        <ele>1062</ele>
        <time>2020-01-05T08:21:56.000Z</time>
      </trkpt>
      <trkpt lat="42.7666" lon="1.5759">
        <ele>1063</ele>
        <time>2020-01-05T08:21:58.000Z</time>
      </trkpt>
      <trkpt lat="42.7666" lon="1.57591">
        <ele>1063</ele>
        <time>2020-01-05T08:22:00.000Z</time>
      </trkpt>
      <trkpt lat="42.7666" lon="1.5759">
        <ele>1062</ele>
        <time>2020-01-05T08:22:02.000Z</time>
      </trkpt>
      <trkpt lat="42.76659" lon="1.57589">
        <ele>1062</ele>
        <time>2020-01-05T08:22:04.000Z</time>
      </trkpt>
      <trkpt lat="42.76658" lon="1.57589">
        <ele>1062</ele>
        <time>2020-01-05T08:22:06.000Z</time>
      </trkpt>
      <trkpt lat="42.76656" lon="1.57588">
        <ele>1061</ele>
        <time>2020-01-05T08:22:08.000Z</time>
      </trkpt>
      <trkpt lat="42.76654" lon="1.57588">
        <ele>1061</ele>
        <time>2020-01-05T08:22:10.000Z</time>
      </trkpt>
      <trkpt lat="42.76654" lon="1.57588">
        <ele>1061</ele>
        <time>2020-01-05T08:22:12.000Z</time>
      </trkpt>
      <trkpt lat="42.76652" lon="1.57588">
        <ele>1061</ele>
        <time>2020-01-05T08:22:14.000Z</time>
      </trkpt>
      <trkpt lat="42.76651" lon="1.57588">
        <ele>1061</ele>
        <time>2020-01-05T08:22:16.000Z</time>
      </trkpt>
      <trkpt lat="42.76649" lon="1.57588">
        <ele>1061</ele>
        <time>2020-01-05T08:22:18.000Z</time>
      </trkpt>
      <trkpt lat="42.76648" lon="1.5759">
        <ele>1061</ele>
        <time>2020-01-05T08:22:20.000Z</time>
      </trkpt>
      <trkpt lat="42.76648" lon="1.57591">
        <ele>1062</ele>
        <time>2020-01-05T08:22:22.000Z</time>
      </trkpt>
      <trkpt lat="42.76647" lon="1.57593">
        <ele>1062</ele>
        <time>2020-01-05T08:22:24.000Z</time>
      </trkpt>
      <trkpt lat="42.76647" lon="1.57594">
        <ele>1063</ele>
        <time>2020-01-05T08:22:26.000Z</time>
      </trkpt>
      <trkpt lat="42.76646" lon="1.57595">
        <ele>1063</ele>
        <time>2020-01-05T08:22:28.000Z</time>
      </trkpt>
      <trkpt lat="42.76647" lon="1.57596">
        <ele>1063</ele>
        <time>2020-01-05T08:22:30.000Z</time>
      </trkpt>
      <trkpt lat="42.76646" lon="1.57597">
        <ele>1063</ele>
        <time>2020-01-05T08:22:32.000Z</time>
      </trkpt>
      <trkpt lat="42.76646" lon="1.57598">
        <ele>1064</ele>
        <time>2020-01-05T08:22:34.000Z</time>
      </trkpt>
      <trkpt lat="42.76646" lon="1.57597">
        <ele>1063</ele>
        <time>2020-01-05T08:22:36.000Z</time>
      </trkpt>
      <trkpt lat="42.76645" lon="1.57597">
        <ele>1063</ele>
        <time>2020-01-05T08:22:38.000Z</time>
      </trkpt>
      <trkpt lat="42.76644" lon="1.57598">
        <ele>1064</ele>
        <time>2020-01-05T08:22:40.000Z</time>
      </trkpt>
      <trkpt lat="42.76644" lon="1.57598">
        <ele>1064</ele>
        <time>2020-01-05T08:22:42.000Z</time>
      </trkpt>
      <trkpt lat="42.76643" lon="1.57599">
        <ele>1064</ele>
        <time>2020-01-05T08:22:44.000Z</time>
      </trkpt>
      <trkpt lat="42.76644" lon="1.576">
        <ele>1064</ele>
        <time>2020-01-05T08:22:46.000Z</time>
      </trkpt>
      <trkpt lat="42.76644" lon="1.576">
        <ele>1064</ele>
        <time>2020-01-05T08:22:48.000Z</time>
      </trkpt>
      <trkpt lat="42.76644" lon="1.57599">
        <ele>1064</ele>
        <time>2020-01-05T08:22:50.000Z</time>
      </trkpt>
      <trkpt lat="42.76644" lon="1.576">
        <ele>1064</ele>
        <time>2020-01-05T08:22:52.000Z</time>
      </trkpt>
      <trkpt lat="42.76643" lon="1.576">
        <ele>1064</ele>
        <time>2020-01-05T08:22:54.000Z</time>
      </trkpt>
      <trkpt lat="42.76643" lon="1.576">
        <ele>1064</ele>
        <time>2020-01-05T08:22:56.000Z</time>
      </trkpt>
      <trkpt lat="42.76642" lon="1.57599">
        <ele>1064</ele>
        <time>2020-01-05T08:22:58.000Z</time>
      </trkpt>
      <trkpt lat="42.76641" lon="1.57599">
        <ele>1064</ele>
        <time>2020-01-05T08:23:00.000Z</time>
      </trkpt>
      <trkpt lat="42.76641" lon="1.57601">
        <ele>1064</ele>
        <time>2020-01-05T08:23:02.000Z</time>
      </trkpt>
      <trkpt lat="42.7664" lon="1.57602">
        <ele>1064</ele>
        <time>2020-01-05T08:23:04.000Z</time>
      </trkpt>
      <trkpt lat="42.76639" lon="1.57602">
        <ele>1064</ele>
        <time>2020-01-05T08:23:06.000Z</time>
      </trkpt>
      <trkpt lat="42.76639" lon="1.57603">
        <ele>1064</ele>
        <time>2020-01-05T08:23:08.000Z</time>
      </trkpt>
      <trkpt lat="42.76638" lon="1.57602">
        <ele>1064</ele>
        <time>2020-01-05T08:23:10.000Z</time>
      </trkpt>
      <trkpt lat="42.76638" lon="1.57602">
        <ele>1064</ele>
        <time>2020-01-05T08:23:12.000Z</time>
      </trkpt>
      <trkpt lat="42.76638" lon="1.57602">
        <ele>1064</ele>
        <time>2020-01-05T08:23:14.000Z</time>
      </trkpt>
      <trkpt lat="42.76638" lon="1.57602">
        <ele>1064</ele>
        <time>2020-01-05T08:23:16.000Z</time>
      </trkpt>
      <trkpt lat="42.76638" lon="1.57602">
        <ele>1064</ele>
        <time>2020-01-05T08:23:18.000Z</time>
      </trkpt>
      <trkpt lat="42.76638" lon="1.57602">
        <ele>1064</ele>
        <time>2020-01-05T08:23:20.000Z</time>
      </trkpt>
      <trkpt lat="42.76638" lon="1.57602">
        <ele>1064</ele>
        <time>2020-01-05T08:23:22.000Z</time>
      </trkpt>
      <trkpt lat="42.76638" lon="1.57602">
        <ele>1064</ele>
        <time>2020-01-05T08:23:24.000Z</time>
      </trkpt>
      <trkpt lat="42.76639" lon="1.57603">
        <ele>1065</ele>
        <time>2020-01-05T08:23:26.000Z</time>
      </trkpt>
      <trkpt lat="42.76641" lon="1.57604">
        <ele>1065</ele>
        <time>2020-01-05T08:23:28.000Z</time>
      </trkpt>
      <trkpt lat="42.76642" lon="1.57605">
        <ele>1066</ele>
        <time>2020-01-05T08:23:30.000Z</time>
      </trkpt>
      <trkpt lat="42.76643" lon="1.57606">
        <ele>1066</ele>
        <time>2020-01-05T08:23:32.000Z</time>
      </trkpt>
      <trkpt lat="42.76643" lon="1.57606">
        <ele>1066</ele>
        <time>2020-01-05T08:23:34.000Z</time>
      </trkpt>
      <trkpt lat="42.76644" lon="1.57607">
        <ele>1066</ele>
        <time>2020-01-05T08:23:36.000Z</time>
      </trkpt>
      <trkpt lat="42.76644" lon="1.57607">
        <ele>1066</ele>
        <time>2020-01-05T08:23:38.000Z</time>
      </trkpt>
      <trkpt lat="42.76643" lon="1.57609">
        <ele>1067</ele>
        <time>2020-01-05T08:23:40.000Z</time>
      </trkpt>
      <trkpt lat="42.76643" lon="1.5761">
        <ele>1068</ele>
        <time>2020-01-05T08:23:42.000Z</time>
      </trkpt>
      <trkpt lat="42.76643" lon="1.57611">
        <ele>1068</ele>
        <time>2020-01-05T08:23:44.000Z</time>
      </trkpt>
      <trkpt lat="42.76643" lon="1.57612">
        <ele>1068</ele>
        <time>2020-01-05T08:23:46.000Z</time>
      </trkpt>
      <trkpt lat="42.76642" lon="1.57613">
        <ele>1068</ele>
        <time>2020-01-05T08:23:48.000Z</time>
      </trkpt>
      <trkpt lat="42.76642" lon="1.57615">
        <ele>1069</ele>
        <time>2020-01-05T08:23:50.000Z</time>
      </trkpt>
      <trkpt lat="42.76642" lon="1.57616">
        <ele>1069</ele>
        <time>2020-01-05T08:23:52.000Z</time>
      </trkpt>
      <trkpt lat="42.76641" lon="1.57618">
        <ele>1070</ele>
        <time>2020-01-05T08:23:54.000Z</time>
      </trkpt>
      <trkpt lat="42.76641" lon="1.57619">
        <ele>1070</ele>
        <time>2020-01-05T08:23:56.000Z</time>
      </trkpt>
      <trkpt lat="42.76641" lon="1.5762">
        <ele>1071</ele>
        <time>2020-01-05T08:23:58.000Z</time>
      </trkpt>
      <trkpt lat="42.7664" lon="1.57621">
        <ele>1071</ele>
        <time>2020-01-05T08:24:00.000Z</time>
      </trkpt>
      <trkpt lat="42.7664" lon="1.57622">
        <ele>1071</ele>
        <time>2020-01-05T08:24:02.000Z</time>
      </trkpt>
      <trkpt lat="42.76639" lon="1.57623">
        <ele>1071</ele>
        <time>2020-01-05T08:24:04.000Z</time>
      </trkpt>
      <trkpt lat="42.76639" lon="1.57623">
        <ele>1071</ele>
        <time>2020-01-05T08:24:06.000Z</time>
      </trkpt>
      <trkpt lat="42.76639" lon="1.57624">
        <ele>1071</ele>
        <time>2020-01-05T08:24:08.000Z</time>
      </trkpt>
      <trkpt lat="42.76638" lon="1.57625">
        <ele>1071</ele>
        <time>2020-01-05T08:24:10.000Z</time>
      </trkpt>
      <trkpt lat="42.76637" lon="1.57626">
        <ele>1072</ele>
        <time>2020-01-05T08:24:12.000Z</time>
      </trkpt>
      <trkpt lat="42.76636" lon="1.57628">
        <ele>1072</ele>
        <time>2020-01-05T08:24:14.000Z</time>
      </trkpt>
      <trkpt lat="42.76636" lon="1.5763">
        <ele>1072</ele>
        <time>2020-01-05T08:24:16.000Z</time>
      </trkpt>
      <trkpt lat="42.76636" lon="1.57631">
        <ele>1073</ele>
        <time>2020-01-05T08:24:18.000Z</time>
      </trkpt>
      <trkpt lat="42.76636" lon="1.57631">
        <ele>1073</ele>
        <time>2020-01-05T08:24:20.000Z</time>
      </trkpt>
      <trkpt lat="42.76636" lon="1.57632">
        <ele>1073</ele>
        <time>2020-01-05T08:24:22.000Z</time>
      </trkpt>
      <trkpt lat="42.76636" lon="1.57633">
        <ele>1073</ele>
        <time>2020-01-05T08:24:24.000Z</time>
      </trkpt>
      <trkpt lat="42.76636" lon="1.57633">
        <ele>1073</ele>
        <time>2020-01-05T08:24:26.000Z</time>
      </trkpt>
      <trkpt lat="42.76636" lon="1.57634">
        <ele>1073</ele>
        <time>2020-01-05T08:24:28.000Z</time>
      </trkpt>
      <trkpt lat="42.76636" lon="1.57635">
        <ele>1074</ele>
        <time>2020-01-05T08:24:30.000Z</time>
      </trkpt>
      <trkpt lat="42.76636" lon="1.57636">
        <ele>1074</ele>
        <time>2020-01-05T08:24:32.000Z</time>
      </trkpt>
      <trkpt lat="42.76636" lon="1.57637">
        <ele>1074</ele>
        <time>2020-01-05T08:24:34.000Z</time>
      </trkpt>
      <trkpt lat="42.76637" lon="1.57637">
        <ele>1075</ele>
        <time>2020-01-05T08:24:36.000Z</time>
      </trkpt>
      <trkpt lat="42.76637" lon="1.57638">
        <ele>1075</ele>
        <time>2020-01-05T08:24:38.000Z</time>
      </trkpt>
      <trkpt lat="42.76637" lon="1.57639">
        <ele>1075</ele>
        <time>2020-01-05T08:24:40.000Z</time>
      </trkpt>
      <trkpt lat="42.76637" lon="1.5764">
        <ele>1075</ele>
        <time>2020-01-05T08:24:42.000Z</time>
      </trkpt>
      <trkpt lat="42.76638" lon="1.57641">
        <ele>1076</ele>
        <time>2020-01-05T08:24:44.000Z</time>
      </trkpt>
      <trkpt lat="42.76638" lon="1.57643">
        <ele>1076</ele>
        <time>2020-01-05T08:24:46.000Z</time>
      </trkpt>
      <trkpt lat="42.76638" lon="1.57643">
        <ele>1076</ele>
        <time>2020-01-05T08:24:48.000Z</time>
      </trkpt>
      <trkpt lat="42.76638" lon="1.57644">
        <ele>1077</ele>
        <time>2020-01-05T08:24:50.000Z</time>
      </trkpt>
      <trkpt lat="42.76638" lon="1.57646">
        <ele>1077</ele>
        <time>2020-01-05T08:24:52.000Z</time>
      </trkpt>
      <trkpt lat="42.76637" lon="1.57646">
        <ele>1077</ele>
        <time>2020-01-05T08:24:54.000Z</time>
      </trkpt>
      <trkpt lat="42.76637" lon="1.57647">
        <ele>1077</ele>
        <time>2020-01-05T08:24:56.000Z</time>
      </trkpt>
      <trkpt lat="42.76637" lon="1.57648">
        <ele>1077</ele>
        <time>2020-01-05T08:24:58.000Z</time>
      </trkpt>
      <trkpt lat="42.76637" lon="1.57649">
        <ele>1078</ele>
        <time>2020-01-05T08:25:00.000Z</time>
      </trkpt>
      <trkpt lat="42.76637" lon="1.5765">
        <ele>1078</ele>
        <time>2020-01-05T08:25:02.000Z</time>
      </trkpt>
      <trkpt lat="42.76636" lon="1.57651">
        <ele>1078</ele>
        <time>2020-01-05T08:25:04.000Z</time>
      </trkpt>
      <trkpt lat="42.76636" lon="1.57652">
        <ele>1078</ele>
        <time>2020-01-05T08:25:06.000Z</time>
      </trkpt>
      <trkpt lat="42.76636" lon="1.57654">
        <ele>1079</ele>
        <time>2020-01-05T08:25:08.000Z</time>
      </trkpt>
      <trkpt lat="42.76635" lon="1.57654">
        <ele>1079</ele>
        <time>2020-01-05T08:25:10.000Z</time>
      </trkpt>
      <trkpt lat="42.76635" lon="1.57654">
        <ele>1079</ele>
        <time>2020-01-05T08:25:12.000Z</time>
      </trkpt>
      <trkpt lat="42.76635" lon="1.57655">
        <ele>1079</ele>
        <time>2020-01-05T08:25:14.000Z</time>
      </trkpt>
      <trkpt lat="42.76635" lon="1.57657">
        <ele>1080</ele>
        <time>2020-01-05T08:25:16.000Z</time>
      </trkpt>
      <trkpt lat="42.76634" lon="1.57658">
        <ele>1080</ele>
        <time>2020-01-05T08:25:18.000Z</time>
      </trkpt>
      <trkpt lat="42.76634" lon="1.5766">
        <ele>1081</ele>
        <time>2020-01-05T08:25:20.000Z</time>
      </trkpt>
      <trkpt lat="42.76634" lon="1.57662">
        <ele>1082</ele>
        <time>2020-01-05T08:25:22.000Z</time>
      </trkpt>
      <trkpt lat="42.76634" lon="1.57664">
        <ele>1082</ele>
        <time>2020-01-05T08:25:24.000Z</time>
      </trkpt>
      <trkpt lat="42.76634" lon="1.57664">
        <ele>1083</ele>
        <time>2020-01-05T08:25:26.000Z</time>
      </trkpt>
      <trkpt lat="42.76634" lon="1.57666">
        <ele>1083</ele>
        <time>2020-01-05T08:25:28.000Z</time>
      </trkpt>
      <trkpt lat="42.76634" lon="1.57667">
        <ele>1083</ele>
        <time>2020-01-05T08:25:30.000Z</time>
      </trkpt>
      <trkpt lat="42.76634" lon="1.57668">
        <ele>1084</ele>
        <time>2020-01-05T08:25:32.000Z</time>
      </trkpt>
      <trkpt lat="42.76634" lon="1.57671">
        <ele>1085</ele>
        <time>2020-01-05T08:25:34.000Z</time>
      </trkpt>
      <trkpt lat="42.76633" lon="1.57672">
        <ele>1085</ele>
        <time>2020-01-05T08:25:36.000Z</time>
      </trkpt>
      <trkpt lat="42.76633" lon="1.57674">
        <ele>1086</ele>
        <time>2020-01-05T08:25:38.000Z</time>
      </trkpt>
      <trkpt lat="42.76633" lon="1.57675">
        <ele>1086</ele>
        <time>2020-01-05T08:25:40.000Z</time>
      </trkpt>
      <trkpt lat="42.76633" lon="1.57676">
        <ele>1087</ele>
        <time>2020-01-05T08:25:42.000Z</time>
      </trkpt>
      <trkpt lat="42.76634" lon="1.57677">
        <ele>1087</ele>
        <time>2020-01-05T08:25:44.000Z</time>
      </trkpt>
      <trkpt lat="42.76634" lon="1.57678">
        <ele>1088</ele>
        <time>2020-01-05T08:25:46.000Z</time>
      </trkpt>
      <trkpt lat="42.76634" lon="1.57679">
        <ele>1088</ele>
        <time>2020-01-05T08:25:48.000Z</time>
      </trkpt>
      <trkpt lat="42.76633" lon="1.57681">
        <ele>1089</ele>
        <time>2020-01-05T08:25:50.000Z</time>
      </trkpt>
      <trkpt lat="42.76633" lon="1.57682">
        <ele>1089</ele>
        <time>2020-01-05T08:25:52.000Z</time>
      </trkpt>
      <trkpt lat="42.76633" lon="1.57684">
        <ele>1090</ele>
        <time>2020-01-05T08:25:54.000Z</time>
      </trkpt>
      <trkpt lat="42.76633" lon="1.57685">
        <ele>1090</ele>
        <time>2020-01-05T08:25:56.000Z</time>
      </trkpt>
      <trkpt lat="42.76633" lon="1.57686">
        <ele>1091</ele>
        <time>2020-01-05T08:25:58.000Z</time>
      </trkpt>
      <trkpt lat="42.76633" lon="1.57687">
        <ele>1091</ele>
        <time>2020-01-05T08:26:00.000Z</time>
      </trkpt>
      <trkpt lat="42.76633" lon="1.57688">
        <ele>1091</ele>
        <time>2020-01-05T08:26:02.000Z</time>
      </trkpt>
      <trkpt lat="42.76633" lon="1.57689">
        <ele>1091</ele>
        <time>2020-01-05T08:26:04.000Z</time>
      </trkpt>
      <trkpt lat="42.76632" lon="1.57691">
        <ele>1092</ele>
        <time>2020-01-05T08:26:06.000Z</time>
      </trkpt>
      <trkpt lat="42.76632" lon="1.57692">
        <ele>1092</ele>
        <time>2020-01-05T08:26:08.000Z</time>
      </trkpt>
      <trkpt lat="42.76632" lon="1.57693">
        <ele>1093</ele>
        <time>2020-01-05T08:26:10.000Z</time>
      </trkpt>
      <trkpt lat="42.76631" lon="1.57694">
        <ele>1093</ele>
        <time>2020-01-05T08:26:12.000Z</time>
      </trkpt>
      <trkpt lat="42.76631" lon="1.57694">
        <ele>1093</ele>
        <time>2020-01-05T08:26:14.000Z</time>
      </trkpt>
      <trkpt lat="42.7663" lon="1.57694">
        <ele>1093</ele>
        <time>2020-01-05T08:26:16.000Z</time>
      </trkpt>
      <trkpt lat="42.7663" lon="1.57694">
        <ele>1093</ele>
        <time>2020-01-05T08:26:18.000Z</time>
      </trkpt>
      <trkpt lat="42.7663" lon="1.57696">
        <ele>1094</ele>
        <time>2020-01-05T08:26:20.000Z</time>
      </trkpt>
      <trkpt lat="42.7663" lon="1.57699">
        <ele>1095</ele>
        <time>2020-01-05T08:26:22.000Z</time>
      </trkpt>
      <trkpt lat="42.76631" lon="1.577">
        <ele>1096</ele>
        <time>2020-01-05T08:26:24.000Z</time>
      </trkpt>
      <trkpt lat="42.7663" lon="1.57702">
        <ele>1096</ele>
        <time>2020-01-05T08:26:26.000Z</time>
      </trkpt>
      <trkpt lat="42.7663" lon="1.57703">
        <ele>1097</ele>
        <time>2020-01-05T08:26:28.000Z</time>
      </trkpt>
      <trkpt lat="42.76629" lon="1.57705">
        <ele>1098</ele>
        <time>2020-01-05T08:26:30.000Z</time>
      </trkpt>
      <trkpt lat="42.76629" lon="1.57706">
        <ele>1098</ele>
        <time>2020-01-05T08:26:32.000Z</time>
      </trkpt>
      <trkpt lat="42.76629" lon="1.57707">
        <ele>1099</ele>
        <time>2020-01-05T08:26:34.000Z</time>
      </trkpt>
      <trkpt lat="42.76629" lon="1.57708">
        <ele>1099</ele>
        <time>2020-01-05T08:26:36.000Z</time>
      </trkpt>
      <trkpt lat="42.76629" lon="1.57709">
        <ele>1100</ele>
        <time>2020-01-05T08:26:38.000Z</time>
      </trkpt>
      <trkpt lat="42.76629" lon="1.5771">
        <ele>1100</ele>
        <time>2020-01-05T08:26:40.000Z</time>
      </trkpt>
      <trkpt lat="42.76629" lon="1.5771">
        <ele>1100</ele>
        <time>2020-01-05T08:26:42.000Z</time>
      </trkpt>
      <trkpt lat="42.76629" lon="1.57711">
        <ele>1100</ele>
        <time>2020-01-05T08:26:44.000Z</time>
      </trkpt>
      <trkpt lat="42.76629" lon="1.57711">
        <ele>1101</ele>
        <time>2020-01-05T08:26:46.000Z</time>
      </trkpt>
      <trkpt lat="42.76628" lon="1.57712">
        <ele>1101</ele>
        <time>2020-01-05T08:26:48.000Z</time>
      </trkpt>
      <trkpt lat="42.76628" lon="1.57713">
        <ele>1101</ele>
        <time>2020-01-05T08:26:50.000Z</time>
      </trkpt>
      <trkpt lat="42.76628" lon="1.57714">
        <ele>1102</ele>
        <time>2020-01-05T08:26:52.000Z</time>
      </trkpt>
      <trkpt lat="42.76628" lon="1.57715">
        <ele>1102</ele>
        <time>2020-01-05T08:26:54.000Z</time>
      </trkpt>
      <trkpt lat="42.76627" lon="1.57715">
        <ele>1102</ele>
        <time>2020-01-05T08:26:56.000Z</time>
      </trkpt>
      <trkpt lat="42.76626" lon="1.57715">
        <ele>1102</ele>
        <time>2020-01-05T08:26:58.000Z</time>
      </trkpt>
      <trkpt lat="42.76626" lon="1.57716">
        <ele>1102</ele>
        <time>2020-01-05T08:27:00.000Z</time>
      </trkpt>
      <trkpt lat="42.76625" lon="1.57716">
        <ele>1102</ele>
        <time>2020-01-05T08:27:02.000Z</time>
      </trkpt>
      <trkpt lat="42.76624" lon="1.57716">
        <ele>1102</ele>
        <time>2020-01-05T08:27:04.000Z</time>
      </trkpt>
      <trkpt lat="42.76623" lon="1.57717">
        <ele>1102</ele>
        <time>2020-01-05T08:27:06.000Z</time>
      </trkpt>
      <trkpt lat="42.76622" lon="1.57718">
        <ele>1103</ele>
        <time>2020-01-05T08:27:08.000Z</time>
      </trkpt>
      <trkpt lat="42.76621" lon="1.57719">
        <ele>1103</ele>
        <time>2020-01-05T08:27:10.000Z</time>
      </trkpt>
      <trkpt lat="42.7662" lon="1.5772">
        <ele>1104</ele>
        <time>2020-01-05T08:27:12.000Z</time>
      </trkpt>
      <trkpt lat="42.76619" lon="1.57722">
        <ele>1104</ele>
        <time>2020-01-05T08:27:14.000Z</time>
      </trkpt>
      <trkpt lat="42.76619" lon="1.57723">
        <ele>1105</ele>
        <time>2020-01-05T08:27:16.000Z</time>
      </trkpt>
      <trkpt lat="42.76618" lon="1.57724">
        <ele>1105</ele>
        <time>2020-01-05T08:27:18.000Z</time>
      </trkpt>
      <trkpt lat="42.76617" lon="1.57725">
        <ele>1105</ele>
        <time>2020-01-05T08:27:20.000Z</time>
      </trkpt>
      <trkpt lat="42.76615" lon="1.57726">
        <ele>1106</ele>
        <time>2020-01-05T08:27:22.000Z</time>
      </trkpt>
      <trkpt lat="42.76615" lon="1.57727">
        <ele>1106</ele>
        <time>2020-01-05T08:27:24.000Z</time>
      </trkpt>
      <trkpt lat="42.76614" lon="1.57729">
        <ele>1107</ele>
        <time>2020-01-05T08:27:26.000Z</time>
      </trkpt>
      <trkpt lat="42.76613" lon="1.57729">
        <ele>1107</ele>
        <time>2020-01-05T08:27:28.000Z</time>
      </trkpt>
      <trkpt lat="42.76612" lon="1.5773">
        <ele>1107</ele>
        <time>2020-01-05T08:27:30.000Z</time>
      </trkpt>
      <trkpt lat="42.76611" lon="1.57731">
        <ele>1107</ele>
        <time>2020-01-05T08:27:32.000Z</time>
      </trkpt>
      <trkpt lat="42.7661" lon="1.57731">
        <ele>1108</ele>
        <time>2020-01-05T08:27:34.000Z</time>
      </trkpt>
      <trkpt lat="42.76609" lon="1.57732">
        <ele>1108</ele>
        <time>2020-01-05T08:27:36.000Z</time>
      </trkpt>
      <trkpt lat="42.76607" lon="1.57733">
        <ele>1108</ele>
        <time>2020-01-05T08:27:38.000Z</time>
      </trkpt>
      <trkpt lat="42.76606" lon="1.57732">
        <ele>1108</ele>
        <time>2020-01-05T08:27:40.000Z</time>
      </trkpt>
      <trkpt lat="42.76605" lon="1.57732">
        <ele>1108</ele>
        <time>2020-01-05T08:27:42.000Z</time>
      </trkpt>
      <trkpt lat="42.76603" lon="1.57734">
        <ele>1108</ele>
        <time>2020-01-05T08:27:44.000Z</time>
      </trkpt>
      <trkpt lat="42.76602" lon="1.57735">
        <ele>1109</ele>
        <time>2020-01-05T08:27:46.000Z</time>
      </trkpt>
      <trkpt lat="42.76601" lon="1.57736">
        <ele>1109</ele>
        <time>2020-01-05T08:27:48.000Z</time>
      </trkpt>
      <trkpt lat="42.76599" lon="1.57737">
        <ele>1109</ele>
        <time>2020-01-05T08:27:50.000Z</time>
      </trkpt>
      <trkpt lat="42.76597" lon="1.57737">
        <ele>1109</ele>
        <time>2020-01-05T08:27:52.000Z</time>
      </trkpt>
      <trkpt lat="42.76596" lon="1.57737">
        <ele>1109</ele>
        <time>2020-01-05T08:27:54.000Z</time>
      </trkpt>
      <trkpt lat="42.76595" lon="1.57738">
        <ele>1109</ele>
        <time>2020-01-05T08:27:56.000Z</time>
      </trkpt>
      <trkpt lat="42.76594" lon="1.57738">
        <ele>1109</ele>
        <time>2020-01-05T08:27:58.000Z</time>
      </trkpt>
      <trkpt lat="42.76592" lon="1.57738">
        <ele>1109</ele>
        <time>2020-01-05T08:28:00.000Z</time>
      </trkpt>
      <trkpt lat="42.76592" lon="1.57739">
        <ele>1109</ele>
        <time>2020-01-05T08:28:02.000Z</time>
      </trkpt>
      <trkpt lat="42.76591" lon="1.57739">
        <ele>1109</ele>
        <time>2020-01-05T08:28:04.000Z</time>
      </trkpt>
      <trkpt lat="42.7659" lon="1.57739">
        <ele>1109</ele>
        <time>2020-01-05T08:28:06.000Z</time>
      </trkpt>
      <trkpt lat="42.76589" lon="1.57739">
        <ele>1108</ele>
        <time>2020-01-05T08:28:08.000Z</time>
      </trkpt>
      <trkpt lat="42.76589" lon="1.5774">
        <ele>1109</ele>
        <time>2020-01-05T08:28:10.000Z</time>
      </trkpt>
      <trkpt lat="42.76588" lon="1.57739">
        <ele>1109</ele>
        <time>2020-01-05T08:28:12.000Z</time>
      </trkpt>
      <trkpt lat="42.76587" lon="1.57739">
        <ele>1108</ele>
        <time>2020-01-05T08:28:14.000Z</time>
      </trkpt>
      <trkpt lat="42.76586" lon="1.5774">
        <ele>1109</ele>
        <time>2020-01-05T08:28:16.000Z</time>
      </trkpt>
      <trkpt lat="42.76585" lon="1.57741">
        <ele>1109</ele>
        <time>2020-01-05T08:28:18.000Z</time>
      </trkpt>
      <trkpt lat="42.76583" lon="1.57741">
        <ele>1108</ele>
        <time>2020-01-05T08:28:20.000Z</time>
      </trkpt>
      <trkpt lat="42.76582" lon="1.57742">
        <ele>1109</ele>
        <time>2020-01-05T08:28:22.000Z</time>
      </trkpt>
      <trkpt lat="42.76581" lon="1.57741">
        <ele>1108</ele>
        <time>2020-01-05T08:28:24.000Z</time>
      </trkpt>
      <trkpt lat="42.7658" lon="1.57741">
        <ele>1108</ele>
        <time>2020-01-05T08:28:26.000Z</time>
      </trkpt>
      <trkpt lat="42.76579" lon="1.57741">
        <ele>1108</ele>
        <time>2020-01-05T08:28:28.000Z</time>
      </trkpt>
      <trkpt lat="42.76578" lon="1.57741">
        <ele>1108</ele>
        <time>2020-01-05T08:28:30.000Z</time>
      </trkpt>
      <trkpt lat="42.76576" lon="1.57742">
        <ele>1108</ele>
        <time>2020-01-05T08:28:32.000Z</time>
      </trkpt>
      <trkpt lat="42.76575" lon="1.57742">
        <ele>1108</ele>
        <time>2020-01-05T08:28:34.000Z</time>
      </trkpt>
      <trkpt lat="42.76574" lon="1.57742">
        <ele>1107</ele>
        <time>2020-01-05T08:28:36.000Z</time>
      </trkpt>
      <trkpt lat="42.76573" lon="1.57743">
        <ele>1107</ele>
        <time>2020-01-05T08:28:38.000Z</time>
      </trkpt>
      <trkpt lat="42.76572" lon="1.57742">
        <ele>1107</ele>
        <time>2020-01-05T08:28:40.000Z</time>
      </trkpt>
      <trkpt lat="42.76572" lon="1.57743">
        <ele>1107</ele>
        <time>2020-01-05T08:28:42.000Z</time>
      </trkpt>
      <trkpt lat="42.76572" lon="1.57743">
        <ele>1107</ele>
        <time>2020-01-05T08:28:44.000Z</time>
      </trkpt>
      <trkpt lat="42.76571" lon="1.57743">
        <ele>1107</ele>
        <time>2020-01-05T08:28:46.000Z</time>
      </trkpt>
      <trkpt lat="42.7657" lon="1.57743">
        <ele>1107</ele>
        <time>2020-01-05T08:28:48.000Z</time>
      </trkpt>
      <trkpt lat="42.76569" lon="1.57743">
        <ele>1107</ele>
        <time>2020-01-05T08:28:50.000Z</time>
      </trkpt>
      <trkpt lat="42.76569" lon="1.57744">
        <ele>1107</ele>
        <time>2020-01-05T08:28:52.000Z</time>
      </trkpt>
      <trkpt lat="42.76568" lon="1.57744">
        <ele>1107</ele>
        <time>2020-01-05T08:28:54.000Z</time>
      </trkpt>
      <trkpt lat="42.76566" lon="1.57744">
        <ele>1107</ele>
        <time>2020-01-05T08:28:56.000Z</time>
      </trkpt>
      <trkpt lat="42.76565" lon="1.57744">
        <ele>1107</ele>
        <time>2020-01-05T08:28:58.000Z</time>
      </trkpt>
      <trkpt lat="42.76565" lon="1.57744">
        <ele>1107</ele>
        <time>2020-01-05T08:29:00.000Z</time>
      </trkpt>
      <trkpt lat="42.76564" lon="1.57745">
        <ele>1107</ele>
        <time>2020-01-05T08:29:02.000Z</time>
      </trkpt>
      <trkpt lat="42.76563" lon="1.57746">
        <ele>1107</ele>
        <time>2020-01-05T08:29:04.000Z</time>
      </trkpt>
      <trkpt lat="42.76561" lon="1.57747">
        <ele>1107</ele>
        <time>2020-01-05T08:29:06.000Z</time>
      </trkpt>
      <trkpt lat="42.7656" lon="1.57747">
        <ele>1107</ele>
        <time>2020-01-05T08:29:08.000Z</time>
      </trkpt>
      <trkpt lat="42.76559" lon="1.57747">
        <ele>1107</ele>
        <time>2020-01-05T08:29:10.000Z</time>
      </trkpt>
      <trkpt lat="42.76558" lon="1.57748">
        <ele>1107</ele>
        <time>2020-01-05T08:29:12.000Z</time>
      </trkpt>
      <trkpt lat="42.76557" lon="1.57749">
        <ele>1107</ele>
        <time>2020-01-05T08:29:14.000Z</time>
      </trkpt>
      <trkpt lat="42.76556" lon="1.5775">
        <ele>1107</ele>
        <time>2020-01-05T08:29:16.000Z</time>
      </trkpt>
      <trkpt lat="42.76555" lon="1.57751">
        <ele>1108</ele>
        <time>2020-01-05T08:29:18.000Z</time>
      </trkpt>
      <trkpt lat="42.76554" lon="1.57752">
        <ele>1108</ele>
        <time>2020-01-05T08:29:20.000Z</time>
      </trkpt>
      <trkpt lat="42.76552" lon="1.57754">
        <ele>1108</ele>
        <time>2020-01-05T08:29:22.000Z</time>
      </trkpt>
      <trkpt lat="42.76551" lon="1.57755">
        <ele>1108</ele>
        <time>2020-01-05T08:29:24.000Z</time>
      </trkpt>
      <trkpt lat="42.7655" lon="1.57756">
        <ele>1109</ele>
        <time>2020-01-05T08:29:26.000Z</time>
      </trkpt>
      <trkpt lat="42.7655" lon="1.57757">
        <ele>1109</ele>
        <time>2020-01-05T08:29:28.000Z</time>
      </trkpt>
      <trkpt lat="42.76549" lon="1.57758">
        <ele>1109</ele>
        <time>2020-01-05T08:29:30.000Z</time>
      </trkpt>
      <trkpt lat="42.76548" lon="1.57759">
        <ele>1109</ele>
        <time>2020-01-05T08:29:32.000Z</time>
      </trkpt>
      <trkpt lat="42.76548" lon="1.5776">
        <ele>1109</ele>
        <time>2020-01-05T08:29:34.000Z</time>
      </trkpt>
      <trkpt lat="42.76547" lon="1.57761">
        <ele>1110</ele>
        <time>2020-01-05T08:29:36.000Z</time>
      </trkpt>
      <trkpt lat="42.76546" lon="1.57762">
        <ele>1110</ele>
        <time>2020-01-05T08:29:38.000Z</time>
      </trkpt>
      <trkpt lat="42.76546" lon="1.57762">
        <ele>1110</ele>
        <time>2020-01-05T08:29:40.000Z</time>
      </trkpt>
      <trkpt lat="42.76545" lon="1.57764">
        <ele>1110</ele>
        <time>2020-01-05T08:29:42.000Z</time>
      </trkpt>
      <trkpt lat="42.76545" lon="1.57765">
        <ele>1111</ele>
        <time>2020-01-05T08:29:44.000Z</time>
      </trkpt>
      <trkpt lat="42.76545" lon="1.57766">
        <ele>1111</ele>
        <time>2020-01-05T08:29:46.000Z</time>
      </trkpt>
      <trkpt lat="42.76544" lon="1.57766">
        <ele>1111</ele>
        <time>2020-01-05T08:29:48.000Z</time>
      </trkpt>
      <trkpt lat="42.76544" lon="1.57767">
        <ele>1111</ele>
        <time>2020-01-05T08:29:50.000Z</time>
      </trkpt>
      <trkpt lat="42.76544" lon="1.57768">
        <ele>1112</ele>
        <time>2020-01-05T08:29:52.000Z</time>
      </trkpt>
      <trkpt lat="42.76544" lon="1.57769">
        <ele>1112</ele>
        <time>2020-01-05T08:29:54.000Z</time>
      </trkpt>
      <trkpt lat="42.76544" lon="1.5777">
        <ele>1112</ele>
        <time>2020-01-05T08:29:56.000Z</time>
      </trkpt>
      <trkpt lat="42.76543" lon="1.57772">
        <ele>1113</ele>
        <time>2020-01-05T08:29:58.000Z</time>
      </trkpt>
      <trkpt lat="42.76543" lon="1.57773">
        <ele>1113</ele>
        <time>2020-01-05T08:30:00.000Z</time>
      </trkpt>
      <trkpt lat="42.76543" lon="1.57775">
        <ele>1113</ele>
        <time>2020-01-05T08:30:02.000Z</time>
      </trkpt>
      <trkpt lat="42.76542" lon="1.57776">
        <ele>1114</ele>
        <time>2020-01-05T08:30:04.000Z</time>
      </trkpt>
      <trkpt lat="42.76542" lon="1.57776">
        <ele>1114</ele>
        <time>2020-01-05T08:30:06.000Z</time>
      </trkpt>
      <trkpt lat="42.76541" lon="1.57777">
        <ele>1114</ele>
        <time>2020-01-05T08:30:08.000Z</time>
      </trkpt>
      <trkpt lat="42.76541" lon="1.57777">
        <ele>1114</ele>
        <time>2020-01-05T08:30:10.000Z</time>
      </trkpt>
      <trkpt lat="42.76541" lon="1.57779">
        <ele>1114</ele>
        <time>2020-01-05T08:30:12.000Z</time>
      </trkpt>
      <trkpt lat="42.76541" lon="1.57781">
        <ele>1115</ele>
        <time>2020-01-05T08:30:14.000Z</time>
      </trkpt>
      <trkpt lat="42.76541" lon="1.57782">
        <ele>1115</ele>
        <time>2020-01-05T08:30:16.000Z</time>
      </trkpt>
      <trkpt lat="42.76541" lon="1.57782">
        <ele>1115</ele>
        <time>2020-01-05T08:30:18.000Z</time>
      </trkpt>
      <trkpt lat="42.76541" lon="1.57782">
        <ele>1115</ele>
        <time>2020-01-05T08:30:20.000Z</time>
      </trkpt>
      <trkpt lat="42.76541" lon="1.57783">
        <ele>1115</ele>
        <time>2020-01-05T08:30:22.000Z</time>
      </trkpt>
      <trkpt lat="42.76541" lon="1.57784">
        <ele>1116</ele>
        <time>2020-01-05T08:30:24.000Z</time>
      </trkpt>
      <trkpt lat="42.76541" lon="1.57785">
        <ele>1116</ele>
        <time>2020-01-05T08:30:26.000Z</time>
      </trkpt>
      <trkpt lat="42.7654" lon="1.57787">
        <ele>1116</ele>
        <time>2020-01-05T08:30:28.000Z</time>
      </trkpt>
      <trkpt lat="42.7654" lon="1.57788">
        <ele>1117</ele>
        <time>2020-01-05T08:30:30.000Z</time>
      </trkpt>
      <trkpt lat="42.7654" lon="1.5779">
        <ele>1117</ele>
        <time>2020-01-05T08:30:32.000Z</time>
      </trkpt>
      <trkpt lat="42.7654" lon="1.57791">
        <ele>1117</ele>
        <time>2020-01-05T08:30:34.000Z</time>
      </trkpt>
      <trkpt lat="42.7654" lon="1.57791">
        <ele>1117</ele>
        <time>2020-01-05T08:30:36.000Z</time>
      </trkpt>
      <trkpt lat="42.76541" lon="1.57792">
        <ele>1118</ele>
        <time>2020-01-05T08:30:38.000Z</time>
      </trkpt>
      <trkpt lat="42.7654" lon="1.57793">
        <ele>1118</ele>
        <time>2020-01-05T08:30:40.000Z</time>
      </trkpt>
      <trkpt lat="42.7654" lon="1.57793">
        <ele>1118</ele>
        <time>2020-01-05T08:30:42.000Z</time>
      </trkpt>
      <trkpt lat="42.76539" lon="1.57794">
        <ele>1118</ele>
        <time>2020-01-05T08:30:44.000Z</time>
      </trkpt>
      <trkpt lat="42.76539" lon="1.57794">
        <ele>1118</ele>
        <time>2020-01-05T08:30:46.000Z</time>
      </trkpt>
      <trkpt lat="42.7654" lon="1.57795">
        <ele>1118</ele>
        <time>2020-01-05T08:30:48.000Z</time>
      </trkpt>
      <trkpt lat="42.7654" lon="1.57796">
        <ele>1119</ele>
        <time>2020-01-05T08:30:50.000Z</time>
      </trkpt>
      <trkpt lat="42.7654" lon="1.57797">
        <ele>1119</ele>
        <time>2020-01-05T08:30:52.000Z</time>
      </trkpt>
      <trkpt lat="42.76541" lon="1.57799">
        <ele>1120</ele>
        <time>2020-01-05T08:30:54.000Z</time>
      </trkpt>
      <trkpt lat="42.76541" lon="1.578">
        <ele>1120</ele>
        <time>2020-01-05T08:30:56.000Z</time>
      </trkpt>
      <trkpt lat="42.76541" lon="1.578">
        <ele>1120</ele>
        <time>2020-01-05T08:30:58.000Z</time>
      </trkpt>
      <trkpt lat="42.76541" lon="1.578">
        <ele>1120</ele>
        <time>2020-01-05T08:31:00.000Z</time>
      </trkpt>
      <trkpt lat="42.76542" lon="1.57801">
        <ele>1120</ele>
        <time>2020-01-05T08:31:02.000Z</time>
      </trkpt>
      <trkpt lat="42.76542" lon="1.57801">
        <ele>1121</ele>
        <time>2020-01-05T08:31:04.000Z</time>
      </trkpt>
      <trkpt lat="42.76543" lon="1.57802">
        <ele>1121</ele>
        <time>2020-01-05T08:31:06.000Z</time>
      </trkpt>
      <trkpt lat="42.76543" lon="1.57803">
        <ele>1121</ele>
        <time>2020-01-05T08:31:08.000Z</time>
      </trkpt>
      <trkpt lat="42.76543" lon="1.57804">
        <ele>1121</ele>
        <time>2020-01-05T08:31:10.000Z</time>
      </trkpt>
      <trkpt lat="42.76544" lon="1.57804">
        <ele>1122</ele>
        <time>2020-01-05T08:31:12.000Z</time>
      </trkpt>
      <trkpt lat="42.76544" lon="1.57805">
        <ele>1122</ele>
        <time>2020-01-05T08:31:14.000Z</time>
      </trkpt>
      <trkpt lat="42.76544" lon="1.57805">
        <ele>1122</ele>
        <time>2020-01-05T08:31:16.000Z</time>
      </trkpt>
      <trkpt lat="42.76545" lon="1.57806">
        <ele>1122</ele>
        <time>2020-01-05T08:31:18.000Z</time>
      </trkpt>
      <trkpt lat="42.76545" lon="1.57807">
        <ele>1123</ele>
        <time>2020-01-05T08:31:20.000Z</time>
      </trkpt>
      <trkpt lat="42.76545" lon="1.57808">
        <ele>1123</ele>
        <time>2020-01-05T08:31:22.000Z</time>
      </trkpt>
      <trkpt lat="42.76546" lon="1.57809">
        <ele>1123</ele>
        <time>2020-01-05T08:31:24.000Z</time>
      </trkpt>
      <trkpt lat="42.76546" lon="1.57809">
        <ele>1123</ele>
        <time>2020-01-05T08:31:26.000Z</time>
      </trkpt>
      <trkpt lat="42.76546" lon="1.57809">
        <ele>1123</ele>
        <time>2020-01-05T08:31:28.000Z</time>
      </trkpt>
      <trkpt lat="42.76547" lon="1.57809">
        <ele>1124</ele>
        <time>2020-01-05T08:31:30.000Z</time>
      </trkpt>
      <trkpt lat="42.76548" lon="1.57809">
        <ele>1124</ele>
        <time>2020-01-05T08:31:32.000Z</time>
      </trkpt>
      <trkpt lat="42.76549" lon="1.57809">
        <ele>1124</ele>
        <time>2020-01-05T08:31:34.000Z</time>
      </trkpt>
      <trkpt lat="42.76548" lon="1.5781">
        <ele>1124</ele>
        <time>2020-01-05T08:31:36.000Z</time>
      </trkpt>
      <trkpt lat="42.76548" lon="1.57812">
        <ele>1125</ele>
        <time>2020-01-05T08:31:38.000Z</time>
      </trkpt>
      <trkpt lat="42.76548" lon="1.57813">
        <ele>1125</ele>
        <time>2020-01-05T08:31:40.000Z</time>
      </trkpt>
      <trkpt lat="42.76547" lon="1.57814">
        <ele>1125</ele>
        <time>2020-01-05T08:31:42.000Z</time>
      </trkpt>
      <trkpt lat="42.76547" lon="1.57815">
        <ele>1125</ele>
        <time>2020-01-05T08:31:44.000Z</time>
      </trkpt>
      <trkpt lat="42.76546" lon="1.57815">
        <ele>1125</ele>
        <time>2020-01-05T08:31:46.000Z</time>
      </trkpt>
      <trkpt lat="42.76546" lon="1.57817">
        <ele>1126</ele>
        <time>2020-01-05T08:31:48.000Z</time>
      </trkpt>
      <trkpt lat="42.76545" lon="1.57818">
        <ele>1126</ele>
        <time>2020-01-05T08:31:50.000Z</time>
      </trkpt>
      <trkpt lat="42.76545" lon="1.57819">
        <ele>1126</ele>
        <time>2020-01-05T08:31:52.000Z</time>
      </trkpt>
      <trkpt lat="42.76544" lon="1.5782">
        <ele>1126</ele>
        <time>2020-01-05T08:31:54.000Z</time>
      </trkpt>
      <trkpt lat="42.76544" lon="1.57821">
        <ele>1126</ele>
        <time>2020-01-05T08:31:56.000Z</time>
      </trkpt>
      <trkpt lat="42.76544" lon="1.57822">
        <ele>1127</ele>
        <time>2020-01-05T08:31:58.000Z</time>
      </trkpt>
      <trkpt lat="42.76543" lon="1.57824">
        <ele>1127</ele>
        <time>2020-01-05T08:32:00.000Z</time>
      </trkpt>
      <trkpt lat="42.76543" lon="1.57824">
        <ele>1127</ele>
        <time>2020-01-05T08:32:02.000Z</time>
      </trkpt>
      <trkpt lat="42.76543" lon="1.57825">
        <ele>1127</ele>
        <time>2020-01-05T08:32:04.000Z</time>
      </trkpt>
      <trkpt lat="42.76542" lon="1.57825">
        <ele>1127</ele>
        <time>2020-01-05T08:32:06.000Z</time>
      </trkpt>
      <trkpt lat="42.76542" lon="1.57826">
        <ele>1127</ele>
        <time>2020-01-05T08:32:08.000Z</time>
      </trkpt>
      <trkpt lat="42.76543" lon="1.57826">
        <ele>1127</ele>
        <time>2020-01-05T08:32:10.000Z</time>
      </trkpt>
      <trkpt lat="42.76543" lon="1.57827">
        <ele>1128</ele>
        <time>2020-01-05T08:32:12.000Z</time>
      </trkpt>
      <trkpt lat="42.76544" lon="1.57827">
        <ele>1128</ele>
        <time>2020-01-05T08:32:14.000Z</time>
      </trkpt>
      <trkpt lat="42.76544" lon="1.57828">
        <ele>1128</ele>
        <time>2020-01-05T08:32:16.000Z</time>
      </trkpt>
      <trkpt lat="42.76545" lon="1.57827">
        <ele>1128</ele>
        <time>2020-01-05T08:32:18.000Z</time>
      </trkpt>
      <trkpt lat="42.76545" lon="1.57827">
        <ele>1128</ele>
        <time>2020-01-05T08:32:20.000Z</time>
      </trkpt>
      <trkpt lat="42.76547" lon="1.57827">
        <ele>1128</ele>
        <time>2020-01-05T08:32:22.000Z</time>
      </trkpt>
      <trkpt lat="42.76547" lon="1.57828">
        <ele>1129</ele>
        <time>2020-01-05T08:32:24.000Z</time>
      </trkpt>
      <trkpt lat="42.76548" lon="1.5783">
        <ele>1129</ele>
        <time>2020-01-05T08:32:26.000Z</time>
      </trkpt>
      <trkpt lat="42.76548" lon="1.57831">
        <ele>1129</ele>
        <time>2020-01-05T08:32:28.000Z</time>
      </trkpt>
      <trkpt lat="42.76548" lon="1.57832">
        <ele>1130</ele>
        <time>2020-01-05T08:32:30.000Z</time>
      </trkpt>
      <trkpt lat="42.76548" lon="1.57833">
        <ele>1130</ele>
        <time>2020-01-05T08:32:32.000Z</time>
      </trkpt>
      <trkpt lat="42.76548" lon="1.57833">
        <ele>1130</ele>
        <time>2020-01-05T08:32:34.000Z</time>
      </trkpt>
      <trkpt lat="42.76548" lon="1.57834">
        <ele>1130</ele>
        <time>2020-01-05T08:32:36.000Z</time>
      </trkpt>
      <trkpt lat="42.76548" lon="1.57835">
        <ele>1131</ele>
        <time>2020-01-05T08:32:38.000Z</time>
      </trkpt>
      <trkpt lat="42.76548" lon="1.57836">
        <ele>1131</ele>
        <time>2020-01-05T08:32:40.000Z</time>
      </trkpt>
      <trkpt lat="42.76548" lon="1.57837">
        <ele>1131</ele>
        <time>2020-01-05T08:32:42.000Z</time>
      </trkpt>
      <trkpt lat="42.76549" lon="1.57838">
        <ele>1132</ele>
        <time>2020-01-05T08:32:44.000Z</time>
      </trkpt>
      <trkpt lat="42.76549" lon="1.5784">
        <ele>1132</ele>
        <time>2020-01-05T08:32:46.000Z</time>
      </trkpt>
      <trkpt lat="42.76549" lon="1.57841">
        <ele>1132</ele>
        <time>2020-01-05T08:32:48.000Z</time>
      </trkpt>
      <trkpt lat="42.76549" lon="1.57841">
        <ele>1132</ele>
        <time>2020-01-05T08:32:50.000Z</time>
      </trkpt>
      <trkpt lat="42.76549" lon="1.57841">
        <ele>1132</ele>
        <time>2020-01-05T08:32:52.000Z</time>
      </trkpt>
      <trkpt lat="42.76549" lon="1.57842">
        <ele>1133</ele>
        <time>2020-01-05T08:32:54.000Z</time>
      </trkpt>
      <trkpt lat="42.76549" lon="1.57843">
        <ele>1133</ele>
        <time>2020-01-05T08:32:56.000Z</time>
      </trkpt>
      <trkpt lat="42.76549" lon="1.57844">
        <ele>1133</ele>
        <time>2020-01-05T08:32:58.000Z</time>
      </trkpt>
      <trkpt lat="42.7655" lon="1.57846">
        <ele>1134</ele>
        <time>2020-01-05T08:33:00.000Z</time>
      </trkpt>
      <trkpt lat="42.76551" lon="1.57848">
        <ele>1134</ele>
        <time>2020-01-05T08:33:02.000Z</time>
      </trkpt>
      <trkpt lat="42.76551" lon="1.57849">
        <ele>1135</ele>
        <time>2020-01-05T08:33:04.000Z</time>
      </trkpt>
      <trkpt lat="42.76551" lon="1.5785">
        <ele>1135</ele>
        <time>2020-01-05T08:33:06.000Z</time>
      </trkpt>
      <trkpt lat="42.76552" lon="1.57852">
        <ele>1136</ele>
        <time>2020-01-05T08:33:08.000Z</time>
      </trkpt>
      <trkpt lat="42.76553" lon="1.57853">
        <ele>1136</ele>
        <time>2020-01-05T08:33:10.000Z</time>
      </trkpt>
      <trkpt lat="42.76553" lon="1.57854">
        <ele>1136</ele>
        <time>2020-01-05T08:33:12.000Z</time>
      </trkpt>
      <trkpt lat="42.76553" lon="1.57854">
        <ele>1136</ele>
        <time>2020-01-05T08:33:14.000Z</time>
      </trkpt>
      <trkpt lat="42.76553" lon="1.57855">
        <ele>1137</ele>
        <time>2020-01-05T08:33:16.000Z</time>
      </trkpt>
      <trkpt lat="42.76553" lon="1.57857">
        <ele>1137</ele>
        <time>2020-01-05T08:33:18.000Z</time>
      </trkpt>
      <trkpt lat="42.76553" lon="1.57858">
        <ele>1137</ele>
        <time>2020-01-05T08:33:20.000Z</time>
      </trkpt>
      <trkpt lat="42.76554" lon="1.57859">
        <ele>1138</ele>
        <time>2020-01-05T08:33:22.000Z</time>
      </trkpt>
      <trkpt lat="42.76554" lon="1.57861">
        <ele>1138</ele>
        <time>2020-01-05T08:33:24.000Z</time>
      </trkpt>
      <trkpt lat="42.76555" lon="1.57862">
        <ele>1139</ele>
        <time>2020-01-05T08:33:26.000Z</time>
      </trkpt>
      <trkpt lat="42.76555" lon="1.57863">
        <ele>1139</ele>
        <time>2020-01-05T08:33:28.000Z</time>
      </trkpt>
      <trkpt lat="42.76555" lon="1.57864">
        <ele>1139</ele>
        <time>2020-01-05T08:33:30.000Z</time>
      </trkpt>
      <trkpt lat="42.76555" lon="1.57865">
        <ele>1140</ele>
        <time>2020-01-05T08:33:32.000Z</time>
      </trkpt>
      <trkpt lat="42.76555" lon="1.57866">
        <ele>1140</ele>
        <time>2020-01-05T08:33:34.000Z</time>
      </trkpt>
      <trkpt lat="42.76556" lon="1.57867">
        <ele>1140</ele>
        <time>2020-01-05T08:33:36.000Z</time>
      </trkpt>
      <trkpt lat="42.76556" lon="1.57867">
        <ele>1140</ele>
        <time>2020-01-05T08:33:38.000Z</time>
      </trkpt>
      <trkpt lat="42.76556" lon="1.57868">
        <ele>1141</ele>
        <time>2020-01-05T08:33:40.000Z</time>
      </trkpt>
      <trkpt lat="42.76556" lon="1.57869">
        <ele>1141</ele>
        <time>2020-01-05T08:33:42.000Z</time>
      </trkpt>
      <trkpt lat="42.76557" lon="1.57871">
        <ele>1141</ele>
        <time>2020-01-05T08:33:44.000Z</time>
      </trkpt>
      <trkpt lat="42.76557" lon="1.57872">
        <ele>1142</ele>
        <time>2020-01-05T08:33:46.000Z</time>
      </trkpt>
      <trkpt lat="42.76558" lon="1.57872">
        <ele>1142</ele>
        <time>2020-01-05T08:33:48.000Z</time>
      </trkpt>
      <trkpt lat="42.76558" lon="1.57874">
        <ele>1142</ele>
        <time>2020-01-05T08:33:50.000Z</time>
      </trkpt>
      <trkpt lat="42.76558" lon="1.57875">
        <ele>1143</ele>
        <time>2020-01-05T08:33:52.000Z</time>
      </trkpt>
      <trkpt lat="42.76558" lon="1.57877">
        <ele>1143</ele>
        <time>2020-01-05T08:33:54.000Z</time>
      </trkpt>
      <trkpt lat="42.76558" lon="1.57878">
        <ele>1144</ele>
        <time>2020-01-05T08:33:56.000Z</time>
      </trkpt>
      <trkpt lat="42.76558" lon="1.5788">
        <ele>1144</ele>
        <time>2020-01-05T08:33:58.000Z</time>
      </trkpt>
      <trkpt lat="42.76559" lon="1.57881">
        <ele>1144</ele>
        <time>2020-01-05T08:34:00.000Z</time>
      </trkpt>
      <trkpt lat="42.76559" lon="1.57882">
        <ele>1145</ele>
        <time>2020-01-05T08:34:02.000Z</time>
      </trkpt>
      <trkpt lat="42.7656" lon="1.57883">
        <ele>1145</ele>
        <time>2020-01-05T08:34:04.000Z</time>
      </trkpt>
      <trkpt lat="42.7656" lon="1.57885">
        <ele>1146</ele>
        <time>2020-01-05T08:34:06.000Z</time>
      </trkpt>
      <trkpt lat="42.7656" lon="1.57885">
        <ele>1146</ele>
        <time>2020-01-05T08:34:08.000Z</time>
      </trkpt>
      <trkpt lat="42.7656" lon="1.57885">
        <ele>1146</ele>
        <time>2020-01-05T08:34:10.000Z</time>
      </trkpt>
      <trkpt lat="42.76561" lon="1.57886">
        <ele>1146</ele>
        <time>2020-01-05T08:34:12.000Z</time>
      </trkpt>
      <trkpt lat="42.76561" lon="1.57887">
        <ele>1146</ele>
        <time>2020-01-05T08:34:14.000Z</time>
      </trkpt>
      <trkpt lat="42.76562" lon="1.57888">
        <ele>1147</ele>
        <time>2020-01-05T08:34:16.000Z</time>
      </trkpt>
      <trkpt lat="42.76561" lon="1.57889">
        <ele>1147</ele>
        <time>2020-01-05T08:34:18.000Z</time>
      </trkpt>
      <trkpt lat="42.76562" lon="1.5789">
        <ele>1148</ele>
        <time>2020-01-05T08:34:20.000Z</time>
      </trkpt>
      <trkpt lat="42.76562" lon="1.57891">
        <ele>1148</ele>
        <time>2020-01-05T08:34:22.000Z</time>
      </trkpt>
      <trkpt lat="42.76562" lon="1.57893">
        <ele>1148</ele>
        <time>2020-01-05T08:34:24.000Z</time>
      </trkpt>
      <trkpt lat="42.76563" lon="1.57894">
        <ele>1149</ele>
        <time>2020-01-05T08:34:26.000Z</time>
      </trkpt>
      <trkpt lat="42.76562" lon="1.57895">
        <ele>1149</ele>
        <time>2020-01-05T08:34:28.000Z</time>
      </trkpt>
      <trkpt lat="42.76562" lon="1.57896">
        <ele>1149</ele>
        <time>2020-01-05T08:34:30.000Z</time>
      </trkpt>
      <trkpt lat="42.76562" lon="1.57897">
        <ele>1149</ele>
        <time>2020-01-05T08:34:32.000Z</time>
      </trkpt>
      <trkpt lat="42.76562" lon="1.57898">
        <ele>1150</ele>
        <time>2020-01-05T08:34:34.000Z</time>
      </trkpt>
      <trkpt lat="42.76562" lon="1.57899">
        <ele>1150</ele>
        <time>2020-01-05T08:34:36.000Z</time>
      </trkpt>
      <trkpt lat="42.76562" lon="1.579">
        <ele>1150</ele>
        <time>2020-01-05T08:34:38.000Z</time>
      </trkpt>
      <trkpt lat="42.76562" lon="1.57901">
        <ele>1150</ele>
        <time>2020-01-05T08:34:40.000Z</time>
      </trkpt>
      <trkpt lat="42.76562" lon="1.57902">
        <ele>1151</ele>
        <time>2020-01-05T08:34:42.000Z</time>
      </trkpt>
      <trkpt lat="42.76562" lon="1.57904">
        <ele>1151</ele>
        <time>2020-01-05T08:34:44.000Z</time>
      </trkpt>
      <trkpt lat="42.76562" lon="1.57904">
        <ele>1152</ele>
        <time>2020-01-05T08:34:46.000Z</time>
      </trkpt>
      <trkpt lat="42.76562" lon="1.57906">
        <ele>1152</ele>
        <time>2020-01-05T08:34:48.000Z</time>
      </trkpt>
      <trkpt lat="42.76562" lon="1.57908">
        <ele>1152</ele>
        <time>2020-01-05T08:34:50.000Z</time>
      </trkpt>
      <trkpt lat="42.76562" lon="1.57908">
        <ele>1153</ele>
        <time>2020-01-05T08:34:52.000Z</time>
      </trkpt>
      <trkpt lat="42.76562" lon="1.57909">
        <ele>1153</ele>
        <time>2020-01-05T08:34:54.000Z</time>
      </trkpt>
      <trkpt lat="42.76562" lon="1.57909">
        <ele>1153</ele>
        <time>2020-01-05T08:34:56.000Z</time>
      </trkpt>
      <trkpt lat="42.76562" lon="1.57911">
        <ele>1153</ele>
        <time>2020-01-05T08:34:58.000Z</time>
      </trkpt>
      <trkpt lat="42.76562" lon="1.57912">
        <ele>1154</ele>
        <time>2020-01-05T08:35:00.000Z</time>
      </trkpt>
      <trkpt lat="42.76562" lon="1.57912">
        <ele>1154</ele>
        <time>2020-01-05T08:35:02.000Z</time>
      </trkpt>
      <trkpt lat="42.76562" lon="1.57912">
        <ele>1154</ele>
        <time>2020-01-05T08:35:04.000Z</time>
      </trkpt>
      <trkpt lat="42.76562" lon="1.57914">
        <ele>1154</ele>
        <time>2020-01-05T08:35:06.000Z</time>
      </trkpt>
      <trkpt lat="42.76562" lon="1.57915">
        <ele>1155</ele>
        <time>2020-01-05T08:35:08.000Z</time>
      </trkpt>
      <trkpt lat="42.76562" lon="1.57916">
        <ele>1155</ele>
        <time>2020-01-05T08:35:10.000Z</time>
      </trkpt>
      <trkpt lat="42.76562" lon="1.57916">
        <ele>1155</ele>
        <time>2020-01-05T08:35:12.000Z</time>
      </trkpt>
      <trkpt lat="42.76562" lon="1.57917">
        <ele>1155</ele>
        <time>2020-01-05T08:35:14.000Z</time>
      </trkpt>
      <trkpt lat="42.76561" lon="1.57917">
        <ele>1155</ele>
        <time>2020-01-05T08:35:16.000Z</time>
      </trkpt>
      <trkpt lat="42.7656" lon="1.57918">
        <ele>1155</ele>
        <time>2020-01-05T08:35:18.000Z</time>
      </trkpt>
      <trkpt lat="42.76559" lon="1.57918">
        <ele>1155</ele>
        <time>2020-01-05T08:35:20.000Z</time>
      </trkpt>
      <trkpt lat="42.76558" lon="1.5792">
        <ele>1155</ele>
        <time>2020-01-05T08:35:22.000Z</time>
      </trkpt>
      <trkpt lat="42.76557" lon="1.5792">
        <ele>1155</ele>
        <time>2020-01-05T08:35:24.000Z</time>
      </trkpt>
      <trkpt lat="42.76556" lon="1.57921">
        <ele>1155</ele>
        <time>2020-01-05T08:35:26.000Z</time>
      </trkpt>
      <trkpt lat="42.76557" lon="1.57923">
        <ele>1156</ele>
        <time>2020-01-05T08:35:28.000Z</time>
      </trkpt>
      <trkpt lat="42.76556" lon="1.57925">
        <ele>1156</ele>
        <time>2020-01-05T08:35:30.000Z</time>
      </trkpt>
      <trkpt lat="42.76556" lon="1.57926">
        <ele>1157</ele>
        <time>2020-01-05T08:35:32.000Z</time>
      </trkpt>
      <trkpt lat="42.76556" lon="1.57928">
        <ele>1157</ele>
        <time>2020-01-05T08:35:34.000Z</time>
      </trkpt>
      <trkpt lat="42.76556" lon="1.57929">
        <ele>1158</ele>
        <time>2020-01-05T08:35:36.000Z</time>
      </trkpt>
      <trkpt lat="42.76557" lon="1.57931">
        <ele>1158</ele>
        <time>2020-01-05T08:35:38.000Z</time>
      </trkpt>
      <trkpt lat="42.76557" lon="1.57933">
        <ele>1159</ele>
        <time>2020-01-05T08:35:40.000Z</time>
      </trkpt>
      <trkpt lat="42.76557" lon="1.57934">
        <ele>1159</ele>
        <time>2020-01-05T08:35:42.000Z</time>
      </trkpt>
      <trkpt lat="42.76557" lon="1.57935">
        <ele>1159</ele>
        <time>2020-01-05T08:35:44.000Z</time>
      </trkpt>
      <trkpt lat="42.76557" lon="1.57936">
        <ele>1160</ele>
        <time>2020-01-05T08:35:46.000Z</time>
      </trkpt>
      <trkpt lat="42.76557" lon="1.57936">
        <ele>1160</ele>
        <time>2020-01-05T08:35:48.000Z</time>
      </trkpt>
      <trkpt lat="42.76557" lon="1.57937">
        <ele>1160</ele>
        <time>2020-01-05T08:35:50.000Z</time>
      </trkpt>
      <trkpt lat="42.76558" lon="1.57937">
        <ele>1160</ele>
        <time>2020-01-05T08:35:52.000Z</time>
      </trkpt>
      <trkpt lat="42.76558" lon="1.57937">
        <ele>1160</ele>
        <time>2020-01-05T08:35:54.000Z</time>
      </trkpt>
      <trkpt lat="42.76558" lon="1.57938">
        <ele>1161</ele>
        <time>2020-01-05T08:35:56.000Z</time>
      </trkpt>
      <trkpt lat="42.76559" lon="1.57938">
        <ele>1161</ele>
        <time>2020-01-05T08:35:58.000Z</time>
      </trkpt>
      <trkpt lat="42.76559" lon="1.57939">
        <ele>1161</ele>
        <time>2020-01-05T08:36:00.000Z</time>
      </trkpt>
      <trkpt lat="42.76559" lon="1.57939">
        <ele>1161</ele>
        <time>2020-01-05T08:36:02.000Z</time>
      </trkpt>
      <trkpt lat="42.76559" lon="1.57939">
        <ele>1161</ele>
        <time>2020-01-05T08:36:04.000Z</time>
      </trkpt>
      <trkpt lat="42.76559" lon="1.57939">
        <ele>1161</ele>
        <time>2020-01-05T08:36:06.000Z</time>
      </trkpt>
      <trkpt lat="42.7656" lon="1.5794">
        <ele>1161</ele>
        <time>2020-01-05T08:36:08.000Z</time>
      </trkpt>
      <trkpt lat="42.76559" lon="1.57942">
        <ele>1162</ele>
        <time>2020-01-05T08:36:10.000Z</time>
      </trkpt>
      <trkpt lat="42.76559" lon="1.57942">
        <ele>1162</ele>
        <time>2020-01-05T08:36:12.000Z</time>
      </trkpt>
      <trkpt lat="42.76559" lon="1.57943">
        <ele>1162</ele>
        <time>2020-01-05T08:36:14.000Z</time>
      </trkpt>
      <trkpt lat="42.76559" lon="1.57944">
        <ele>1163</ele>
        <time>2020-01-05T08:36:16.000Z</time>
      </trkpt>
      <trkpt lat="42.76558" lon="1.57946">
        <ele>1163</ele>
        <time>2020-01-05T08:36:18.000Z</time>
      </trkpt>
      <trkpt lat="42.76558" lon="1.57948">
        <ele>1163</ele>
        <time>2020-01-05T08:36:20.000Z</time>
      </trkpt>
      <trkpt lat="42.76559" lon="1.57949">
        <ele>1164</ele>
        <time>2020-01-05T08:36:22.000Z</time>
      </trkpt>
      <trkpt lat="42.76559" lon="1.5795">
        <ele>1164</ele>
        <time>2020-01-05T08:36:24.000Z</time>
      </trkpt>
      <trkpt lat="42.76558" lon="1.57952">
        <ele>1165</ele>
        <time>2020-01-05T08:36:26.000Z</time>
      </trkpt>
      <trkpt lat="42.76558" lon="1.57953">
        <ele>1165</ele>
        <time>2020-01-05T08:36:28.000Z</time>
      </trkpt>
      <trkpt lat="42.76558" lon="1.57954">
        <ele>1165</ele>
        <time>2020-01-05T08:36:30.000Z</time>
      </trkpt>
      <trkpt lat="42.76558" lon="1.57956">
        <ele>1166</ele>
        <time>2020-01-05T08:36:32.000Z</time>
      </trkpt>
      <trkpt lat="42.76559" lon="1.57957">
        <ele>1166</ele>
        <time>2020-01-05T08:36:34.000Z</time>
      </trkpt>
      <trkpt lat="42.76559" lon="1.57958">
        <ele>1166</ele>
        <time>2020-01-05T08:36:36.000Z</time>
      </trkpt>
      <trkpt lat="42.76559" lon="1.57959">
        <ele>1167</ele>
        <time>2020-01-05T08:36:38.000Z</time>
      </trkpt>
      <trkpt lat="42.76559" lon="1.5796">
        <ele>1167</ele>
        <time>2020-01-05T08:36:40.000Z</time>
      </trkpt>
      <trkpt lat="42.76559" lon="1.57961">
        <ele>1167</ele>
        <time>2020-01-05T08:36:42.000Z</time>
      </trkpt>
      <trkpt lat="42.76559" lon="1.57962">
        <ele>1167</ele>
        <time>2020-01-05T08:36:44.000Z</time>
      </trkpt>
      <trkpt lat="42.76558" lon="1.57963">
        <ele>1168</ele>
        <time>2020-01-05T08:36:46.000Z</time>
      </trkpt>
      <trkpt lat="42.76557" lon="1.57964">
        <ele>1168</ele>
        <time>2020-01-05T08:36:48.000Z</time>
      </trkpt>
      <trkpt lat="42.76556" lon="1.57965">
        <ele>1168</ele>
        <time>2020-01-05T08:36:50.000Z</time>
      </trkpt>
      <trkpt lat="42.76556" lon="1.57966">
        <ele>1168</ele>
        <time>2020-01-05T08:36:52.000Z</time>
      </trkpt>
      <trkpt lat="42.76555" lon="1.57967">
        <ele>1168</ele>
        <time>2020-01-05T08:36:54.000Z</time>
      </trkpt>
      <trkpt lat="42.76555" lon="1.57968">
        <ele>1168</ele>
        <time>2020-01-05T08:36:56.000Z</time>
      </trkpt>
      <trkpt lat="42.76555" lon="1.57969">
        <ele>1168</ele>
        <time>2020-01-05T08:36:58.000Z</time>
      </trkpt>
      <trkpt lat="42.76555" lon="1.5797">
        <ele>1169</ele>
        <time>2020-01-05T08:37:00.000Z</time>
      </trkpt>
      <trkpt lat="42.76556" lon="1.57972">
        <ele>1169</ele>
        <time>2020-01-05T08:37:02.000Z</time>
      </trkpt>
      <trkpt lat="42.76556" lon="1.57973">
        <ele>1170</ele>
        <time>2020-01-05T08:37:04.000Z</time>
      </trkpt>
      <trkpt lat="42.76555" lon="1.57975">
        <ele>1170</ele>
        <time>2020-01-05T08:37:06.000Z</time>
      </trkpt>
      <trkpt lat="42.76554" lon="1.57975">
        <ele>1170</ele>
        <time>2020-01-05T08:37:08.000Z</time>
      </trkpt>
      <trkpt lat="42.76554" lon="1.57976">
        <ele>1170</ele>
        <time>2020-01-05T08:37:10.000Z</time>
      </trkpt>
      <trkpt lat="42.76553" lon="1.57978">
        <ele>1171</ele>
        <time>2020-01-05T08:37:12.000Z</time>
      </trkpt>
      <trkpt lat="42.76553" lon="1.57979">
        <ele>1171</ele>
        <time>2020-01-05T08:37:14.000Z</time>
      </trkpt>
      <trkpt lat="42.76553" lon="1.57982">
        <ele>1172</ele>
        <time>2020-01-05T08:37:16.000Z</time>
      </trkpt>
      <trkpt lat="42.76553" lon="1.57982">
        <ele>1172</ele>
        <time>2020-01-05T08:37:18.000Z</time>
      </trkpt>
      <trkpt lat="42.76553" lon="1.57984">
        <ele>1172</ele>
        <time>2020-01-05T08:37:20.000Z</time>
      </trkpt>
      <trkpt lat="42.76553" lon="1.57986">
        <ele>1173</ele>
        <time>2020-01-05T08:37:22.000Z</time>
      </trkpt>
      <trkpt lat="42.76552" lon="1.57987">
        <ele>1173</ele>
        <time>2020-01-05T08:37:24.000Z</time>
      </trkpt>
      <trkpt lat="42.76552" lon="1.57988">
        <ele>1173</ele>
        <time>2020-01-05T08:37:26.000Z</time>
      </trkpt>
      <trkpt lat="42.76552" lon="1.57989">
        <ele>1173</ele>
        <time>2020-01-05T08:37:28.000Z</time>
      </trkpt>
      <trkpt lat="42.76552" lon="1.5799">
        <ele>1173</ele>
        <time>2020-01-05T08:37:30.000Z</time>
      </trkpt>
      <trkpt lat="42.76551" lon="1.57991">
        <ele>1174</ele>
        <time>2020-01-05T08:37:32.000Z</time>
      </trkpt>
      <trkpt lat="42.76551" lon="1.57993">
        <ele>1174</ele>
        <time>2020-01-05T08:37:34.000Z</time>
      </trkpt>
      <trkpt lat="42.7655" lon="1.57994">
        <ele>1174</ele>
        <time>2020-01-05T08:37:36.000Z</time>
      </trkpt>
      <trkpt lat="42.7655" lon="1.57995">
        <ele>1174</ele>
        <time>2020-01-05T08:37:38.000Z</time>
      </trkpt>
      <trkpt lat="42.76549" lon="1.57996">
        <ele>1174</ele>
        <time>2020-01-05T08:37:40.000Z</time>
      </trkpt>
      <trkpt lat="42.76549" lon="1.57998">
        <ele>1175</ele>
        <time>2020-01-05T08:37:42.000Z</time>
      </trkpt>
      <trkpt lat="42.76548" lon="1.58">
        <ele>1175</ele>
        <time>2020-01-05T08:37:44.000Z</time>
      </trkpt>
      <trkpt lat="42.76547" lon="1.58001">
        <ele>1175</ele>
        <time>2020-01-05T08:37:46.000Z</time>
      </trkpt>
      <trkpt lat="42.76546" lon="1.58001">
        <ele>1175</ele>
        <time>2020-01-05T08:37:48.000Z</time>
      </trkpt>
      <trkpt lat="42.76545" lon="1.58002">
        <ele>1175</ele>
        <time>2020-01-05T08:37:50.000Z</time>
      </trkpt>
      <trkpt lat="42.76544" lon="1.58002">
        <ele>1175</ele>
        <time>2020-01-05T08:37:52.000Z</time>
      </trkpt>
      <trkpt lat="42.76544" lon="1.58002">
        <ele>1175</ele>
        <time>2020-01-05T08:37:54.000Z</time>
      </trkpt>
      <trkpt lat="42.76543" lon="1.58002">
        <ele>1175</ele>
        <time>2020-01-05T08:37:56.000Z</time>
      </trkpt>
      <trkpt lat="42.76543" lon="1.58001">
        <ele>1174</ele>
        <time>2020-01-05T08:37:58.000Z</time>
      </trkpt>
      <trkpt lat="42.76543" lon="1.58001">
        <ele>1174</ele>
        <time>2020-01-05T08:38:00.000Z</time>
      </trkpt>
      <trkpt lat="42.76543" lon="1.58002">
        <ele>1174</ele>
        <time>2020-01-05T08:38:02.000Z</time>
      </trkpt>
      <trkpt lat="42.76542" lon="1.58002">
        <ele>1174</ele>
        <time>2020-01-05T08:38:04.000Z</time>
      </trkpt>
      <trkpt lat="42.76542" lon="1.58004">
        <ele>1175</ele>
        <time>2020-01-05T08:38:06.000Z</time>
      </trkpt>
      <trkpt lat="42.76542" lon="1.58005">
        <ele>1175</ele>
        <time>2020-01-05T08:38:08.000Z</time>
      </trkpt>
      <trkpt lat="42.76542" lon="1.58006">
        <ele>1175</ele>
        <time>2020-01-05T08:38:10.000Z</time>
      </trkpt>
      <trkpt lat="42.76542" lon="1.58008">
        <ele>1176</ele>
        <time>2020-01-05T08:38:12.000Z</time>
      </trkpt>
      <trkpt lat="42.76542" lon="1.5801">
        <ele>1176</ele>
        <time>2020-01-05T08:38:14.000Z</time>
      </trkpt>
      <trkpt lat="42.76542" lon="1.58011">
        <ele>1177</ele>
        <time>2020-01-05T08:38:16.000Z</time>
      </trkpt>
      <trkpt lat="42.76542" lon="1.58011">
        <ele>1176</ele>
        <time>2020-01-05T08:38:18.000Z</time>
      </trkpt>
      <trkpt lat="42.76541" lon="1.58012">
        <ele>1177</ele>
        <time>2020-01-05T08:38:20.000Z</time>
      </trkpt>
      <trkpt lat="42.76541" lon="1.58013">
        <ele>1177</ele>
        <time>2020-01-05T08:38:22.000Z</time>
      </trkpt>
      <trkpt lat="42.76541" lon="1.58014">
        <ele>1177</ele>
        <time>2020-01-05T08:38:24.000Z</time>
      </trkpt>
      <trkpt lat="42.7654" lon="1.58016">
        <ele>1177</ele>
        <time>2020-01-05T08:38:26.000Z</time>
      </trkpt>
      <trkpt lat="42.7654" lon="1.58017">
        <ele>1178</ele>
        <time>2020-01-05T08:38:28.000Z</time>
      </trkpt>
      <trkpt lat="42.7654" lon="1.58018">
        <ele>1178</ele>
        <time>2020-01-05T08:38:30.000Z</time>
      </trkpt>
      <trkpt lat="42.76539" lon="1.58019">
        <ele>1178</ele>
        <time>2020-01-05T08:38:32.000Z</time>
      </trkpt>
      <trkpt lat="42.76539" lon="1.5802">
        <ele>1178</ele>
        <time>2020-01-05T08:38:34.000Z</time>
      </trkpt>
      <trkpt lat="42.76539" lon="1.58022">
        <ele>1178</ele>
        <time>2020-01-05T08:38:36.000Z</time>
      </trkpt>
      <trkpt lat="42.76538" lon="1.58023">
        <ele>1179</ele>
        <time>2020-01-05T08:38:38.000Z</time>
      </trkpt>
      <trkpt lat="42.76537" lon="1.58024">
        <ele>1179</ele>
        <time>2020-01-05T08:38:40.000Z</time>
      </trkpt>
      <trkpt lat="42.76537" lon="1.58025">
        <ele>1179</ele>
        <time>2020-01-05T08:38:42.000Z</time>
      </trkpt>
      <trkpt lat="42.76538" lon="1.58026">
        <ele>1179</ele>
        <time>2020-01-05T08:38:44.000Z</time>
      </trkpt>
      <trkpt lat="42.76538" lon="1.58027">
        <ele>1180</ele>
        <time>2020-01-05T08:38:46.000Z</time>
      </trkpt>
      <trkpt lat="42.76537" lon="1.58029">
        <ele>1180</ele>
        <time>2020-01-05T08:38:48.000Z</time>
      </trkpt>
      <trkpt lat="42.76536" lon="1.5803">
        <ele>1180</ele>
        <time>2020-01-05T08:38:50.000Z</time>
      </trkpt>
      <trkpt lat="42.76535" lon="1.5803">
        <ele>1180</ele>
        <time>2020-01-05T08:38:52.000Z</time>
      </trkpt>
      <trkpt lat="42.76535" lon="1.58031">
        <ele>1180</ele>
        <time>2020-01-05T08:38:54.000Z</time>
      </trkpt>
      <trkpt lat="42.76535" lon="1.58032">
        <ele>1180</ele>
        <time>2020-01-05T08:38:56.000Z</time>
      </trkpt>
      <trkpt lat="42.76535" lon="1.58034">
        <ele>1181</ele>
        <time>2020-01-05T08:38:58.000Z</time>
      </trkpt>
      <trkpt lat="42.76536" lon="1.58035">
        <ele>1181</ele>
        <time>2020-01-05T08:39:00.000Z</time>
      </trkpt>
      <trkpt lat="42.76536" lon="1.58036">
        <ele>1182</ele>
        <time>2020-01-05T08:39:02.000Z</time>
      </trkpt>
      <trkpt lat="42.76536" lon="1.58038">
        <ele>1182</ele>
        <time>2020-01-05T08:39:04.000Z</time>
      </trkpt>
      <trkpt lat="42.76535" lon="1.58039">
        <ele>1182</ele>
        <time>2020-01-05T08:39:06.000Z</time>
      </trkpt>
      <trkpt lat="42.76534" lon="1.58039">
        <ele>1182</ele>
        <time>2020-01-05T08:39:08.000Z</time>
      </trkpt>
      <trkpt lat="42.76534" lon="1.58041">
        <ele>1182</ele>
        <time>2020-01-05T08:39:10.000Z</time>
      </trkpt>
      <trkpt lat="42.76534" lon="1.58042">
        <ele>1183</ele>
        <time>2020-01-05T08:39:12.000Z</time>
      </trkpt>
      <trkpt lat="42.76534" lon="1.58044">
        <ele>1183</ele>
        <time>2020-01-05T08:39:14.000Z</time>
      </trkpt>
      <trkpt lat="42.76535" lon="1.58046">
        <ele>1184</ele>
        <time>2020-01-05T08:39:16.000Z</time>
      </trkpt>
      <trkpt lat="42.76534" lon="1.58047">
        <ele>1184</ele>
        <time>2020-01-05T08:39:18.000Z</time>
      </trkpt>
      <trkpt lat="42.76534" lon="1.58049">
        <ele>1184</ele>
        <time>2020-01-05T08:39:20.000Z</time>
      </trkpt>
      <trkpt lat="42.76534" lon="1.5805">
        <ele>1185</ele>
        <time>2020-01-05T08:39:22.000Z</time>
      </trkpt>
      <trkpt lat="42.76534" lon="1.5805">
        <ele>1185</ele>
        <time>2020-01-05T08:39:24.000Z</time>
      </trkpt>
      <trkpt lat="42.76534" lon="1.58051">
        <ele>1185</ele>
        <time>2020-01-05T08:39:26.000Z</time>
      </trkpt>
      <trkpt lat="42.76535" lon="1.58053">
        <ele>1186</ele>
        <time>2020-01-05T08:39:28.000Z</time>
      </trkpt>
      <trkpt lat="42.76535" lon="1.58055">
        <ele>1186</ele>
        <time>2020-01-05T08:39:30.000Z</time>
      </trkpt>
      <trkpt lat="42.76535" lon="1.58056">
        <ele>1187</ele>
        <time>2020-01-05T08:39:32.000Z</time>
      </trkpt>
      <trkpt lat="42.76535" lon="1.58058">
        <ele>1187</ele>
        <time>2020-01-05T08:39:34.000Z</time>
      </trkpt>
      <trkpt lat="42.76536" lon="1.58058">
        <ele>1187</ele>
        <time>2020-01-05T08:39:36.000Z</time>
      </trkpt>
      <trkpt lat="42.76536" lon="1.5806">
        <ele>1188</ele>
        <time>2020-01-05T08:39:38.000Z</time>
      </trkpt>
      <trkpt lat="42.76535" lon="1.58061">
        <ele>1188</ele>
        <time>2020-01-05T08:39:40.000Z</time>
      </trkpt>
      <trkpt lat="42.76535" lon="1.5806">
        <ele>1188</ele>
        <time>2020-01-05T08:39:42.000Z</time>
      </trkpt>
      <trkpt lat="42.76536" lon="1.58061">
        <ele>1188</ele>
        <time>2020-01-05T08:39:44.000Z</time>
      </trkpt>
      <trkpt lat="42.76536" lon="1.58062">
        <ele>1188</ele>
        <time>2020-01-05T08:39:46.000Z</time>
      </trkpt>
      <trkpt lat="42.76536" lon="1.58063">
        <ele>1188</ele>
        <time>2020-01-05T08:39:48.000Z</time>
      </trkpt>
      <trkpt lat="42.76536" lon="1.58065">
        <ele>1189</ele>
        <time>2020-01-05T08:39:50.000Z</time>
      </trkpt>
      <trkpt lat="42.76537" lon="1.58066">
        <ele>1189</ele>
        <time>2020-01-05T08:39:52.000Z</time>
      </trkpt>
      <trkpt lat="42.76537" lon="1.58066">
        <ele>1189</ele>
        <time>2020-01-05T08:39:54.000Z</time>
      </trkpt>
      <trkpt lat="42.76537" lon="1.58068">
        <ele>1190</ele>
        <time>2020-01-05T08:39:56.000Z</time>
      </trkpt>
      <trkpt lat="42.76538" lon="1.58069">
        <ele>1190</ele>
        <time>2020-01-05T08:39:58.000Z</time>
      </trkpt>
      <trkpt lat="42.76538" lon="1.5807">
        <ele>1190</ele>
        <time>2020-01-05T08:40:00.000Z</time>
      </trkpt>
      <trkpt lat="42.76538" lon="1.58071">
        <ele>1191</ele>
        <time>2020-01-05T08:40:02.000Z</time>
      </trkpt>
      <trkpt lat="42.76539" lon="1.58073">
        <ele>1191</ele>
        <time>2020-01-05T08:40:04.000Z</time>
      </trkpt>
      <trkpt lat="42.76539" lon="1.58073">
        <ele>1191</ele>
        <time>2020-01-05T08:40:06.000Z</time>
      </trkpt>
      <trkpt lat="42.76539" lon="1.58074">
        <ele>1191</ele>
        <time>2020-01-05T08:40:08.000Z</time>
      </trkpt>
      <trkpt lat="42.76539" lon="1.58075">
        <ele>1192</ele>
        <time>2020-01-05T08:40:10.000Z</time>
      </trkpt>
      <trkpt lat="42.76539" lon="1.58076">
        <ele>1192</ele>
        <time>2020-01-05T08:40:12.000Z</time>
      </trkpt>
      <trkpt lat="42.76539" lon="1.58078">
        <ele>1192</ele>
        <time>2020-01-05T08:40:14.000Z</time>
      </trkpt>
      <trkpt lat="42.7654" lon="1.5808">
        <ele>1193</ele>
        <time>2020-01-05T08:40:16.000Z</time>
      </trkpt>
      <trkpt lat="42.7654" lon="1.58081">
        <ele>1193</ele>
        <time>2020-01-05T08:40:18.000Z</time>
      </trkpt>
      <trkpt lat="42.7654" lon="1.58082">
        <ele>1193</ele>
        <time>2020-01-05T08:40:20.000Z</time>
      </trkpt>
      <trkpt lat="42.7654" lon="1.58083">
        <ele>1193</ele>
        <time>2020-01-05T08:40:22.000Z</time>
      </trkpt>
      <trkpt lat="42.7654" lon="1.58083">
        <ele>1193</ele>
        <time>2020-01-05T08:40:24.000Z</time>
      </trkpt>
      <trkpt lat="42.7654" lon="1.58084">
        <ele>1194</ele>
        <time>2020-01-05T08:40:26.000Z</time>
      </trkpt>
      <trkpt lat="42.7654" lon="1.58084">
        <ele>1194</ele>
        <time>2020-01-05T08:40:28.000Z</time>
      </trkpt>
      <trkpt lat="42.7654" lon="1.58084">
        <ele>1194</ele>
        <time>2020-01-05T08:40:30.000Z</time>
      </trkpt>
      <trkpt lat="42.76539" lon="1.58084">
        <ele>1193</ele>
        <time>2020-01-05T08:40:32.000Z</time>
      </trkpt>
      <trkpt lat="42.7654" lon="1.58084">
        <ele>1194</ele>
        <time>2020-01-05T08:40:34.000Z</time>
      </trkpt>
      <trkpt lat="42.76539" lon="1.58083">
        <ele>1193</ele>
        <time>2020-01-05T08:40:36.000Z</time>
      </trkpt>
      <trkpt lat="42.76539" lon="1.58084">
        <ele>1194</ele>
        <time>2020-01-05T08:40:38.000Z</time>
      </trkpt>
      <trkpt lat="42.76538" lon="1.58084">
        <ele>1193</ele>
        <time>2020-01-05T08:40:40.000Z</time>
      </trkpt>
      <trkpt lat="42.76538" lon="1.58085">
        <ele>1193</ele>
        <time>2020-01-05T08:40:42.000Z</time>
      </trkpt>
      <trkpt lat="42.76537" lon="1.58087">
        <ele>1194</ele>
        <time>2020-01-05T08:40:44.000Z</time>
      </trkpt>
      <trkpt lat="42.76537" lon="1.58087">
        <ele>1194</ele>
        <time>2020-01-05T08:40:46.000Z</time>
      </trkpt>
      <trkpt lat="42.76537" lon="1.58088">
        <ele>1194</ele>
        <time>2020-01-05T08:40:48.000Z</time>
      </trkpt>
      <trkpt lat="42.76537" lon="1.58089">
        <ele>1194</ele>
        <time>2020-01-05T08:40:50.000Z</time>
      </trkpt>
      <trkpt lat="42.76537" lon="1.5809">
        <ele>1194</ele>
        <time>2020-01-05T08:40:52.000Z</time>
      </trkpt>
      <trkpt lat="42.76538" lon="1.58092">
        <ele>1195</ele>
        <time>2020-01-05T08:40:54.000Z</time>
      </trkpt>
      <trkpt lat="42.76539" lon="1.58093">
        <ele>1195</ele>
        <time>2020-01-05T08:40:56.000Z</time>
      </trkpt>
      <trkpt lat="42.76539" lon="1.58093">
        <ele>1195</ele>
        <time>2020-01-05T08:40:58.000Z</time>
      </trkpt>
      <trkpt lat="42.7654" lon="1.58094">
        <ele>1196</ele>
        <time>2020-01-05T08:41:00.000Z</time>
      </trkpt>
      <trkpt lat="42.76541" lon="1.58096">
        <ele>1196</ele>
        <time>2020-01-05T08:41:02.000Z</time>
      </trkpt>
      <trkpt lat="42.76541" lon="1.58097">
        <ele>1196</ele>
        <time>2020-01-05T08:41:04.000Z</time>
      </trkpt>
      <trkpt lat="42.76541" lon="1.58097">
        <ele>1196</ele>
        <time>2020-01-05T08:41:06.000Z</time>
      </trkpt>
      <trkpt lat="42.76541" lon="1.58097">
        <ele>1196</ele>
        <time>2020-01-05T08:41:08.000Z</time>
      </trkpt>
      <trkpt lat="42.76541" lon="1.58097">
        <ele>1197</ele>
        <time>2020-01-05T08:41:10.000Z</time>
      </trkpt>
      <trkpt lat="42.76541" lon="1.58098">
        <ele>1197</ele>
        <time>2020-01-05T08:41:12.000Z</time>
      </trkpt>
      <trkpt lat="42.76541" lon="1.58099">
        <ele>1197</ele>
        <time>2020-01-05T08:41:14.000Z</time>
      </trkpt>
      <trkpt lat="42.7654" lon="1.581">
        <ele>1197</ele>
        <time>2020-01-05T08:41:16.000Z</time>
      </trkpt>
      <trkpt lat="42.7654" lon="1.58102">
        <ele>1197</ele>
        <time>2020-01-05T08:41:18.000Z</time>
      </trkpt>
      <trkpt lat="42.7654" lon="1.58103">
        <ele>1198</ele>
        <time>2020-01-05T08:41:20.000Z</time>
      </trkpt>
      <trkpt lat="42.76541" lon="1.58104">
        <ele>1198</ele>
        <time>2020-01-05T08:41:22.000Z</time>
      </trkpt>
      <trkpt lat="42.76541" lon="1.58106">
        <ele>1198</ele>
        <time>2020-01-05T08:41:24.000Z</time>
      </trkpt>
      <trkpt lat="42.76542" lon="1.58107">
        <ele>1199</ele>
        <time>2020-01-05T08:41:26.000Z</time>
      </trkpt>
      <trkpt lat="42.76542" lon="1.58108">
        <ele>1199</ele>
        <time>2020-01-05T08:41:28.000Z</time>
      </trkpt>
      <trkpt lat="42.76542" lon="1.58109">
        <ele>1199</ele>
        <time>2020-01-05T08:41:30.000Z</time>
      </trkpt>
      <trkpt lat="42.76542" lon="1.58109">
        <ele>1199</ele>
        <time>2020-01-05T08:41:32.000Z</time>
      </trkpt>
      <trkpt lat="42.76542" lon="1.58109">
        <ele>1200</ele>
        <time>2020-01-05T08:41:34.000Z</time>
      </trkpt>
      <trkpt lat="42.76542" lon="1.5811">
        <ele>1200</ele>
        <time>2020-01-05T08:41:36.000Z</time>
      </trkpt>
      <trkpt lat="42.76543" lon="1.58111">
        <ele>1200</ele>
        <time>2020-01-05T08:41:38.000Z</time>
      </trkpt>
      <trkpt lat="42.76544" lon="1.58112">
        <ele>1200</ele>
        <time>2020-01-05T08:41:40.000Z</time>
      </trkpt>
      <trkpt lat="42.76544" lon="1.58112">
        <ele>1201</ele>
        <time>2020-01-05T08:41:42.000Z</time>
      </trkpt>
      <trkpt lat="42.76544" lon="1.58113">
        <ele>1201</ele>
        <time>2020-01-05T08:41:44.000Z</time>
      </trkpt>
      <trkpt lat="42.76544" lon="1.58113">
        <ele>1201</ele>
        <time>2020-01-05T08:41:46.000Z</time>
      </trkpt>
      <trkpt lat="42.76545" lon="1.58114">
        <ele>1201</ele>
        <time>2020-01-05T08:41:48.000Z</time>
      </trkpt>
      <trkpt lat="42.76545" lon="1.58115">
        <ele>1201</ele>
        <time>2020-01-05T08:41:50.000Z</time>
      </trkpt>
      <trkpt lat="42.76545" lon="1.58115">
        <ele>1201</ele>
        <time>2020-01-05T08:41:52.000Z</time>
      </trkpt>
      <trkpt lat="42.76545" lon="1.58115">
        <ele>1202</ele>
        <time>2020-01-05T08:41:54.000Z</time>
      </trkpt>
      <trkpt lat="42.76545" lon="1.58116">
        <ele>1202</ele>
        <time>2020-01-05T08:41:56.000Z</time>
      </trkpt>
      <trkpt lat="42.76546" lon="1.58116">
        <ele>1202</ele>
        <time>2020-01-05T08:41:58.000Z</time>
      </trkpt>
      <trkpt lat="42.76546" lon="1.58117">
        <ele>1202</ele>
        <time>2020-01-05T08:42:00.000Z</time>
      </trkpt>
      <trkpt lat="42.76546" lon="1.58119">
        <ele>1203</ele>
        <time>2020-01-05T08:42:02.000Z</time>
      </trkpt>
      <trkpt lat="42.76545" lon="1.5812">
        <ele>1203</ele>
        <time>2020-01-05T08:42:04.000Z</time>
      </trkpt>
      <trkpt lat="42.76545" lon="1.58121">
        <ele>1203</ele>
        <time>2020-01-05T08:42:06.000Z</time>
      </trkpt>
      <trkpt lat="42.76545" lon="1.58122">
        <ele>1204</ele>
        <time>2020-01-05T08:42:08.000Z</time>
      </trkpt>
      <trkpt lat="42.76545" lon="1.58124">
        <ele>1204</ele>
        <time>2020-01-05T08:42:10.000Z</time>
      </trkpt>
      <trkpt lat="42.76544" lon="1.58124">
        <ele>1204</ele>
        <time>2020-01-05T08:42:12.000Z</time>
      </trkpt>
      <trkpt lat="42.76544" lon="1.58126">
        <ele>1205</ele>
        <time>2020-01-05T08:42:14.000Z</time>
      </trkpt>
      <trkpt lat="42.76544" lon="1.58127">
        <ele>1205</ele>
        <time>2020-01-05T08:42:16.000Z</time>
      </trkpt>
      <trkpt lat="42.76543" lon="1.58129">
        <ele>1205</ele>
        <time>2020-01-05T08:42:18.000Z</time>
      </trkpt>
      <trkpt lat="42.76543" lon="1.5813">
        <ele>1206</ele>
        <time>2020-01-05T08:42:20.000Z</time>
      </trkpt>
      <trkpt lat="42.76544" lon="1.58131">
        <ele>1206</ele>
        <time>2020-01-05T08:42:22.000Z</time>
      </trkpt>
      <trkpt lat="42.76544" lon="1.58131">
        <ele>1206</ele>
        <time>2020-01-05T08:42:24.000Z</time>
      </trkpt>
      <trkpt lat="42.76544" lon="1.58133">
        <ele>1207</ele>
        <time>2020-01-05T08:42:26.000Z</time>
      </trkpt>
      <trkpt lat="42.76544" lon="1.58133">
        <ele>1207</ele>
        <time>2020-01-05T08:42:28.000Z</time>
      </trkpt>
      <trkpt lat="42.76543" lon="1.58134">
        <ele>1207</ele>
        <time>2020-01-05T08:42:30.000Z</time>
      </trkpt>
      <trkpt lat="42.76543" lon="1.58135">
        <ele>1207</ele>
        <time>2020-01-05T08:42:32.000Z</time>
      </trkpt>
      <trkpt lat="42.76543" lon="1.58135">
        <ele>1207</ele>
        <time>2020-01-05T08:42:34.000Z</time>
      </trkpt>
      <trkpt lat="42.76543" lon="1.58136">
        <ele>1208</ele>
        <time>2020-01-05T08:42:36.000Z</time>
      </trkpt>
      <trkpt lat="42.76543" lon="1.58136">
        <ele>1208</ele>
        <time>2020-01-05T08:42:38.000Z</time>
      </trkpt>
      <trkpt lat="42.76543" lon="1.58137">
        <ele>1208</ele>
        <time>2020-01-05T08:42:40.000Z</time>
      </trkpt>
      <trkpt lat="42.76542" lon="1.58137">
        <ele>1208</ele>
        <time>2020-01-05T08:42:42.000Z</time>
      </trkpt>
      <trkpt lat="42.76542" lon="1.58138">
        <ele>1208</ele>
        <time>2020-01-05T08:42:44.000Z</time>
      </trkpt>
      <trkpt lat="42.76542" lon="1.58139">
        <ele>1208</ele>
        <time>2020-01-05T08:42:46.000Z</time>
      </trkpt>
      <trkpt lat="42.76544" lon="1.58139">
        <ele>1209</ele>
        <time>2020-01-05T08:42:48.000Z</time>
      </trkpt>
      <trkpt lat="42.76544" lon="1.58141">
        <ele>1209</ele>
        <time>2020-01-05T08:42:50.000Z</time>
      </trkpt>
      <trkpt lat="42.76544" lon="1.58141">
        <ele>1209</ele>
        <time>2020-01-05T08:42:52.000Z</time>
      </trkpt>
      <trkpt lat="42.76544" lon="1.58142">
        <ele>1209</ele>
        <time>2020-01-05T08:42:54.000Z</time>
      </trkpt>
      <trkpt lat="42.76544" lon="1.58143">
        <ele>1210</ele>
        <time>2020-01-05T08:42:56.000Z</time>
      </trkpt>
      <trkpt lat="42.76544" lon="1.58144">
        <ele>1210</ele>
        <time>2020-01-05T08:42:58.000Z</time>
      </trkpt>
      <trkpt lat="42.76544" lon="1.58147">
        <ele>1211</ele>
        <time>2020-01-05T08:43:00.000Z</time>
      </trkpt>
      <trkpt lat="42.76544" lon="1.58148">
        <ele>1211</ele>
        <time>2020-01-05T08:43:02.000Z</time>
      </trkpt>
      <trkpt lat="42.76544" lon="1.58149">
        <ele>1212</ele>
        <time>2020-01-05T08:43:04.000Z</time>
      </trkpt>
      <trkpt lat="42.76545" lon="1.58151">
        <ele>1212</ele>
        <time>2020-01-05T08:43:06.000Z</time>
      </trkpt>
      <trkpt lat="42.76546" lon="1.58152">
        <ele>1213</ele>
        <time>2020-01-05T08:43:08.000Z</time>
      </trkpt>
      <trkpt lat="42.76547" lon="1.58153">
        <ele>1213</ele>
        <time>2020-01-05T08:43:10.000Z</time>
      </trkpt>
      <trkpt lat="42.76547" lon="1.58155">
        <ele>1213</ele>
        <time>2020-01-05T08:43:12.000Z</time>
      </trkpt>
      <trkpt lat="42.76547" lon="1.58156">
        <ele>1214</ele>
        <time>2020-01-05T08:43:14.000Z</time>
      </trkpt>
      <trkpt lat="42.76547" lon="1.58157">
        <ele>1214</ele>
        <time>2020-01-05T08:43:16.000Z</time>
      </trkpt>
      <trkpt lat="42.76546" lon="1.58157">
        <ele>1214</ele>
        <time>2020-01-05T08:43:18.000Z</time>
      </trkpt>
      <trkpt lat="42.76546" lon="1.58157">
        <ele>1214</ele>
        <time>2020-01-05T08:43:20.000Z</time>
      </trkpt>
      <trkpt lat="42.76546" lon="1.58158">
        <ele>1214</ele>
        <time>2020-01-05T08:43:22.000Z</time>
      </trkpt>
      <trkpt lat="42.76546" lon="1.5816">
        <ele>1215</ele>
        <time>2020-01-05T08:43:24.000Z</time>
      </trkpt>
      <trkpt lat="42.76544" lon="1.5816">
        <ele>1215</ele>
        <time>2020-01-05T08:43:26.000Z</time>
      </trkpt>
      <trkpt lat="42.76544" lon="1.58161">
        <ele>1215</ele>
        <time>2020-01-05T08:43:28.000Z</time>
      </trkpt>
      <trkpt lat="42.76543" lon="1.58162">
        <ele>1215</ele>
        <time>2020-01-05T08:43:30.000Z</time>
      </trkpt>
      <trkpt lat="42.76541" lon="1.58162">
        <ele>1215</ele>
        <time>2020-01-05T08:43:32.000Z</time>
      </trkpt>
      <trkpt lat="42.7654" lon="1.58163">
        <ele>1215</ele>
        <time>2020-01-05T08:43:34.000Z</time>
      </trkpt>
      <trkpt lat="42.76539" lon="1.58163">
        <ele>1215</ele>
        <time>2020-01-05T08:43:36.000Z</time>
      </trkpt>
      <trkpt lat="42.76538" lon="1.58164">
        <ele>1215</ele>
        <time>2020-01-05T08:43:38.000Z</time>
      </trkpt>
      <trkpt lat="42.76539" lon="1.58165">
        <ele>1215</ele>
        <time>2020-01-05T08:43:40.000Z</time>
      </trkpt>
      <trkpt lat="42.76538" lon="1.58165">
        <ele>1215</ele>
        <time>2020-01-05T08:43:42.000Z</time>
      </trkpt>
      <trkpt lat="42.76537" lon="1.58165">
        <ele>1215</ele>
        <time>2020-01-05T08:43:44.000Z</time>
      </trkpt>
      <trkpt lat="42.76537" lon="1.58166">
        <ele>1215</ele>
        <time>2020-01-05T08:43:46.000Z</time>
      </trkpt>
      <trkpt lat="42.76537" lon="1.58167">
        <ele>1216</ele>
        <time>2020-01-05T08:43:48.000Z</time>
      </trkpt>
      <trkpt lat="42.76536" lon="1.58167">
        <ele>1216</ele>
        <time>2020-01-05T08:43:50.000Z</time>
      </trkpt>
      <trkpt lat="42.76536" lon="1.58168">
        <ele>1216</ele>
        <time>2020-01-05T08:43:52.000Z</time>
      </trkpt>
      <trkpt lat="42.76535" lon="1.58168">
        <ele>1216</ele>
        <time>2020-01-05T08:43:54.000Z</time>
      </trkpt>
      <trkpt lat="42.76535" lon="1.58168">
        <ele>1216</ele>
        <time>2020-01-05T08:43:56.000Z</time>
      </trkpt>
      <trkpt lat="42.76533" lon="1.58169">
        <ele>1216</ele>
        <time>2020-01-05T08:43:58.000Z</time>
      </trkpt>
      <trkpt lat="42.76533" lon="1.5817">
        <ele>1216</ele>
        <time>2020-01-05T08:44:00.000Z</time>
      </trkpt>
      <trkpt lat="42.76532" lon="1.58171">
        <ele>1216</ele>
        <time>2020-01-05T08:44:02.000Z</time>
      </trkpt>
      <trkpt lat="42.76532" lon="1.58171">
        <ele>1216</ele>
        <time>2020-01-05T08:44:04.000Z</time>
      </trkpt>
      <trkpt lat="42.76531" lon="1.58172">
        <ele>1216</ele>
        <time>2020-01-05T08:44:06.000Z</time>
      </trkpt>
      <trkpt lat="42.7653" lon="1.58172">
        <ele>1216</ele>
        <time>2020-01-05T08:44:08.000Z</time>
      </trkpt>
      <trkpt lat="42.76529" lon="1.58173">
        <ele>1216</ele>
        <time>2020-01-05T08:44:10.000Z</time>
      </trkpt>
      <trkpt lat="42.76529" lon="1.58173">
        <ele>1216</ele>
        <time>2020-01-05T08:44:12.000Z</time>
      </trkpt>
      <trkpt lat="42.76528" lon="1.58173">
        <ele>1217</ele>
        <time>2020-01-05T08:44:14.000Z</time>
      </trkpt>
      <trkpt lat="42.76527" lon="1.58174">
        <ele>1217</ele>
        <time>2020-01-05T08:44:16.000Z</time>
      </trkpt>
      <trkpt lat="42.76527" lon="1.58173">
        <ele>1216</ele>
        <time>2020-01-05T08:44:18.000Z</time>
      </trkpt>
      <trkpt lat="42.76526" lon="1.58172">
        <ele>1216</ele>
        <time>2020-01-05T08:44:20.000Z</time>
      </trkpt>
      <trkpt lat="42.76525" lon="1.58172">
        <ele>1216</ele>
        <time>2020-01-05T08:44:22.000Z</time>
      </trkpt>
      <trkpt lat="42.76526" lon="1.58173">
        <ele>1216</ele>
        <time>2020-01-05T08:44:24.000Z</time>
      </trkpt>
      <trkpt lat="42.76526" lon="1.58173">
        <ele>1216</ele>
        <time>2020-01-05T08:44:26.000Z</time>
      </trkpt>
      <trkpt lat="42.76526" lon="1.58174">
        <ele>1216</ele>
        <time>2020-01-05T08:44:28.000Z</time>
      </trkpt>
      <trkpt lat="42.76526" lon="1.58175">
        <ele>1217</ele>
        <time>2020-01-05T08:44:30.000Z</time>
      </trkpt>
      <trkpt lat="42.76525" lon="1.58176">
        <ele>1217</ele>
        <time>2020-01-05T08:44:32.000Z</time>
      </trkpt>
      <trkpt lat="42.76525" lon="1.58177">
        <ele>1217</ele>
        <time>2020-01-05T08:44:34.000Z</time>
      </trkpt>
      <trkpt lat="42.76525" lon="1.58177">
        <ele>1217</ele>
        <time>2020-01-05T08:44:36.000Z</time>
      </trkpt>
      <trkpt lat="42.76526" lon="1.58178">
        <ele>1218</ele>
        <time>2020-01-05T08:44:38.000Z</time>
      </trkpt>
      <trkpt lat="42.76525" lon="1.58178">
        <ele>1218</ele>
        <time>2020-01-05T08:44:40.000Z</time>
      </trkpt>
      <trkpt lat="42.76526" lon="1.58178">
        <ele>1218</ele>
        <time>2020-01-05T08:44:42.000Z</time>
      </trkpt>
      <trkpt lat="42.76524" lon="1.5818">
        <ele>1218</ele>
        <time>2020-01-05T08:44:44.000Z</time>
      </trkpt>
      <trkpt lat="42.76524" lon="1.5818">
        <ele>1218</ele>
        <time>2020-01-05T08:44:46.000Z</time>
      </trkpt>
      <trkpt lat="42.76525" lon="1.58179">
        <ele>1218</ele>
        <time>2020-01-05T08:44:48.000Z</time>
      </trkpt>
      <trkpt lat="42.76524" lon="1.58178">
        <ele>1218</ele>
        <time>2020-01-05T08:44:50.000Z</time>
      </trkpt>
      <trkpt lat="42.76523" lon="1.58178">
        <ele>1218</ele>
        <time>2020-01-05T08:44:52.000Z</time>
      </trkpt>
      <trkpt lat="42.76522" lon="1.58179">
        <ele>1218</ele>
        <time>2020-01-05T08:44:54.000Z</time>
      </trkpt>
      <trkpt lat="42.76521" lon="1.5818">
        <ele>1218</ele>
        <time>2020-01-05T08:44:56.000Z</time>
      </trkpt>
      <trkpt lat="42.76521" lon="1.5818">
        <ele>1218</ele>
        <time>2020-01-05T08:44:58.000Z</time>
      </trkpt>
      <trkpt lat="42.76521" lon="1.58181">
        <ele>1218</ele>
        <time>2020-01-05T08:45:00.000Z</time>
      </trkpt>
      <trkpt lat="42.76522" lon="1.58181">
        <ele>1218</ele>
        <time>2020-01-05T08:45:02.000Z</time>
      </trkpt>
      <trkpt lat="42.76522" lon="1.58181">
        <ele>1218</ele>
        <time>2020-01-05T08:45:04.000Z</time>
      </trkpt>
      <trkpt lat="42.76522" lon="1.58181">
        <ele>1218</ele>
        <time>2020-01-05T08:45:06.000Z</time>
      </trkpt>
      <trkpt lat="42.76522" lon="1.58181">
        <ele>1218</ele>
        <time>2020-01-05T08:45:08.000Z</time>
      </trkpt>
      <trkpt lat="42.76522" lon="1.58179">
        <ele>1218</ele>
        <time>2020-01-05T08:45:10.000Z</time>
      </trkpt>
      <trkpt lat="42.76521" lon="1.58178">
        <ele>1218</ele>
        <time>2020-01-05T08:45:12.000Z</time>
      </trkpt>
      <trkpt lat="42.7652" lon="1.58178">
        <ele>1217</ele>
        <time>2020-01-05T08:45:14.000Z</time>
      </trkpt>
      <trkpt lat="42.7652" lon="1.58177">
        <ele>1217</ele>
        <time>2020-01-05T08:45:16.000Z</time>
      </trkpt>
      <trkpt lat="42.76518" lon="1.5818">
        <ele>1218</ele>
        <time>2020-01-05T08:45:18.000Z</time>
      </trkpt>
      <trkpt lat="42.76517" lon="1.58181">
        <ele>1218</ele>
        <time>2020-01-05T08:45:20.000Z</time>
      </trkpt>
      <trkpt lat="42.76517" lon="1.58182">
        <ele>1218</ele>
        <time>2020-01-05T08:45:22.000Z</time>
      </trkpt>
      <trkpt lat="42.76517" lon="1.58182">
        <ele>1218</ele>
        <time>2020-01-05T08:45:24.000Z</time>
      </trkpt>
      <trkpt lat="42.76517" lon="1.58181">
        <ele>1218</ele>
        <time>2020-01-05T08:45:26.000Z</time>
      </trkpt>
      <trkpt lat="42.76518" lon="1.5818">
        <ele>1218</ele>
        <time>2020-01-05T08:45:28.000Z</time>
      </trkpt>
      <trkpt lat="42.76518" lon="1.58179">
        <ele>1218</ele>
        <time>2020-01-05T08:45:30.000Z</time>
      </trkpt>
      <trkpt lat="42.76518" lon="1.58179">
        <ele>1218</ele>
        <time>2020-01-05T08:45:32.000Z</time>
      </trkpt>
      <trkpt lat="42.76518" lon="1.58179">
        <ele>1218</ele>
        <time>2020-01-05T08:45:34.000Z</time>
      </trkpt>
      <trkpt lat="42.76517" lon="1.58179">
        <ele>1217</ele>
        <time>2020-01-05T08:45:36.000Z</time>
      </trkpt>
      <trkpt lat="42.76517" lon="1.58179">
        <ele>1218</ele>
        <time>2020-01-05T08:45:38.000Z</time>
      </trkpt>
      <trkpt lat="42.76516" lon="1.58179">
        <ele>1217</ele>
        <time>2020-01-05T08:45:40.000Z</time>
      </trkpt>
      <trkpt lat="42.76515" lon="1.58179">
        <ele>1217</ele>
        <time>2020-01-05T08:45:42.000Z</time>
      </trkpt>
      <trkpt lat="42.76515" lon="1.58179">
        <ele>1217</ele>
        <time>2020-01-05T08:45:44.000Z</time>
      </trkpt>
      <trkpt lat="42.76514" lon="1.58178">
        <ele>1217</ele>
        <time>2020-01-05T08:45:46.000Z</time>
      </trkpt>
      <trkpt lat="42.76514" lon="1.58178">
        <ele>1217</ele>
        <time>2020-01-05T08:45:48.000Z</time>
      </trkpt>
      <trkpt lat="42.76515" lon="1.58179">
        <ele>1217</ele>
        <time>2020-01-05T08:45:50.000Z</time>
      </trkpt>
      <trkpt lat="42.76515" lon="1.58179">
        <ele>1218</ele>
        <time>2020-01-05T08:45:52.000Z</time>
      </trkpt>
      <trkpt lat="42.76515" lon="1.5818">
        <ele>1218</ele>
        <time>2020-01-05T08:45:54.000Z</time>
      </trkpt>
      <trkpt lat="42.76517" lon="1.5818">
        <ele>1218</ele>
        <time>2020-01-05T08:45:56.000Z</time>
      </trkpt>
      <trkpt lat="42.76518" lon="1.5818">
        <ele>1218</ele>
        <time>2020-01-05T08:45:58.000Z</time>
      </trkpt>
      <trkpt lat="42.76519" lon="1.58179">
        <ele>1218</ele>
        <time>2020-01-05T08:46:00.000Z</time>
      </trkpt>
      <trkpt lat="42.76519" lon="1.58179">
        <ele>1218</ele>
        <time>2020-01-05T08:46:02.000Z</time>
      </trkpt>
      <trkpt lat="42.7652" lon="1.58179">
        <ele>1218</ele>
        <time>2020-01-05T08:46:04.000Z</time>
      </trkpt>
      <trkpt lat="42.7652" lon="1.5818">
        <ele>1218</ele>
        <time>2020-01-05T08:46:06.000Z</time>
      </trkpt>
      <trkpt lat="42.76521" lon="1.5818">
        <ele>1218</ele>
        <time>2020-01-05T08:46:08.000Z</time>
      </trkpt>
      <trkpt lat="42.76522" lon="1.5818">
        <ele>1218</ele>
        <time>2020-01-05T08:46:10.000Z</time>
      </trkpt>
      <trkpt lat="42.76522" lon="1.58179">
        <ele>1218</ele>
        <time>2020-01-05T08:46:12.000Z</time>
      </trkpt>
      <trkpt lat="42.76523" lon="1.58179">
        <ele>1218</ele>
        <time>2020-01-05T08:46:14.000Z</time>
      </trkpt>
      <trkpt lat="42.76523" lon="1.58179">
        <ele>1218</ele>
        <time>2020-01-05T08:46:16.000Z</time>
      </trkpt>
      <trkpt lat="42.76523" lon="1.58179">
        <ele>1218</ele>
        <time>2020-01-05T08:46:18.000Z</time>
      </trkpt>
      <trkpt lat="42.76524" lon="1.58179">
        <ele>1218</ele>
        <time>2020-01-05T08:46:20.000Z</time>
      </trkpt>
      <trkpt lat="42.76524" lon="1.58178">
        <ele>1218</ele>
        <time>2020-01-05T08:46:22.000Z</time>
      </trkpt>
      <trkpt lat="42.76525" lon="1.58179">
        <ele>1218</ele>
        <time>2020-01-05T08:46:24.000Z</time>
      </trkpt>
      <trkpt lat="42.76525" lon="1.58179">
        <ele>1218</ele>
        <time>2020-01-05T08:46:26.000Z</time>
      </trkpt>
      <trkpt lat="42.76525" lon="1.58179">
        <ele>1218</ele>
        <time>2020-01-05T08:46:28.000Z</time>
      </trkpt>
      <trkpt lat="42.76525" lon="1.58178">
        <ele>1218</ele>
        <time>2020-01-05T08:46:30.000Z</time>
      </trkpt>
      <trkpt lat="42.76526" lon="1.58179">
        <ele>1218</ele>
        <time>2020-01-05T08:46:32.000Z</time>
      </trkpt>
      <trkpt lat="42.76528" lon="1.58179">
        <ele>1218</ele>
        <time>2020-01-05T08:46:34.000Z</time>
      </trkpt>
      <trkpt lat="42.76529" lon="1.58179">
        <ele>1218</ele>
        <time>2020-01-05T08:46:36.000Z</time>
      </trkpt>
      <trkpt lat="42.7653" lon="1.5818">
        <ele>1218</ele>
        <time>2020-01-05T08:46:38.000Z</time>
      </trkpt>
      <trkpt lat="42.76532" lon="1.58179">
        <ele>1218</ele>
        <time>2020-01-05T08:46:40.000Z</time>
      </trkpt>
      <trkpt lat="42.76532" lon="1.58178">
        <ele>1218</ele>
        <time>2020-01-05T08:46:42.000Z</time>
      </trkpt>
      <trkpt lat="42.76533" lon="1.58178">
        <ele>1218</ele>
        <time>2020-01-05T08:46:44.000Z</time>
      </trkpt>
      <trkpt lat="42.76532" lon="1.58178">
        <ele>1218</ele>
        <time>2020-01-05T08:46:46.000Z</time>
      </trkpt>
      <trkpt lat="42.76532" lon="1.58178">
        <ele>1218</ele>
        <time>2020-01-05T08:46:48.000Z</time>
      </trkpt>
      <trkpt lat="42.7653" lon="1.58178">
        <ele>1218</ele>
        <time>2020-01-05T08:46:50.000Z</time>
      </trkpt>
      <trkpt lat="42.76531" lon="1.58179">
        <ele>1218</ele>
        <time>2020-01-05T08:46:52.000Z</time>
      </trkpt>
      <trkpt lat="42.76531" lon="1.5818">
        <ele>1218</ele>
        <time>2020-01-05T08:46:54.000Z</time>
      </trkpt>
      <trkpt lat="42.76531" lon="1.58181">
        <ele>1219</ele>
        <time>2020-01-05T08:46:56.000Z</time>
      </trkpt>
      <trkpt lat="42.76531" lon="1.58181">
        <ele>1219</ele>
        <time>2020-01-05T08:46:58.000Z</time>
      </trkpt>
      <trkpt lat="42.76531" lon="1.58182">
        <ele>1219</ele>
        <time>2020-01-05T08:47:00.000Z</time>
      </trkpt>
      <trkpt lat="42.76531" lon="1.58183">
        <ele>1220</ele>
        <time>2020-01-05T08:47:02.000Z</time>
      </trkpt>
      <trkpt lat="42.76531" lon="1.58184">
        <ele>1220</ele>
        <time>2020-01-05T08:47:04.000Z</time>
      </trkpt>
      <trkpt lat="42.7653" lon="1.58184">
        <ele>1220</ele>
        <time>2020-01-05T08:47:06.000Z</time>
      </trkpt>
      <trkpt lat="42.7653" lon="1.58184">
        <ele>1220</ele>
        <time>2020-01-05T08:47:08.000Z</time>
      </trkpt>
      <trkpt lat="42.7653" lon="1.58184">
        <ele>1220</ele>
        <time>2020-01-05T08:47:10.000Z</time>
      </trkpt>
      <trkpt lat="42.76529" lon="1.58184">
        <ele>1220</ele>
        <time>2020-01-05T08:47:12.000Z</time>
      </trkpt>
      <trkpt lat="42.76527" lon="1.58184">
        <ele>1219</ele>
        <time>2020-01-05T08:47:14.000Z</time>
      </trkpt>
      <trkpt lat="42.76525" lon="1.58183">
        <ele>1219</ele>
        <time>2020-01-05T08:47:16.000Z</time>
      </trkpt>
      <trkpt lat="42.76525" lon="1.58183">
        <ele>1219</ele>
        <time>2020-01-05T08:47:18.000Z</time>
      </trkpt>
      <trkpt lat="42.76525" lon="1.58183">
        <ele>1219</ele>
        <time>2020-01-05T08:47:20.000Z</time>
      </trkpt>
      <trkpt lat="42.76524" lon="1.58183">
        <ele>1219</ele>
        <time>2020-01-05T08:47:22.000Z</time>
      </trkpt>
      <trkpt lat="42.76523" lon="1.58183">
        <ele>1219</ele>
        <time>2020-01-05T08:47:24.000Z</time>
      </trkpt>
      <trkpt lat="42.76522" lon="1.58183">
        <ele>1219</ele>
        <time>2020-01-05T08:47:26.000Z</time>
      </trkpt>
      <trkpt lat="42.76521" lon="1.58183">
        <ele>1219</ele>
        <time>2020-01-05T08:47:28.000Z</time>
      </trkpt>
      <trkpt lat="42.76521" lon="1.58181">
        <ele>1218</ele>
        <time>2020-01-05T08:47:30.000Z</time>
      </trkpt>
      <trkpt lat="42.76521" lon="1.5818">
        <ele>1218</ele>
        <time>2020-01-05T08:47:32.000Z</time>
      </trkpt>
      <trkpt lat="42.76521" lon="1.58179">
        <ele>1218</ele>
        <time>2020-01-05T08:47:34.000Z</time>
      </trkpt>
      <trkpt lat="42.76521" lon="1.58179">
        <ele>1218</ele>
        <time>2020-01-05T08:47:36.000Z</time>
      </trkpt>
      <trkpt lat="42.76521" lon="1.5818">
        <ele>1218</ele>
        <time>2020-01-05T08:47:38.000Z</time>
      </trkpt>
      <trkpt lat="42.7652" lon="1.5818">
        <ele>1218</ele>
        <time>2020-01-05T08:47:40.000Z</time>
      </trkpt>
      <trkpt lat="42.7652" lon="1.58179">
        <ele>1218</ele>
        <time>2020-01-05T08:47:42.000Z</time>
      </trkpt>
      <trkpt lat="42.76519" lon="1.58179">
        <ele>1218</ele>
        <time>2020-01-05T08:47:44.000Z</time>
      </trkpt>
      <trkpt lat="42.76519" lon="1.58179">
        <ele>1218</ele>
        <time>2020-01-05T08:47:46.000Z</time>
      </trkpt>
      <trkpt lat="42.76518" lon="1.58178">
        <ele>1217</ele>
        <time>2020-01-05T08:47:48.000Z</time>
      </trkpt>
      <trkpt lat="42.76518" lon="1.58177">
        <ele>1217</ele>
        <time>2020-01-05T08:47:50.000Z</time>
      </trkpt>
      <trkpt lat="42.76518" lon="1.58177">
        <ele>1217</ele>
        <time>2020-01-05T08:47:52.000Z</time>
      </trkpt>
      <trkpt lat="42.76518" lon="1.58176">
        <ele>1217</ele>
        <time>2020-01-05T08:47:54.000Z</time>
      </trkpt>
      <trkpt lat="42.76518" lon="1.58175">
        <ele>1217</ele>
        <time>2020-01-05T08:47:56.000Z</time>
      </trkpt>
      <trkpt lat="42.76519" lon="1.58175">
        <ele>1216</ele>
        <time>2020-01-05T08:47:58.000Z</time>
      </trkpt>
      <trkpt lat="42.76522" lon="1.58174">
        <ele>1216</ele>
        <time>2020-01-05T08:48:00.000Z</time>
      </trkpt>
      <trkpt lat="42.76523" lon="1.58174">
        <ele>1216</ele>
        <time>2020-01-05T08:48:02.000Z</time>
      </trkpt>
      <trkpt lat="42.76524" lon="1.58173">
        <ele>1216</ele>
        <time>2020-01-05T08:48:04.000Z</time>
      </trkpt>
      <trkpt lat="42.76525" lon="1.58173">
        <ele>1216</ele>
        <time>2020-01-05T08:48:06.000Z</time>
      </trkpt>
      <trkpt lat="42.76525" lon="1.58172">
        <ele>1216</ele>
        <time>2020-01-05T08:48:08.000Z</time>
      </trkpt>
      <trkpt lat="42.76526" lon="1.58171">
        <ele>1216</ele>
        <time>2020-01-05T08:48:10.000Z</time>
      </trkpt>
      <trkpt lat="42.76526" lon="1.58171">
        <ele>1216</ele>
        <time>2020-01-05T08:48:12.000Z</time>
      </trkpt>
      <trkpt lat="42.76525" lon="1.58171">
        <ele>1216</ele>
        <time>2020-01-05T08:48:14.000Z</time>
      </trkpt>
      <trkpt lat="42.76526" lon="1.58171">
        <ele>1216</ele>
        <time>2020-01-05T08:48:16.000Z</time>
      </trkpt>
      <trkpt lat="42.76526" lon="1.5817">
        <ele>1216</ele>
        <time>2020-01-05T08:48:18.000Z</time>
      </trkpt>
      <trkpt lat="42.76526" lon="1.5817">
        <ele>1216</ele>
        <time>2020-01-05T08:48:20.000Z</time>
      </trkpt>
      <trkpt lat="42.76527" lon="1.58171">
        <ele>1216</ele>
        <time>2020-01-05T08:48:22.000Z</time>
      </trkpt>
      <trkpt lat="42.76527" lon="1.5817">
        <ele>1216</ele>
        <time>2020-01-05T08:48:24.000Z</time>
      </trkpt>
      <trkpt lat="42.76528" lon="1.58171">
        <ele>1216</ele>
        <time>2020-01-05T08:48:26.000Z</time>
      </trkpt>
      <trkpt lat="42.76528" lon="1.5817">
        <ele>1216</ele>
        <time>2020-01-05T08:48:28.000Z</time>
      </trkpt>
      <trkpt lat="42.76528" lon="1.5817">
        <ele>1216</ele>
        <time>2020-01-05T08:48:30.000Z</time>
      </trkpt>
      <trkpt lat="42.76528" lon="1.5817">
        <ele>1216</ele>
        <time>2020-01-05T08:48:32.000Z</time>
      </trkpt>
      <trkpt lat="42.76529" lon="1.58169">
        <ele>1216</ele>
        <time>2020-01-05T08:48:34.000Z</time>
      </trkpt>
      <trkpt lat="42.76529" lon="1.58169">
        <ele>1215</ele>
        <time>2020-01-05T08:48:36.000Z</time>
      </trkpt>
      <trkpt lat="42.76528" lon="1.5817">
        <ele>1216</ele>
        <time>2020-01-05T08:48:38.000Z</time>
      </trkpt>
      <trkpt lat="42.76527" lon="1.58171">
        <ele>1216</ele>
        <time>2020-01-05T08:48:40.000Z</time>
      </trkpt>
      <trkpt lat="42.76526" lon="1.58172">
        <ele>1216</ele>
        <time>2020-01-05T08:48:42.000Z</time>
      </trkpt>
      <trkpt lat="42.76525" lon="1.58172">
        <ele>1216</ele>
        <time>2020-01-05T08:48:44.000Z</time>
      </trkpt>
      <trkpt lat="42.76525" lon="1.58173">
        <ele>1216</ele>
        <time>2020-01-05T08:48:46.000Z</time>
      </trkpt>
      <trkpt lat="42.76525" lon="1.58173">
        <ele>1216</ele>
        <time>2020-01-05T08:48:48.000Z</time>
      </trkpt>
      <trkpt lat="42.76525" lon="1.58173">
        <ele>1216</ele>
        <time>2020-01-05T08:48:50.000Z</time>
      </trkpt>
      <trkpt lat="42.76524" lon="1.58173">
        <ele>1216</ele>
        <time>2020-01-05T08:48:52.000Z</time>
      </trkpt>
      <trkpt lat="42.76523" lon="1.58173">
        <ele>1216</ele>
        <time>2020-01-05T08:48:54.000Z</time>
      </trkpt>
      <trkpt lat="42.76523" lon="1.58172">
        <ele>1216</ele>
        <time>2020-01-05T08:48:56.000Z</time>
      </trkpt>
      <trkpt lat="42.76522" lon="1.58172">
        <ele>1216</ele>
        <time>2020-01-05T08:48:58.000Z</time>
      </trkpt>
      <trkpt lat="42.76522" lon="1.58172">
        <ele>1216</ele>
        <time>2020-01-05T08:49:00.000Z</time>
      </trkpt>
      <trkpt lat="42.76521" lon="1.58173">
        <ele>1216</ele>
        <time>2020-01-05T08:49:02.000Z</time>
      </trkpt>
      <trkpt lat="42.76521" lon="1.58173">
        <ele>1216</ele>
        <time>2020-01-05T08:49:04.000Z</time>
      </trkpt>
      <trkpt lat="42.7652" lon="1.58173">
        <ele>1216</ele>
        <time>2020-01-05T08:49:06.000Z</time>
      </trkpt>
      <trkpt lat="42.7652" lon="1.58174">
        <ele>1216</ele>
        <time>2020-01-05T08:49:08.000Z</time>
      </trkpt>
      <trkpt lat="42.7652" lon="1.58174">
        <ele>1216</ele>
        <time>2020-01-05T08:49:10.000Z</time>
      </trkpt>
      <trkpt lat="42.7652" lon="1.58174">
        <ele>1216</ele>
        <time>2020-01-05T08:49:12.000Z</time>
      </trkpt>
      <trkpt lat="42.7652" lon="1.58174">
        <ele>1216</ele>
        <time>2020-01-05T08:49:14.000Z</time>
      </trkpt>
      <trkpt lat="42.76519" lon="1.58174">
        <ele>1216</ele>
        <time>2020-01-05T08:49:16.000Z</time>
      </trkpt>
      <trkpt lat="42.76518" lon="1.58174">
        <ele>1216</ele>
        <time>2020-01-05T08:49:18.000Z</time>
      </trkpt>
      <trkpt lat="42.76518" lon="1.58174">
        <ele>1216</ele>
        <time>2020-01-05T08:49:20.000Z</time>
      </trkpt>
      <trkpt lat="42.76517" lon="1.58174">
        <ele>1216</ele>
        <time>2020-01-05T08:49:22.000Z</time>
      </trkpt>
      <trkpt lat="42.76517" lon="1.58173">
        <ele>1216</ele>
        <time>2020-01-05T08:49:24.000Z</time>
      </trkpt>
      <trkpt lat="42.76517" lon="1.58173">
        <ele>1216</ele>
        <time>2020-01-05T08:49:26.000Z</time>
      </trkpt>
      <trkpt lat="42.76517" lon="1.58172">
        <ele>1216</ele>
        <time>2020-01-05T08:49:28.000Z</time>
      </trkpt>
      <trkpt lat="42.76517" lon="1.58172">
        <ele>1216</ele>
        <time>2020-01-05T08:49:30.000Z</time>
      </trkpt>
      <trkpt lat="42.76518" lon="1.58172">
        <ele>1216</ele>
        <time>2020-01-05T08:49:32.000Z</time>
      </trkpt>
      <trkpt lat="42.76518" lon="1.58172">
        <ele>1215</ele>
        <time>2020-01-05T08:49:34.000Z</time>
      </trkpt>
      <trkpt lat="42.76519" lon="1.58171">
        <ele>1215</ele>
        <time>2020-01-05T08:49:36.000Z</time>
      </trkpt>
      <trkpt lat="42.76519" lon="1.58171">
        <ele>1215</ele>
        <time>2020-01-05T08:49:38.000Z</time>
      </trkpt>
      <trkpt lat="42.76519" lon="1.58171">
        <ele>1215</ele>
        <time>2020-01-05T08:49:40.000Z</time>
      </trkpt>
      <trkpt lat="42.76519" lon="1.58171">
        <ele>1215</ele>
        <time>2020-01-05T08:49:42.000Z</time>
      </trkpt>
      <trkpt lat="42.76519" lon="1.58171">
        <ele>1215</ele>
        <time>2020-01-05T08:49:44.000Z</time>
      </trkpt>
      <trkpt lat="42.76518" lon="1.58171">
        <ele>1215</ele>
        <time>2020-01-05T08:49:46.000Z</time>
      </trkpt>
      <trkpt lat="42.76518" lon="1.58171">
        <ele>1215</ele>
        <time>2020-01-05T08:49:48.000Z</time>
      </trkpt>
      <trkpt lat="42.76518" lon="1.5817">
        <ele>1215</ele>
        <time>2020-01-05T08:49:50.000Z</time>
      </trkpt>
      <trkpt lat="42.76518" lon="1.5817">
        <ele>1215</ele>
        <time>2020-01-05T08:49:52.000Z</time>
      </trkpt>
      <trkpt lat="42.76517" lon="1.58171">
        <ele>1215</ele>
        <time>2020-01-05T08:49:54.000Z</time>
      </trkpt>
      <trkpt lat="42.76517" lon="1.58171">
        <ele>1215</ele>
        <time>2020-01-05T08:49:56.000Z</time>
      </trkpt>
      <trkpt lat="42.76518" lon="1.58171">
        <ele>1215</ele>
        <time>2020-01-05T08:49:58.000Z</time>
      </trkpt>
      <trkpt lat="42.76518" lon="1.58171">
        <ele>1215</ele>
        <time>2020-01-05T08:50:00.000Z</time>
      </trkpt>
      <trkpt lat="42.76519" lon="1.58171">
        <ele>1215</ele>
        <time>2020-01-05T08:50:02.000Z</time>
      </trkpt>
      <trkpt lat="42.76519" lon="1.58172">
        <ele>1215</ele>
        <time>2020-01-05T08:50:04.000Z</time>
      </trkpt>
      <trkpt lat="42.76519" lon="1.58172">
        <ele>1216</ele>
        <time>2020-01-05T08:50:06.000Z</time>
      </trkpt>
      <trkpt lat="42.7652" lon="1.58173">
        <ele>1216</ele>
        <time>2020-01-05T08:50:08.000Z</time>
      </trkpt>
      <trkpt lat="42.7652" lon="1.58174">
        <ele>1216</ele>
        <time>2020-01-05T08:50:10.000Z</time>
      </trkpt>
      <trkpt lat="42.7652" lon="1.58174">
        <ele>1216</ele>
        <time>2020-01-05T08:50:12.000Z</time>
      </trkpt>
      <trkpt lat="42.76521" lon="1.58175">
        <ele>1216</ele>
        <time>2020-01-05T08:50:14.000Z</time>
      </trkpt>
      <trkpt lat="42.76521" lon="1.58174">
        <ele>1216</ele>
        <time>2020-01-05T08:50:16.000Z</time>
      </trkpt>
      <trkpt lat="42.76521" lon="1.58174">
        <ele>1216</ele>
        <time>2020-01-05T08:50:18.000Z</time>
      </trkpt>
      <trkpt lat="42.7652" lon="1.58173">
        <ele>1216</ele>
        <time>2020-01-05T08:50:20.000Z</time>
      </trkpt>
      <trkpt lat="42.76521" lon="1.58172">
        <ele>1216</ele>
        <time>2020-01-05T08:50:22.000Z</time>
      </trkpt>
      <trkpt lat="42.7652" lon="1.58172">
        <ele>1216</ele>
        <time>2020-01-05T08:50:24.000Z</time>
      </trkpt>
      <trkpt lat="42.76519" lon="1.58173">
        <ele>1216</ele>
        <time>2020-01-05T08:50:26.000Z</time>
      </trkpt>
      <trkpt lat="42.76519" lon="1.58173">
        <ele>1216</ele>
        <time>2020-01-05T08:50:28.000Z</time>
      </trkpt>
      <trkpt lat="42.76518" lon="1.58172">
        <ele>1216</ele>
        <time>2020-01-05T08:50:30.000Z</time>
      </trkpt>
      <trkpt lat="42.76518" lon="1.58172">
        <ele>1216</ele>
        <time>2020-01-05T08:50:32.000Z</time>
      </trkpt>
      <trkpt lat="42.76517" lon="1.58172">
        <ele>1216</ele>
        <time>2020-01-05T08:50:34.000Z</time>
      </trkpt>
      <trkpt lat="42.76517" lon="1.58173">
        <ele>1216</ele>
        <time>2020-01-05T08:50:36.000Z</time>
      </trkpt>
      <trkpt lat="42.76517" lon="1.58173">
        <ele>1216</ele>
        <time>2020-01-05T08:50:38.000Z</time>
      </trkpt>
      <trkpt lat="42.76517" lon="1.58173">
        <ele>1216</ele>
        <time>2020-01-05T08:50:40.000Z</time>
      </trkpt>
      <trkpt lat="42.76517" lon="1.58173">
        <ele>1216</ele>
        <time>2020-01-05T08:50:42.000Z</time>
      </trkpt>
      <trkpt lat="42.76518" lon="1.58173">
        <ele>1216</ele>
        <time>2020-01-05T08:50:44.000Z</time>
      </trkpt>
      <trkpt lat="42.76518" lon="1.58173">
        <ele>1216</ele>
        <time>2020-01-05T08:50:46.000Z</time>
      </trkpt>
      <trkpt lat="42.76518" lon="1.58173">
        <ele>1216</ele>
        <time>2020-01-05T08:50:48.000Z</time>
      </trkpt>
      <trkpt lat="42.76517" lon="1.58173">
        <ele>1216</ele>
        <time>2020-01-05T08:50:50.000Z</time>
      </trkpt>
      <trkpt lat="42.76516" lon="1.58172">
        <ele>1216</ele>
        <time>2020-01-05T08:50:52.000Z</time>
      </trkpt>
      <trkpt lat="42.76516" lon="1.58173">
        <ele>1216</ele>
        <time>2020-01-05T08:50:54.000Z</time>
      </trkpt>
      <trkpt lat="42.76516" lon="1.58173">
        <ele>1216</ele>
        <time>2020-01-05T08:50:56.000Z</time>
      </trkpt>
      <trkpt lat="42.76516" lon="1.58173">
        <ele>1216</ele>
        <time>2020-01-05T08:50:58.000Z</time>
      </trkpt>
      <trkpt lat="42.76515" lon="1.58174">
        <ele>1216</ele>
        <time>2020-01-05T08:51:00.000Z</time>
      </trkpt>
      <trkpt lat="42.76514" lon="1.58175">
        <ele>1216</ele>
        <time>2020-01-05T08:51:02.000Z</time>
      </trkpt>
      <trkpt lat="42.76513" lon="1.58175">
        <ele>1216</ele>
        <time>2020-01-05T08:51:04.000Z</time>
      </trkpt>
      <trkpt lat="42.76514" lon="1.58175">
        <ele>1216</ele>
        <time>2020-01-05T08:51:06.000Z</time>
      </trkpt>
      <trkpt lat="42.76513" lon="1.58176">
        <ele>1216</ele>
        <time>2020-01-05T08:51:08.000Z</time>
      </trkpt>
      <trkpt lat="42.76513" lon="1.58176">
        <ele>1216</ele>
        <time>2020-01-05T08:51:10.000Z</time>
      </trkpt>
      <trkpt lat="42.76513" lon="1.58175">
        <ele>1216</ele>
        <time>2020-01-05T08:51:12.000Z</time>
      </trkpt>
      <trkpt lat="42.76513" lon="1.58175">
        <ele>1216</ele>
        <time>2020-01-05T08:51:14.000Z</time>
      </trkpt>
      <trkpt lat="42.76514" lon="1.58175">
        <ele>1216</ele>
        <time>2020-01-05T08:51:16.000Z</time>
      </trkpt>
      <trkpt lat="42.76514" lon="1.58175">
        <ele>1216</ele>
        <time>2020-01-05T08:51:18.000Z</time>
      </trkpt>
      <trkpt lat="42.76514" lon="1.58175">
        <ele>1216</ele>
        <time>2020-01-05T08:51:20.000Z</time>
      </trkpt>
      <trkpt lat="42.76514" lon="1.58175">
        <ele>1216</ele>
        <time>2020-01-05T08:51:22.000Z</time>
      </trkpt>
      <trkpt lat="42.76515" lon="1.58174">
        <ele>1216</ele>
        <time>2020-01-05T08:51:24.000Z</time>
      </trkpt>
      <trkpt lat="42.76515" lon="1.58173">
        <ele>1216</ele>
        <time>2020-01-05T08:51:26.000Z</time>
      </trkpt>
      <trkpt lat="42.76515" lon="1.58173">
        <ele>1216</ele>
        <time>2020-01-05T08:51:28.000Z</time>
      </trkpt>
      <trkpt lat="42.76515" lon="1.58174">
        <ele>1216</ele>
        <time>2020-01-05T08:51:30.000Z</time>
      </trkpt>
      <trkpt lat="42.76515" lon="1.58174">
        <ele>1216</ele>
        <time>2020-01-05T08:51:32.000Z</time>
      </trkpt>
      <trkpt lat="42.76514" lon="1.58174">
        <ele>1216</ele>
        <time>2020-01-05T08:51:34.000Z</time>
      </trkpt>
      <trkpt lat="42.76514" lon="1.58175">
        <ele>1216</ele>
        <time>2020-01-05T08:51:36.000Z</time>
      </trkpt>
      <trkpt lat="42.76514" lon="1.58175">
        <ele>1216</ele>
        <time>2020-01-05T08:51:38.000Z</time>
      </trkpt>
      <trkpt lat="42.76514" lon="1.58175">
        <ele>1216</ele>
        <time>2020-01-05T08:51:40.000Z</time>
      </trkpt>
      <trkpt lat="42.76514" lon="1.58175">
        <ele>1216</ele>
        <time>2020-01-05T08:51:42.000Z</time>
      </trkpt>
      <trkpt lat="42.76514" lon="1.58176">
        <ele>1216</ele>
        <time>2020-01-05T08:51:44.000Z</time>
      </trkpt>
      <trkpt lat="42.76513" lon="1.58176">
        <ele>1216</ele>
        <time>2020-01-05T08:51:46.000Z</time>
      </trkpt>
      <trkpt lat="42.76512" lon="1.58175">
        <ele>1216</ele>
        <time>2020-01-05T08:51:48.000Z</time>
      </trkpt>
      <trkpt lat="42.76512" lon="1.58175">
        <ele>1216</ele>
        <time>2020-01-05T08:51:50.000Z</time>
      </trkpt>
      <trkpt lat="42.76512" lon="1.58175">
        <ele>1216</ele>
        <time>2020-01-05T08:51:52.000Z</time>
      </trkpt>
      <trkpt lat="42.76511" lon="1.58175">
        <ele>1216</ele>
        <time>2020-01-05T08:51:54.000Z</time>
      </trkpt>
      <trkpt lat="42.76511" lon="1.58175">
        <ele>1216</ele>
        <time>2020-01-05T08:51:56.000Z</time>
      </trkpt>
      <trkpt lat="42.76511" lon="1.58175">
        <ele>1216</ele>
        <time>2020-01-05T08:51:58.000Z</time>
      </trkpt>
      <trkpt lat="42.76512" lon="1.58174">
        <ele>1216</ele>
        <time>2020-01-05T08:52:00.000Z</time>
      </trkpt>
      <trkpt lat="42.76512" lon="1.58175">
        <ele>1216</ele>
        <time>2020-01-05T08:52:02.000Z</time>
      </trkpt>
      <trkpt lat="42.76512" lon="1.58175">
        <ele>1216</ele>
        <time>2020-01-05T08:52:04.000Z</time>
      </trkpt>
      <trkpt lat="42.76513" lon="1.58175">
        <ele>1216</ele>
        <time>2020-01-05T08:52:06.000Z</time>
      </trkpt>
      <trkpt lat="42.76512" lon="1.58174">
        <ele>1216</ele>
        <time>2020-01-05T08:52:08.000Z</time>
      </trkpt>
      <trkpt lat="42.76513" lon="1.58174">
        <ele>1216</ele>
        <time>2020-01-05T08:52:10.000Z</time>
      </trkpt>
      <trkpt lat="42.76512" lon="1.58174">
        <ele>1216</ele>
        <time>2020-01-05T08:52:12.000Z</time>
      </trkpt>
      <trkpt lat="42.76512" lon="1.58174">
        <ele>1216</ele>
        <time>2020-01-05T08:52:14.000Z</time>
      </trkpt>
      <trkpt lat="42.76511" lon="1.58174">
        <ele>1216</ele>
        <time>2020-01-05T08:52:16.000Z</time>
      </trkpt>
      <trkpt lat="42.76511" lon="1.58174">
        <ele>1216</ele>
        <time>2020-01-05T08:52:18.000Z</time>
      </trkpt>
      <trkpt lat="42.76511" lon="1.58174">
        <ele>1216</ele>
        <time>2020-01-05T08:52:20.000Z</time>
      </trkpt>
      <trkpt lat="42.76512" lon="1.58174">
        <ele>1216</ele>
        <time>2020-01-05T08:52:22.000Z</time>
      </trkpt>
      <trkpt lat="42.76513" lon="1.58173">
        <ele>1216</ele>
        <time>2020-01-05T08:52:24.000Z</time>
      </trkpt>
      <trkpt lat="42.76513" lon="1.58173">
        <ele>1216</ele>
        <time>2020-01-05T08:52:26.000Z</time>
      </trkpt>
      <trkpt lat="42.76513" lon="1.58173">
        <ele>1216</ele>
        <time>2020-01-05T08:52:28.000Z</time>
      </trkpt>
      <trkpt lat="42.76513" lon="1.58174">
        <ele>1216</ele>
        <time>2020-01-05T08:52:30.000Z</time>
      </trkpt>
      <trkpt lat="42.76514" lon="1.58174">
        <ele>1216</ele>
        <time>2020-01-05T08:52:32.000Z</time>
      </trkpt>
      <trkpt lat="42.76515" lon="1.58175">
        <ele>1216</ele>
        <time>2020-01-05T08:52:34.000Z</time>
      </trkpt>
      <trkpt lat="42.76515" lon="1.58176">
        <ele>1217</ele>
        <time>2020-01-05T08:52:36.000Z</time>
      </trkpt>
      <trkpt lat="42.76515" lon="1.58177">
        <ele>1217</ele>
        <time>2020-01-05T08:52:38.000Z</time>
      </trkpt>
      <trkpt lat="42.76516" lon="1.58178">
        <ele>1217</ele>
        <time>2020-01-05T08:52:40.000Z</time>
      </trkpt>
      <trkpt lat="42.76516" lon="1.58179">
        <ele>1218</ele>
        <time>2020-01-05T08:52:42.000Z</time>
      </trkpt>
      <trkpt lat="42.76517" lon="1.58179">
        <ele>1217</ele>
        <time>2020-01-05T08:52:44.000Z</time>
      </trkpt>
      <trkpt lat="42.76517" lon="1.58178">
        <ele>1217</ele>
        <time>2020-01-05T08:52:46.000Z</time>
      </trkpt>
      <trkpt lat="42.76517" lon="1.58177">
        <ele>1217</ele>
        <time>2020-01-05T08:52:48.000Z</time>
      </trkpt>
      <trkpt lat="42.76517" lon="1.58177">
        <ele>1217</ele>
        <time>2020-01-05T08:52:50.000Z</time>
      </trkpt>
      <trkpt lat="42.76517" lon="1.58177">
        <ele>1217</ele>
        <time>2020-01-05T08:52:52.000Z</time>
      </trkpt>
      <trkpt lat="42.76517" lon="1.58176">
        <ele>1217</ele>
        <time>2020-01-05T08:52:54.000Z</time>
      </trkpt>
      <trkpt lat="42.76517" lon="1.58176">
        <ele>1217</ele>
        <time>2020-01-05T08:52:56.000Z</time>
      </trkpt>
      <trkpt lat="42.76517" lon="1.58176">
        <ele>1217</ele>
        <time>2020-01-05T08:52:58.000Z</time>
      </trkpt>
      <trkpt lat="42.76515" lon="1.58176">
        <ele>1217</ele>
        <time>2020-01-05T08:53:00.000Z</time>
      </trkpt>
      <trkpt lat="42.76515" lon="1.58177">
        <ele>1217</ele>
        <time>2020-01-05T08:53:02.000Z</time>
      </trkpt>
      <trkpt lat="42.76514" lon="1.58178">
        <ele>1217</ele>
        <time>2020-01-05T08:53:04.000Z</time>
      </trkpt>
      <trkpt lat="42.76515" lon="1.5818">
        <ele>1218</ele>
        <time>2020-01-05T08:53:06.000Z</time>
      </trkpt>
      <trkpt lat="42.76516" lon="1.58181">
        <ele>1218</ele>
        <time>2020-01-05T08:53:08.000Z</time>
      </trkpt>
      <trkpt lat="42.76517" lon="1.58181">
        <ele>1218</ele>
        <time>2020-01-05T08:53:10.000Z</time>
      </trkpt>
      <trkpt lat="42.76518" lon="1.58181">
        <ele>1218</ele>
        <time>2020-01-05T08:53:12.000Z</time>
      </trkpt>
      <trkpt lat="42.76519" lon="1.5818">
        <ele>1218</ele>
        <time>2020-01-05T08:53:14.000Z</time>
      </trkpt>
      <trkpt lat="42.7652" lon="1.5818">
        <ele>1218</ele>
        <time>2020-01-05T08:53:16.000Z</time>
      </trkpt>
      <trkpt lat="42.7652" lon="1.5818">
        <ele>1218</ele>
        <time>2020-01-05T08:53:18.000Z</time>
      </trkpt>
      <trkpt lat="42.7652" lon="1.5818">
        <ele>1218</ele>
        <time>2020-01-05T08:53:20.000Z</time>
      </trkpt>
      <trkpt lat="42.7652" lon="1.5818">
        <ele>1218</ele>
        <time>2020-01-05T08:53:22.000Z</time>
      </trkpt>
      <trkpt lat="42.76519" lon="1.5818">
        <ele>1218</ele>
        <time>2020-01-05T08:53:24.000Z</time>
      </trkpt>
      <trkpt lat="42.7652" lon="1.58181">
        <ele>1218</ele>
        <time>2020-01-05T08:53:26.000Z</time>
      </trkpt>
      <trkpt lat="42.7652" lon="1.58181">
        <ele>1218</ele>
        <time>2020-01-05T08:53:28.000Z</time>
      </trkpt>
      <trkpt lat="42.7652" lon="1.58182">
        <ele>1219</ele>
        <time>2020-01-05T08:53:30.000Z</time>
      </trkpt>
      <trkpt lat="42.76521" lon="1.58184">
        <ele>1219</ele>
        <time>2020-01-05T08:53:32.000Z</time>
      </trkpt>
      <trkpt lat="42.76522" lon="1.58185">
        <ele>1220</ele>
        <time>2020-01-05T08:53:34.000Z</time>
      </trkpt>
      <trkpt lat="42.76521" lon="1.58186">
        <ele>1220</ele>
        <time>2020-01-05T08:53:36.000Z</time>
      </trkpt>
      <trkpt lat="42.76521" lon="1.58188">
        <ele>1220</ele>
        <time>2020-01-05T08:53:38.000Z</time>
      </trkpt>
      <trkpt lat="42.7652" lon="1.58189">
        <ele>1221</ele>
        <time>2020-01-05T08:53:40.000Z</time>
      </trkpt>
      <trkpt lat="42.7652" lon="1.5819">
        <ele>1221</ele>
        <time>2020-01-05T08:53:42.000Z</time>
      </trkpt>
      <trkpt lat="42.7652" lon="1.58192">
        <ele>1221</ele>
        <time>2020-01-05T08:53:44.000Z</time>
      </trkpt>
      <trkpt lat="42.7652" lon="1.58193">
        <ele>1222</ele>
        <time>2020-01-05T08:53:46.000Z</time>
      </trkpt>
      <trkpt lat="42.7652" lon="1.58194">
        <ele>1222</ele>
        <time>2020-01-05T08:53:48.000Z</time>
      </trkpt>
      <trkpt lat="42.7652" lon="1.58196">
        <ele>1223</ele>
        <time>2020-01-05T08:53:50.000Z</time>
      </trkpt>
      <trkpt lat="42.7652" lon="1.58196">
        <ele>1223</ele>
        <time>2020-01-05T08:53:52.000Z</time>
      </trkpt>
      <trkpt lat="42.7652" lon="1.58197">
        <ele>1223</ele>
        <time>2020-01-05T08:53:54.000Z</time>
      </trkpt>
      <trkpt lat="42.7652" lon="1.58198">
        <ele>1223</ele>
        <time>2020-01-05T08:53:56.000Z</time>
      </trkpt>
      <trkpt lat="42.76521" lon="1.582">
        <ele>1224</ele>
        <time>2020-01-05T08:53:58.000Z</time>
      </trkpt>
      <trkpt lat="42.76521" lon="1.58201">
        <ele>1224</ele>
        <time>2020-01-05T08:54:00.000Z</time>
      </trkpt>
      <trkpt lat="42.7652" lon="1.58202">
        <ele>1224</ele>
        <time>2020-01-05T08:54:02.000Z</time>
      </trkpt>
      <trkpt lat="42.7652" lon="1.58203">
        <ele>1225</ele>
        <time>2020-01-05T08:54:04.000Z</time>
      </trkpt>
      <trkpt lat="42.7652" lon="1.58204">
        <ele>1225</ele>
        <time>2020-01-05T08:54:06.000Z</time>
      </trkpt>
      <trkpt lat="42.76519" lon="1.58205">
        <ele>1225</ele>
        <time>2020-01-05T08:54:08.000Z</time>
      </trkpt>
      <trkpt lat="42.7652" lon="1.58207">
        <ele>1226</ele>
        <time>2020-01-05T08:54:10.000Z</time>
      </trkpt>
      <trkpt lat="42.7652" lon="1.58208">
        <ele>1226</ele>
        <time>2020-01-05T08:54:12.000Z</time>
      </trkpt>
      <trkpt lat="42.7652" lon="1.5821">
        <ele>1227</ele>
        <time>2020-01-05T08:54:14.000Z</time>
      </trkpt>
      <trkpt lat="42.7652" lon="1.58211">
        <ele>1227</ele>
        <time>2020-01-05T08:54:16.000Z</time>
      </trkpt>
      <trkpt lat="42.7652" lon="1.58212">
        <ele>1227</ele>
        <time>2020-01-05T08:54:18.000Z</time>
      </trkpt>
      <trkpt lat="42.76519" lon="1.58213">
        <ele>1228</ele>
        <time>2020-01-05T08:54:20.000Z</time>
      </trkpt>
      <trkpt lat="42.76519" lon="1.58215">
        <ele>1228</ele>
        <time>2020-01-05T08:54:22.000Z</time>
      </trkpt>
      <trkpt lat="42.76519" lon="1.58216">
        <ele>1228</ele>
        <time>2020-01-05T08:54:24.000Z</time>
      </trkpt>
      <trkpt lat="42.76519" lon="1.58217">
        <ele>1229</ele>
        <time>2020-01-05T08:54:26.000Z</time>
      </trkpt>
      <trkpt lat="42.76519" lon="1.58218">
        <ele>1229</ele>
        <time>2020-01-05T08:54:28.000Z</time>
      </trkpt>
      <trkpt lat="42.7652" lon="1.58219">
        <ele>1229</ele>
        <time>2020-01-05T08:54:30.000Z</time>
      </trkpt>
      <trkpt lat="42.7652" lon="1.5822">
        <ele>1230</ele>
        <time>2020-01-05T08:54:32.000Z</time>
      </trkpt>
      <trkpt lat="42.76521" lon="1.58222">
        <ele>1230</ele>
        <time>2020-01-05T08:54:34.000Z</time>
      </trkpt>
      <trkpt lat="42.76521" lon="1.58223">
        <ele>1230</ele>
        <time>2020-01-05T08:54:36.000Z</time>
      </trkpt>
      <trkpt lat="42.76521" lon="1.58225">
        <ele>1231</ele>
        <time>2020-01-05T08:54:38.000Z</time>
      </trkpt>
      <trkpt lat="42.7652" lon="1.58226">
        <ele>1231</ele>
        <time>2020-01-05T08:54:40.000Z</time>
      </trkpt>
      <trkpt lat="42.7652" lon="1.58227">
        <ele>1231</ele>
        <time>2020-01-05T08:54:42.000Z</time>
      </trkpt>
      <trkpt lat="42.76519" lon="1.58228">
        <ele>1232</ele>
        <time>2020-01-05T08:54:44.000Z</time>
      </trkpt>
      <trkpt lat="42.76519" lon="1.58229">
        <ele>1232</ele>
        <time>2020-01-05T08:54:46.000Z</time>
      </trkpt>
      <trkpt lat="42.76518" lon="1.5823">
        <ele>1232</ele>
        <time>2020-01-05T08:54:48.000Z</time>
      </trkpt>
      <trkpt lat="42.76518" lon="1.58231">
        <ele>1233</ele>
        <time>2020-01-05T08:54:50.000Z</time>
      </trkpt>
      <trkpt lat="42.76518" lon="1.58232">
        <ele>1233</ele>
        <time>2020-01-05T08:54:52.000Z</time>
      </trkpt>
      <trkpt lat="42.76518" lon="1.58233">
        <ele>1233</ele>
        <time>2020-01-05T08:54:54.000Z</time>
      </trkpt>
      <trkpt lat="42.76519" lon="1.58234">
        <ele>1234</ele>
        <time>2020-01-05T08:54:56.000Z</time>
      </trkpt>
      <trkpt lat="42.76519" lon="1.58235">
        <ele>1234</ele>
        <time>2020-01-05T08:54:58.000Z</time>
      </trkpt>
      <trkpt lat="42.76519" lon="1.58235">
        <ele>1234</ele>
        <time>2020-01-05T08:55:00.000Z</time>
      </trkpt>
      <trkpt lat="42.76519" lon="1.58236">
        <ele>1234</ele>
        <time>2020-01-05T08:55:02.000Z</time>
      </trkpt>
      <trkpt lat="42.76519" lon="1.58237">
        <ele>1234</ele>
        <time>2020-01-05T08:55:04.000Z</time>
      </trkpt>
      <trkpt lat="42.76518" lon="1.58239">
        <ele>1234</ele>
        <time>2020-01-05T08:55:06.000Z</time>
      </trkpt>
      <trkpt lat="42.76518" lon="1.5824">
        <ele>1235</ele>
        <time>2020-01-05T08:55:08.000Z</time>
      </trkpt>
      <trkpt lat="42.76518" lon="1.58242">
        <ele>1235</ele>
        <time>2020-01-05T08:55:10.000Z</time>
      </trkpt>
      <trkpt lat="42.76519" lon="1.58244">
        <ele>1235</ele>
        <time>2020-01-05T08:55:12.000Z</time>
      </trkpt>
      <trkpt lat="42.76519" lon="1.58245">
        <ele>1236</ele>
        <time>2020-01-05T08:55:14.000Z</time>
      </trkpt>
      <trkpt lat="42.76519" lon="1.58246">
        <ele>1236</ele>
        <time>2020-01-05T08:55:16.000Z</time>
      </trkpt>
      <trkpt lat="42.76519" lon="1.58247">
        <ele>1236</ele>
        <time>2020-01-05T08:55:18.000Z</time>
      </trkpt>
      <trkpt lat="42.76519" lon="1.58248">
        <ele>1236</ele>
        <time>2020-01-05T08:55:20.000Z</time>
      </trkpt>
      <trkpt lat="42.76518" lon="1.58249">
        <ele>1236</ele>
        <time>2020-01-05T08:55:22.000Z</time>
      </trkpt>
      <trkpt lat="42.76519" lon="1.5825">
        <ele>1237</ele>
        <time>2020-01-05T08:55:24.000Z</time>
      </trkpt>
      <trkpt lat="42.76518" lon="1.58251">
        <ele>1237</ele>
        <time>2020-01-05T08:55:26.000Z</time>
      </trkpt>
      <trkpt lat="42.76517" lon="1.58253">
        <ele>1237</ele>
        <time>2020-01-05T08:55:28.000Z</time>
      </trkpt>
      <trkpt lat="42.76518" lon="1.58254">
        <ele>1237</ele>
        <time>2020-01-05T08:55:30.000Z</time>
      </trkpt>
      <trkpt lat="42.76517" lon="1.58256">
        <ele>1238</ele>
        <time>2020-01-05T08:55:32.000Z</time>
      </trkpt>
      <trkpt lat="42.76516" lon="1.58257">
        <ele>1238</ele>
        <time>2020-01-05T08:55:34.000Z</time>
      </trkpt>
      <trkpt lat="42.76515" lon="1.58258">
        <ele>1238</ele>
        <time>2020-01-05T08:55:36.000Z</time>
      </trkpt>
      <trkpt lat="42.76515" lon="1.58259">
        <ele>1238</ele>
        <time>2020-01-05T08:55:38.000Z</time>
      </trkpt>
      <trkpt lat="42.76516" lon="1.5826">
        <ele>1238</ele>
        <time>2020-01-05T08:55:40.000Z</time>
      </trkpt>
      <trkpt lat="42.76516" lon="1.58261">
        <ele>1239</ele>
        <time>2020-01-05T08:55:42.000Z</time>
      </trkpt>
      <trkpt lat="42.76515" lon="1.58262">
        <ele>1239</ele>
        <time>2020-01-05T08:55:44.000Z</time>
      </trkpt>
      <trkpt lat="42.76515" lon="1.58263">
        <ele>1239</ele>
        <time>2020-01-05T08:55:46.000Z</time>
      </trkpt>
      <trkpt lat="42.76515" lon="1.58265">
        <ele>1239</ele>
        <time>2020-01-05T08:55:48.000Z</time>
      </trkpt>
      <trkpt lat="42.76516" lon="1.58267">
        <ele>1240</ele>
        <time>2020-01-05T08:55:50.000Z</time>
      </trkpt>
      <trkpt lat="42.76515" lon="1.5827">
        <ele>1240</ele>
        <time>2020-01-05T08:55:52.000Z</time>
      </trkpt>
      <trkpt lat="42.76515" lon="1.58271">
        <ele>1240</ele>
        <time>2020-01-05T08:55:54.000Z</time>
      </trkpt>
      <trkpt lat="42.76515" lon="1.58272">
        <ele>1241</ele>
        <time>2020-01-05T08:55:56.000Z</time>
      </trkpt>
      <trkpt lat="42.76515" lon="1.58273">
        <ele>1241</ele>
        <time>2020-01-05T08:55:58.000Z</time>
      </trkpt>
      <trkpt lat="42.76515" lon="1.58274">
        <ele>1241</ele>
        <time>2020-01-05T08:56:00.000Z</time>
      </trkpt>
      <trkpt lat="42.76515" lon="1.58274">
        <ele>1241</ele>
        <time>2020-01-05T08:56:02.000Z</time>
      </trkpt>
      <trkpt lat="42.76515" lon="1.58275">
        <ele>1241</ele>
        <time>2020-01-05T08:56:04.000Z</time>
      </trkpt>
      <trkpt lat="42.76515" lon="1.58277">
        <ele>1242</ele>
        <time>2020-01-05T08:56:06.000Z</time>
      </trkpt>
      <trkpt lat="42.76515" lon="1.58278">
        <ele>1242</ele>
        <time>2020-01-05T08:56:08.000Z</time>
      </trkpt>
      <trkpt lat="42.76514" lon="1.58278">
        <ele>1242</ele>
        <time>2020-01-05T08:56:10.000Z</time>
      </trkpt>
      <trkpt lat="42.76514" lon="1.5828">
        <ele>1242</ele>
        <time>2020-01-05T08:56:12.000Z</time>
      </trkpt>
      <trkpt lat="42.76514" lon="1.58282">
        <ele>1242</ele>
        <time>2020-01-05T08:56:14.000Z</time>
      </trkpt>
      <trkpt lat="42.76514" lon="1.58283">
        <ele>1243</ele>
        <time>2020-01-05T08:56:16.000Z</time>
      </trkpt>
      <trkpt lat="42.76514" lon="1.58284">
        <ele>1243</ele>
        <time>2020-01-05T08:56:18.000Z</time>
      </trkpt>
      <trkpt lat="42.76514" lon="1.58285">
        <ele>1243</ele>
        <time>2020-01-05T08:56:20.000Z</time>
      </trkpt>
      <trkpt lat="42.76514" lon="1.58287">
        <ele>1243</ele>
        <time>2020-01-05T08:56:22.000Z</time>
      </trkpt>
      <trkpt lat="42.76513" lon="1.58288">
        <ele>1244</ele>
        <time>2020-01-05T08:56:24.000Z</time>
      </trkpt>
      <trkpt lat="42.76513" lon="1.5829">
        <ele>1244</ele>
        <time>2020-01-05T08:56:26.000Z</time>
      </trkpt>
      <trkpt lat="42.76513" lon="1.58292">
        <ele>1244</ele>
        <time>2020-01-05T08:56:28.000Z</time>
      </trkpt>
      <trkpt lat="42.76512" lon="1.58295">
        <ele>1245</ele>
        <time>2020-01-05T08:56:30.000Z</time>
      </trkpt>
      <trkpt lat="42.76512" lon="1.58296">
        <ele>1245</ele>
        <time>2020-01-05T08:56:32.000Z</time>
      </trkpt>
      <trkpt lat="42.76513" lon="1.58298">
        <ele>1245</ele>
        <time>2020-01-05T08:56:34.000Z</time>
      </trkpt>
      <trkpt lat="42.76512" lon="1.58299">
        <ele>1246</ele>
        <time>2020-01-05T08:56:36.000Z</time>
      </trkpt>
      <trkpt lat="42.76511" lon="1.583">
        <ele>1246</ele>
        <time>2020-01-05T08:56:38.000Z</time>
      </trkpt>
      <trkpt lat="42.7651" lon="1.58302">
        <ele>1246</ele>
        <time>2020-01-05T08:56:40.000Z</time>
      </trkpt>
      <trkpt lat="42.76509" lon="1.58304">
        <ele>1247</ele>
        <time>2020-01-05T08:56:42.000Z</time>
      </trkpt>
      <trkpt lat="42.76508" lon="1.58305">
        <ele>1247</ele>
        <time>2020-01-05T08:56:44.000Z</time>
      </trkpt>
      <trkpt lat="42.76508" lon="1.58307">
        <ele>1247</ele>
        <time>2020-01-05T08:56:46.000Z</time>
      </trkpt>
      <trkpt lat="42.76507" lon="1.58308">
        <ele>1247</ele>
        <time>2020-01-05T08:56:48.000Z</time>
      </trkpt>
      <trkpt lat="42.76508" lon="1.5831">
        <ele>1248</ele>
        <time>2020-01-05T08:56:50.000Z</time>
      </trkpt>
      <trkpt lat="42.76508" lon="1.58313">
        <ele>1248</ele>
        <time>2020-01-05T08:56:52.000Z</time>
      </trkpt>
      <trkpt lat="42.76508" lon="1.58314">
        <ele>1248</ele>
        <time>2020-01-05T08:56:54.000Z</time>
      </trkpt>
      <trkpt lat="42.76508" lon="1.58316">
        <ele>1249</ele>
        <time>2020-01-05T08:56:56.000Z</time>
      </trkpt>
      <trkpt lat="42.76508" lon="1.58317">
        <ele>1249</ele>
        <time>2020-01-05T08:56:58.000Z</time>
      </trkpt>
      <trkpt lat="42.76508" lon="1.58318">
        <ele>1249</ele>
        <time>2020-01-05T08:57:00.000Z</time>
      </trkpt>
      <trkpt lat="42.76508" lon="1.58319">
        <ele>1249</ele>
        <time>2020-01-05T08:57:02.000Z</time>
      </trkpt>
      <trkpt lat="42.76508" lon="1.58321">
        <ele>1250</ele>
        <time>2020-01-05T08:57:04.000Z</time>
      </trkpt>
      <trkpt lat="42.76508" lon="1.58323">
        <ele>1250</ele>
        <time>2020-01-05T08:57:06.000Z</time>
      </trkpt>
      <trkpt lat="42.76508" lon="1.58324">
        <ele>1250</ele>
        <time>2020-01-05T08:57:08.000Z</time>
      </trkpt>
      <trkpt lat="42.76508" lon="1.58326">
        <ele>1251</ele>
        <time>2020-01-05T08:57:10.000Z</time>
      </trkpt>
      <trkpt lat="42.76507" lon="1.58327">
        <ele>1251</ele>
        <time>2020-01-05T08:57:12.000Z</time>
      </trkpt>
      <trkpt lat="42.76507" lon="1.58329">
        <ele>1251</ele>
        <time>2020-01-05T08:57:14.000Z</time>
      </trkpt>
      <trkpt lat="42.76506" lon="1.58331">
        <ele>1251</ele>
        <time>2020-01-05T08:57:16.000Z</time>
      </trkpt>
      <trkpt lat="42.76506" lon="1.58332">
        <ele>1252</ele>
        <time>2020-01-05T08:57:18.000Z</time>
      </trkpt>
      <trkpt lat="42.76506" lon="1.58333">
        <ele>1252</ele>
        <time>2020-01-05T08:57:20.000Z</time>
      </trkpt>
      <trkpt lat="42.76506" lon="1.58335">
        <ele>1252</ele>
        <time>2020-01-05T08:57:22.000Z</time>
      </trkpt>
      <trkpt lat="42.76507" lon="1.58335">
        <ele>1252</ele>
        <time>2020-01-05T08:57:24.000Z</time>
      </trkpt>
      <trkpt lat="42.76507" lon="1.58337">
        <ele>1253</ele>
        <time>2020-01-05T08:57:26.000Z</time>
      </trkpt>
      <trkpt lat="42.76507" lon="1.58338">
        <ele>1253</ele>
        <time>2020-01-05T08:57:28.000Z</time>
      </trkpt>
      <trkpt lat="42.76505" lon="1.58339">
        <ele>1253</ele>
        <time>2020-01-05T08:57:30.000Z</time>
      </trkpt>
      <trkpt lat="42.76505" lon="1.5834">
        <ele>1253</ele>
        <time>2020-01-05T08:57:32.000Z</time>
      </trkpt>
      <trkpt lat="42.76504" lon="1.58341">
        <ele>1253</ele>
        <time>2020-01-05T08:57:34.000Z</time>
      </trkpt>
      <trkpt lat="42.76504" lon="1.58343">
        <ele>1253</ele>
        <time>2020-01-05T08:57:36.000Z</time>
      </trkpt>
      <trkpt lat="42.76504" lon="1.58344">
        <ele>1254</ele>
        <time>2020-01-05T08:57:38.000Z</time>
      </trkpt>
      <trkpt lat="42.76504" lon="1.58346">
        <ele>1254</ele>
        <time>2020-01-05T08:57:40.000Z</time>
      </trkpt>
      <trkpt lat="42.76503" lon="1.58348">
        <ele>1254</ele>
        <time>2020-01-05T08:57:42.000Z</time>
      </trkpt>
      <trkpt lat="42.76503" lon="1.58349">
        <ele>1254</ele>
        <time>2020-01-05T08:57:44.000Z</time>
      </trkpt>
      <trkpt lat="42.76503" lon="1.58351">
        <ele>1255</ele>
        <time>2020-01-05T08:57:46.000Z</time>
      </trkpt>
      <trkpt lat="42.76502" lon="1.58352">
        <ele>1255</ele>
        <time>2020-01-05T08:57:48.000Z</time>
      </trkpt>
      <trkpt lat="42.76502" lon="1.58354">
        <ele>1255</ele>
        <time>2020-01-05T08:57:50.000Z</time>
      </trkpt>
      <trkpt lat="42.76502" lon="1.58356">
        <ele>1255</ele>
        <time>2020-01-05T08:57:52.000Z</time>
      </trkpt>
      <trkpt lat="42.76502" lon="1.58357">
        <ele>1256</ele>
        <time>2020-01-05T08:57:54.000Z</time>
      </trkpt>
      <trkpt lat="42.76502" lon="1.58358">
        <ele>1256</ele>
        <time>2020-01-05T08:57:56.000Z</time>
      </trkpt>
      <trkpt lat="42.76501" lon="1.58359">
        <ele>1256</ele>
        <time>2020-01-05T08:57:58.000Z</time>
      </trkpt>
      <trkpt lat="42.765" lon="1.58361">
        <ele>1256</ele>
        <time>2020-01-05T08:58:00.000Z</time>
      </trkpt>
      <trkpt lat="42.76499" lon="1.58362">
        <ele>1256</ele>
        <time>2020-01-05T08:58:02.000Z</time>
      </trkpt>
      <trkpt lat="42.76499" lon="1.58364">
        <ele>1256</ele>
        <time>2020-01-05T08:58:04.000Z</time>
      </trkpt>
      <trkpt lat="42.76499" lon="1.58365">
        <ele>1257</ele>
        <time>2020-01-05T08:58:06.000Z</time>
      </trkpt>
      <trkpt lat="42.76499" lon="1.58367">
        <ele>1257</ele>
        <time>2020-01-05T08:58:08.000Z</time>
      </trkpt>
      <trkpt lat="42.76498" lon="1.58368">
        <ele>1257</ele>
        <time>2020-01-05T08:58:10.000Z</time>
      </trkpt>
      <trkpt lat="42.76498" lon="1.5837">
        <ele>1257</ele>
        <time>2020-01-05T08:58:12.000Z</time>
      </trkpt>
      <trkpt lat="42.76498" lon="1.58372">
        <ele>1258</ele>
        <time>2020-01-05T08:58:14.000Z</time>
      </trkpt>
      <trkpt lat="42.76497" lon="1.58373">
        <ele>1258</ele>
        <time>2020-01-05T08:58:16.000Z</time>
      </trkpt>
      <trkpt lat="42.76497" lon="1.58374">
        <ele>1258</ele>
        <time>2020-01-05T08:58:18.000Z</time>
      </trkpt>
      <trkpt lat="42.76497" lon="1.58375">
        <ele>1258</ele>
        <time>2020-01-05T08:58:20.000Z</time>
      </trkpt>
      <trkpt lat="42.76497" lon="1.58376">
        <ele>1258</ele>
        <time>2020-01-05T08:58:22.000Z</time>
      </trkpt>
      <trkpt lat="42.76497" lon="1.58376">
        <ele>1258</ele>
        <time>2020-01-05T08:58:24.000Z</time>
      </trkpt>
      <trkpt lat="42.76495" lon="1.58377">
        <ele>1258</ele>
        <time>2020-01-05T08:58:26.000Z</time>
      </trkpt>
      <trkpt lat="42.76495" lon="1.58379">
        <ele>1258</ele>
        <time>2020-01-05T08:58:28.000Z</time>
      </trkpt>
      <trkpt lat="42.76495" lon="1.58379">
        <ele>1259</ele>
        <time>2020-01-05T08:58:30.000Z</time>
      </trkpt>
      <trkpt lat="42.76495" lon="1.58381">
        <ele>1259</ele>
        <time>2020-01-05T08:58:32.000Z</time>
      </trkpt>
      <trkpt lat="42.76494" lon="1.58382">
        <ele>1259</ele>
        <time>2020-01-05T08:58:34.000Z</time>
      </trkpt>
      <trkpt lat="42.76493" lon="1.58383">
        <ele>1259</ele>
        <time>2020-01-05T08:58:36.000Z</time>
      </trkpt>
      <trkpt lat="42.76492" lon="1.58384">
        <ele>1259</ele>
        <time>2020-01-05T08:58:38.000Z</time>
      </trkpt>
      <trkpt lat="42.76491" lon="1.58385">
        <ele>1259</ele>
        <time>2020-01-05T08:58:40.000Z</time>
      </trkpt>
      <trkpt lat="42.76491" lon="1.58387">
        <ele>1259</ele>
        <time>2020-01-05T08:58:42.000Z</time>
      </trkpt>
      <trkpt lat="42.76491" lon="1.58388">
        <ele>1260</ele>
        <time>2020-01-05T08:58:44.000Z</time>
      </trkpt>
      <trkpt lat="42.7649" lon="1.5839">
        <ele>1260</ele>
        <time>2020-01-05T08:58:46.000Z</time>
      </trkpt>
      <trkpt lat="42.76489" lon="1.58391">
        <ele>1260</ele>
        <time>2020-01-05T08:58:48.000Z</time>
      </trkpt>
      <trkpt lat="42.76488" lon="1.58393">
        <ele>1260</ele>
        <time>2020-01-05T08:58:50.000Z</time>
      </trkpt>
      <trkpt lat="42.76488" lon="1.58395">
        <ele>1261</ele>
        <time>2020-01-05T08:58:52.000Z</time>
      </trkpt>
      <trkpt lat="42.76487" lon="1.58397">
        <ele>1261</ele>
        <time>2020-01-05T08:58:54.000Z</time>
      </trkpt>
      <trkpt lat="42.76487" lon="1.584">
        <ele>1262</ele>
        <time>2020-01-05T08:58:56.000Z</time>
      </trkpt>
      <trkpt lat="42.76486" lon="1.58401">
        <ele>1262</ele>
        <time>2020-01-05T08:58:58.000Z</time>
      </trkpt>
      <trkpt lat="42.76485" lon="1.58403">
        <ele>1262</ele>
        <time>2020-01-05T08:59:00.000Z</time>
      </trkpt>
      <trkpt lat="42.76485" lon="1.58404">
        <ele>1262</ele>
        <time>2020-01-05T08:59:02.000Z</time>
      </trkpt>
      <trkpt lat="42.76485" lon="1.58405">
        <ele>1263</ele>
        <time>2020-01-05T08:59:04.000Z</time>
      </trkpt>
      <trkpt lat="42.76485" lon="1.58407">
        <ele>1263</ele>
        <time>2020-01-05T08:59:06.000Z</time>
      </trkpt>
      <trkpt lat="42.76485" lon="1.58408">
        <ele>1263</ele>
        <time>2020-01-05T08:59:08.000Z</time>
      </trkpt>
      <trkpt lat="42.76484" lon="1.5841">
        <ele>1264</ele>
        <time>2020-01-05T08:59:10.000Z</time>
      </trkpt>
      <trkpt lat="42.76484" lon="1.58411">
        <ele>1264</ele>
        <time>2020-01-05T08:59:12.000Z</time>
      </trkpt>
      <trkpt lat="42.76483" lon="1.58411">
        <ele>1264</ele>
        <time>2020-01-05T08:59:14.000Z</time>
      </trkpt>
      <trkpt lat="42.76482" lon="1.58412">
        <ele>1264</ele>
        <time>2020-01-05T08:59:16.000Z</time>
      </trkpt>
      <trkpt lat="42.76482" lon="1.58413">
        <ele>1264</ele>
        <time>2020-01-05T08:59:18.000Z</time>
      </trkpt>
      <trkpt lat="42.76482" lon="1.58414">
        <ele>1264</ele>
        <time>2020-01-05T08:59:20.000Z</time>
      </trkpt>
      <trkpt lat="42.76482" lon="1.58415">
        <ele>1264</ele>
        <time>2020-01-05T08:59:22.000Z</time>
      </trkpt>
      <trkpt lat="42.76481" lon="1.58417">
        <ele>1265</ele>
        <time>2020-01-05T08:59:24.000Z</time>
      </trkpt>
      <trkpt lat="42.76481" lon="1.58419">
        <ele>1265</ele>
        <time>2020-01-05T08:59:26.000Z</time>
      </trkpt>
      <trkpt lat="42.76482" lon="1.58421">
        <ele>1266</ele>
        <time>2020-01-05T08:59:28.000Z</time>
      </trkpt>
      <trkpt lat="42.76482" lon="1.58423">
        <ele>1266</ele>
        <time>2020-01-05T08:59:30.000Z</time>
      </trkpt>
      <trkpt lat="42.76481" lon="1.58425">
        <ele>1266</ele>
        <time>2020-01-05T08:59:32.000Z</time>
      </trkpt>
      <trkpt lat="42.7648" lon="1.58427">
        <ele>1266</ele>
        <time>2020-01-05T08:59:34.000Z</time>
      </trkpt>
      <trkpt lat="42.76479" lon="1.58428">
        <ele>1267</ele>
        <time>2020-01-05T08:59:36.000Z</time>
      </trkpt>
      <trkpt lat="42.76477" lon="1.58429">
        <ele>1267</ele>
        <time>2020-01-05T08:59:38.000Z</time>
      </trkpt>
      <trkpt lat="42.76476" lon="1.5843">
        <ele>1267</ele>
        <time>2020-01-05T08:59:40.000Z</time>
      </trkpt>
      <trkpt lat="42.76474" lon="1.58432">
        <ele>1267</ele>
        <time>2020-01-05T08:59:42.000Z</time>
      </trkpt>
      <trkpt lat="42.76474" lon="1.58433">
        <ele>1267</ele>
        <time>2020-01-05T08:59:44.000Z</time>
      </trkpt>
      <trkpt lat="42.76473" lon="1.58434">
        <ele>1267</ele>
        <time>2020-01-05T08:59:46.000Z</time>
      </trkpt>
      <trkpt lat="42.76473" lon="1.58437">
        <ele>1268</ele>
        <time>2020-01-05T08:59:48.000Z</time>
      </trkpt>
      <trkpt lat="42.76472" lon="1.58439">
        <ele>1268</ele>
        <time>2020-01-05T08:59:50.000Z</time>
      </trkpt>
      <trkpt lat="42.76472" lon="1.58441">
        <ele>1269</ele>
        <time>2020-01-05T08:59:52.000Z</time>
      </trkpt>
      <trkpt lat="42.76472" lon="1.58443">
        <ele>1269</ele>
        <time>2020-01-05T08:59:54.000Z</time>
      </trkpt>
      <trkpt lat="42.76471" lon="1.58445">
        <ele>1269</ele>
        <time>2020-01-05T08:59:56.000Z</time>
      </trkpt>
      <trkpt lat="42.7647" lon="1.58446">
        <ele>1270</ele>
        <time>2020-01-05T08:59:58.000Z</time>
      </trkpt>
      <trkpt lat="42.7647" lon="1.58448">
        <ele>1270</ele>
        <time>2020-01-05T09:00:00.000Z</time>
      </trkpt>
      <trkpt lat="42.76469" lon="1.5845">
        <ele>1270</ele>
        <time>2020-01-05T09:00:02.000Z</time>
      </trkpt>
      <trkpt lat="42.76468" lon="1.58451">
        <ele>1270</ele>
        <time>2020-01-05T09:00:04.000Z</time>
      </trkpt>
      <trkpt lat="42.76468" lon="1.58453">
        <ele>1271</ele>
        <time>2020-01-05T09:00:06.000Z</time>
      </trkpt>
      <trkpt lat="42.76467" lon="1.58454">
        <ele>1271</ele>
        <time>2020-01-05T09:00:08.000Z</time>
      </trkpt>
      <trkpt lat="42.76465" lon="1.58455">
        <ele>1271</ele>
        <time>2020-01-05T09:00:10.000Z</time>
      </trkpt>
      <trkpt lat="42.76464" lon="1.58455">
        <ele>1271</ele>
        <time>2020-01-05T09:00:12.000Z</time>
      </trkpt>
      <trkpt lat="42.76464" lon="1.58456">
        <ele>1271</ele>
        <time>2020-01-05T09:00:14.000Z</time>
      </trkpt>
      <trkpt lat="42.76464" lon="1.58457">
        <ele>1271</ele>
        <time>2020-01-05T09:00:16.000Z</time>
      </trkpt>
      <trkpt lat="42.76463" lon="1.58458">
        <ele>1271</ele>
        <time>2020-01-05T09:00:18.000Z</time>
      </trkpt>
      <trkpt lat="42.76462" lon="1.58458">
        <ele>1272</ele>
        <time>2020-01-05T09:00:20.000Z</time>
      </trkpt>
      <trkpt lat="42.76461" lon="1.5846">
        <ele>1272</ele>
        <time>2020-01-05T09:00:22.000Z</time>
      </trkpt>
      <trkpt lat="42.7646" lon="1.58461">
        <ele>1272</ele>
        <time>2020-01-05T09:00:24.000Z</time>
      </trkpt>
      <trkpt lat="42.76459" lon="1.58463">
        <ele>1272</ele>
        <time>2020-01-05T09:00:26.000Z</time>
      </trkpt>
      <trkpt lat="42.76458" lon="1.58466">
        <ele>1273</ele>
        <time>2020-01-05T09:00:28.000Z</time>
      </trkpt>
      <trkpt lat="42.76458" lon="1.58468">
        <ele>1273</ele>
        <time>2020-01-05T09:00:30.000Z</time>
      </trkpt>
      <trkpt lat="42.76458" lon="1.5847">
        <ele>1274</ele>
        <time>2020-01-05T09:00:32.000Z</time>
      </trkpt>
      <trkpt lat="42.76456" lon="1.58471">
        <ele>1274</ele>
        <time>2020-01-05T09:00:34.000Z</time>
      </trkpt>
      <trkpt lat="42.76456" lon="1.58473">
        <ele>1274</ele>
        <time>2020-01-05T09:00:36.000Z</time>
      </trkpt>
      <trkpt lat="42.76456" lon="1.58476">
        <ele>1275</ele>
        <time>2020-01-05T09:00:38.000Z</time>
      </trkpt>
      <trkpt lat="42.76456" lon="1.58479">
        <ele>1276</ele>
        <time>2020-01-05T09:00:40.000Z</time>
      </trkpt>
      <trkpt lat="42.76457" lon="1.58482">
        <ele>1277</ele>
        <time>2020-01-05T09:00:42.000Z</time>
      </trkpt>
      <trkpt lat="42.76457" lon="1.58484">
        <ele>1277</ele>
        <time>2020-01-05T09:00:44.000Z</time>
      </trkpt>
      <trkpt lat="42.76456" lon="1.58487">
        <ele>1278</ele>
        <time>2020-01-05T09:00:46.000Z</time>
      </trkpt>
      <trkpt lat="42.76455" lon="1.58487">
        <ele>1278</ele>
        <time>2020-01-05T09:00:48.000Z</time>
      </trkpt>
      <trkpt lat="42.76456" lon="1.5849">
        <ele>1278</ele>
        <time>2020-01-05T09:00:50.000Z</time>
      </trkpt>
      <trkpt lat="42.76455" lon="1.58491">
        <ele>1279</ele>
        <time>2020-01-05T09:00:52.000Z</time>
      </trkpt>
      <trkpt lat="42.76454" lon="1.58493">
        <ele>1279</ele>
        <time>2020-01-05T09:00:54.000Z</time>
      </trkpt>
      <trkpt lat="42.76453" lon="1.58495">
        <ele>1279</ele>
        <time>2020-01-05T09:00:56.000Z</time>
      </trkpt>
      <trkpt lat="42.76453" lon="1.58496">
        <ele>1279</ele>
        <time>2020-01-05T09:00:58.000Z</time>
      </trkpt>
      <trkpt lat="42.76451" lon="1.58496">
        <ele>1279</ele>
        <time>2020-01-05T09:01:00.000Z</time>
      </trkpt>
      <trkpt lat="42.76449" lon="1.58496">
        <ele>1279</ele>
        <time>2020-01-05T09:01:02.000Z</time>
      </trkpt>
      <trkpt lat="42.76447" lon="1.58496">
        <ele>1279</ele>
        <time>2020-01-05T09:01:04.000Z</time>
      </trkpt>
      <trkpt lat="42.76445" lon="1.58495">
        <ele>1279</ele>
        <time>2020-01-05T09:01:06.000Z</time>
      </trkpt>
      <trkpt lat="42.76444" lon="1.58496">
        <ele>1279</ele>
        <time>2020-01-05T09:01:08.000Z</time>
      </trkpt>
      <trkpt lat="42.76443" lon="1.58498">
        <ele>1279</ele>
        <time>2020-01-05T09:01:10.000Z</time>
      </trkpt>
      <trkpt lat="42.76442" lon="1.58499">
        <ele>1279</ele>
        <time>2020-01-05T09:01:12.000Z</time>
      </trkpt>
      <trkpt lat="42.76441" lon="1.58501">
        <ele>1279</ele>
        <time>2020-01-05T09:01:14.000Z</time>
      </trkpt>
      <trkpt lat="42.76439" lon="1.58502">
        <ele>1280</ele>
        <time>2020-01-05T09:01:16.000Z</time>
      </trkpt>
      <trkpt lat="42.76439" lon="1.58504">
        <ele>1280</ele>
        <time>2020-01-05T09:01:18.000Z</time>
      </trkpt>
      <trkpt lat="42.76438" lon="1.58505">
        <ele>1280</ele>
        <time>2020-01-05T09:01:20.000Z</time>
      </trkpt>
      <trkpt lat="42.76438" lon="1.58506">
        <ele>1281</ele>
        <time>2020-01-05T09:01:22.000Z</time>
      </trkpt>
      <trkpt lat="42.76437" lon="1.58508">
        <ele>1281</ele>
        <time>2020-01-05T09:01:24.000Z</time>
      </trkpt>
      <trkpt lat="42.76437" lon="1.5851">
        <ele>1282</ele>
        <time>2020-01-05T09:01:26.000Z</time>
      </trkpt>
      <trkpt lat="42.76436" lon="1.5851">
        <ele>1282</ele>
        <time>2020-01-05T09:01:28.000Z</time>
      </trkpt>
      <trkpt lat="42.76436" lon="1.58512">
        <ele>1282</ele>
        <time>2020-01-05T09:01:30.000Z</time>
      </trkpt>
      <trkpt lat="42.76436" lon="1.58513">
        <ele>1283</ele>
        <time>2020-01-05T09:01:32.000Z</time>
      </trkpt>
      <trkpt lat="42.76435" lon="1.58514">
        <ele>1283</ele>
        <time>2020-01-05T09:01:34.000Z</time>
      </trkpt>
      <trkpt lat="42.76435" lon="1.58516">
        <ele>1284</ele>
        <time>2020-01-05T09:01:36.000Z</time>
      </trkpt>
      <trkpt lat="42.76433" lon="1.58517">
        <ele>1284</ele>
        <time>2020-01-05T09:01:38.000Z</time>
      </trkpt>
      <trkpt lat="42.76432" lon="1.58518">
        <ele>1284</ele>
        <time>2020-01-05T09:01:40.000Z</time>
      </trkpt>
      <trkpt lat="42.76431" lon="1.5852">
        <ele>1284</ele>
        <time>2020-01-05T09:01:42.000Z</time>
      </trkpt>
      <trkpt lat="42.76429" lon="1.58521">
        <ele>1285</ele>
        <time>2020-01-05T09:01:44.000Z</time>
      </trkpt>
      <trkpt lat="42.76428" lon="1.58522">
        <ele>1285</ele>
        <time>2020-01-05T09:01:46.000Z</time>
      </trkpt>
      <trkpt lat="42.76427" lon="1.58523">
        <ele>1285</ele>
        <time>2020-01-05T09:01:48.000Z</time>
      </trkpt>
      <trkpt lat="42.76427" lon="1.58524">
        <ele>1285</ele>
        <time>2020-01-05T09:01:50.000Z</time>
      </trkpt>
      <trkpt lat="42.76426" lon="1.58524">
        <ele>1286</ele>
        <time>2020-01-05T09:01:52.000Z</time>
      </trkpt>
      <trkpt lat="42.76425" lon="1.58525">
        <ele>1286</ele>
        <time>2020-01-05T09:01:54.000Z</time>
      </trkpt>
      <trkpt lat="42.76424" lon="1.58526">
        <ele>1286</ele>
        <time>2020-01-05T09:01:56.000Z</time>
      </trkpt>
      <trkpt lat="42.76423" lon="1.58527">
        <ele>1286</ele>
        <time>2020-01-05T09:01:58.000Z</time>
      </trkpt>
      <trkpt lat="42.76422" lon="1.58528">
        <ele>1287</ele>
        <time>2020-01-05T09:02:00.000Z</time>
      </trkpt>
      <trkpt lat="42.76422" lon="1.58529">
        <ele>1287</ele>
        <time>2020-01-05T09:02:02.000Z</time>
      </trkpt>
      <trkpt lat="42.76422" lon="1.5853">
        <ele>1287</ele>
        <time>2020-01-05T09:02:04.000Z</time>
      </trkpt>
      <trkpt lat="42.76421" lon="1.58531">
        <ele>1287</ele>
        <time>2020-01-05T09:02:06.000Z</time>
      </trkpt>
      <trkpt lat="42.7642" lon="1.58532">
        <ele>1287</ele>
        <time>2020-01-05T09:02:08.000Z</time>
      </trkpt>
      <trkpt lat="42.76419" lon="1.58533">
        <ele>1288</ele>
        <time>2020-01-05T09:02:10.000Z</time>
      </trkpt>
      <trkpt lat="42.76418" lon="1.58534">
        <ele>1288</ele>
        <time>2020-01-05T09:02:12.000Z</time>
      </trkpt>
      <trkpt lat="42.76416" lon="1.58535">
        <ele>1288</ele>
        <time>2020-01-05T09:02:14.000Z</time>
      </trkpt>
      <trkpt lat="42.76414" lon="1.58535">
        <ele>1288</ele>
        <time>2020-01-05T09:02:16.000Z</time>
      </trkpt>
      <trkpt lat="42.76413" lon="1.58536">
        <ele>1289</ele>
        <time>2020-01-05T09:02:18.000Z</time>
      </trkpt>
      <trkpt lat="42.76411" lon="1.58537">
        <ele>1289</ele>
        <time>2020-01-05T09:02:20.000Z</time>
      </trkpt>
      <trkpt lat="42.7641" lon="1.58538">
        <ele>1289</ele>
        <time>2020-01-05T09:02:22.000Z</time>
      </trkpt>
      <trkpt lat="42.76409" lon="1.58539">
        <ele>1289</ele>
        <time>2020-01-05T09:02:24.000Z</time>
      </trkpt>
      <trkpt lat="42.76409" lon="1.58539">
        <ele>1289</ele>
        <time>2020-01-05T09:02:26.000Z</time>
      </trkpt>
      <trkpt lat="42.76408" lon="1.5854">
        <ele>1290</ele>
        <time>2020-01-05T09:02:28.000Z</time>
      </trkpt>
      <trkpt lat="42.76408" lon="1.5854">
        <ele>1290</ele>
        <time>2020-01-05T09:02:30.000Z</time>
      </trkpt>
      <trkpt lat="42.76407" lon="1.58541">
        <ele>1290</ele>
        <time>2020-01-05T09:02:32.000Z</time>
      </trkpt>
      <trkpt lat="42.76407" lon="1.58542">
        <ele>1290</ele>
        <time>2020-01-05T09:02:34.000Z</time>
      </trkpt>
      <trkpt lat="42.76406" lon="1.58543">
        <ele>1290</ele>
        <time>2020-01-05T09:02:36.000Z</time>
      </trkpt>
      <trkpt lat="42.76405" lon="1.58543">
        <ele>1290</ele>
        <time>2020-01-05T09:02:38.000Z</time>
      </trkpt>
      <trkpt lat="42.76404" lon="1.58544">
        <ele>1291</ele>
        <time>2020-01-05T09:02:40.000Z</time>
      </trkpt>
      <trkpt lat="42.76404" lon="1.58544">
        <ele>1291</ele>
        <time>2020-01-05T09:02:42.000Z</time>
      </trkpt>
      <trkpt lat="42.76403" lon="1.58545">
        <ele>1291</ele>
        <time>2020-01-05T09:02:44.000Z</time>
      </trkpt>
      <trkpt lat="42.76403" lon="1.58546">
        <ele>1291</ele>
        <time>2020-01-05T09:02:46.000Z</time>
      </trkpt>
      <trkpt lat="42.76401" lon="1.58547">
        <ele>1291</ele>
        <time>2020-01-05T09:02:48.000Z</time>
      </trkpt>
      <trkpt lat="42.764" lon="1.58548">
        <ele>1292</ele>
        <time>2020-01-05T09:02:50.000Z</time>
      </trkpt>
      <trkpt lat="42.76399" lon="1.58549">
        <ele>1292</ele>
        <time>2020-01-05T09:02:52.000Z</time>
      </trkpt>
      <trkpt lat="42.76397" lon="1.5855">
        <ele>1293</ele>
        <time>2020-01-05T09:02:54.000Z</time>
      </trkpt>
      <trkpt lat="42.76396" lon="1.58551">
        <ele>1293</ele>
        <time>2020-01-05T09:02:56.000Z</time>
      </trkpt>
      <trkpt lat="42.76394" lon="1.58553">
        <ele>1294</ele>
        <time>2020-01-05T09:02:58.000Z</time>
      </trkpt>
      <trkpt lat="42.76393" lon="1.58554">
        <ele>1295</ele>
        <time>2020-01-05T09:03:00.000Z</time>
      </trkpt>
      <trkpt lat="42.76392" lon="1.58555">
        <ele>1296</ele>
        <time>2020-01-05T09:03:02.000Z</time>
      </trkpt>
      <trkpt lat="42.76391" lon="1.58556">
        <ele>1296</ele>
        <time>2020-01-05T09:03:04.000Z</time>
      </trkpt>
      <trkpt lat="42.7639" lon="1.58557">
        <ele>1297</ele>
        <time>2020-01-05T09:03:06.000Z</time>
      </trkpt>
      <trkpt lat="42.76389" lon="1.58558">
        <ele>1297</ele>
        <time>2020-01-05T09:03:08.000Z</time>
      </trkpt>
      <trkpt lat="42.76387" lon="1.58559">
        <ele>1298</ele>
        <time>2020-01-05T09:03:10.000Z</time>
      </trkpt>
      <trkpt lat="42.76386" lon="1.58561">
        <ele>1298</ele>
        <time>2020-01-05T09:03:12.000Z</time>
      </trkpt>
      <trkpt lat="42.76385" lon="1.58562">
        <ele>1299</ele>
        <time>2020-01-05T09:03:14.000Z</time>
      </trkpt>
      <trkpt lat="42.76384" lon="1.58563">
        <ele>1299</ele>
        <time>2020-01-05T09:03:16.000Z</time>
      </trkpt>
      <trkpt lat="42.76383" lon="1.58564">
        <ele>1300</ele>
        <time>2020-01-05T09:03:18.000Z</time>
      </trkpt>
      <trkpt lat="42.76382" lon="1.58565">
        <ele>1300</ele>
        <time>2020-01-05T09:03:20.000Z</time>
      </trkpt>
      <trkpt lat="42.76381" lon="1.58565">
        <ele>1301</ele>
        <time>2020-01-05T09:03:22.000Z</time>
      </trkpt>
      <trkpt lat="42.7638" lon="1.58566">
        <ele>1301</ele>
        <time>2020-01-05T09:03:24.000Z</time>
      </trkpt>
      <trkpt lat="42.76379" lon="1.58566">
        <ele>1301</ele>
        <time>2020-01-05T09:03:26.000Z</time>
      </trkpt>
      <trkpt lat="42.76378" lon="1.58567">
        <ele>1302</ele>
        <time>2020-01-05T09:03:28.000Z</time>
      </trkpt>
      <trkpt lat="42.76378" lon="1.58568">
        <ele>1302</ele>
        <time>2020-01-05T09:03:30.000Z</time>
      </trkpt>
      <trkpt lat="42.76378" lon="1.58569">
        <ele>1302</ele>
        <time>2020-01-05T09:03:32.000Z</time>
      </trkpt>
      <trkpt lat="42.76376" lon="1.58569">
        <ele>1303</ele>
        <time>2020-01-05T09:03:34.000Z</time>
      </trkpt>
      <trkpt lat="42.76376" lon="1.5857">
        <ele>1303</ele>
        <time>2020-01-05T09:03:36.000Z</time>
      </trkpt>
      <trkpt lat="42.76376" lon="1.58571">
        <ele>1303</ele>
        <time>2020-01-05T09:03:38.000Z</time>
      </trkpt>
      <trkpt lat="42.76375" lon="1.58571">
        <ele>1303</ele>
        <time>2020-01-05T09:03:40.000Z</time>
      </trkpt>
      <trkpt lat="42.76375" lon="1.58571">
        <ele>1303</ele>
        <time>2020-01-05T09:03:42.000Z</time>
      </trkpt>
      <trkpt lat="42.76374" lon="1.58571">
        <ele>1303</ele>
        <time>2020-01-05T09:03:44.000Z</time>
      </trkpt>
      <trkpt lat="42.76374" lon="1.5857">
        <ele>1303</ele>
        <time>2020-01-05T09:03:46.000Z</time>
      </trkpt>
      <trkpt lat="42.76373" lon="1.58571">
        <ele>1303</ele>
        <time>2020-01-05T09:03:48.000Z</time>
      </trkpt>
      <trkpt lat="42.76372" lon="1.58571">
        <ele>1304</ele>
        <time>2020-01-05T09:03:50.000Z</time>
      </trkpt>
      <trkpt lat="42.76371" lon="1.58571">
        <ele>1304</ele>
        <time>2020-01-05T09:03:52.000Z</time>
      </trkpt>
      <trkpt lat="42.7637" lon="1.58572">
        <ele>1304</ele>
        <time>2020-01-05T09:03:54.000Z</time>
      </trkpt>
      <trkpt lat="42.76369" lon="1.58573">
        <ele>1305</ele>
        <time>2020-01-05T09:03:56.000Z</time>
      </trkpt>
      <trkpt lat="42.76368" lon="1.58574">
        <ele>1305</ele>
        <time>2020-01-05T09:03:58.000Z</time>
      </trkpt>
      <trkpt lat="42.76367" lon="1.58574">
        <ele>1305</ele>
        <time>2020-01-05T09:04:00.000Z</time>
      </trkpt>
      <trkpt lat="42.76366" lon="1.58575">
        <ele>1306</ele>
        <time>2020-01-05T09:04:02.000Z</time>
      </trkpt>
      <trkpt lat="42.76364" lon="1.58576">
        <ele>1306</ele>
        <time>2020-01-05T09:04:04.000Z</time>
      </trkpt>
      <trkpt lat="42.76364" lon="1.58577">
        <ele>1306</ele>
        <time>2020-01-05T09:04:06.000Z</time>
      </trkpt>
      <trkpt lat="42.76363" lon="1.58578">
        <ele>1307</ele>
        <time>2020-01-05T09:04:08.000Z</time>
      </trkpt>
      <trkpt lat="42.76362" lon="1.58579">
        <ele>1307</ele>
        <time>2020-01-05T09:04:10.000Z</time>
      </trkpt>
      <trkpt lat="42.76361" lon="1.5858">
        <ele>1308</ele>
        <time>2020-01-05T09:04:12.000Z</time>
      </trkpt>
      <trkpt lat="42.7636" lon="1.5858">
        <ele>1308</ele>
        <time>2020-01-05T09:04:14.000Z</time>
      </trkpt>
      <trkpt lat="42.76359" lon="1.5858">
        <ele>1308</ele>
        <time>2020-01-05T09:04:16.000Z</time>
      </trkpt>
      <trkpt lat="42.76358" lon="1.58581">
        <ele>1308</ele>
        <time>2020-01-05T09:04:18.000Z</time>
      </trkpt>
      <trkpt lat="42.76357" lon="1.5858">
        <ele>1308</ele>
        <time>2020-01-05T09:04:20.000Z</time>
      </trkpt>
      <trkpt lat="42.76357" lon="1.5858">
        <ele>1308</ele>
        <time>2020-01-05T09:04:22.000Z</time>
      </trkpt>
      <trkpt lat="42.76357" lon="1.58581">
        <ele>1308</ele>
        <time>2020-01-05T09:04:24.000Z</time>
      </trkpt>
      <trkpt lat="42.76356" lon="1.58581">
        <ele>1308</ele>
        <time>2020-01-05T09:04:26.000Z</time>
      </trkpt>
      <trkpt lat="42.76355" lon="1.58581">
        <ele>1308</ele>
        <time>2020-01-05T09:04:28.000Z</time>
      </trkpt>
      <trkpt lat="42.76355" lon="1.58581">
        <ele>1309</ele>
        <time>2020-01-05T09:04:30.000Z</time>
      </trkpt>
      <trkpt lat="42.76353" lon="1.58581">
        <ele>1309</ele>
        <time>2020-01-05T09:04:32.000Z</time>
      </trkpt>
      <trkpt lat="42.76352" lon="1.58581">
        <ele>1309</ele>
        <time>2020-01-05T09:04:34.000Z</time>
      </trkpt>
      <trkpt lat="42.76351" lon="1.58582">
        <ele>1309</ele>
        <time>2020-01-05T09:04:36.000Z</time>
      </trkpt>
      <trkpt lat="42.76351" lon="1.58582">
        <ele>1309</ele>
        <time>2020-01-05T09:04:38.000Z</time>
      </trkpt>
      <trkpt lat="42.76349" lon="1.58582">
        <ele>1309</ele>
        <time>2020-01-05T09:04:40.000Z</time>
      </trkpt>
      <trkpt lat="42.76348" lon="1.58582">
        <ele>1310</ele>
        <time>2020-01-05T09:04:42.000Z</time>
      </trkpt>
      <trkpt lat="42.76346" lon="1.58582">
        <ele>1310</ele>
        <time>2020-01-05T09:04:44.000Z</time>
      </trkpt>
      <trkpt lat="42.76345" lon="1.58582">
        <ele>1310</ele>
        <time>2020-01-05T09:04:46.000Z</time>
      </trkpt>
      <trkpt lat="42.76344" lon="1.58581">
        <ele>1310</ele>
        <time>2020-01-05T09:04:48.000Z</time>
      </trkpt>
      <trkpt lat="42.76344" lon="1.58581">
        <ele>1310</ele>
        <time>2020-01-05T09:04:50.000Z</time>
      </trkpt>
      <trkpt lat="42.76344" lon="1.58581">
        <ele>1310</ele>
        <time>2020-01-05T09:04:52.000Z</time>
      </trkpt>
      <trkpt lat="42.76343" lon="1.58581">
        <ele>1310</ele>
        <time>2020-01-05T09:04:54.000Z</time>
      </trkpt>
      <trkpt lat="42.76342" lon="1.58581">
        <ele>1310</ele>
        <time>2020-01-05T09:04:56.000Z</time>
      </trkpt>
      <trkpt lat="42.76341" lon="1.58582">
        <ele>1311</ele>
        <time>2020-01-05T09:04:58.000Z</time>
      </trkpt>
      <trkpt lat="42.7634" lon="1.58582">
        <ele>1311</ele>
        <time>2020-01-05T09:05:00.000Z</time>
      </trkpt>
      <trkpt lat="42.76339" lon="1.58583">
        <ele>1311</ele>
        <time>2020-01-05T09:05:02.000Z</time>
      </trkpt>
      <trkpt lat="42.76338" lon="1.58583">
        <ele>1311</ele>
        <time>2020-01-05T09:05:04.000Z</time>
      </trkpt>
      <trkpt lat="42.76337" lon="1.58583">
        <ele>1312</ele>
        <time>2020-01-05T09:05:06.000Z</time>
      </trkpt>
      <trkpt lat="42.76335" lon="1.58583">
        <ele>1312</ele>
        <time>2020-01-05T09:05:08.000Z</time>
      </trkpt>
      <trkpt lat="42.76334" lon="1.58583">
        <ele>1312</ele>
        <time>2020-01-05T09:05:10.000Z</time>
      </trkpt>
      <trkpt lat="42.76333" lon="1.58583">
        <ele>1312</ele>
        <time>2020-01-05T09:05:12.000Z</time>
      </trkpt>
      <trkpt lat="42.76332" lon="1.58583">
        <ele>1313</ele>
        <time>2020-01-05T09:05:14.000Z</time>
      </trkpt>
      <trkpt lat="42.76331" lon="1.58584">
        <ele>1313</ele>
        <time>2020-01-05T09:05:16.000Z</time>
      </trkpt>
      <trkpt lat="42.7633" lon="1.58584">
        <ele>1313</ele>
        <time>2020-01-05T09:05:18.000Z</time>
      </trkpt>
      <trkpt lat="42.7633" lon="1.58584">
        <ele>1313</ele>
        <time>2020-01-05T09:05:20.000Z</time>
      </trkpt>
      <trkpt lat="42.76329" lon="1.58585">
        <ele>1314</ele>
        <time>2020-01-05T09:05:22.000Z</time>
      </trkpt>
      <trkpt lat="42.76328" lon="1.58586">
        <ele>1314</ele>
        <time>2020-01-05T09:05:24.000Z</time>
      </trkpt>
      <trkpt lat="42.76327" lon="1.58586">
        <ele>1314</ele>
        <time>2020-01-05T09:05:26.000Z</time>
      </trkpt>
      <trkpt lat="42.76326" lon="1.58587">
        <ele>1315</ele>
        <time>2020-01-05T09:05:28.000Z</time>
      </trkpt>
      <trkpt lat="42.76324" lon="1.58588">
        <ele>1315</ele>
        <time>2020-01-05T09:05:30.000Z</time>
      </trkpt>
      <trkpt lat="42.76323" lon="1.58588">
        <ele>1316</ele>
        <time>2020-01-05T09:05:32.000Z</time>
      </trkpt>
      <trkpt lat="42.76321" lon="1.58587">
        <ele>1316</ele>
        <time>2020-01-05T09:05:34.000Z</time>
      </trkpt>
      <trkpt lat="42.7632" lon="1.58587">
        <ele>1316</ele>
        <time>2020-01-05T09:05:36.000Z</time>
      </trkpt>
      <trkpt lat="42.76318" lon="1.58587">
        <ele>1316</ele>
        <time>2020-01-05T09:05:38.000Z</time>
      </trkpt>
      <trkpt lat="42.76317" lon="1.58587">
        <ele>1316</ele>
        <time>2020-01-05T09:05:40.000Z</time>
      </trkpt>
      <trkpt lat="42.76316" lon="1.58588">
        <ele>1317</ele>
        <time>2020-01-05T09:05:42.000Z</time>
      </trkpt>
      <trkpt lat="42.76315" lon="1.58589">
        <ele>1317</ele>
        <time>2020-01-05T09:05:44.000Z</time>
      </trkpt>
      <trkpt lat="42.76315" lon="1.5859">
        <ele>1318</ele>
        <time>2020-01-05T09:05:46.000Z</time>
      </trkpt>
      <trkpt lat="42.76313" lon="1.5859">
        <ele>1318</ele>
        <time>2020-01-05T09:05:48.000Z</time>
      </trkpt>
      <trkpt lat="42.76312" lon="1.58591">
        <ele>1319</ele>
        <time>2020-01-05T09:05:50.000Z</time>
      </trkpt>
      <trkpt lat="42.76311" lon="1.58592">
        <ele>1319</ele>
        <time>2020-01-05T09:05:52.000Z</time>
      </trkpt>
      <trkpt lat="42.7631" lon="1.58592">
        <ele>1319</ele>
        <time>2020-01-05T09:05:54.000Z</time>
      </trkpt>
      <trkpt lat="42.76307" lon="1.58593">
        <ele>1320</ele>
        <time>2020-01-05T09:05:56.000Z</time>
      </trkpt>
      <trkpt lat="42.76306" lon="1.58593">
        <ele>1320</ele>
        <time>2020-01-05T09:05:58.000Z</time>
      </trkpt>
      <trkpt lat="42.76305" lon="1.58594">
        <ele>1320</ele>
        <time>2020-01-05T09:06:00.000Z</time>
      </trkpt>
      <trkpt lat="42.76304" lon="1.58595">
        <ele>1321</ele>
        <time>2020-01-05T09:06:02.000Z</time>
      </trkpt>
      <trkpt lat="42.76303" lon="1.58594">
        <ele>1321</ele>
        <time>2020-01-05T09:06:04.000Z</time>
      </trkpt>
      <trkpt lat="42.76303" lon="1.58595">
        <ele>1321</ele>
        <time>2020-01-05T09:06:06.000Z</time>
      </trkpt>
      <trkpt lat="42.76303" lon="1.58596">
        <ele>1322</ele>
        <time>2020-01-05T09:06:08.000Z</time>
      </trkpt>
      <trkpt lat="42.76304" lon="1.58596">
        <ele>1322</ele>
        <time>2020-01-05T09:06:10.000Z</time>
      </trkpt>
      <trkpt lat="42.76304" lon="1.58595">
        <ele>1321</ele>
        <time>2020-01-05T09:06:12.000Z</time>
      </trkpt>
      <trkpt lat="42.76304" lon="1.58596">
        <ele>1321</ele>
        <time>2020-01-05T09:06:14.000Z</time>
      </trkpt>
      <trkpt lat="42.76305" lon="1.58597">
        <ele>1322</ele>
        <time>2020-01-05T09:06:16.000Z</time>
      </trkpt>
      <trkpt lat="42.76305" lon="1.58597">
        <ele>1322</ele>
        <time>2020-01-05T09:06:18.000Z</time>
      </trkpt>
      <trkpt lat="42.76305" lon="1.58598">
        <ele>1322</ele>
        <time>2020-01-05T09:06:20.000Z</time>
      </trkpt>
      <trkpt lat="42.76306" lon="1.58599">
        <ele>1322</ele>
        <time>2020-01-05T09:06:22.000Z</time>
      </trkpt>
      <trkpt lat="42.76306" lon="1.586">
        <ele>1323</ele>
        <time>2020-01-05T09:06:24.000Z</time>
      </trkpt>
      <trkpt lat="42.76307" lon="1.586">
        <ele>1323</ele>
        <time>2020-01-05T09:06:26.000Z</time>
      </trkpt>
      <trkpt lat="42.76307" lon="1.586">
        <ele>1323</ele>
        <time>2020-01-05T09:06:28.000Z</time>
      </trkpt>
      <trkpt lat="42.76307" lon="1.586">
        <ele>1323</ele>
        <time>2020-01-05T09:06:30.000Z</time>
      </trkpt>
      <trkpt lat="42.76307" lon="1.586">
        <ele>1323</ele>
        <time>2020-01-05T09:06:32.000Z</time>
      </trkpt>
      <trkpt lat="42.76307" lon="1.586">
        <ele>1323</ele>
        <time>2020-01-05T09:06:34.000Z</time>
      </trkpt>
      <trkpt lat="42.76308" lon="1.58601">
        <ele>1323</ele>
        <time>2020-01-05T09:06:36.000Z</time>
      </trkpt>
      <trkpt lat="42.76308" lon="1.58603">
        <ele>1323</ele>
        <time>2020-01-05T09:06:38.000Z</time>
      </trkpt>
      <trkpt lat="42.76309" lon="1.58604">
        <ele>1324</ele>
        <time>2020-01-05T09:06:40.000Z</time>
      </trkpt>
      <trkpt lat="42.7631" lon="1.58606">
        <ele>1325</ele>
        <time>2020-01-05T09:06:42.000Z</time>
      </trkpt>
      <trkpt lat="42.7631" lon="1.58607">
        <ele>1325</ele>
        <time>2020-01-05T09:06:44.000Z</time>
      </trkpt>
      <trkpt lat="42.76311" lon="1.58609">
        <ele>1325</ele>
        <time>2020-01-05T09:06:46.000Z</time>
      </trkpt>
      <trkpt lat="42.76313" lon="1.5861">
        <ele>1326</ele>
        <time>2020-01-05T09:06:48.000Z</time>
      </trkpt>
      <trkpt lat="42.76313" lon="1.58612">
        <ele>1326</ele>
        <time>2020-01-05T09:06:50.000Z</time>
      </trkpt>
      <trkpt lat="42.76313" lon="1.58612">
        <ele>1326</ele>
        <time>2020-01-05T09:06:52.000Z</time>
      </trkpt>
      <trkpt lat="42.76313" lon="1.58614">
        <ele>1327</ele>
        <time>2020-01-05T09:06:54.000Z</time>
      </trkpt>
      <trkpt lat="42.76313" lon="1.58615">
        <ele>1327</ele>
        <time>2020-01-05T09:06:56.000Z</time>
      </trkpt>
      <trkpt lat="42.76313" lon="1.58616">
        <ele>1327</ele>
        <time>2020-01-05T09:06:58.000Z</time>
      </trkpt>
      <trkpt lat="42.76313" lon="1.58616">
        <ele>1328</ele>
        <time>2020-01-05T09:07:00.000Z</time>
      </trkpt>
      <trkpt lat="42.76314" lon="1.58616">
        <ele>1328</ele>
        <time>2020-01-05T09:07:02.000Z</time>
      </trkpt>
      <trkpt lat="42.76314" lon="1.58617">
        <ele>1328</ele>
        <time>2020-01-05T09:07:04.000Z</time>
      </trkpt>
      <trkpt lat="42.76315" lon="1.58618">
        <ele>1328</ele>
        <time>2020-01-05T09:07:06.000Z</time>
      </trkpt>
      <trkpt lat="42.76316" lon="1.58619">
        <ele>1328</ele>
        <time>2020-01-05T09:07:08.000Z</time>
      </trkpt>
      <trkpt lat="42.76316" lon="1.5862">
        <ele>1329</ele>
        <time>2020-01-05T09:07:10.000Z</time>
      </trkpt>
      <trkpt lat="42.76317" lon="1.58622">
        <ele>1329</ele>
        <time>2020-01-05T09:07:12.000Z</time>
      </trkpt>
      <trkpt lat="42.76317" lon="1.58623">
        <ele>1330</ele>
        <time>2020-01-05T09:07:14.000Z</time>
      </trkpt>
      <trkpt lat="42.76318" lon="1.58624">
        <ele>1330</ele>
        <time>2020-01-05T09:07:16.000Z</time>
      </trkpt>
      <trkpt lat="42.76319" lon="1.58625">
        <ele>1330</ele>
        <time>2020-01-05T09:07:18.000Z</time>
      </trkpt>
      <trkpt lat="42.76319" lon="1.58626">
        <ele>1330</ele>
        <time>2020-01-05T09:07:20.000Z</time>
      </trkpt>
      <trkpt lat="42.7632" lon="1.58628">
        <ele>1331</ele>
        <time>2020-01-05T09:07:22.000Z</time>
      </trkpt>
      <trkpt lat="42.76321" lon="1.58629">
        <ele>1331</ele>
        <time>2020-01-05T09:07:24.000Z</time>
      </trkpt>
      <trkpt lat="42.76323" lon="1.5863">
        <ele>1331</ele>
        <time>2020-01-05T09:07:26.000Z</time>
      </trkpt>
      <trkpt lat="42.76324" lon="1.58631">
        <ele>1332</ele>
        <time>2020-01-05T09:07:28.000Z</time>
      </trkpt>
      <trkpt lat="42.76325" lon="1.58633">
        <ele>1332</ele>
        <time>2020-01-05T09:07:30.000Z</time>
      </trkpt>
      <trkpt lat="42.76326" lon="1.58634">
        <ele>1332</ele>
        <time>2020-01-05T09:07:32.000Z</time>
      </trkpt>
      <trkpt lat="42.76326" lon="1.58635">
        <ele>1333</ele>
        <time>2020-01-05T09:07:34.000Z</time>
      </trkpt>
      <trkpt lat="42.76327" lon="1.58637">
        <ele>1333</ele>
        <time>2020-01-05T09:07:36.000Z</time>
      </trkpt>
      <trkpt lat="42.76329" lon="1.58638">
        <ele>1333</ele>
        <time>2020-01-05T09:07:38.000Z</time>
      </trkpt>
      <trkpt lat="42.7633" lon="1.58639">
        <ele>1333</ele>
        <time>2020-01-05T09:07:40.000Z</time>
      </trkpt>
      <trkpt lat="42.76332" lon="1.5864">
        <ele>1334</ele>
        <time>2020-01-05T09:07:42.000Z</time>
      </trkpt>
      <trkpt lat="42.76334" lon="1.58641">
        <ele>1334</ele>
        <time>2020-01-05T09:07:44.000Z</time>
      </trkpt>
      <trkpt lat="42.76335" lon="1.58643">
        <ele>1334</ele>
        <time>2020-01-05T09:07:46.000Z</time>
      </trkpt>
      <trkpt lat="42.76336" lon="1.58644">
        <ele>1334</ele>
        <time>2020-01-05T09:07:48.000Z</time>
      </trkpt>
      <trkpt lat="42.76338" lon="1.58646">
        <ele>1335</ele>
        <time>2020-01-05T09:07:50.000Z</time>
      </trkpt>
      <trkpt lat="42.76339" lon="1.58648">
        <ele>1335</ele>
        <time>2020-01-05T09:07:52.000Z</time>
      </trkpt>
      <trkpt lat="42.7634" lon="1.58649">
        <ele>1336</ele>
        <time>2020-01-05T09:07:54.000Z</time>
      </trkpt>
      <trkpt lat="42.76341" lon="1.58651">
        <ele>1336</ele>
        <time>2020-01-05T09:07:56.000Z</time>
      </trkpt>
      <trkpt lat="42.76343" lon="1.58652">
        <ele>1336</ele>
        <time>2020-01-05T09:07:58.000Z</time>
      </trkpt>
      <trkpt lat="42.76344" lon="1.58653">
        <ele>1337</ele>
        <time>2020-01-05T09:08:00.000Z</time>
      </trkpt>
      <trkpt lat="42.76346" lon="1.58654">
        <ele>1337</ele>
        <time>2020-01-05T09:08:02.000Z</time>
      </trkpt>
      <trkpt lat="42.76348" lon="1.58655">
        <ele>1337</ele>
        <time>2020-01-05T09:08:04.000Z</time>
      </trkpt>
      <trkpt lat="42.76349" lon="1.58656">
        <ele>1337</ele>
        <time>2020-01-05T09:08:06.000Z</time>
      </trkpt>
      <trkpt lat="42.7635" lon="1.58657">
        <ele>1338</ele>
        <time>2020-01-05T09:08:08.000Z</time>
      </trkpt>
      <trkpt lat="42.76351" lon="1.58658">
        <ele>1338</ele>
        <time>2020-01-05T09:08:10.000Z</time>
      </trkpt>
      <trkpt lat="42.76351" lon="1.58659">
        <ele>1338</ele>
        <time>2020-01-05T09:08:12.000Z</time>
      </trkpt>
      <trkpt lat="42.76352" lon="1.58659">
        <ele>1338</ele>
        <time>2020-01-05T09:08:14.000Z</time>
      </trkpt>
      <trkpt lat="42.76353" lon="1.5866">
        <ele>1338</ele>
        <time>2020-01-05T09:08:16.000Z</time>
      </trkpt>
      <trkpt lat="42.76354" lon="1.58661">
        <ele>1338</ele>
        <time>2020-01-05T09:08:18.000Z</time>
      </trkpt>
      <trkpt lat="42.76354" lon="1.58662">
        <ele>1339</ele>
        <time>2020-01-05T09:08:20.000Z</time>
      </trkpt>
      <trkpt lat="42.76355" lon="1.58662">
        <ele>1339</ele>
        <time>2020-01-05T09:08:22.000Z</time>
      </trkpt>
      <trkpt lat="42.76356" lon="1.58663">
        <ele>1339</ele>
        <time>2020-01-05T09:08:24.000Z</time>
      </trkpt>
      <trkpt lat="42.76357" lon="1.58664">
        <ele>1339</ele>
        <time>2020-01-05T09:08:26.000Z</time>
      </trkpt>
      <trkpt lat="42.76358" lon="1.58664">
        <ele>1339</ele>
        <time>2020-01-05T09:08:28.000Z</time>
      </trkpt>
      <trkpt lat="42.76359" lon="1.58664">
        <ele>1339</ele>
        <time>2020-01-05T09:08:30.000Z</time>
      </trkpt>
      <trkpt lat="42.7636" lon="1.58665">
        <ele>1339</ele>
        <time>2020-01-05T09:08:32.000Z</time>
      </trkpt>
      <trkpt lat="42.76361" lon="1.58666">
        <ele>1339</ele>
        <time>2020-01-05T09:08:34.000Z</time>
      </trkpt>
      <trkpt lat="42.76362" lon="1.58667">
        <ele>1339</ele>
        <time>2020-01-05T09:08:36.000Z</time>
      </trkpt>
      <trkpt lat="42.76363" lon="1.58668">
        <ele>1340</ele>
        <time>2020-01-05T09:08:38.000Z</time>
      </trkpt>
      <trkpt lat="42.76363" lon="1.58669">
        <ele>1340</ele>
        <time>2020-01-05T09:08:40.000Z</time>
      </trkpt>
      <trkpt lat="42.76364" lon="1.5867">
        <ele>1340</ele>
        <time>2020-01-05T09:08:42.000Z</time>
      </trkpt>
      <trkpt lat="42.76366" lon="1.58671">
        <ele>1340</ele>
        <time>2020-01-05T09:08:44.000Z</time>
      </trkpt>
      <trkpt lat="42.76367" lon="1.58671">
        <ele>1340</ele>
        <time>2020-01-05T09:08:46.000Z</time>
      </trkpt>
      <trkpt lat="42.76368" lon="1.58671">
        <ele>1340</ele>
        <time>2020-01-05T09:08:48.000Z</time>
      </trkpt>
      <trkpt lat="42.76369" lon="1.58673">
        <ele>1341</ele>
        <time>2020-01-05T09:08:50.000Z</time>
      </trkpt>
      <trkpt lat="42.7637" lon="1.58673">
        <ele>1341</ele>
        <time>2020-01-05T09:08:52.000Z</time>
      </trkpt>
      <trkpt lat="42.76371" lon="1.58674">
        <ele>1341</ele>
        <time>2020-01-05T09:08:54.000Z</time>
      </trkpt>
      <trkpt lat="42.76372" lon="1.58675">
        <ele>1341</ele>
        <time>2020-01-05T09:08:56.000Z</time>
      </trkpt>
      <trkpt lat="42.76373" lon="1.58677">
        <ele>1342</ele>
        <time>2020-01-05T09:08:58.000Z</time>
      </trkpt>
      <trkpt lat="42.76374" lon="1.58678">
        <ele>1342</ele>
        <time>2020-01-05T09:09:00.000Z</time>
      </trkpt>
      <trkpt lat="42.76375" lon="1.58679">
        <ele>1342</ele>
        <time>2020-01-05T09:09:02.000Z</time>
      </trkpt>
      <trkpt lat="42.76376" lon="1.5868">
        <ele>1342</ele>
        <time>2020-01-05T09:09:04.000Z</time>
      </trkpt>
      <trkpt lat="42.76377" lon="1.58681">
        <ele>1343</ele>
        <time>2020-01-05T09:09:06.000Z</time>
      </trkpt>
      <trkpt lat="42.76379" lon="1.58682">
        <ele>1343</ele>
        <time>2020-01-05T09:09:08.000Z</time>
      </trkpt>
      <trkpt lat="42.7638" lon="1.58683">
        <ele>1343</ele>
        <time>2020-01-05T09:09:10.000Z</time>
      </trkpt>
      <trkpt lat="42.7638" lon="1.58683">
        <ele>1343</ele>
        <time>2020-01-05T09:09:12.000Z</time>
      </trkpt>
      <trkpt lat="42.76381" lon="1.58685">
        <ele>1344</ele>
        <time>2020-01-05T09:09:14.000Z</time>
      </trkpt>
      <trkpt lat="42.76381" lon="1.58685">
        <ele>1344</ele>
        <time>2020-01-05T09:09:16.000Z</time>
      </trkpt>
      <trkpt lat="42.76382" lon="1.58685">
        <ele>1343</ele>
        <time>2020-01-05T09:09:18.000Z</time>
      </trkpt>
      <trkpt lat="42.76382" lon="1.58686">
        <ele>1344</ele>
        <time>2020-01-05T09:09:20.000Z</time>
      </trkpt>
      <trkpt lat="42.76384" lon="1.58687">
        <ele>1344</ele>
        <time>2020-01-05T09:09:22.000Z</time>
      </trkpt>
      <trkpt lat="42.76385" lon="1.58688">
        <ele>1344</ele>
        <time>2020-01-05T09:09:24.000Z</time>
      </trkpt>
      <trkpt lat="42.76386" lon="1.58688">
        <ele>1344</ele>
        <time>2020-01-05T09:09:26.000Z</time>
      </trkpt>
      <trkpt lat="42.76387" lon="1.58688">
        <ele>1344</ele>
        <time>2020-01-05T09:09:28.000Z</time>
      </trkpt>
      <trkpt lat="42.76388" lon="1.58689">
        <ele>1344</ele>
        <time>2020-01-05T09:09:30.000Z</time>
      </trkpt>
      <trkpt lat="42.76389" lon="1.5869">
        <ele>1345</ele>
        <time>2020-01-05T09:09:32.000Z</time>
      </trkpt>
      <trkpt lat="42.7639" lon="1.58692">
        <ele>1345</ele>
        <time>2020-01-05T09:09:34.000Z</time>
      </trkpt>
      <trkpt lat="42.76391" lon="1.58693">
        <ele>1345</ele>
        <time>2020-01-05T09:09:36.000Z</time>
      </trkpt>
      <trkpt lat="42.76392" lon="1.58694">
        <ele>1346</ele>
        <time>2020-01-05T09:09:38.000Z</time>
      </trkpt>
      <trkpt lat="42.76393" lon="1.58695">
        <ele>1346</ele>
        <time>2020-01-05T09:09:40.000Z</time>
      </trkpt>
      <trkpt lat="42.76394" lon="1.58696">
        <ele>1346</ele>
        <time>2020-01-05T09:09:42.000Z</time>
      </trkpt>
      <trkpt lat="42.76395" lon="1.58696">
        <ele>1346</ele>
        <time>2020-01-05T09:09:44.000Z</time>
      </trkpt>
      <trkpt lat="42.76395" lon="1.58697">
        <ele>1346</ele>
        <time>2020-01-05T09:09:46.000Z</time>
      </trkpt>
      <trkpt lat="42.76396" lon="1.58698">
        <ele>1347</ele>
        <time>2020-01-05T09:09:48.000Z</time>
      </trkpt>
      <trkpt lat="42.76397" lon="1.587">
        <ele>1347</ele>
        <time>2020-01-05T09:09:50.000Z</time>
      </trkpt>
      <trkpt lat="42.76398" lon="1.58702">
        <ele>1348</ele>
        <time>2020-01-05T09:09:52.000Z</time>
      </trkpt>
      <trkpt lat="42.76399" lon="1.58704">
        <ele>1348</ele>
        <time>2020-01-05T09:09:54.000Z</time>
      </trkpt>
      <trkpt lat="42.764" lon="1.58705">
        <ele>1349</ele>
        <time>2020-01-05T09:09:56.000Z</time>
      </trkpt>
      <trkpt lat="42.764" lon="1.58705">
        <ele>1349</ele>
        <time>2020-01-05T09:09:58.000Z</time>
      </trkpt>
      <trkpt lat="42.76401" lon="1.58707">
        <ele>1349</ele>
        <time>2020-01-05T09:10:00.000Z</time>
      </trkpt>
      <trkpt lat="42.76401" lon="1.58708">
        <ele>1349</ele>
        <time>2020-01-05T09:10:02.000Z</time>
      </trkpt>
      <trkpt lat="42.76402" lon="1.58708">
        <ele>1350</ele>
        <time>2020-01-05T09:10:04.000Z</time>
      </trkpt>
      <trkpt lat="42.76403" lon="1.58708">
        <ele>1349</ele>
        <time>2020-01-05T09:10:06.000Z</time>
      </trkpt>
      <trkpt lat="42.76404" lon="1.58709">
        <ele>1349</ele>
        <time>2020-01-05T09:10:08.000Z</time>
      </trkpt>
      <trkpt lat="42.76404" lon="1.5871">
        <ele>1350</ele>
        <time>2020-01-05T09:10:10.000Z</time>
      </trkpt>
      <trkpt lat="42.76405" lon="1.58711">
        <ele>1350</ele>
        <time>2020-01-05T09:10:12.000Z</time>
      </trkpt>
      <trkpt lat="42.76406" lon="1.58712">
        <ele>1350</ele>
        <time>2020-01-05T09:10:14.000Z</time>
      </trkpt>
      <trkpt lat="42.76406" lon="1.58713">
        <ele>1351</ele>
        <time>2020-01-05T09:10:16.000Z</time>
      </trkpt>
      <trkpt lat="42.76407" lon="1.58713">
        <ele>1351</ele>
        <time>2020-01-05T09:10:18.000Z</time>
      </trkpt>
      <trkpt lat="42.76408" lon="1.58714">
        <ele>1351</ele>
        <time>2020-01-05T09:10:20.000Z</time>
      </trkpt>
      <trkpt lat="42.76409" lon="1.58715">
        <ele>1351</ele>
        <time>2020-01-05T09:10:22.000Z</time>
      </trkpt>
      <trkpt lat="42.7641" lon="1.58716">
        <ele>1352</ele>
        <time>2020-01-05T09:10:24.000Z</time>
      </trkpt>
      <trkpt lat="42.7641" lon="1.58717">
        <ele>1352</ele>
        <time>2020-01-05T09:10:26.000Z</time>
      </trkpt>
      <trkpt lat="42.76412" lon="1.58718">
        <ele>1352</ele>
        <time>2020-01-05T09:10:28.000Z</time>
      </trkpt>
      <trkpt lat="42.76413" lon="1.58719">
        <ele>1352</ele>
        <time>2020-01-05T09:10:30.000Z</time>
      </trkpt>
      <trkpt lat="42.76414" lon="1.5872">
        <ele>1352</ele>
        <time>2020-01-05T09:10:32.000Z</time>
      </trkpt>
      <trkpt lat="42.76416" lon="1.58721">
        <ele>1352</ele>
        <time>2020-01-05T09:10:34.000Z</time>
      </trkpt>
      <trkpt lat="42.76418" lon="1.58722">
        <ele>1353</ele>
        <time>2020-01-05T09:10:36.000Z</time>
      </trkpt>
      <trkpt lat="42.76419" lon="1.58724">
        <ele>1353</ele>
        <time>2020-01-05T09:10:38.000Z</time>
      </trkpt>
      <trkpt lat="42.7642" lon="1.58725">
        <ele>1353</ele>
        <time>2020-01-05T09:10:40.000Z</time>
      </trkpt>
      <trkpt lat="42.76421" lon="1.58726">
        <ele>1354</ele>
        <time>2020-01-05T09:10:42.000Z</time>
      </trkpt>
      <trkpt lat="42.76422" lon="1.58727">
        <ele>1354</ele>
        <time>2020-01-05T09:10:44.000Z</time>
      </trkpt>
      <trkpt lat="42.76422" lon="1.58728">
        <ele>1354</ele>
        <time>2020-01-05T09:10:46.000Z</time>
      </trkpt>
      <trkpt lat="42.76423" lon="1.58731">
        <ele>1355</ele>
        <time>2020-01-05T09:10:48.000Z</time>
      </trkpt>
      <trkpt lat="42.76424" lon="1.58732">
        <ele>1356</ele>
        <time>2020-01-05T09:10:50.000Z</time>
      </trkpt>
      <trkpt lat="42.76425" lon="1.58734">
        <ele>1356</ele>
        <time>2020-01-05T09:10:52.000Z</time>
      </trkpt>
      <trkpt lat="42.76425" lon="1.58735">
        <ele>1356</ele>
        <time>2020-01-05T09:10:54.000Z</time>
      </trkpt>
      <trkpt lat="42.76426" lon="1.58737">
        <ele>1357</ele>
        <time>2020-01-05T09:10:56.000Z</time>
      </trkpt>
      <trkpt lat="42.76428" lon="1.58738">
        <ele>1357</ele>
        <time>2020-01-05T09:10:58.000Z</time>
      </trkpt>
      <trkpt lat="42.76429" lon="1.58739">
        <ele>1357</ele>
        <time>2020-01-05T09:11:00.000Z</time>
      </trkpt>
      <trkpt lat="42.7643" lon="1.5874">
        <ele>1357</ele>
        <time>2020-01-05T09:11:02.000Z</time>
      </trkpt>
      <trkpt lat="42.76431" lon="1.58741">
        <ele>1357</ele>
        <time>2020-01-05T09:11:04.000Z</time>
      </trkpt>
      <trkpt lat="42.76431" lon="1.58743">
        <ele>1358</ele>
        <time>2020-01-05T09:11:06.000Z</time>
      </trkpt>
      <trkpt lat="42.76432" lon="1.58744">
        <ele>1358</ele>
        <time>2020-01-05T09:11:08.000Z</time>
      </trkpt>
      <trkpt lat="42.76433" lon="1.58744">
        <ele>1358</ele>
        <time>2020-01-05T09:11:10.000Z</time>
      </trkpt>
      <trkpt lat="42.76435" lon="1.58745">
        <ele>1358</ele>
        <time>2020-01-05T09:11:12.000Z</time>
      </trkpt>
      <trkpt lat="42.76436" lon="1.58747">
        <ele>1358</ele>
        <time>2020-01-05T09:11:14.000Z</time>
      </trkpt>
      <trkpt lat="42.76437" lon="1.58748">
        <ele>1359</ele>
        <time>2020-01-05T09:11:16.000Z</time>
      </trkpt>
      <trkpt lat="42.76438" lon="1.58749">
        <ele>1359</ele>
        <time>2020-01-05T09:11:18.000Z</time>
      </trkpt>
      <trkpt lat="42.7644" lon="1.5875">
        <ele>1359</ele>
        <time>2020-01-05T09:11:20.000Z</time>
      </trkpt>
      <trkpt lat="42.76442" lon="1.58752">
        <ele>1359</ele>
        <time>2020-01-05T09:11:22.000Z</time>
      </trkpt>
      <trkpt lat="42.76444" lon="1.58754">
        <ele>1359</ele>
        <time>2020-01-05T09:11:24.000Z</time>
      </trkpt>
      <trkpt lat="42.76445" lon="1.58756">
        <ele>1360</ele>
        <time>2020-01-05T09:11:26.000Z</time>
      </trkpt>
      <trkpt lat="42.76445" lon="1.58757">
        <ele>1360</ele>
        <time>2020-01-05T09:11:28.000Z</time>
      </trkpt>
      <trkpt lat="42.76446" lon="1.58758">
        <ele>1360</ele>
        <time>2020-01-05T09:11:30.000Z</time>
      </trkpt>
      <trkpt lat="42.76446" lon="1.58759">
        <ele>1361</ele>
        <time>2020-01-05T09:11:32.000Z</time>
      </trkpt>
      <trkpt lat="42.76447" lon="1.58761">
        <ele>1361</ele>
        <time>2020-01-05T09:11:34.000Z</time>
      </trkpt>
      <trkpt lat="42.76447" lon="1.58762">
        <ele>1362</ele>
        <time>2020-01-05T09:11:36.000Z</time>
      </trkpt>
      <trkpt lat="42.76448" lon="1.58764">
        <ele>1362</ele>
        <time>2020-01-05T09:11:38.000Z</time>
      </trkpt>
      <trkpt lat="42.7645" lon="1.58765">
        <ele>1362</ele>
        <time>2020-01-05T09:11:40.000Z</time>
      </trkpt>
      <trkpt lat="42.7645" lon="1.58766">
        <ele>1362</ele>
        <time>2020-01-05T09:11:42.000Z</time>
      </trkpt>
      <trkpt lat="42.76451" lon="1.58767">
        <ele>1363</ele>
        <time>2020-01-05T09:11:44.000Z</time>
      </trkpt>
      <trkpt lat="42.76453" lon="1.58769">
        <ele>1363</ele>
        <time>2020-01-05T09:11:46.000Z</time>
      </trkpt>
      <trkpt lat="42.76453" lon="1.5877">
        <ele>1363</ele>
        <time>2020-01-05T09:11:48.000Z</time>
      </trkpt>
      <trkpt lat="42.76454" lon="1.58771">
        <ele>1363</ele>
        <time>2020-01-05T09:11:50.000Z</time>
      </trkpt>
      <trkpt lat="42.76454" lon="1.58772">
        <ele>1364</ele>
        <time>2020-01-05T09:11:52.000Z</time>
      </trkpt>
      <trkpt lat="42.76455" lon="1.58773">
        <ele>1364</ele>
        <time>2020-01-05T09:11:54.000Z</time>
      </trkpt>
      <trkpt lat="42.76455" lon="1.58774">
        <ele>1364</ele>
        <time>2020-01-05T09:11:56.000Z</time>
      </trkpt>
      <trkpt lat="42.76455" lon="1.58775">
        <ele>1365</ele>
        <time>2020-01-05T09:11:58.000Z</time>
      </trkpt>
      <trkpt lat="42.76455" lon="1.58776">
        <ele>1365</ele>
        <time>2020-01-05T09:12:00.000Z</time>
      </trkpt>
      <trkpt lat="42.76456" lon="1.58778">
        <ele>1365</ele>
        <time>2020-01-05T09:12:02.000Z</time>
      </trkpt>
      <trkpt lat="42.76456" lon="1.58779">
        <ele>1366</ele>
        <time>2020-01-05T09:12:04.000Z</time>
      </trkpt>
      <trkpt lat="42.76457" lon="1.5878">
        <ele>1366</ele>
        <time>2020-01-05T09:12:06.000Z</time>
      </trkpt>
      <trkpt lat="42.76457" lon="1.58782">
        <ele>1367</ele>
        <time>2020-01-05T09:12:08.000Z</time>
      </trkpt>
      <trkpt lat="42.76458" lon="1.58783">
        <ele>1367</ele>
        <time>2020-01-05T09:12:10.000Z</time>
      </trkpt>
      <trkpt lat="42.76459" lon="1.58784">
        <ele>1367</ele>
        <time>2020-01-05T09:12:12.000Z</time>
      </trkpt>
      <trkpt lat="42.76459" lon="1.58785">
        <ele>1367</ele>
        <time>2020-01-05T09:12:14.000Z</time>
      </trkpt>
      <trkpt lat="42.7646" lon="1.58785">
        <ele>1367</ele>
        <time>2020-01-05T09:12:16.000Z</time>
      </trkpt>
      <trkpt lat="42.76461" lon="1.58787">
        <ele>1368</ele>
        <time>2020-01-05T09:12:18.000Z</time>
      </trkpt>
      <trkpt lat="42.76461" lon="1.58788">
        <ele>1368</ele>
        <time>2020-01-05T09:12:20.000Z</time>
      </trkpt>
      <trkpt lat="42.76462" lon="1.5879">
        <ele>1369</ele>
        <time>2020-01-05T09:12:22.000Z</time>
      </trkpt>
      <trkpt lat="42.76463" lon="1.58791">
        <ele>1369</ele>
        <time>2020-01-05T09:12:24.000Z</time>
      </trkpt>
      <trkpt lat="42.76463" lon="1.58793">
        <ele>1370</ele>
        <time>2020-01-05T09:12:26.000Z</time>
      </trkpt>
      <trkpt lat="42.76465" lon="1.58795">
        <ele>1370</ele>
        <time>2020-01-05T09:12:28.000Z</time>
      </trkpt>
      <trkpt lat="42.76466" lon="1.58797">
        <ele>1370</ele>
        <time>2020-01-05T09:12:30.000Z</time>
      </trkpt>
      <trkpt lat="42.76467" lon="1.58799">
        <ele>1371</ele>
        <time>2020-01-05T09:12:32.000Z</time>
      </trkpt>
      <trkpt lat="42.76468" lon="1.588">
        <ele>1371</ele>
        <time>2020-01-05T09:12:34.000Z</time>
      </trkpt>
      <trkpt lat="42.7647" lon="1.58802">
        <ele>1371</ele>
        <time>2020-01-05T09:12:36.000Z</time>
      </trkpt>
      <trkpt lat="42.76471" lon="1.58804">
        <ele>1372</ele>
        <time>2020-01-05T09:12:38.000Z</time>
      </trkpt>
      <trkpt lat="42.76472" lon="1.58805">
        <ele>1372</ele>
        <time>2020-01-05T09:12:40.000Z</time>
      </trkpt>
      <trkpt lat="42.76473" lon="1.58807">
        <ele>1373</ele>
        <time>2020-01-05T09:12:42.000Z</time>
      </trkpt>
      <trkpt lat="42.76475" lon="1.58809">
        <ele>1373</ele>
        <time>2020-01-05T09:12:44.000Z</time>
      </trkpt>
      <trkpt lat="42.76475" lon="1.58811">
        <ele>1374</ele>
        <time>2020-01-05T09:12:46.000Z</time>
      </trkpt>
      <trkpt lat="42.76476" lon="1.58812">
        <ele>1374</ele>
        <time>2020-01-05T09:12:48.000Z</time>
      </trkpt>
      <trkpt lat="42.76477" lon="1.58813">
        <ele>1374</ele>
        <time>2020-01-05T09:12:50.000Z</time>
      </trkpt>
      <trkpt lat="42.76477" lon="1.58815">
        <ele>1375</ele>
        <time>2020-01-05T09:12:52.000Z</time>
      </trkpt>
      <trkpt lat="42.76478" lon="1.58817">
        <ele>1375</ele>
        <time>2020-01-05T09:12:54.000Z</time>
      </trkpt>
      <trkpt lat="42.76479" lon="1.58819">
        <ele>1376</ele>
        <time>2020-01-05T09:12:56.000Z</time>
      </trkpt>
      <trkpt lat="42.76479" lon="1.5882">
        <ele>1376</ele>
        <time>2020-01-05T09:12:58.000Z</time>
      </trkpt>
      <trkpt lat="42.76479" lon="1.58822">
        <ele>1376</ele>
        <time>2020-01-05T09:13:00.000Z</time>
      </trkpt>
      <trkpt lat="42.76479" lon="1.58824">
        <ele>1377</ele>
        <time>2020-01-05T09:13:02.000Z</time>
      </trkpt>
      <trkpt lat="42.76479" lon="1.58825">
        <ele>1377</ele>
        <time>2020-01-05T09:13:04.000Z</time>
      </trkpt>
      <trkpt lat="42.7648" lon="1.58827">
        <ele>1377</ele>
        <time>2020-01-05T09:13:06.000Z</time>
      </trkpt>
      <trkpt lat="42.76481" lon="1.58828">
        <ele>1377</ele>
        <time>2020-01-05T09:13:08.000Z</time>
      </trkpt>
      <trkpt lat="42.76481" lon="1.5883">
        <ele>1378</ele>
        <time>2020-01-05T09:13:10.000Z</time>
      </trkpt>
      <trkpt lat="42.76481" lon="1.58832">
        <ele>1378</ele>
        <time>2020-01-05T09:13:12.000Z</time>
      </trkpt>
      <trkpt lat="42.76482" lon="1.58833">
        <ele>1378</ele>
        <time>2020-01-05T09:13:14.000Z</time>
      </trkpt>
      <trkpt lat="42.76482" lon="1.58835">
        <ele>1378</ele>
        <time>2020-01-05T09:13:16.000Z</time>
      </trkpt>
      <trkpt lat="42.76483" lon="1.58837">
        <ele>1379</ele>
        <time>2020-01-05T09:13:18.000Z</time>
      </trkpt>
      <trkpt lat="42.76484" lon="1.58838">
        <ele>1379</ele>
        <time>2020-01-05T09:13:20.000Z</time>
      </trkpt>
      <trkpt lat="42.76485" lon="1.58839">
        <ele>1379</ele>
        <time>2020-01-05T09:13:22.000Z</time>
      </trkpt>
      <trkpt lat="42.76485" lon="1.58841">
        <ele>1379</ele>
        <time>2020-01-05T09:13:24.000Z</time>
      </trkpt>
      <trkpt lat="42.76486" lon="1.58843">
        <ele>1379</ele>
        <time>2020-01-05T09:13:26.000Z</time>
      </trkpt>
      <trkpt lat="42.76486" lon="1.58845">
        <ele>1380</ele>
        <time>2020-01-05T09:13:28.000Z</time>
      </trkpt>
      <trkpt lat="42.76487" lon="1.58846">
        <ele>1380</ele>
        <time>2020-01-05T09:13:30.000Z</time>
      </trkpt>
      <trkpt lat="42.76488" lon="1.58848">
        <ele>1380</ele>
        <time>2020-01-05T09:13:32.000Z</time>
      </trkpt>
      <trkpt lat="42.76489" lon="1.58849">
        <ele>1380</ele>
        <time>2020-01-05T09:13:34.000Z</time>
      </trkpt>
      <trkpt lat="42.76489" lon="1.5885">
        <ele>1380</ele>
        <time>2020-01-05T09:13:36.000Z</time>
      </trkpt>
      <trkpt lat="42.7649" lon="1.58852">
        <ele>1380</ele>
        <time>2020-01-05T09:13:38.000Z</time>
      </trkpt>
      <trkpt lat="42.76491" lon="1.58853">
        <ele>1380</ele>
        <time>2020-01-05T09:13:40.000Z</time>
      </trkpt>
      <trkpt lat="42.76491" lon="1.58854">
        <ele>1381</ele>
        <time>2020-01-05T09:13:42.000Z</time>
      </trkpt>
      <trkpt lat="42.76491" lon="1.58855">
        <ele>1381</ele>
        <time>2020-01-05T09:13:44.000Z</time>
      </trkpt>
      <trkpt lat="42.76491" lon="1.58857">
        <ele>1381</ele>
        <time>2020-01-05T09:13:46.000Z</time>
      </trkpt>
      <trkpt lat="42.76492" lon="1.58858">
        <ele>1381</ele>
        <time>2020-01-05T09:13:48.000Z</time>
      </trkpt>
      <trkpt lat="42.76492" lon="1.5886">
        <ele>1382</ele>
        <time>2020-01-05T09:13:50.000Z</time>
      </trkpt>
      <trkpt lat="42.76492" lon="1.58862">
        <ele>1382</ele>
        <time>2020-01-05T09:13:52.000Z</time>
      </trkpt>
      <trkpt lat="42.76492" lon="1.58864">
        <ele>1382</ele>
        <time>2020-01-05T09:13:54.000Z</time>
      </trkpt>
      <trkpt lat="42.76493" lon="1.58866">
        <ele>1383</ele>
        <time>2020-01-05T09:13:56.000Z</time>
      </trkpt>
      <trkpt lat="42.76493" lon="1.58867">
        <ele>1383</ele>
        <time>2020-01-05T09:13:58.000Z</time>
      </trkpt>
      <trkpt lat="42.76493" lon="1.58869">
        <ele>1383</ele>
        <time>2020-01-05T09:14:00.000Z</time>
      </trkpt>
      <trkpt lat="42.76493" lon="1.5887">
        <ele>1384</ele>
        <time>2020-01-05T09:14:02.000Z</time>
      </trkpt>
      <trkpt lat="42.76493" lon="1.58872">
        <ele>1384</ele>
        <time>2020-01-05T09:14:04.000Z</time>
      </trkpt>
      <trkpt lat="42.76493" lon="1.58873">
        <ele>1384</ele>
        <time>2020-01-05T09:14:06.000Z</time>
      </trkpt>
      <trkpt lat="42.76492" lon="1.58873">
        <ele>1385</ele>
        <time>2020-01-05T09:14:08.000Z</time>
      </trkpt>
      <trkpt lat="42.76491" lon="1.58874">
        <ele>1385</ele>
        <time>2020-01-05T09:14:10.000Z</time>
      </trkpt>
      <trkpt lat="42.7649" lon="1.58875">
        <ele>1385</ele>
        <time>2020-01-05T09:14:12.000Z</time>
      </trkpt>
      <trkpt lat="42.76489" lon="1.58876">
        <ele>1386</ele>
        <time>2020-01-05T09:14:14.000Z</time>
      </trkpt>
      <trkpt lat="42.76487" lon="1.58877">
        <ele>1386</ele>
        <time>2020-01-05T09:14:16.000Z</time>
      </trkpt>
      <trkpt lat="42.76487" lon="1.58878">
        <ele>1387</ele>
        <time>2020-01-05T09:14:18.000Z</time>
      </trkpt>
      <trkpt lat="42.76486" lon="1.58879">
        <ele>1387</ele>
        <time>2020-01-05T09:14:20.000Z</time>
      </trkpt>
      <trkpt lat="42.76486" lon="1.5888">
        <ele>1387</ele>
        <time>2020-01-05T09:14:22.000Z</time>
      </trkpt>
      <trkpt lat="42.76486" lon="1.58881">
        <ele>1387</ele>
        <time>2020-01-05T09:14:24.000Z</time>
      </trkpt>
      <trkpt lat="42.76487" lon="1.58882">
        <ele>1388</ele>
        <time>2020-01-05T09:14:26.000Z</time>
      </trkpt>
      <trkpt lat="42.76487" lon="1.58883">
        <ele>1388</ele>
        <time>2020-01-05T09:14:28.000Z</time>
      </trkpt>
      <trkpt lat="42.76486" lon="1.58885">
        <ele>1388</ele>
        <time>2020-01-05T09:14:30.000Z</time>
      </trkpt>
      <trkpt lat="42.76485" lon="1.58886">
        <ele>1389</ele>
        <time>2020-01-05T09:14:32.000Z</time>
      </trkpt>
      <trkpt lat="42.76485" lon="1.58887">
        <ele>1389</ele>
        <time>2020-01-05T09:14:34.000Z</time>
      </trkpt>
      <trkpt lat="42.76485" lon="1.58888">
        <ele>1390</ele>
        <time>2020-01-05T09:14:36.000Z</time>
      </trkpt>
      <trkpt lat="42.76486" lon="1.5889">
        <ele>1390</ele>
        <time>2020-01-05T09:14:38.000Z</time>
      </trkpt>
      <trkpt lat="42.76486" lon="1.58891">
        <ele>1390</ele>
        <time>2020-01-05T09:14:40.000Z</time>
      </trkpt>
      <trkpt lat="42.76486" lon="1.58893">
        <ele>1391</ele>
        <time>2020-01-05T09:14:42.000Z</time>
      </trkpt>
      <trkpt lat="42.76486" lon="1.58895">
        <ele>1391</ele>
        <time>2020-01-05T09:14:44.000Z</time>
      </trkpt>
      <trkpt lat="42.76486" lon="1.58896">
        <ele>1392</ele>
        <time>2020-01-05T09:14:46.000Z</time>
      </trkpt>
      <trkpt lat="42.76486" lon="1.58898">
        <ele>1392</ele>
        <time>2020-01-05T09:14:48.000Z</time>
      </trkpt>
      <trkpt lat="42.76486" lon="1.589">
        <ele>1393</ele>
        <time>2020-01-05T09:14:50.000Z</time>
      </trkpt>
      <trkpt lat="42.76486" lon="1.58902">
        <ele>1394</ele>
        <time>2020-01-05T09:14:52.000Z</time>
      </trkpt>
      <trkpt lat="42.76486" lon="1.58903">
        <ele>1394</ele>
        <time>2020-01-05T09:14:54.000Z</time>
      </trkpt>
      <trkpt lat="42.76485" lon="1.58905">
        <ele>1394</ele>
        <time>2020-01-05T09:14:56.000Z</time>
      </trkpt>
      <trkpt lat="42.76485" lon="1.58907">
        <ele>1394</ele>
        <time>2020-01-05T09:14:58.000Z</time>
      </trkpt>
      <trkpt lat="42.76485" lon="1.58909">
        <ele>1395</ele>
        <time>2020-01-05T09:15:00.000Z</time>
      </trkpt>
      <trkpt lat="42.76484" lon="1.5891">
        <ele>1395</ele>
        <time>2020-01-05T09:15:02.000Z</time>
      </trkpt>
      <trkpt lat="42.76484" lon="1.58911">
        <ele>1395</ele>
        <time>2020-01-05T09:15:04.000Z</time>
      </trkpt>
      <trkpt lat="42.76483" lon="1.58913">
        <ele>1395</ele>
        <time>2020-01-05T09:15:06.000Z</time>
      </trkpt>
      <trkpt lat="42.76483" lon="1.58914">
        <ele>1396</ele>
        <time>2020-01-05T09:15:08.000Z</time>
      </trkpt>
      <trkpt lat="42.76483" lon="1.58915">
        <ele>1396</ele>
        <time>2020-01-05T09:15:10.000Z</time>
      </trkpt>
      <trkpt lat="42.76482" lon="1.58916">
        <ele>1396</ele>
        <time>2020-01-05T09:15:12.000Z</time>
      </trkpt>
      <trkpt lat="42.76482" lon="1.58917">
        <ele>1396</ele>
        <time>2020-01-05T09:15:14.000Z</time>
      </trkpt>
      <trkpt lat="42.76481" lon="1.58919">
        <ele>1397</ele>
        <time>2020-01-05T09:15:16.000Z</time>
      </trkpt>
      <trkpt lat="42.76481" lon="1.5892">
        <ele>1397</ele>
        <time>2020-01-05T09:15:18.000Z</time>
      </trkpt>
      <trkpt lat="42.7648" lon="1.58922">
        <ele>1397</ele>
        <time>2020-01-05T09:15:20.000Z</time>
      </trkpt>
      <trkpt lat="42.7648" lon="1.58923">
        <ele>1397</ele>
        <time>2020-01-05T09:15:22.000Z</time>
      </trkpt>
      <trkpt lat="42.76479" lon="1.58925">
        <ele>1398</ele>
        <time>2020-01-05T09:15:24.000Z</time>
      </trkpt>
      <trkpt lat="42.76479" lon="1.58926">
        <ele>1398</ele>
        <time>2020-01-05T09:15:26.000Z</time>
      </trkpt>
      <trkpt lat="42.76478" lon="1.58927">
        <ele>1398</ele>
        <time>2020-01-05T09:15:28.000Z</time>
      </trkpt>
      <trkpt lat="42.76478" lon="1.58928">
        <ele>1399</ele>
        <time>2020-01-05T09:15:30.000Z</time>
      </trkpt>
      <trkpt lat="42.76477" lon="1.58929">
        <ele>1399</ele>
        <time>2020-01-05T09:15:32.000Z</time>
      </trkpt>
      <trkpt lat="42.76477" lon="1.58931">
        <ele>1399</ele>
        <time>2020-01-05T09:15:34.000Z</time>
      </trkpt>
      <trkpt lat="42.76477" lon="1.58932">
        <ele>1399</ele>
        <time>2020-01-05T09:15:36.000Z</time>
      </trkpt>
      <trkpt lat="42.76477" lon="1.58934">
        <ele>1399</ele>
        <time>2020-01-05T09:15:38.000Z</time>
      </trkpt>
      <trkpt lat="42.76477" lon="1.58935">
        <ele>1400</ele>
        <time>2020-01-05T09:15:40.000Z</time>
      </trkpt>
      <trkpt lat="42.76477" lon="1.58937">
        <ele>1400</ele>
        <time>2020-01-05T09:15:42.000Z</time>
      </trkpt>
      <trkpt lat="42.76477" lon="1.58939">
        <ele>1400</ele>
        <time>2020-01-05T09:15:44.000Z</time>
      </trkpt>
      <trkpt lat="42.76478" lon="1.58941">
        <ele>1400</ele>
        <time>2020-01-05T09:15:46.000Z</time>
      </trkpt>
      <trkpt lat="42.76479" lon="1.58944">
        <ele>1400</ele>
        <time>2020-01-05T09:15:48.000Z</time>
      </trkpt>
      <trkpt lat="42.76479" lon="1.58946">
        <ele>1400</ele>
        <time>2020-01-05T09:15:50.000Z</time>
      </trkpt>
      <trkpt lat="42.7648" lon="1.58949">
        <ele>1400</ele>
        <time>2020-01-05T09:15:52.000Z</time>
      </trkpt>
      <trkpt lat="42.7648" lon="1.58951">
        <ele>1400</ele>
        <time>2020-01-05T09:15:54.000Z</time>
      </trkpt>
      <trkpt lat="42.7648" lon="1.58953">
        <ele>1400</ele>
        <time>2020-01-05T09:15:56.000Z</time>
      </trkpt>
      <trkpt lat="42.7648" lon="1.58955">
        <ele>1400</ele>
        <time>2020-01-05T09:15:58.000Z</time>
      </trkpt>
      <trkpt lat="42.76481" lon="1.58957">
        <ele>1401</ele>
        <time>2020-01-05T09:16:00.000Z</time>
      </trkpt>
      <trkpt lat="42.76481" lon="1.58959">
        <ele>1400</ele>
        <time>2020-01-05T09:16:02.000Z</time>
      </trkpt>
      <trkpt lat="42.76483" lon="1.58961">
        <ele>1400</ele>
        <time>2020-01-05T09:16:04.000Z</time>
      </trkpt>
      <trkpt lat="42.76484" lon="1.58963">
        <ele>1400</ele>
        <time>2020-01-05T09:16:06.000Z</time>
      </trkpt>
      <trkpt lat="42.76485" lon="1.58965">
        <ele>1400</ele>
        <time>2020-01-05T09:16:08.000Z</time>
      </trkpt>
      <trkpt lat="42.76486" lon="1.58968">
        <ele>1400</ele>
        <time>2020-01-05T09:16:10.000Z</time>
      </trkpt>
      <trkpt lat="42.76487" lon="1.58971">
        <ele>1400</ele>
        <time>2020-01-05T09:16:12.000Z</time>
      </trkpt>
      <trkpt lat="42.76487" lon="1.58973">
        <ele>1400</ele>
        <time>2020-01-05T09:16:14.000Z</time>
      </trkpt>
      <trkpt lat="42.76488" lon="1.58976">
        <ele>1400</ele>
        <time>2020-01-05T09:16:16.000Z</time>
      </trkpt>
      <trkpt lat="42.76488" lon="1.58978">
        <ele>1400</ele>
        <time>2020-01-05T09:16:18.000Z</time>
      </trkpt>
      <trkpt lat="42.76489" lon="1.5898">
        <ele>1401</ele>
        <time>2020-01-05T09:16:20.000Z</time>
      </trkpt>
      <trkpt lat="42.76489" lon="1.58982">
        <ele>1401</ele>
        <time>2020-01-05T09:16:22.000Z</time>
      </trkpt>
      <trkpt lat="42.7649" lon="1.58984">
        <ele>1401</ele>
        <time>2020-01-05T09:16:24.000Z</time>
      </trkpt>
      <trkpt lat="42.76491" lon="1.58986">
        <ele>1400</ele>
        <time>2020-01-05T09:16:26.000Z</time>
      </trkpt>
      <trkpt lat="42.76491" lon="1.58989">
        <ele>1400</ele>
        <time>2020-01-05T09:16:28.000Z</time>
      </trkpt>
      <trkpt lat="42.76491" lon="1.58991">
        <ele>1400</ele>
        <time>2020-01-05T09:16:30.000Z</time>
      </trkpt>
      <trkpt lat="42.76491" lon="1.58994">
        <ele>1400</ele>
        <time>2020-01-05T09:16:32.000Z</time>
      </trkpt>
      <trkpt lat="42.76491" lon="1.58996">
        <ele>1400</ele>
        <time>2020-01-05T09:16:34.000Z</time>
      </trkpt>
      <trkpt lat="42.7649" lon="1.58998">
        <ele>1400</ele>
        <time>2020-01-05T09:16:36.000Z</time>
      </trkpt>
      <trkpt lat="42.7649" lon="1.59">
        <ele>1400</ele>
        <time>2020-01-05T09:16:38.000Z</time>
      </trkpt>
      <trkpt lat="42.76489" lon="1.59002">
        <ele>1400</ele>
        <time>2020-01-05T09:16:40.000Z</time>
      </trkpt>
      <trkpt lat="42.76489" lon="1.59003">
        <ele>1400</ele>
        <time>2020-01-05T09:16:42.000Z</time>
      </trkpt>
      <trkpt lat="42.76488" lon="1.59005">
        <ele>1400</ele>
        <time>2020-01-05T09:16:44.000Z</time>
      </trkpt>
      <trkpt lat="42.76488" lon="1.59006">
        <ele>1400</ele>
        <time>2020-01-05T09:16:46.000Z</time>
      </trkpt>
      <trkpt lat="42.76488" lon="1.59007">
        <ele>1400</ele>
        <time>2020-01-05T09:16:48.000Z</time>
      </trkpt>
      <trkpt lat="42.76487" lon="1.59008">
        <ele>1400</ele>
        <time>2020-01-05T09:16:50.000Z</time>
      </trkpt>
      <trkpt lat="42.76487" lon="1.59008">
        <ele>1400</ele>
        <time>2020-01-05T09:16:52.000Z</time>
      </trkpt>
      <trkpt lat="42.76487" lon="1.59008">
        <ele>1400</ele>
        <time>2020-01-05T09:16:54.000Z</time>
      </trkpt>
      <trkpt lat="42.76487" lon="1.59009">
        <ele>1400</ele>
        <time>2020-01-05T09:16:56.000Z</time>
      </trkpt>
      <trkpt lat="42.76487" lon="1.59009">
        <ele>1400</ele>
        <time>2020-01-05T09:16:58.000Z</time>
      </trkpt>
      <trkpt lat="42.76487" lon="1.59009">
        <ele>1400</ele>
        <time>2020-01-05T09:17:00.000Z</time>
      </trkpt>
      <trkpt lat="42.76487" lon="1.59009">
        <ele>1400</ele>
        <time>2020-01-05T09:17:02.000Z</time>
      </trkpt>
      <trkpt lat="42.76487" lon="1.59009">
        <ele>1400</ele>
        <time>2020-01-05T09:17:04.000Z</time>
      </trkpt>
      <trkpt lat="42.76488" lon="1.59008">
        <ele>1400</ele>
        <time>2020-01-05T09:17:06.000Z</time>
      </trkpt>
      <trkpt lat="42.7649" lon="1.59009">
        <ele>1399</ele>
        <time>2020-01-05T09:17:08.000Z</time>
      </trkpt>
      <trkpt lat="42.76492" lon="1.5901">
        <ele>1399</ele>
        <time>2020-01-05T09:17:10.000Z</time>
      </trkpt>
      <trkpt lat="42.76493" lon="1.59013">
        <ele>1398</ele>
        <time>2020-01-05T09:17:12.000Z</time>
      </trkpt>
      <trkpt lat="42.76494" lon="1.59015">
        <ele>1398</ele>
        <time>2020-01-05T09:17:14.000Z</time>
      </trkpt>
      <trkpt lat="42.76494" lon="1.59018">
        <ele>1397</ele>
        <time>2020-01-05T09:17:16.000Z</time>
      </trkpt>
      <trkpt lat="42.76494" lon="1.59018">
        <ele>1397</ele>
        <time>2020-01-05T09:17:18.000Z</time>
      </trkpt>
      <trkpt lat="42.76494" lon="1.59019">
        <ele>1397</ele>
        <time>2020-01-05T09:17:20.000Z</time>
      </trkpt>
      <trkpt lat="42.76494" lon="1.59019">
        <ele>1397</ele>
        <time>2020-01-05T09:17:22.000Z</time>
      </trkpt>
      <trkpt lat="42.76494" lon="1.59018">
        <ele>1397</ele>
        <time>2020-01-05T09:17:24.000Z</time>
      </trkpt>
      <trkpt lat="42.76494" lon="1.59018">
        <ele>1397</ele>
        <time>2020-01-05T09:17:26.000Z</time>
      </trkpt>
      <trkpt lat="42.76494" lon="1.59018">
        <ele>1397</ele>
        <time>2020-01-05T09:17:28.000Z</time>
      </trkpt>
      <trkpt lat="42.76494" lon="1.59018">
        <ele>1397</ele>
        <time>2020-01-05T09:17:30.000Z</time>
      </trkpt>
      <trkpt lat="42.76494" lon="1.59018">
        <ele>1397</ele>
        <time>2020-01-05T09:17:32.000Z</time>
      </trkpt>
      <trkpt lat="42.76494" lon="1.59018">
        <ele>1397</ele>
        <time>2020-01-05T09:17:34.000Z</time>
      </trkpt>
      <trkpt lat="42.76494" lon="1.59018">
        <ele>1398</ele>
        <time>2020-01-05T09:17:36.000Z</time>
      </trkpt>
      <trkpt lat="42.76493" lon="1.59018">
        <ele>1398</ele>
        <time>2020-01-05T09:17:38.000Z</time>
      </trkpt>
      <trkpt lat="42.76493" lon="1.59018">
        <ele>1398</ele>
        <time>2020-01-05T09:17:40.000Z</time>
      </trkpt>
      <trkpt lat="42.76493" lon="1.59018">
        <ele>1398</ele>
        <time>2020-01-05T09:17:42.000Z</time>
      </trkpt>
      <trkpt lat="42.76493" lon="1.59018">
        <ele>1398</ele>
        <time>2020-01-05T09:17:44.000Z</time>
      </trkpt>
      <trkpt lat="42.76493" lon="1.59017">
        <ele>1398</ele>
        <time>2020-01-05T09:17:46.000Z</time>
      </trkpt>
      <trkpt lat="42.76492" lon="1.59017">
        <ele>1398</ele>
        <time>2020-01-05T09:17:48.000Z</time>
      </trkpt>
      <trkpt lat="42.76492" lon="1.59017">
        <ele>1398</ele>
        <time>2020-01-05T09:17:50.000Z</time>
      </trkpt>
      <trkpt lat="42.76492" lon="1.59017">
        <ele>1398</ele>
        <time>2020-01-05T09:17:52.000Z</time>
      </trkpt>
      <trkpt lat="42.76493" lon="1.59017">
        <ele>1398</ele>
        <time>2020-01-05T09:17:54.000Z</time>
      </trkpt>
      <trkpt lat="42.76493" lon="1.59017">
        <ele>1398</ele>
        <time>2020-01-05T09:17:56.000Z</time>
      </trkpt>
      <trkpt lat="42.76494" lon="1.59017">
        <ele>1397</ele>
        <time>2020-01-05T09:17:58.000Z</time>
      </trkpt>
      <trkpt lat="42.76495" lon="1.59017">
        <ele>1397</ele>
        <time>2020-01-05T09:18:00.000Z</time>
      </trkpt>
      <trkpt lat="42.76497" lon="1.59017">
        <ele>1397</ele>
        <time>2020-01-05T09:18:02.000Z</time>
      </trkpt>
      <trkpt lat="42.76497" lon="1.59017">
        <ele>1397</ele>
        <time>2020-01-05T09:18:04.000Z</time>
      </trkpt>
      <trkpt lat="42.76497" lon="1.59017">
        <ele>1397</ele>
        <time>2020-01-05T09:18:06.000Z</time>
      </trkpt>
      <trkpt lat="42.76498" lon="1.59017">
        <ele>1396</ele>
        <time>2020-01-05T09:18:08.000Z</time>
      </trkpt>
      <trkpt lat="42.76497" lon="1.59017">
        <ele>1396</ele>
        <time>2020-01-05T09:18:10.000Z</time>
      </trkpt>
      <trkpt lat="42.76496" lon="1.59015">
        <ele>1397</ele>
        <time>2020-01-05T09:18:12.000Z</time>
      </trkpt>
      <trkpt lat="42.76495" lon="1.59014">
        <ele>1397</ele>
        <time>2020-01-05T09:18:14.000Z</time>
      </trkpt>
      <trkpt lat="42.76494" lon="1.59013">
        <ele>1398</ele>
        <time>2020-01-05T09:18:16.000Z</time>
      </trkpt>
      <trkpt lat="42.76492" lon="1.59012">
        <ele>1398</ele>
        <time>2020-01-05T09:18:18.000Z</time>
      </trkpt>
      <trkpt lat="42.76491" lon="1.59011">
        <ele>1399</ele>
        <time>2020-01-05T09:18:20.000Z</time>
      </trkpt>
      <trkpt lat="42.7649" lon="1.59011">
        <ele>1399</ele>
        <time>2020-01-05T09:18:22.000Z</time>
      </trkpt>
      <trkpt lat="42.76488" lon="1.59011">
        <ele>1400</ele>
        <time>2020-01-05T09:18:24.000Z</time>
      </trkpt>
      <trkpt lat="42.76487" lon="1.59011">
        <ele>1400</ele>
        <time>2020-01-05T09:18:26.000Z</time>
      </trkpt>
      <trkpt lat="42.76486" lon="1.59011">
        <ele>1400</ele>
        <time>2020-01-05T09:18:28.000Z</time>
      </trkpt>
      <trkpt lat="42.76486" lon="1.59012">
        <ele>1400</ele>
        <time>2020-01-05T09:18:30.000Z</time>
      </trkpt>
      <trkpt lat="42.76486" lon="1.59012">
        <ele>1400</ele>
        <time>2020-01-05T09:18:32.000Z</time>
      </trkpt>
      <trkpt lat="42.76486" lon="1.59012">
        <ele>1400</ele>
        <time>2020-01-05T09:18:34.000Z</time>
      </trkpt>
      <trkpt lat="42.76486" lon="1.59012">
        <ele>1400</ele>
        <time>2020-01-05T09:18:36.000Z</time>
      </trkpt>
      <trkpt lat="42.76486" lon="1.59012">
        <ele>1401</ele>
        <time>2020-01-05T09:18:38.000Z</time>
      </trkpt>
      <trkpt lat="42.76485" lon="1.59012">
        <ele>1401</ele>
        <time>2020-01-05T09:18:40.000Z</time>
      </trkpt>
      <trkpt lat="42.76485" lon="1.59012">
        <ele>1401</ele>
        <time>2020-01-05T09:18:42.000Z</time>
      </trkpt>
      <trkpt lat="42.76485" lon="1.59012">
        <ele>1401</ele>
        <time>2020-01-05T09:18:44.000Z</time>
      </trkpt>
      <trkpt lat="42.76485" lon="1.59011">
        <ele>1401</ele>
        <time>2020-01-05T09:18:46.000Z</time>
      </trkpt>
      <trkpt lat="42.76485" lon="1.5901">
        <ele>1401</ele>
        <time>2020-01-05T09:18:48.000Z</time>
      </trkpt>
      <trkpt lat="42.76485" lon="1.5901">
        <ele>1401</ele>
        <time>2020-01-05T09:18:50.000Z</time>
      </trkpt>
      <trkpt lat="42.76485" lon="1.59008">
        <ele>1401</ele>
        <time>2020-01-05T09:18:52.000Z</time>
      </trkpt>
      <trkpt lat="42.76485" lon="1.59008">
        <ele>1401</ele>
        <time>2020-01-05T09:18:54.000Z</time>
      </trkpt>
      <trkpt lat="42.76485" lon="1.59007">
        <ele>1401</ele>
        <time>2020-01-05T09:18:56.000Z</time>
      </trkpt>
      <trkpt lat="42.76485" lon="1.59007">
        <ele>1401</ele>
        <time>2020-01-05T09:18:58.000Z</time>
      </trkpt>
      <trkpt lat="42.76485" lon="1.59007">
        <ele>1401</ele>
        <time>2020-01-05T09:19:00.000Z</time>
      </trkpt>
      <trkpt lat="42.76485" lon="1.59007">
        <ele>1401</ele>
        <time>2020-01-05T09:19:02.000Z</time>
      </trkpt>
      <trkpt lat="42.76485" lon="1.59007">
        <ele>1401</ele>
        <time>2020-01-05T09:19:04.000Z</time>
      </trkpt>
      <trkpt lat="42.76485" lon="1.59007">
        <ele>1401</ele>
        <time>2020-01-05T09:19:06.000Z</time>
      </trkpt>
      <trkpt lat="42.76485" lon="1.59007">
        <ele>1401</ele>
        <time>2020-01-05T09:19:08.000Z</time>
      </trkpt>
      <trkpt lat="42.76485" lon="1.59006">
        <ele>1401</ele>
        <time>2020-01-05T09:19:10.000Z</time>
      </trkpt>
      <trkpt lat="42.76485" lon="1.59006">
        <ele>1401</ele>
        <time>2020-01-05T09:19:12.000Z</time>
      </trkpt>
      <trkpt lat="42.76485" lon="1.59006">
        <ele>1401</ele>
        <time>2020-01-05T09:19:14.000Z</time>
      </trkpt>
      <trkpt lat="42.76485" lon="1.59006">
        <ele>1401</ele>
        <time>2020-01-05T09:19:16.000Z</time>
      </trkpt>
      <trkpt lat="42.76485" lon="1.59006">
        <ele>1401</ele>
        <time>2020-01-05T09:19:18.000Z</time>
      </trkpt>
      <trkpt lat="42.76485" lon="1.59006">
        <ele>1401</ele>
        <time>2020-01-05T09:19:20.000Z</time>
      </trkpt>
      <trkpt lat="42.76484" lon="1.59006">
        <ele>1401</ele>
        <time>2020-01-05T09:19:22.000Z</time>
      </trkpt>
      <trkpt lat="42.76483" lon="1.59006">
        <ele>1402</ele>
        <time>2020-01-05T09:19:24.000Z</time>
      </trkpt>
      <trkpt lat="42.76481" lon="1.59005">
        <ele>1402</ele>
        <time>2020-01-05T09:19:26.000Z</time>
      </trkpt>
      <trkpt lat="42.76479" lon="1.59004">
        <ele>1403</ele>
        <time>2020-01-05T09:19:28.000Z</time>
      </trkpt>
      <trkpt lat="42.76477" lon="1.59003">
        <ele>1404</ele>
        <time>2020-01-05T09:19:30.000Z</time>
      </trkpt>
      <trkpt lat="42.76476" lon="1.59002">
        <ele>1404</ele>
        <time>2020-01-05T09:19:32.000Z</time>
      </trkpt>
      <trkpt lat="42.76474" lon="1.59001">
        <ele>1405</ele>
        <time>2020-01-05T09:19:34.000Z</time>
      </trkpt>
      <trkpt lat="42.76472" lon="1.59">
        <ele>1406</ele>
        <time>2020-01-05T09:19:36.000Z</time>
      </trkpt>
      <trkpt lat="42.76472" lon="1.58998">
        <ele>1406</ele>
        <time>2020-01-05T09:19:38.000Z</time>
      </trkpt>
      <trkpt lat="42.76471" lon="1.58997">
        <ele>1406</ele>
        <time>2020-01-05T09:19:40.000Z</time>
      </trkpt>
      <trkpt lat="42.7647" lon="1.58996">
        <ele>1407</ele>
        <time>2020-01-05T09:19:42.000Z</time>
      </trkpt>
      <trkpt lat="42.76469" lon="1.58995">
        <ele>1407</ele>
        <time>2020-01-05T09:19:44.000Z</time>
      </trkpt>
      <trkpt lat="42.76467" lon="1.58993">
        <ele>1408</ele>
        <time>2020-01-05T09:19:46.000Z</time>
      </trkpt>
      <trkpt lat="42.76466" lon="1.58991">
        <ele>1408</ele>
        <time>2020-01-05T09:19:48.000Z</time>
      </trkpt>
      <trkpt lat="42.76465" lon="1.58989">
        <ele>1408</ele>
        <time>2020-01-05T09:19:50.000Z</time>
      </trkpt>
      <trkpt lat="42.76464" lon="1.58986">
        <ele>1409</ele>
        <time>2020-01-05T09:19:52.000Z</time>
      </trkpt>
      <trkpt lat="42.76464" lon="1.58984">
        <ele>1409</ele>
        <time>2020-01-05T09:19:54.000Z</time>
      </trkpt>
      <trkpt lat="42.76463" lon="1.58981">
        <ele>1409</ele>
        <time>2020-01-05T09:19:56.000Z</time>
      </trkpt>
      <trkpt lat="42.76463" lon="1.58978">
        <ele>1409</ele>
        <time>2020-01-05T09:19:58.000Z</time>
      </trkpt>
      <trkpt lat="42.76462" lon="1.58976">
        <ele>1409</ele>
        <time>2020-01-05T09:20:00.000Z</time>
      </trkpt>
      <trkpt lat="42.76461" lon="1.58973">
        <ele>1409</ele>
        <time>2020-01-05T09:20:02.000Z</time>
      </trkpt>
      <trkpt lat="42.7646" lon="1.5897">
        <ele>1409</ele>
        <time>2020-01-05T09:20:04.000Z</time>
      </trkpt>
      <trkpt lat="42.7646" lon="1.58967">
        <ele>1408</ele>
        <time>2020-01-05T09:20:06.000Z</time>
      </trkpt>
      <trkpt lat="42.76458" lon="1.58965">
        <ele>1409</ele>
        <time>2020-01-05T09:20:08.000Z</time>
      </trkpt>
      <trkpt lat="42.76458" lon="1.58962">
        <ele>1408</ele>
        <time>2020-01-05T09:20:10.000Z</time>
      </trkpt>
      <trkpt lat="42.76457" lon="1.58959">
        <ele>1408</ele>
        <time>2020-01-05T09:20:12.000Z</time>
      </trkpt>
      <trkpt lat="42.76456" lon="1.58957">
        <ele>1408</ele>
        <time>2020-01-05T09:20:14.000Z</time>
      </trkpt>
      <trkpt lat="42.76455" lon="1.58955">
        <ele>1408</ele>
        <time>2020-01-05T09:20:16.000Z</time>
      </trkpt>
      <trkpt lat="42.76454" lon="1.58953">
        <ele>1409</ele>
        <time>2020-01-05T09:20:18.000Z</time>
      </trkpt>
      <trkpt lat="42.76454" lon="1.58951">
        <ele>1408</ele>
        <time>2020-01-05T09:20:20.000Z</time>
      </trkpt>
      <trkpt lat="42.76454" lon="1.5895">
        <ele>1408</ele>
        <time>2020-01-05T09:20:22.000Z</time>
      </trkpt>
      <trkpt lat="42.76453" lon="1.58949">
        <ele>1408</ele>
        <time>2020-01-05T09:20:24.000Z</time>
      </trkpt>
      <trkpt lat="42.76452" lon="1.58949">
        <ele>1409</ele>
        <time>2020-01-05T09:20:26.000Z</time>
      </trkpt>
      <trkpt lat="42.7645" lon="1.58948">
        <ele>1409</ele>
        <time>2020-01-05T09:20:28.000Z</time>
      </trkpt>
      <trkpt lat="42.7645" lon="1.58947">
        <ele>1409</ele>
        <time>2020-01-05T09:20:30.000Z</time>
      </trkpt>
      <trkpt lat="42.7645" lon="1.58945">
        <ele>1409</ele>
        <time>2020-01-05T09:20:32.000Z</time>
      </trkpt>
      <trkpt lat="42.76449" lon="1.58943">
        <ele>1409</ele>
        <time>2020-01-05T09:20:34.000Z</time>
      </trkpt>
      <trkpt lat="42.76449" lon="1.58941">
        <ele>1409</ele>
        <time>2020-01-05T09:20:36.000Z</time>
      </trkpt>
      <trkpt lat="42.76449" lon="1.5894">
        <ele>1409</ele>
        <time>2020-01-05T09:20:38.000Z</time>
      </trkpt>
      <trkpt lat="42.76447" lon="1.58939">
        <ele>1409</ele>
        <time>2020-01-05T09:20:40.000Z</time>
      </trkpt>
      <trkpt lat="42.76446" lon="1.58939">
        <ele>1409</ele>
        <time>2020-01-05T09:20:42.000Z</time>
      </trkpt>
      <trkpt lat="42.76445" lon="1.58938">
        <ele>1410</ele>
        <time>2020-01-05T09:20:44.000Z</time>
      </trkpt>
      <trkpt lat="42.76444" lon="1.58937">
        <ele>1410</ele>
        <time>2020-01-05T09:20:46.000Z</time>
      </trkpt>
      <trkpt lat="42.76443" lon="1.58937">
        <ele>1410</ele>
        <time>2020-01-05T09:20:48.000Z</time>
      </trkpt>
      <trkpt lat="42.76442" lon="1.58936">
        <ele>1410</ele>
        <time>2020-01-05T09:20:50.000Z</time>
      </trkpt>
      <trkpt lat="42.76441" lon="1.58934">
        <ele>1410</ele>
        <time>2020-01-05T09:20:52.000Z</time>
      </trkpt>
      <trkpt lat="42.76441" lon="1.58933">
        <ele>1410</ele>
        <time>2020-01-05T09:20:54.000Z</time>
      </trkpt>
      <trkpt lat="42.7644" lon="1.58932">
        <ele>1411</ele>
        <time>2020-01-05T09:20:56.000Z</time>
      </trkpt>
      <trkpt lat="42.76439" lon="1.58931">
        <ele>1411</ele>
        <time>2020-01-05T09:20:58.000Z</time>
      </trkpt>
      <trkpt lat="42.76438" lon="1.5893">
        <ele>1411</ele>
        <time>2020-01-05T09:21:00.000Z</time>
      </trkpt>
      <trkpt lat="42.76437" lon="1.5893">
        <ele>1411</ele>
        <time>2020-01-05T09:21:02.000Z</time>
      </trkpt>
      <trkpt lat="42.76436" lon="1.58929">
        <ele>1412</ele>
        <time>2020-01-05T09:21:04.000Z</time>
      </trkpt>
      <trkpt lat="42.76435" lon="1.58928">
        <ele>1412</ele>
        <time>2020-01-05T09:21:06.000Z</time>
      </trkpt>
      <trkpt lat="42.76435" lon="1.58927">
        <ele>1412</ele>
        <time>2020-01-05T09:21:08.000Z</time>
      </trkpt>
      <trkpt lat="42.76434" lon="1.58927">
        <ele>1412</ele>
        <time>2020-01-05T09:21:10.000Z</time>
      </trkpt>
      <trkpt lat="42.76434" lon="1.58925">
        <ele>1412</ele>
        <time>2020-01-05T09:21:12.000Z</time>
      </trkpt>
      <trkpt lat="42.76433" lon="1.58925">
        <ele>1412</ele>
        <time>2020-01-05T09:21:14.000Z</time>
      </trkpt>
      <trkpt lat="42.76433" lon="1.58923">
        <ele>1412</ele>
        <time>2020-01-05T09:21:16.000Z</time>
      </trkpt>
      <trkpt lat="42.76433" lon="1.58921">
        <ele>1412</ele>
        <time>2020-01-05T09:21:18.000Z</time>
      </trkpt>
      <trkpt lat="42.76432" lon="1.5892">
        <ele>1412</ele>
        <time>2020-01-05T09:21:20.000Z</time>
      </trkpt>
      <trkpt lat="42.76432" lon="1.58919">
        <ele>1412</ele>
        <time>2020-01-05T09:21:22.000Z</time>
      </trkpt>
      <trkpt lat="42.76431" lon="1.58918">
        <ele>1412</ele>
        <time>2020-01-05T09:21:24.000Z</time>
      </trkpt>
      <trkpt lat="42.76431" lon="1.58917">
        <ele>1412</ele>
        <time>2020-01-05T09:21:26.000Z</time>
      </trkpt>
      <trkpt lat="42.7643" lon="1.58917">
        <ele>1412</ele>
        <time>2020-01-05T09:21:28.000Z</time>
      </trkpt>
      <trkpt lat="42.7643" lon="1.58916">
        <ele>1412</ele>
        <time>2020-01-05T09:21:30.000Z</time>
      </trkpt>
      <trkpt lat="42.76429" lon="1.58916">
        <ele>1412</ele>
        <time>2020-01-05T09:21:32.000Z</time>
      </trkpt>
      <trkpt lat="42.76429" lon="1.58915">
        <ele>1412</ele>
        <time>2020-01-05T09:21:34.000Z</time>
      </trkpt>
      <trkpt lat="42.76428" lon="1.58915">
        <ele>1412</ele>
        <time>2020-01-05T09:21:36.000Z</time>
      </trkpt>
      <trkpt lat="42.76428" lon="1.58915">
        <ele>1412</ele>
        <time>2020-01-05T09:21:38.000Z</time>
      </trkpt>
      <trkpt lat="42.76427" lon="1.58915">
        <ele>1413</ele>
        <time>2020-01-05T09:21:40.000Z</time>
      </trkpt>
      <trkpt lat="42.76428" lon="1.58914">
        <ele>1412</ele>
        <time>2020-01-05T09:21:42.000Z</time>
      </trkpt>
      <trkpt lat="42.76428" lon="1.58914">
        <ele>1412</ele>
        <time>2020-01-05T09:21:44.000Z</time>
      </trkpt>
      <trkpt lat="42.76428" lon="1.58914">
        <ele>1412</ele>
        <time>2020-01-05T09:21:46.000Z</time>
      </trkpt>
      <trkpt lat="42.76428" lon="1.58915">
        <ele>1412</ele>
        <time>2020-01-05T09:21:48.000Z</time>
      </trkpt>
      <trkpt lat="42.76428" lon="1.58916">
        <ele>1412</ele>
        <time>2020-01-05T09:21:50.000Z</time>
      </trkpt>
      <trkpt lat="42.76428" lon="1.58917">
        <ele>1413</ele>
        <time>2020-01-05T09:21:52.000Z</time>
      </trkpt>
      <trkpt lat="42.76428" lon="1.58917">
        <ele>1413</ele>
        <time>2020-01-05T09:21:54.000Z</time>
      </trkpt>
      <trkpt lat="42.76428" lon="1.58917">
        <ele>1413</ele>
        <time>2020-01-05T09:21:56.000Z</time>
      </trkpt>
      <trkpt lat="42.76427" lon="1.58918">
        <ele>1413</ele>
        <time>2020-01-05T09:21:58.000Z</time>
      </trkpt>
      <trkpt lat="42.76426" lon="1.58918">
        <ele>1413</ele>
        <time>2020-01-05T09:22:00.000Z</time>
      </trkpt>
      <trkpt lat="42.76426" lon="1.58917">
        <ele>1413</ele>
        <time>2020-01-05T09:22:02.000Z</time>
      </trkpt>
      <trkpt lat="42.76425" lon="1.58917">
        <ele>1414</ele>
        <time>2020-01-05T09:22:04.000Z</time>
      </trkpt>
      <trkpt lat="42.76424" lon="1.58917">
        <ele>1414</ele>
        <time>2020-01-05T09:22:06.000Z</time>
      </trkpt>
      <trkpt lat="42.76423" lon="1.58918">
        <ele>1414</ele>
        <time>2020-01-05T09:22:08.000Z</time>
      </trkpt>
      <trkpt lat="42.76423" lon="1.58918">
        <ele>1414</ele>
        <time>2020-01-05T09:22:10.000Z</time>
      </trkpt>
      <trkpt lat="42.76422" lon="1.58918">
        <ele>1415</ele>
        <time>2020-01-05T09:22:12.000Z</time>
      </trkpt>
      <trkpt lat="42.76422" lon="1.58918">
        <ele>1415</ele>
        <time>2020-01-05T09:22:14.000Z</time>
      </trkpt>
      <trkpt lat="42.76421" lon="1.58918">
        <ele>1415</ele>
        <time>2020-01-05T09:22:16.000Z</time>
      </trkpt>
      <trkpt lat="42.7642" lon="1.58917">
        <ele>1415</ele>
        <time>2020-01-05T09:22:18.000Z</time>
      </trkpt>
      <trkpt lat="42.76419" lon="1.58918">
        <ele>1415</ele>
        <time>2020-01-05T09:22:20.000Z</time>
      </trkpt>
      <trkpt lat="42.76418" lon="1.58918">
        <ele>1416</ele>
        <time>2020-01-05T09:22:22.000Z</time>
      </trkpt>
      <trkpt lat="42.76418" lon="1.58917">
        <ele>1416</ele>
        <time>2020-01-05T09:22:24.000Z</time>
      </trkpt>
      <trkpt lat="42.76417" lon="1.58917">
        <ele>1416</ele>
        <time>2020-01-05T09:22:26.000Z</time>
      </trkpt>
      <trkpt lat="42.76416" lon="1.58918">
        <ele>1416</ele>
        <time>2020-01-05T09:22:28.000Z</time>
      </trkpt>
      <trkpt lat="42.76415" lon="1.58917">
        <ele>1416</ele>
        <time>2020-01-05T09:22:30.000Z</time>
      </trkpt>
      <trkpt lat="42.76414" lon="1.58917">
        <ele>1417</ele>
        <time>2020-01-05T09:22:32.000Z</time>
      </trkpt>
      <trkpt lat="42.76413" lon="1.58917">
        <ele>1417</ele>
        <time>2020-01-05T09:22:34.000Z</time>
      </trkpt>
      <trkpt lat="42.76412" lon="1.58917">
        <ele>1417</ele>
        <time>2020-01-05T09:22:36.000Z</time>
      </trkpt>
      <trkpt lat="42.76411" lon="1.58916">
        <ele>1417</ele>
        <time>2020-01-05T09:22:38.000Z</time>
      </trkpt>
      <trkpt lat="42.76411" lon="1.58916">
        <ele>1417</ele>
        <time>2020-01-05T09:22:40.000Z</time>
      </trkpt>
      <trkpt lat="42.7641" lon="1.58917">
        <ele>1417</ele>
        <time>2020-01-05T09:22:42.000Z</time>
      </trkpt>
      <trkpt lat="42.76409" lon="1.58916">
        <ele>1418</ele>
        <time>2020-01-05T09:22:44.000Z</time>
      </trkpt>
      <trkpt lat="42.76409" lon="1.58916">
        <ele>1418</ele>
        <time>2020-01-05T09:22:46.000Z</time>
      </trkpt>
      <trkpt lat="42.76408" lon="1.58915">
        <ele>1418</ele>
        <time>2020-01-05T09:22:48.000Z</time>
      </trkpt>
      <trkpt lat="42.76407" lon="1.58915">
        <ele>1418</ele>
        <time>2020-01-05T09:22:50.000Z</time>
      </trkpt>
      <trkpt lat="42.76407" lon="1.58916">
        <ele>1418</ele>
        <time>2020-01-05T09:22:52.000Z</time>
      </trkpt>
      <trkpt lat="42.76407" lon="1.58916">
        <ele>1418</ele>
        <time>2020-01-05T09:22:54.000Z</time>
      </trkpt>
      <trkpt lat="42.76407" lon="1.58916">
        <ele>1418</ele>
        <time>2020-01-05T09:22:56.000Z</time>
      </trkpt>
      <trkpt lat="42.76407" lon="1.58916">
        <ele>1418</ele>
        <time>2020-01-05T09:22:58.000Z</time>
      </trkpt>
      <trkpt lat="42.76406" lon="1.58916">
        <ele>1418</ele>
        <time>2020-01-05T09:23:00.000Z</time>
      </trkpt>
      <trkpt lat="42.76406" lon="1.58916">
        <ele>1418</ele>
        <time>2020-01-05T09:23:02.000Z</time>
      </trkpt>
      <trkpt lat="42.76405" lon="1.58916">
        <ele>1418</ele>
        <time>2020-01-05T09:23:04.000Z</time>
      </trkpt>
      <trkpt lat="42.76405" lon="1.58916">
        <ele>1419</ele>
        <time>2020-01-05T09:23:06.000Z</time>
      </trkpt>
      <trkpt lat="42.76404" lon="1.58917">
        <ele>1419</ele>
        <time>2020-01-05T09:23:08.000Z</time>
      </trkpt>
      <trkpt lat="42.76403" lon="1.58917">
        <ele>1419</ele>
        <time>2020-01-05T09:23:10.000Z</time>
      </trkpt>
      <trkpt lat="42.76403" lon="1.58917">
        <ele>1419</ele>
        <time>2020-01-05T09:23:12.000Z</time>
      </trkpt>
      <trkpt lat="42.76402" lon="1.58918">
        <ele>1419</ele>
        <time>2020-01-05T09:23:14.000Z</time>
      </trkpt>
      <trkpt lat="42.76401" lon="1.58919">
        <ele>1420</ele>
        <time>2020-01-05T09:23:16.000Z</time>
      </trkpt>
      <trkpt lat="42.76401" lon="1.58919">
        <ele>1420</ele>
        <time>2020-01-05T09:23:18.000Z</time>
      </trkpt>
      <trkpt lat="42.764" lon="1.58919">
        <ele>1420</ele>
        <time>2020-01-05T09:23:20.000Z</time>
      </trkpt>
      <trkpt lat="42.76399" lon="1.5892">
        <ele>1420</ele>
        <time>2020-01-05T09:23:22.000Z</time>
      </trkpt>
      <trkpt lat="42.76399" lon="1.5892">
        <ele>1420</ele>
        <time>2020-01-05T09:23:24.000Z</time>
      </trkpt>
      <trkpt lat="42.76398" lon="1.5892">
        <ele>1421</ele>
        <time>2020-01-05T09:23:26.000Z</time>
      </trkpt>
      <trkpt lat="42.76397" lon="1.5892">
        <ele>1421</ele>
        <time>2020-01-05T09:23:28.000Z</time>
      </trkpt>
      <trkpt lat="42.76396" lon="1.5892">
        <ele>1421</ele>
        <time>2020-01-05T09:23:30.000Z</time>
      </trkpt>
      <trkpt lat="42.76396" lon="1.5892">
        <ele>1421</ele>
        <time>2020-01-05T09:23:32.000Z</time>
      </trkpt>
      <trkpt lat="42.76396" lon="1.5892">
        <ele>1421</ele>
        <time>2020-01-05T09:23:34.000Z</time>
      </trkpt>
      <trkpt lat="42.76396" lon="1.5892">
        <ele>1421</ele>
        <time>2020-01-05T09:23:36.000Z</time>
      </trkpt>
      <trkpt lat="42.76396" lon="1.5892">
        <ele>1421</ele>
        <time>2020-01-05T09:23:38.000Z</time>
      </trkpt>
      <trkpt lat="42.76397" lon="1.5892">
        <ele>1421</ele>
        <time>2020-01-05T09:23:40.000Z</time>
      </trkpt>
      <trkpt lat="42.76398" lon="1.5892">
        <ele>1421</ele>
        <time>2020-01-05T09:23:42.000Z</time>
      </trkpt>
      <trkpt lat="42.76398" lon="1.58921">
        <ele>1420</ele>
        <time>2020-01-05T09:23:44.000Z</time>
      </trkpt>
      <trkpt lat="42.76399" lon="1.58921">
        <ele>1420</ele>
        <time>2020-01-05T09:23:46.000Z</time>
      </trkpt>
      <trkpt lat="42.76399" lon="1.58922">
        <ele>1421</ele>
        <time>2020-01-05T09:23:48.000Z</time>
      </trkpt>
      <trkpt lat="42.76399" lon="1.58923">
        <ele>1421</ele>
        <time>2020-01-05T09:23:50.000Z</time>
      </trkpt>
      <trkpt lat="42.76399" lon="1.58924">
        <ele>1421</ele>
        <time>2020-01-05T09:23:52.000Z</time>
      </trkpt>
      <trkpt lat="42.76399" lon="1.58925">
        <ele>1421</ele>
        <time>2020-01-05T09:23:54.000Z</time>
      </trkpt>
      <trkpt lat="42.76399" lon="1.58925">
        <ele>1421</ele>
        <time>2020-01-05T09:23:56.000Z</time>
      </trkpt>
      <trkpt lat="42.76399" lon="1.58926">
        <ele>1421</ele>
        <time>2020-01-05T09:23:58.000Z</time>
      </trkpt>
      <trkpt lat="42.76399" lon="1.58925">
        <ele>1421</ele>
        <time>2020-01-05T09:24:00.000Z</time>
      </trkpt>
      <trkpt lat="42.764" lon="1.58926">
        <ele>1421</ele>
        <time>2020-01-05T09:24:02.000Z</time>
      </trkpt>
      <trkpt lat="42.76401" lon="1.58927">
        <ele>1421</ele>
        <time>2020-01-05T09:24:04.000Z</time>
      </trkpt>
      <trkpt lat="42.76401" lon="1.58927">
        <ele>1421</ele>
        <time>2020-01-05T09:24:06.000Z</time>
      </trkpt>
      <trkpt lat="42.76401" lon="1.58927">
        <ele>1421</ele>
        <time>2020-01-05T09:24:08.000Z</time>
      </trkpt>
      <trkpt lat="42.76402" lon="1.58928">
        <ele>1421</ele>
        <time>2020-01-05T09:24:10.000Z</time>
      </trkpt>
      <trkpt lat="42.76402" lon="1.58929">
        <ele>1421</ele>
        <time>2020-01-05T09:24:12.000Z</time>
      </trkpt>
      <trkpt lat="42.76402" lon="1.58929">
        <ele>1421</ele>
        <time>2020-01-05T09:24:14.000Z</time>
      </trkpt>
      <trkpt lat="42.76402" lon="1.58929">
        <ele>1421</ele>
        <time>2020-01-05T09:24:16.000Z</time>
      </trkpt>
      <trkpt lat="42.76402" lon="1.5893">
        <ele>1421</ele>
        <time>2020-01-05T09:24:18.000Z</time>
      </trkpt>
      <trkpt lat="42.76402" lon="1.58931">
        <ele>1421</ele>
        <time>2020-01-05T09:24:20.000Z</time>
      </trkpt>
      <trkpt lat="42.76402" lon="1.58932">
        <ele>1421</ele>
        <time>2020-01-05T09:24:22.000Z</time>
      </trkpt>
      <trkpt lat="42.76402" lon="1.58933">
        <ele>1421</ele>
        <time>2020-01-05T09:24:24.000Z</time>
      </trkpt>
      <trkpt lat="42.76402" lon="1.58933">
        <ele>1421</ele>
        <time>2020-01-05T09:24:26.000Z</time>
      </trkpt>
      <trkpt lat="42.76403" lon="1.58935">
        <ele>1421</ele>
        <time>2020-01-05T09:24:28.000Z</time>
      </trkpt>
      <trkpt lat="42.76403" lon="1.58936">
        <ele>1421</ele>
        <time>2020-01-05T09:24:30.000Z</time>
      </trkpt>
      <trkpt lat="42.76403" lon="1.58937">
        <ele>1421</ele>
        <time>2020-01-05T09:24:32.000Z</time>
      </trkpt>
      <trkpt lat="42.76403" lon="1.58938">
        <ele>1422</ele>
        <time>2020-01-05T09:24:34.000Z</time>
      </trkpt>
      <trkpt lat="42.76403" lon="1.58939">
        <ele>1422</ele>
        <time>2020-01-05T09:24:36.000Z</time>
      </trkpt>
      <trkpt lat="42.76403" lon="1.58939">
        <ele>1422</ele>
        <time>2020-01-05T09:24:38.000Z</time>
      </trkpt>
      <trkpt lat="42.76402" lon="1.58939">
        <ele>1422</ele>
        <time>2020-01-05T09:24:40.000Z</time>
      </trkpt>
      <trkpt lat="42.76403" lon="1.5894">
        <ele>1422</ele>
        <time>2020-01-05T09:24:42.000Z</time>
      </trkpt>
      <trkpt lat="42.76403" lon="1.58941">
        <ele>1422</ele>
        <time>2020-01-05T09:24:44.000Z</time>
      </trkpt>
      <trkpt lat="42.76403" lon="1.58942">
        <ele>1422</ele>
        <time>2020-01-05T09:24:46.000Z</time>
      </trkpt>
      <trkpt lat="42.76403" lon="1.58943">
        <ele>1422</ele>
        <time>2020-01-05T09:24:48.000Z</time>
      </trkpt>
      <trkpt lat="42.76403" lon="1.58944">
        <ele>1422</ele>
        <time>2020-01-05T09:24:50.000Z</time>
      </trkpt>
      <trkpt lat="42.76403" lon="1.58945">
        <ele>1422</ele>
        <time>2020-01-05T09:24:52.000Z</time>
      </trkpt>
      <trkpt lat="42.76403" lon="1.58946">
        <ele>1422</ele>
        <time>2020-01-05T09:24:54.000Z</time>
      </trkpt>
      <trkpt lat="42.76403" lon="1.58948">
        <ele>1423</ele>
        <time>2020-01-05T09:24:56.000Z</time>
      </trkpt>
      <trkpt lat="42.76403" lon="1.58949">
        <ele>1423</ele>
        <time>2020-01-05T09:24:58.000Z</time>
      </trkpt>
      <trkpt lat="42.76403" lon="1.5895">
        <ele>1423</ele>
        <time>2020-01-05T09:25:00.000Z</time>
      </trkpt>
      <trkpt lat="42.76404" lon="1.58951">
        <ele>1423</ele>
        <time>2020-01-05T09:25:02.000Z</time>
      </trkpt>
      <trkpt lat="42.76404" lon="1.58952">
        <ele>1423</ele>
        <time>2020-01-05T09:25:04.000Z</time>
      </trkpt>
      <trkpt lat="42.76404" lon="1.58953">
        <ele>1423</ele>
        <time>2020-01-05T09:25:06.000Z</time>
      </trkpt>
      <trkpt lat="42.76404" lon="1.58954">
        <ele>1423</ele>
        <time>2020-01-05T09:25:08.000Z</time>
      </trkpt>
      <trkpt lat="42.76404" lon="1.58955">
        <ele>1423</ele>
        <time>2020-01-05T09:25:10.000Z</time>
      </trkpt>
      <trkpt lat="42.76403" lon="1.58956">
        <ele>1424</ele>
        <time>2020-01-05T09:25:12.000Z</time>
      </trkpt>
      <trkpt lat="42.76403" lon="1.58956">
        <ele>1424</ele>
        <time>2020-01-05T09:25:14.000Z</time>
      </trkpt>
      <trkpt lat="42.76403" lon="1.58957">
        <ele>1424</ele>
        <time>2020-01-05T09:25:16.000Z</time>
      </trkpt>
      <trkpt lat="42.76402" lon="1.58958">
        <ele>1424</ele>
        <time>2020-01-05T09:25:18.000Z</time>
      </trkpt>
      <trkpt lat="42.76402" lon="1.58958">
        <ele>1424</ele>
        <time>2020-01-05T09:25:20.000Z</time>
      </trkpt>
      <trkpt lat="42.76401" lon="1.58959">
        <ele>1425</ele>
        <time>2020-01-05T09:25:22.000Z</time>
      </trkpt>
      <trkpt lat="42.764" lon="1.58959">
        <ele>1425</ele>
        <time>2020-01-05T09:25:24.000Z</time>
      </trkpt>
      <trkpt lat="42.764" lon="1.58958">
        <ele>1425</ele>
        <time>2020-01-05T09:25:26.000Z</time>
      </trkpt>
      <trkpt lat="42.76399" lon="1.58958">
        <ele>1425</ele>
        <time>2020-01-05T09:25:28.000Z</time>
      </trkpt>
      <trkpt lat="42.76398" lon="1.58958">
        <ele>1425</ele>
        <time>2020-01-05T09:25:30.000Z</time>
      </trkpt>
      <trkpt lat="42.76397" lon="1.58958">
        <ele>1425</ele>
        <time>2020-01-05T09:25:32.000Z</time>
      </trkpt>
      <trkpt lat="42.76396" lon="1.58958">
        <ele>1425</ele>
        <time>2020-01-05T09:25:34.000Z</time>
      </trkpt>
      <trkpt lat="42.76395" lon="1.58959">
        <ele>1426</ele>
        <time>2020-01-05T09:25:36.000Z</time>
      </trkpt>
      <trkpt lat="42.76394" lon="1.5896">
        <ele>1426</ele>
        <time>2020-01-05T09:25:38.000Z</time>
      </trkpt>
      <trkpt lat="42.76394" lon="1.5896">
        <ele>1426</ele>
        <time>2020-01-05T09:25:40.000Z</time>
      </trkpt>
      <trkpt lat="42.76393" lon="1.5896">
        <ele>1427</ele>
        <time>2020-01-05T09:25:42.000Z</time>
      </trkpt>
      <trkpt lat="42.76392" lon="1.58961">
        <ele>1427</ele>
        <time>2020-01-05T09:25:44.000Z</time>
      </trkpt>
      <trkpt lat="42.76392" lon="1.5896">
        <ele>1427</ele>
        <time>2020-01-05T09:25:46.000Z</time>
      </trkpt>
      <trkpt lat="42.76392" lon="1.58961">
        <ele>1427</ele>
        <time>2020-01-05T09:25:48.000Z</time>
      </trkpt>
      <trkpt lat="42.76391" lon="1.58961">
        <ele>1428</ele>
        <time>2020-01-05T09:25:50.000Z</time>
      </trkpt>
      <trkpt lat="42.7639" lon="1.58962">
        <ele>1428</ele>
        <time>2020-01-05T09:25:52.000Z</time>
      </trkpt>
      <trkpt lat="42.76388" lon="1.58962">
        <ele>1429</ele>
        <time>2020-01-05T09:25:54.000Z</time>
      </trkpt>
      <trkpt lat="42.76388" lon="1.58962">
        <ele>1429</ele>
        <time>2020-01-05T09:25:56.000Z</time>
      </trkpt>
      <trkpt lat="42.76387" lon="1.58962">
        <ele>1429</ele>
        <time>2020-01-05T09:25:58.000Z</time>
      </trkpt>
      <trkpt lat="42.76386" lon="1.58963">
        <ele>1429</ele>
        <time>2020-01-05T09:26:00.000Z</time>
      </trkpt>
      <trkpt lat="42.76386" lon="1.58962">
        <ele>1430</ele>
        <time>2020-01-05T09:26:02.000Z</time>
      </trkpt>
      <trkpt lat="42.76385" lon="1.58963">
        <ele>1430</ele>
        <time>2020-01-05T09:26:04.000Z</time>
      </trkpt>
      <trkpt lat="42.76383" lon="1.58963">
        <ele>1431</ele>
        <time>2020-01-05T09:26:06.000Z</time>
      </trkpt>
      <trkpt lat="42.76382" lon="1.58964">
        <ele>1431</ele>
        <time>2020-01-05T09:26:08.000Z</time>
      </trkpt>
      <trkpt lat="42.76381" lon="1.58964">
        <ele>1432</ele>
        <time>2020-01-05T09:26:10.000Z</time>
      </trkpt>
      <trkpt lat="42.76379" lon="1.58964">
        <ele>1432</ele>
        <time>2020-01-05T09:26:12.000Z</time>
      </trkpt>
      <trkpt lat="42.76377" lon="1.58963">
        <ele>1433</ele>
        <time>2020-01-05T09:26:14.000Z</time>
      </trkpt>
      <trkpt lat="42.76375" lon="1.58964">
        <ele>1433</ele>
        <time>2020-01-05T09:26:16.000Z</time>
      </trkpt>
      <trkpt lat="42.76374" lon="1.58964">
        <ele>1434</ele>
        <time>2020-01-05T09:26:18.000Z</time>
      </trkpt>
      <trkpt lat="42.76372" lon="1.58964">
        <ele>1434</ele>
        <time>2020-01-05T09:26:20.000Z</time>
      </trkpt>
      <trkpt lat="42.76371" lon="1.58964">
        <ele>1435</ele>
        <time>2020-01-05T09:26:22.000Z</time>
      </trkpt>
      <trkpt lat="42.7637" lon="1.58964">
        <ele>1435</ele>
        <time>2020-01-05T09:26:24.000Z</time>
      </trkpt>
      <trkpt lat="42.76368" lon="1.58964">
        <ele>1436</ele>
        <time>2020-01-05T09:26:26.000Z</time>
      </trkpt>
      <trkpt lat="42.76367" lon="1.58964">
        <ele>1436</ele>
        <time>2020-01-05T09:26:28.000Z</time>
      </trkpt>
      <trkpt lat="42.76366" lon="1.58964">
        <ele>1436</ele>
        <time>2020-01-05T09:26:30.000Z</time>
      </trkpt>
      <trkpt lat="42.76365" lon="1.58965">
        <ele>1437</ele>
        <time>2020-01-05T09:26:32.000Z</time>
      </trkpt>
      <trkpt lat="42.76364" lon="1.58965">
        <ele>1437</ele>
        <time>2020-01-05T09:26:34.000Z</time>
      </trkpt>
      <trkpt lat="42.76363" lon="1.58965">
        <ele>1438</ele>
        <time>2020-01-05T09:26:36.000Z</time>
      </trkpt>
      <trkpt lat="42.76362" lon="1.58965">
        <ele>1438</ele>
        <time>2020-01-05T09:26:38.000Z</time>
      </trkpt>
      <trkpt lat="42.7636" lon="1.58966">
        <ele>1439</ele>
        <time>2020-01-05T09:26:40.000Z</time>
      </trkpt>
      <trkpt lat="42.76359" lon="1.58967">
        <ele>1439</ele>
        <time>2020-01-05T09:26:42.000Z</time>
      </trkpt>
      <trkpt lat="42.76358" lon="1.58968">
        <ele>1440</ele>
        <time>2020-01-05T09:26:44.000Z</time>
      </trkpt>
      <trkpt lat="42.76356" lon="1.58968">
        <ele>1440</ele>
        <time>2020-01-05T09:26:46.000Z</time>
      </trkpt>
      <trkpt lat="42.76355" lon="1.58968">
        <ele>1441</ele>
        <time>2020-01-05T09:26:48.000Z</time>
      </trkpt>
      <trkpt lat="42.76354" lon="1.58969">
        <ele>1441</ele>
        <time>2020-01-05T09:26:50.000Z</time>
      </trkpt>
      <trkpt lat="42.76353" lon="1.58969">
        <ele>1442</ele>
        <time>2020-01-05T09:26:52.000Z</time>
      </trkpt>
      <trkpt lat="42.76352" lon="1.5897">
        <ele>1442</ele>
        <time>2020-01-05T09:26:54.000Z</time>
      </trkpt>
      <trkpt lat="42.76351" lon="1.58971">
        <ele>1443</ele>
        <time>2020-01-05T09:26:56.000Z</time>
      </trkpt>
      <trkpt lat="42.7635" lon="1.58971">
        <ele>1443</ele>
        <time>2020-01-05T09:26:58.000Z</time>
      </trkpt>
      <trkpt lat="42.76349" lon="1.58972">
        <ele>1444</ele>
        <time>2020-01-05T09:27:00.000Z</time>
      </trkpt>
      <trkpt lat="42.76349" lon="1.58973">
        <ele>1444</ele>
        <time>2020-01-05T09:27:02.000Z</time>
      </trkpt>
      <trkpt lat="42.76348" lon="1.58973">
        <ele>1444</ele>
        <time>2020-01-05T09:27:04.000Z</time>
      </trkpt>
      <trkpt lat="42.76347" lon="1.58975">
        <ele>1445</ele>
        <time>2020-01-05T09:27:06.000Z</time>
      </trkpt>
      <trkpt lat="42.76345" lon="1.58975">
        <ele>1445</ele>
        <time>2020-01-05T09:27:08.000Z</time>
      </trkpt>
      <trkpt lat="42.76344" lon="1.58976">
        <ele>1446</ele>
        <time>2020-01-05T09:27:10.000Z</time>
      </trkpt>
      <trkpt lat="42.76343" lon="1.58976">
        <ele>1447</ele>
        <time>2020-01-05T09:27:12.000Z</time>
      </trkpt>
      <trkpt lat="42.76342" lon="1.58977">
        <ele>1447</ele>
        <time>2020-01-05T09:27:14.000Z</time>
      </trkpt>
      <trkpt lat="42.7634" lon="1.58977">
        <ele>1448</ele>
        <time>2020-01-05T09:27:16.000Z</time>
      </trkpt>
      <trkpt lat="42.76338" lon="1.58979">
        <ele>1448</ele>
        <time>2020-01-05T09:27:18.000Z</time>
      </trkpt>
      <trkpt lat="42.76337" lon="1.5898">
        <ele>1449</ele>
        <time>2020-01-05T09:27:20.000Z</time>
      </trkpt>
      <trkpt lat="42.76336" lon="1.58981">
        <ele>1450</ele>
        <time>2020-01-05T09:27:22.000Z</time>
      </trkpt>
      <trkpt lat="42.76335" lon="1.58982">
        <ele>1450</ele>
        <time>2020-01-05T09:27:24.000Z</time>
      </trkpt>
      <trkpt lat="42.76334" lon="1.58983">
        <ele>1451</ele>
        <time>2020-01-05T09:27:26.000Z</time>
      </trkpt>
      <trkpt lat="42.76333" lon="1.58984">
        <ele>1451</ele>
        <time>2020-01-05T09:27:28.000Z</time>
      </trkpt>
      <trkpt lat="42.76332" lon="1.58984">
        <ele>1452</ele>
        <time>2020-01-05T09:27:30.000Z</time>
      </trkpt>
      <trkpt lat="42.76331" lon="1.58985">
        <ele>1452</ele>
        <time>2020-01-05T09:27:32.000Z</time>
      </trkpt>
      <trkpt lat="42.7633" lon="1.58986">
        <ele>1452</ele>
        <time>2020-01-05T09:27:34.000Z</time>
      </trkpt>
      <trkpt lat="42.76329" lon="1.58986">
        <ele>1453</ele>
        <time>2020-01-05T09:27:36.000Z</time>
      </trkpt>
      <trkpt lat="42.76328" lon="1.58987">
        <ele>1453</ele>
        <time>2020-01-05T09:27:38.000Z</time>
      </trkpt>
      <trkpt lat="42.76327" lon="1.58987">
        <ele>1453</ele>
        <time>2020-01-05T09:27:40.000Z</time>
      </trkpt>
      <trkpt lat="42.76326" lon="1.58987">
        <ele>1454</ele>
        <time>2020-01-05T09:27:42.000Z</time>
      </trkpt>
      <trkpt lat="42.76325" lon="1.58988">
        <ele>1454</ele>
        <time>2020-01-05T09:27:44.000Z</time>
      </trkpt>
      <trkpt lat="42.76324" lon="1.58988">
        <ele>1454</ele>
        <time>2020-01-05T09:27:46.000Z</time>
      </trkpt>
      <trkpt lat="42.76323" lon="1.58989">
        <ele>1454</ele>
        <time>2020-01-05T09:27:48.000Z</time>
      </trkpt>
      <trkpt lat="42.76322" lon="1.58989">
        <ele>1455</ele>
        <time>2020-01-05T09:27:50.000Z</time>
      </trkpt>
      <trkpt lat="42.76321" lon="1.58989">
        <ele>1455</ele>
        <time>2020-01-05T09:27:52.000Z</time>
      </trkpt>
      <trkpt lat="42.7632" lon="1.58989">
        <ele>1455</ele>
        <time>2020-01-05T09:27:54.000Z</time>
      </trkpt>
      <trkpt lat="42.76319" lon="1.58989">
        <ele>1455</ele>
        <time>2020-01-05T09:27:56.000Z</time>
      </trkpt>
      <trkpt lat="42.76319" lon="1.5899">
        <ele>1456</ele>
        <time>2020-01-05T09:27:58.000Z</time>
      </trkpt>
      <trkpt lat="42.76318" lon="1.58989">
        <ele>1456</ele>
        <time>2020-01-05T09:28:00.000Z</time>
      </trkpt>
      <trkpt lat="42.76318" lon="1.5899">
        <ele>1456</ele>
        <time>2020-01-05T09:28:02.000Z</time>
      </trkpt>
      <trkpt lat="42.76317" lon="1.58991">
        <ele>1456</ele>
        <time>2020-01-05T09:28:04.000Z</time>
      </trkpt>
      <trkpt lat="42.76316" lon="1.58991">
        <ele>1457</ele>
        <time>2020-01-05T09:28:06.000Z</time>
      </trkpt>
      <trkpt lat="42.76315" lon="1.58992">
        <ele>1457</ele>
        <time>2020-01-05T09:28:08.000Z</time>
      </trkpt>
      <trkpt lat="42.76314" lon="1.58993">
        <ele>1457</ele>
        <time>2020-01-05T09:28:10.000Z</time>
      </trkpt>
      <trkpt lat="42.76313" lon="1.58993">
        <ele>1457</ele>
        <time>2020-01-05T09:28:12.000Z</time>
      </trkpt>
      <trkpt lat="42.76312" lon="1.58993">
        <ele>1457</ele>
        <time>2020-01-05T09:28:14.000Z</time>
      </trkpt>
      <trkpt lat="42.76311" lon="1.58994">
        <ele>1458</ele>
        <time>2020-01-05T09:28:16.000Z</time>
      </trkpt>
      <trkpt lat="42.76311" lon="1.58994">
        <ele>1458</ele>
        <time>2020-01-05T09:28:18.000Z</time>
      </trkpt>
      <trkpt lat="42.7631" lon="1.58994">
        <ele>1458</ele>
        <time>2020-01-05T09:28:20.000Z</time>
      </trkpt>
      <trkpt lat="42.76309" lon="1.58995">
        <ele>1458</ele>
        <time>2020-01-05T09:28:22.000Z</time>
      </trkpt>
      <trkpt lat="42.76309" lon="1.58996">
        <ele>1458</ele>
        <time>2020-01-05T09:28:24.000Z</time>
      </trkpt>
      <trkpt lat="42.76308" lon="1.58997">
        <ele>1459</ele>
        <time>2020-01-05T09:28:26.000Z</time>
      </trkpt>
      <trkpt lat="42.76307" lon="1.58997">
        <ele>1459</ele>
        <time>2020-01-05T09:28:28.000Z</time>
      </trkpt>
      <trkpt lat="42.76307" lon="1.58997">
        <ele>1459</ele>
        <time>2020-01-05T09:28:30.000Z</time>
      </trkpt>
      <trkpt lat="42.76306" lon="1.58998">
        <ele>1459</ele>
        <time>2020-01-05T09:28:32.000Z</time>
      </trkpt>
      <trkpt lat="42.76306" lon="1.58998">
        <ele>1459</ele>
        <time>2020-01-05T09:28:34.000Z</time>
      </trkpt>
      <trkpt lat="42.76306" lon="1.58999">
        <ele>1459</ele>
        <time>2020-01-05T09:28:36.000Z</time>
      </trkpt>
      <trkpt lat="42.76305" lon="1.59">
        <ele>1459</ele>
        <time>2020-01-05T09:28:38.000Z</time>
      </trkpt>
      <trkpt lat="42.76304" lon="1.59">
        <ele>1460</ele>
        <time>2020-01-05T09:28:40.000Z</time>
      </trkpt>
      <trkpt lat="42.76304" lon="1.59">
        <ele>1460</ele>
        <time>2020-01-05T09:28:42.000Z</time>
      </trkpt>
      <trkpt lat="42.76303" lon="1.59">
        <ele>1460</ele>
        <time>2020-01-05T09:28:44.000Z</time>
      </trkpt>
      <trkpt lat="42.76302" lon="1.59">
        <ele>1460</ele>
        <time>2020-01-05T09:28:46.000Z</time>
      </trkpt>
      <trkpt lat="42.76301" lon="1.59">
        <ele>1460</ele>
        <time>2020-01-05T09:28:48.000Z</time>
      </trkpt>
      <trkpt lat="42.763" lon="1.59">
        <ele>1461</ele>
        <time>2020-01-05T09:28:50.000Z</time>
      </trkpt>
      <trkpt lat="42.76299" lon="1.59001">
        <ele>1461</ele>
        <time>2020-01-05T09:28:52.000Z</time>
      </trkpt>
      <trkpt lat="42.76298" lon="1.59001">
        <ele>1461</ele>
        <time>2020-01-05T09:28:54.000Z</time>
      </trkpt>
      <trkpt lat="42.76297" lon="1.59002">
        <ele>1462</ele>
        <time>2020-01-05T09:28:56.000Z</time>
      </trkpt>
      <trkpt lat="42.76297" lon="1.59002">
        <ele>1462</ele>
        <time>2020-01-05T09:28:58.000Z</time>
      </trkpt>
      <trkpt lat="42.76297" lon="1.59002">
        <ele>1462</ele>
        <time>2020-01-05T09:29:00.000Z</time>
      </trkpt>
      <trkpt lat="42.76296" lon="1.59003">
        <ele>1462</ele>
        <time>2020-01-05T09:29:02.000Z</time>
      </trkpt>
      <trkpt lat="42.76295" lon="1.59003">
        <ele>1462</ele>
        <time>2020-01-05T09:29:04.000Z</time>
      </trkpt>
      <trkpt lat="42.76294" lon="1.59004">
        <ele>1463</ele>
        <time>2020-01-05T09:29:06.000Z</time>
      </trkpt>
      <trkpt lat="42.76292" lon="1.59004">
        <ele>1463</ele>
        <time>2020-01-05T09:29:08.000Z</time>
      </trkpt>
      <trkpt lat="42.76291" lon="1.59004">
        <ele>1463</ele>
        <time>2020-01-05T09:29:10.000Z</time>
      </trkpt>
      <trkpt lat="42.7629" lon="1.59005">
        <ele>1464</ele>
        <time>2020-01-05T09:29:12.000Z</time>
      </trkpt>
      <trkpt lat="42.76288" lon="1.59005">
        <ele>1464</ele>
        <time>2020-01-05T09:29:14.000Z</time>
      </trkpt>
      <trkpt lat="42.76287" lon="1.59006">
        <ele>1464</ele>
        <time>2020-01-05T09:29:16.000Z</time>
      </trkpt>
      <trkpt lat="42.76287" lon="1.59007">
        <ele>1464</ele>
        <time>2020-01-05T09:29:18.000Z</time>
      </trkpt>
      <trkpt lat="42.76287" lon="1.59007">
        <ele>1465</ele>
        <time>2020-01-05T09:29:20.000Z</time>
      </trkpt>
      <trkpt lat="42.76286" lon="1.59007">
        <ele>1465</ele>
        <time>2020-01-05T09:29:22.000Z</time>
      </trkpt>
      <trkpt lat="42.76285" lon="1.59007">
        <ele>1465</ele>
        <time>2020-01-05T09:29:24.000Z</time>
      </trkpt>
      <trkpt lat="42.76284" lon="1.59009">
        <ele>1465</ele>
        <time>2020-01-05T09:29:26.000Z</time>
      </trkpt>
      <trkpt lat="42.76284" lon="1.59009">
        <ele>1465</ele>
        <time>2020-01-05T09:29:28.000Z</time>
      </trkpt>
      <trkpt lat="42.76283" lon="1.5901">
        <ele>1466</ele>
        <time>2020-01-05T09:29:30.000Z</time>
      </trkpt>
      <trkpt lat="42.76283" lon="1.5901">
        <ele>1466</ele>
        <time>2020-01-05T09:29:32.000Z</time>
      </trkpt>
      <trkpt lat="42.76282" lon="1.5901">
        <ele>1466</ele>
        <time>2020-01-05T09:29:34.000Z</time>
      </trkpt>
      <trkpt lat="42.76281" lon="1.5901">
        <ele>1466</ele>
        <time>2020-01-05T09:29:36.000Z</time>
      </trkpt>
      <trkpt lat="42.7628" lon="1.59009">
        <ele>1466</ele>
        <time>2020-01-05T09:29:38.000Z</time>
      </trkpt>
      <trkpt lat="42.7628" lon="1.59009">
        <ele>1467</ele>
        <time>2020-01-05T09:29:40.000Z</time>
      </trkpt>
      <trkpt lat="42.7628" lon="1.59009">
        <ele>1467</ele>
        <time>2020-01-05T09:29:42.000Z</time>
      </trkpt>
      <trkpt lat="42.76279" lon="1.5901">
        <ele>1467</ele>
        <time>2020-01-05T09:29:44.000Z</time>
      </trkpt>
      <trkpt lat="42.76278" lon="1.5901">
        <ele>1467</ele>
        <time>2020-01-05T09:29:46.000Z</time>
      </trkpt>
      <trkpt lat="42.76277" lon="1.59011">
        <ele>1468</ele>
        <time>2020-01-05T09:29:48.000Z</time>
      </trkpt>
      <trkpt lat="42.76276" lon="1.59011">
        <ele>1468</ele>
        <time>2020-01-05T09:29:50.000Z</time>
      </trkpt>
      <trkpt lat="42.76276" lon="1.59012">
        <ele>1469</ele>
        <time>2020-01-05T09:29:52.000Z</time>
      </trkpt>
      <trkpt lat="42.76275" lon="1.59012">
        <ele>1469</ele>
        <time>2020-01-05T09:29:54.000Z</time>
      </trkpt>
      <trkpt lat="42.76274" lon="1.59013">
        <ele>1469</ele>
        <time>2020-01-05T09:29:56.000Z</time>
      </trkpt>
      <trkpt lat="42.76275" lon="1.59013">
        <ele>1469</ele>
        <time>2020-01-05T09:29:58.000Z</time>
      </trkpt>
      <trkpt lat="42.76274" lon="1.59014">
        <ele>1469</ele>
        <time>2020-01-05T09:30:00.000Z</time>
      </trkpt>
      <trkpt lat="42.76273" lon="1.59015">
        <ele>1470</ele>
        <time>2020-01-05T09:30:02.000Z</time>
      </trkpt>
      <trkpt lat="42.76273" lon="1.59015">
        <ele>1470</ele>
        <time>2020-01-05T09:30:04.000Z</time>
      </trkpt>
      <trkpt lat="42.76272" lon="1.59016">
        <ele>1470</ele>
        <time>2020-01-05T09:30:06.000Z</time>
      </trkpt>
      <trkpt lat="42.76272" lon="1.59016">
        <ele>1471</ele>
        <time>2020-01-05T09:30:08.000Z</time>
      </trkpt>
      <trkpt lat="42.76271" lon="1.59015">
        <ele>1471</ele>
        <time>2020-01-05T09:30:10.000Z</time>
      </trkpt>
      <trkpt lat="42.7627" lon="1.59015">
        <ele>1471</ele>
        <time>2020-01-05T09:30:12.000Z</time>
      </trkpt>
      <trkpt lat="42.76269" lon="1.59016">
        <ele>1472</ele>
        <time>2020-01-05T09:30:14.000Z</time>
      </trkpt>
      <trkpt lat="42.76269" lon="1.59016">
        <ele>1472</ele>
        <time>2020-01-05T09:30:16.000Z</time>
      </trkpt>
      <trkpt lat="42.76268" lon="1.59016">
        <ele>1472</ele>
        <time>2020-01-05T09:30:18.000Z</time>
      </trkpt>
      <trkpt lat="42.76267" lon="1.59016">
        <ele>1473</ele>
        <time>2020-01-05T09:30:20.000Z</time>
      </trkpt>
      <trkpt lat="42.76266" lon="1.59016">
        <ele>1473</ele>
        <time>2020-01-05T09:30:22.000Z</time>
      </trkpt>
      <trkpt lat="42.76266" lon="1.59015">
        <ele>1473</ele>
        <time>2020-01-05T09:30:24.000Z</time>
      </trkpt>
      <trkpt lat="42.76265" lon="1.59015">
        <ele>1474</ele>
        <time>2020-01-05T09:30:26.000Z</time>
      </trkpt>
      <trkpt lat="42.76265" lon="1.59015">
        <ele>1474</ele>
        <time>2020-01-05T09:30:28.000Z</time>
      </trkpt>
      <trkpt lat="42.76264" lon="1.59015">
        <ele>1474</ele>
        <time>2020-01-05T09:30:30.000Z</time>
      </trkpt>
      <trkpt lat="42.76264" lon="1.59014">
        <ele>1474</ele>
        <time>2020-01-05T09:30:32.000Z</time>
      </trkpt>
      <trkpt lat="42.76263" lon="1.59015">
        <ele>1474</ele>
        <time>2020-01-05T09:30:34.000Z</time>
      </trkpt>
      <trkpt lat="42.76262" lon="1.59014">
        <ele>1475</ele>
        <time>2020-01-05T09:30:36.000Z</time>
      </trkpt>
      <trkpt lat="42.76261" lon="1.59015">
        <ele>1475</ele>
        <time>2020-01-05T09:30:38.000Z</time>
      </trkpt>
      <trkpt lat="42.76261" lon="1.59015">
        <ele>1475</ele>
        <time>2020-01-05T09:30:40.000Z</time>
      </trkpt>
      <trkpt lat="42.76261" lon="1.59016">
        <ele>1475</ele>
        <time>2020-01-05T09:30:42.000Z</time>
      </trkpt>
      <trkpt lat="42.7626" lon="1.59016">
        <ele>1476</ele>
        <time>2020-01-05T09:30:44.000Z</time>
      </trkpt>
      <trkpt lat="42.7626" lon="1.59018">
        <ele>1476</ele>
        <time>2020-01-05T09:30:46.000Z</time>
      </trkpt>
      <trkpt lat="42.7626" lon="1.59018">
        <ele>1476</ele>
        <time>2020-01-05T09:30:48.000Z</time>
      </trkpt>
      <trkpt lat="42.76259" lon="1.59018">
        <ele>1476</ele>
        <time>2020-01-05T09:30:50.000Z</time>
      </trkpt>
      <trkpt lat="42.76258" lon="1.59019">
        <ele>1477</ele>
        <time>2020-01-05T09:30:52.000Z</time>
      </trkpt>
      <trkpt lat="42.76258" lon="1.59019">
        <ele>1477</ele>
        <time>2020-01-05T09:30:54.000Z</time>
      </trkpt>
      <trkpt lat="42.76258" lon="1.59019">
        <ele>1477</ele>
        <time>2020-01-05T09:30:56.000Z</time>
      </trkpt>
      <trkpt lat="42.76257" lon="1.59019">
        <ele>1477</ele>
        <time>2020-01-05T09:30:58.000Z</time>
      </trkpt>
      <trkpt lat="42.76256" lon="1.5902">
        <ele>1478</ele>
        <time>2020-01-05T09:31:00.000Z</time>
      </trkpt>
      <trkpt lat="42.76256" lon="1.5902">
        <ele>1478</ele>
        <time>2020-01-05T09:31:02.000Z</time>
      </trkpt>
      <trkpt lat="42.76255" lon="1.5902">
        <ele>1478</ele>
        <time>2020-01-05T09:31:04.000Z</time>
      </trkpt>
      <trkpt lat="42.76255" lon="1.5902">
        <ele>1479</ele>
        <time>2020-01-05T09:31:06.000Z</time>
      </trkpt>
      <trkpt lat="42.76254" lon="1.59021">
        <ele>1479</ele>
        <time>2020-01-05T09:31:08.000Z</time>
      </trkpt>
      <trkpt lat="42.76253" lon="1.59022">
        <ele>1479</ele>
        <time>2020-01-05T09:31:10.000Z</time>
      </trkpt>
      <trkpt lat="42.76252" lon="1.59022">
        <ele>1479</ele>
        <time>2020-01-05T09:31:12.000Z</time>
      </trkpt>
      <trkpt lat="42.7625" lon="1.59023">
        <ele>1479</ele>
        <time>2020-01-05T09:31:14.000Z</time>
      </trkpt>
      <trkpt lat="42.7625" lon="1.59022">
        <ele>1479</ele>
        <time>2020-01-05T09:31:16.000Z</time>
      </trkpt>
      <trkpt lat="42.76249" lon="1.59022">
        <ele>1479</ele>
        <time>2020-01-05T09:31:18.000Z</time>
      </trkpt>
      <trkpt lat="42.76248" lon="1.59021">
        <ele>1479</ele>
        <time>2020-01-05T09:31:20.000Z</time>
      </trkpt>
      <trkpt lat="42.76247" lon="1.59021">
        <ele>1480</ele>
        <time>2020-01-05T09:31:22.000Z</time>
      </trkpt>
      <trkpt lat="42.76247" lon="1.5902">
        <ele>1480</ele>
        <time>2020-01-05T09:31:24.000Z</time>
      </trkpt>
      <trkpt lat="42.76246" lon="1.5902">
        <ele>1480</ele>
        <time>2020-01-05T09:31:26.000Z</time>
      </trkpt>
      <trkpt lat="42.76245" lon="1.5902">
        <ele>1480</ele>
        <time>2020-01-05T09:31:28.000Z</time>
      </trkpt>
      <trkpt lat="42.76244" lon="1.59021">
        <ele>1480</ele>
        <time>2020-01-05T09:31:30.000Z</time>
      </trkpt>
      <trkpt lat="42.76243" lon="1.59021">
        <ele>1480</ele>
        <time>2020-01-05T09:31:32.000Z</time>
      </trkpt>
      <trkpt lat="42.76243" lon="1.5902">
        <ele>1480</ele>
        <time>2020-01-05T09:31:34.000Z</time>
      </trkpt>
      <trkpt lat="42.76243" lon="1.59021">
        <ele>1480</ele>
        <time>2020-01-05T09:31:36.000Z</time>
      </trkpt>
      <trkpt lat="42.76242" lon="1.59021">
        <ele>1480</ele>
        <time>2020-01-05T09:31:38.000Z</time>
      </trkpt>
      <trkpt lat="42.76242" lon="1.59022">
        <ele>1480</ele>
        <time>2020-01-05T09:31:40.000Z</time>
      </trkpt>
      <trkpt lat="42.76241" lon="1.59023">
        <ele>1480</ele>
        <time>2020-01-05T09:31:42.000Z</time>
      </trkpt>
      <trkpt lat="42.76241" lon="1.59023">
        <ele>1481</ele>
        <time>2020-01-05T09:31:44.000Z</time>
      </trkpt>
      <trkpt lat="42.7624" lon="1.59025">
        <ele>1481</ele>
        <time>2020-01-05T09:31:46.000Z</time>
      </trkpt>
      <trkpt lat="42.76239" lon="1.59026">
        <ele>1481</ele>
        <time>2020-01-05T09:31:48.000Z</time>
      </trkpt>
      <trkpt lat="42.76237" lon="1.59026">
        <ele>1481</ele>
        <time>2020-01-05T09:31:50.000Z</time>
      </trkpt>
      <trkpt lat="42.76236" lon="1.59027">
        <ele>1481</ele>
        <time>2020-01-05T09:31:52.000Z</time>
      </trkpt>
      <trkpt lat="42.76235" lon="1.59028">
        <ele>1482</ele>
        <time>2020-01-05T09:31:54.000Z</time>
      </trkpt>
      <trkpt lat="42.76234" lon="1.59029">
        <ele>1482</ele>
        <time>2020-01-05T09:31:56.000Z</time>
      </trkpt>
      <trkpt lat="42.76233" lon="1.5903">
        <ele>1482</ele>
        <time>2020-01-05T09:31:58.000Z</time>
      </trkpt>
      <trkpt lat="42.76232" lon="1.59031">
        <ele>1482</ele>
        <time>2020-01-05T09:32:00.000Z</time>
      </trkpt>
      <trkpt lat="42.7623" lon="1.59032">
        <ele>1483</ele>
        <time>2020-01-05T09:32:02.000Z</time>
      </trkpt>
      <trkpt lat="42.76229" lon="1.59032">
        <ele>1483</ele>
        <time>2020-01-05T09:32:04.000Z</time>
      </trkpt>
      <trkpt lat="42.76228" lon="1.59033">
        <ele>1483</ele>
        <time>2020-01-05T09:32:06.000Z</time>
      </trkpt>
      <trkpt lat="42.76227" lon="1.59033">
        <ele>1483</ele>
        <time>2020-01-05T09:32:08.000Z</time>
      </trkpt>
      <trkpt lat="42.76226" lon="1.59034">
        <ele>1483</ele>
        <time>2020-01-05T09:32:10.000Z</time>
      </trkpt>
      <trkpt lat="42.76225" lon="1.59035">
        <ele>1484</ele>
        <time>2020-01-05T09:32:12.000Z</time>
      </trkpt>
      <trkpt lat="42.76224" lon="1.59037">
        <ele>1484</ele>
        <time>2020-01-05T09:32:14.000Z</time>
      </trkpt>
      <trkpt lat="42.76224" lon="1.59038">
        <ele>1484</ele>
        <time>2020-01-05T09:32:16.000Z</time>
      </trkpt>
      <trkpt lat="42.76223" lon="1.59039">
        <ele>1484</ele>
        <time>2020-01-05T09:32:18.000Z</time>
      </trkpt>
      <trkpt lat="42.76222" lon="1.5904">
        <ele>1485</ele>
        <time>2020-01-05T09:32:20.000Z</time>
      </trkpt>
      <trkpt lat="42.76222" lon="1.59039">
        <ele>1485</ele>
        <time>2020-01-05T09:32:22.000Z</time>
      </trkpt>
      <trkpt lat="42.76221" lon="1.59039">
        <ele>1485</ele>
        <time>2020-01-05T09:32:24.000Z</time>
      </trkpt>
      <trkpt lat="42.76222" lon="1.59039">
        <ele>1485</ele>
        <time>2020-01-05T09:32:26.000Z</time>
      </trkpt>
      <trkpt lat="42.76221" lon="1.59039">
        <ele>1485</ele>
        <time>2020-01-05T09:32:28.000Z</time>
      </trkpt>
      <trkpt lat="42.76221" lon="1.59039">
        <ele>1485</ele>
        <time>2020-01-05T09:32:30.000Z</time>
      </trkpt>
      <trkpt lat="42.76221" lon="1.59039">
        <ele>1485</ele>
        <time>2020-01-05T09:32:32.000Z</time>
      </trkpt>
      <trkpt lat="42.76221" lon="1.59038">
        <ele>1485</ele>
        <time>2020-01-05T09:32:34.000Z</time>
      </trkpt>
      <trkpt lat="42.76222" lon="1.59038">
        <ele>1484</ele>
        <time>2020-01-05T09:32:36.000Z</time>
      </trkpt>
      <trkpt lat="42.76222" lon="1.59039">
        <ele>1484</ele>
        <time>2020-01-05T09:32:38.000Z</time>
      </trkpt>
      <trkpt lat="42.76222" lon="1.59039">
        <ele>1485</ele>
        <time>2020-01-05T09:32:40.000Z</time>
      </trkpt>
      <trkpt lat="42.76221" lon="1.5904">
        <ele>1485</ele>
        <time>2020-01-05T09:32:42.000Z</time>
      </trkpt>
      <trkpt lat="42.7622" lon="1.59041">
        <ele>1485</ele>
        <time>2020-01-05T09:32:44.000Z</time>
      </trkpt>
      <trkpt lat="42.7622" lon="1.59041">
        <ele>1485</ele>
        <time>2020-01-05T09:32:46.000Z</time>
      </trkpt>
      <trkpt lat="42.76219" lon="1.59041">
        <ele>1486</ele>
        <time>2020-01-05T09:32:48.000Z</time>
      </trkpt>
      <trkpt lat="42.76218" lon="1.59042">
        <ele>1486</ele>
        <time>2020-01-05T09:32:50.000Z</time>
      </trkpt>
      <trkpt lat="42.76217" lon="1.59043">
        <ele>1486</ele>
        <time>2020-01-05T09:32:52.000Z</time>
      </trkpt>
      <trkpt lat="42.76216" lon="1.59043">
        <ele>1487</ele>
        <time>2020-01-05T09:32:54.000Z</time>
      </trkpt>
      <trkpt lat="42.76215" lon="1.59044">
        <ele>1487</ele>
        <time>2020-01-05T09:32:56.000Z</time>
      </trkpt>
      <trkpt lat="42.76215" lon="1.59044">
        <ele>1487</ele>
        <time>2020-01-05T09:32:58.000Z</time>
      </trkpt>
      <trkpt lat="42.76215" lon="1.59044">
        <ele>1487</ele>
        <time>2020-01-05T09:33:00.000Z</time>
      </trkpt>
      <trkpt lat="42.76215" lon="1.59044">
        <ele>1487</ele>
        <time>2020-01-05T09:33:02.000Z</time>
      </trkpt>
      <trkpt lat="42.76215" lon="1.59044">
        <ele>1487</ele>
        <time>2020-01-05T09:33:04.000Z</time>
      </trkpt>
      <trkpt lat="42.76215" lon="1.59044">
        <ele>1487</ele>
        <time>2020-01-05T09:33:06.000Z</time>
      </trkpt>
      <trkpt lat="42.76215" lon="1.59045">
        <ele>1487</ele>
        <time>2020-01-05T09:33:08.000Z</time>
      </trkpt>
      <trkpt lat="42.76215" lon="1.59045">
        <ele>1487</ele>
        <time>2020-01-05T09:33:10.000Z</time>
      </trkpt>
      <trkpt lat="42.76215" lon="1.59045">
        <ele>1487</ele>
        <time>2020-01-05T09:33:12.000Z</time>
      </trkpt>
      <trkpt lat="42.76215" lon="1.59044">
        <ele>1487</ele>
        <time>2020-01-05T09:33:14.000Z</time>
      </trkpt>
      <trkpt lat="42.76216" lon="1.59044">
        <ele>1487</ele>
        <time>2020-01-05T09:33:16.000Z</time>
      </trkpt>
      <trkpt lat="42.76215" lon="1.59044">
        <ele>1487</ele>
        <time>2020-01-05T09:33:18.000Z</time>
      </trkpt>
      <trkpt lat="42.76215" lon="1.59045">
        <ele>1487</ele>
        <time>2020-01-05T09:33:20.000Z</time>
      </trkpt>
      <trkpt lat="42.76215" lon="1.59045">
        <ele>1487</ele>
        <time>2020-01-05T09:33:22.000Z</time>
      </trkpt>
      <trkpt lat="42.76215" lon="1.59045">
        <ele>1487</ele>
        <time>2020-01-05T09:33:24.000Z</time>
      </trkpt>
      <trkpt lat="42.76215" lon="1.59046">
        <ele>1487</ele>
        <time>2020-01-05T09:33:26.000Z</time>
      </trkpt>
      <trkpt lat="42.76215" lon="1.59046">
        <ele>1488</ele>
        <time>2020-01-05T09:33:28.000Z</time>
      </trkpt>
      <trkpt lat="42.76215" lon="1.59046">
        <ele>1488</ele>
        <time>2020-01-05T09:33:30.000Z</time>
      </trkpt>
      <trkpt lat="42.76215" lon="1.59046">
        <ele>1488</ele>
        <time>2020-01-05T09:33:32.000Z</time>
      </trkpt>
      <trkpt lat="42.76215" lon="1.59046">
        <ele>1488</ele>
        <time>2020-01-05T09:33:34.000Z</time>
      </trkpt>
      <trkpt lat="42.76215" lon="1.59046">
        <ele>1488</ele>
        <time>2020-01-05T09:33:36.000Z</time>
      </trkpt>
      <trkpt lat="42.76215" lon="1.59045">
        <ele>1487</ele>
        <time>2020-01-05T09:33:38.000Z</time>
      </trkpt>
      <trkpt lat="42.76215" lon="1.59045">
        <ele>1487</ele>
        <time>2020-01-05T09:33:40.000Z</time>
      </trkpt>
      <trkpt lat="42.76216" lon="1.59044">
        <ele>1487</ele>
        <time>2020-01-05T09:33:42.000Z</time>
      </trkpt>
      <trkpt lat="42.76216" lon="1.59043">
        <ele>1487</ele>
        <time>2020-01-05T09:33:44.000Z</time>
      </trkpt>
      <trkpt lat="42.76217" lon="1.59043">
        <ele>1487</ele>
        <time>2020-01-05T09:33:46.000Z</time>
      </trkpt>
      <trkpt lat="42.76216" lon="1.59044">
        <ele>1487</ele>
        <time>2020-01-05T09:33:48.000Z</time>
      </trkpt>
      <trkpt lat="42.76216" lon="1.59044">
        <ele>1487</ele>
        <time>2020-01-05T09:33:50.000Z</time>
      </trkpt>
      <trkpt lat="42.76215" lon="1.59045">
        <ele>1487</ele>
        <time>2020-01-05T09:33:52.000Z</time>
      </trkpt>
      <trkpt lat="42.76215" lon="1.59045">
        <ele>1487</ele>
        <time>2020-01-05T09:33:54.000Z</time>
      </trkpt>
      <trkpt lat="42.76215" lon="1.59046">
        <ele>1488</ele>
        <time>2020-01-05T09:33:56.000Z</time>
      </trkpt>
      <trkpt lat="42.76214" lon="1.59047">
        <ele>1488</ele>
        <time>2020-01-05T09:33:58.000Z</time>
      </trkpt>
      <trkpt lat="42.76214" lon="1.59047">
        <ele>1488</ele>
        <time>2020-01-05T09:34:00.000Z</time>
      </trkpt>
      <trkpt lat="42.76214" lon="1.59048">
        <ele>1488</ele>
        <time>2020-01-05T09:34:02.000Z</time>
      </trkpt>
      <trkpt lat="42.76214" lon="1.59048">
        <ele>1488</ele>
        <time>2020-01-05T09:34:04.000Z</time>
      </trkpt>
      <trkpt lat="42.76214" lon="1.59048">
        <ele>1488</ele>
        <time>2020-01-05T09:34:06.000Z</time>
      </trkpt>
      <trkpt lat="42.76214" lon="1.59049">
        <ele>1488</ele>
        <time>2020-01-05T09:34:08.000Z</time>
      </trkpt>
      <trkpt lat="42.76214" lon="1.59049">
        <ele>1488</ele>
        <time>2020-01-05T09:34:10.000Z</time>
      </trkpt>
      <trkpt lat="42.76214" lon="1.59047">
        <ele>1488</ele>
        <time>2020-01-05T09:34:12.000Z</time>
      </trkpt>
      <trkpt lat="42.76214" lon="1.59047">
        <ele>1488</ele>
        <time>2020-01-05T09:34:14.000Z</time>
      </trkpt>
      <trkpt lat="42.76214" lon="1.59047">
        <ele>1488</ele>
        <time>2020-01-05T09:34:16.000Z</time>
      </trkpt>
      <trkpt lat="42.76214" lon="1.59047">
        <ele>1488</ele>
        <time>2020-01-05T09:34:18.000Z</time>
      </trkpt>
      <trkpt lat="42.76214" lon="1.59046">
        <ele>1488</ele>
        <time>2020-01-05T09:34:20.000Z</time>
      </trkpt>
      <trkpt lat="42.76213" lon="1.59047">
        <ele>1488</ele>
        <time>2020-01-05T09:34:22.000Z</time>
      </trkpt>
      <trkpt lat="42.76212" lon="1.59049">
        <ele>1489</ele>
        <time>2020-01-05T09:34:24.000Z</time>
      </trkpt>
      <trkpt lat="42.76212" lon="1.5905">
        <ele>1489</ele>
        <time>2020-01-05T09:34:26.000Z</time>
      </trkpt>
      <trkpt lat="42.76211" lon="1.59051">
        <ele>1489</ele>
        <time>2020-01-05T09:34:28.000Z</time>
      </trkpt>
      <trkpt lat="42.7621" lon="1.59051">
        <ele>1489</ele>
        <time>2020-01-05T09:34:30.000Z</time>
      </trkpt>
      <trkpt lat="42.7621" lon="1.59051">
        <ele>1490</ele>
        <time>2020-01-05T09:34:32.000Z</time>
      </trkpt>
      <trkpt lat="42.76208" lon="1.59052">
        <ele>1490</ele>
        <time>2020-01-05T09:34:34.000Z</time>
      </trkpt>
      <trkpt lat="42.76207" lon="1.59053">
        <ele>1491</ele>
        <time>2020-01-05T09:34:36.000Z</time>
      </trkpt>
      <trkpt lat="42.76206" lon="1.59053">
        <ele>1491</ele>
        <time>2020-01-05T09:34:38.000Z</time>
      </trkpt>
      <trkpt lat="42.76205" lon="1.59053">
        <ele>1491</ele>
        <time>2020-01-05T09:34:40.000Z</time>
      </trkpt>
      <trkpt lat="42.76204" lon="1.59054">
        <ele>1491</ele>
        <time>2020-01-05T09:34:42.000Z</time>
      </trkpt>
      <trkpt lat="42.76203" lon="1.59054">
        <ele>1492</ele>
        <time>2020-01-05T09:34:44.000Z</time>
      </trkpt>
      <trkpt lat="42.76202" lon="1.59054">
        <ele>1492</ele>
        <time>2020-01-05T09:34:46.000Z</time>
      </trkpt>
      <trkpt lat="42.762" lon="1.59053">
        <ele>1492</ele>
        <time>2020-01-05T09:34:48.000Z</time>
      </trkpt>
      <trkpt lat="42.76199" lon="1.59053">
        <ele>1492</ele>
        <time>2020-01-05T09:34:50.000Z</time>
      </trkpt>
      <trkpt lat="42.76198" lon="1.59053">
        <ele>1493</ele>
        <time>2020-01-05T09:34:52.000Z</time>
      </trkpt>
      <trkpt lat="42.76197" lon="1.59053">
        <ele>1493</ele>
        <time>2020-01-05T09:34:54.000Z</time>
      </trkpt>
      <trkpt lat="42.76195" lon="1.59053">
        <ele>1494</ele>
        <time>2020-01-05T09:34:56.000Z</time>
      </trkpt>
      <trkpt lat="42.76193" lon="1.59053">
        <ele>1494</ele>
        <time>2020-01-05T09:34:58.000Z</time>
      </trkpt>
      <trkpt lat="42.76192" lon="1.59053">
        <ele>1494</ele>
        <time>2020-01-05T09:35:00.000Z</time>
      </trkpt>
      <trkpt lat="42.7619" lon="1.59052">
        <ele>1494</ele>
        <time>2020-01-05T09:35:02.000Z</time>
      </trkpt>
      <trkpt lat="42.76189" lon="1.59052">
        <ele>1495</ele>
        <time>2020-01-05T09:35:04.000Z</time>
      </trkpt>
      <trkpt lat="42.76187" lon="1.59052">
        <ele>1495</ele>
        <time>2020-01-05T09:35:06.000Z</time>
      </trkpt>
      <trkpt lat="42.76185" lon="1.59052">
        <ele>1496</ele>
        <time>2020-01-05T09:35:08.000Z</time>
      </trkpt>
      <trkpt lat="42.76184" lon="1.59052">
        <ele>1496</ele>
        <time>2020-01-05T09:35:10.000Z</time>
      </trkpt>
      <trkpt lat="42.76182" lon="1.59052">
        <ele>1496</ele>
        <time>2020-01-05T09:35:12.000Z</time>
      </trkpt>
      <trkpt lat="42.76181" lon="1.59051">
        <ele>1497</ele>
        <time>2020-01-05T09:35:14.000Z</time>
      </trkpt>
      <trkpt lat="42.7618" lon="1.59051">
        <ele>1497</ele>
        <time>2020-01-05T09:35:16.000Z</time>
      </trkpt>
      <trkpt lat="42.76179" lon="1.59051">
        <ele>1497</ele>
        <time>2020-01-05T09:35:18.000Z</time>
      </trkpt>
      <trkpt lat="42.76178" lon="1.59051">
        <ele>1497</ele>
        <time>2020-01-05T09:35:20.000Z</time>
      </trkpt>
      <trkpt lat="42.76178" lon="1.59051">
        <ele>1497</ele>
        <time>2020-01-05T09:35:22.000Z</time>
      </trkpt>
      <trkpt lat="42.76177" lon="1.59052">
        <ele>1498</ele>
        <time>2020-01-05T09:35:24.000Z</time>
      </trkpt>
      <trkpt lat="42.76176" lon="1.59051">
        <ele>1498</ele>
        <time>2020-01-05T09:35:26.000Z</time>
      </trkpt>
      <trkpt lat="42.76175" lon="1.59051">
        <ele>1498</ele>
        <time>2020-01-05T09:35:28.000Z</time>
      </trkpt>
      <trkpt lat="42.76174" lon="1.59051">
        <ele>1498</ele>
        <time>2020-01-05T09:35:30.000Z</time>
      </trkpt>
      <trkpt lat="42.76174" lon="1.59051">
        <ele>1498</ele>
        <time>2020-01-05T09:35:32.000Z</time>
      </trkpt>
      <trkpt lat="42.76173" lon="1.59051">
        <ele>1498</ele>
        <time>2020-01-05T09:35:34.000Z</time>
      </trkpt>
      <trkpt lat="42.76173" lon="1.59051">
        <ele>1498</ele>
        <time>2020-01-05T09:35:36.000Z</time>
      </trkpt>
      <trkpt lat="42.76173" lon="1.5905">
        <ele>1498</ele>
        <time>2020-01-05T09:35:38.000Z</time>
      </trkpt>
      <trkpt lat="42.76172" lon="1.5905">
        <ele>1499</ele>
        <time>2020-01-05T09:35:40.000Z</time>
      </trkpt>
      <trkpt lat="42.7617" lon="1.5905">
        <ele>1499</ele>
        <time>2020-01-05T09:35:42.000Z</time>
      </trkpt>
      <trkpt lat="42.7617" lon="1.59049">
        <ele>1499</ele>
        <time>2020-01-05T09:35:44.000Z</time>
      </trkpt>
      <trkpt lat="42.76169" lon="1.59049">
        <ele>1499</ele>
        <time>2020-01-05T09:35:46.000Z</time>
      </trkpt>
      <trkpt lat="42.76167" lon="1.59048">
        <ele>1499</ele>
        <time>2020-01-05T09:35:48.000Z</time>
      </trkpt>
      <trkpt lat="42.76167" lon="1.59047">
        <ele>1499</ele>
        <time>2020-01-05T09:35:50.000Z</time>
      </trkpt>
      <trkpt lat="42.76166" lon="1.59047">
        <ele>1499</ele>
        <time>2020-01-05T09:35:52.000Z</time>
      </trkpt>
      <trkpt lat="42.76166" lon="1.59046">
        <ele>1499</ele>
        <time>2020-01-05T09:35:54.000Z</time>
      </trkpt>
      <trkpt lat="42.76165" lon="1.59046">
        <ele>1498</ele>
        <time>2020-01-05T09:35:56.000Z</time>
      </trkpt>
      <trkpt lat="42.76164" lon="1.59046">
        <ele>1499</ele>
        <time>2020-01-05T09:35:58.000Z</time>
      </trkpt>
      <trkpt lat="42.76163" lon="1.59046">
        <ele>1499</ele>
        <time>2020-01-05T09:36:00.000Z</time>
      </trkpt>
      <trkpt lat="42.76162" lon="1.59046">
        <ele>1499</ele>
        <time>2020-01-05T09:36:02.000Z</time>
      </trkpt>
      <trkpt lat="42.7616" lon="1.59046">
        <ele>1499</ele>
        <time>2020-01-05T09:36:04.000Z</time>
      </trkpt>
      <trkpt lat="42.76159" lon="1.59046">
        <ele>1499</ele>
        <time>2020-01-05T09:36:06.000Z</time>
      </trkpt>
      <trkpt lat="42.76157" lon="1.59045">
        <ele>1499</ele>
        <time>2020-01-05T09:36:08.000Z</time>
      </trkpt>
      <trkpt lat="42.76157" lon="1.59045">
        <ele>1499</ele>
        <time>2020-01-05T09:36:10.000Z</time>
      </trkpt>
      <trkpt lat="42.76156" lon="1.59045">
        <ele>1499</ele>
        <time>2020-01-05T09:36:12.000Z</time>
      </trkpt>
      <trkpt lat="42.76154" lon="1.59045">
        <ele>1499</ele>
        <time>2020-01-05T09:36:14.000Z</time>
      </trkpt>
      <trkpt lat="42.76153" lon="1.59044">
        <ele>1499</ele>
        <time>2020-01-05T09:36:16.000Z</time>
      </trkpt>
      <trkpt lat="42.76153" lon="1.59043">
        <ele>1499</ele>
        <time>2020-01-05T09:36:18.000Z</time>
      </trkpt>
      <trkpt lat="42.76151" lon="1.59043">
        <ele>1499</ele>
        <time>2020-01-05T09:36:20.000Z</time>
      </trkpt>
      <trkpt lat="42.76151" lon="1.59042">
        <ele>1499</ele>
        <time>2020-01-05T09:36:22.000Z</time>
      </trkpt>
      <trkpt lat="42.7615" lon="1.59042">
        <ele>1499</ele>
        <time>2020-01-05T09:36:24.000Z</time>
      </trkpt>
      <trkpt lat="42.7615" lon="1.59041">
        <ele>1499</ele>
        <time>2020-01-05T09:36:26.000Z</time>
      </trkpt>
      <trkpt lat="42.7615" lon="1.59041">
        <ele>1499</ele>
        <time>2020-01-05T09:36:28.000Z</time>
      </trkpt>
      <trkpt lat="42.76149" lon="1.59041">
        <ele>1499</ele>
        <time>2020-01-05T09:36:30.000Z</time>
      </trkpt>
      <trkpt lat="42.76149" lon="1.59041">
        <ele>1499</ele>
        <time>2020-01-05T09:36:32.000Z</time>
      </trkpt>
      <trkpt lat="42.76149" lon="1.59041">
        <ele>1499</ele>
        <time>2020-01-05T09:36:34.000Z</time>
      </trkpt>
      <trkpt lat="42.76149" lon="1.59042">
        <ele>1499</ele>
        <time>2020-01-05T09:36:36.000Z</time>
      </trkpt>
      <trkpt lat="42.76148" lon="1.59043">
        <ele>1499</ele>
        <time>2020-01-05T09:36:38.000Z</time>
      </trkpt>
      <trkpt lat="42.76148" lon="1.59043">
        <ele>1499</ele>
        <time>2020-01-05T09:36:40.000Z</time>
      </trkpt>
      <trkpt lat="42.76148" lon="1.59044">
        <ele>1500</ele>
        <time>2020-01-05T09:36:42.000Z</time>
      </trkpt>
      <trkpt lat="42.76147" lon="1.59045">
        <ele>1500</ele>
        <time>2020-01-05T09:36:44.000Z</time>
      </trkpt>
      <trkpt lat="42.76148" lon="1.59046">
        <ele>1500</ele>
        <time>2020-01-05T09:36:46.000Z</time>
      </trkpt>
      <trkpt lat="42.76149" lon="1.59047">
        <ele>1500</ele>
        <time>2020-01-05T09:36:48.000Z</time>
      </trkpt>
      <trkpt lat="42.76149" lon="1.59048">
        <ele>1500</ele>
        <time>2020-01-05T09:36:50.000Z</time>
      </trkpt>
      <trkpt lat="42.7615" lon="1.5905">
        <ele>1501</ele>
        <time>2020-01-05T09:36:52.000Z</time>
      </trkpt>
      <trkpt lat="42.7615" lon="1.59051">
        <ele>1501</ele>
        <time>2020-01-05T09:36:54.000Z</time>
      </trkpt>
      <trkpt lat="42.7615" lon="1.59052">
        <ele>1501</ele>
        <time>2020-01-05T09:36:56.000Z</time>
      </trkpt>
      <trkpt lat="42.7615" lon="1.59054">
        <ele>1502</ele>
        <time>2020-01-05T09:36:58.000Z</time>
      </trkpt>
      <trkpt lat="42.7615" lon="1.59055">
        <ele>1502</ele>
        <time>2020-01-05T09:37:00.000Z</time>
      </trkpt>
      <trkpt lat="42.7615" lon="1.59056">
        <ele>1503</ele>
        <time>2020-01-05T09:37:02.000Z</time>
      </trkpt>
      <trkpt lat="42.7615" lon="1.59058">
        <ele>1503</ele>
        <time>2020-01-05T09:37:04.000Z</time>
      </trkpt>
      <trkpt lat="42.76149" lon="1.59059">
        <ele>1504</ele>
        <time>2020-01-05T09:37:06.000Z</time>
      </trkpt>
      <trkpt lat="42.7615" lon="1.59061">
        <ele>1504</ele>
        <time>2020-01-05T09:37:08.000Z</time>
      </trkpt>
      <trkpt lat="42.7615" lon="1.59062">
        <ele>1504</ele>
        <time>2020-01-05T09:37:10.000Z</time>
      </trkpt>
      <trkpt lat="42.76149" lon="1.59063">
        <ele>1505</ele>
        <time>2020-01-05T09:37:12.000Z</time>
      </trkpt>
      <trkpt lat="42.76149" lon="1.59065">
        <ele>1505</ele>
        <time>2020-01-05T09:37:14.000Z</time>
      </trkpt>
      <trkpt lat="42.76149" lon="1.59066">
        <ele>1506</ele>
        <time>2020-01-05T09:37:16.000Z</time>
      </trkpt>
      <trkpt lat="42.76149" lon="1.59068">
        <ele>1506</ele>
        <time>2020-01-05T09:37:18.000Z</time>
      </trkpt>
      <trkpt lat="42.76149" lon="1.5907">
        <ele>1506</ele>
        <time>2020-01-05T09:37:20.000Z</time>
      </trkpt>
      <trkpt lat="42.76148" lon="1.59072">
        <ele>1506</ele>
        <time>2020-01-05T09:37:22.000Z</time>
      </trkpt>
      <trkpt lat="42.76148" lon="1.59074">
        <ele>1506</ele>
        <time>2020-01-05T09:37:24.000Z</time>
      </trkpt>
      <trkpt lat="42.76148" lon="1.59076">
        <ele>1506</ele>
        <time>2020-01-05T09:37:26.000Z</time>
      </trkpt>
      <trkpt lat="42.76147" lon="1.59078">
        <ele>1506</ele>
        <time>2020-01-05T09:37:28.000Z</time>
      </trkpt>
      <trkpt lat="42.76146" lon="1.59079">
        <ele>1506</ele>
        <time>2020-01-05T09:37:30.000Z</time>
      </trkpt>
      <trkpt lat="42.76146" lon="1.59081">
        <ele>1506</ele>
        <time>2020-01-05T09:37:32.000Z</time>
      </trkpt>
      <trkpt lat="42.76145" lon="1.59082">
        <ele>1506</ele>
        <time>2020-01-05T09:37:34.000Z</time>
      </trkpt>
      <trkpt lat="42.76145" lon="1.59084">
        <ele>1506</ele>
        <time>2020-01-05T09:37:36.000Z</time>
      </trkpt>
      <trkpt lat="42.76144" lon="1.59086">
        <ele>1505</ele>
        <time>2020-01-05T09:37:38.000Z</time>
      </trkpt>
      <trkpt lat="42.76144" lon="1.59088">
        <ele>1505</ele>
        <time>2020-01-05T09:37:40.000Z</time>
      </trkpt>
      <trkpt lat="42.76143" lon="1.5909">
        <ele>1505</ele>
        <time>2020-01-05T09:37:42.000Z</time>
      </trkpt>
      <trkpt lat="42.76142" lon="1.59091">
        <ele>1505</ele>
        <time>2020-01-05T09:37:44.000Z</time>
      </trkpt>
      <trkpt lat="42.76142" lon="1.59092">
        <ele>1505</ele>
        <time>2020-01-05T09:37:46.000Z</time>
      </trkpt>
      <trkpt lat="42.76141" lon="1.59095">
        <ele>1505</ele>
        <time>2020-01-05T09:37:48.000Z</time>
      </trkpt>
      <trkpt lat="42.7614" lon="1.59097">
        <ele>1505</ele>
        <time>2020-01-05T09:37:50.000Z</time>
      </trkpt>
      <trkpt lat="42.76139" lon="1.59099">
        <ele>1505</ele>
        <time>2020-01-05T09:37:52.000Z</time>
      </trkpt>
      <trkpt lat="42.76138" lon="1.59101">
        <ele>1505</ele>
        <time>2020-01-05T09:37:54.000Z</time>
      </trkpt>
      <trkpt lat="42.76136" lon="1.59102">
        <ele>1505</ele>
        <time>2020-01-05T09:37:56.000Z</time>
      </trkpt>
      <trkpt lat="42.76135" lon="1.59103">
        <ele>1505</ele>
        <time>2020-01-05T09:37:58.000Z</time>
      </trkpt>
      <trkpt lat="42.76133" lon="1.59104">
        <ele>1505</ele>
        <time>2020-01-05T09:38:00.000Z</time>
      </trkpt>
      <trkpt lat="42.76132" lon="1.59104">
        <ele>1506</ele>
        <time>2020-01-05T09:38:02.000Z</time>
      </trkpt>
      <trkpt lat="42.7613" lon="1.59104">
        <ele>1506</ele>
        <time>2020-01-05T09:38:04.000Z</time>
      </trkpt>
      <trkpt lat="42.76129" lon="1.59104">
        <ele>1506</ele>
        <time>2020-01-05T09:38:06.000Z</time>
      </trkpt>
      <trkpt lat="42.76127" lon="1.59104">
        <ele>1507</ele>
        <time>2020-01-05T09:38:08.000Z</time>
      </trkpt>
      <trkpt lat="42.76126" lon="1.59104">
        <ele>1507</ele>
        <time>2020-01-05T09:38:10.000Z</time>
      </trkpt>
      <trkpt lat="42.76124" lon="1.59105">
        <ele>1507</ele>
        <time>2020-01-05T09:38:12.000Z</time>
      </trkpt>
      <trkpt lat="42.76123" lon="1.59105">
        <ele>1508</ele>
        <time>2020-01-05T09:38:14.000Z</time>
      </trkpt>
      <trkpt lat="42.76122" lon="1.59105">
        <ele>1508</ele>
        <time>2020-01-05T09:38:16.000Z</time>
      </trkpt>
      <trkpt lat="42.76121" lon="1.59106">
        <ele>1509</ele>
        <time>2020-01-05T09:38:18.000Z</time>
      </trkpt>
      <trkpt lat="42.7612" lon="1.59105">
        <ele>1509</ele>
        <time>2020-01-05T09:38:20.000Z</time>
      </trkpt>
      <trkpt lat="42.7612" lon="1.59106">
        <ele>1509</ele>
        <time>2020-01-05T09:38:22.000Z</time>
      </trkpt>
      <trkpt lat="42.76119" lon="1.59106">
        <ele>1510</ele>
        <time>2020-01-05T09:38:24.000Z</time>
      </trkpt>
      <trkpt lat="42.76118" lon="1.59106">
        <ele>1510</ele>
        <time>2020-01-05T09:38:26.000Z</time>
      </trkpt>
      <trkpt lat="42.76117" lon="1.59106">
        <ele>1511</ele>
        <time>2020-01-05T09:38:28.000Z</time>
      </trkpt>
      <trkpt lat="42.76116" lon="1.59106">
        <ele>1511</ele>
        <time>2020-01-05T09:38:30.000Z</time>
      </trkpt>
      <trkpt lat="42.76115" lon="1.59107">
        <ele>1512</ele>
        <time>2020-01-05T09:38:32.000Z</time>
      </trkpt>
      <trkpt lat="42.76114" lon="1.59107">
        <ele>1512</ele>
        <time>2020-01-05T09:38:34.000Z</time>
      </trkpt>
      <trkpt lat="42.76112" lon="1.59107">
        <ele>1513</ele>
        <time>2020-01-05T09:38:36.000Z</time>
      </trkpt>
      <trkpt lat="42.7611" lon="1.59107">
        <ele>1514</ele>
        <time>2020-01-05T09:38:38.000Z</time>
      </trkpt>
      <trkpt lat="42.76109" lon="1.59108">
        <ele>1514</ele>
        <time>2020-01-05T09:38:40.000Z</time>
      </trkpt>
      <trkpt lat="42.76107" lon="1.59108">
        <ele>1515</ele>
        <time>2020-01-05T09:38:42.000Z</time>
      </trkpt>
      <trkpt lat="42.76107" lon="1.59108">
        <ele>1515</ele>
        <time>2020-01-05T09:38:44.000Z</time>
      </trkpt>
      <trkpt lat="42.76106" lon="1.59109">
        <ele>1516</ele>
        <time>2020-01-05T09:38:46.000Z</time>
      </trkpt>
      <trkpt lat="42.76104" lon="1.5911">
        <ele>1517</ele>
        <time>2020-01-05T09:38:48.000Z</time>
      </trkpt>
      <trkpt lat="42.76103" lon="1.5911">
        <ele>1517</ele>
        <time>2020-01-05T09:38:50.000Z</time>
      </trkpt>
      <trkpt lat="42.76102" lon="1.5911">
        <ele>1518</ele>
        <time>2020-01-05T09:38:52.000Z</time>
      </trkpt>
      <trkpt lat="42.761" lon="1.5911">
        <ele>1518</ele>
        <time>2020-01-05T09:38:54.000Z</time>
      </trkpt>
      <trkpt lat="42.76099" lon="1.5911">
        <ele>1519</ele>
        <time>2020-01-05T09:38:56.000Z</time>
      </trkpt>
      <trkpt lat="42.76098" lon="1.5911">
        <ele>1520</ele>
        <time>2020-01-05T09:38:58.000Z</time>
      </trkpt>
      <trkpt lat="42.76097" lon="1.5911">
        <ele>1520</ele>
        <time>2020-01-05T09:39:00.000Z</time>
      </trkpt>
      <trkpt lat="42.76096" lon="1.59111">
        <ele>1520</ele>
        <time>2020-01-05T09:39:02.000Z</time>
      </trkpt>
      <trkpt lat="42.76095" lon="1.59111">
        <ele>1521</ele>
        <time>2020-01-05T09:39:04.000Z</time>
      </trkpt>
      <trkpt lat="42.76094" lon="1.59112">
        <ele>1521</ele>
        <time>2020-01-05T09:39:06.000Z</time>
      </trkpt>
      <trkpt lat="42.76093" lon="1.59112">
        <ele>1522</ele>
        <time>2020-01-05T09:39:08.000Z</time>
      </trkpt>
      <trkpt lat="42.76093" lon="1.59112">
        <ele>1522</ele>
        <time>2020-01-05T09:39:10.000Z</time>
      </trkpt>
      <trkpt lat="42.76092" lon="1.59112">
        <ele>1522</ele>
        <time>2020-01-05T09:39:12.000Z</time>
      </trkpt>
      <trkpt lat="42.76092" lon="1.59113">
        <ele>1523</ele>
        <time>2020-01-05T09:39:14.000Z</time>
      </trkpt>
      <trkpt lat="42.76091" lon="1.59113">
        <ele>1523</ele>
        <time>2020-01-05T09:39:16.000Z</time>
      </trkpt>
      <trkpt lat="42.76091" lon="1.59113">
        <ele>1523</ele>
        <time>2020-01-05T09:39:18.000Z</time>
      </trkpt>
      <trkpt lat="42.7609" lon="1.59114">
        <ele>1524</ele>
        <time>2020-01-05T09:39:20.000Z</time>
      </trkpt>
      <trkpt lat="42.76089" lon="1.59114">
        <ele>1524</ele>
        <time>2020-01-05T09:39:22.000Z</time>
      </trkpt>
      <trkpt lat="42.76089" lon="1.59115">
        <ele>1524</ele>
        <time>2020-01-05T09:39:24.000Z</time>
      </trkpt>
      <trkpt lat="42.76088" lon="1.59115">
        <ele>1525</ele>
        <time>2020-01-05T09:39:26.000Z</time>
      </trkpt>
      <trkpt lat="42.76087" lon="1.59116">
        <ele>1525</ele>
        <time>2020-01-05T09:39:28.000Z</time>
      </trkpt>
      <trkpt lat="42.76087" lon="1.59116">
        <ele>1525</ele>
        <time>2020-01-05T09:39:30.000Z</time>
      </trkpt>
      <trkpt lat="42.76086" lon="1.59117">
        <ele>1525</ele>
        <time>2020-01-05T09:39:32.000Z</time>
      </trkpt>
      <trkpt lat="42.76085" lon="1.59118">
        <ele>1526</ele>
        <time>2020-01-05T09:39:34.000Z</time>
      </trkpt>
      <trkpt lat="42.76084" lon="1.59118">
        <ele>1526</ele>
        <time>2020-01-05T09:39:36.000Z</time>
      </trkpt>
      <trkpt lat="42.76083" lon="1.59119">
        <ele>1526</ele>
        <time>2020-01-05T09:39:38.000Z</time>
      </trkpt>
      <trkpt lat="42.76082" lon="1.5912">
        <ele>1527</ele>
        <time>2020-01-05T09:39:40.000Z</time>
      </trkpt>
      <trkpt lat="42.7608" lon="1.59121">
        <ele>1527</ele>
        <time>2020-01-05T09:39:42.000Z</time>
      </trkpt>
      <trkpt lat="42.76078" lon="1.5912">
        <ele>1528</ele>
        <time>2020-01-05T09:39:44.000Z</time>
      </trkpt>
      <trkpt lat="42.76077" lon="1.5912">
        <ele>1528</ele>
        <time>2020-01-05T09:39:46.000Z</time>
      </trkpt>
      <trkpt lat="42.76075" lon="1.5912">
        <ele>1529</ele>
        <time>2020-01-05T09:39:48.000Z</time>
      </trkpt>
      <trkpt lat="42.76074" lon="1.5912">
        <ele>1529</ele>
        <time>2020-01-05T09:39:50.000Z</time>
      </trkpt>
      <trkpt lat="42.76072" lon="1.59119">
        <ele>1529</ele>
        <time>2020-01-05T09:39:52.000Z</time>
      </trkpt>
      <trkpt lat="42.76071" lon="1.59118">
        <ele>1530</ele>
        <time>2020-01-05T09:39:54.000Z</time>
      </trkpt>
      <trkpt lat="42.7607" lon="1.59118">
        <ele>1530</ele>
        <time>2020-01-05T09:39:56.000Z</time>
      </trkpt>
      <trkpt lat="42.76068" lon="1.59118">
        <ele>1530</ele>
        <time>2020-01-05T09:39:58.000Z</time>
      </trkpt>
      <trkpt lat="42.76068" lon="1.59118">
        <ele>1531</ele>
        <time>2020-01-05T09:40:00.000Z</time>
      </trkpt>
      <trkpt lat="42.76067" lon="1.59117">
        <ele>1531</ele>
        <time>2020-01-05T09:40:02.000Z</time>
      </trkpt>
      <trkpt lat="42.76066" lon="1.59117">
        <ele>1531</ele>
        <time>2020-01-05T09:40:04.000Z</time>
      </trkpt>
      <trkpt lat="42.76065" lon="1.59117">
        <ele>1531</ele>
        <time>2020-01-05T09:40:06.000Z</time>
      </trkpt>
      <trkpt lat="42.76064" lon="1.59117">
        <ele>1531</ele>
        <time>2020-01-05T09:40:08.000Z</time>
      </trkpt>
      <trkpt lat="42.76064" lon="1.59118">
        <ele>1532</ele>
        <time>2020-01-05T09:40:10.000Z</time>
      </trkpt>
      <trkpt lat="42.76063" lon="1.59118">
        <ele>1532</ele>
        <time>2020-01-05T09:40:12.000Z</time>
      </trkpt>
      <trkpt lat="42.76063" lon="1.59119">
        <ele>1532</ele>
        <time>2020-01-05T09:40:14.000Z</time>
      </trkpt>
      <trkpt lat="42.76062" lon="1.59119">
        <ele>1532</ele>
        <time>2020-01-05T09:40:16.000Z</time>
      </trkpt>
      <trkpt lat="42.76061" lon="1.5912">
        <ele>1532</ele>
        <time>2020-01-05T09:40:18.000Z</time>
      </trkpt>
      <trkpt lat="42.76061" lon="1.59119">
        <ele>1533</ele>
        <time>2020-01-05T09:40:20.000Z</time>
      </trkpt>
      <trkpt lat="42.7606" lon="1.59119">
        <ele>1533</ele>
        <time>2020-01-05T09:40:22.000Z</time>
      </trkpt>
      <trkpt lat="42.76059" lon="1.59119">
        <ele>1533</ele>
        <time>2020-01-05T09:40:24.000Z</time>
      </trkpt>
      <trkpt lat="42.76057" lon="1.59119">
        <ele>1533</ele>
        <time>2020-01-05T09:40:26.000Z</time>
      </trkpt>
      <trkpt lat="42.76057" lon="1.59118">
        <ele>1534</ele>
        <time>2020-01-05T09:40:28.000Z</time>
      </trkpt>
      <trkpt lat="42.76056" lon="1.59117">
        <ele>1534</ele>
        <time>2020-01-05T09:40:30.000Z</time>
      </trkpt>
      <trkpt lat="42.76055" lon="1.59116">
        <ele>1534</ele>
        <time>2020-01-05T09:40:32.000Z</time>
      </trkpt>
      <trkpt lat="42.76054" lon="1.59116">
        <ele>1534</ele>
        <time>2020-01-05T09:40:34.000Z</time>
      </trkpt>
      <trkpt lat="42.76054" lon="1.59116">
        <ele>1534</ele>
        <time>2020-01-05T09:40:36.000Z</time>
      </trkpt>
      <trkpt lat="42.76053" lon="1.59115">
        <ele>1534</ele>
        <time>2020-01-05T09:40:38.000Z</time>
      </trkpt>
      <trkpt lat="42.76053" lon="1.59116">
        <ele>1534</ele>
        <time>2020-01-05T09:40:40.000Z</time>
      </trkpt>
      <trkpt lat="42.76052" lon="1.59116">
        <ele>1534</ele>
        <time>2020-01-05T09:40:42.000Z</time>
      </trkpt>
      <trkpt lat="42.76052" lon="1.59116">
        <ele>1535</ele>
        <time>2020-01-05T09:40:44.000Z</time>
      </trkpt>
      <trkpt lat="42.76051" lon="1.59116">
        <ele>1535</ele>
        <time>2020-01-05T09:40:46.000Z</time>
      </trkpt>
      <trkpt lat="42.76051" lon="1.59116">
        <ele>1535</ele>
        <time>2020-01-05T09:40:48.000Z</time>
      </trkpt>
      <trkpt lat="42.7605" lon="1.59117">
        <ele>1536</ele>
        <time>2020-01-05T09:40:50.000Z</time>
      </trkpt>
      <trkpt lat="42.7605" lon="1.59117">
        <ele>1536</ele>
        <time>2020-01-05T09:40:52.000Z</time>
      </trkpt>
      <trkpt lat="42.7605" lon="1.59118">
        <ele>1536</ele>
        <time>2020-01-05T09:40:54.000Z</time>
      </trkpt>
      <trkpt lat="42.7605" lon="1.59118">
        <ele>1536</ele>
        <time>2020-01-05T09:40:56.000Z</time>
      </trkpt>
      <trkpt lat="42.76049" lon="1.59119">
        <ele>1537</ele>
        <time>2020-01-05T09:40:58.000Z</time>
      </trkpt>
      <trkpt lat="42.76049" lon="1.59119">
        <ele>1537</ele>
        <time>2020-01-05T09:41:00.000Z</time>
      </trkpt>
      <trkpt lat="42.76048" lon="1.59119">
        <ele>1537</ele>
        <time>2020-01-05T09:41:02.000Z</time>
      </trkpt>
      <trkpt lat="42.76048" lon="1.59118">
        <ele>1537</ele>
        <time>2020-01-05T09:41:04.000Z</time>
      </trkpt>
      <trkpt lat="42.76047" lon="1.59119">
        <ele>1538</ele>
        <time>2020-01-05T09:41:06.000Z</time>
      </trkpt>
      <trkpt lat="42.76046" lon="1.59119">
        <ele>1538</ele>
        <time>2020-01-05T09:41:08.000Z</time>
      </trkpt>
      <trkpt lat="42.76046" lon="1.59119">
        <ele>1538</ele>
        <time>2020-01-05T09:41:10.000Z</time>
      </trkpt>
      <trkpt lat="42.76046" lon="1.59119">
        <ele>1538</ele>
        <time>2020-01-05T09:41:12.000Z</time>
      </trkpt>
      <trkpt lat="42.76045" lon="1.59119">
        <ele>1539</ele>
        <time>2020-01-05T09:41:14.000Z</time>
      </trkpt>
      <trkpt lat="42.76045" lon="1.5912">
        <ele>1539</ele>
        <time>2020-01-05T09:41:16.000Z</time>
      </trkpt>
      <trkpt lat="42.76044" lon="1.59121">
        <ele>1539</ele>
        <time>2020-01-05T09:41:18.000Z</time>
      </trkpt>
      <trkpt lat="42.76044" lon="1.5912">
        <ele>1539</ele>
        <time>2020-01-05T09:41:20.000Z</time>
      </trkpt>
      <trkpt lat="42.76043" lon="1.5912">
        <ele>1540</ele>
        <time>2020-01-05T09:41:22.000Z</time>
      </trkpt>
      <trkpt lat="42.76042" lon="1.5912">
        <ele>1540</ele>
        <time>2020-01-05T09:41:24.000Z</time>
      </trkpt>
      <trkpt lat="42.76041" lon="1.5912">
        <ele>1540</ele>
        <time>2020-01-05T09:41:26.000Z</time>
      </trkpt>
      <trkpt lat="42.7604" lon="1.59119">
        <ele>1541</ele>
        <time>2020-01-05T09:41:28.000Z</time>
      </trkpt>
      <trkpt lat="42.7604" lon="1.59119">
        <ele>1541</ele>
        <time>2020-01-05T09:41:30.000Z</time>
      </trkpt>
      <trkpt lat="42.76039" lon="1.59119">
        <ele>1541</ele>
        <time>2020-01-05T09:41:32.000Z</time>
      </trkpt>
      <trkpt lat="42.76038" lon="1.59118">
        <ele>1541</ele>
        <time>2020-01-05T09:41:34.000Z</time>
      </trkpt>
      <trkpt lat="42.76038" lon="1.59119">
        <ele>1542</ele>
        <time>2020-01-05T09:41:36.000Z</time>
      </trkpt>
      <trkpt lat="42.76037" lon="1.5912">
        <ele>1542</ele>
        <time>2020-01-05T09:41:38.000Z</time>
      </trkpt>
      <trkpt lat="42.76036" lon="1.5912">
        <ele>1543</ele>
        <time>2020-01-05T09:41:40.000Z</time>
      </trkpt>
      <trkpt lat="42.76034" lon="1.5912">
        <ele>1544</ele>
        <time>2020-01-05T09:41:42.000Z</time>
      </trkpt>
      <trkpt lat="42.76034" lon="1.59121">
        <ele>1544</ele>
        <time>2020-01-05T09:41:44.000Z</time>
      </trkpt>
      <trkpt lat="42.76033" lon="1.59121">
        <ele>1545</ele>
        <time>2020-01-05T09:41:46.000Z</time>
      </trkpt>
      <trkpt lat="42.76032" lon="1.59122">
        <ele>1545</ele>
        <time>2020-01-05T09:41:48.000Z</time>
      </trkpt>
      <trkpt lat="42.76031" lon="1.59122">
        <ele>1546</ele>
        <time>2020-01-05T09:41:50.000Z</time>
      </trkpt>
      <trkpt lat="42.7603" lon="1.59122">
        <ele>1546</ele>
        <time>2020-01-05T09:41:52.000Z</time>
      </trkpt>
      <trkpt lat="42.76029" lon="1.59123">
        <ele>1547</ele>
        <time>2020-01-05T09:41:54.000Z</time>
      </trkpt>
      <trkpt lat="42.76028" lon="1.59123">
        <ele>1547</ele>
        <time>2020-01-05T09:41:56.000Z</time>
      </trkpt>
      <trkpt lat="42.76028" lon="1.59123">
        <ele>1547</ele>
        <time>2020-01-05T09:41:58.000Z</time>
      </trkpt>
      <trkpt lat="42.76027" lon="1.59123">
        <ele>1547</ele>
        <time>2020-01-05T09:42:00.000Z</time>
      </trkpt>
      <trkpt lat="42.76027" lon="1.59123">
        <ele>1548</ele>
        <time>2020-01-05T09:42:02.000Z</time>
      </trkpt>
      <trkpt lat="42.76026" lon="1.59123">
        <ele>1548</ele>
        <time>2020-01-05T09:42:04.000Z</time>
      </trkpt>
      <trkpt lat="42.76025" lon="1.59123">
        <ele>1549</ele>
        <time>2020-01-05T09:42:06.000Z</time>
      </trkpt>
      <trkpt lat="42.76024" lon="1.59124">
        <ele>1549</ele>
        <time>2020-01-05T09:42:08.000Z</time>
      </trkpt>
      <trkpt lat="42.76024" lon="1.59124">
        <ele>1550</ele>
        <time>2020-01-05T09:42:10.000Z</time>
      </trkpt>
      <trkpt lat="42.76023" lon="1.59125">
        <ele>1550</ele>
        <time>2020-01-05T09:42:12.000Z</time>
      </trkpt>
      <trkpt lat="42.76022" lon="1.59125">
        <ele>1551</ele>
        <time>2020-01-05T09:42:14.000Z</time>
      </trkpt>
      <trkpt lat="42.76021" lon="1.59126">
        <ele>1551</ele>
        <time>2020-01-05T09:42:16.000Z</time>
      </trkpt>
      <trkpt lat="42.76019" lon="1.59127">
        <ele>1552</ele>
        <time>2020-01-05T09:42:18.000Z</time>
      </trkpt>
      <trkpt lat="42.76019" lon="1.59128">
        <ele>1553</ele>
        <time>2020-01-05T09:42:20.000Z</time>
      </trkpt>
      <trkpt lat="42.76019" lon="1.59128">
        <ele>1553</ele>
        <time>2020-01-05T09:42:22.000Z</time>
      </trkpt>
      <trkpt lat="42.76018" lon="1.59129">
        <ele>1554</ele>
        <time>2020-01-05T09:42:24.000Z</time>
      </trkpt>
      <trkpt lat="42.76017" lon="1.59129">
        <ele>1554</ele>
        <time>2020-01-05T09:42:26.000Z</time>
      </trkpt>
      <trkpt lat="42.76016" lon="1.5913">
        <ele>1555</ele>
        <time>2020-01-05T09:42:28.000Z</time>
      </trkpt>
      <trkpt lat="42.76015" lon="1.5913">
        <ele>1555</ele>
        <time>2020-01-05T09:42:30.000Z</time>
      </trkpt>
      <trkpt lat="42.76014" lon="1.59131">
        <ele>1556</ele>
        <time>2020-01-05T09:42:32.000Z</time>
      </trkpt>
      <trkpt lat="42.76013" lon="1.59131">
        <ele>1556</ele>
        <time>2020-01-05T09:42:34.000Z</time>
      </trkpt>
      <trkpt lat="42.76012" lon="1.59132">
        <ele>1557</ele>
        <time>2020-01-05T09:42:36.000Z</time>
      </trkpt>
      <trkpt lat="42.76011" lon="1.59132">
        <ele>1557</ele>
        <time>2020-01-05T09:42:38.000Z</time>
      </trkpt>
      <trkpt lat="42.7601" lon="1.59132">
        <ele>1558</ele>
        <time>2020-01-05T09:42:40.000Z</time>
      </trkpt>
      <trkpt lat="42.76009" lon="1.59132">
        <ele>1558</ele>
        <time>2020-01-05T09:42:42.000Z</time>
      </trkpt>
      <trkpt lat="42.76007" lon="1.59132">
        <ele>1559</ele>
        <time>2020-01-05T09:42:44.000Z</time>
      </trkpt>
      <trkpt lat="42.76007" lon="1.59132">
        <ele>1559</ele>
        <time>2020-01-05T09:42:46.000Z</time>
      </trkpt>
      <trkpt lat="42.76006" lon="1.59132">
        <ele>1560</ele>
        <time>2020-01-05T09:42:48.000Z</time>
      </trkpt>
      <trkpt lat="42.76005" lon="1.59131">
        <ele>1560</ele>
        <time>2020-01-05T09:42:50.000Z</time>
      </trkpt>
      <trkpt lat="42.76005" lon="1.59132">
        <ele>1560</ele>
        <time>2020-01-05T09:42:52.000Z</time>
      </trkpt>
      <trkpt lat="42.76004" lon="1.59131">
        <ele>1560</ele>
        <time>2020-01-05T09:42:54.000Z</time>
      </trkpt>
      <trkpt lat="42.76004" lon="1.59131">
        <ele>1560</ele>
        <time>2020-01-05T09:42:56.000Z</time>
      </trkpt>
      <trkpt lat="42.76003" lon="1.59131">
        <ele>1560</ele>
        <time>2020-01-05T09:42:58.000Z</time>
      </trkpt>
      <trkpt lat="42.76003" lon="1.59132">
        <ele>1561</ele>
        <time>2020-01-05T09:43:00.000Z</time>
      </trkpt>
      <trkpt lat="42.76002" lon="1.59132">
        <ele>1561</ele>
        <time>2020-01-05T09:43:02.000Z</time>
      </trkpt>
      <trkpt lat="42.76002" lon="1.59132">
        <ele>1561</ele>
        <time>2020-01-05T09:43:04.000Z</time>
      </trkpt>
      <trkpt lat="42.76001" lon="1.59133">
        <ele>1561</ele>
        <time>2020-01-05T09:43:06.000Z</time>
      </trkpt>
      <trkpt lat="42.76001" lon="1.59133">
        <ele>1561</ele>
        <time>2020-01-05T09:43:08.000Z</time>
      </trkpt>
      <trkpt lat="42.76" lon="1.59133">
        <ele>1562</ele>
        <time>2020-01-05T09:43:10.000Z</time>
      </trkpt>
      <trkpt lat="42.75999" lon="1.59135">
        <ele>1562</ele>
        <time>2020-01-05T09:43:12.000Z</time>
      </trkpt>
      <trkpt lat="42.75999" lon="1.59135">
        <ele>1563</ele>
        <time>2020-01-05T09:43:14.000Z</time>
      </trkpt>
      <trkpt lat="42.75998" lon="1.59136">
        <ele>1563</ele>
        <time>2020-01-05T09:43:16.000Z</time>
      </trkpt>
      <trkpt lat="42.75998" lon="1.59136">
        <ele>1563</ele>
        <time>2020-01-05T09:43:18.000Z</time>
      </trkpt>
      <trkpt lat="42.75997" lon="1.59137">
        <ele>1563</ele>
        <time>2020-01-05T09:43:20.000Z</time>
      </trkpt>
      <trkpt lat="42.75997" lon="1.59137">
        <ele>1563</ele>
        <time>2020-01-05T09:43:22.000Z</time>
      </trkpt>
      <trkpt lat="42.75996" lon="1.59137">
        <ele>1564</ele>
        <time>2020-01-05T09:43:24.000Z</time>
      </trkpt>
      <trkpt lat="42.75995" lon="1.59136">
        <ele>1564</ele>
        <time>2020-01-05T09:43:26.000Z</time>
      </trkpt>
      <trkpt lat="42.75995" lon="1.59136">
        <ele>1564</ele>
        <time>2020-01-05T09:43:28.000Z</time>
      </trkpt>
      <trkpt lat="42.75994" lon="1.59135">
        <ele>1564</ele>
        <time>2020-01-05T09:43:30.000Z</time>
      </trkpt>
      <trkpt lat="42.75993" lon="1.59136">
        <ele>1564</ele>
        <time>2020-01-05T09:43:32.000Z</time>
      </trkpt>
      <trkpt lat="42.75993" lon="1.59136">
        <ele>1564</ele>
        <time>2020-01-05T09:43:34.000Z</time>
      </trkpt>
      <trkpt lat="42.75993" lon="1.59136">
        <ele>1564</ele>
        <time>2020-01-05T09:43:36.000Z</time>
      </trkpt>
      <trkpt lat="42.75992" lon="1.59136">
        <ele>1564</ele>
        <time>2020-01-05T09:43:38.000Z</time>
      </trkpt>
      <trkpt lat="42.75992" lon="1.59136">
        <ele>1564</ele>
        <time>2020-01-05T09:43:40.000Z</time>
      </trkpt>
      <trkpt lat="42.75992" lon="1.59136">
        <ele>1564</ele>
        <time>2020-01-05T09:43:42.000Z</time>
      </trkpt>
      <trkpt lat="42.75992" lon="1.59137">
        <ele>1564</ele>
        <time>2020-01-05T09:43:44.000Z</time>
      </trkpt>
      <trkpt lat="42.75991" lon="1.59137">
        <ele>1565</ele>
        <time>2020-01-05T09:43:46.000Z</time>
      </trkpt>
      <trkpt lat="42.75989" lon="1.59137">
        <ele>1565</ele>
        <time>2020-01-05T09:43:48.000Z</time>
      </trkpt>
      <trkpt lat="42.75988" lon="1.59137">
        <ele>1565</ele>
        <time>2020-01-05T09:43:50.000Z</time>
      </trkpt>
      <trkpt lat="42.75988" lon="1.59137">
        <ele>1566</ele>
        <time>2020-01-05T09:43:52.000Z</time>
      </trkpt>
      <trkpt lat="42.75987" lon="1.59137">
        <ele>1566</ele>
        <time>2020-01-05T09:43:54.000Z</time>
      </trkpt>
      <trkpt lat="42.75986" lon="1.59137">
        <ele>1566</ele>
        <time>2020-01-05T09:43:56.000Z</time>
      </trkpt>
      <trkpt lat="42.75985" lon="1.59136">
        <ele>1566</ele>
        <time>2020-01-05T09:43:58.000Z</time>
      </trkpt>
      <trkpt lat="42.75984" lon="1.59136">
        <ele>1566</ele>
        <time>2020-01-05T09:44:00.000Z</time>
      </trkpt>
      <trkpt lat="42.75984" lon="1.59136">
        <ele>1566</ele>
        <time>2020-01-05T09:44:02.000Z</time>
      </trkpt>
      <trkpt lat="42.75983" lon="1.59135">
        <ele>1566</ele>
        <time>2020-01-05T09:44:04.000Z</time>
      </trkpt>
      <trkpt lat="42.75983" lon="1.59136">
        <ele>1566</ele>
        <time>2020-01-05T09:44:06.000Z</time>
      </trkpt>
      <trkpt lat="42.75982" lon="1.59136">
        <ele>1566</ele>
        <time>2020-01-05T09:44:08.000Z</time>
      </trkpt>
      <trkpt lat="42.75982" lon="1.59137">
        <ele>1567</ele>
        <time>2020-01-05T09:44:10.000Z</time>
      </trkpt>
      <trkpt lat="42.75981" lon="1.59137">
        <ele>1567</ele>
        <time>2020-01-05T09:44:12.000Z</time>
      </trkpt>
      <trkpt lat="42.7598" lon="1.59137">
        <ele>1567</ele>
        <time>2020-01-05T09:44:14.000Z</time>
      </trkpt>
      <trkpt lat="42.75979" lon="1.59138">
        <ele>1568</ele>
        <time>2020-01-05T09:44:16.000Z</time>
      </trkpt>
      <trkpt lat="42.75979" lon="1.59138">
        <ele>1568</ele>
        <time>2020-01-05T09:44:18.000Z</time>
      </trkpt>
      <trkpt lat="42.75979" lon="1.59137">
        <ele>1567</ele>
        <time>2020-01-05T09:44:20.000Z</time>
      </trkpt>
      <trkpt lat="42.75979" lon="1.59137">
        <ele>1568</ele>
        <time>2020-01-05T09:44:22.000Z</time>
      </trkpt>
      <trkpt lat="42.75978" lon="1.59137">
        <ele>1568</ele>
        <time>2020-01-05T09:44:24.000Z</time>
      </trkpt>
      <trkpt lat="42.75978" lon="1.59138">
        <ele>1568</ele>
        <time>2020-01-05T09:44:26.000Z</time>
      </trkpt>
      <trkpt lat="42.75977" lon="1.59138">
        <ele>1568</ele>
        <time>2020-01-05T09:44:28.000Z</time>
      </trkpt>
      <trkpt lat="42.75978" lon="1.59139">
        <ele>1568</ele>
        <time>2020-01-05T09:44:30.000Z</time>
      </trkpt>
      <trkpt lat="42.75978" lon="1.5914">
        <ele>1569</ele>
        <time>2020-01-05T09:44:32.000Z</time>
      </trkpt>
      <trkpt lat="42.75977" lon="1.59141">
        <ele>1569</ele>
        <time>2020-01-05T09:44:34.000Z</time>
      </trkpt>
      <trkpt lat="42.75977" lon="1.59142">
        <ele>1569</ele>
        <time>2020-01-05T09:44:36.000Z</time>
      </trkpt>
      <trkpt lat="42.75977" lon="1.59143">
        <ele>1570</ele>
        <time>2020-01-05T09:44:38.000Z</time>
      </trkpt>
      <trkpt lat="42.75977" lon="1.59143">
        <ele>1570</ele>
        <time>2020-01-05T09:44:40.000Z</time>
      </trkpt>
      <trkpt lat="42.75977" lon="1.59144">
        <ele>1570</ele>
        <time>2020-01-05T09:44:42.000Z</time>
      </trkpt>
      <trkpt lat="42.75977" lon="1.59144">
        <ele>1570</ele>
        <time>2020-01-05T09:44:44.000Z</time>
      </trkpt>
      <trkpt lat="42.75977" lon="1.59145">
        <ele>1570</ele>
        <time>2020-01-05T09:44:46.000Z</time>
      </trkpt>
      <trkpt lat="42.75977" lon="1.59145">
        <ele>1570</ele>
        <time>2020-01-05T09:44:48.000Z</time>
      </trkpt>
      <trkpt lat="42.75977" lon="1.59146">
        <ele>1571</ele>
        <time>2020-01-05T09:44:50.000Z</time>
      </trkpt>
      <trkpt lat="42.75976" lon="1.59147">
        <ele>1571</ele>
        <time>2020-01-05T09:44:52.000Z</time>
      </trkpt>
      <trkpt lat="42.75975" lon="1.59147">
        <ele>1571</ele>
        <time>2020-01-05T09:44:54.000Z</time>
      </trkpt>
      <trkpt lat="42.75974" lon="1.59147">
        <ele>1572</ele>
        <time>2020-01-05T09:44:56.000Z</time>
      </trkpt>
      <trkpt lat="42.75973" lon="1.59147">
        <ele>1572</ele>
        <time>2020-01-05T09:44:58.000Z</time>
      </trkpt>
      <trkpt lat="42.75973" lon="1.59148">
        <ele>1572</ele>
        <time>2020-01-05T09:45:00.000Z</time>
      </trkpt>
      <trkpt lat="42.75971" lon="1.59148">
        <ele>1573</ele>
        <time>2020-01-05T09:45:02.000Z</time>
      </trkpt>
      <trkpt lat="42.75971" lon="1.59148">
        <ele>1573</ele>
        <time>2020-01-05T09:45:04.000Z</time>
      </trkpt>
      <trkpt lat="42.7597" lon="1.59149">
        <ele>1573</ele>
        <time>2020-01-05T09:45:06.000Z</time>
      </trkpt>
      <trkpt lat="42.75969" lon="1.59149">
        <ele>1573</ele>
        <time>2020-01-05T09:45:08.000Z</time>
      </trkpt>
      <trkpt lat="42.75969" lon="1.5915">
        <ele>1574</ele>
        <time>2020-01-05T09:45:10.000Z</time>
      </trkpt>
      <trkpt lat="42.75968" lon="1.5915">
        <ele>1574</ele>
        <time>2020-01-05T09:45:12.000Z</time>
      </trkpt>
      <trkpt lat="42.75968" lon="1.5915">
        <ele>1574</ele>
        <time>2020-01-05T09:45:14.000Z</time>
      </trkpt>
      <trkpt lat="42.75968" lon="1.59151">
        <ele>1574</ele>
        <time>2020-01-05T09:45:16.000Z</time>
      </trkpt>
      <trkpt lat="42.75967" lon="1.59152">
        <ele>1574</ele>
        <time>2020-01-05T09:45:18.000Z</time>
      </trkpt>
      <trkpt lat="42.75967" lon="1.59152">
        <ele>1575</ele>
        <time>2020-01-05T09:45:20.000Z</time>
      </trkpt>
      <trkpt lat="42.75967" lon="1.59152">
        <ele>1575</ele>
        <time>2020-01-05T09:45:22.000Z</time>
      </trkpt>
      <trkpt lat="42.75966" lon="1.59153">
        <ele>1575</ele>
        <time>2020-01-05T09:45:24.000Z</time>
      </trkpt>
      <trkpt lat="42.75965" lon="1.59154">
        <ele>1575</ele>
        <time>2020-01-05T09:45:26.000Z</time>
      </trkpt>
      <trkpt lat="42.75964" lon="1.59154">
        <ele>1575</ele>
        <time>2020-01-05T09:45:28.000Z</time>
      </trkpt>
      <trkpt lat="42.75963" lon="1.59154">
        <ele>1575</ele>
        <time>2020-01-05T09:45:30.000Z</time>
      </trkpt>
      <trkpt lat="42.75962" lon="1.59154">
        <ele>1576</ele>
        <time>2020-01-05T09:45:32.000Z</time>
      </trkpt>
      <trkpt lat="42.75962" lon="1.59153">
        <ele>1576</ele>
        <time>2020-01-05T09:45:34.000Z</time>
      </trkpt>
      <trkpt lat="42.75961" lon="1.59153">
        <ele>1576</ele>
        <time>2020-01-05T09:45:36.000Z</time>
      </trkpt>
      <trkpt lat="42.75961" lon="1.59152">
        <ele>1576</ele>
        <time>2020-01-05T09:45:38.000Z</time>
      </trkpt>
      <trkpt lat="42.7596" lon="1.59152">
        <ele>1576</ele>
        <time>2020-01-05T09:45:40.000Z</time>
      </trkpt>
      <trkpt lat="42.7596" lon="1.59152">
        <ele>1576</ele>
        <time>2020-01-05T09:45:42.000Z</time>
      </trkpt>
      <trkpt lat="42.75959" lon="1.59152">
        <ele>1576</ele>
        <time>2020-01-05T09:45:44.000Z</time>
      </trkpt>
      <trkpt lat="42.75958" lon="1.59152">
        <ele>1577</ele>
        <time>2020-01-05T09:45:46.000Z</time>
      </trkpt>
      <trkpt lat="42.75957" lon="1.59151">
        <ele>1577</ele>
        <time>2020-01-05T09:45:48.000Z</time>
      </trkpt>
      <trkpt lat="42.75957" lon="1.59151">
        <ele>1577</ele>
        <time>2020-01-05T09:45:50.000Z</time>
      </trkpt>
      <trkpt lat="42.75956" lon="1.59151">
        <ele>1577</ele>
        <time>2020-01-05T09:45:52.000Z</time>
      </trkpt>
      <trkpt lat="42.75956" lon="1.59151">
        <ele>1577</ele>
        <time>2020-01-05T09:45:54.000Z</time>
      </trkpt>
      <trkpt lat="42.75956" lon="1.59151">
        <ele>1577</ele>
        <time>2020-01-05T09:45:56.000Z</time>
      </trkpt>
      <trkpt lat="42.75955" lon="1.59152">
        <ele>1577</ele>
        <time>2020-01-05T09:45:58.000Z</time>
      </trkpt>
      <trkpt lat="42.75955" lon="1.59152">
        <ele>1577</ele>
        <time>2020-01-05T09:46:00.000Z</time>
      </trkpt>
      <trkpt lat="42.75954" lon="1.59152">
        <ele>1578</ele>
        <time>2020-01-05T09:46:02.000Z</time>
      </trkpt>
      <trkpt lat="42.75953" lon="1.59153">
        <ele>1578</ele>
        <time>2020-01-05T09:46:04.000Z</time>
      </trkpt>
      <trkpt lat="42.75953" lon="1.59153">
        <ele>1578</ele>
        <time>2020-01-05T09:46:06.000Z</time>
      </trkpt>
      <trkpt lat="42.75952" lon="1.59153">
        <ele>1578</ele>
        <time>2020-01-05T09:46:08.000Z</time>
      </trkpt>
      <trkpt lat="42.75952" lon="1.59153">
        <ele>1578</ele>
        <time>2020-01-05T09:46:10.000Z</time>
      </trkpt>
      <trkpt lat="42.75952" lon="1.59154">
        <ele>1578</ele>
        <time>2020-01-05T09:46:12.000Z</time>
      </trkpt>
      <trkpt lat="42.75951" lon="1.59155">
        <ele>1578</ele>
        <time>2020-01-05T09:46:14.000Z</time>
      </trkpt>
      <trkpt lat="42.7595" lon="1.59156">
        <ele>1578</ele>
        <time>2020-01-05T09:46:16.000Z</time>
      </trkpt>
      <trkpt lat="42.75949" lon="1.59156">
        <ele>1579</ele>
        <time>2020-01-05T09:46:18.000Z</time>
      </trkpt>
      <trkpt lat="42.75948" lon="1.59157">
        <ele>1579</ele>
        <time>2020-01-05T09:46:20.000Z</time>
      </trkpt>
      <trkpt lat="42.75946" lon="1.59158">
        <ele>1579</ele>
        <time>2020-01-05T09:46:22.000Z</time>
      </trkpt>
      <trkpt lat="42.75945" lon="1.59159">
        <ele>1579</ele>
        <time>2020-01-05T09:46:24.000Z</time>
      </trkpt>
      <trkpt lat="42.75944" lon="1.5916">
        <ele>1580</ele>
        <time>2020-01-05T09:46:26.000Z</time>
      </trkpt>
      <trkpt lat="42.75943" lon="1.59161">
        <ele>1580</ele>
        <time>2020-01-05T09:46:28.000Z</time>
      </trkpt>
      <trkpt lat="42.75943" lon="1.59162">
        <ele>1580</ele>
        <time>2020-01-05T09:46:30.000Z</time>
      </trkpt>
      <trkpt lat="42.75941" lon="1.59163">
        <ele>1580</ele>
        <time>2020-01-05T09:46:32.000Z</time>
      </trkpt>
      <trkpt lat="42.7594" lon="1.59164">
        <ele>1580</ele>
        <time>2020-01-05T09:46:34.000Z</time>
      </trkpt>
      <trkpt lat="42.75939" lon="1.59165">
        <ele>1581</ele>
        <time>2020-01-05T09:46:36.000Z</time>
      </trkpt>
      <trkpt lat="42.75937" lon="1.59166">
        <ele>1581</ele>
        <time>2020-01-05T09:46:38.000Z</time>
      </trkpt>
      <trkpt lat="42.75936" lon="1.59168">
        <ele>1582</ele>
        <time>2020-01-05T09:46:40.000Z</time>
      </trkpt>
      <trkpt lat="42.75935" lon="1.59169">
        <ele>1582</ele>
        <time>2020-01-05T09:46:42.000Z</time>
      </trkpt>
      <trkpt lat="42.75934" lon="1.5917">
        <ele>1583</ele>
        <time>2020-01-05T09:46:44.000Z</time>
      </trkpt>
      <trkpt lat="42.75933" lon="1.59172">
        <ele>1583</ele>
        <time>2020-01-05T09:46:46.000Z</time>
      </trkpt>
      <trkpt lat="42.75932" lon="1.59173">
        <ele>1584</ele>
        <time>2020-01-05T09:46:48.000Z</time>
      </trkpt>
      <trkpt lat="42.75931" lon="1.59174">
        <ele>1585</ele>
        <time>2020-01-05T09:46:50.000Z</time>
      </trkpt>
      <trkpt lat="42.7593" lon="1.59175">
        <ele>1585</ele>
        <time>2020-01-05T09:46:52.000Z</time>
      </trkpt>
      <trkpt lat="42.75928" lon="1.59177">
        <ele>1586</ele>
        <time>2020-01-05T09:46:54.000Z</time>
      </trkpt>
      <trkpt lat="42.75927" lon="1.59177">
        <ele>1586</ele>
        <time>2020-01-05T09:46:56.000Z</time>
      </trkpt>
      <trkpt lat="42.75925" lon="1.59177">
        <ele>1587</ele>
        <time>2020-01-05T09:46:58.000Z</time>
      </trkpt>
      <trkpt lat="42.75924" lon="1.59178">
        <ele>1588</ele>
        <time>2020-01-05T09:47:00.000Z</time>
      </trkpt>
      <trkpt lat="42.75923" lon="1.59178">
        <ele>1588</ele>
        <time>2020-01-05T09:47:02.000Z</time>
      </trkpt>
      <trkpt lat="42.75921" lon="1.59179">
        <ele>1589</ele>
        <time>2020-01-05T09:47:04.000Z</time>
      </trkpt>
      <trkpt lat="42.7592" lon="1.59179">
        <ele>1589</ele>
        <time>2020-01-05T09:47:06.000Z</time>
      </trkpt>
      <trkpt lat="42.75918" lon="1.5918">
        <ele>1590</ele>
        <time>2020-01-05T09:47:08.000Z</time>
      </trkpt>
      <trkpt lat="42.75917" lon="1.59181">
        <ele>1590</ele>
        <time>2020-01-05T09:47:10.000Z</time>
      </trkpt>
      <trkpt lat="42.75916" lon="1.59182">
        <ele>1590</ele>
        <time>2020-01-05T09:47:12.000Z</time>
      </trkpt>
      <trkpt lat="42.75916" lon="1.59181">
        <ele>1590</ele>
        <time>2020-01-05T09:47:14.000Z</time>
      </trkpt>
      <trkpt lat="42.75916" lon="1.59181">
        <ele>1590</ele>
        <time>2020-01-05T09:47:16.000Z</time>
      </trkpt>
      <trkpt lat="42.75916" lon="1.5918">
        <ele>1590</ele>
        <time>2020-01-05T09:47:18.000Z</time>
      </trkpt>
      <trkpt lat="42.75915" lon="1.59181">
        <ele>1590</ele>
        <time>2020-01-05T09:47:20.000Z</time>
      </trkpt>
      <trkpt lat="42.75914" lon="1.59181">
        <ele>1591</ele>
        <time>2020-01-05T09:47:22.000Z</time>
      </trkpt>
      <trkpt lat="42.75913" lon="1.59181">
        <ele>1591</ele>
        <time>2020-01-05T09:47:24.000Z</time>
      </trkpt>
      <trkpt lat="42.75913" lon="1.59182">
        <ele>1591</ele>
        <time>2020-01-05T09:47:26.000Z</time>
      </trkpt>
      <trkpt lat="42.75912" lon="1.59183">
        <ele>1591</ele>
        <time>2020-01-05T09:47:28.000Z</time>
      </trkpt>
      <trkpt lat="42.75911" lon="1.59183">
        <ele>1592</ele>
        <time>2020-01-05T09:47:30.000Z</time>
      </trkpt>
      <trkpt lat="42.7591" lon="1.59184">
        <ele>1592</ele>
        <time>2020-01-05T09:47:32.000Z</time>
      </trkpt>
      <trkpt lat="42.75909" lon="1.59185">
        <ele>1592</ele>
        <time>2020-01-05T09:47:34.000Z</time>
      </trkpt>
      <trkpt lat="42.75908" lon="1.59186">
        <ele>1592</ele>
        <time>2020-01-05T09:47:36.000Z</time>
      </trkpt>
      <trkpt lat="42.75907" lon="1.59186">
        <ele>1593</ele>
        <time>2020-01-05T09:47:38.000Z</time>
      </trkpt>
      <trkpt lat="42.75906" lon="1.59186">
        <ele>1593</ele>
        <time>2020-01-05T09:47:40.000Z</time>
      </trkpt>
      <trkpt lat="42.75906" lon="1.59186">
        <ele>1593</ele>
        <time>2020-01-05T09:47:42.000Z</time>
      </trkpt>
      <trkpt lat="42.75905" lon="1.59187">
        <ele>1593</ele>
        <time>2020-01-05T09:47:44.000Z</time>
      </trkpt>
      <trkpt lat="42.75905" lon="1.59187">
        <ele>1593</ele>
        <time>2020-01-05T09:47:46.000Z</time>
      </trkpt>
      <trkpt lat="42.75904" lon="1.59188">
        <ele>1594</ele>
        <time>2020-01-05T09:47:48.000Z</time>
      </trkpt>
      <trkpt lat="42.75904" lon="1.59188">
        <ele>1594</ele>
        <time>2020-01-05T09:47:50.000Z</time>
      </trkpt>
      <trkpt lat="42.75903" lon="1.59188">
        <ele>1594</ele>
        <time>2020-01-05T09:47:52.000Z</time>
      </trkpt>
      <trkpt lat="42.75903" lon="1.59189">
        <ele>1594</ele>
        <time>2020-01-05T09:47:54.000Z</time>
      </trkpt>
      <trkpt lat="42.75902" lon="1.5919">
        <ele>1594</ele>
        <time>2020-01-05T09:47:56.000Z</time>
      </trkpt>
      <trkpt lat="42.75902" lon="1.59191">
        <ele>1594</ele>
        <time>2020-01-05T09:47:58.000Z</time>
      </trkpt>
      <trkpt lat="42.75902" lon="1.59192">
        <ele>1595</ele>
        <time>2020-01-05T09:48:00.000Z</time>
      </trkpt>
      <trkpt lat="42.75901" lon="1.59193">
        <ele>1595</ele>
        <time>2020-01-05T09:48:02.000Z</time>
      </trkpt>
      <trkpt lat="42.759" lon="1.59194">
        <ele>1595</ele>
        <time>2020-01-05T09:48:04.000Z</time>
      </trkpt>
      <trkpt lat="42.75899" lon="1.59194">
        <ele>1595</ele>
        <time>2020-01-05T09:48:06.000Z</time>
      </trkpt>
      <trkpt lat="42.75899" lon="1.59195">
        <ele>1595</ele>
        <time>2020-01-05T09:48:08.000Z</time>
      </trkpt>
      <trkpt lat="42.75898" lon="1.59196">
        <ele>1596</ele>
        <time>2020-01-05T09:48:10.000Z</time>
      </trkpt>
      <trkpt lat="42.75898" lon="1.59197">
        <ele>1596</ele>
        <time>2020-01-05T09:48:12.000Z</time>
      </trkpt>
      <trkpt lat="42.75896" lon="1.59198">
        <ele>1596</ele>
        <time>2020-01-05T09:48:14.000Z</time>
      </trkpt>
      <trkpt lat="42.75895" lon="1.59198">
        <ele>1597</ele>
        <time>2020-01-05T09:48:16.000Z</time>
      </trkpt>
      <trkpt lat="42.75894" lon="1.59198">
        <ele>1597</ele>
        <time>2020-01-05T09:48:18.000Z</time>
      </trkpt>
      <trkpt lat="42.75894" lon="1.59198">
        <ele>1597</ele>
        <time>2020-01-05T09:48:20.000Z</time>
      </trkpt>
      <trkpt lat="42.75894" lon="1.59197">
        <ele>1597</ele>
        <time>2020-01-05T09:48:22.000Z</time>
      </trkpt>
      <trkpt lat="42.75895" lon="1.59196">
        <ele>1596</ele>
        <time>2020-01-05T09:48:24.000Z</time>
      </trkpt>
      <trkpt lat="42.75895" lon="1.59196">
        <ele>1596</ele>
        <time>2020-01-05T09:48:26.000Z</time>
      </trkpt>
      <trkpt lat="42.75896" lon="1.59196">
        <ele>1596</ele>
        <time>2020-01-05T09:48:28.000Z</time>
      </trkpt>
      <trkpt lat="42.75896" lon="1.59196">
        <ele>1596</ele>
        <time>2020-01-05T09:48:30.000Z</time>
      </trkpt>
      <trkpt lat="42.75896" lon="1.59196">
        <ele>1596</ele>
        <time>2020-01-05T09:48:32.000Z</time>
      </trkpt>
      <trkpt lat="42.75896" lon="1.59196">
        <ele>1596</ele>
        <time>2020-01-05T09:48:34.000Z</time>
      </trkpt>
      <trkpt lat="42.75896" lon="1.59196">
        <ele>1596</ele>
        <time>2020-01-05T09:48:36.000Z</time>
      </trkpt>
      <trkpt lat="42.75896" lon="1.59196">
        <ele>1596</ele>
        <time>2020-01-05T09:48:38.000Z</time>
      </trkpt>
      <trkpt lat="42.75897" lon="1.59196">
        <ele>1596</ele>
        <time>2020-01-05T09:48:40.000Z</time>
      </trkpt>
      <trkpt lat="42.75897" lon="1.59196">
        <ele>1596</ele>
        <time>2020-01-05T09:48:42.000Z</time>
      </trkpt>
      <trkpt lat="42.75896" lon="1.59196">
        <ele>1596</ele>
        <time>2020-01-05T09:48:44.000Z</time>
      </trkpt>
      <trkpt lat="42.75896" lon="1.59196">
        <ele>1596</ele>
        <time>2020-01-05T09:48:46.000Z</time>
      </trkpt>
      <trkpt lat="42.75896" lon="1.59197">
        <ele>1596</ele>
        <time>2020-01-05T09:48:48.000Z</time>
      </trkpt>
      <trkpt lat="42.75896" lon="1.59198">
        <ele>1596</ele>
        <time>2020-01-05T09:48:50.000Z</time>
      </trkpt>
      <trkpt lat="42.75896" lon="1.59198">
        <ele>1597</ele>
        <time>2020-01-05T09:48:52.000Z</time>
      </trkpt>
      <trkpt lat="42.75895" lon="1.59198">
        <ele>1597</ele>
        <time>2020-01-05T09:48:54.000Z</time>
      </trkpt>
      <trkpt lat="42.75894" lon="1.59199">
        <ele>1597</ele>
        <time>2020-01-05T09:48:56.000Z</time>
      </trkpt>
      <trkpt lat="42.75893" lon="1.59199">
        <ele>1597</ele>
        <time>2020-01-05T09:48:58.000Z</time>
      </trkpt>
      <trkpt lat="42.75892" lon="1.59199">
        <ele>1597</ele>
        <time>2020-01-05T09:49:00.000Z</time>
      </trkpt>
      <trkpt lat="42.75891" lon="1.592">
        <ele>1598</ele>
        <time>2020-01-05T09:49:02.000Z</time>
      </trkpt>
      <trkpt lat="42.7589" lon="1.59201">
        <ele>1598</ele>
        <time>2020-01-05T09:49:04.000Z</time>
      </trkpt>
      <trkpt lat="42.75889" lon="1.59201">
        <ele>1598</ele>
        <time>2020-01-05T09:49:06.000Z</time>
      </trkpt>
      <trkpt lat="42.75888" lon="1.59202">
        <ele>1599</ele>
        <time>2020-01-05T09:49:08.000Z</time>
      </trkpt>
      <trkpt lat="42.75886" lon="1.59203">
        <ele>1599</ele>
        <time>2020-01-05T09:49:10.000Z</time>
      </trkpt>
      <trkpt lat="42.75885" lon="1.59204">
        <ele>1600</ele>
        <time>2020-01-05T09:49:12.000Z</time>
      </trkpt>
      <trkpt lat="42.75884" lon="1.59204">
        <ele>1600</ele>
        <time>2020-01-05T09:49:14.000Z</time>
      </trkpt>
      <trkpt lat="42.75884" lon="1.59204">
        <ele>1600</ele>
        <time>2020-01-05T09:49:16.000Z</time>
      </trkpt>
      <trkpt lat="42.75883" lon="1.59205">
        <ele>1601</ele>
        <time>2020-01-05T09:49:18.000Z</time>
      </trkpt>
      <trkpt lat="42.75882" lon="1.59206">
        <ele>1601</ele>
        <time>2020-01-05T09:49:20.000Z</time>
      </trkpt>
      <trkpt lat="42.75881" lon="1.59207">
        <ele>1601</ele>
        <time>2020-01-05T09:49:22.000Z</time>
      </trkpt>
      <trkpt lat="42.75881" lon="1.59208">
        <ele>1602</ele>
        <time>2020-01-05T09:49:24.000Z</time>
      </trkpt>
      <trkpt lat="42.7588" lon="1.59209">
        <ele>1602</ele>
        <time>2020-01-05T09:49:26.000Z</time>
      </trkpt>
      <trkpt lat="42.75879" lon="1.5921">
        <ele>1602</ele>
        <time>2020-01-05T09:49:28.000Z</time>
      </trkpt>
      <trkpt lat="42.75879" lon="1.59211">
        <ele>1603</ele>
        <time>2020-01-05T09:49:30.000Z</time>
      </trkpt>
      <trkpt lat="42.75878" lon="1.59212">
        <ele>1603</ele>
        <time>2020-01-05T09:49:32.000Z</time>
      </trkpt>
      <trkpt lat="42.75877" lon="1.59212">
        <ele>1603</ele>
        <time>2020-01-05T09:49:34.000Z</time>
      </trkpt>
      <trkpt lat="42.75877" lon="1.59213">
        <ele>1604</ele>
        <time>2020-01-05T09:49:36.000Z</time>
      </trkpt>
      <trkpt lat="42.75876" lon="1.59214">
        <ele>1604</ele>
        <time>2020-01-05T09:49:38.000Z</time>
      </trkpt>
      <trkpt lat="42.75876" lon="1.59214">
        <ele>1604</ele>
        <time>2020-01-05T09:49:40.000Z</time>
      </trkpt>
      <trkpt lat="42.75875" lon="1.59215">
        <ele>1605</ele>
        <time>2020-01-05T09:49:42.000Z</time>
      </trkpt>
      <trkpt lat="42.75874" lon="1.59216">
        <ele>1605</ele>
        <time>2020-01-05T09:49:44.000Z</time>
      </trkpt>
      <trkpt lat="42.75873" lon="1.59217">
        <ele>1605</ele>
        <time>2020-01-05T09:49:46.000Z</time>
      </trkpt>
      <trkpt lat="42.75872" lon="1.59218">
        <ele>1606</ele>
        <time>2020-01-05T09:49:48.000Z</time>
      </trkpt>
      <trkpt lat="42.75871" lon="1.59219">
        <ele>1606</ele>
        <time>2020-01-05T09:49:50.000Z</time>
      </trkpt>
      <trkpt lat="42.7587" lon="1.5922">
        <ele>1607</ele>
        <time>2020-01-05T09:49:52.000Z</time>
      </trkpt>
      <trkpt lat="42.75869" lon="1.59221">
        <ele>1607</ele>
        <time>2020-01-05T09:49:54.000Z</time>
      </trkpt>
      <trkpt lat="42.75868" lon="1.59222">
        <ele>1608</ele>
        <time>2020-01-05T09:49:56.000Z</time>
      </trkpt>
      <trkpt lat="42.75868" lon="1.59222">
        <ele>1608</ele>
        <time>2020-01-05T09:49:58.000Z</time>
      </trkpt>
      <trkpt lat="42.75867" lon="1.59223">
        <ele>1608</ele>
        <time>2020-01-05T09:50:00.000Z</time>
      </trkpt>
      <trkpt lat="42.75866" lon="1.59225">
        <ele>1609</ele>
        <time>2020-01-05T09:50:02.000Z</time>
      </trkpt>
      <trkpt lat="42.75866" lon="1.59225">
        <ele>1609</ele>
        <time>2020-01-05T09:50:04.000Z</time>
      </trkpt>
      <trkpt lat="42.75865" lon="1.59226">
        <ele>1609</ele>
        <time>2020-01-05T09:50:06.000Z</time>
      </trkpt>
      <trkpt lat="42.75864" lon="1.59228">
        <ele>1610</ele>
        <time>2020-01-05T09:50:08.000Z</time>
      </trkpt>
      <trkpt lat="42.75863" lon="1.59228">
        <ele>1610</ele>
        <time>2020-01-05T09:50:10.000Z</time>
      </trkpt>
      <trkpt lat="42.75862" lon="1.59229">
        <ele>1611</ele>
        <time>2020-01-05T09:50:12.000Z</time>
      </trkpt>
      <trkpt lat="42.75861" lon="1.5923">
        <ele>1611</ele>
        <time>2020-01-05T09:50:14.000Z</time>
      </trkpt>
      <trkpt lat="42.7586" lon="1.5923">
        <ele>1611</ele>
        <time>2020-01-05T09:50:16.000Z</time>
      </trkpt>
      <trkpt lat="42.75859" lon="1.59231">
        <ele>1612</ele>
        <time>2020-01-05T09:50:18.000Z</time>
      </trkpt>
      <trkpt lat="42.75858" lon="1.59232">
        <ele>1612</ele>
        <time>2020-01-05T09:50:20.000Z</time>
      </trkpt>
      <trkpt lat="42.75857" lon="1.59233">
        <ele>1613</ele>
        <time>2020-01-05T09:50:22.000Z</time>
      </trkpt>
      <trkpt lat="42.75856" lon="1.59235">
        <ele>1613</ele>
        <time>2020-01-05T09:50:24.000Z</time>
      </trkpt>
      <trkpt lat="42.75855" lon="1.59236">
        <ele>1614</ele>
        <time>2020-01-05T09:50:26.000Z</time>
      </trkpt>
      <trkpt lat="42.75854" lon="1.59236">
        <ele>1614</ele>
        <time>2020-01-05T09:50:28.000Z</time>
      </trkpt>
      <trkpt lat="42.75853" lon="1.59236">
        <ele>1614</ele>
        <time>2020-01-05T09:50:30.000Z</time>
      </trkpt>
      <trkpt lat="42.75853" lon="1.59236">
        <ele>1614</ele>
        <time>2020-01-05T09:50:32.000Z</time>
      </trkpt>
      <trkpt lat="42.75852" lon="1.59236">
        <ele>1614</ele>
        <time>2020-01-05T09:50:34.000Z</time>
      </trkpt>
      <trkpt lat="42.75852" lon="1.59236">
        <ele>1614</ele>
        <time>2020-01-05T09:50:36.000Z</time>
      </trkpt>
      <trkpt lat="42.75852" lon="1.59237">
        <ele>1615</ele>
        <time>2020-01-05T09:50:38.000Z</time>
      </trkpt>
      <trkpt lat="42.75851" lon="1.59238">
        <ele>1615</ele>
        <time>2020-01-05T09:50:40.000Z</time>
      </trkpt>
      <trkpt lat="42.7585" lon="1.59238">
        <ele>1615</ele>
        <time>2020-01-05T09:50:42.000Z</time>
      </trkpt>
      <trkpt lat="42.7585" lon="1.59239">
        <ele>1615</ele>
        <time>2020-01-05T09:50:44.000Z</time>
      </trkpt>
      <trkpt lat="42.75849" lon="1.59239">
        <ele>1615</ele>
        <time>2020-01-05T09:50:46.000Z</time>
      </trkpt>
      <trkpt lat="42.75848" lon="1.5924">
        <ele>1616</ele>
        <time>2020-01-05T09:50:48.000Z</time>
      </trkpt>
      <trkpt lat="42.75848" lon="1.59241">
        <ele>1616</ele>
        <time>2020-01-05T09:50:50.000Z</time>
      </trkpt>
      <trkpt lat="42.75847" lon="1.59242">
        <ele>1616</ele>
        <time>2020-01-05T09:50:52.000Z</time>
      </trkpt>
      <trkpt lat="42.75846" lon="1.59243">
        <ele>1616</ele>
        <time>2020-01-05T09:50:54.000Z</time>
      </trkpt>
      <trkpt lat="42.75845" lon="1.59244">
        <ele>1616</ele>
        <time>2020-01-05T09:50:56.000Z</time>
      </trkpt>
      <trkpt lat="42.75845" lon="1.59245">
        <ele>1617</ele>
        <time>2020-01-05T09:50:58.000Z</time>
      </trkpt>
      <trkpt lat="42.75844" lon="1.59245">
        <ele>1617</ele>
        <time>2020-01-05T09:51:00.000Z</time>
      </trkpt>
      <trkpt lat="42.75842" lon="1.59246">
        <ele>1618</ele>
        <time>2020-01-05T09:51:02.000Z</time>
      </trkpt>
      <trkpt lat="42.75841" lon="1.59247">
        <ele>1618</ele>
        <time>2020-01-05T09:51:04.000Z</time>
      </trkpt>
      <trkpt lat="42.75841" lon="1.59248">
        <ele>1618</ele>
        <time>2020-01-05T09:51:06.000Z</time>
      </trkpt>
      <trkpt lat="42.7584" lon="1.5925">
        <ele>1619</ele>
        <time>2020-01-05T09:51:08.000Z</time>
      </trkpt>
      <trkpt lat="42.75839" lon="1.59251">
        <ele>1619</ele>
        <time>2020-01-05T09:51:10.000Z</time>
      </trkpt>
      <trkpt lat="42.75838" lon="1.59252">
        <ele>1619</ele>
        <time>2020-01-05T09:51:12.000Z</time>
      </trkpt>
      <trkpt lat="42.75838" lon="1.59252">
        <ele>1620</ele>
        <time>2020-01-05T09:51:14.000Z</time>
      </trkpt>
      <trkpt lat="42.75837" lon="1.59253">
        <ele>1620</ele>
        <time>2020-01-05T09:51:16.000Z</time>
      </trkpt>
      <trkpt lat="42.75836" lon="1.59254">
        <ele>1620</ele>
        <time>2020-01-05T09:51:18.000Z</time>
      </trkpt>
      <trkpt lat="42.75835" lon="1.59255">
        <ele>1620</ele>
        <time>2020-01-05T09:51:20.000Z</time>
      </trkpt>
      <trkpt lat="42.75834" lon="1.59256">
        <ele>1620</ele>
        <time>2020-01-05T09:51:22.000Z</time>
      </trkpt>
      <trkpt lat="42.75833" lon="1.59257">
        <ele>1620</ele>
        <time>2020-01-05T09:51:24.000Z</time>
      </trkpt>
      <trkpt lat="42.75832" lon="1.59257">
        <ele>1620</ele>
        <time>2020-01-05T09:51:26.000Z</time>
      </trkpt>
      <trkpt lat="42.75831" lon="1.59258">
        <ele>1620</ele>
        <time>2020-01-05T09:51:28.000Z</time>
      </trkpt>
      <trkpt lat="42.7583" lon="1.59258">
        <ele>1620</ele>
        <time>2020-01-05T09:51:30.000Z</time>
      </trkpt>
      <trkpt lat="42.75829" lon="1.59259">
        <ele>1620</ele>
        <time>2020-01-05T09:51:32.000Z</time>
      </trkpt>
      <trkpt lat="42.75829" lon="1.59259">
        <ele>1620</ele>
        <time>2020-01-05T09:51:34.000Z</time>
      </trkpt>
      <trkpt lat="42.75828" lon="1.5926">
        <ele>1620</ele>
        <time>2020-01-05T09:51:36.000Z</time>
      </trkpt>
      <trkpt lat="42.75827" lon="1.59261">
        <ele>1621</ele>
        <time>2020-01-05T09:51:38.000Z</time>
      </trkpt>
      <trkpt lat="42.75826" lon="1.59262">
        <ele>1621</ele>
        <time>2020-01-05T09:51:40.000Z</time>
      </trkpt>
      <trkpt lat="42.75825" lon="1.59263">
        <ele>1621</ele>
        <time>2020-01-05T09:51:42.000Z</time>
      </trkpt>
      <trkpt lat="42.75824" lon="1.59264">
        <ele>1621</ele>
        <time>2020-01-05T09:51:44.000Z</time>
      </trkpt>
      <trkpt lat="42.75824" lon="1.59265">
        <ele>1621</ele>
        <time>2020-01-05T09:51:46.000Z</time>
      </trkpt>
      <trkpt lat="42.75823" lon="1.59266">
        <ele>1621</ele>
        <time>2020-01-05T09:51:48.000Z</time>
      </trkpt>
      <trkpt lat="42.75822" lon="1.59267">
        <ele>1621</ele>
        <time>2020-01-05T09:51:50.000Z</time>
      </trkpt>
      <trkpt lat="42.75821" lon="1.59268">
        <ele>1621</ele>
        <time>2020-01-05T09:51:52.000Z</time>
      </trkpt>
      <trkpt lat="42.75819" lon="1.59269">
        <ele>1621</ele>
        <time>2020-01-05T09:51:54.000Z</time>
      </trkpt>
      <trkpt lat="42.75819" lon="1.5927">
        <ele>1621</ele>
        <time>2020-01-05T09:51:56.000Z</time>
      </trkpt>
      <trkpt lat="42.75818" lon="1.59271">
        <ele>1621</ele>
        <time>2020-01-05T09:51:58.000Z</time>
      </trkpt>
      <trkpt lat="42.75817" lon="1.59272">
        <ele>1622</ele>
        <time>2020-01-05T09:52:00.000Z</time>
      </trkpt>
      <trkpt lat="42.75816" lon="1.59273">
        <ele>1622</ele>
        <time>2020-01-05T09:52:02.000Z</time>
      </trkpt>
      <trkpt lat="42.75815" lon="1.59275">
        <ele>1622</ele>
        <time>2020-01-05T09:52:04.000Z</time>
      </trkpt>
      <trkpt lat="42.75814" lon="1.59276">
        <ele>1622</ele>
        <time>2020-01-05T09:52:06.000Z</time>
      </trkpt>
      <trkpt lat="42.75814" lon="1.59277">
        <ele>1622</ele>
        <time>2020-01-05T09:52:08.000Z</time>
      </trkpt>
      <trkpt lat="42.75812" lon="1.59278">
        <ele>1622</ele>
        <time>2020-01-05T09:52:10.000Z</time>
      </trkpt>
      <trkpt lat="42.75811" lon="1.59279">
        <ele>1622</ele>
        <time>2020-01-05T09:52:12.000Z</time>
      </trkpt>
      <trkpt lat="42.7581" lon="1.5928">
        <ele>1622</ele>
        <time>2020-01-05T09:52:14.000Z</time>
      </trkpt>
      <trkpt lat="42.75809" lon="1.59281">
        <ele>1622</ele>
        <time>2020-01-05T09:52:16.000Z</time>
      </trkpt>
      <trkpt lat="42.75809" lon="1.59282">
        <ele>1622</ele>
        <time>2020-01-05T09:52:18.000Z</time>
      </trkpt>
      <trkpt lat="42.75808" lon="1.59283">
        <ele>1623</ele>
        <time>2020-01-05T09:52:20.000Z</time>
      </trkpt>
      <trkpt lat="42.75807" lon="1.59283">
        <ele>1623</ele>
        <time>2020-01-05T09:52:22.000Z</time>
      </trkpt>
      <trkpt lat="42.75806" lon="1.59284">
        <ele>1623</ele>
        <time>2020-01-05T09:52:24.000Z</time>
      </trkpt>
      <trkpt lat="42.75806" lon="1.59284">
        <ele>1623</ele>
        <time>2020-01-05T09:52:26.000Z</time>
      </trkpt>
      <trkpt lat="42.75805" lon="1.59285">
        <ele>1623</ele>
        <time>2020-01-05T09:52:28.000Z</time>
      </trkpt>
      <trkpt lat="42.75804" lon="1.59286">
        <ele>1623</ele>
        <time>2020-01-05T09:52:30.000Z</time>
      </trkpt>
      <trkpt lat="42.75803" lon="1.59287">
        <ele>1623</ele>
        <time>2020-01-05T09:52:32.000Z</time>
      </trkpt>
      <trkpt lat="42.75803" lon="1.59289">
        <ele>1624</ele>
        <time>2020-01-05T09:52:34.000Z</time>
      </trkpt>
      <trkpt lat="42.75802" lon="1.5929">
        <ele>1624</ele>
        <time>2020-01-05T09:52:36.000Z</time>
      </trkpt>
      <trkpt lat="42.75802" lon="1.59292">
        <ele>1624</ele>
        <time>2020-01-05T09:52:38.000Z</time>
      </trkpt>
      <trkpt lat="42.75801" lon="1.59293">
        <ele>1624</ele>
        <time>2020-01-05T09:52:40.000Z</time>
      </trkpt>
      <trkpt lat="42.75801" lon="1.59294">
        <ele>1625</ele>
        <time>2020-01-05T09:52:42.000Z</time>
      </trkpt>
      <trkpt lat="42.758" lon="1.59295">
        <ele>1625</ele>
        <time>2020-01-05T09:52:44.000Z</time>
      </trkpt>
      <trkpt lat="42.75799" lon="1.59296">
        <ele>1625</ele>
        <time>2020-01-05T09:52:46.000Z</time>
      </trkpt>
      <trkpt lat="42.75798" lon="1.59297">
        <ele>1626</ele>
        <time>2020-01-05T09:52:48.000Z</time>
      </trkpt>
      <trkpt lat="42.75797" lon="1.59298">
        <ele>1626</ele>
        <time>2020-01-05T09:52:50.000Z</time>
      </trkpt>
      <trkpt lat="42.75797" lon="1.593">
        <ele>1626</ele>
        <time>2020-01-05T09:52:52.000Z</time>
      </trkpt>
      <trkpt lat="42.75796" lon="1.59301">
        <ele>1626</ele>
        <time>2020-01-05T09:52:54.000Z</time>
      </trkpt>
      <trkpt lat="42.75795" lon="1.59303">
        <ele>1627</ele>
        <time>2020-01-05T09:52:56.000Z</time>
      </trkpt>
      <trkpt lat="42.75794" lon="1.59304">
        <ele>1627</ele>
        <time>2020-01-05T09:52:58.000Z</time>
      </trkpt>
      <trkpt lat="42.75794" lon="1.59305">
        <ele>1627</ele>
        <time>2020-01-05T09:53:00.000Z</time>
      </trkpt>
      <trkpt lat="42.75793" lon="1.59306">
        <ele>1628</ele>
        <time>2020-01-05T09:53:02.000Z</time>
      </trkpt>
      <trkpt lat="42.75792" lon="1.59307">
        <ele>1628</ele>
        <time>2020-01-05T09:53:04.000Z</time>
      </trkpt>
      <trkpt lat="42.75792" lon="1.59308">
        <ele>1628</ele>
        <time>2020-01-05T09:53:06.000Z</time>
      </trkpt>
      <trkpt lat="42.75791" lon="1.5931">
        <ele>1628</ele>
        <time>2020-01-05T09:53:08.000Z</time>
      </trkpt>
      <trkpt lat="42.7579" lon="1.59311">
        <ele>1629</ele>
        <time>2020-01-05T09:53:10.000Z</time>
      </trkpt>
      <trkpt lat="42.7579" lon="1.59313">
        <ele>1629</ele>
        <time>2020-01-05T09:53:12.000Z</time>
      </trkpt>
      <trkpt lat="42.75789" lon="1.59314">
        <ele>1629</ele>
        <time>2020-01-05T09:53:14.000Z</time>
      </trkpt>
      <trkpt lat="42.75788" lon="1.59316">
        <ele>1630</ele>
        <time>2020-01-05T09:53:16.000Z</time>
      </trkpt>
      <trkpt lat="42.75787" lon="1.59317">
        <ele>1630</ele>
        <time>2020-01-05T09:53:18.000Z</time>
      </trkpt>
      <trkpt lat="42.75787" lon="1.59319">
        <ele>1630</ele>
        <time>2020-01-05T09:53:20.000Z</time>
      </trkpt>
      <trkpt lat="42.75786" lon="1.5932">
        <ele>1630</ele>
        <time>2020-01-05T09:53:22.000Z</time>
      </trkpt>
      <trkpt lat="42.75785" lon="1.59322">
        <ele>1630</ele>
        <time>2020-01-05T09:53:24.000Z</time>
      </trkpt>
      <trkpt lat="42.75784" lon="1.59323">
        <ele>1630</ele>
        <time>2020-01-05T09:53:26.000Z</time>
      </trkpt>
      <trkpt lat="42.75784" lon="1.59324">
        <ele>1630</ele>
        <time>2020-01-05T09:53:28.000Z</time>
      </trkpt>
      <trkpt lat="42.75783" lon="1.59325">
        <ele>1630</ele>
        <time>2020-01-05T09:53:30.000Z</time>
      </trkpt>
      <trkpt lat="42.75782" lon="1.59326">
        <ele>1630</ele>
        <time>2020-01-05T09:53:32.000Z</time>
      </trkpt>
      <trkpt lat="42.75781" lon="1.59328">
        <ele>1630</ele>
        <time>2020-01-05T09:53:34.000Z</time>
      </trkpt>
      <trkpt lat="42.75781" lon="1.59329">
        <ele>1630</ele>
        <time>2020-01-05T09:53:36.000Z</time>
      </trkpt>
      <trkpt lat="42.7578" lon="1.5933">
        <ele>1630</ele>
        <time>2020-01-05T09:53:38.000Z</time>
      </trkpt>
      <trkpt lat="42.75779" lon="1.59331">
        <ele>1630</ele>
        <time>2020-01-05T09:53:40.000Z</time>
      </trkpt>
      <trkpt lat="42.75778" lon="1.59332">
        <ele>1630</ele>
        <time>2020-01-05T09:53:42.000Z</time>
      </trkpt>
      <trkpt lat="42.75778" lon="1.59334">
        <ele>1630</ele>
        <time>2020-01-05T09:53:44.000Z</time>
      </trkpt>
      <trkpt lat="42.75777" lon="1.59335">
        <ele>1631</ele>
        <time>2020-01-05T09:53:46.000Z</time>
      </trkpt>
      <trkpt lat="42.75776" lon="1.59336">
        <ele>1631</ele>
        <time>2020-01-05T09:53:48.000Z</time>
      </trkpt>
      <trkpt lat="42.75775" lon="1.59338">
        <ele>1631</ele>
        <time>2020-01-05T09:53:50.000Z</time>
      </trkpt>
      <trkpt lat="42.75774" lon="1.59339">
        <ele>1631</ele>
        <time>2020-01-05T09:53:52.000Z</time>
      </trkpt>
      <trkpt lat="42.75773" lon="1.59341">
        <ele>1631</ele>
        <time>2020-01-05T09:53:54.000Z</time>
      </trkpt>
      <trkpt lat="42.75772" lon="1.59343">
        <ele>1631</ele>
        <time>2020-01-05T09:53:56.000Z</time>
      </trkpt>
      <trkpt lat="42.75771" lon="1.59345">
        <ele>1632</ele>
        <time>2020-01-05T09:53:58.000Z</time>
      </trkpt>
      <trkpt lat="42.75769" lon="1.59347">
        <ele>1632</ele>
        <time>2020-01-05T09:54:00.000Z</time>
      </trkpt>
      <trkpt lat="42.75768" lon="1.59349">
        <ele>1632</ele>
        <time>2020-01-05T09:54:02.000Z</time>
      </trkpt>
      <trkpt lat="42.75768" lon="1.5935">
        <ele>1633</ele>
        <time>2020-01-05T09:54:04.000Z</time>
      </trkpt>
      <trkpt lat="42.75767" lon="1.59352">
        <ele>1633</ele>
        <time>2020-01-05T09:54:06.000Z</time>
      </trkpt>
      <trkpt lat="42.75766" lon="1.59354">
        <ele>1633</ele>
        <time>2020-01-05T09:54:08.000Z</time>
      </trkpt>
      <trkpt lat="42.75766" lon="1.59355">
        <ele>1634</ele>
        <time>2020-01-05T09:54:10.000Z</time>
      </trkpt>
      <trkpt lat="42.75765" lon="1.59357">
        <ele>1634</ele>
        <time>2020-01-05T09:54:12.000Z</time>
      </trkpt>
      <trkpt lat="42.75764" lon="1.59359">
        <ele>1634</ele>
        <time>2020-01-05T09:54:14.000Z</time>
      </trkpt>
      <trkpt lat="42.75763" lon="1.59361">
        <ele>1634</ele>
        <time>2020-01-05T09:54:16.000Z</time>
      </trkpt>
      <trkpt lat="42.75763" lon="1.59362">
        <ele>1635</ele>
        <time>2020-01-05T09:54:18.000Z</time>
      </trkpt>
      <trkpt lat="42.75762" lon="1.59364">
        <ele>1635</ele>
        <time>2020-01-05T09:54:20.000Z</time>
      </trkpt>
      <trkpt lat="42.75762" lon="1.59366">
        <ele>1635</ele>
        <time>2020-01-05T09:54:22.000Z</time>
      </trkpt>
      <trkpt lat="42.75761" lon="1.59367">
        <ele>1635</ele>
        <time>2020-01-05T09:54:24.000Z</time>
      </trkpt>
      <trkpt lat="42.7576" lon="1.59369">
        <ele>1636</ele>
        <time>2020-01-05T09:54:26.000Z</time>
      </trkpt>
      <trkpt lat="42.75759" lon="1.59371">
        <ele>1636</ele>
        <time>2020-01-05T09:54:28.000Z</time>
      </trkpt>
      <trkpt lat="42.75759" lon="1.59373">
        <ele>1636</ele>
        <time>2020-01-05T09:54:30.000Z</time>
      </trkpt>
      <trkpt lat="42.75758" lon="1.59375">
        <ele>1636</ele>
        <time>2020-01-05T09:54:32.000Z</time>
      </trkpt>
      <trkpt lat="42.75757" lon="1.59378">
        <ele>1637</ele>
        <time>2020-01-05T09:54:34.000Z</time>
      </trkpt>
      <trkpt lat="42.75756" lon="1.59379">
        <ele>1637</ele>
        <time>2020-01-05T09:54:36.000Z</time>
      </trkpt>
      <trkpt lat="42.75754" lon="1.59382">
        <ele>1638</ele>
        <time>2020-01-05T09:54:38.000Z</time>
      </trkpt>
      <trkpt lat="42.75753" lon="1.59383">
        <ele>1637</ele>
        <time>2020-01-05T09:54:40.000Z</time>
      </trkpt>
      <trkpt lat="42.75752" lon="1.59384">
        <ele>1637</ele>
        <time>2020-01-05T09:54:42.000Z</time>
      </trkpt>
      <trkpt lat="42.75751" lon="1.59386">
        <ele>1637</ele>
        <time>2020-01-05T09:54:44.000Z</time>
      </trkpt>
      <trkpt lat="42.75749" lon="1.59387">
        <ele>1637</ele>
        <time>2020-01-05T09:54:46.000Z</time>
      </trkpt>
      <trkpt lat="42.75748" lon="1.59389">
        <ele>1637</ele>
        <time>2020-01-05T09:54:48.000Z</time>
      </trkpt>
      <trkpt lat="42.75746" lon="1.59391">
        <ele>1637</ele>
        <time>2020-01-05T09:54:50.000Z</time>
      </trkpt>
      <trkpt lat="42.75745" lon="1.59393">
        <ele>1637</ele>
        <time>2020-01-05T09:54:52.000Z</time>
      </trkpt>
      <trkpt lat="42.75744" lon="1.59395">
        <ele>1637</ele>
        <time>2020-01-05T09:54:54.000Z</time>
      </trkpt>
      <trkpt lat="42.75742" lon="1.59397">
        <ele>1637</ele>
        <time>2020-01-05T09:54:56.000Z</time>
      </trkpt>
      <trkpt lat="42.75741" lon="1.59399">
        <ele>1638</ele>
        <time>2020-01-05T09:54:58.000Z</time>
      </trkpt>
      <trkpt lat="42.7574" lon="1.594">
        <ele>1638</ele>
        <time>2020-01-05T09:55:00.000Z</time>
      </trkpt>
      <trkpt lat="42.75738" lon="1.59402">
        <ele>1638</ele>
        <time>2020-01-05T09:55:02.000Z</time>
      </trkpt>
      <trkpt lat="42.75737" lon="1.59404">
        <ele>1638</ele>
        <time>2020-01-05T09:55:04.000Z</time>
      </trkpt>
      <trkpt lat="42.75736" lon="1.59406">
        <ele>1637</ele>
        <time>2020-01-05T09:55:06.000Z</time>
      </trkpt>
      <trkpt lat="42.75735" lon="1.59409">
        <ele>1637</ele>
        <time>2020-01-05T09:55:08.000Z</time>
      </trkpt>
      <trkpt lat="42.75734" lon="1.59411">
        <ele>1637</ele>
        <time>2020-01-05T09:55:10.000Z</time>
      </trkpt>
      <trkpt lat="42.75732" lon="1.59413">
        <ele>1636</ele>
        <time>2020-01-05T09:55:12.000Z</time>
      </trkpt>
      <trkpt lat="42.75731" lon="1.59415">
        <ele>1636</ele>
        <time>2020-01-05T09:55:14.000Z</time>
      </trkpt>
      <trkpt lat="42.7573" lon="1.59417">
        <ele>1636</ele>
        <time>2020-01-05T09:55:16.000Z</time>
      </trkpt>
      <trkpt lat="42.75729" lon="1.59419">
        <ele>1635</ele>
        <time>2020-01-05T09:55:18.000Z</time>
      </trkpt>
      <trkpt lat="42.75727" lon="1.59421">
        <ele>1635</ele>
        <time>2020-01-05T09:55:20.000Z</time>
      </trkpt>
      <trkpt lat="42.75726" lon="1.59424">
        <ele>1635</ele>
        <time>2020-01-05T09:55:22.000Z</time>
      </trkpt>
      <trkpt lat="42.75725" lon="1.59426">
        <ele>1634</ele>
        <time>2020-01-05T09:55:24.000Z</time>
      </trkpt>
      <trkpt lat="42.75724" lon="1.59428">
        <ele>1634</ele>
        <time>2020-01-05T09:55:26.000Z</time>
      </trkpt>
      <trkpt lat="42.75723" lon="1.59431">
        <ele>1634</ele>
        <time>2020-01-05T09:55:28.000Z</time>
      </trkpt>
      <trkpt lat="42.75722" lon="1.59434">
        <ele>1633</ele>
        <time>2020-01-05T09:55:30.000Z</time>
      </trkpt>
      <trkpt lat="42.75721" lon="1.59436">
        <ele>1633</ele>
        <time>2020-01-05T09:55:32.000Z</time>
      </trkpt>
      <trkpt lat="42.7572" lon="1.59439">
        <ele>1632</ele>
        <time>2020-01-05T09:55:34.000Z</time>
      </trkpt>
      <trkpt lat="42.75718" lon="1.59442">
        <ele>1632</ele>
        <time>2020-01-05T09:55:36.000Z</time>
      </trkpt>
      <trkpt lat="42.75717" lon="1.59444">
        <ele>1632</ele>
        <time>2020-01-05T09:55:38.000Z</time>
      </trkpt>
      <trkpt lat="42.75716" lon="1.59447">
        <ele>1631</ele>
        <time>2020-01-05T09:55:40.000Z</time>
      </trkpt>
      <trkpt lat="42.75715" lon="1.5945">
        <ele>1632</ele>
        <time>2020-01-05T09:55:42.000Z</time>
      </trkpt>
      <trkpt lat="42.75713" lon="1.59453">
        <ele>1633</ele>
        <time>2020-01-05T09:55:44.000Z</time>
      </trkpt>
      <trkpt lat="42.75712" lon="1.59456">
        <ele>1633</ele>
        <time>2020-01-05T09:55:46.000Z</time>
      </trkpt>
      <trkpt lat="42.75711" lon="1.59458">
        <ele>1634</ele>
        <time>2020-01-05T09:55:48.000Z</time>
      </trkpt>
      <trkpt lat="42.7571" lon="1.59461">
        <ele>1634</ele>
        <time>2020-01-05T09:55:50.000Z</time>
      </trkpt>
      <trkpt lat="42.75709" lon="1.59464">
        <ele>1635</ele>
        <time>2020-01-05T09:55:52.000Z</time>
      </trkpt>
      <trkpt lat="42.75707" lon="1.59467">
        <ele>1636</ele>
        <time>2020-01-05T09:55:54.000Z</time>
      </trkpt>
      <trkpt lat="42.75706" lon="1.59469">
        <ele>1636</ele>
        <time>2020-01-05T09:55:56.000Z</time>
      </trkpt>
      <trkpt lat="42.75705" lon="1.59471">
        <ele>1637</ele>
        <time>2020-01-05T09:55:58.000Z</time>
      </trkpt>
      <trkpt lat="42.75704" lon="1.59474">
        <ele>1637</ele>
        <time>2020-01-05T09:56:00.000Z</time>
      </trkpt>
      <trkpt lat="42.75702" lon="1.59475">
        <ele>1638</ele>
        <time>2020-01-05T09:56:02.000Z</time>
      </trkpt>
      <trkpt lat="42.75701" lon="1.59478">
        <ele>1638</ele>
        <time>2020-01-05T09:56:04.000Z</time>
      </trkpt>
      <trkpt lat="42.757" lon="1.59479">
        <ele>1639</ele>
        <time>2020-01-05T09:56:06.000Z</time>
      </trkpt>
      <trkpt lat="42.75699" lon="1.59481">
        <ele>1639</ele>
        <time>2020-01-05T09:56:08.000Z</time>
      </trkpt>
      <trkpt lat="42.75698" lon="1.59483">
        <ele>1640</ele>
        <time>2020-01-05T09:56:10.000Z</time>
      </trkpt>
      <trkpt lat="42.75697" lon="1.59485">
        <ele>1640</ele>
        <time>2020-01-05T09:56:12.000Z</time>
      </trkpt>
      <trkpt lat="42.75696" lon="1.59487">
        <ele>1640</ele>
        <time>2020-01-05T09:56:14.000Z</time>
      </trkpt>
      <trkpt lat="42.75695" lon="1.59489">
        <ele>1640</ele>
        <time>2020-01-05T09:56:16.000Z</time>
      </trkpt>
      <trkpt lat="42.75694" lon="1.59491">
        <ele>1640</ele>
        <time>2020-01-05T09:56:18.000Z</time>
      </trkpt>
      <trkpt lat="42.75693" lon="1.59493">
        <ele>1640</ele>
        <time>2020-01-05T09:56:20.000Z</time>
      </trkpt>
      <trkpt lat="42.75692" lon="1.59494">
        <ele>1640</ele>
        <time>2020-01-05T09:56:22.000Z</time>
      </trkpt>
      <trkpt lat="42.75691" lon="1.59496">
        <ele>1639</ele>
        <time>2020-01-05T09:56:24.000Z</time>
      </trkpt>
      <trkpt lat="42.7569" lon="1.59498">
        <ele>1639</ele>
        <time>2020-01-05T09:56:26.000Z</time>
      </trkpt>
      <trkpt lat="42.7569" lon="1.59499">
        <ele>1639</ele>
        <time>2020-01-05T09:56:28.000Z</time>
      </trkpt>
      <trkpt lat="42.75689" lon="1.595">
        <ele>1639</ele>
        <time>2020-01-05T09:56:30.000Z</time>
      </trkpt>
      <trkpt lat="42.75689" lon="1.59501">
        <ele>1639</ele>
        <time>2020-01-05T09:56:32.000Z</time>
      </trkpt>
      <trkpt lat="42.75688" lon="1.59502">
        <ele>1639</ele>
        <time>2020-01-05T09:56:34.000Z</time>
      </trkpt>
      <trkpt lat="42.75687" lon="1.59503">
        <ele>1640</ele>
        <time>2020-01-05T09:56:36.000Z</time>
      </trkpt>
      <trkpt lat="42.75687" lon="1.59503">
        <ele>1640</ele>
        <time>2020-01-05T09:56:38.000Z</time>
      </trkpt>
      <trkpt lat="42.75686" lon="1.59504">
        <ele>1640</ele>
        <time>2020-01-05T09:56:40.000Z</time>
      </trkpt>
      <trkpt lat="42.75685" lon="1.59505">
        <ele>1641</ele>
        <time>2020-01-05T09:56:42.000Z</time>
      </trkpt>
      <trkpt lat="42.75685" lon="1.59506">
        <ele>1641</ele>
        <time>2020-01-05T09:56:44.000Z</time>
      </trkpt>
      <trkpt lat="42.75684" lon="1.59506">
        <ele>1641</ele>
        <time>2020-01-05T09:56:46.000Z</time>
      </trkpt>
      <trkpt lat="42.75683" lon="1.59507">
        <ele>1642</ele>
        <time>2020-01-05T09:56:48.000Z</time>
      </trkpt>
      <trkpt lat="42.75683" lon="1.59508">
        <ele>1642</ele>
        <time>2020-01-05T09:56:50.000Z</time>
      </trkpt>
      <trkpt lat="42.75682" lon="1.59509">
        <ele>1642</ele>
        <time>2020-01-05T09:56:52.000Z</time>
      </trkpt>
      <trkpt lat="42.75682" lon="1.5951">
        <ele>1643</ele>
        <time>2020-01-05T09:56:54.000Z</time>
      </trkpt>
      <trkpt lat="42.75681" lon="1.59511">
        <ele>1643</ele>
        <time>2020-01-05T09:56:56.000Z</time>
      </trkpt>
      <trkpt lat="42.7568" lon="1.59511">
        <ele>1644</ele>
        <time>2020-01-05T09:56:58.000Z</time>
      </trkpt>
      <trkpt lat="42.75679" lon="1.59512">
        <ele>1644</ele>
        <time>2020-01-05T09:57:00.000Z</time>
      </trkpt>
      <trkpt lat="42.75679" lon="1.59512">
        <ele>1644</ele>
        <time>2020-01-05T09:57:02.000Z</time>
      </trkpt>
      <trkpt lat="42.75678" lon="1.59513">
        <ele>1644</ele>
        <time>2020-01-05T09:57:04.000Z</time>
      </trkpt>
      <trkpt lat="42.75678" lon="1.59514">
        <ele>1645</ele>
        <time>2020-01-05T09:57:06.000Z</time>
      </trkpt>
      <trkpt lat="42.75677" lon="1.59515">
        <ele>1645</ele>
        <time>2020-01-05T09:57:08.000Z</time>
      </trkpt>
      <trkpt lat="42.75676" lon="1.59515">
        <ele>1646</ele>
        <time>2020-01-05T09:57:10.000Z</time>
      </trkpt>
      <trkpt lat="42.75675" lon="1.59516">
        <ele>1646</ele>
        <time>2020-01-05T09:57:12.000Z</time>
      </trkpt>
      <trkpt lat="42.75675" lon="1.59518">
        <ele>1646</ele>
        <time>2020-01-05T09:57:14.000Z</time>
      </trkpt>
      <trkpt lat="42.75674" lon="1.59519">
        <ele>1647</ele>
        <time>2020-01-05T09:57:16.000Z</time>
      </trkpt>
      <trkpt lat="42.75673" lon="1.5952">
        <ele>1647</ele>
        <time>2020-01-05T09:57:18.000Z</time>
      </trkpt>
      <trkpt lat="42.75672" lon="1.59521">
        <ele>1648</ele>
        <time>2020-01-05T09:57:20.000Z</time>
      </trkpt>
      <trkpt lat="42.75672" lon="1.59522">
        <ele>1648</ele>
        <time>2020-01-05T09:57:22.000Z</time>
      </trkpt>
      <trkpt lat="42.75671" lon="1.59523">
        <ele>1649</ele>
        <time>2020-01-05T09:57:24.000Z</time>
      </trkpt>
      <trkpt lat="42.75671" lon="1.59524">
        <ele>1649</ele>
        <time>2020-01-05T09:57:26.000Z</time>
      </trkpt>
      <trkpt lat="42.7567" lon="1.59524">
        <ele>1649</ele>
        <time>2020-01-05T09:57:28.000Z</time>
      </trkpt>
      <trkpt lat="42.7567" lon="1.59525">
        <ele>1649</ele>
        <time>2020-01-05T09:57:30.000Z</time>
      </trkpt>
      <trkpt lat="42.75669" lon="1.59526">
        <ele>1649</ele>
        <time>2020-01-05T09:57:32.000Z</time>
      </trkpt>
      <trkpt lat="42.75668" lon="1.59527">
        <ele>1649</ele>
        <time>2020-01-05T09:57:34.000Z</time>
      </trkpt>
      <trkpt lat="42.75668" lon="1.59528">
        <ele>1649</ele>
        <time>2020-01-05T09:57:36.000Z</time>
      </trkpt>
      <trkpt lat="42.75667" lon="1.59529">
        <ele>1649</ele>
        <time>2020-01-05T09:57:38.000Z</time>
      </trkpt>
      <trkpt lat="42.75666" lon="1.5953">
        <ele>1649</ele>
        <time>2020-01-05T09:57:40.000Z</time>
      </trkpt>
      <trkpt lat="42.75665" lon="1.59531">
        <ele>1649</ele>
        <time>2020-01-05T09:57:42.000Z</time>
      </trkpt>
      <trkpt lat="42.75666" lon="1.59532">
        <ele>1649</ele>
        <time>2020-01-05T09:57:44.000Z</time>
      </trkpt>
      <trkpt lat="42.75666" lon="1.59531">
        <ele>1649</ele>
        <time>2020-01-05T09:57:46.000Z</time>
      </trkpt>
      <trkpt lat="42.75666" lon="1.59531">
        <ele>1649</ele>
        <time>2020-01-05T09:57:48.000Z</time>
      </trkpt>
      <trkpt lat="42.75666" lon="1.59532">
        <ele>1649</ele>
        <time>2020-01-05T09:57:50.000Z</time>
      </trkpt>
      <trkpt lat="42.75666" lon="1.59532">
        <ele>1649</ele>
        <time>2020-01-05T09:57:52.000Z</time>
      </trkpt>
      <trkpt lat="42.75667" lon="1.59532">
        <ele>1649</ele>
        <time>2020-01-05T09:57:54.000Z</time>
      </trkpt>
      <trkpt lat="42.75666" lon="1.59533">
        <ele>1649</ele>
        <time>2020-01-05T09:57:56.000Z</time>
      </trkpt>
      <trkpt lat="42.75666" lon="1.59532">
        <ele>1649</ele>
        <time>2020-01-05T09:57:58.000Z</time>
      </trkpt>
      <trkpt lat="42.75666" lon="1.59532">
        <ele>1649</ele>
        <time>2020-01-05T09:58:00.000Z</time>
      </trkpt>
      <trkpt lat="42.75666" lon="1.59532">
        <ele>1649</ele>
        <time>2020-01-05T09:58:02.000Z</time>
      </trkpt>
      <trkpt lat="42.75666" lon="1.59532">
        <ele>1649</ele>
        <time>2020-01-05T09:58:04.000Z</time>
      </trkpt>
      <trkpt lat="42.75666" lon="1.59532">
        <ele>1649</ele>
        <time>2020-01-05T09:58:06.000Z</time>
      </trkpt>
      <trkpt lat="42.75666" lon="1.59532">
        <ele>1649</ele>
        <time>2020-01-05T09:58:08.000Z</time>
      </trkpt>
      <trkpt lat="42.75666" lon="1.59532">
        <ele>1649</ele>
        <time>2020-01-05T09:58:10.000Z</time>
      </trkpt>
      <trkpt lat="42.75666" lon="1.59532">
        <ele>1649</ele>
        <time>2020-01-05T09:58:12.000Z</time>
      </trkpt>
      <trkpt lat="42.75666" lon="1.59532">
        <ele>1649</ele>
        <time>2020-01-05T09:58:14.000Z</time>
      </trkpt>
      <trkpt lat="42.75666" lon="1.59533">
        <ele>1649</ele>
        <time>2020-01-05T09:58:16.000Z</time>
      </trkpt>
      <trkpt lat="42.75666" lon="1.59533">
        <ele>1649</ele>
        <time>2020-01-05T09:58:18.000Z</time>
      </trkpt>
      <trkpt lat="42.75666" lon="1.59533">
        <ele>1649</ele>
        <time>2020-01-05T09:58:20.000Z</time>
      </trkpt>
      <trkpt lat="42.75666" lon="1.59533">
        <ele>1649</ele>
        <time>2020-01-05T09:58:22.000Z</time>
      </trkpt>
      <trkpt lat="42.75666" lon="1.59532">
        <ele>1649</ele>
        <time>2020-01-05T09:58:24.000Z</time>
      </trkpt>
      <trkpt lat="42.75666" lon="1.59532">
        <ele>1649</ele>
        <time>2020-01-05T09:58:26.000Z</time>
      </trkpt>
      <trkpt lat="42.75666" lon="1.59532">
        <ele>1649</ele>
        <time>2020-01-05T09:58:28.000Z</time>
      </trkpt>
      <trkpt lat="42.75666" lon="1.59532">
        <ele>1649</ele>
        <time>2020-01-05T09:58:30.000Z</time>
      </trkpt>
      <trkpt lat="42.75666" lon="1.59532">
        <ele>1649</ele>
        <time>2020-01-05T09:58:32.000Z</time>
      </trkpt>
      <trkpt lat="42.75666" lon="1.59532">
        <ele>1649</ele>
        <time>2020-01-05T09:58:34.000Z</time>
      </trkpt>
      <trkpt lat="42.75666" lon="1.59532">
        <ele>1649</ele>
        <time>2020-01-05T09:58:36.000Z</time>
      </trkpt>
      <trkpt lat="42.75666" lon="1.59532">
        <ele>1649</ele>
        <time>2020-01-05T09:58:38.000Z</time>
      </trkpt>
      <trkpt lat="42.75666" lon="1.59534">
        <ele>1649</ele>
        <time>2020-01-05T09:58:40.000Z</time>
      </trkpt>
      <trkpt lat="42.75666" lon="1.59535">
        <ele>1650</ele>
        <time>2020-01-05T09:58:42.000Z</time>
      </trkpt>
      <trkpt lat="42.75665" lon="1.59538">
        <ele>1650</ele>
        <time>2020-01-05T09:58:44.000Z</time>
      </trkpt>
      <trkpt lat="42.75665" lon="1.59541">
        <ele>1650</ele>
        <time>2020-01-05T09:58:46.000Z</time>
      </trkpt>
      <trkpt lat="42.75664" lon="1.59544">
        <ele>1650</ele>
        <time>2020-01-05T09:58:48.000Z</time>
      </trkpt>
      <trkpt lat="42.75663" lon="1.59547">
        <ele>1651</ele>
        <time>2020-01-05T09:58:50.000Z</time>
      </trkpt>
      <trkpt lat="42.75662" lon="1.59549">
        <ele>1651</ele>
        <time>2020-01-05T09:58:52.000Z</time>
      </trkpt>
      <trkpt lat="42.75661" lon="1.59552">
        <ele>1651</ele>
        <time>2020-01-05T09:58:54.000Z</time>
      </trkpt>
      <trkpt lat="42.75661" lon="1.59555">
        <ele>1651</ele>
        <time>2020-01-05T09:58:56.000Z</time>
      </trkpt>
      <trkpt lat="42.7566" lon="1.59557">
        <ele>1651</ele>
        <time>2020-01-05T09:58:58.000Z</time>
      </trkpt>
      <trkpt lat="42.75659" lon="1.5956">
        <ele>1652</ele>
        <time>2020-01-05T09:59:00.000Z</time>
      </trkpt>
      <trkpt lat="42.75657" lon="1.59563">
        <ele>1653</ele>
        <time>2020-01-05T09:59:02.000Z</time>
      </trkpt>
      <trkpt lat="42.75656" lon="1.59565">
        <ele>1653</ele>
        <time>2020-01-05T09:59:04.000Z</time>
      </trkpt>
      <trkpt lat="42.75655" lon="1.59568">
        <ele>1654</ele>
        <time>2020-01-05T09:59:06.000Z</time>
      </trkpt>
      <trkpt lat="42.75655" lon="1.5957">
        <ele>1654</ele>
        <time>2020-01-05T09:59:08.000Z</time>
      </trkpt>
      <trkpt lat="42.75654" lon="1.59572">
        <ele>1654</ele>
        <time>2020-01-05T09:59:10.000Z</time>
      </trkpt>
      <trkpt lat="42.75653" lon="1.59574">
        <ele>1655</ele>
        <time>2020-01-05T09:59:12.000Z</time>
      </trkpt>
      <trkpt lat="42.75652" lon="1.59576">
        <ele>1655</ele>
        <time>2020-01-05T09:59:14.000Z</time>
      </trkpt>
      <trkpt lat="42.75652" lon="1.59577">
        <ele>1655</ele>
        <time>2020-01-05T09:59:16.000Z</time>
      </trkpt>
      <trkpt lat="42.75652" lon="1.59579">
        <ele>1655</ele>
        <time>2020-01-05T09:59:18.000Z</time>
      </trkpt>
      <trkpt lat="42.75651" lon="1.59582">
        <ele>1655</ele>
        <time>2020-01-05T09:59:20.000Z</time>
      </trkpt>
      <trkpt lat="42.7565" lon="1.59584">
        <ele>1655</ele>
        <time>2020-01-05T09:59:22.000Z</time>
      </trkpt>
      <trkpt lat="42.75649" lon="1.59586">
        <ele>1656</ele>
        <time>2020-01-05T09:59:24.000Z</time>
      </trkpt>
      <trkpt lat="42.75648" lon="1.59588">
        <ele>1656</ele>
        <time>2020-01-05T09:59:26.000Z</time>
      </trkpt>
      <trkpt lat="42.75647" lon="1.59589">
        <ele>1656</ele>
        <time>2020-01-05T09:59:28.000Z</time>
      </trkpt>
      <trkpt lat="42.75646" lon="1.59592">
        <ele>1656</ele>
        <time>2020-01-05T09:59:30.000Z</time>
      </trkpt>
      <trkpt lat="42.75646" lon="1.59593">
        <ele>1656</ele>
        <time>2020-01-05T09:59:32.000Z</time>
      </trkpt>
      <trkpt lat="42.75645" lon="1.59595">
        <ele>1657</ele>
        <time>2020-01-05T09:59:34.000Z</time>
      </trkpt>
      <trkpt lat="42.75644" lon="1.59597">
        <ele>1657</ele>
        <time>2020-01-05T09:59:36.000Z</time>
      </trkpt>
      <trkpt lat="42.75643" lon="1.59599">
        <ele>1657</ele>
        <time>2020-01-05T09:59:38.000Z</time>
      </trkpt>
      <trkpt lat="42.75643" lon="1.596">
        <ele>1657</ele>
        <time>2020-01-05T09:59:40.000Z</time>
      </trkpt>
      <trkpt lat="42.75642" lon="1.59602">
        <ele>1657</ele>
        <time>2020-01-05T09:59:42.000Z</time>
      </trkpt>
      <trkpt lat="42.75642" lon="1.59604">
        <ele>1657</ele>
        <time>2020-01-05T09:59:44.000Z</time>
      </trkpt>
      <trkpt lat="42.75642" lon="1.59606">
        <ele>1657</ele>
        <time>2020-01-05T09:59:46.000Z</time>
      </trkpt>
      <trkpt lat="42.75641" lon="1.59607">
        <ele>1657</ele>
        <time>2020-01-05T09:59:48.000Z</time>
      </trkpt>
      <trkpt lat="42.75641" lon="1.59608">
        <ele>1658</ele>
        <time>2020-01-05T09:59:50.000Z</time>
      </trkpt>
      <trkpt lat="42.7564" lon="1.5961">
        <ele>1658</ele>
        <time>2020-01-05T09:59:52.000Z</time>
      </trkpt>
      <trkpt lat="42.75639" lon="1.59611">
        <ele>1658</ele>
        <time>2020-01-05T09:59:54.000Z</time>
      </trkpt>
      <trkpt lat="42.75639" lon="1.59613">
        <ele>1658</ele>
        <time>2020-01-05T09:59:56.000Z</time>
      </trkpt>
      <trkpt lat="42.75638" lon="1.59614">
        <ele>1658</ele>
        <time>2020-01-05T09:59:58.000Z</time>
      </trkpt>
      <trkpt lat="42.75637" lon="1.59615">
        <ele>1658</ele>
        <time>2020-01-05T10:00:00.000Z</time>
      </trkpt>
      <trkpt lat="42.75637" lon="1.59617">
        <ele>1658</ele>
        <time>2020-01-05T10:00:02.000Z</time>
      </trkpt>
      <trkpt lat="42.75636" lon="1.59618">
        <ele>1659</ele>
        <time>2020-01-05T10:00:04.000Z</time>
      </trkpt>
      <trkpt lat="42.75636" lon="1.59619">
        <ele>1659</ele>
        <time>2020-01-05T10:00:06.000Z</time>
      </trkpt>
      <trkpt lat="42.75635" lon="1.59621">
        <ele>1659</ele>
        <time>2020-01-05T10:00:08.000Z</time>
      </trkpt>
      <trkpt lat="42.75635" lon="1.59622">
        <ele>1660</ele>
        <time>2020-01-05T10:00:10.000Z</time>
      </trkpt>
      <trkpt lat="42.75635" lon="1.59624">
        <ele>1660</ele>
        <time>2020-01-05T10:00:12.000Z</time>
      </trkpt>
      <trkpt lat="42.75635" lon="1.59625">
        <ele>1660</ele>
        <time>2020-01-05T10:00:14.000Z</time>
      </trkpt>
      <trkpt lat="42.75635" lon="1.59626">
        <ele>1661</ele>
        <time>2020-01-05T10:00:16.000Z</time>
      </trkpt>
      <trkpt lat="42.75635" lon="1.59628">
        <ele>1661</ele>
        <time>2020-01-05T10:00:18.000Z</time>
      </trkpt>
      <trkpt lat="42.75634" lon="1.5963">
        <ele>1662</ele>
        <time>2020-01-05T10:00:20.000Z</time>
      </trkpt>
      <trkpt lat="42.75634" lon="1.59631">
        <ele>1662</ele>
        <time>2020-01-05T10:00:22.000Z</time>
      </trkpt>
      <trkpt lat="42.75633" lon="1.59632">
        <ele>1662</ele>
        <time>2020-01-05T10:00:24.000Z</time>
      </trkpt>
      <trkpt lat="42.75633" lon="1.59633">
        <ele>1663</ele>
        <time>2020-01-05T10:00:26.000Z</time>
      </trkpt>
      <trkpt lat="42.75632" lon="1.59634">
        <ele>1663</ele>
        <time>2020-01-05T10:00:28.000Z</time>
      </trkpt>
      <trkpt lat="42.75632" lon="1.59635">
        <ele>1663</ele>
        <time>2020-01-05T10:00:30.000Z</time>
      </trkpt>
      <trkpt lat="42.75631" lon="1.59637">
        <ele>1664</ele>
        <time>2020-01-05T10:00:32.000Z</time>
      </trkpt>
      <trkpt lat="42.7563" lon="1.59639">
        <ele>1664</ele>
        <time>2020-01-05T10:00:34.000Z</time>
      </trkpt>
      <trkpt lat="42.75629" lon="1.5964">
        <ele>1665</ele>
        <time>2020-01-05T10:00:36.000Z</time>
      </trkpt>
      <trkpt lat="42.75628" lon="1.59641">
        <ele>1665</ele>
        <time>2020-01-05T10:00:38.000Z</time>
      </trkpt>
      <trkpt lat="42.75628" lon="1.59643">
        <ele>1666</ele>
        <time>2020-01-05T10:00:40.000Z</time>
      </trkpt>
      <trkpt lat="42.75627" lon="1.59644">
        <ele>1666</ele>
        <time>2020-01-05T10:00:42.000Z</time>
      </trkpt>
      <trkpt lat="42.75626" lon="1.59645">
        <ele>1667</ele>
        <time>2020-01-05T10:00:44.000Z</time>
      </trkpt>
      <trkpt lat="42.75626" lon="1.59646">
        <ele>1667</ele>
        <time>2020-01-05T10:00:46.000Z</time>
      </trkpt>
      <trkpt lat="42.75625" lon="1.59647">
        <ele>1668</ele>
        <time>2020-01-05T10:00:48.000Z</time>
      </trkpt>
      <trkpt lat="42.75624" lon="1.59648">
        <ele>1668</ele>
        <time>2020-01-05T10:00:50.000Z</time>
      </trkpt>
      <trkpt lat="42.75624" lon="1.59649">
        <ele>1668</ele>
        <time>2020-01-05T10:00:52.000Z</time>
      </trkpt>
      <trkpt lat="42.75623" lon="1.5965">
        <ele>1668</ele>
        <time>2020-01-05T10:00:54.000Z</time>
      </trkpt>
      <trkpt lat="42.75622" lon="1.5965">
        <ele>1669</ele>
        <time>2020-01-05T10:00:56.000Z</time>
      </trkpt>
      <trkpt lat="42.75622" lon="1.59651">
        <ele>1669</ele>
        <time>2020-01-05T10:00:58.000Z</time>
      </trkpt>
      <trkpt lat="42.75621" lon="1.59652">
        <ele>1669</ele>
        <time>2020-01-05T10:01:00.000Z</time>
      </trkpt>
      <trkpt lat="42.75621" lon="1.59652">
        <ele>1670</ele>
        <time>2020-01-05T10:01:02.000Z</time>
      </trkpt>
      <trkpt lat="42.75621" lon="1.59653">
        <ele>1670</ele>
        <time>2020-01-05T10:01:04.000Z</time>
      </trkpt>
      <trkpt lat="42.7562" lon="1.59655">
        <ele>1670</ele>
        <time>2020-01-05T10:01:06.000Z</time>
      </trkpt>
      <trkpt lat="42.7562" lon="1.59655">
        <ele>1670</ele>
        <time>2020-01-05T10:01:08.000Z</time>
      </trkpt>
      <trkpt lat="42.75619" lon="1.59656">
        <ele>1670</ele>
        <time>2020-01-05T10:01:10.000Z</time>
      </trkpt>
      <trkpt lat="42.75619" lon="1.59657">
        <ele>1670</ele>
        <time>2020-01-05T10:01:12.000Z</time>
      </trkpt>
      <trkpt lat="42.75618" lon="1.59658">
        <ele>1671</ele>
        <time>2020-01-05T10:01:14.000Z</time>
      </trkpt>
      <trkpt lat="42.75618" lon="1.59659">
        <ele>1671</ele>
        <time>2020-01-05T10:01:16.000Z</time>
      </trkpt>
      <trkpt lat="42.75618" lon="1.5966">
        <ele>1671</ele>
        <time>2020-01-05T10:01:18.000Z</time>
      </trkpt>
      <trkpt lat="42.75617" lon="1.59661">
        <ele>1671</ele>
        <time>2020-01-05T10:01:20.000Z</time>
      </trkpt>
      <trkpt lat="42.75616" lon="1.59662">
        <ele>1671</ele>
        <time>2020-01-05T10:01:22.000Z</time>
      </trkpt>
      <trkpt lat="42.75615" lon="1.59663">
        <ele>1672</ele>
        <time>2020-01-05T10:01:24.000Z</time>
      </trkpt>
      <trkpt lat="42.75615" lon="1.59664">
        <ele>1672</ele>
        <time>2020-01-05T10:01:26.000Z</time>
      </trkpt>
      <trkpt lat="42.75614" lon="1.59665">
        <ele>1672</ele>
        <time>2020-01-05T10:01:28.000Z</time>
      </trkpt>
      <trkpt lat="42.75614" lon="1.59666">
        <ele>1672</ele>
        <time>2020-01-05T10:01:30.000Z</time>
      </trkpt>
      <trkpt lat="42.75613" lon="1.59667">
        <ele>1673</ele>
        <time>2020-01-05T10:01:32.000Z</time>
      </trkpt>
      <trkpt lat="42.75613" lon="1.59669">
        <ele>1673</ele>
        <time>2020-01-05T10:01:34.000Z</time>
      </trkpt>
      <trkpt lat="42.75612" lon="1.5967">
        <ele>1673</ele>
        <time>2020-01-05T10:01:36.000Z</time>
      </trkpt>
      <trkpt lat="42.75611" lon="1.59671">
        <ele>1673</ele>
        <time>2020-01-05T10:01:38.000Z</time>
      </trkpt>
      <trkpt lat="42.75611" lon="1.59671">
        <ele>1674</ele>
        <time>2020-01-05T10:01:40.000Z</time>
      </trkpt>
      <trkpt lat="42.7561" lon="1.59672">
        <ele>1674</ele>
        <time>2020-01-05T10:01:42.000Z</time>
      </trkpt>
      <trkpt lat="42.7561" lon="1.59673">
        <ele>1674</ele>
        <time>2020-01-05T10:01:44.000Z</time>
      </trkpt>
      <trkpt lat="42.75609" lon="1.59675">
        <ele>1674</ele>
        <time>2020-01-05T10:01:46.000Z</time>
      </trkpt>
      <trkpt lat="42.75609" lon="1.59676">
        <ele>1675</ele>
        <time>2020-01-05T10:01:48.000Z</time>
      </trkpt>
      <trkpt lat="42.75608" lon="1.59677">
        <ele>1675</ele>
        <time>2020-01-05T10:01:50.000Z</time>
      </trkpt>
      <trkpt lat="42.75607" lon="1.59677">
        <ele>1675</ele>
        <time>2020-01-05T10:01:52.000Z</time>
      </trkpt>
      <trkpt lat="42.75607" lon="1.59678">
        <ele>1676</ele>
        <time>2020-01-05T10:01:54.000Z</time>
      </trkpt>
      <trkpt lat="42.75606" lon="1.59679">
        <ele>1676</ele>
        <time>2020-01-05T10:01:56.000Z</time>
      </trkpt>
      <trkpt lat="42.75606" lon="1.5968">
        <ele>1676</ele>
        <time>2020-01-05T10:01:58.000Z</time>
      </trkpt>
      <trkpt lat="42.75605" lon="1.59681">
        <ele>1677</ele>
        <time>2020-01-05T10:02:00.000Z</time>
      </trkpt>
      <trkpt lat="42.75605" lon="1.59681">
        <ele>1677</ele>
        <time>2020-01-05T10:02:02.000Z</time>
      </trkpt>
      <trkpt lat="42.75604" lon="1.59682">
        <ele>1677</ele>
        <time>2020-01-05T10:02:04.000Z</time>
      </trkpt>
      <trkpt lat="42.75604" lon="1.59683">
        <ele>1678</ele>
        <time>2020-01-05T10:02:06.000Z</time>
      </trkpt>
      <trkpt lat="42.75603" lon="1.59684">
        <ele>1678</ele>
        <time>2020-01-05T10:02:08.000Z</time>
      </trkpt>
      <trkpt lat="42.75602" lon="1.59684">
        <ele>1679</ele>
        <time>2020-01-05T10:02:10.000Z</time>
      </trkpt>
      <trkpt lat="42.75602" lon="1.59685">
        <ele>1679</ele>
        <time>2020-01-05T10:02:12.000Z</time>
      </trkpt>
      <trkpt lat="42.75602" lon="1.59686">
        <ele>1679</ele>
        <time>2020-01-05T10:02:14.000Z</time>
      </trkpt>
      <trkpt lat="42.75602" lon="1.59687">
        <ele>1679</ele>
        <time>2020-01-05T10:02:16.000Z</time>
      </trkpt>
      <trkpt lat="42.75601" lon="1.59688">
        <ele>1680</ele>
        <time>2020-01-05T10:02:18.000Z</time>
      </trkpt>
      <trkpt lat="42.75601" lon="1.5969">
        <ele>1680</ele>
        <time>2020-01-05T10:02:20.000Z</time>
      </trkpt>
      <trkpt lat="42.75601" lon="1.5969">
        <ele>1680</ele>
        <time>2020-01-05T10:02:22.000Z</time>
      </trkpt>
      <trkpt lat="42.756" lon="1.59691">
        <ele>1681</ele>
        <time>2020-01-05T10:02:24.000Z</time>
      </trkpt>
      <trkpt lat="42.75599" lon="1.59693">
        <ele>1681</ele>
        <time>2020-01-05T10:02:26.000Z</time>
      </trkpt>
      <trkpt lat="42.75598" lon="1.59693">
        <ele>1682</ele>
        <time>2020-01-05T10:02:28.000Z</time>
      </trkpt>
      <trkpt lat="42.75598" lon="1.59694">
        <ele>1682</ele>
        <time>2020-01-05T10:02:30.000Z</time>
      </trkpt>
      <trkpt lat="42.75597" lon="1.59695">
        <ele>1682</ele>
        <time>2020-01-05T10:02:32.000Z</time>
      </trkpt>
      <trkpt lat="42.75597" lon="1.59696">
        <ele>1683</ele>
        <time>2020-01-05T10:02:34.000Z</time>
      </trkpt>
      <trkpt lat="42.75596" lon="1.59697">
        <ele>1683</ele>
        <time>2020-01-05T10:02:36.000Z</time>
      </trkpt>
      <trkpt lat="42.75596" lon="1.59698">
        <ele>1683</ele>
        <time>2020-01-05T10:02:38.000Z</time>
      </trkpt>
      <trkpt lat="42.75595" lon="1.59699">
        <ele>1684</ele>
        <time>2020-01-05T10:02:40.000Z</time>
      </trkpt>
      <trkpt lat="42.75595" lon="1.59701">
        <ele>1684</ele>
        <time>2020-01-05T10:02:42.000Z</time>
      </trkpt>
      <trkpt lat="42.75594" lon="1.59702">
        <ele>1685</ele>
        <time>2020-01-05T10:02:44.000Z</time>
      </trkpt>
      <trkpt lat="42.75593" lon="1.59704">
        <ele>1685</ele>
        <time>2020-01-05T10:02:46.000Z</time>
      </trkpt>
      <trkpt lat="42.75593" lon="1.59706">
        <ele>1686</ele>
        <time>2020-01-05T10:02:48.000Z</time>
      </trkpt>
      <trkpt lat="42.75592" lon="1.59707">
        <ele>1686</ele>
        <time>2020-01-05T10:02:50.000Z</time>
      </trkpt>
      <trkpt lat="42.75592" lon="1.59709">
        <ele>1687</ele>
        <time>2020-01-05T10:02:52.000Z</time>
      </trkpt>
      <trkpt lat="42.75591" lon="1.59711">
        <ele>1687</ele>
        <time>2020-01-05T10:02:54.000Z</time>
      </trkpt>
      <trkpt lat="42.75591" lon="1.59713">
        <ele>1688</ele>
        <time>2020-01-05T10:02:56.000Z</time>
      </trkpt>
      <trkpt lat="42.75591" lon="1.59716">
        <ele>1688</ele>
        <time>2020-01-05T10:02:58.000Z</time>
      </trkpt>
      <trkpt lat="42.75591" lon="1.59718">
        <ele>1689</ele>
        <time>2020-01-05T10:03:00.000Z</time>
      </trkpt>
      <trkpt lat="42.7559" lon="1.5972">
        <ele>1689</ele>
        <time>2020-01-05T10:03:02.000Z</time>
      </trkpt>
      <trkpt lat="42.7559" lon="1.59722">
        <ele>1690</ele>
        <time>2020-01-05T10:03:04.000Z</time>
      </trkpt>
      <trkpt lat="42.75589" lon="1.59724">
        <ele>1690</ele>
        <time>2020-01-05T10:03:06.000Z</time>
      </trkpt>
      <trkpt lat="42.75589" lon="1.59726">
        <ele>1691</ele>
        <time>2020-01-05T10:03:08.000Z</time>
      </trkpt>
      <trkpt lat="42.75588" lon="1.59727">
        <ele>1691</ele>
        <time>2020-01-05T10:03:10.000Z</time>
      </trkpt>
      <trkpt lat="42.75587" lon="1.59729">
        <ele>1692</ele>
        <time>2020-01-05T10:03:12.000Z</time>
      </trkpt>
      <trkpt lat="42.75587" lon="1.5973">
        <ele>1692</ele>
        <time>2020-01-05T10:03:14.000Z</time>
      </trkpt>
      <trkpt lat="42.75587" lon="1.59732">
        <ele>1692</ele>
        <time>2020-01-05T10:03:16.000Z</time>
      </trkpt>
      <trkpt lat="42.75586" lon="1.59734">
        <ele>1693</ele>
        <time>2020-01-05T10:03:18.000Z</time>
      </trkpt>
      <trkpt lat="42.75586" lon="1.59736">
        <ele>1693</ele>
        <time>2020-01-05T10:03:20.000Z</time>
      </trkpt>
      <trkpt lat="42.75585" lon="1.59737">
        <ele>1693</ele>
        <time>2020-01-05T10:03:22.000Z</time>
      </trkpt>
      <trkpt lat="42.75585" lon="1.59739">
        <ele>1693</ele>
        <time>2020-01-05T10:03:24.000Z</time>
      </trkpt>
      <trkpt lat="42.75584" lon="1.59741">
        <ele>1693</ele>
        <time>2020-01-05T10:03:26.000Z</time>
      </trkpt>
      <trkpt lat="42.75584" lon="1.59742">
        <ele>1693</ele>
        <time>2020-01-05T10:03:28.000Z</time>
      </trkpt>
      <trkpt lat="42.75583" lon="1.59744">
        <ele>1693</ele>
        <time>2020-01-05T10:03:30.000Z</time>
      </trkpt>
      <trkpt lat="42.75583" lon="1.59745">
        <ele>1693</ele>
        <time>2020-01-05T10:03:32.000Z</time>
      </trkpt>
      <trkpt lat="42.75583" lon="1.59747">
        <ele>1693</ele>
        <time>2020-01-05T10:03:34.000Z</time>
      </trkpt>
      <trkpt lat="42.75583" lon="1.59748">
        <ele>1693</ele>
        <time>2020-01-05T10:03:36.000Z</time>
      </trkpt>
      <trkpt lat="42.75583" lon="1.59751">
        <ele>1693</ele>
        <time>2020-01-05T10:03:38.000Z</time>
      </trkpt>
      <trkpt lat="42.75582" lon="1.59753">
        <ele>1693</ele>
        <time>2020-01-05T10:03:40.000Z</time>
      </trkpt>
      <trkpt lat="42.75582" lon="1.59754">
        <ele>1693</ele>
        <time>2020-01-05T10:03:42.000Z</time>
      </trkpt>
      <trkpt lat="42.75581" lon="1.59756">
        <ele>1693</ele>
        <time>2020-01-05T10:03:44.000Z</time>
      </trkpt>
      <trkpt lat="42.75581" lon="1.59757">
        <ele>1693</ele>
        <time>2020-01-05T10:03:46.000Z</time>
      </trkpt>
      <trkpt lat="42.75581" lon="1.59759">
        <ele>1693</ele>
        <time>2020-01-05T10:03:48.000Z</time>
      </trkpt>
      <trkpt lat="42.75581" lon="1.59761">
        <ele>1693</ele>
        <time>2020-01-05T10:03:50.000Z</time>
      </trkpt>
      <trkpt lat="42.75581" lon="1.59762">
        <ele>1693</ele>
        <time>2020-01-05T10:03:52.000Z</time>
      </trkpt>
      <trkpt lat="42.75581" lon="1.59764">
        <ele>1693</ele>
        <time>2020-01-05T10:03:54.000Z</time>
      </trkpt>
      <trkpt lat="42.75581" lon="1.59766">
        <ele>1693</ele>
        <time>2020-01-05T10:03:56.000Z</time>
      </trkpt>
      <trkpt lat="42.75581" lon="1.59767">
        <ele>1692</ele>
        <time>2020-01-05T10:03:58.000Z</time>
      </trkpt>
      <trkpt lat="42.7558" lon="1.5977">
        <ele>1692</ele>
        <time>2020-01-05T10:04:00.000Z</time>
      </trkpt>
      <trkpt lat="42.75579" lon="1.59772">
        <ele>1692</ele>
        <time>2020-01-05T10:04:02.000Z</time>
      </trkpt>
      <trkpt lat="42.75579" lon="1.59773">
        <ele>1692</ele>
        <time>2020-01-05T10:04:04.000Z</time>
      </trkpt>
      <trkpt lat="42.75579" lon="1.59776">
        <ele>1692</ele>
        <time>2020-01-05T10:04:06.000Z</time>
      </trkpt>
      <trkpt lat="42.75579" lon="1.59777">
        <ele>1692</ele>
        <time>2020-01-05T10:04:08.000Z</time>
      </trkpt>
      <trkpt lat="42.75578" lon="1.59779">
        <ele>1692</ele>
        <time>2020-01-05T10:04:10.000Z</time>
      </trkpt>
      <trkpt lat="42.75579" lon="1.59781">
        <ele>1692</ele>
        <time>2020-01-05T10:04:12.000Z</time>
      </trkpt>
      <trkpt lat="42.75578" lon="1.59782">
        <ele>1692</ele>
        <time>2020-01-05T10:04:14.000Z</time>
      </trkpt>
      <trkpt lat="42.75579" lon="1.59784">
        <ele>1692</ele>
        <time>2020-01-05T10:04:16.000Z</time>
      </trkpt>
      <trkpt lat="42.75579" lon="1.59787">
        <ele>1692</ele>
        <time>2020-01-05T10:04:18.000Z</time>
      </trkpt>
      <trkpt lat="42.75578" lon="1.59789">
        <ele>1692</ele>
        <time>2020-01-05T10:04:20.000Z</time>
      </trkpt>
      <trkpt lat="42.75578" lon="1.5979">
        <ele>1692</ele>
        <time>2020-01-05T10:04:22.000Z</time>
      </trkpt>
      <trkpt lat="42.75577" lon="1.59792">
        <ele>1692</ele>
        <time>2020-01-05T10:04:24.000Z</time>
      </trkpt>
      <trkpt lat="42.75577" lon="1.59795">
        <ele>1692</ele>
        <time>2020-01-05T10:04:26.000Z</time>
      </trkpt>
      <trkpt lat="42.75577" lon="1.59797">
        <ele>1692</ele>
        <time>2020-01-05T10:04:28.000Z</time>
      </trkpt>
      <trkpt lat="42.75577" lon="1.59798">
        <ele>1692</ele>
        <time>2020-01-05T10:04:30.000Z</time>
      </trkpt>
      <trkpt lat="42.75577" lon="1.598">
        <ele>1692</ele>
        <time>2020-01-05T10:04:32.000Z</time>
      </trkpt>
      <trkpt lat="42.75577" lon="1.59802">
        <ele>1692</ele>
        <time>2020-01-05T10:04:34.000Z</time>
      </trkpt>
      <trkpt lat="42.75576" lon="1.59804">
        <ele>1692</ele>
        <time>2020-01-05T10:04:36.000Z</time>
      </trkpt>
      <trkpt lat="42.75576" lon="1.59806">
        <ele>1692</ele>
        <time>2020-01-05T10:04:38.000Z</time>
      </trkpt>
      <trkpt lat="42.75576" lon="1.59808">
        <ele>1692</ele>
        <time>2020-01-05T10:04:40.000Z</time>
      </trkpt>
      <trkpt lat="42.75576" lon="1.5981">
        <ele>1692</ele>
        <time>2020-01-05T10:04:42.000Z</time>
      </trkpt>
      <trkpt lat="42.75576" lon="1.59812">
        <ele>1692</ele>
        <time>2020-01-05T10:04:44.000Z</time>
      </trkpt>
      <trkpt lat="42.75576" lon="1.59814">
        <ele>1692</ele>
        <time>2020-01-05T10:04:46.000Z</time>
      </trkpt>
      <trkpt lat="42.75575" lon="1.59816">
        <ele>1691</ele>
        <time>2020-01-05T10:04:48.000Z</time>
      </trkpt>
      <trkpt lat="42.75575" lon="1.59819">
        <ele>1691</ele>
        <time>2020-01-05T10:04:50.000Z</time>
      </trkpt>
      <trkpt lat="42.75575" lon="1.59821">
        <ele>1691</ele>
        <time>2020-01-05T10:04:52.000Z</time>
      </trkpt>
      <trkpt lat="42.75575" lon="1.59823">
        <ele>1691</ele>
        <time>2020-01-05T10:04:54.000Z</time>
      </trkpt>
      <trkpt lat="42.75575" lon="1.59826">
        <ele>1690</ele>
        <time>2020-01-05T10:04:56.000Z</time>
      </trkpt>
      <trkpt lat="42.75575" lon="1.59828">
        <ele>1690</ele>
        <time>2020-01-05T10:04:58.000Z</time>
      </trkpt>
      <trkpt lat="42.75575" lon="1.5983">
        <ele>1690</ele>
        <time>2020-01-05T10:05:00.000Z</time>
      </trkpt>
      <trkpt lat="42.75575" lon="1.59833">
        <ele>1689</ele>
        <time>2020-01-05T10:05:02.000Z</time>
      </trkpt>
      <trkpt lat="42.75575" lon="1.59835">
        <ele>1689</ele>
        <time>2020-01-05T10:05:04.000Z</time>
      </trkpt>
      <trkpt lat="42.75574" lon="1.59838">
        <ele>1689</ele>
        <time>2020-01-05T10:05:06.000Z</time>
      </trkpt>
      <trkpt lat="42.75574" lon="1.5984">
        <ele>1688</ele>
        <time>2020-01-05T10:05:08.000Z</time>
      </trkpt>
      <trkpt lat="42.75573" lon="1.59842">
        <ele>1688</ele>
        <time>2020-01-05T10:05:10.000Z</time>
      </trkpt>
      <trkpt lat="42.75573" lon="1.59844">
        <ele>1688</ele>
        <time>2020-01-05T10:05:12.000Z</time>
      </trkpt>
      <trkpt lat="42.75572" lon="1.59847">
        <ele>1687</ele>
        <time>2020-01-05T10:05:14.000Z</time>
      </trkpt>
      <trkpt lat="42.75572" lon="1.59849">
        <ele>1687</ele>
        <time>2020-01-05T10:05:16.000Z</time>
      </trkpt>
      <trkpt lat="42.75572" lon="1.59851">
        <ele>1687</ele>
        <time>2020-01-05T10:05:18.000Z</time>
      </trkpt>
      <trkpt lat="42.75571" lon="1.59853">
        <ele>1686</ele>
        <time>2020-01-05T10:05:20.000Z</time>
      </trkpt>
      <trkpt lat="42.7557" lon="1.59856">
        <ele>1686</ele>
        <time>2020-01-05T10:05:22.000Z</time>
      </trkpt>
      <trkpt lat="42.7557" lon="1.59858">
        <ele>1685</ele>
        <time>2020-01-05T10:05:24.000Z</time>
      </trkpt>
      <trkpt lat="42.75569" lon="1.5986">
        <ele>1685</ele>
        <time>2020-01-05T10:05:26.000Z</time>
      </trkpt>
      <trkpt lat="42.75568" lon="1.59862">
        <ele>1685</ele>
        <time>2020-01-05T10:05:28.000Z</time>
      </trkpt>
      <trkpt lat="42.75568" lon="1.59864">
        <ele>1684</ele>
        <time>2020-01-05T10:05:30.000Z</time>
      </trkpt>
      <trkpt lat="42.75567" lon="1.59865">
        <ele>1684</ele>
        <time>2020-01-05T10:05:32.000Z</time>
      </trkpt>
      <trkpt lat="42.75567" lon="1.59866">
        <ele>1684</ele>
        <time>2020-01-05T10:05:34.000Z</time>
      </trkpt>
      <trkpt lat="42.75566" lon="1.59866">
        <ele>1684</ele>
        <time>2020-01-05T10:05:36.000Z</time>
      </trkpt>
      <trkpt lat="42.75566" lon="1.59867">
        <ele>1684</ele>
        <time>2020-01-05T10:05:38.000Z</time>
      </trkpt>
      <trkpt lat="42.75566" lon="1.59867">
        <ele>1684</ele>
        <time>2020-01-05T10:05:40.000Z</time>
      </trkpt>
      <trkpt lat="42.75566" lon="1.59867">
        <ele>1684</ele>
        <time>2020-01-05T10:05:42.000Z</time>
      </trkpt>
      <trkpt lat="42.75566" lon="1.59867">
        <ele>1684</ele>
        <time>2020-01-05T10:05:44.000Z</time>
      </trkpt>
      <trkpt lat="42.75566" lon="1.59869">
        <ele>1683</ele>
        <time>2020-01-05T10:05:46.000Z</time>
      </trkpt>
      <trkpt lat="42.75566" lon="1.5987">
        <ele>1683</ele>
        <time>2020-01-05T10:05:48.000Z</time>
      </trkpt>
      <trkpt lat="42.75565" lon="1.59872">
        <ele>1683</ele>
        <time>2020-01-05T10:05:50.000Z</time>
      </trkpt>
      <trkpt lat="42.75566" lon="1.59874">
        <ele>1683</ele>
        <time>2020-01-05T10:05:52.000Z</time>
      </trkpt>
      <trkpt lat="42.75566" lon="1.59875">
        <ele>1683</ele>
        <time>2020-01-05T10:05:54.000Z</time>
      </trkpt>
      <trkpt lat="42.75567" lon="1.59877">
        <ele>1683</ele>
        <time>2020-01-05T10:05:56.000Z</time>
      </trkpt>
      <trkpt lat="42.75566" lon="1.59879">
        <ele>1682</ele>
        <time>2020-01-05T10:05:58.000Z</time>
      </trkpt>
      <trkpt lat="42.75566" lon="1.5988">
        <ele>1682</ele>
        <time>2020-01-05T10:06:00.000Z</time>
      </trkpt>
      <trkpt lat="42.75565" lon="1.59881">
        <ele>1682</ele>
        <time>2020-01-05T10:06:02.000Z</time>
      </trkpt>
      <trkpt lat="42.75565" lon="1.59881">
        <ele>1682</ele>
        <time>2020-01-05T10:06:04.000Z</time>
      </trkpt>
      <trkpt lat="42.75565" lon="1.59882">
        <ele>1682</ele>
        <time>2020-01-05T10:06:06.000Z</time>
      </trkpt>
      <trkpt lat="42.75566" lon="1.59882">
        <ele>1682</ele>
        <time>2020-01-05T10:06:08.000Z</time>
      </trkpt>
      <trkpt lat="42.75566" lon="1.59883">
        <ele>1682</ele>
        <time>2020-01-05T10:06:10.000Z</time>
      </trkpt>
      <trkpt lat="42.75565" lon="1.59883">
        <ele>1682</ele>
        <time>2020-01-05T10:06:12.000Z</time>
      </trkpt>
      <trkpt lat="42.75566" lon="1.59884">
        <ele>1682</ele>
        <time>2020-01-05T10:06:14.000Z</time>
      </trkpt>
      <trkpt lat="42.75566" lon="1.59884">
        <ele>1682</ele>
        <time>2020-01-05T10:06:16.000Z</time>
      </trkpt>
      <trkpt lat="42.75566" lon="1.59883">
        <ele>1682</ele>
        <time>2020-01-05T10:06:18.000Z</time>
      </trkpt>
      <trkpt lat="42.75565" lon="1.59883">
        <ele>1682</ele>
        <time>2020-01-05T10:06:20.000Z</time>
      </trkpt>
      <trkpt lat="42.75565" lon="1.59882">
        <ele>1682</ele>
        <time>2020-01-05T10:06:22.000Z</time>
      </trkpt>
      <trkpt lat="42.75565" lon="1.59882">
        <ele>1682</ele>
        <time>2020-01-05T10:06:24.000Z</time>
      </trkpt>
      <trkpt lat="42.75566" lon="1.59882">
        <ele>1682</ele>
        <time>2020-01-05T10:06:26.000Z</time>
      </trkpt>
      <trkpt lat="42.75566" lon="1.59882">
        <ele>1682</ele>
        <time>2020-01-05T10:06:28.000Z</time>
      </trkpt>
      <trkpt lat="42.75566" lon="1.59882">
        <ele>1682</ele>
        <time>2020-01-05T10:06:30.000Z</time>
      </trkpt>
      <trkpt lat="42.75566" lon="1.59882">
        <ele>1682</ele>
        <time>2020-01-05T10:06:32.000Z</time>
      </trkpt>
      <trkpt lat="42.75566" lon="1.59883">
        <ele>1682</ele>
        <time>2020-01-05T10:06:34.000Z</time>
      </trkpt>
      <trkpt lat="42.75566" lon="1.59882">
        <ele>1682</ele>
        <time>2020-01-05T10:06:36.000Z</time>
      </trkpt>
      <trkpt lat="42.75566" lon="1.59882">
        <ele>1682</ele>
        <time>2020-01-05T10:06:38.000Z</time>
      </trkpt>
      <trkpt lat="42.75566" lon="1.59882">
        <ele>1682</ele>
        <time>2020-01-05T10:06:40.000Z</time>
      </trkpt>
      <trkpt lat="42.75567" lon="1.59882">
        <ele>1682</ele>
        <time>2020-01-05T10:06:42.000Z</time>
      </trkpt>
      <trkpt lat="42.75567" lon="1.59882">
        <ele>1682</ele>
        <time>2020-01-05T10:06:44.000Z</time>
      </trkpt>
      <trkpt lat="42.75567" lon="1.59882">
        <ele>1682</ele>
        <time>2020-01-05T10:06:46.000Z</time>
      </trkpt>
      <trkpt lat="42.75568" lon="1.59881">
        <ele>1682</ele>
        <time>2020-01-05T10:06:48.000Z</time>
      </trkpt>
      <trkpt lat="42.75568" lon="1.59881">
        <ele>1682</ele>
        <time>2020-01-05T10:06:50.000Z</time>
      </trkpt>
      <trkpt lat="42.75568" lon="1.59881">
        <ele>1682</ele>
        <time>2020-01-05T10:06:52.000Z</time>
      </trkpt>
      <trkpt lat="42.75568" lon="1.5988">
        <ele>1682</ele>
        <time>2020-01-05T10:06:54.000Z</time>
      </trkpt>
      <trkpt lat="42.75568" lon="1.5988">
        <ele>1682</ele>
        <time>2020-01-05T10:06:56.000Z</time>
      </trkpt>
      <trkpt lat="42.75568" lon="1.5988">
        <ele>1682</ele>
        <time>2020-01-05T10:06:58.000Z</time>
      </trkpt>
      <trkpt lat="42.75567" lon="1.5988">
        <ele>1682</ele>
        <time>2020-01-05T10:07:00.000Z</time>
      </trkpt>
      <trkpt lat="42.75567" lon="1.5988">
        <ele>1682</ele>
        <time>2020-01-05T10:07:02.000Z</time>
      </trkpt>
      <trkpt lat="42.75567" lon="1.5988">
        <ele>1682</ele>
        <time>2020-01-05T10:07:04.000Z</time>
      </trkpt>
      <trkpt lat="42.75567" lon="1.59879">
        <ele>1682</ele>
        <time>2020-01-05T10:07:06.000Z</time>
      </trkpt>
      <trkpt lat="42.75567" lon="1.59879">
        <ele>1682</ele>
        <time>2020-01-05T10:07:08.000Z</time>
      </trkpt>
      <trkpt lat="42.75567" lon="1.5988">
        <ele>1682</ele>
        <time>2020-01-05T10:07:10.000Z</time>
      </trkpt>
      <trkpt lat="42.75567" lon="1.5988">
        <ele>1682</ele>
        <time>2020-01-05T10:07:12.000Z</time>
      </trkpt>
      <trkpt lat="42.75567" lon="1.5988">
        <ele>1682</ele>
        <time>2020-01-05T10:07:14.000Z</time>
      </trkpt>
      <trkpt lat="42.75567" lon="1.5988">
        <ele>1682</ele>
        <time>2020-01-05T10:07:16.000Z</time>
      </trkpt>
      <trkpt lat="42.75568" lon="1.5988">
        <ele>1682</ele>
        <time>2020-01-05T10:07:18.000Z</time>
      </trkpt>
      <trkpt lat="42.75568" lon="1.59879">
        <ele>1682</ele>
        <time>2020-01-05T10:07:20.000Z</time>
      </trkpt>
      <trkpt lat="42.75568" lon="1.59879">
        <ele>1682</ele>
        <time>2020-01-05T10:07:22.000Z</time>
      </trkpt>
      <trkpt lat="42.75568" lon="1.59879">
        <ele>1682</ele>
        <time>2020-01-05T10:07:24.000Z</time>
      </trkpt>
      <trkpt lat="42.75568" lon="1.59879">
        <ele>1682</ele>
        <time>2020-01-05T10:07:26.000Z</time>
      </trkpt>
      <trkpt lat="42.75568" lon="1.5988">
        <ele>1682</ele>
        <time>2020-01-05T10:07:28.000Z</time>
      </trkpt>
      <trkpt lat="42.75568" lon="1.5988">
        <ele>1682</ele>
        <time>2020-01-05T10:07:30.000Z</time>
      </trkpt>
      <trkpt lat="42.75569" lon="1.59881">
        <ele>1682</ele>
        <time>2020-01-05T10:07:32.000Z</time>
      </trkpt>
      <trkpt lat="42.75569" lon="1.59881">
        <ele>1682</ele>
        <time>2020-01-05T10:07:34.000Z</time>
      </trkpt>
      <trkpt lat="42.75569" lon="1.59881">
        <ele>1682</ele>
        <time>2020-01-05T10:07:36.000Z</time>
      </trkpt>
      <trkpt lat="42.75568" lon="1.59881">
        <ele>1682</ele>
        <time>2020-01-05T10:07:38.000Z</time>
      </trkpt>
      <trkpt lat="42.75568" lon="1.59881">
        <ele>1682</ele>
        <time>2020-01-05T10:07:40.000Z</time>
      </trkpt>
      <trkpt lat="42.75568" lon="1.59881">
        <ele>1682</ele>
        <time>2020-01-05T10:07:42.000Z</time>
      </trkpt>
      <trkpt lat="42.75568" lon="1.59881">
        <ele>1682</ele>
        <time>2020-01-05T10:07:44.000Z</time>
      </trkpt>
      <trkpt lat="42.75568" lon="1.59881">
        <ele>1682</ele>
        <time>2020-01-05T10:07:46.000Z</time>
      </trkpt>
      <trkpt lat="42.75568" lon="1.59881">
        <ele>1682</ele>
        <time>2020-01-05T10:07:48.000Z</time>
      </trkpt>
      <trkpt lat="42.75568" lon="1.59881">
        <ele>1682</ele>
        <time>2020-01-05T10:07:50.000Z</time>
      </trkpt>
      <trkpt lat="42.75568" lon="1.59881">
        <ele>1682</ele>
        <time>2020-01-05T10:07:52.000Z</time>
      </trkpt>
      <trkpt lat="42.75568" lon="1.59881">
        <ele>1682</ele>
        <time>2020-01-05T10:07:54.000Z</time>
      </trkpt>
      <trkpt lat="42.75568" lon="1.59881">
        <ele>1682</ele>
        <time>2020-01-05T10:07:56.000Z</time>
      </trkpt>
      <trkpt lat="42.75568" lon="1.59881">
        <ele>1682</ele>
        <time>2020-01-05T10:07:58.000Z</time>
      </trkpt>
      <trkpt lat="42.75567" lon="1.59881">
        <ele>1682</ele>
        <time>2020-01-05T10:08:00.000Z</time>
      </trkpt>
      <trkpt lat="42.75567" lon="1.59882">
        <ele>1682</ele>
        <time>2020-01-05T10:08:02.000Z</time>
      </trkpt>
      <trkpt lat="42.75567" lon="1.59882">
        <ele>1682</ele>
        <time>2020-01-05T10:08:04.000Z</time>
      </trkpt>
      <trkpt lat="42.75567" lon="1.59882">
        <ele>1682</ele>
        <time>2020-01-05T10:08:06.000Z</time>
      </trkpt>
      <trkpt lat="42.75567" lon="1.59882">
        <ele>1682</ele>
        <time>2020-01-05T10:08:08.000Z</time>
      </trkpt>
      <trkpt lat="42.75567" lon="1.59882">
        <ele>1682</ele>
        <time>2020-01-05T10:08:10.000Z</time>
      </trkpt>
      <trkpt lat="42.75568" lon="1.59881">
        <ele>1682</ele>
        <time>2020-01-05T10:08:12.000Z</time>
      </trkpt>
      <trkpt lat="42.75568" lon="1.59881">
        <ele>1682</ele>
        <time>2020-01-05T10:08:14.000Z</time>
      </trkpt>
      <trkpt lat="42.75568" lon="1.59881">
        <ele>1682</ele>
        <time>2020-01-05T10:08:16.000Z</time>
      </trkpt>
      <trkpt lat="42.75569" lon="1.59881">
        <ele>1682</ele>
        <time>2020-01-05T10:08:18.000Z</time>
      </trkpt>
      <trkpt lat="42.75569" lon="1.59881">
        <ele>1682</ele>
        <time>2020-01-05T10:08:20.000Z</time>
      </trkpt>
      <trkpt lat="42.75569" lon="1.59882">
        <ele>1682</ele>
        <time>2020-01-05T10:08:22.000Z</time>
      </trkpt>
      <trkpt lat="42.75569" lon="1.59882">
        <ele>1682</ele>
        <time>2020-01-05T10:08:24.000Z</time>
      </trkpt>
      <trkpt lat="42.75569" lon="1.59882">
        <ele>1682</ele>
        <time>2020-01-05T10:08:26.000Z</time>
      </trkpt>
      <trkpt lat="42.75569" lon="1.59882">
        <ele>1682</ele>
        <time>2020-01-05T10:08:28.000Z</time>
      </trkpt>
      <trkpt lat="42.75569" lon="1.59882">
        <ele>1682</ele>
        <time>2020-01-05T10:08:30.000Z</time>
      </trkpt>
      <trkpt lat="42.75569" lon="1.59882">
        <ele>1682</ele>
        <time>2020-01-05T10:08:32.000Z</time>
      </trkpt>
      <trkpt lat="42.75569" lon="1.59882">
        <ele>1682</ele>
        <time>2020-01-05T10:08:34.000Z</time>
      </trkpt>
      <trkpt lat="42.75569" lon="1.59882">
        <ele>1682</ele>
        <time>2020-01-05T10:08:36.000Z</time>
      </trkpt>
      <trkpt lat="42.75569" lon="1.59882">
        <ele>1682</ele>
        <time>2020-01-05T10:08:38.000Z</time>
      </trkpt>
      <trkpt lat="42.75569" lon="1.59882">
        <ele>1682</ele>
        <time>2020-01-05T10:08:40.000Z</time>
      </trkpt>
      <trkpt lat="42.75569" lon="1.59882">
        <ele>1682</ele>
        <time>2020-01-05T10:08:42.000Z</time>
      </trkpt>
      <trkpt lat="42.75569" lon="1.59882">
        <ele>1682</ele>
        <time>2020-01-05T10:08:44.000Z</time>
      </trkpt>
      <trkpt lat="42.75569" lon="1.59883">
        <ele>1682</ele>
        <time>2020-01-05T10:08:46.000Z</time>
      </trkpt>
      <trkpt lat="42.75569" lon="1.59883">
        <ele>1682</ele>
        <time>2020-01-05T10:08:48.000Z</time>
      </trkpt>
      <trkpt lat="42.75569" lon="1.59883">
        <ele>1682</ele>
        <time>2020-01-05T10:08:50.000Z</time>
      </trkpt>
      <trkpt lat="42.75569" lon="1.59883">
        <ele>1682</ele>
        <time>2020-01-05T10:08:52.000Z</time>
      </trkpt>
      <trkpt lat="42.75569" lon="1.59883">
        <ele>1682</ele>
        <time>2020-01-05T10:08:54.000Z</time>
      </trkpt>
      <trkpt lat="42.75569" lon="1.59883">
        <ele>1682</ele>
        <time>2020-01-05T10:08:56.000Z</time>
      </trkpt>
      <trkpt lat="42.75569" lon="1.59882">
        <ele>1682</ele>
        <time>2020-01-05T10:08:58.000Z</time>
      </trkpt>
      <trkpt lat="42.75569" lon="1.59882">
        <ele>1682</ele>
        <time>2020-01-05T10:09:00.000Z</time>
      </trkpt>
      <trkpt lat="42.75569" lon="1.59882">
        <ele>1682</ele>
        <time>2020-01-05T10:09:02.000Z</time>
      </trkpt>
      <trkpt lat="42.75569" lon="1.59882">
        <ele>1682</ele>
        <time>2020-01-05T10:09:04.000Z</time>
      </trkpt>
      <trkpt lat="42.75569" lon="1.59882">
        <ele>1682</ele>
        <time>2020-01-05T10:09:06.000Z</time>
      </trkpt>
      <trkpt lat="42.75569" lon="1.59882">
        <ele>1682</ele>
        <time>2020-01-05T10:09:08.000Z</time>
      </trkpt>
      <trkpt lat="42.75568" lon="1.59882">
        <ele>1682</ele>
        <time>2020-01-05T10:09:10.000Z</time>
      </trkpt>
      <trkpt lat="42.75568" lon="1.59882">
        <ele>1682</ele>
        <time>2020-01-05T10:09:12.000Z</time>
      </trkpt>
      <trkpt lat="42.75568" lon="1.59882">
        <ele>1682</ele>
        <time>2020-01-05T10:09:14.000Z</time>
      </trkpt>
      <trkpt lat="42.75568" lon="1.59882">
        <ele>1682</ele>
        <time>2020-01-05T10:09:16.000Z</time>
      </trkpt>
      <trkpt lat="42.75568" lon="1.59882">
        <ele>1682</ele>
        <time>2020-01-05T10:09:18.000Z</time>
      </trkpt>
      <trkpt lat="42.75568" lon="1.59882">
        <ele>1682</ele>
        <time>2020-01-05T10:09:20.000Z</time>
      </trkpt>
      <trkpt lat="42.75568" lon="1.59881">
        <ele>1682</ele>
        <time>2020-01-05T10:09:22.000Z</time>
      </trkpt>
      <trkpt lat="42.75568" lon="1.59881">
        <ele>1682</ele>
        <time>2020-01-05T10:09:24.000Z</time>
      </trkpt>
      <trkpt lat="42.75568" lon="1.59881">
        <ele>1682</ele>
        <time>2020-01-05T10:09:26.000Z</time>
      </trkpt>
      <trkpt lat="42.75568" lon="1.59881">
        <ele>1682</ele>
        <time>2020-01-05T10:09:28.000Z</time>
      </trkpt>
      <trkpt lat="42.75568" lon="1.59881">
        <ele>1682</ele>
        <time>2020-01-05T10:09:30.000Z</time>
      </trkpt>
      <trkpt lat="42.75568" lon="1.59881">
        <ele>1682</ele>
        <time>2020-01-05T10:09:32.000Z</time>
      </trkpt>
      <trkpt lat="42.75568" lon="1.59881">
        <ele>1682</ele>
        <time>2020-01-05T10:09:34.000Z</time>
      </trkpt>
      <trkpt lat="42.75568" lon="1.59881">
        <ele>1682</ele>
        <time>2020-01-05T10:09:36.000Z</time>
      </trkpt>
      <trkpt lat="42.75568" lon="1.59881">
        <ele>1682</ele>
        <time>2020-01-05T10:09:38.000Z</time>
      </trkpt>
      <trkpt lat="42.75568" lon="1.59881">
        <ele>1682</ele>
        <time>2020-01-05T10:09:40.000Z</time>
      </trkpt>
      <trkpt lat="42.75568" lon="1.59881">
        <ele>1682</ele>
        <time>2020-01-05T10:09:42.000Z</time>
      </trkpt>
      <trkpt lat="42.75568" lon="1.59881">
        <ele>1682</ele>
        <time>2020-01-05T10:09:44.000Z</time>
      </trkpt>
      <trkpt lat="42.75568" lon="1.59881">
        <ele>1682</ele>
        <time>2020-01-05T10:09:46.000Z</time>
      </trkpt>
      <trkpt lat="42.75568" lon="1.59881">
        <ele>1682</ele>
        <time>2020-01-05T10:09:48.000Z</time>
      </trkpt>
      <trkpt lat="42.75568" lon="1.59881">
        <ele>1682</ele>
        <time>2020-01-05T10:09:50.000Z</time>
      </trkpt>
      <trkpt lat="42.75568" lon="1.59881">
        <ele>1682</ele>
        <time>2020-01-05T10:09:52.000Z</time>
      </trkpt>
      <trkpt lat="42.75568" lon="1.5988">
        <ele>1682</ele>
        <time>2020-01-05T10:09:54.000Z</time>
      </trkpt>
      <trkpt lat="42.75568" lon="1.5988">
        <ele>1682</ele>
        <time>2020-01-05T10:09:56.000Z</time>
      </trkpt>
      <trkpt lat="42.75568" lon="1.5988">
        <ele>1682</ele>
        <time>2020-01-05T10:09:58.000Z</time>
      </trkpt>
      <trkpt lat="42.75568" lon="1.59881">
        <ele>1682</ele>
        <time>2020-01-05T10:10:00.000Z</time>
      </trkpt>
      <trkpt lat="42.75568" lon="1.59881">
        <ele>1682</ele>
        <time>2020-01-05T10:10:02.000Z</time>
      </trkpt>
      <trkpt lat="42.75568" lon="1.59881">
        <ele>1682</ele>
        <time>2020-01-05T10:10:04.000Z</time>
      </trkpt>
      <trkpt lat="42.75568" lon="1.5988">
        <ele>1682</ele>
        <time>2020-01-05T10:10:06.000Z</time>
      </trkpt>
      <trkpt lat="42.75568" lon="1.5988">
        <ele>1682</ele>
        <time>2020-01-05T10:10:08.000Z</time>
      </trkpt>
      <trkpt lat="42.75568" lon="1.59881">
        <ele>1682</ele>
        <time>2020-01-05T10:10:10.000Z</time>
      </trkpt>
      <trkpt lat="42.75568" lon="1.59881">
        <ele>1682</ele>
        <time>2020-01-05T10:10:12.000Z</time>
      </trkpt>
      <trkpt lat="42.75568" lon="1.59881">
        <ele>1682</ele>
        <time>2020-01-05T10:10:14.000Z</time>
      </trkpt>
      <trkpt lat="42.75568" lon="1.59882">
        <ele>1682</ele>
        <time>2020-01-05T10:10:16.000Z</time>
      </trkpt>
      <trkpt lat="42.75568" lon="1.59881">
        <ele>1682</ele>
        <time>2020-01-05T10:10:18.000Z</time>
      </trkpt>
      <trkpt lat="42.75568" lon="1.59882">
        <ele>1682</ele>
        <time>2020-01-05T10:10:20.000Z</time>
      </trkpt>
      <trkpt lat="42.75568" lon="1.59882">
        <ele>1682</ele>
        <time>2020-01-05T10:10:22.000Z</time>
      </trkpt>
      <trkpt lat="42.75568" lon="1.59882">
        <ele>1682</ele>
        <time>2020-01-05T10:10:24.000Z</time>
      </trkpt>
      <trkpt lat="42.75568" lon="1.59881">
        <ele>1682</ele>
        <time>2020-01-05T10:10:26.000Z</time>
      </trkpt>
      <trkpt lat="42.75568" lon="1.59882">
        <ele>1682</ele>
        <time>2020-01-05T10:10:28.000Z</time>
      </trkpt>
      <trkpt lat="42.75568" lon="1.59881">
        <ele>1682</ele>
        <time>2020-01-05T10:10:30.000Z</time>
      </trkpt>
      <trkpt lat="42.75568" lon="1.59881">
        <ele>1682</ele>
        <time>2020-01-05T10:10:32.000Z</time>
      </trkpt>
      <trkpt lat="42.75568" lon="1.59881">
        <ele>1682</ele>
        <time>2020-01-05T10:10:34.000Z</time>
      </trkpt>
      <trkpt lat="42.75568" lon="1.59881">
        <ele>1682</ele>
        <time>2020-01-05T10:10:36.000Z</time>
      </trkpt>
      <trkpt lat="42.75568" lon="1.59881">
        <ele>1682</ele>
        <time>2020-01-05T10:10:38.000Z</time>
      </trkpt>
      <trkpt lat="42.75568" lon="1.59881">
        <ele>1682</ele>
        <time>2020-01-05T10:10:40.000Z</time>
      </trkpt>
      <trkpt lat="42.75568" lon="1.5988">
        <ele>1682</ele>
        <time>2020-01-05T10:10:42.000Z</time>
      </trkpt>
      <trkpt lat="42.75568" lon="1.59881">
        <ele>1682</ele>
        <time>2020-01-05T10:10:44.000Z</time>
      </trkpt>
      <trkpt lat="42.75568" lon="1.59881">
        <ele>1682</ele>
        <time>2020-01-05T10:10:46.000Z</time>
      </trkpt>
      <trkpt lat="42.75568" lon="1.59882">
        <ele>1682</ele>
        <time>2020-01-05T10:10:48.000Z</time>
      </trkpt>
      <trkpt lat="42.75568" lon="1.59882">
        <ele>1682</ele>
        <time>2020-01-05T10:10:50.000Z</time>
      </trkpt>
      <trkpt lat="42.75568" lon="1.59882">
        <ele>1682</ele>
        <time>2020-01-05T10:10:52.000Z</time>
      </trkpt>
      <trkpt lat="42.75568" lon="1.59882">
        <ele>1682</ele>
        <time>2020-01-05T10:10:54.000Z</time>
      </trkpt>
      <trkpt lat="42.75568" lon="1.59882">
        <ele>1682</ele>
        <time>2020-01-05T10:10:56.000Z</time>
      </trkpt>
      <trkpt lat="42.75568" lon="1.59882">
        <ele>1682</ele>
        <time>2020-01-05T10:10:58.000Z</time>
      </trkpt>
      <trkpt lat="42.75568" lon="1.59882">
        <ele>1682</ele>
        <time>2020-01-05T10:11:00.000Z</time>
      </trkpt>
      <trkpt lat="42.75569" lon="1.59883">
        <ele>1682</ele>
        <time>2020-01-05T10:11:02.000Z</time>
      </trkpt>
      <trkpt lat="42.75569" lon="1.59883">
        <ele>1682</ele>
        <time>2020-01-05T10:11:04.000Z</time>
      </trkpt>
      <trkpt lat="42.75569" lon="1.59883">
        <ele>1682</ele>
        <time>2020-01-05T10:11:06.000Z</time>
      </trkpt>
      <trkpt lat="42.75569" lon="1.59883">
        <ele>1682</ele>
        <time>2020-01-05T10:11:08.000Z</time>
      </trkpt>
      <trkpt lat="42.75569" lon="1.59883">
        <ele>1682</ele>
        <time>2020-01-05T10:11:10.000Z</time>
      </trkpt>
      <trkpt lat="42.75569" lon="1.59883">
        <ele>1682</ele>
        <time>2020-01-05T10:11:12.000Z</time>
      </trkpt>
      <trkpt lat="42.75569" lon="1.59883">
        <ele>1682</ele>
        <time>2020-01-05T10:11:14.000Z</time>
      </trkpt>
      <trkpt lat="42.75569" lon="1.59883">
        <ele>1682</ele>
        <time>2020-01-05T10:11:16.000Z</time>
      </trkpt>
      <trkpt lat="42.75569" lon="1.59883">
        <ele>1682</ele>
        <time>2020-01-05T10:11:18.000Z</time>
      </trkpt>
      <trkpt lat="42.75569" lon="1.59883">
        <ele>1682</ele>
        <time>2020-01-05T10:11:20.000Z</time>
      </trkpt>
      <trkpt lat="42.75569" lon="1.59883">
        <ele>1682</ele>
        <time>2020-01-05T10:11:22.000Z</time>
      </trkpt>
      <trkpt lat="42.75569" lon="1.59883">
        <ele>1682</ele>
        <time>2020-01-05T10:11:24.000Z</time>
      </trkpt>
      <trkpt lat="42.75569" lon="1.59883">
        <ele>1682</ele>
        <time>2020-01-05T10:11:26.000Z</time>
      </trkpt>
      <trkpt lat="42.75569" lon="1.59883">
        <ele>1682</ele>
        <time>2020-01-05T10:11:28.000Z</time>
      </trkpt>
      <trkpt lat="42.75569" lon="1.59883">
        <ele>1682</ele>
        <time>2020-01-05T10:11:30.000Z</time>
      </trkpt>
      <trkpt lat="42.75569" lon="1.59883">
        <ele>1682</ele>
        <time>2020-01-05T10:11:32.000Z</time>
      </trkpt>
      <trkpt lat="42.75569" lon="1.59883">
        <ele>1682</ele>
        <time>2020-01-05T10:11:34.000Z</time>
      </trkpt>
      <trkpt lat="42.75569" lon="1.59883">
        <ele>1682</ele>
        <time>2020-01-05T10:11:36.000Z</time>
      </trkpt>
      <trkpt lat="42.75569" lon="1.59882">
        <ele>1682</ele>
        <time>2020-01-05T10:11:38.000Z</time>
      </trkpt>
      <trkpt lat="42.75569" lon="1.59882">
        <ele>1682</ele>
        <time>2020-01-05T10:11:40.000Z</time>
      </trkpt>
      <trkpt lat="42.75569" lon="1.59881">
        <ele>1682</ele>
        <time>2020-01-05T10:11:42.000Z</time>
      </trkpt>
      <trkpt lat="42.75568" lon="1.59881">
        <ele>1682</ele>
        <time>2020-01-05T10:11:44.000Z</time>
      </trkpt>
      <trkpt lat="42.75568" lon="1.59881">
        <ele>1682</ele>
        <time>2020-01-05T10:11:46.000Z</time>
      </trkpt>
      <trkpt lat="42.75568" lon="1.5988">
        <ele>1682</ele>
        <time>2020-01-05T10:11:48.000Z</time>
      </trkpt>
      <trkpt lat="42.75568" lon="1.5988">
        <ele>1682</ele>
        <time>2020-01-05T10:11:50.000Z</time>
      </trkpt>
      <trkpt lat="42.75568" lon="1.5988">
        <ele>1682</ele>
        <time>2020-01-05T10:11:52.000Z</time>
      </trkpt>
      <trkpt lat="42.75568" lon="1.5988">
        <ele>1682</ele>
        <time>2020-01-05T10:11:54.000Z</time>
      </trkpt>
      <trkpt lat="42.75568" lon="1.59881">
        <ele>1682</ele>
        <time>2020-01-05T10:11:56.000Z</time>
      </trkpt>
      <trkpt lat="42.75568" lon="1.59882">
        <ele>1682</ele>
        <time>2020-01-05T10:11:58.000Z</time>
      </trkpt>
      <trkpt lat="42.75568" lon="1.59882">
        <ele>1682</ele>
        <time>2020-01-05T10:12:00.000Z</time>
      </trkpt>
      <trkpt lat="42.75568" lon="1.59882">
        <ele>1682</ele>
        <time>2020-01-05T10:12:02.000Z</time>
      </trkpt>
      <trkpt lat="42.75568" lon="1.59883">
        <ele>1682</ele>
        <time>2020-01-05T10:12:04.000Z</time>
      </trkpt>
      <trkpt lat="42.75568" lon="1.59884">
        <ele>1682</ele>
        <time>2020-01-05T10:12:06.000Z</time>
      </trkpt>
      <trkpt lat="42.75568" lon="1.59883">
        <ele>1682</ele>
        <time>2020-01-05T10:12:08.000Z</time>
      </trkpt>
      <trkpt lat="42.75568" lon="1.59883">
        <ele>1682</ele>
        <time>2020-01-05T10:12:10.000Z</time>
      </trkpt>
      <trkpt lat="42.75568" lon="1.59883">
        <ele>1682</ele>
        <time>2020-01-05T10:12:12.000Z</time>
      </trkpt>
      <trkpt lat="42.75568" lon="1.59882">
        <ele>1682</ele>
        <time>2020-01-05T10:12:14.000Z</time>
      </trkpt>
      <trkpt lat="42.75568" lon="1.59882">
        <ele>1682</ele>
        <time>2020-01-05T10:12:16.000Z</time>
      </trkpt>
      <trkpt lat="42.75568" lon="1.59882">
        <ele>1682</ele>
        <time>2020-01-05T10:12:18.000Z</time>
      </trkpt>
      <trkpt lat="42.75568" lon="1.59882">
        <ele>1682</ele>
        <time>2020-01-05T10:12:20.000Z</time>
      </trkpt>
      <trkpt lat="42.75568" lon="1.59882">
        <ele>1682</ele>
        <time>2020-01-05T10:12:22.000Z</time>
      </trkpt>
      <trkpt lat="42.75568" lon="1.59882">
        <ele>1682</ele>
        <time>2020-01-05T10:12:24.000Z</time>
      </trkpt>
      <trkpt lat="42.75568" lon="1.59882">
        <ele>1682</ele>
        <time>2020-01-05T10:12:26.000Z</time>
      </trkpt>
      <trkpt lat="42.75568" lon="1.59883">
        <ele>1682</ele>
        <time>2020-01-05T10:12:28.000Z</time>
      </trkpt>
      <trkpt lat="42.75568" lon="1.59882">
        <ele>1682</ele>
        <time>2020-01-05T10:12:30.000Z</time>
      </trkpt>
      <trkpt lat="42.75568" lon="1.59882">
        <ele>1682</ele>
        <time>2020-01-05T10:12:32.000Z</time>
      </trkpt>
      <trkpt lat="42.75568" lon="1.59882">
        <ele>1682</ele>
        <time>2020-01-05T10:12:34.000Z</time>
      </trkpt>
      <trkpt lat="42.75568" lon="1.59882">
        <ele>1682</ele>
        <time>2020-01-05T10:12:36.000Z</time>
      </trkpt>
      <trkpt lat="42.75568" lon="1.59882">
        <ele>1682</ele>
        <time>2020-01-05T10:12:38.000Z</time>
      </trkpt>
      <trkpt lat="42.75568" lon="1.59882">
        <ele>1682</ele>
        <time>2020-01-05T10:12:40.000Z</time>
      </trkpt>
      <trkpt lat="42.75568" lon="1.59882">
        <ele>1682</ele>
        <time>2020-01-05T10:12:42.000Z</time>
      </trkpt>
      <trkpt lat="42.75568" lon="1.59882">
        <ele>1682</ele>
        <time>2020-01-05T10:12:44.000Z</time>
      </trkpt>
      <trkpt lat="42.75568" lon="1.59882">
        <ele>1682</ele>
        <time>2020-01-05T10:12:46.000Z</time>
      </trkpt>
      <trkpt lat="42.75568" lon="1.59882">
        <ele>1682</ele>
        <time>2020-01-05T10:12:48.000Z</time>
      </trkpt>
      <trkpt lat="42.75568" lon="1.59882">
        <ele>1682</ele>
        <time>2020-01-05T10:12:50.000Z</time>
      </trkpt>
      <trkpt lat="42.75568" lon="1.59881">
        <ele>1682</ele>
        <time>2020-01-05T10:12:52.000Z</time>
      </trkpt>
      <trkpt lat="42.75568" lon="1.59881">
        <ele>1682</ele>
        <time>2020-01-05T10:12:54.000Z</time>
      </trkpt>
      <trkpt lat="42.75568" lon="1.59881">
        <ele>1682</ele>
        <time>2020-01-05T10:12:56.000Z</time>
      </trkpt>
      <trkpt lat="42.75568" lon="1.59881">
        <ele>1682</ele>
        <time>2020-01-05T10:12:58.000Z</time>
      </trkpt>
      <trkpt lat="42.75568" lon="1.59881">
        <ele>1682</ele>
        <time>2020-01-05T10:13:00.000Z</time>
      </trkpt>
      <trkpt lat="42.75568" lon="1.59881">
        <ele>1682</ele>
        <time>2020-01-05T10:13:02.000Z</time>
      </trkpt>
      <trkpt lat="42.75568" lon="1.5988">
        <ele>1682</ele>
        <time>2020-01-05T10:13:04.000Z</time>
      </trkpt>
      <trkpt lat="42.75568" lon="1.59881">
        <ele>1682</ele>
        <time>2020-01-05T10:13:06.000Z</time>
      </trkpt>
      <trkpt lat="42.75568" lon="1.59881">
        <ele>1682</ele>
        <time>2020-01-05T10:13:08.000Z</time>
      </trkpt>
      <trkpt lat="42.75568" lon="1.5988">
        <ele>1682</ele>
        <time>2020-01-05T10:13:10.000Z</time>
      </trkpt>
      <trkpt lat="42.75568" lon="1.59881">
        <ele>1682</ele>
        <time>2020-01-05T10:13:12.000Z</time>
      </trkpt>
      <trkpt lat="42.75568" lon="1.59881">
        <ele>1682</ele>
        <time>2020-01-05T10:13:14.000Z</time>
      </trkpt>
      <trkpt lat="42.75568" lon="1.59881">
        <ele>1682</ele>
        <time>2020-01-05T10:13:16.000Z</time>
      </trkpt>
      <trkpt lat="42.75568" lon="1.59881">
        <ele>1682</ele>
        <time>2020-01-05T10:13:18.000Z</time>
      </trkpt>
      <trkpt lat="42.75568" lon="1.59881">
        <ele>1682</ele>
        <time>2020-01-05T10:13:20.000Z</time>
      </trkpt>
      <trkpt lat="42.75568" lon="1.59881">
        <ele>1682</ele>
        <time>2020-01-05T10:13:22.000Z</time>
      </trkpt>
      <trkpt lat="42.75568" lon="1.59881">
        <ele>1682</ele>
        <time>2020-01-05T10:13:24.000Z</time>
      </trkpt>
      <trkpt lat="42.75568" lon="1.59882">
        <ele>1682</ele>
        <time>2020-01-05T10:13:26.000Z</time>
      </trkpt>
      <trkpt lat="42.75568" lon="1.59882">
        <ele>1682</ele>
        <time>2020-01-05T10:13:28.000Z</time>
      </trkpt>
      <trkpt lat="42.75568" lon="1.59882">
        <ele>1682</ele>
        <time>2020-01-05T10:13:30.000Z</time>
      </trkpt>
      <trkpt lat="42.75568" lon="1.59882">
        <ele>1682</ele>
        <time>2020-01-05T10:13:32.000Z</time>
      </trkpt>
      <trkpt lat="42.75568" lon="1.59882">
        <ele>1682</ele>
        <time>2020-01-05T10:13:34.000Z</time>
      </trkpt>
      <trkpt lat="42.75569" lon="1.59881">
        <ele>1682</ele>
        <time>2020-01-05T10:13:36.000Z</time>
      </trkpt>
      <trkpt lat="42.75569" lon="1.5988">
        <ele>1682</ele>
        <time>2020-01-05T10:13:38.000Z</time>
      </trkpt>
      <trkpt lat="42.75569" lon="1.5988">
        <ele>1682</ele>
        <time>2020-01-05T10:13:40.000Z</time>
      </trkpt>
      <trkpt lat="42.75569" lon="1.5988">
        <ele>1682</ele>
        <time>2020-01-05T10:13:42.000Z</time>
      </trkpt>
      <trkpt lat="42.75569" lon="1.5988">
        <ele>1682</ele>
        <time>2020-01-05T10:13:44.000Z</time>
      </trkpt>
      <trkpt lat="42.75569" lon="1.5988">
        <ele>1682</ele>
        <time>2020-01-05T10:13:46.000Z</time>
      </trkpt>
      <trkpt lat="42.75569" lon="1.59881">
        <ele>1682</ele>
        <time>2020-01-05T10:13:48.000Z</time>
      </trkpt>
      <trkpt lat="42.75569" lon="1.5988">
        <ele>1682</ele>
        <time>2020-01-05T10:13:50.000Z</time>
      </trkpt>
      <trkpt lat="42.75569" lon="1.5988">
        <ele>1682</ele>
        <time>2020-01-05T10:13:52.000Z</time>
      </trkpt>
      <trkpt lat="42.75569" lon="1.59881">
        <ele>1682</ele>
        <time>2020-01-05T10:13:54.000Z</time>
      </trkpt>
      <trkpt lat="42.75569" lon="1.59881">
        <ele>1682</ele>
        <time>2020-01-05T10:13:56.000Z</time>
      </trkpt>
      <trkpt lat="42.75569" lon="1.59881">
        <ele>1682</ele>
        <time>2020-01-05T10:13:58.000Z</time>
      </trkpt>
      <trkpt lat="42.75569" lon="1.5988">
        <ele>1682</ele>
        <time>2020-01-05T10:14:00.000Z</time>
      </trkpt>
      <trkpt lat="42.75568" lon="1.5988">
        <ele>1682</ele>
        <time>2020-01-05T10:14:02.000Z</time>
      </trkpt>
      <trkpt lat="42.75569" lon="1.5988">
        <ele>1682</ele>
        <time>2020-01-05T10:14:04.000Z</time>
      </trkpt>
      <trkpt lat="42.75568" lon="1.59881">
        <ele>1682</ele>
        <time>2020-01-05T10:14:06.000Z</time>
      </trkpt>
      <trkpt lat="42.75568" lon="1.59881">
        <ele>1682</ele>
        <time>2020-01-05T10:14:08.000Z</time>
      </trkpt>
      <trkpt lat="42.75568" lon="1.59881">
        <ele>1682</ele>
        <time>2020-01-05T10:14:10.000Z</time>
      </trkpt>
      <trkpt lat="42.75568" lon="1.59881">
        <ele>1682</ele>
        <time>2020-01-05T10:14:12.000Z</time>
      </trkpt>
      <trkpt lat="42.75568" lon="1.59881">
        <ele>1682</ele>
        <time>2020-01-05T10:14:14.000Z</time>
      </trkpt>
      <trkpt lat="42.75568" lon="1.59881">
        <ele>1682</ele>
        <time>2020-01-05T10:14:16.000Z</time>
      </trkpt>
      <trkpt lat="42.75568" lon="1.59881">
        <ele>1682</ele>
        <time>2020-01-05T10:14:18.000Z</time>
      </trkpt>
      <trkpt lat="42.75569" lon="1.59882">
        <ele>1682</ele>
        <time>2020-01-05T10:14:20.000Z</time>
      </trkpt>
      <trkpt lat="42.75569" lon="1.59882">
        <ele>1682</ele>
        <time>2020-01-05T10:14:22.000Z</time>
      </trkpt>
      <trkpt lat="42.75568" lon="1.59882">
        <ele>1682</ele>
        <time>2020-01-05T10:14:24.000Z</time>
      </trkpt>
      <trkpt lat="42.75567" lon="1.59883">
        <ele>1682</ele>
        <time>2020-01-05T10:14:26.000Z</time>
      </trkpt>
      <trkpt lat="42.75566" lon="1.59883">
        <ele>1682</ele>
        <time>2020-01-05T10:14:28.000Z</time>
      </trkpt>
      <trkpt lat="42.75564" lon="1.59884">
        <ele>1682</ele>
        <time>2020-01-05T10:14:30.000Z</time>
      </trkpt>
      <trkpt lat="42.75562" lon="1.59884">
        <ele>1681</ele>
        <time>2020-01-05T10:14:32.000Z</time>
      </trkpt>
      <trkpt lat="42.75561" lon="1.59886">
        <ele>1681</ele>
        <time>2020-01-05T10:14:34.000Z</time>
      </trkpt>
      <trkpt lat="42.75561" lon="1.59888">
        <ele>1681</ele>
        <time>2020-01-05T10:14:36.000Z</time>
      </trkpt>
      <trkpt lat="42.7556" lon="1.59891">
        <ele>1681</ele>
        <time>2020-01-05T10:14:38.000Z</time>
      </trkpt>
      <trkpt lat="42.75558" lon="1.59892">
        <ele>1681</ele>
        <time>2020-01-05T10:14:40.000Z</time>
      </trkpt>
      <trkpt lat="42.75557" lon="1.59894">
        <ele>1680</ele>
        <time>2020-01-05T10:14:42.000Z</time>
      </trkpt>
      <trkpt lat="42.75556" lon="1.59896">
        <ele>1680</ele>
        <time>2020-01-05T10:14:44.000Z</time>
      </trkpt>
      <trkpt lat="42.75555" lon="1.59897">
        <ele>1680</ele>
        <time>2020-01-05T10:14:46.000Z</time>
      </trkpt>
      <trkpt lat="42.75553" lon="1.59898">
        <ele>1680</ele>
        <time>2020-01-05T10:14:48.000Z</time>
      </trkpt>
      <trkpt lat="42.75552" lon="1.59899">
        <ele>1680</ele>
        <time>2020-01-05T10:14:50.000Z</time>
      </trkpt>
      <trkpt lat="42.75551" lon="1.599">
        <ele>1679</ele>
        <time>2020-01-05T10:14:52.000Z</time>
      </trkpt>
      <trkpt lat="42.75549" lon="1.59901">
        <ele>1679</ele>
        <time>2020-01-05T10:14:54.000Z</time>
      </trkpt>
      <trkpt lat="42.75548" lon="1.59902">
        <ele>1679</ele>
        <time>2020-01-05T10:14:56.000Z</time>
      </trkpt>
      <trkpt lat="42.75547" lon="1.59904">
        <ele>1679</ele>
        <time>2020-01-05T10:14:58.000Z</time>
      </trkpt>
      <trkpt lat="42.75545" lon="1.59905">
        <ele>1678</ele>
        <time>2020-01-05T10:15:00.000Z</time>
      </trkpt>
      <trkpt lat="42.75544" lon="1.59906">
        <ele>1678</ele>
        <time>2020-01-05T10:15:02.000Z</time>
      </trkpt>
      <trkpt lat="42.75543" lon="1.59908">
        <ele>1677</ele>
        <time>2020-01-05T10:15:04.000Z</time>
      </trkpt>
      <trkpt lat="42.75542" lon="1.5991">
        <ele>1677</ele>
        <time>2020-01-05T10:15:06.000Z</time>
      </trkpt>
      <trkpt lat="42.75541" lon="1.59911">
        <ele>1676</ele>
        <time>2020-01-05T10:15:08.000Z</time>
      </trkpt>
      <trkpt lat="42.75539" lon="1.59912">
        <ele>1676</ele>
        <time>2020-01-05T10:15:10.000Z</time>
      </trkpt>
      <trkpt lat="42.75538" lon="1.59913">
        <ele>1676</ele>
        <time>2020-01-05T10:15:12.000Z</time>
      </trkpt>
      <trkpt lat="42.75539" lon="1.59914">
        <ele>1676</ele>
        <time>2020-01-05T10:15:14.000Z</time>
      </trkpt>
      <trkpt lat="42.75538" lon="1.59916">
        <ele>1675</ele>
        <time>2020-01-05T10:15:16.000Z</time>
      </trkpt>
      <trkpt lat="42.75537" lon="1.59917">
        <ele>1675</ele>
        <time>2020-01-05T10:15:18.000Z</time>
      </trkpt>
      <trkpt lat="42.75537" lon="1.59919">
        <ele>1674</ele>
        <time>2020-01-05T10:15:20.000Z</time>
      </trkpt>
      <trkpt lat="42.75536" lon="1.59921">
        <ele>1674</ele>
        <time>2020-01-05T10:15:22.000Z</time>
      </trkpt>
      <trkpt lat="42.75536" lon="1.59922">
        <ele>1674</ele>
        <time>2020-01-05T10:15:24.000Z</time>
      </trkpt>
      <trkpt lat="42.75535" lon="1.59923">
        <ele>1673</ele>
        <time>2020-01-05T10:15:26.000Z</time>
      </trkpt>
      <trkpt lat="42.75535" lon="1.59925">
        <ele>1673</ele>
        <time>2020-01-05T10:15:28.000Z</time>
      </trkpt>
      <trkpt lat="42.75534" lon="1.59926">
        <ele>1673</ele>
        <time>2020-01-05T10:15:30.000Z</time>
      </trkpt>
      <trkpt lat="42.75534" lon="1.59928">
        <ele>1672</ele>
        <time>2020-01-05T10:15:32.000Z</time>
      </trkpt>
      <trkpt lat="42.75533" lon="1.59929">
        <ele>1672</ele>
        <time>2020-01-05T10:15:34.000Z</time>
      </trkpt>
      <trkpt lat="42.75531" lon="1.5993">
        <ele>1672</ele>
        <time>2020-01-05T10:15:36.000Z</time>
      </trkpt>
      <trkpt lat="42.75531" lon="1.59932">
        <ele>1672</ele>
        <time>2020-01-05T10:15:38.000Z</time>
      </trkpt>
      <trkpt lat="42.75529" lon="1.59934">
        <ele>1672</ele>
        <time>2020-01-05T10:15:40.000Z</time>
      </trkpt>
      <trkpt lat="42.75528" lon="1.59935">
        <ele>1673</ele>
        <time>2020-01-05T10:15:42.000Z</time>
      </trkpt>
      <trkpt lat="42.75527" lon="1.59937">
        <ele>1673</ele>
        <time>2020-01-05T10:15:44.000Z</time>
      </trkpt>
      <trkpt lat="42.75525" lon="1.59938">
        <ele>1673</ele>
        <time>2020-01-05T10:15:46.000Z</time>
      </trkpt>
      <trkpt lat="42.75524" lon="1.5994">
        <ele>1673</ele>
        <time>2020-01-05T10:15:48.000Z</time>
      </trkpt>
      <trkpt lat="42.75523" lon="1.59942">
        <ele>1674</ele>
        <time>2020-01-05T10:15:50.000Z</time>
      </trkpt>
      <trkpt lat="42.75522" lon="1.59943">
        <ele>1674</ele>
        <time>2020-01-05T10:15:52.000Z</time>
      </trkpt>
      <trkpt lat="42.7552" lon="1.59944">
        <ele>1674</ele>
        <time>2020-01-05T10:15:54.000Z</time>
      </trkpt>
      <trkpt lat="42.75519" lon="1.59946">
        <ele>1674</ele>
        <time>2020-01-05T10:15:56.000Z</time>
      </trkpt>
      <trkpt lat="42.75518" lon="1.59947">
        <ele>1675</ele>
        <time>2020-01-05T10:15:58.000Z</time>
      </trkpt>
      <trkpt lat="42.75517" lon="1.59949">
        <ele>1675</ele>
        <time>2020-01-05T10:16:00.000Z</time>
      </trkpt>
      <trkpt lat="42.75516" lon="1.5995">
        <ele>1675</ele>
        <time>2020-01-05T10:16:02.000Z</time>
      </trkpt>
      <trkpt lat="42.75514" lon="1.59952">
        <ele>1675</ele>
        <time>2020-01-05T10:16:04.000Z</time>
      </trkpt>
      <trkpt lat="42.75513" lon="1.59954">
        <ele>1676</ele>
        <time>2020-01-05T10:16:06.000Z</time>
      </trkpt>
      <trkpt lat="42.75513" lon="1.59956">
        <ele>1676</ele>
        <time>2020-01-05T10:16:08.000Z</time>
      </trkpt>
      <trkpt lat="42.75512" lon="1.59958">
        <ele>1676</ele>
        <time>2020-01-05T10:16:10.000Z</time>
      </trkpt>
      <trkpt lat="42.75512" lon="1.5996">
        <ele>1676</ele>
        <time>2020-01-05T10:16:12.000Z</time>
      </trkpt>
      <trkpt lat="42.75511" lon="1.59962">
        <ele>1676</ele>
        <time>2020-01-05T10:16:14.000Z</time>
      </trkpt>
      <trkpt lat="42.75511" lon="1.59964">
        <ele>1676</ele>
        <time>2020-01-05T10:16:16.000Z</time>
      </trkpt>
      <trkpt lat="42.7551" lon="1.59967">
        <ele>1677</ele>
        <time>2020-01-05T10:16:18.000Z</time>
      </trkpt>
      <trkpt lat="42.75509" lon="1.5997">
        <ele>1677</ele>
        <time>2020-01-05T10:16:20.000Z</time>
      </trkpt>
      <trkpt lat="42.75507" lon="1.59972">
        <ele>1677</ele>
        <time>2020-01-05T10:16:22.000Z</time>
      </trkpt>
      <trkpt lat="42.75506" lon="1.59975">
        <ele>1678</ele>
        <time>2020-01-05T10:16:24.000Z</time>
      </trkpt>
      <trkpt lat="42.75504" lon="1.59978">
        <ele>1678</ele>
        <time>2020-01-05T10:16:26.000Z</time>
      </trkpt>
      <trkpt lat="42.75503" lon="1.59981">
        <ele>1677</ele>
        <time>2020-01-05T10:16:28.000Z</time>
      </trkpt>
      <trkpt lat="42.75502" lon="1.59984">
        <ele>1677</ele>
        <time>2020-01-05T10:16:30.000Z</time>
      </trkpt>
      <trkpt lat="42.75501" lon="1.59987">
        <ele>1677</ele>
        <time>2020-01-05T10:16:32.000Z</time>
      </trkpt>
      <trkpt lat="42.755" lon="1.59991">
        <ele>1677</ele>
        <time>2020-01-05T10:16:34.000Z</time>
      </trkpt>
      <trkpt lat="42.75499" lon="1.59993">
        <ele>1677</ele>
        <time>2020-01-05T10:16:36.000Z</time>
      </trkpt>
      <trkpt lat="42.75499" lon="1.59996">
        <ele>1677</ele>
        <time>2020-01-05T10:16:38.000Z</time>
      </trkpt>
      <trkpt lat="42.75498" lon="1.59999">
        <ele>1677</ele>
        <time>2020-01-05T10:16:40.000Z</time>
      </trkpt>
      <trkpt lat="42.75498" lon="1.60002">
        <ele>1677</ele>
        <time>2020-01-05T10:16:42.000Z</time>
      </trkpt>
      <trkpt lat="42.75497" lon="1.60004">
        <ele>1677</ele>
        <time>2020-01-05T10:16:44.000Z</time>
      </trkpt>
      <trkpt lat="42.75496" lon="1.60006">
        <ele>1677</ele>
        <time>2020-01-05T10:16:46.000Z</time>
      </trkpt>
      <trkpt lat="42.75495" lon="1.60008">
        <ele>1677</ele>
        <time>2020-01-05T10:16:48.000Z</time>
      </trkpt>
      <trkpt lat="42.75495" lon="1.6001">
        <ele>1677</ele>
        <time>2020-01-05T10:16:50.000Z</time>
      </trkpt>
      <trkpt lat="42.75494" lon="1.60012">
        <ele>1677</ele>
        <time>2020-01-05T10:16:52.000Z</time>
      </trkpt>
      <trkpt lat="42.75493" lon="1.60014">
        <ele>1677</ele>
        <time>2020-01-05T10:16:54.000Z</time>
      </trkpt>
      <trkpt lat="42.75493" lon="1.60015">
        <ele>1677</ele>
        <time>2020-01-05T10:16:56.000Z</time>
      </trkpt>
      <trkpt lat="42.75492" lon="1.60016">
        <ele>1677</ele>
        <time>2020-01-05T10:16:58.000Z</time>
      </trkpt>
      <trkpt lat="42.75492" lon="1.60018">
        <ele>1677</ele>
        <time>2020-01-05T10:17:00.000Z</time>
      </trkpt>
      <trkpt lat="42.75491" lon="1.60019">
        <ele>1677</ele>
        <time>2020-01-05T10:17:02.000Z</time>
      </trkpt>
      <trkpt lat="42.75491" lon="1.6002">
        <ele>1677</ele>
        <time>2020-01-05T10:17:04.000Z</time>
      </trkpt>
      <trkpt lat="42.75491" lon="1.60022">
        <ele>1677</ele>
        <time>2020-01-05T10:17:06.000Z</time>
      </trkpt>
      <trkpt lat="42.7549" lon="1.60025">
        <ele>1677</ele>
        <time>2020-01-05T10:17:08.000Z</time>
      </trkpt>
      <trkpt lat="42.7549" lon="1.60027">
        <ele>1677</ele>
        <time>2020-01-05T10:17:10.000Z</time>
      </trkpt>
      <trkpt lat="42.75489" lon="1.60029">
        <ele>1677</ele>
        <time>2020-01-05T10:17:12.000Z</time>
      </trkpt>
      <trkpt lat="42.75489" lon="1.60031">
        <ele>1677</ele>
        <time>2020-01-05T10:17:14.000Z</time>
      </trkpt>
      <trkpt lat="42.75488" lon="1.60033">
        <ele>1677</ele>
        <time>2020-01-05T10:17:16.000Z</time>
      </trkpt>
      <trkpt lat="42.75487" lon="1.60036">
        <ele>1677</ele>
        <time>2020-01-05T10:17:18.000Z</time>
      </trkpt>
      <trkpt lat="42.75487" lon="1.60039">
        <ele>1677</ele>
        <time>2020-01-05T10:17:20.000Z</time>
      </trkpt>
      <trkpt lat="42.75487" lon="1.60041">
        <ele>1677</ele>
        <time>2020-01-05T10:17:22.000Z</time>
      </trkpt>
      <trkpt lat="42.75486" lon="1.60044">
        <ele>1677</ele>
        <time>2020-01-05T10:17:24.000Z</time>
      </trkpt>
      <trkpt lat="42.75486" lon="1.60045">
        <ele>1677</ele>
        <time>2020-01-05T10:17:26.000Z</time>
      </trkpt>
      <trkpt lat="42.75486" lon="1.60047">
        <ele>1677</ele>
        <time>2020-01-05T10:17:28.000Z</time>
      </trkpt>
      <trkpt lat="42.75486" lon="1.60049">
        <ele>1677</ele>
        <time>2020-01-05T10:17:30.000Z</time>
      </trkpt>
      <trkpt lat="42.75486" lon="1.60051">
        <ele>1678</ele>
        <time>2020-01-05T10:17:32.000Z</time>
      </trkpt>
      <trkpt lat="42.75486" lon="1.60053">
        <ele>1678</ele>
        <time>2020-01-05T10:17:34.000Z</time>
      </trkpt>
      <trkpt lat="42.75486" lon="1.60055">
        <ele>1678</ele>
        <time>2020-01-05T10:17:36.000Z</time>
      </trkpt>
      <trkpt lat="42.75486" lon="1.60057">
        <ele>1679</ele>
        <time>2020-01-05T10:17:38.000Z</time>
      </trkpt>
      <trkpt lat="42.75486" lon="1.60059">
        <ele>1679</ele>
        <time>2020-01-05T10:17:40.000Z</time>
      </trkpt>
      <trkpt lat="42.75485" lon="1.60061">
        <ele>1680</ele>
        <time>2020-01-05T10:17:42.000Z</time>
      </trkpt>
      <trkpt lat="42.75485" lon="1.60063">
        <ele>1680</ele>
        <time>2020-01-05T10:17:44.000Z</time>
      </trkpt>
      <trkpt lat="42.75484" lon="1.60065">
        <ele>1681</ele>
        <time>2020-01-05T10:17:46.000Z</time>
      </trkpt>
      <trkpt lat="42.75484" lon="1.60066">
        <ele>1681</ele>
        <time>2020-01-05T10:17:48.000Z</time>
      </trkpt>
      <trkpt lat="42.75483" lon="1.60068">
        <ele>1681</ele>
        <time>2020-01-05T10:17:50.000Z</time>
      </trkpt>
      <trkpt lat="42.75482" lon="1.6007">
        <ele>1681</ele>
        <time>2020-01-05T10:17:52.000Z</time>
      </trkpt>
      <trkpt lat="42.75481" lon="1.60071">
        <ele>1681</ele>
        <time>2020-01-05T10:17:54.000Z</time>
      </trkpt>
      <trkpt lat="42.7548" lon="1.60073">
        <ele>1682</ele>
        <time>2020-01-05T10:17:56.000Z</time>
      </trkpt>
      <trkpt lat="42.7548" lon="1.60075">
        <ele>1682</ele>
        <time>2020-01-05T10:17:58.000Z</time>
      </trkpt>
      <trkpt lat="42.7548" lon="1.60077">
        <ele>1682</ele>
        <time>2020-01-05T10:18:00.000Z</time>
      </trkpt>
      <trkpt lat="42.7548" lon="1.60079">
        <ele>1682</ele>
        <time>2020-01-05T10:18:02.000Z</time>
      </trkpt>
      <trkpt lat="42.75479" lon="1.60081">
        <ele>1683</ele>
        <time>2020-01-05T10:18:04.000Z</time>
      </trkpt>
      <trkpt lat="42.75478" lon="1.60083">
        <ele>1683</ele>
        <time>2020-01-05T10:18:06.000Z</time>
      </trkpt>
      <trkpt lat="42.75477" lon="1.60085">
        <ele>1683</ele>
        <time>2020-01-05T10:18:08.000Z</time>
      </trkpt>
      <trkpt lat="42.75477" lon="1.60087">
        <ele>1683</ele>
        <time>2020-01-05T10:18:10.000Z</time>
      </trkpt>
      <trkpt lat="42.75477" lon="1.60089">
        <ele>1683</ele>
        <time>2020-01-05T10:18:12.000Z</time>
      </trkpt>
      <trkpt lat="42.75476" lon="1.60091">
        <ele>1684</ele>
        <time>2020-01-05T10:18:14.000Z</time>
      </trkpt>
      <trkpt lat="42.75476" lon="1.60093">
        <ele>1684</ele>
        <time>2020-01-05T10:18:16.000Z</time>
      </trkpt>
      <trkpt lat="42.75476" lon="1.60095">
        <ele>1684</ele>
        <time>2020-01-05T10:18:18.000Z</time>
      </trkpt>
      <trkpt lat="42.75476" lon="1.60096">
        <ele>1684</ele>
        <time>2020-01-05T10:18:20.000Z</time>
      </trkpt>
      <trkpt lat="42.75476" lon="1.60098">
        <ele>1685</ele>
        <time>2020-01-05T10:18:22.000Z</time>
      </trkpt>
      <trkpt lat="42.75476" lon="1.601">
        <ele>1685</ele>
        <time>2020-01-05T10:18:24.000Z</time>
      </trkpt>
      <trkpt lat="42.75476" lon="1.60102">
        <ele>1685</ele>
        <time>2020-01-05T10:18:26.000Z</time>
      </trkpt>
      <trkpt lat="42.75476" lon="1.60105">
        <ele>1685</ele>
        <time>2020-01-05T10:18:28.000Z</time>
      </trkpt>
      <trkpt lat="42.75475" lon="1.60107">
        <ele>1686</ele>
        <time>2020-01-05T10:18:30.000Z</time>
      </trkpt>
      <trkpt lat="42.75475" lon="1.60108">
        <ele>1686</ele>
        <time>2020-01-05T10:18:32.000Z</time>
      </trkpt>
      <trkpt lat="42.75475" lon="1.6011">
        <ele>1686</ele>
        <time>2020-01-05T10:18:34.000Z</time>
      </trkpt>
      <trkpt lat="42.75475" lon="1.60112">
        <ele>1686</ele>
        <time>2020-01-05T10:18:36.000Z</time>
      </trkpt>
      <trkpt lat="42.75474" lon="1.60114">
        <ele>1687</ele>
        <time>2020-01-05T10:18:38.000Z</time>
      </trkpt>
      <trkpt lat="42.75474" lon="1.60116">
        <ele>1687</ele>
        <time>2020-01-05T10:18:40.000Z</time>
      </trkpt>
      <trkpt lat="42.75474" lon="1.60118">
        <ele>1687</ele>
        <time>2020-01-05T10:18:42.000Z</time>
      </trkpt>
      <trkpt lat="42.75474" lon="1.6012">
        <ele>1687</ele>
        <time>2020-01-05T10:18:44.000Z</time>
      </trkpt>
      <trkpt lat="42.75473" lon="1.60122">
        <ele>1687</ele>
        <time>2020-01-05T10:18:46.000Z</time>
      </trkpt>
      <trkpt lat="42.75473" lon="1.60123">
        <ele>1688</ele>
        <time>2020-01-05T10:18:48.000Z</time>
      </trkpt>
      <trkpt lat="42.75472" lon="1.60125">
        <ele>1688</ele>
        <time>2020-01-05T10:18:50.000Z</time>
      </trkpt>
      <trkpt lat="42.75472" lon="1.60127">
        <ele>1688</ele>
        <time>2020-01-05T10:18:52.000Z</time>
      </trkpt>
      <trkpt lat="42.75472" lon="1.60129">
        <ele>1689</ele>
        <time>2020-01-05T10:18:54.000Z</time>
      </trkpt>
      <trkpt lat="42.75471" lon="1.60131">
        <ele>1689</ele>
        <time>2020-01-05T10:18:56.000Z</time>
      </trkpt>
      <trkpt lat="42.75471" lon="1.60134">
        <ele>1690</ele>
        <time>2020-01-05T10:18:58.000Z</time>
      </trkpt>
      <trkpt lat="42.75471" lon="1.60136">
        <ele>1690</ele>
        <time>2020-01-05T10:19:00.000Z</time>
      </trkpt>
      <trkpt lat="42.75471" lon="1.60138">
        <ele>1690</ele>
        <time>2020-01-05T10:19:02.000Z</time>
      </trkpt>
      <trkpt lat="42.7547" lon="1.6014">
        <ele>1691</ele>
        <time>2020-01-05T10:19:04.000Z</time>
      </trkpt>
      <trkpt lat="42.7547" lon="1.60143">
        <ele>1691</ele>
        <time>2020-01-05T10:19:06.000Z</time>
      </trkpt>
      <trkpt lat="42.7547" lon="1.60145">
        <ele>1692</ele>
        <time>2020-01-05T10:19:08.000Z</time>
      </trkpt>
      <trkpt lat="42.7547" lon="1.60148">
        <ele>1692</ele>
        <time>2020-01-05T10:19:10.000Z</time>
      </trkpt>
      <trkpt lat="42.7547" lon="1.6015">
        <ele>1692</ele>
        <time>2020-01-05T10:19:12.000Z</time>
      </trkpt>
      <trkpt lat="42.75469" lon="1.60152">
        <ele>1693</ele>
        <time>2020-01-05T10:19:14.000Z</time>
      </trkpt>
      <trkpt lat="42.75469" lon="1.60155">
        <ele>1693</ele>
        <time>2020-01-05T10:19:16.000Z</time>
      </trkpt>
      <trkpt lat="42.7547" lon="1.60157">
        <ele>1693</ele>
        <time>2020-01-05T10:19:18.000Z</time>
      </trkpt>
      <trkpt lat="42.7547" lon="1.6016">
        <ele>1693</ele>
        <time>2020-01-05T10:19:20.000Z</time>
      </trkpt>
      <trkpt lat="42.7547" lon="1.60162">
        <ele>1694</ele>
        <time>2020-01-05T10:19:22.000Z</time>
      </trkpt>
      <trkpt lat="42.7547" lon="1.60165">
        <ele>1694</ele>
        <time>2020-01-05T10:19:24.000Z</time>
      </trkpt>
      <trkpt lat="42.75469" lon="1.60167">
        <ele>1694</ele>
        <time>2020-01-05T10:19:26.000Z</time>
      </trkpt>
      <trkpt lat="42.75469" lon="1.60169">
        <ele>1694</ele>
        <time>2020-01-05T10:19:28.000Z</time>
      </trkpt>
      <trkpt lat="42.75468" lon="1.60171">
        <ele>1694</ele>
        <time>2020-01-05T10:19:30.000Z</time>
      </trkpt>
      <trkpt lat="42.75467" lon="1.60173">
        <ele>1694</ele>
        <time>2020-01-05T10:19:32.000Z</time>
      </trkpt>
      <trkpt lat="42.75466" lon="1.60176">
        <ele>1695</ele>
        <time>2020-01-05T10:19:34.000Z</time>
      </trkpt>
      <trkpt lat="42.75466" lon="1.60178">
        <ele>1695</ele>
        <time>2020-01-05T10:19:36.000Z</time>
      </trkpt>
      <trkpt lat="42.75465" lon="1.6018">
        <ele>1695</ele>
        <time>2020-01-05T10:19:38.000Z</time>
      </trkpt>
      <trkpt lat="42.75465" lon="1.60182">
        <ele>1695</ele>
        <time>2020-01-05T10:19:40.000Z</time>
      </trkpt>
      <trkpt lat="42.75465" lon="1.60184">
        <ele>1695</ele>
        <time>2020-01-05T10:19:42.000Z</time>
      </trkpt>
      <trkpt lat="42.75465" lon="1.60186">
        <ele>1695</ele>
        <time>2020-01-05T10:19:44.000Z</time>
      </trkpt>
      <trkpt lat="42.75464" lon="1.60188">
        <ele>1696</ele>
        <time>2020-01-05T10:19:46.000Z</time>
      </trkpt>
      <trkpt lat="42.75463" lon="1.6019">
        <ele>1696</ele>
        <time>2020-01-05T10:19:48.000Z</time>
      </trkpt>
      <trkpt lat="42.75463" lon="1.60192">
        <ele>1696</ele>
        <time>2020-01-05T10:19:50.000Z</time>
      </trkpt>
      <trkpt lat="42.75462" lon="1.60194">
        <ele>1696</ele>
        <time>2020-01-05T10:19:52.000Z</time>
      </trkpt>
      <trkpt lat="42.75462" lon="1.60196">
        <ele>1696</ele>
        <time>2020-01-05T10:19:54.000Z</time>
      </trkpt>
      <trkpt lat="42.75461" lon="1.60198">
        <ele>1697</ele>
        <time>2020-01-05T10:19:56.000Z</time>
      </trkpt>
      <trkpt lat="42.75461" lon="1.60199">
        <ele>1697</ele>
        <time>2020-01-05T10:19:58.000Z</time>
      </trkpt>
      <trkpt lat="42.7546" lon="1.60201">
        <ele>1697</ele>
        <time>2020-01-05T10:20:00.000Z</time>
      </trkpt>
      <trkpt lat="42.75459" lon="1.60203">
        <ele>1698</ele>
        <time>2020-01-05T10:20:02.000Z</time>
      </trkpt>
      <trkpt lat="42.75459" lon="1.60204">
        <ele>1698</ele>
        <time>2020-01-05T10:20:04.000Z</time>
      </trkpt>
      <trkpt lat="42.75458" lon="1.60206">
        <ele>1699</ele>
        <time>2020-01-05T10:20:06.000Z</time>
      </trkpt>
      <trkpt lat="42.75458" lon="1.60208">
        <ele>1699</ele>
        <time>2020-01-05T10:20:08.000Z</time>
      </trkpt>
      <trkpt lat="42.75457" lon="1.60209">
        <ele>1699</ele>
        <time>2020-01-05T10:20:10.000Z</time>
      </trkpt>
      <trkpt lat="42.75457" lon="1.60211">
        <ele>1699</ele>
        <time>2020-01-05T10:20:12.000Z</time>
      </trkpt>
      <trkpt lat="42.75456" lon="1.60212">
        <ele>1700</ele>
        <time>2020-01-05T10:20:14.000Z</time>
      </trkpt>
      <trkpt lat="42.75456" lon="1.60213">
        <ele>1700</ele>
        <time>2020-01-05T10:20:16.000Z</time>
      </trkpt>
      <trkpt lat="42.75455" lon="1.60215">
        <ele>1700</ele>
        <time>2020-01-05T10:20:18.000Z</time>
      </trkpt>
      <trkpt lat="42.75455" lon="1.60216">
        <ele>1701</ele>
        <time>2020-01-05T10:20:20.000Z</time>
      </trkpt>
      <trkpt lat="42.75454" lon="1.60218">
        <ele>1701</ele>
        <time>2020-01-05T10:20:22.000Z</time>
      </trkpt>
      <trkpt lat="42.75453" lon="1.60219">
        <ele>1701</ele>
        <time>2020-01-05T10:20:24.000Z</time>
      </trkpt>
      <trkpt lat="42.75453" lon="1.60221">
        <ele>1701</ele>
        <time>2020-01-05T10:20:26.000Z</time>
      </trkpt>
      <trkpt lat="42.75452" lon="1.60222">
        <ele>1702</ele>
        <time>2020-01-05T10:20:28.000Z</time>
      </trkpt>
      <trkpt lat="42.75452" lon="1.60223">
        <ele>1702</ele>
        <time>2020-01-05T10:20:30.000Z</time>
      </trkpt>
      <trkpt lat="42.75451" lon="1.60224">
        <ele>1702</ele>
        <time>2020-01-05T10:20:32.000Z</time>
      </trkpt>
      <trkpt lat="42.7545" lon="1.60226">
        <ele>1703</ele>
        <time>2020-01-05T10:20:34.000Z</time>
      </trkpt>
      <trkpt lat="42.75449" lon="1.60227">
        <ele>1703</ele>
        <time>2020-01-05T10:20:36.000Z</time>
      </trkpt>
      <trkpt lat="42.75449" lon="1.60228">
        <ele>1703</ele>
        <time>2020-01-05T10:20:38.000Z</time>
      </trkpt>
      <trkpt lat="42.75449" lon="1.6023">
        <ele>1703</ele>
        <time>2020-01-05T10:20:40.000Z</time>
      </trkpt>
      <trkpt lat="42.75449" lon="1.60231">
        <ele>1704</ele>
        <time>2020-01-05T10:20:42.000Z</time>
      </trkpt>
      <trkpt lat="42.75448" lon="1.60233">
        <ele>1704</ele>
        <time>2020-01-05T10:20:44.000Z</time>
      </trkpt>
      <trkpt lat="42.75448" lon="1.60234">
        <ele>1704</ele>
        <time>2020-01-05T10:20:46.000Z</time>
      </trkpt>
      <trkpt lat="42.75447" lon="1.60235">
        <ele>1704</ele>
        <time>2020-01-05T10:20:48.000Z</time>
      </trkpt>
      <trkpt lat="42.75447" lon="1.60236">
        <ele>1704</ele>
        <time>2020-01-05T10:20:50.000Z</time>
      </trkpt>
      <trkpt lat="42.75446" lon="1.60237">
        <ele>1705</ele>
        <time>2020-01-05T10:20:52.000Z</time>
      </trkpt>
      <trkpt lat="42.75446" lon="1.60238">
        <ele>1705</ele>
        <time>2020-01-05T10:20:54.000Z</time>
      </trkpt>
      <trkpt lat="42.75445" lon="1.60239">
        <ele>1705</ele>
        <time>2020-01-05T10:20:56.000Z</time>
      </trkpt>
      <trkpt lat="42.75445" lon="1.6024">
        <ele>1705</ele>
        <time>2020-01-05T10:20:58.000Z</time>
      </trkpt>
      <trkpt lat="42.75444" lon="1.60242">
        <ele>1705</ele>
        <time>2020-01-05T10:21:00.000Z</time>
      </trkpt>
      <trkpt lat="42.75444" lon="1.60243">
        <ele>1705</ele>
        <time>2020-01-05T10:21:02.000Z</time>
      </trkpt>
      <trkpt lat="42.75443" lon="1.60244">
        <ele>1705</ele>
        <time>2020-01-05T10:21:04.000Z</time>
      </trkpt>
      <trkpt lat="42.75443" lon="1.60246">
        <ele>1705</ele>
        <time>2020-01-05T10:21:06.000Z</time>
      </trkpt>
      <trkpt lat="42.75442" lon="1.60247">
        <ele>1705</ele>
        <time>2020-01-05T10:21:08.000Z</time>
      </trkpt>
      <trkpt lat="42.75442" lon="1.60248">
        <ele>1705</ele>
        <time>2020-01-05T10:21:10.000Z</time>
      </trkpt>
      <trkpt lat="42.75441" lon="1.60249">
        <ele>1705</ele>
        <time>2020-01-05T10:21:12.000Z</time>
      </trkpt>
      <trkpt lat="42.75441" lon="1.6025">
        <ele>1706</ele>
        <time>2020-01-05T10:21:14.000Z</time>
      </trkpt>
      <trkpt lat="42.7544" lon="1.60251">
        <ele>1706</ele>
        <time>2020-01-05T10:21:16.000Z</time>
      </trkpt>
      <trkpt lat="42.7544" lon="1.60253">
        <ele>1706</ele>
        <time>2020-01-05T10:21:18.000Z</time>
      </trkpt>
      <trkpt lat="42.7544" lon="1.60254">
        <ele>1706</ele>
        <time>2020-01-05T10:21:20.000Z</time>
      </trkpt>
      <trkpt lat="42.75439" lon="1.60255">
        <ele>1706</ele>
        <time>2020-01-05T10:21:22.000Z</time>
      </trkpt>
      <trkpt lat="42.75439" lon="1.60256">
        <ele>1706</ele>
        <time>2020-01-05T10:21:24.000Z</time>
      </trkpt>
      <trkpt lat="42.75439" lon="1.60258">
        <ele>1707</ele>
        <time>2020-01-05T10:21:26.000Z</time>
      </trkpt>
      <trkpt lat="42.75439" lon="1.60259">
        <ele>1707</ele>
        <time>2020-01-05T10:21:28.000Z</time>
      </trkpt>
      <trkpt lat="42.75438" lon="1.60261">
        <ele>1708</ele>
        <time>2020-01-05T10:21:30.000Z</time>
      </trkpt>
      <trkpt lat="42.75438" lon="1.60262">
        <ele>1708</ele>
        <time>2020-01-05T10:21:32.000Z</time>
      </trkpt>
      <trkpt lat="42.75437" lon="1.60263">
        <ele>1709</ele>
        <time>2020-01-05T10:21:34.000Z</time>
      </trkpt>
      <trkpt lat="42.75437" lon="1.60265">
        <ele>1709</ele>
        <time>2020-01-05T10:21:36.000Z</time>
      </trkpt>
      <trkpt lat="42.75437" lon="1.60266">
        <ele>1709</ele>
        <time>2020-01-05T10:21:38.000Z</time>
      </trkpt>
      <trkpt lat="42.75436" lon="1.60267">
        <ele>1710</ele>
        <time>2020-01-05T10:21:40.000Z</time>
      </trkpt>
      <trkpt lat="42.75436" lon="1.60267">
        <ele>1710</ele>
        <time>2020-01-05T10:21:42.000Z</time>
      </trkpt>
      <trkpt lat="42.75435" lon="1.60268">
        <ele>1710</ele>
        <time>2020-01-05T10:21:44.000Z</time>
      </trkpt>
      <trkpt lat="42.75435" lon="1.60269">
        <ele>1710</ele>
        <time>2020-01-05T10:21:46.000Z</time>
      </trkpt>
      <trkpt lat="42.75434" lon="1.60271">
        <ele>1711</ele>
        <time>2020-01-05T10:21:48.000Z</time>
      </trkpt>
      <trkpt lat="42.75434" lon="1.60272">
        <ele>1711</ele>
        <time>2020-01-05T10:21:50.000Z</time>
      </trkpt>
      <trkpt lat="42.75434" lon="1.60273">
        <ele>1712</ele>
        <time>2020-01-05T10:21:52.000Z</time>
      </trkpt>
      <trkpt lat="42.75434" lon="1.60275">
        <ele>1712</ele>
        <time>2020-01-05T10:21:54.000Z</time>
      </trkpt>
      <trkpt lat="42.75434" lon="1.60276">
        <ele>1712</ele>
        <time>2020-01-05T10:21:56.000Z</time>
      </trkpt>
      <trkpt lat="42.75433" lon="1.60277">
        <ele>1713</ele>
        <time>2020-01-05T10:21:58.000Z</time>
      </trkpt>
      <trkpt lat="42.75432" lon="1.60278">
        <ele>1713</ele>
        <time>2020-01-05T10:22:00.000Z</time>
      </trkpt>
      <trkpt lat="42.75432" lon="1.6028">
        <ele>1713</ele>
        <time>2020-01-05T10:22:02.000Z</time>
      </trkpt>
      <trkpt lat="42.75432" lon="1.60281">
        <ele>1714</ele>
        <time>2020-01-05T10:22:04.000Z</time>
      </trkpt>
      <trkpt lat="42.75432" lon="1.60282">
        <ele>1714</ele>
        <time>2020-01-05T10:22:06.000Z</time>
      </trkpt>
      <trkpt lat="42.75431" lon="1.60283">
        <ele>1714</ele>
        <time>2020-01-05T10:22:08.000Z</time>
      </trkpt>
      <trkpt lat="42.75431" lon="1.60284">
        <ele>1715</ele>
        <time>2020-01-05T10:22:10.000Z</time>
      </trkpt>
      <trkpt lat="42.7543" lon="1.60285">
        <ele>1715</ele>
        <time>2020-01-05T10:22:12.000Z</time>
      </trkpt>
      <trkpt lat="42.7543" lon="1.60286">
        <ele>1715</ele>
        <time>2020-01-05T10:22:14.000Z</time>
      </trkpt>
      <trkpt lat="42.7543" lon="1.60287">
        <ele>1716</ele>
        <time>2020-01-05T10:22:16.000Z</time>
      </trkpt>
      <trkpt lat="42.75429" lon="1.60288">
        <ele>1716</ele>
        <time>2020-01-05T10:22:18.000Z</time>
      </trkpt>
      <trkpt lat="42.75429" lon="1.6029">
        <ele>1717</ele>
        <time>2020-01-05T10:22:20.000Z</time>
      </trkpt>
      <trkpt lat="42.75428" lon="1.60291">
        <ele>1717</ele>
        <time>2020-01-05T10:22:22.000Z</time>
      </trkpt>
      <trkpt lat="42.75428" lon="1.60293">
        <ele>1717</ele>
        <time>2020-01-05T10:22:24.000Z</time>
      </trkpt>
      <trkpt lat="42.75428" lon="1.60294">
        <ele>1718</ele>
        <time>2020-01-05T10:22:26.000Z</time>
      </trkpt>
      <trkpt lat="42.75428" lon="1.60295">
        <ele>1718</ele>
        <time>2020-01-05T10:22:28.000Z</time>
      </trkpt>
      <trkpt lat="42.75427" lon="1.60296">
        <ele>1718</ele>
        <time>2020-01-05T10:22:30.000Z</time>
      </trkpt>
      <trkpt lat="42.75427" lon="1.60297">
        <ele>1719</ele>
        <time>2020-01-05T10:22:32.000Z</time>
      </trkpt>
      <trkpt lat="42.75427" lon="1.60299">
        <ele>1719</ele>
        <time>2020-01-05T10:22:34.000Z</time>
      </trkpt>
      <trkpt lat="42.75427" lon="1.603">
        <ele>1719</ele>
        <time>2020-01-05T10:22:36.000Z</time>
      </trkpt>
      <trkpt lat="42.75427" lon="1.60301">
        <ele>1720</ele>
        <time>2020-01-05T10:22:38.000Z</time>
      </trkpt>
      <trkpt lat="42.75427" lon="1.60303">
        <ele>1720</ele>
        <time>2020-01-05T10:22:40.000Z</time>
      </trkpt>
      <trkpt lat="42.75426" lon="1.60304">
        <ele>1720</ele>
        <time>2020-01-05T10:22:42.000Z</time>
      </trkpt>
      <trkpt lat="42.75426" lon="1.60305">
        <ele>1721</ele>
        <time>2020-01-05T10:22:44.000Z</time>
      </trkpt>
      <trkpt lat="42.75426" lon="1.60306">
        <ele>1721</ele>
        <time>2020-01-05T10:22:46.000Z</time>
      </trkpt>
      <trkpt lat="42.75425" lon="1.60307">
        <ele>1721</ele>
        <time>2020-01-05T10:22:48.000Z</time>
      </trkpt>
      <trkpt lat="42.75425" lon="1.60308">
        <ele>1722</ele>
        <time>2020-01-05T10:22:50.000Z</time>
      </trkpt>
      <trkpt lat="42.75425" lon="1.60309">
        <ele>1722</ele>
        <time>2020-01-05T10:22:52.000Z</time>
      </trkpt>
      <trkpt lat="42.75424" lon="1.60311">
        <ele>1723</ele>
        <time>2020-01-05T10:22:54.000Z</time>
      </trkpt>
      <trkpt lat="42.75423" lon="1.60312">
        <ele>1723</ele>
        <time>2020-01-05T10:22:56.000Z</time>
      </trkpt>
      <trkpt lat="42.75423" lon="1.60314">
        <ele>1723</ele>
        <time>2020-01-05T10:22:58.000Z</time>
      </trkpt>
      <trkpt lat="42.75423" lon="1.60315">
        <ele>1724</ele>
        <time>2020-01-05T10:23:00.000Z</time>
      </trkpt>
      <trkpt lat="42.75422" lon="1.60316">
        <ele>1724</ele>
        <time>2020-01-05T10:23:02.000Z</time>
      </trkpt>
      <trkpt lat="42.75422" lon="1.60318">
        <ele>1725</ele>
        <time>2020-01-05T10:23:04.000Z</time>
      </trkpt>
      <trkpt lat="42.75422" lon="1.60319">
        <ele>1725</ele>
        <time>2020-01-05T10:23:06.000Z</time>
      </trkpt>
      <trkpt lat="42.75421" lon="1.6032">
        <ele>1725</ele>
        <time>2020-01-05T10:23:08.000Z</time>
      </trkpt>
      <trkpt lat="42.75421" lon="1.60321">
        <ele>1725</ele>
        <time>2020-01-05T10:23:10.000Z</time>
      </trkpt>
      <trkpt lat="42.75421" lon="1.60323">
        <ele>1726</ele>
        <time>2020-01-05T10:23:12.000Z</time>
      </trkpt>
      <trkpt lat="42.75421" lon="1.60324">
        <ele>1726</ele>
        <time>2020-01-05T10:23:14.000Z</time>
      </trkpt>
      <trkpt lat="42.7542" lon="1.60325">
        <ele>1726</ele>
        <time>2020-01-05T10:23:16.000Z</time>
      </trkpt>
      <trkpt lat="42.7542" lon="1.60326">
        <ele>1726</ele>
        <time>2020-01-05T10:23:18.000Z</time>
      </trkpt>
      <trkpt lat="42.7542" lon="1.60327">
        <ele>1726</ele>
        <time>2020-01-05T10:23:20.000Z</time>
      </trkpt>
      <trkpt lat="42.75419" lon="1.60328">
        <ele>1726</ele>
        <time>2020-01-05T10:23:22.000Z</time>
      </trkpt>
      <trkpt lat="42.75418" lon="1.60329">
        <ele>1726</ele>
        <time>2020-01-05T10:23:24.000Z</time>
      </trkpt>
      <trkpt lat="42.75417" lon="1.60331">
        <ele>1726</ele>
        <time>2020-01-05T10:23:26.000Z</time>
      </trkpt>
      <trkpt lat="42.75417" lon="1.60331">
        <ele>1726</ele>
        <time>2020-01-05T10:23:28.000Z</time>
      </trkpt>
      <trkpt lat="42.75416" lon="1.60331">
        <ele>1726</ele>
        <time>2020-01-05T10:23:30.000Z</time>
      </trkpt>
      <trkpt lat="42.75416" lon="1.60331">
        <ele>1726</ele>
        <time>2020-01-05T10:23:32.000Z</time>
      </trkpt>
      <trkpt lat="42.75416" lon="1.60331">
        <ele>1726</ele>
        <time>2020-01-05T10:23:34.000Z</time>
      </trkpt>
      <trkpt lat="42.75416" lon="1.60331">
        <ele>1726</ele>
        <time>2020-01-05T10:23:36.000Z</time>
      </trkpt>
      <trkpt lat="42.75416" lon="1.60331">
        <ele>1726</ele>
        <time>2020-01-05T10:23:38.000Z</time>
      </trkpt>
      <trkpt lat="42.75416" lon="1.60332">
        <ele>1726</ele>
        <time>2020-01-05T10:23:40.000Z</time>
      </trkpt>
      <trkpt lat="42.75415" lon="1.60333">
        <ele>1726</ele>
        <time>2020-01-05T10:23:42.000Z</time>
      </trkpt>
      <trkpt lat="42.75415" lon="1.60335">
        <ele>1727</ele>
        <time>2020-01-05T10:23:44.000Z</time>
      </trkpt>
      <trkpt lat="42.75414" lon="1.60336">
        <ele>1727</ele>
        <time>2020-01-05T10:23:46.000Z</time>
      </trkpt>
      <trkpt lat="42.75414" lon="1.60337">
        <ele>1727</ele>
        <time>2020-01-05T10:23:48.000Z</time>
      </trkpt>
      <trkpt lat="42.75414" lon="1.60339">
        <ele>1727</ele>
        <time>2020-01-05T10:23:50.000Z</time>
      </trkpt>
      <trkpt lat="42.75414" lon="1.6034">
        <ele>1727</ele>
        <time>2020-01-05T10:23:52.000Z</time>
      </trkpt>
      <trkpt lat="42.75413" lon="1.60342">
        <ele>1728</ele>
        <time>2020-01-05T10:23:54.000Z</time>
      </trkpt>
      <trkpt lat="42.75413" lon="1.60344">
        <ele>1728</ele>
        <time>2020-01-05T10:23:56.000Z</time>
      </trkpt>
      <trkpt lat="42.75413" lon="1.60345">
        <ele>1728</ele>
        <time>2020-01-05T10:23:58.000Z</time>
      </trkpt>
      <trkpt lat="42.75413" lon="1.60347">
        <ele>1728</ele>
        <time>2020-01-05T10:24:00.000Z</time>
      </trkpt>
      <trkpt lat="42.75413" lon="1.60348">
        <ele>1728</ele>
        <time>2020-01-05T10:24:02.000Z</time>
      </trkpt>
      <trkpt lat="42.75413" lon="1.60349">
        <ele>1729</ele>
        <time>2020-01-05T10:24:04.000Z</time>
      </trkpt>
      <trkpt lat="42.75413" lon="1.60351">
        <ele>1729</ele>
        <time>2020-01-05T10:24:06.000Z</time>
      </trkpt>
      <trkpt lat="42.75413" lon="1.60353">
        <ele>1729</ele>
        <time>2020-01-05T10:24:08.000Z</time>
      </trkpt>
      <trkpt lat="42.75413" lon="1.60354">
        <ele>1730</ele>
        <time>2020-01-05T10:24:10.000Z</time>
      </trkpt>
      <trkpt lat="42.75412" lon="1.60356">
        <ele>1730</ele>
        <time>2020-01-05T10:24:12.000Z</time>
      </trkpt>
      <trkpt lat="42.75412" lon="1.60357">
        <ele>1730</ele>
        <time>2020-01-05T10:24:14.000Z</time>
      </trkpt>
      <trkpt lat="42.75411" lon="1.60358">
        <ele>1730</ele>
        <time>2020-01-05T10:24:16.000Z</time>
      </trkpt>
      <trkpt lat="42.75411" lon="1.6036">
        <ele>1730</ele>
        <time>2020-01-05T10:24:18.000Z</time>
      </trkpt>
      <trkpt lat="42.7541" lon="1.60361">
        <ele>1730</ele>
        <time>2020-01-05T10:24:20.000Z</time>
      </trkpt>
      <trkpt lat="42.7541" lon="1.60362">
        <ele>1730</ele>
        <time>2020-01-05T10:24:22.000Z</time>
      </trkpt>
      <trkpt lat="42.75409" lon="1.60364">
        <ele>1730</ele>
        <time>2020-01-05T10:24:24.000Z</time>
      </trkpt>
      <trkpt lat="42.75408" lon="1.60365">
        <ele>1731</ele>
        <time>2020-01-05T10:24:26.000Z</time>
      </trkpt>
      <trkpt lat="42.75408" lon="1.60367">
        <ele>1731</ele>
        <time>2020-01-05T10:24:28.000Z</time>
      </trkpt>
      <trkpt lat="42.75407" lon="1.60368">
        <ele>1731</ele>
        <time>2020-01-05T10:24:30.000Z</time>
      </trkpt>
      <trkpt lat="42.75407" lon="1.60369">
        <ele>1731</ele>
        <time>2020-01-05T10:24:32.000Z</time>
      </trkpt>
      <trkpt lat="42.75406" lon="1.60369">
        <ele>1731</ele>
        <time>2020-01-05T10:24:34.000Z</time>
      </trkpt>
      <trkpt lat="42.75406" lon="1.60371">
        <ele>1731</ele>
        <time>2020-01-05T10:24:36.000Z</time>
      </trkpt>
      <trkpt lat="42.75405" lon="1.60372">
        <ele>1731</ele>
        <time>2020-01-05T10:24:38.000Z</time>
      </trkpt>
      <trkpt lat="42.75405" lon="1.60373">
        <ele>1731</ele>
        <time>2020-01-05T10:24:40.000Z</time>
      </trkpt>
      <trkpt lat="42.75404" lon="1.60374">
        <ele>1731</ele>
        <time>2020-01-05T10:24:42.000Z</time>
      </trkpt>
      <trkpt lat="42.75403" lon="1.60375">
        <ele>1731</ele>
        <time>2020-01-05T10:24:44.000Z</time>
      </trkpt>
      <trkpt lat="42.75403" lon="1.60376">
        <ele>1731</ele>
        <time>2020-01-05T10:24:46.000Z</time>
      </trkpt>
      <trkpt lat="42.75402" lon="1.60378">
        <ele>1732</ele>
        <time>2020-01-05T10:24:48.000Z</time>
      </trkpt>
      <trkpt lat="42.75402" lon="1.60379">
        <ele>1732</ele>
        <time>2020-01-05T10:24:50.000Z</time>
      </trkpt>
      <trkpt lat="42.75401" lon="1.6038">
        <ele>1732</ele>
        <time>2020-01-05T10:24:52.000Z</time>
      </trkpt>
      <trkpt lat="42.75401" lon="1.60381">
        <ele>1732</ele>
        <time>2020-01-05T10:24:54.000Z</time>
      </trkpt>
      <trkpt lat="42.754" lon="1.60382">
        <ele>1732</ele>
        <time>2020-01-05T10:24:56.000Z</time>
      </trkpt>
      <trkpt lat="42.754" lon="1.60384">
        <ele>1732</ele>
        <time>2020-01-05T10:24:58.000Z</time>
      </trkpt>
      <trkpt lat="42.754" lon="1.60385">
        <ele>1733</ele>
        <time>2020-01-05T10:25:00.000Z</time>
      </trkpt>
      <trkpt lat="42.754" lon="1.60386">
        <ele>1733</ele>
        <time>2020-01-05T10:25:02.000Z</time>
      </trkpt>
      <trkpt lat="42.754" lon="1.60387">
        <ele>1733</ele>
        <time>2020-01-05T10:25:04.000Z</time>
      </trkpt>
      <trkpt lat="42.754" lon="1.60388">
        <ele>1734</ele>
        <time>2020-01-05T10:25:06.000Z</time>
      </trkpt>
      <trkpt lat="42.75399" lon="1.6039">
        <ele>1734</ele>
        <time>2020-01-05T10:25:08.000Z</time>
      </trkpt>
      <trkpt lat="42.75399" lon="1.60391">
        <ele>1734</ele>
        <time>2020-01-05T10:25:10.000Z</time>
      </trkpt>
      <trkpt lat="42.75399" lon="1.60392">
        <ele>1735</ele>
        <time>2020-01-05T10:25:12.000Z</time>
      </trkpt>
      <trkpt lat="42.75398" lon="1.60394">
        <ele>1735</ele>
        <time>2020-01-05T10:25:14.000Z</time>
      </trkpt>
      <trkpt lat="42.75398" lon="1.60395">
        <ele>1735</ele>
        <time>2020-01-05T10:25:16.000Z</time>
      </trkpt>
      <trkpt lat="42.75397" lon="1.60395">
        <ele>1735</ele>
        <time>2020-01-05T10:25:18.000Z</time>
      </trkpt>
      <trkpt lat="42.75397" lon="1.60397">
        <ele>1736</ele>
        <time>2020-01-05T10:25:20.000Z</time>
      </trkpt>
      <trkpt lat="42.75396" lon="1.60398">
        <ele>1736</ele>
        <time>2020-01-05T10:25:22.000Z</time>
      </trkpt>
      <trkpt lat="42.75395" lon="1.60398">
        <ele>1736</ele>
        <time>2020-01-05T10:25:24.000Z</time>
      </trkpt>
      <trkpt lat="42.75395" lon="1.60399">
        <ele>1736</ele>
        <time>2020-01-05T10:25:26.000Z</time>
      </trkpt>
      <trkpt lat="42.75394" lon="1.604">
        <ele>1736</ele>
        <time>2020-01-05T10:25:28.000Z</time>
      </trkpt>
      <trkpt lat="42.75394" lon="1.60402">
        <ele>1737</ele>
        <time>2020-01-05T10:25:30.000Z</time>
      </trkpt>
      <trkpt lat="42.75394" lon="1.60403">
        <ele>1737</ele>
        <time>2020-01-05T10:25:32.000Z</time>
      </trkpt>
      <trkpt lat="42.75393" lon="1.60404">
        <ele>1737</ele>
        <time>2020-01-05T10:25:34.000Z</time>
      </trkpt>
      <trkpt lat="42.75393" lon="1.60405">
        <ele>1737</ele>
        <time>2020-01-05T10:25:36.000Z</time>
      </trkpt>
      <trkpt lat="42.75393" lon="1.60406">
        <ele>1737</ele>
        <time>2020-01-05T10:25:38.000Z</time>
      </trkpt>
      <trkpt lat="42.75393" lon="1.60408">
        <ele>1737</ele>
        <time>2020-01-05T10:25:40.000Z</time>
      </trkpt>
      <trkpt lat="42.75393" lon="1.60409">
        <ele>1737</ele>
        <time>2020-01-05T10:25:42.000Z</time>
      </trkpt>
      <trkpt lat="42.75393" lon="1.6041">
        <ele>1737</ele>
        <time>2020-01-05T10:25:44.000Z</time>
      </trkpt>
      <trkpt lat="42.75393" lon="1.60411">
        <ele>1737</ele>
        <time>2020-01-05T10:25:46.000Z</time>
      </trkpt>
      <trkpt lat="42.75393" lon="1.60412">
        <ele>1737</ele>
        <time>2020-01-05T10:25:48.000Z</time>
      </trkpt>
      <trkpt lat="42.75392" lon="1.60413">
        <ele>1737</ele>
        <time>2020-01-05T10:25:50.000Z</time>
      </trkpt>
      <trkpt lat="42.75392" lon="1.60415">
        <ele>1737</ele>
        <time>2020-01-05T10:25:52.000Z</time>
      </trkpt>
      <trkpt lat="42.75391" lon="1.60416">
        <ele>1737</ele>
        <time>2020-01-05T10:25:54.000Z</time>
      </trkpt>
      <trkpt lat="42.75391" lon="1.60417">
        <ele>1737</ele>
        <time>2020-01-05T10:25:56.000Z</time>
      </trkpt>
      <trkpt lat="42.7539" lon="1.60419">
        <ele>1737</ele>
        <time>2020-01-05T10:25:58.000Z</time>
      </trkpt>
      <trkpt lat="42.7539" lon="1.6042">
        <ele>1737</ele>
        <time>2020-01-05T10:26:00.000Z</time>
      </trkpt>
      <trkpt lat="42.75389" lon="1.60421">
        <ele>1737</ele>
        <time>2020-01-05T10:26:02.000Z</time>
      </trkpt>
      <trkpt lat="42.75389" lon="1.60422">
        <ele>1737</ele>
        <time>2020-01-05T10:26:04.000Z</time>
      </trkpt>
      <trkpt lat="42.75388" lon="1.60423">
        <ele>1737</ele>
        <time>2020-01-05T10:26:06.000Z</time>
      </trkpt>
      <trkpt lat="42.75388" lon="1.60424">
        <ele>1737</ele>
        <time>2020-01-05T10:26:08.000Z</time>
      </trkpt>
      <trkpt lat="42.75388" lon="1.60425">
        <ele>1737</ele>
        <time>2020-01-05T10:26:10.000Z</time>
      </trkpt>
      <trkpt lat="42.75388" lon="1.60427">
        <ele>1737</ele>
        <time>2020-01-05T10:26:12.000Z</time>
      </trkpt>
      <trkpt lat="42.75387" lon="1.60428">
        <ele>1737</ele>
        <time>2020-01-05T10:26:14.000Z</time>
      </trkpt>
      <trkpt lat="42.75387" lon="1.6043">
        <ele>1737</ele>
        <time>2020-01-05T10:26:16.000Z</time>
      </trkpt>
      <trkpt lat="42.75387" lon="1.60431">
        <ele>1738</ele>
        <time>2020-01-05T10:26:18.000Z</time>
      </trkpt>
      <trkpt lat="42.75386" lon="1.60431">
        <ele>1738</ele>
        <time>2020-01-05T10:26:20.000Z</time>
      </trkpt>
      <trkpt lat="42.75386" lon="1.60433">
        <ele>1738</ele>
        <time>2020-01-05T10:26:22.000Z</time>
      </trkpt>
      <trkpt lat="42.75386" lon="1.60435">
        <ele>1738</ele>
        <time>2020-01-05T10:26:24.000Z</time>
      </trkpt>
      <trkpt lat="42.75386" lon="1.60436">
        <ele>1738</ele>
        <time>2020-01-05T10:26:26.000Z</time>
      </trkpt>
      <trkpt lat="42.75386" lon="1.60438">
        <ele>1738</ele>
        <time>2020-01-05T10:26:28.000Z</time>
      </trkpt>
      <trkpt lat="42.75386" lon="1.6044">
        <ele>1738</ele>
        <time>2020-01-05T10:26:30.000Z</time>
      </trkpt>
      <trkpt lat="42.75385" lon="1.60442">
        <ele>1738</ele>
        <time>2020-01-05T10:26:32.000Z</time>
      </trkpt>
      <trkpt lat="42.75385" lon="1.60444">
        <ele>1738</ele>
        <time>2020-01-05T10:26:34.000Z</time>
      </trkpt>
      <trkpt lat="42.75385" lon="1.60446">
        <ele>1738</ele>
        <time>2020-01-05T10:26:36.000Z</time>
      </trkpt>
      <trkpt lat="42.75385" lon="1.60448">
        <ele>1738</ele>
        <time>2020-01-05T10:26:38.000Z</time>
      </trkpt>
      <trkpt lat="42.75385" lon="1.6045">
        <ele>1739</ele>
        <time>2020-01-05T10:26:40.000Z</time>
      </trkpt>
      <trkpt lat="42.75384" lon="1.60452">
        <ele>1739</ele>
        <time>2020-01-05T10:26:42.000Z</time>
      </trkpt>
      <trkpt lat="42.75384" lon="1.60454">
        <ele>1740</ele>
        <time>2020-01-05T10:26:44.000Z</time>
      </trkpt>
      <trkpt lat="42.75384" lon="1.60456">
        <ele>1740</ele>
        <time>2020-01-05T10:26:46.000Z</time>
      </trkpt>
      <trkpt lat="42.75383" lon="1.60458">
        <ele>1741</ele>
        <time>2020-01-05T10:26:48.000Z</time>
      </trkpt>
      <trkpt lat="42.75383" lon="1.6046">
        <ele>1741</ele>
        <time>2020-01-05T10:26:50.000Z</time>
      </trkpt>
      <trkpt lat="42.75382" lon="1.60461">
        <ele>1742</ele>
        <time>2020-01-05T10:26:52.000Z</time>
      </trkpt>
      <trkpt lat="42.75381" lon="1.60463">
        <ele>1742</ele>
        <time>2020-01-05T10:26:54.000Z</time>
      </trkpt>
      <trkpt lat="42.75381" lon="1.60465">
        <ele>1743</ele>
        <time>2020-01-05T10:26:56.000Z</time>
      </trkpt>
      <trkpt lat="42.7538" lon="1.60466">
        <ele>1743</ele>
        <time>2020-01-05T10:26:58.000Z</time>
      </trkpt>
      <trkpt lat="42.7538" lon="1.60468">
        <ele>1744</ele>
        <time>2020-01-05T10:27:00.000Z</time>
      </trkpt>
      <trkpt lat="42.75379" lon="1.6047">
        <ele>1744</ele>
        <time>2020-01-05T10:27:02.000Z</time>
      </trkpt>
      <trkpt lat="42.75379" lon="1.60471">
        <ele>1745</ele>
        <time>2020-01-05T10:27:04.000Z</time>
      </trkpt>
      <trkpt lat="42.75378" lon="1.60473">
        <ele>1745</ele>
        <time>2020-01-05T10:27:06.000Z</time>
      </trkpt>
      <trkpt lat="42.75377" lon="1.60474">
        <ele>1745</ele>
        <time>2020-01-05T10:27:08.000Z</time>
      </trkpt>
      <trkpt lat="42.75377" lon="1.60475">
        <ele>1746</ele>
        <time>2020-01-05T10:27:10.000Z</time>
      </trkpt>
      <trkpt lat="42.75376" lon="1.60477">
        <ele>1746</ele>
        <time>2020-01-05T10:27:12.000Z</time>
      </trkpt>
      <trkpt lat="42.75375" lon="1.60478">
        <ele>1747</ele>
        <time>2020-01-05T10:27:14.000Z</time>
      </trkpt>
      <trkpt lat="42.75375" lon="1.6048">
        <ele>1747</ele>
        <time>2020-01-05T10:27:16.000Z</time>
      </trkpt>
      <trkpt lat="42.75374" lon="1.60482">
        <ele>1748</ele>
        <time>2020-01-05T10:27:18.000Z</time>
      </trkpt>
      <trkpt lat="42.75374" lon="1.60484">
        <ele>1748</ele>
        <time>2020-01-05T10:27:20.000Z</time>
      </trkpt>
      <trkpt lat="42.75373" lon="1.60486">
        <ele>1749</ele>
        <time>2020-01-05T10:27:22.000Z</time>
      </trkpt>
      <trkpt lat="42.75373" lon="1.60487">
        <ele>1749</ele>
        <time>2020-01-05T10:27:24.000Z</time>
      </trkpt>
      <trkpt lat="42.75372" lon="1.60488">
        <ele>1749</ele>
        <time>2020-01-05T10:27:26.000Z</time>
      </trkpt>
      <trkpt lat="42.75372" lon="1.6049">
        <ele>1749</ele>
        <time>2020-01-05T10:27:28.000Z</time>
      </trkpt>
      <trkpt lat="42.75371" lon="1.60491">
        <ele>1749</ele>
        <time>2020-01-05T10:27:30.000Z</time>
      </trkpt>
      <trkpt lat="42.7537" lon="1.60492">
        <ele>1749</ele>
        <time>2020-01-05T10:27:32.000Z</time>
      </trkpt>
      <trkpt lat="42.7537" lon="1.60494">
        <ele>1749</ele>
        <time>2020-01-05T10:27:34.000Z</time>
      </trkpt>
      <trkpt lat="42.75369" lon="1.60495">
        <ele>1749</ele>
        <time>2020-01-05T10:27:36.000Z</time>
      </trkpt>
      <trkpt lat="42.75368" lon="1.60496">
        <ele>1749</ele>
        <time>2020-01-05T10:27:38.000Z</time>
      </trkpt>
      <trkpt lat="42.75367" lon="1.60497">
        <ele>1749</ele>
        <time>2020-01-05T10:27:40.000Z</time>
      </trkpt>
      <trkpt lat="42.75367" lon="1.60499">
        <ele>1749</ele>
        <time>2020-01-05T10:27:42.000Z</time>
      </trkpt>
      <trkpt lat="42.75367" lon="1.605">
        <ele>1749</ele>
        <time>2020-01-05T10:27:44.000Z</time>
      </trkpt>
      <trkpt lat="42.75366" lon="1.60501">
        <ele>1750</ele>
        <time>2020-01-05T10:27:46.000Z</time>
      </trkpt>
      <trkpt lat="42.75366" lon="1.60503">
        <ele>1750</ele>
        <time>2020-01-05T10:27:48.000Z</time>
      </trkpt>
      <trkpt lat="42.75366" lon="1.60504">
        <ele>1750</ele>
        <time>2020-01-05T10:27:50.000Z</time>
      </trkpt>
      <trkpt lat="42.75365" lon="1.60506">
        <ele>1750</ele>
        <time>2020-01-05T10:27:52.000Z</time>
      </trkpt>
      <trkpt lat="42.75365" lon="1.60507">
        <ele>1750</ele>
        <time>2020-01-05T10:27:54.000Z</time>
      </trkpt>
      <trkpt lat="42.75364" lon="1.60508">
        <ele>1750</ele>
        <time>2020-01-05T10:27:56.000Z</time>
      </trkpt>
      <trkpt lat="42.75364" lon="1.60509">
        <ele>1750</ele>
        <time>2020-01-05T10:27:58.000Z</time>
      </trkpt>
      <trkpt lat="42.75363" lon="1.6051">
        <ele>1750</ele>
        <time>2020-01-05T10:28:00.000Z</time>
      </trkpt>
      <trkpt lat="42.75363" lon="1.60512">
        <ele>1750</ele>
        <time>2020-01-05T10:28:02.000Z</time>
      </trkpt>
      <trkpt lat="42.75362" lon="1.60513">
        <ele>1751</ele>
        <time>2020-01-05T10:28:04.000Z</time>
      </trkpt>
      <trkpt lat="42.75361" lon="1.60514">
        <ele>1751</ele>
        <time>2020-01-05T10:28:06.000Z</time>
      </trkpt>
      <trkpt lat="42.75361" lon="1.60515">
        <ele>1752</ele>
        <time>2020-01-05T10:28:08.000Z</time>
      </trkpt>
      <trkpt lat="42.7536" lon="1.60516">
        <ele>1753</ele>
        <time>2020-01-05T10:28:10.000Z</time>
      </trkpt>
      <trkpt lat="42.75359" lon="1.60518">
        <ele>1753</ele>
        <time>2020-01-05T10:28:12.000Z</time>
      </trkpt>
      <trkpt lat="42.75358" lon="1.60519">
        <ele>1754</ele>
        <time>2020-01-05T10:28:14.000Z</time>
      </trkpt>
      <trkpt lat="42.75358" lon="1.6052">
        <ele>1754</ele>
        <time>2020-01-05T10:28:16.000Z</time>
      </trkpt>
      <trkpt lat="42.75357" lon="1.6052">
        <ele>1755</ele>
        <time>2020-01-05T10:28:18.000Z</time>
      </trkpt>
      <trkpt lat="42.75356" lon="1.6052">
        <ele>1755</ele>
        <time>2020-01-05T10:28:20.000Z</time>
      </trkpt>
      <trkpt lat="42.75356" lon="1.60519">
        <ele>1755</ele>
        <time>2020-01-05T10:28:22.000Z</time>
      </trkpt>
      <trkpt lat="42.75355" lon="1.60519">
        <ele>1755</ele>
        <time>2020-01-05T10:28:24.000Z</time>
      </trkpt>
      <trkpt lat="42.75355" lon="1.6052">
        <ele>1755</ele>
        <time>2020-01-05T10:28:26.000Z</time>
      </trkpt>
      <trkpt lat="42.75355" lon="1.6052">
        <ele>1755</ele>
        <time>2020-01-05T10:28:28.000Z</time>
      </trkpt>
      <trkpt lat="42.75355" lon="1.6052">
        <ele>1756</ele>
        <time>2020-01-05T10:28:30.000Z</time>
      </trkpt>
      <trkpt lat="42.75355" lon="1.6052">
        <ele>1755</ele>
        <time>2020-01-05T10:28:32.000Z</time>
      </trkpt>
      <trkpt lat="42.75355" lon="1.6052">
        <ele>1756</ele>
        <time>2020-01-05T10:28:34.000Z</time>
      </trkpt>
      <trkpt lat="42.75355" lon="1.6052">
        <ele>1755</ele>
        <time>2020-01-05T10:28:36.000Z</time>
      </trkpt>
      <trkpt lat="42.75355" lon="1.6052">
        <ele>1755</ele>
        <time>2020-01-05T10:28:38.000Z</time>
      </trkpt>
      <trkpt lat="42.75355" lon="1.60519">
        <ele>1755</ele>
        <time>2020-01-05T10:28:40.000Z</time>
      </trkpt>
      <trkpt lat="42.75355" lon="1.60519">
        <ele>1755</ele>
        <time>2020-01-05T10:28:42.000Z</time>
      </trkpt>
      <trkpt lat="42.75355" lon="1.60519">
        <ele>1755</ele>
        <time>2020-01-05T10:28:44.000Z</time>
      </trkpt>
      <trkpt lat="42.75356" lon="1.6052">
        <ele>1755</ele>
        <time>2020-01-05T10:28:46.000Z</time>
      </trkpt>
      <trkpt lat="42.75356" lon="1.6052">
        <ele>1755</ele>
        <time>2020-01-05T10:28:48.000Z</time>
      </trkpt>
      <trkpt lat="42.75355" lon="1.6052">
        <ele>1755</ele>
        <time>2020-01-05T10:28:50.000Z</time>
      </trkpt>
      <trkpt lat="42.75355" lon="1.60519">
        <ele>1755</ele>
        <time>2020-01-05T10:28:52.000Z</time>
      </trkpt>
      <trkpt lat="42.75355" lon="1.6052">
        <ele>1755</ele>
        <time>2020-01-05T10:28:54.000Z</time>
      </trkpt>
      <trkpt lat="42.75355" lon="1.60519">
        <ele>1755</ele>
        <time>2020-01-05T10:28:56.000Z</time>
      </trkpt>
      <trkpt lat="42.75355" lon="1.60519">
        <ele>1755</ele>
        <time>2020-01-05T10:28:58.000Z</time>
      </trkpt>
      <trkpt lat="42.75355" lon="1.60519">
        <ele>1755</ele>
        <time>2020-01-05T10:29:00.000Z</time>
      </trkpt>
      <trkpt lat="42.75355" lon="1.60519">
        <ele>1755</ele>
        <time>2020-01-05T10:29:02.000Z</time>
      </trkpt>
      <trkpt lat="42.75356" lon="1.60519">
        <ele>1755</ele>
        <time>2020-01-05T10:29:04.000Z</time>
      </trkpt>
      <trkpt lat="42.75356" lon="1.60519">
        <ele>1755</ele>
        <time>2020-01-05T10:29:06.000Z</time>
      </trkpt>
      <trkpt lat="42.75356" lon="1.60519">
        <ele>1755</ele>
        <time>2020-01-05T10:29:08.000Z</time>
      </trkpt>
      <trkpt lat="42.75356" lon="1.60519">
        <ele>1755</ele>
        <time>2020-01-05T10:29:10.000Z</time>
      </trkpt>
      <trkpt lat="42.75356" lon="1.60519">
        <ele>1755</ele>
        <time>2020-01-05T10:29:12.000Z</time>
      </trkpt>
      <trkpt lat="42.75356" lon="1.60518">
        <ele>1755</ele>
        <time>2020-01-05T10:29:14.000Z</time>
      </trkpt>
      <trkpt lat="42.75356" lon="1.60518">
        <ele>1755</ele>
        <time>2020-01-05T10:29:16.000Z</time>
      </trkpt>
      <trkpt lat="42.75356" lon="1.60518">
        <ele>1755</ele>
        <time>2020-01-05T10:29:18.000Z</time>
      </trkpt>
      <trkpt lat="42.75356" lon="1.60518">
        <ele>1755</ele>
        <time>2020-01-05T10:29:20.000Z</time>
      </trkpt>
      <trkpt lat="42.75356" lon="1.60518">
        <ele>1755</ele>
        <time>2020-01-05T10:29:22.000Z</time>
      </trkpt>
      <trkpt lat="42.75356" lon="1.60518">
        <ele>1755</ele>
        <time>2020-01-05T10:29:24.000Z</time>
      </trkpt>
      <trkpt lat="42.75356" lon="1.60518">
        <ele>1755</ele>
        <time>2020-01-05T10:29:26.000Z</time>
      </trkpt>
      <trkpt lat="42.75356" lon="1.60518">
        <ele>1755</ele>
        <time>2020-01-05T10:29:28.000Z</time>
      </trkpt>
      <trkpt lat="42.75355" lon="1.60518">
        <ele>1755</ele>
        <time>2020-01-05T10:29:30.000Z</time>
      </trkpt>
      <trkpt lat="42.75356" lon="1.60518">
        <ele>1755</ele>
        <time>2020-01-05T10:29:32.000Z</time>
      </trkpt>
      <trkpt lat="42.75356" lon="1.60518">
        <ele>1755</ele>
        <time>2020-01-05T10:29:34.000Z</time>
      </trkpt>
      <trkpt lat="42.75356" lon="1.60518">
        <ele>1755</ele>
        <time>2020-01-05T10:29:36.000Z</time>
      </trkpt>
      <trkpt lat="42.75356" lon="1.60518">
        <ele>1755</ele>
        <time>2020-01-05T10:29:38.000Z</time>
      </trkpt>
      <trkpt lat="42.75356" lon="1.60518">
        <ele>1755</ele>
        <time>2020-01-05T10:29:40.000Z</time>
      </trkpt>
      <trkpt lat="42.75356" lon="1.60518">
        <ele>1755</ele>
        <time>2020-01-05T10:29:42.000Z</time>
      </trkpt>
      <trkpt lat="42.75356" lon="1.60518">
        <ele>1755</ele>
        <time>2020-01-05T10:29:44.000Z</time>
      </trkpt>
      <trkpt lat="42.75356" lon="1.60518">
        <ele>1755</ele>
        <time>2020-01-05T10:29:46.000Z</time>
      </trkpt>
      <trkpt lat="42.75356" lon="1.60518">
        <ele>1755</ele>
        <time>2020-01-05T10:29:48.000Z</time>
      </trkpt>
      <trkpt lat="42.75356" lon="1.60518">
        <ele>1755</ele>
        <time>2020-01-05T10:29:50.000Z</time>
      </trkpt>
      <trkpt lat="42.75356" lon="1.60518">
        <ele>1755</ele>
        <time>2020-01-05T10:29:52.000Z</time>
      </trkpt>
      <trkpt lat="42.75356" lon="1.60518">
        <ele>1755</ele>
        <time>2020-01-05T10:29:54.000Z</time>
      </trkpt>
      <trkpt lat="42.75356" lon="1.60518">
        <ele>1755</ele>
        <time>2020-01-05T10:29:56.000Z</time>
      </trkpt>
      <trkpt lat="42.75356" lon="1.60518">
        <ele>1755</ele>
        <time>2020-01-05T10:29:58.000Z</time>
      </trkpt>
      <trkpt lat="42.75356" lon="1.60518">
        <ele>1755</ele>
        <time>2020-01-05T10:30:00.000Z</time>
      </trkpt>
      <trkpt lat="42.75356" lon="1.60518">
        <ele>1755</ele>
        <time>2020-01-05T10:30:02.000Z</time>
      </trkpt>
      <trkpt lat="42.75356" lon="1.60518">
        <ele>1755</ele>
        <time>2020-01-05T10:30:04.000Z</time>
      </trkpt>
      <trkpt lat="42.75356" lon="1.60518">
        <ele>1755</ele>
        <time>2020-01-05T10:30:06.000Z</time>
      </trkpt>
      <trkpt lat="42.75356" lon="1.6052">
        <ele>1755</ele>
        <time>2020-01-05T10:30:08.000Z</time>
      </trkpt>
      <trkpt lat="42.75356" lon="1.60522">
        <ele>1756</ele>
        <time>2020-01-05T10:30:10.000Z</time>
      </trkpt>
      <trkpt lat="42.75355" lon="1.60523">
        <ele>1756</ele>
        <time>2020-01-05T10:30:12.000Z</time>
      </trkpt>
      <trkpt lat="42.75355" lon="1.60525">
        <ele>1757</ele>
        <time>2020-01-05T10:30:14.000Z</time>
      </trkpt>
      <trkpt lat="42.75355" lon="1.60526">
        <ele>1757</ele>
        <time>2020-01-05T10:30:16.000Z</time>
      </trkpt>
      <trkpt lat="42.75355" lon="1.60528">
        <ele>1758</ele>
        <time>2020-01-05T10:30:18.000Z</time>
      </trkpt>
      <trkpt lat="42.75354" lon="1.60529">
        <ele>1758</ele>
        <time>2020-01-05T10:30:20.000Z</time>
      </trkpt>
      <trkpt lat="42.75354" lon="1.60531">
        <ele>1759</ele>
        <time>2020-01-05T10:30:22.000Z</time>
      </trkpt>
      <trkpt lat="42.75354" lon="1.60532">
        <ele>1759</ele>
        <time>2020-01-05T10:30:24.000Z</time>
      </trkpt>
      <trkpt lat="42.75353" lon="1.60533">
        <ele>1760</ele>
        <time>2020-01-05T10:30:26.000Z</time>
      </trkpt>
      <trkpt lat="42.75353" lon="1.60534">
        <ele>1760</ele>
        <time>2020-01-05T10:30:28.000Z</time>
      </trkpt>
      <trkpt lat="42.75353" lon="1.60535">
        <ele>1761</ele>
        <time>2020-01-05T10:30:30.000Z</time>
      </trkpt>
      <trkpt lat="42.75352" lon="1.60537">
        <ele>1761</ele>
        <time>2020-01-05T10:30:32.000Z</time>
      </trkpt>
      <trkpt lat="42.75351" lon="1.60538">
        <ele>1762</ele>
        <time>2020-01-05T10:30:34.000Z</time>
      </trkpt>
      <trkpt lat="42.7535" lon="1.60539">
        <ele>1762</ele>
        <time>2020-01-05T10:30:36.000Z</time>
      </trkpt>
      <trkpt lat="42.7535" lon="1.6054">
        <ele>1763</ele>
        <time>2020-01-05T10:30:38.000Z</time>
      </trkpt>
      <trkpt lat="42.75349" lon="1.60541">
        <ele>1763</ele>
        <time>2020-01-05T10:30:40.000Z</time>
      </trkpt>
      <trkpt lat="42.75349" lon="1.60543">
        <ele>1764</ele>
        <time>2020-01-05T10:30:42.000Z</time>
      </trkpt>
      <trkpt lat="42.75348" lon="1.60543">
        <ele>1764</ele>
        <time>2020-01-05T10:30:44.000Z</time>
      </trkpt>
      <trkpt lat="42.75348" lon="1.60544">
        <ele>1764</ele>
        <time>2020-01-05T10:30:46.000Z</time>
      </trkpt>
      <trkpt lat="42.75349" lon="1.60545">
        <ele>1765</ele>
        <time>2020-01-05T10:30:48.000Z</time>
      </trkpt>
      <trkpt lat="42.75349" lon="1.60547">
        <ele>1765</ele>
        <time>2020-01-05T10:30:50.000Z</time>
      </trkpt>
      <trkpt lat="42.75348" lon="1.60547">
        <ele>1765</ele>
        <time>2020-01-05T10:30:52.000Z</time>
      </trkpt>
      <trkpt lat="42.75349" lon="1.60548">
        <ele>1765</ele>
        <time>2020-01-05T10:30:54.000Z</time>
      </trkpt>
      <trkpt lat="42.75349" lon="1.60549">
        <ele>1765</ele>
        <time>2020-01-05T10:30:56.000Z</time>
      </trkpt>
      <trkpt lat="42.75348" lon="1.6055">
        <ele>1766</ele>
        <time>2020-01-05T10:30:58.000Z</time>
      </trkpt>
      <trkpt lat="42.75347" lon="1.60551">
        <ele>1767</ele>
        <time>2020-01-05T10:31:00.000Z</time>
      </trkpt>
      <trkpt lat="42.75347" lon="1.60552">
        <ele>1767</ele>
        <time>2020-01-05T10:31:02.000Z</time>
      </trkpt>
      <trkpt lat="42.75346" lon="1.60552">
        <ele>1768</ele>
        <time>2020-01-05T10:31:04.000Z</time>
      </trkpt>
      <trkpt lat="42.75346" lon="1.60553">
        <ele>1768</ele>
        <time>2020-01-05T10:31:06.000Z</time>
      </trkpt>
      <trkpt lat="42.75345" lon="1.60554">
        <ele>1768</ele>
        <time>2020-01-05T10:31:08.000Z</time>
      </trkpt>
      <trkpt lat="42.75345" lon="1.60555">
        <ele>1769</ele>
        <time>2020-01-05T10:31:10.000Z</time>
      </trkpt>
      <trkpt lat="42.75345" lon="1.60556">
        <ele>1769</ele>
        <time>2020-01-05T10:31:12.000Z</time>
      </trkpt>
      <trkpt lat="42.75345" lon="1.60556">
        <ele>1769</ele>
        <time>2020-01-05T10:31:14.000Z</time>
      </trkpt>
      <trkpt lat="42.75344" lon="1.60556">
        <ele>1769</ele>
        <time>2020-01-05T10:31:16.000Z</time>
      </trkpt>
      <trkpt lat="42.75344" lon="1.60557">
        <ele>1770</ele>
        <time>2020-01-05T10:31:18.000Z</time>
      </trkpt>
      <trkpt lat="42.75344" lon="1.60558">
        <ele>1770</ele>
        <time>2020-01-05T10:31:20.000Z</time>
      </trkpt>
      <trkpt lat="42.75343" lon="1.6056">
        <ele>1771</ele>
        <time>2020-01-05T10:31:22.000Z</time>
      </trkpt>
      <trkpt lat="42.75343" lon="1.60561">
        <ele>1771</ele>
        <time>2020-01-05T10:31:24.000Z</time>
      </trkpt>
      <trkpt lat="42.75342" lon="1.60562">
        <ele>1772</ele>
        <time>2020-01-05T10:31:26.000Z</time>
      </trkpt>
      <trkpt lat="42.75342" lon="1.60563">
        <ele>1772</ele>
        <time>2020-01-05T10:31:28.000Z</time>
      </trkpt>
      <trkpt lat="42.75341" lon="1.60564">
        <ele>1772</ele>
        <time>2020-01-05T10:31:30.000Z</time>
      </trkpt>
      <trkpt lat="42.75341" lon="1.60564">
        <ele>1773</ele>
        <time>2020-01-05T10:31:32.000Z</time>
      </trkpt>
      <trkpt lat="42.7534" lon="1.60565">
        <ele>1773</ele>
        <time>2020-01-05T10:31:34.000Z</time>
      </trkpt>
      <trkpt lat="42.7534" lon="1.60566">
        <ele>1774</ele>
        <time>2020-01-05T10:31:36.000Z</time>
      </trkpt>
      <trkpt lat="42.75339" lon="1.60567">
        <ele>1774</ele>
        <time>2020-01-05T10:31:38.000Z</time>
      </trkpt>
      <trkpt lat="42.75338" lon="1.60568">
        <ele>1774</ele>
        <time>2020-01-05T10:31:40.000Z</time>
      </trkpt>
      <trkpt lat="42.75337" lon="1.60569">
        <ele>1775</ele>
        <time>2020-01-05T10:31:42.000Z</time>
      </trkpt>
      <trkpt lat="42.75337" lon="1.60569">
        <ele>1775</ele>
        <time>2020-01-05T10:31:44.000Z</time>
      </trkpt>
      <trkpt lat="42.75336" lon="1.6057">
        <ele>1775</ele>
        <time>2020-01-05T10:31:46.000Z</time>
      </trkpt>
      <trkpt lat="42.75336" lon="1.60571">
        <ele>1775</ele>
        <time>2020-01-05T10:31:48.000Z</time>
      </trkpt>
      <trkpt lat="42.75336" lon="1.60572">
        <ele>1775</ele>
        <time>2020-01-05T10:31:50.000Z</time>
      </trkpt>
      <trkpt lat="42.75336" lon="1.60573">
        <ele>1775</ele>
        <time>2020-01-05T10:31:52.000Z</time>
      </trkpt>
      <trkpt lat="42.75336" lon="1.60574">
        <ele>1776</ele>
        <time>2020-01-05T10:31:54.000Z</time>
      </trkpt>
      <trkpt lat="42.75335" lon="1.60575">
        <ele>1776</ele>
        <time>2020-01-05T10:31:56.000Z</time>
      </trkpt>
      <trkpt lat="42.75335" lon="1.60575">
        <ele>1776</ele>
        <time>2020-01-05T10:31:58.000Z</time>
      </trkpt>
      <trkpt lat="42.75334" lon="1.60576">
        <ele>1776</ele>
        <time>2020-01-05T10:32:00.000Z</time>
      </trkpt>
      <trkpt lat="42.75334" lon="1.60577">
        <ele>1776</ele>
        <time>2020-01-05T10:32:02.000Z</time>
      </trkpt>
      <trkpt lat="42.75334" lon="1.60578">
        <ele>1776</ele>
        <time>2020-01-05T10:32:04.000Z</time>
      </trkpt>
      <trkpt lat="42.75334" lon="1.60579">
        <ele>1776</ele>
        <time>2020-01-05T10:32:06.000Z</time>
      </trkpt>
      <trkpt lat="42.75334" lon="1.6058">
        <ele>1776</ele>
        <time>2020-01-05T10:32:08.000Z</time>
      </trkpt>
      <trkpt lat="42.75333" lon="1.6058">
        <ele>1776</ele>
        <time>2020-01-05T10:32:10.000Z</time>
      </trkpt>
      <trkpt lat="42.75333" lon="1.60582">
        <ele>1777</ele>
        <time>2020-01-05T10:32:12.000Z</time>
      </trkpt>
      <trkpt lat="42.75332" lon="1.60582">
        <ele>1777</ele>
        <time>2020-01-05T10:32:14.000Z</time>
      </trkpt>
      <trkpt lat="42.75331" lon="1.60583">
        <ele>1777</ele>
        <time>2020-01-05T10:32:16.000Z</time>
      </trkpt>
      <trkpt lat="42.75331" lon="1.60584">
        <ele>1777</ele>
        <time>2020-01-05T10:32:18.000Z</time>
      </trkpt>
      <trkpt lat="42.7533" lon="1.60586">
        <ele>1777</ele>
        <time>2020-01-05T10:32:20.000Z</time>
      </trkpt>
      <trkpt lat="42.7533" lon="1.60587">
        <ele>1777</ele>
        <time>2020-01-05T10:32:22.000Z</time>
      </trkpt>
      <trkpt lat="42.7533" lon="1.60587">
        <ele>1777</ele>
        <time>2020-01-05T10:32:24.000Z</time>
      </trkpt>
      <trkpt lat="42.7533" lon="1.60588">
        <ele>1777</ele>
        <time>2020-01-05T10:32:26.000Z</time>
      </trkpt>
      <trkpt lat="42.75329" lon="1.6059">
        <ele>1778</ele>
        <time>2020-01-05T10:32:28.000Z</time>
      </trkpt>
      <trkpt lat="42.75329" lon="1.60591">
        <ele>1778</ele>
        <time>2020-01-05T10:32:30.000Z</time>
      </trkpt>
      <trkpt lat="42.75328" lon="1.60592">
        <ele>1778</ele>
        <time>2020-01-05T10:32:32.000Z</time>
      </trkpt>
      <trkpt lat="42.75328" lon="1.60592">
        <ele>1778</ele>
        <time>2020-01-05T10:32:34.000Z</time>
      </trkpt>
      <trkpt lat="42.75327" lon="1.60593">
        <ele>1778</ele>
        <time>2020-01-05T10:32:36.000Z</time>
      </trkpt>
      <trkpt lat="42.75327" lon="1.60594">
        <ele>1778</ele>
        <time>2020-01-05T10:32:38.000Z</time>
      </trkpt>
      <trkpt lat="42.75326" lon="1.60595">
        <ele>1778</ele>
        <time>2020-01-05T10:32:40.000Z</time>
      </trkpt>
      <trkpt lat="42.75326" lon="1.60596">
        <ele>1778</ele>
        <time>2020-01-05T10:32:42.000Z</time>
      </trkpt>
      <trkpt lat="42.75325" lon="1.60597">
        <ele>1778</ele>
        <time>2020-01-05T10:32:44.000Z</time>
      </trkpt>
      <trkpt lat="42.75324" lon="1.60598">
        <ele>1778</ele>
        <time>2020-01-05T10:32:46.000Z</time>
      </trkpt>
      <trkpt lat="42.75324" lon="1.60599">
        <ele>1779</ele>
        <time>2020-01-05T10:32:48.000Z</time>
      </trkpt>
      <trkpt lat="42.75323" lon="1.606">
        <ele>1779</ele>
        <time>2020-01-05T10:32:50.000Z</time>
      </trkpt>
      <trkpt lat="42.75322" lon="1.606">
        <ele>1779</ele>
        <time>2020-01-05T10:32:52.000Z</time>
      </trkpt>
      <trkpt lat="42.75322" lon="1.60602">
        <ele>1779</ele>
        <time>2020-01-05T10:32:54.000Z</time>
      </trkpt>
      <trkpt lat="42.75321" lon="1.60603">
        <ele>1779</ele>
        <time>2020-01-05T10:32:56.000Z</time>
      </trkpt>
      <trkpt lat="42.7532" lon="1.60604">
        <ele>1779</ele>
        <time>2020-01-05T10:32:58.000Z</time>
      </trkpt>
      <trkpt lat="42.7532" lon="1.60604">
        <ele>1779</ele>
        <time>2020-01-05T10:33:00.000Z</time>
      </trkpt>
      <trkpt lat="42.75319" lon="1.60606">
        <ele>1779</ele>
        <time>2020-01-05T10:33:02.000Z</time>
      </trkpt>
      <trkpt lat="42.75318" lon="1.60607">
        <ele>1779</ele>
        <time>2020-01-05T10:33:04.000Z</time>
      </trkpt>
      <trkpt lat="42.75317" lon="1.60607">
        <ele>1779</ele>
        <time>2020-01-05T10:33:06.000Z</time>
      </trkpt>
      <trkpt lat="42.75317" lon="1.60608">
        <ele>1779</ele>
        <time>2020-01-05T10:33:08.000Z</time>
      </trkpt>
      <trkpt lat="42.75316" lon="1.60608">
        <ele>1779</ele>
        <time>2020-01-05T10:33:10.000Z</time>
      </trkpt>
      <trkpt lat="42.75315" lon="1.60609">
        <ele>1780</ele>
        <time>2020-01-05T10:33:12.000Z</time>
      </trkpt>
      <trkpt lat="42.75314" lon="1.6061">
        <ele>1780</ele>
        <time>2020-01-05T10:33:14.000Z</time>
      </trkpt>
      <trkpt lat="42.75313" lon="1.60611">
        <ele>1780</ele>
        <time>2020-01-05T10:33:16.000Z</time>
      </trkpt>
      <trkpt lat="42.75313" lon="1.60612">
        <ele>1780</ele>
        <time>2020-01-05T10:33:18.000Z</time>
      </trkpt>
      <trkpt lat="42.75312" lon="1.60613">
        <ele>1780</ele>
        <time>2020-01-05T10:33:20.000Z</time>
      </trkpt>
      <trkpt lat="42.75312" lon="1.60614">
        <ele>1780</ele>
        <time>2020-01-05T10:33:22.000Z</time>
      </trkpt>
      <trkpt lat="42.75312" lon="1.60614">
        <ele>1780</ele>
        <time>2020-01-05T10:33:24.000Z</time>
      </trkpt>
      <trkpt lat="42.75311" lon="1.60615">
        <ele>1780</ele>
        <time>2020-01-05T10:33:26.000Z</time>
      </trkpt>
      <trkpt lat="42.75311" lon="1.60616">
        <ele>1780</ele>
        <time>2020-01-05T10:33:28.000Z</time>
      </trkpt>
      <trkpt lat="42.7531" lon="1.60617">
        <ele>1780</ele>
        <time>2020-01-05T10:33:30.000Z</time>
      </trkpt>
      <trkpt lat="42.7531" lon="1.60617">
        <ele>1780</ele>
        <time>2020-01-05T10:33:32.000Z</time>
      </trkpt>
      <trkpt lat="42.75309" lon="1.60618">
        <ele>1780</ele>
        <time>2020-01-05T10:33:34.000Z</time>
      </trkpt>
      <trkpt lat="42.75309" lon="1.60618">
        <ele>1780</ele>
        <time>2020-01-05T10:33:36.000Z</time>
      </trkpt>
      <trkpt lat="42.75308" lon="1.6062">
        <ele>1781</ele>
        <time>2020-01-05T10:33:38.000Z</time>
      </trkpt>
      <trkpt lat="42.75308" lon="1.60621">
        <ele>1781</ele>
        <time>2020-01-05T10:33:40.000Z</time>
      </trkpt>
      <trkpt lat="42.75308" lon="1.60622">
        <ele>1781</ele>
        <time>2020-01-05T10:33:42.000Z</time>
      </trkpt>
      <trkpt lat="42.75307" lon="1.60623">
        <ele>1781</ele>
        <time>2020-01-05T10:33:44.000Z</time>
      </trkpt>
      <trkpt lat="42.75306" lon="1.60624">
        <ele>1782</ele>
        <time>2020-01-05T10:33:46.000Z</time>
      </trkpt>
      <trkpt lat="42.75306" lon="1.60624">
        <ele>1782</ele>
        <time>2020-01-05T10:33:48.000Z</time>
      </trkpt>
      <trkpt lat="42.75306" lon="1.60625">
        <ele>1782</ele>
        <time>2020-01-05T10:33:50.000Z</time>
      </trkpt>
      <trkpt lat="42.75305" lon="1.60626">
        <ele>1783</ele>
        <time>2020-01-05T10:33:52.000Z</time>
      </trkpt>
      <trkpt lat="42.75305" lon="1.60626">
        <ele>1783</ele>
        <time>2020-01-05T10:33:54.000Z</time>
      </trkpt>
      <trkpt lat="42.75304" lon="1.60627">
        <ele>1783</ele>
        <time>2020-01-05T10:33:56.000Z</time>
      </trkpt>
      <trkpt lat="42.75303" lon="1.60628">
        <ele>1784</ele>
        <time>2020-01-05T10:33:58.000Z</time>
      </trkpt>
      <trkpt lat="42.75303" lon="1.60628">
        <ele>1784</ele>
        <time>2020-01-05T10:34:00.000Z</time>
      </trkpt>
      <trkpt lat="42.75303" lon="1.60629">
        <ele>1784</ele>
        <time>2020-01-05T10:34:02.000Z</time>
      </trkpt>
      <trkpt lat="42.75302" lon="1.6063">
        <ele>1785</ele>
        <time>2020-01-05T10:34:04.000Z</time>
      </trkpt>
      <trkpt lat="42.75302" lon="1.60631">
        <ele>1785</ele>
        <time>2020-01-05T10:34:06.000Z</time>
      </trkpt>
      <trkpt lat="42.75302" lon="1.60632">
        <ele>1785</ele>
        <time>2020-01-05T10:34:08.000Z</time>
      </trkpt>
      <trkpt lat="42.75301" lon="1.60632">
        <ele>1785</ele>
        <time>2020-01-05T10:34:10.000Z</time>
      </trkpt>
      <trkpt lat="42.75301" lon="1.60633">
        <ele>1786</ele>
        <time>2020-01-05T10:34:12.000Z</time>
      </trkpt>
      <trkpt lat="42.75302" lon="1.60633">
        <ele>1786</ele>
        <time>2020-01-05T10:34:14.000Z</time>
      </trkpt>
      <trkpt lat="42.75302" lon="1.60633">
        <ele>1786</ele>
        <time>2020-01-05T10:34:16.000Z</time>
      </trkpt>
      <trkpt lat="42.75302" lon="1.60633">
        <ele>1786</ele>
        <time>2020-01-05T10:34:18.000Z</time>
      </trkpt>
      <trkpt lat="42.75302" lon="1.60634">
        <ele>1786</ele>
        <time>2020-01-05T10:34:20.000Z</time>
      </trkpt>
      <trkpt lat="42.75301" lon="1.60635">
        <ele>1786</ele>
        <time>2020-01-05T10:34:22.000Z</time>
      </trkpt>
      <trkpt lat="42.75301" lon="1.60636">
        <ele>1787</ele>
        <time>2020-01-05T10:34:24.000Z</time>
      </trkpt>
      <trkpt lat="42.753" lon="1.60637">
        <ele>1787</ele>
        <time>2020-01-05T10:34:26.000Z</time>
      </trkpt>
      <trkpt lat="42.75299" lon="1.60638">
        <ele>1788</ele>
        <time>2020-01-05T10:34:28.000Z</time>
      </trkpt>
      <trkpt lat="42.75299" lon="1.60639">
        <ele>1788</ele>
        <time>2020-01-05T10:34:30.000Z</time>
      </trkpt>
      <trkpt lat="42.75299" lon="1.6064">
        <ele>1788</ele>
        <time>2020-01-05T10:34:32.000Z</time>
      </trkpt>
      <trkpt lat="42.75298" lon="1.60641">
        <ele>1789</ele>
        <time>2020-01-05T10:34:34.000Z</time>
      </trkpt>
      <trkpt lat="42.75298" lon="1.60641">
        <ele>1789</ele>
        <time>2020-01-05T10:34:36.000Z</time>
      </trkpt>
      <trkpt lat="42.75297" lon="1.60642">
        <ele>1790</ele>
        <time>2020-01-05T10:34:38.000Z</time>
      </trkpt>
      <trkpt lat="42.75297" lon="1.60643">
        <ele>1790</ele>
        <time>2020-01-05T10:34:40.000Z</time>
      </trkpt>
      <trkpt lat="42.75296" lon="1.60644">
        <ele>1790</ele>
        <time>2020-01-05T10:34:42.000Z</time>
      </trkpt>
      <trkpt lat="42.75295" lon="1.60646">
        <ele>1791</ele>
        <time>2020-01-05T10:34:44.000Z</time>
      </trkpt>
      <trkpt lat="42.75295" lon="1.60646">
        <ele>1791</ele>
        <time>2020-01-05T10:34:46.000Z</time>
      </trkpt>
      <trkpt lat="42.75295" lon="1.60647">
        <ele>1791</ele>
        <time>2020-01-05T10:34:48.000Z</time>
      </trkpt>
      <trkpt lat="42.75294" lon="1.60647">
        <ele>1792</ele>
        <time>2020-01-05T10:34:50.000Z</time>
      </trkpt>
      <trkpt lat="42.75293" lon="1.60648">
        <ele>1792</ele>
        <time>2020-01-05T10:34:52.000Z</time>
      </trkpt>
      <trkpt lat="42.75293" lon="1.60649">
        <ele>1792</ele>
        <time>2020-01-05T10:34:54.000Z</time>
      </trkpt>
      <trkpt lat="42.75293" lon="1.60649">
        <ele>1793</ele>
        <time>2020-01-05T10:34:56.000Z</time>
      </trkpt>
      <trkpt lat="42.75292" lon="1.60649">
        <ele>1793</ele>
        <time>2020-01-05T10:34:58.000Z</time>
      </trkpt>
      <trkpt lat="42.75292" lon="1.60649">
        <ele>1793</ele>
        <time>2020-01-05T10:35:00.000Z</time>
      </trkpt>
      <trkpt lat="42.75292" lon="1.60649">
        <ele>1792</ele>
        <time>2020-01-05T10:35:02.000Z</time>
      </trkpt>
      <trkpt lat="42.75292" lon="1.60649">
        <ele>1792</ele>
        <time>2020-01-05T10:35:04.000Z</time>
      </trkpt>
      <trkpt lat="42.75292" lon="1.60649">
        <ele>1793</ele>
        <time>2020-01-05T10:35:06.000Z</time>
      </trkpt>
      <trkpt lat="42.75291" lon="1.6065">
        <ele>1793</ele>
        <time>2020-01-05T10:35:08.000Z</time>
      </trkpt>
      <trkpt lat="42.7529" lon="1.60651">
        <ele>1794</ele>
        <time>2020-01-05T10:35:10.000Z</time>
      </trkpt>
      <trkpt lat="42.7529" lon="1.60653">
        <ele>1794</ele>
        <time>2020-01-05T10:35:12.000Z</time>
      </trkpt>
      <trkpt lat="42.75289" lon="1.60654">
        <ele>1794</ele>
        <time>2020-01-05T10:35:14.000Z</time>
      </trkpt>
      <trkpt lat="42.75289" lon="1.60654">
        <ele>1794</ele>
        <time>2020-01-05T10:35:16.000Z</time>
      </trkpt>
      <trkpt lat="42.75289" lon="1.60655">
        <ele>1794</ele>
        <time>2020-01-05T10:35:18.000Z</time>
      </trkpt>
      <trkpt lat="42.75289" lon="1.60656">
        <ele>1794</ele>
        <time>2020-01-05T10:35:20.000Z</time>
      </trkpt>
      <trkpt lat="42.75288" lon="1.60657">
        <ele>1794</ele>
        <time>2020-01-05T10:35:22.000Z</time>
      </trkpt>
      <trkpt lat="42.75288" lon="1.60659">
        <ele>1794</ele>
        <time>2020-01-05T10:35:24.000Z</time>
      </trkpt>
      <trkpt lat="42.75288" lon="1.6066">
        <ele>1794</ele>
        <time>2020-01-05T10:35:26.000Z</time>
      </trkpt>
      <trkpt lat="42.75287" lon="1.60661">
        <ele>1794</ele>
        <time>2020-01-05T10:35:28.000Z</time>
      </trkpt>
      <trkpt lat="42.75286" lon="1.60662">
        <ele>1794</ele>
        <time>2020-01-05T10:35:30.000Z</time>
      </trkpt>
      <trkpt lat="42.75285" lon="1.60662">
        <ele>1795</ele>
        <time>2020-01-05T10:35:32.000Z</time>
      </trkpt>
      <trkpt lat="42.75285" lon="1.60663">
        <ele>1795</ele>
        <time>2020-01-05T10:35:34.000Z</time>
      </trkpt>
      <trkpt lat="42.75284" lon="1.60663">
        <ele>1795</ele>
        <time>2020-01-05T10:35:36.000Z</time>
      </trkpt>
      <trkpt lat="42.75283" lon="1.60664">
        <ele>1795</ele>
        <time>2020-01-05T10:35:38.000Z</time>
      </trkpt>
      <trkpt lat="42.75283" lon="1.60665">
        <ele>1795</ele>
        <time>2020-01-05T10:35:40.000Z</time>
      </trkpt>
      <trkpt lat="42.75282" lon="1.60666">
        <ele>1795</ele>
        <time>2020-01-05T10:35:42.000Z</time>
      </trkpt>
      <trkpt lat="42.75282" lon="1.60667">
        <ele>1795</ele>
        <time>2020-01-05T10:35:44.000Z</time>
      </trkpt>
      <trkpt lat="42.75281" lon="1.60668">
        <ele>1795</ele>
        <time>2020-01-05T10:35:46.000Z</time>
      </trkpt>
      <trkpt lat="42.75281" lon="1.60669">
        <ele>1795</ele>
        <time>2020-01-05T10:35:48.000Z</time>
      </trkpt>
      <trkpt lat="42.75281" lon="1.6067">
        <ele>1795</ele>
        <time>2020-01-05T10:35:50.000Z</time>
      </trkpt>
      <trkpt lat="42.7528" lon="1.60671">
        <ele>1795</ele>
        <time>2020-01-05T10:35:52.000Z</time>
      </trkpt>
      <trkpt lat="42.7528" lon="1.60672">
        <ele>1795</ele>
        <time>2020-01-05T10:35:54.000Z</time>
      </trkpt>
      <trkpt lat="42.75279" lon="1.60673">
        <ele>1795</ele>
        <time>2020-01-05T10:35:56.000Z</time>
      </trkpt>
      <trkpt lat="42.75279" lon="1.60674">
        <ele>1795</ele>
        <time>2020-01-05T10:35:58.000Z</time>
      </trkpt>
      <trkpt lat="42.75279" lon="1.60675">
        <ele>1795</ele>
        <time>2020-01-05T10:36:00.000Z</time>
      </trkpt>
      <trkpt lat="42.75278" lon="1.60676">
        <ele>1796</ele>
        <time>2020-01-05T10:36:02.000Z</time>
      </trkpt>
      <trkpt lat="42.75278" lon="1.60676">
        <ele>1796</ele>
        <time>2020-01-05T10:36:04.000Z</time>
      </trkpt>
      <trkpt lat="42.75278" lon="1.60677">
        <ele>1796</ele>
        <time>2020-01-05T10:36:06.000Z</time>
      </trkpt>
      <trkpt lat="42.75278" lon="1.60678">
        <ele>1796</ele>
        <time>2020-01-05T10:36:08.000Z</time>
      </trkpt>
      <trkpt lat="42.75277" lon="1.60679">
        <ele>1796</ele>
        <time>2020-01-05T10:36:10.000Z</time>
      </trkpt>
      <trkpt lat="42.75277" lon="1.60679">
        <ele>1796</ele>
        <time>2020-01-05T10:36:12.000Z</time>
      </trkpt>
      <trkpt lat="42.75277" lon="1.6068">
        <ele>1797</ele>
        <time>2020-01-05T10:36:14.000Z</time>
      </trkpt>
      <trkpt lat="42.75276" lon="1.6068">
        <ele>1797</ele>
        <time>2020-01-05T10:36:16.000Z</time>
      </trkpt>
      <trkpt lat="42.75276" lon="1.6068">
        <ele>1797</ele>
        <time>2020-01-05T10:36:18.000Z</time>
      </trkpt>
      <trkpt lat="42.75275" lon="1.60681">
        <ele>1797</ele>
        <time>2020-01-05T10:36:20.000Z</time>
      </trkpt>
      <trkpt lat="42.75275" lon="1.60681">
        <ele>1798</ele>
        <time>2020-01-05T10:36:22.000Z</time>
      </trkpt>
      <trkpt lat="42.75274" lon="1.60682">
        <ele>1798</ele>
        <time>2020-01-05T10:36:24.000Z</time>
      </trkpt>
      <trkpt lat="42.75273" lon="1.60683">
        <ele>1798</ele>
        <time>2020-01-05T10:36:26.000Z</time>
      </trkpt>
      <trkpt lat="42.75272" lon="1.60683">
        <ele>1798</ele>
        <time>2020-01-05T10:36:28.000Z</time>
      </trkpt>
      <trkpt lat="42.75272" lon="1.60683">
        <ele>1799</ele>
        <time>2020-01-05T10:36:30.000Z</time>
      </trkpt>
      <trkpt lat="42.75271" lon="1.60683">
        <ele>1799</ele>
        <time>2020-01-05T10:36:32.000Z</time>
      </trkpt>
      <trkpt lat="42.75271" lon="1.60683">
        <ele>1799</ele>
        <time>2020-01-05T10:36:34.000Z</time>
      </trkpt>
      <trkpt lat="42.7527" lon="1.60684">
        <ele>1799</ele>
        <time>2020-01-05T10:36:36.000Z</time>
      </trkpt>
      <trkpt lat="42.75269" lon="1.60685">
        <ele>1800</ele>
        <time>2020-01-05T10:36:38.000Z</time>
      </trkpt>
      <trkpt lat="42.75269" lon="1.60685">
        <ele>1800</ele>
        <time>2020-01-05T10:36:40.000Z</time>
      </trkpt>
      <trkpt lat="42.75269" lon="1.60685">
        <ele>1800</ele>
        <time>2020-01-05T10:36:42.000Z</time>
      </trkpt>
      <trkpt lat="42.75268" lon="1.60686">
        <ele>1800</ele>
        <time>2020-01-05T10:36:44.000Z</time>
      </trkpt>
      <trkpt lat="42.75268" lon="1.60687">
        <ele>1800</ele>
        <time>2020-01-05T10:36:46.000Z</time>
      </trkpt>
      <trkpt lat="42.75268" lon="1.60687">
        <ele>1800</ele>
        <time>2020-01-05T10:36:48.000Z</time>
      </trkpt>
      <trkpt lat="42.75268" lon="1.60688">
        <ele>1801</ele>
        <time>2020-01-05T10:36:50.000Z</time>
      </trkpt>
      <trkpt lat="42.75267" lon="1.60688">
        <ele>1801</ele>
        <time>2020-01-05T10:36:52.000Z</time>
      </trkpt>
      <trkpt lat="42.75267" lon="1.60689">
        <ele>1801</ele>
        <time>2020-01-05T10:36:54.000Z</time>
      </trkpt>
      <trkpt lat="42.75267" lon="1.60689">
        <ele>1801</ele>
        <time>2020-01-05T10:36:56.000Z</time>
      </trkpt>
      <trkpt lat="42.75266" lon="1.6069">
        <ele>1801</ele>
        <time>2020-01-05T10:36:58.000Z</time>
      </trkpt>
      <trkpt lat="42.75266" lon="1.60691">
        <ele>1802</ele>
        <time>2020-01-05T10:37:00.000Z</time>
      </trkpt>
      <trkpt lat="42.75266" lon="1.60692">
        <ele>1802</ele>
        <time>2020-01-05T10:37:02.000Z</time>
      </trkpt>
      <trkpt lat="42.75265" lon="1.60692">
        <ele>1802</ele>
        <time>2020-01-05T10:37:04.000Z</time>
      </trkpt>
      <trkpt lat="42.75265" lon="1.60693">
        <ele>1802</ele>
        <time>2020-01-05T10:37:06.000Z</time>
      </trkpt>
      <trkpt lat="42.75265" lon="1.60695">
        <ele>1803</ele>
        <time>2020-01-05T10:37:08.000Z</time>
      </trkpt>
      <trkpt lat="42.75264" lon="1.60695">
        <ele>1803</ele>
        <time>2020-01-05T10:37:10.000Z</time>
      </trkpt>
      <trkpt lat="42.75264" lon="1.60696">
        <ele>1803</ele>
        <time>2020-01-05T10:37:12.000Z</time>
      </trkpt>
      <trkpt lat="42.75264" lon="1.60697">
        <ele>1803</ele>
        <time>2020-01-05T10:37:14.000Z</time>
      </trkpt>
      <trkpt lat="42.75264" lon="1.60698">
        <ele>1803</ele>
        <time>2020-01-05T10:37:16.000Z</time>
      </trkpt>
      <trkpt lat="42.75264" lon="1.60699">
        <ele>1804</ele>
        <time>2020-01-05T10:37:18.000Z</time>
      </trkpt>
      <trkpt lat="42.75263" lon="1.607">
        <ele>1804</ele>
        <time>2020-01-05T10:37:20.000Z</time>
      </trkpt>
      <trkpt lat="42.75263" lon="1.60701">
        <ele>1804</ele>
        <time>2020-01-05T10:37:22.000Z</time>
      </trkpt>
      <trkpt lat="42.75262" lon="1.60701">
        <ele>1804</ele>
        <time>2020-01-05T10:37:24.000Z</time>
      </trkpt>
      <trkpt lat="42.75262" lon="1.60702">
        <ele>1805</ele>
        <time>2020-01-05T10:37:26.000Z</time>
      </trkpt>
      <trkpt lat="42.75262" lon="1.60703">
        <ele>1805</ele>
        <time>2020-01-05T10:37:28.000Z</time>
      </trkpt>
      <trkpt lat="42.75261" lon="1.60704">
        <ele>1805</ele>
        <time>2020-01-05T10:37:30.000Z</time>
      </trkpt>
      <trkpt lat="42.75261" lon="1.60704">
        <ele>1805</ele>
        <time>2020-01-05T10:37:32.000Z</time>
      </trkpt>
      <trkpt lat="42.7526" lon="1.60705">
        <ele>1806</ele>
        <time>2020-01-05T10:37:34.000Z</time>
      </trkpt>
      <trkpt lat="42.7526" lon="1.60706">
        <ele>1806</ele>
        <time>2020-01-05T10:37:36.000Z</time>
      </trkpt>
      <trkpt lat="42.75259" lon="1.60706">
        <ele>1806</ele>
        <time>2020-01-05T10:37:38.000Z</time>
      </trkpt>
      <trkpt lat="42.75258" lon="1.60707">
        <ele>1806</ele>
        <time>2020-01-05T10:37:40.000Z</time>
      </trkpt>
      <trkpt lat="42.75258" lon="1.60707">
        <ele>1807</ele>
        <time>2020-01-05T10:37:42.000Z</time>
      </trkpt>
      <trkpt lat="42.75258" lon="1.60708">
        <ele>1807</ele>
        <time>2020-01-05T10:37:44.000Z</time>
      </trkpt>
      <trkpt lat="42.75258" lon="1.60709">
        <ele>1807</ele>
        <time>2020-01-05T10:37:46.000Z</time>
      </trkpt>
      <trkpt lat="42.75258" lon="1.6071">
        <ele>1807</ele>
        <time>2020-01-05T10:37:48.000Z</time>
      </trkpt>
      <trkpt lat="42.75257" lon="1.60711">
        <ele>1807</ele>
        <time>2020-01-05T10:37:50.000Z</time>
      </trkpt>
      <trkpt lat="42.75257" lon="1.60712">
        <ele>1808</ele>
        <time>2020-01-05T10:37:52.000Z</time>
      </trkpt>
      <trkpt lat="42.75256" lon="1.60713">
        <ele>1808</ele>
        <time>2020-01-05T10:37:54.000Z</time>
      </trkpt>
      <trkpt lat="42.75256" lon="1.60713">
        <ele>1808</ele>
        <time>2020-01-05T10:37:56.000Z</time>
      </trkpt>
      <trkpt lat="42.75255" lon="1.60714">
        <ele>1808</ele>
        <time>2020-01-05T10:37:58.000Z</time>
      </trkpt>
      <trkpt lat="42.75255" lon="1.60715">
        <ele>1809</ele>
        <time>2020-01-05T10:38:00.000Z</time>
      </trkpt>
      <trkpt lat="42.75255" lon="1.60716">
        <ele>1809</ele>
        <time>2020-01-05T10:38:02.000Z</time>
      </trkpt>
      <trkpt lat="42.75254" lon="1.60718">
        <ele>1809</ele>
        <time>2020-01-05T10:38:04.000Z</time>
      </trkpt>
      <trkpt lat="42.75254" lon="1.60718">
        <ele>1809</ele>
        <time>2020-01-05T10:38:06.000Z</time>
      </trkpt>
      <trkpt lat="42.75254" lon="1.60719">
        <ele>1809</ele>
        <time>2020-01-05T10:38:08.000Z</time>
      </trkpt>
      <trkpt lat="42.75253" lon="1.6072">
        <ele>1809</ele>
        <time>2020-01-05T10:38:10.000Z</time>
      </trkpt>
      <trkpt lat="42.75252" lon="1.60721">
        <ele>1809</ele>
        <time>2020-01-05T10:38:12.000Z</time>
      </trkpt>
      <trkpt lat="42.75251" lon="1.60722">
        <ele>1809</ele>
        <time>2020-01-05T10:38:14.000Z</time>
      </trkpt>
      <trkpt lat="42.75251" lon="1.60722">
        <ele>1810</ele>
        <time>2020-01-05T10:38:16.000Z</time>
      </trkpt>
      <trkpt lat="42.75251" lon="1.60723">
        <ele>1810</ele>
        <time>2020-01-05T10:38:18.000Z</time>
      </trkpt>
      <trkpt lat="42.75251" lon="1.60724">
        <ele>1810</ele>
        <time>2020-01-05T10:38:20.000Z</time>
      </trkpt>
      <trkpt lat="42.7525" lon="1.60725">
        <ele>1810</ele>
        <time>2020-01-05T10:38:22.000Z</time>
      </trkpt>
      <trkpt lat="42.7525" lon="1.60726">
        <ele>1810</ele>
        <time>2020-01-05T10:38:24.000Z</time>
      </trkpt>
      <trkpt lat="42.7525" lon="1.60727">
        <ele>1810</ele>
        <time>2020-01-05T10:38:26.000Z</time>
      </trkpt>
      <trkpt lat="42.75251" lon="1.60728">
        <ele>1810</ele>
        <time>2020-01-05T10:38:28.000Z</time>
      </trkpt>
      <trkpt lat="42.7525" lon="1.60729">
        <ele>1811</ele>
        <time>2020-01-05T10:38:30.000Z</time>
      </trkpt>
      <trkpt lat="42.7525" lon="1.6073">
        <ele>1811</ele>
        <time>2020-01-05T10:38:32.000Z</time>
      </trkpt>
      <trkpt lat="42.75249" lon="1.60731">
        <ele>1811</ele>
        <time>2020-01-05T10:38:34.000Z</time>
      </trkpt>
      <trkpt lat="42.75249" lon="1.60732">
        <ele>1811</ele>
        <time>2020-01-05T10:38:36.000Z</time>
      </trkpt>
      <trkpt lat="42.75249" lon="1.60733">
        <ele>1811</ele>
        <time>2020-01-05T10:38:38.000Z</time>
      </trkpt>
      <trkpt lat="42.75249" lon="1.60734">
        <ele>1812</ele>
        <time>2020-01-05T10:38:40.000Z</time>
      </trkpt>
      <trkpt lat="42.75248" lon="1.60735">
        <ele>1812</ele>
        <time>2020-01-05T10:38:42.000Z</time>
      </trkpt>
      <trkpt lat="42.75248" lon="1.60736">
        <ele>1812</ele>
        <time>2020-01-05T10:38:44.000Z</time>
      </trkpt>
      <trkpt lat="42.75247" lon="1.60737">
        <ele>1812</ele>
        <time>2020-01-05T10:38:46.000Z</time>
      </trkpt>
      <trkpt lat="42.75247" lon="1.60738">
        <ele>1813</ele>
        <time>2020-01-05T10:38:48.000Z</time>
      </trkpt>
      <trkpt lat="42.75246" lon="1.60739">
        <ele>1813</ele>
        <time>2020-01-05T10:38:50.000Z</time>
      </trkpt>
      <trkpt lat="42.75246" lon="1.60739">
        <ele>1813</ele>
        <time>2020-01-05T10:38:52.000Z</time>
      </trkpt>
      <trkpt lat="42.75245" lon="1.6074">
        <ele>1813</ele>
        <time>2020-01-05T10:38:54.000Z</time>
      </trkpt>
      <trkpt lat="42.75245" lon="1.60741">
        <ele>1813</ele>
        <time>2020-01-05T10:38:56.000Z</time>
      </trkpt>
      <trkpt lat="42.75245" lon="1.60741">
        <ele>1813</ele>
        <time>2020-01-05T10:38:58.000Z</time>
      </trkpt>
      <trkpt lat="42.75244" lon="1.60743">
        <ele>1813</ele>
        <time>2020-01-05T10:39:00.000Z</time>
      </trkpt>
      <trkpt lat="42.75244" lon="1.60743">
        <ele>1814</ele>
        <time>2020-01-05T10:39:02.000Z</time>
      </trkpt>
      <trkpt lat="42.75243" lon="1.60744">
        <ele>1814</ele>
        <time>2020-01-05T10:39:04.000Z</time>
      </trkpt>
      <trkpt lat="42.75242" lon="1.60745">
        <ele>1814</ele>
        <time>2020-01-05T10:39:06.000Z</time>
      </trkpt>
      <trkpt lat="42.75242" lon="1.60746">
        <ele>1814</ele>
        <time>2020-01-05T10:39:08.000Z</time>
      </trkpt>
      <trkpt lat="42.75241" lon="1.60747">
        <ele>1814</ele>
        <time>2020-01-05T10:39:10.000Z</time>
      </trkpt>
      <trkpt lat="42.75241" lon="1.60747">
        <ele>1814</ele>
        <time>2020-01-05T10:39:12.000Z</time>
      </trkpt>
      <trkpt lat="42.7524" lon="1.60748">
        <ele>1814</ele>
        <time>2020-01-05T10:39:14.000Z</time>
      </trkpt>
      <trkpt lat="42.75239" lon="1.60748">
        <ele>1814</ele>
        <time>2020-01-05T10:39:16.000Z</time>
      </trkpt>
      <trkpt lat="42.75239" lon="1.60749">
        <ele>1815</ele>
        <time>2020-01-05T10:39:18.000Z</time>
      </trkpt>
      <trkpt lat="42.75239" lon="1.6075">
        <ele>1815</ele>
        <time>2020-01-05T10:39:20.000Z</time>
      </trkpt>
      <trkpt lat="42.75238" lon="1.60751">
        <ele>1815</ele>
        <time>2020-01-05T10:39:22.000Z</time>
      </trkpt>
      <trkpt lat="42.75238" lon="1.60751">
        <ele>1815</ele>
        <time>2020-01-05T10:39:24.000Z</time>
      </trkpt>
      <trkpt lat="42.75238" lon="1.60751">
        <ele>1815</ele>
        <time>2020-01-05T10:39:26.000Z</time>
      </trkpt>
      <trkpt lat="42.75238" lon="1.60752">
        <ele>1815</ele>
        <time>2020-01-05T10:39:28.000Z</time>
      </trkpt>
      <trkpt lat="42.75238" lon="1.60751">
        <ele>1815</ele>
        <time>2020-01-05T10:39:30.000Z</time>
      </trkpt>
      <trkpt lat="42.75238" lon="1.60751">
        <ele>1815</ele>
        <time>2020-01-05T10:39:32.000Z</time>
      </trkpt>
      <trkpt lat="42.75239" lon="1.60751">
        <ele>1815</ele>
        <time>2020-01-05T10:39:34.000Z</time>
      </trkpt>
      <trkpt lat="42.75239" lon="1.6075">
        <ele>1815</ele>
        <time>2020-01-05T10:39:36.000Z</time>
      </trkpt>
      <trkpt lat="42.75239" lon="1.6075">
        <ele>1815</ele>
        <time>2020-01-05T10:39:38.000Z</time>
      </trkpt>
      <trkpt lat="42.75239" lon="1.6075">
        <ele>1815</ele>
        <time>2020-01-05T10:39:40.000Z</time>
      </trkpt>
      <trkpt lat="42.75239" lon="1.6075">
        <ele>1815</ele>
        <time>2020-01-05T10:39:42.000Z</time>
      </trkpt>
      <trkpt lat="42.75239" lon="1.6075">
        <ele>1815</ele>
        <time>2020-01-05T10:39:44.000Z</time>
      </trkpt>
      <trkpt lat="42.75239" lon="1.6075">
        <ele>1815</ele>
        <time>2020-01-05T10:39:46.000Z</time>
      </trkpt>
      <trkpt lat="42.75239" lon="1.60751">
        <ele>1815</ele>
        <time>2020-01-05T10:39:48.000Z</time>
      </trkpt>
      <trkpt lat="42.75239" lon="1.6075">
        <ele>1815</ele>
        <time>2020-01-05T10:39:50.000Z</time>
      </trkpt>
      <trkpt lat="42.75239" lon="1.6075">
        <ele>1815</ele>
        <time>2020-01-05T10:39:52.000Z</time>
      </trkpt>
      <trkpt lat="42.75239" lon="1.60751">
        <ele>1815</ele>
        <time>2020-01-05T10:39:54.000Z</time>
      </trkpt>
      <trkpt lat="42.75239" lon="1.60752">
        <ele>1815</ele>
        <time>2020-01-05T10:39:56.000Z</time>
      </trkpt>
      <trkpt lat="42.75238" lon="1.60754">
        <ele>1815</ele>
        <time>2020-01-05T10:39:58.000Z</time>
      </trkpt>
      <trkpt lat="42.75237" lon="1.60754">
        <ele>1815</ele>
        <time>2020-01-05T10:40:00.000Z</time>
      </trkpt>
      <trkpt lat="42.75236" lon="1.60755">
        <ele>1815</ele>
        <time>2020-01-05T10:40:02.000Z</time>
      </trkpt>
      <trkpt lat="42.75235" lon="1.60756">
        <ele>1816</ele>
        <time>2020-01-05T10:40:04.000Z</time>
      </trkpt>
      <trkpt lat="42.75234" lon="1.60757">
        <ele>1816</ele>
        <time>2020-01-05T10:40:06.000Z</time>
      </trkpt>
      <trkpt lat="42.75234" lon="1.60758">
        <ele>1816</ele>
        <time>2020-01-05T10:40:08.000Z</time>
      </trkpt>
      <trkpt lat="42.75233" lon="1.60759">
        <ele>1816</ele>
        <time>2020-01-05T10:40:10.000Z</time>
      </trkpt>
      <trkpt lat="42.75233" lon="1.6076">
        <ele>1816</ele>
        <time>2020-01-05T10:40:12.000Z</time>
      </trkpt>
      <trkpt lat="42.75232" lon="1.60762">
        <ele>1817</ele>
        <time>2020-01-05T10:40:14.000Z</time>
      </trkpt>
      <trkpt lat="42.75231" lon="1.60763">
        <ele>1817</ele>
        <time>2020-01-05T10:40:16.000Z</time>
      </trkpt>
      <trkpt lat="42.7523" lon="1.60764">
        <ele>1817</ele>
        <time>2020-01-05T10:40:18.000Z</time>
      </trkpt>
      <trkpt lat="42.75229" lon="1.60765">
        <ele>1817</ele>
        <time>2020-01-05T10:40:20.000Z</time>
      </trkpt>
      <trkpt lat="42.75228" lon="1.60766">
        <ele>1817</ele>
        <time>2020-01-05T10:40:22.000Z</time>
      </trkpt>
      <trkpt lat="42.75227" lon="1.60767">
        <ele>1818</ele>
        <time>2020-01-05T10:40:24.000Z</time>
      </trkpt>
      <trkpt lat="42.75227" lon="1.60769">
        <ele>1818</ele>
        <time>2020-01-05T10:40:26.000Z</time>
      </trkpt>
      <trkpt lat="42.75226" lon="1.6077">
        <ele>1818</ele>
        <time>2020-01-05T10:40:28.000Z</time>
      </trkpt>
      <trkpt lat="42.75225" lon="1.60772">
        <ele>1818</ele>
        <time>2020-01-05T10:40:30.000Z</time>
      </trkpt>
      <trkpt lat="42.75225" lon="1.60774">
        <ele>1819</ele>
        <time>2020-01-05T10:40:32.000Z</time>
      </trkpt>
      <trkpt lat="42.75224" lon="1.60775">
        <ele>1819</ele>
        <time>2020-01-05T10:40:34.000Z</time>
      </trkpt>
      <trkpt lat="42.75223" lon="1.60777">
        <ele>1819</ele>
        <time>2020-01-05T10:40:36.000Z</time>
      </trkpt>
      <trkpt lat="42.75221" lon="1.60778">
        <ele>1819</ele>
        <time>2020-01-05T10:40:38.000Z</time>
      </trkpt>
      <trkpt lat="42.75219" lon="1.60779">
        <ele>1820</ele>
        <time>2020-01-05T10:40:40.000Z</time>
      </trkpt>
      <trkpt lat="42.75218" lon="1.6078">
        <ele>1820</ele>
        <time>2020-01-05T10:40:42.000Z</time>
      </trkpt>
      <trkpt lat="42.75217" lon="1.60782">
        <ele>1820</ele>
        <time>2020-01-05T10:40:44.000Z</time>
      </trkpt>
      <trkpt lat="42.75217" lon="1.60783">
        <ele>1821</ele>
        <time>2020-01-05T10:40:46.000Z</time>
      </trkpt>
      <trkpt lat="42.75217" lon="1.60785">
        <ele>1821</ele>
        <time>2020-01-05T10:40:48.000Z</time>
      </trkpt>
      <trkpt lat="42.75217" lon="1.60786">
        <ele>1822</ele>
        <time>2020-01-05T10:40:50.000Z</time>
      </trkpt>
      <trkpt lat="42.75217" lon="1.60788">
        <ele>1822</ele>
        <time>2020-01-05T10:40:52.000Z</time>
      </trkpt>
      <trkpt lat="42.75217" lon="1.60789">
        <ele>1823</ele>
        <time>2020-01-05T10:40:54.000Z</time>
      </trkpt>
      <trkpt lat="42.75216" lon="1.60791">
        <ele>1823</ele>
        <time>2020-01-05T10:40:56.000Z</time>
      </trkpt>
      <trkpt lat="42.75215" lon="1.60792">
        <ele>1824</ele>
        <time>2020-01-05T10:40:58.000Z</time>
      </trkpt>
      <trkpt lat="42.75215" lon="1.60794">
        <ele>1824</ele>
        <time>2020-01-05T10:41:00.000Z</time>
      </trkpt>
      <trkpt lat="42.75214" lon="1.60795">
        <ele>1824</ele>
        <time>2020-01-05T10:41:02.000Z</time>
      </trkpt>
      <trkpt lat="42.75213" lon="1.60796">
        <ele>1825</ele>
        <time>2020-01-05T10:41:04.000Z</time>
      </trkpt>
      <trkpt lat="42.75212" lon="1.60798">
        <ele>1826</ele>
        <time>2020-01-05T10:41:06.000Z</time>
      </trkpt>
      <trkpt lat="42.75212" lon="1.60799">
        <ele>1826</ele>
        <time>2020-01-05T10:41:08.000Z</time>
      </trkpt>
      <trkpt lat="42.75211" lon="1.60801">
        <ele>1827</ele>
        <time>2020-01-05T10:41:10.000Z</time>
      </trkpt>
      <trkpt lat="42.7521" lon="1.60802">
        <ele>1827</ele>
        <time>2020-01-05T10:41:12.000Z</time>
      </trkpt>
      <trkpt lat="42.75209" lon="1.60803">
        <ele>1827</ele>
        <time>2020-01-05T10:41:14.000Z</time>
      </trkpt>
      <trkpt lat="42.75209" lon="1.60804">
        <ele>1828</ele>
        <time>2020-01-05T10:41:16.000Z</time>
      </trkpt>
      <trkpt lat="42.75208" lon="1.60805">
        <ele>1828</ele>
        <time>2020-01-05T10:41:18.000Z</time>
      </trkpt>
      <trkpt lat="42.75207" lon="1.60806">
        <ele>1829</ele>
        <time>2020-01-05T10:41:20.000Z</time>
      </trkpt>
      <trkpt lat="42.75206" lon="1.60807">
        <ele>1829</ele>
        <time>2020-01-05T10:41:22.000Z</time>
      </trkpt>
      <trkpt lat="42.75206" lon="1.60809">
        <ele>1830</ele>
        <time>2020-01-05T10:41:24.000Z</time>
      </trkpt>
      <trkpt lat="42.75206" lon="1.6081">
        <ele>1830</ele>
        <time>2020-01-05T10:41:26.000Z</time>
      </trkpt>
      <trkpt lat="42.75205" lon="1.6081">
        <ele>1830</ele>
        <time>2020-01-05T10:41:28.000Z</time>
      </trkpt>
      <trkpt lat="42.75204" lon="1.60812">
        <ele>1831</ele>
        <time>2020-01-05T10:41:30.000Z</time>
      </trkpt>
      <trkpt lat="42.75203" lon="1.60813">
        <ele>1831</ele>
        <time>2020-01-05T10:41:32.000Z</time>
      </trkpt>
      <trkpt lat="42.75203" lon="1.60814">
        <ele>1832</ele>
        <time>2020-01-05T10:41:34.000Z</time>
      </trkpt>
      <trkpt lat="42.75202" lon="1.60815">
        <ele>1832</ele>
        <time>2020-01-05T10:41:36.000Z</time>
      </trkpt>
      <trkpt lat="42.75202" lon="1.60816">
        <ele>1833</ele>
        <time>2020-01-05T10:41:38.000Z</time>
      </trkpt>
      <trkpt lat="42.75201" lon="1.60818">
        <ele>1833</ele>
        <time>2020-01-05T10:41:40.000Z</time>
      </trkpt>
      <trkpt lat="42.75201" lon="1.60818">
        <ele>1833</ele>
        <time>2020-01-05T10:41:42.000Z</time>
      </trkpt>
      <trkpt lat="42.752" lon="1.60819">
        <ele>1833</ele>
        <time>2020-01-05T10:41:44.000Z</time>
      </trkpt>
      <trkpt lat="42.752" lon="1.60819">
        <ele>1834</ele>
        <time>2020-01-05T10:41:46.000Z</time>
      </trkpt>
      <trkpt lat="42.75199" lon="1.60819">
        <ele>1834</ele>
        <time>2020-01-05T10:41:48.000Z</time>
      </trkpt>
      <trkpt lat="42.75199" lon="1.6082">
        <ele>1834</ele>
        <time>2020-01-05T10:41:50.000Z</time>
      </trkpt>
      <trkpt lat="42.75198" lon="1.60821">
        <ele>1834</ele>
        <time>2020-01-05T10:41:52.000Z</time>
      </trkpt>
      <trkpt lat="42.75198" lon="1.60822">
        <ele>1834</ele>
        <time>2020-01-05T10:41:54.000Z</time>
      </trkpt>
      <trkpt lat="42.75197" lon="1.60823">
        <ele>1834</ele>
        <time>2020-01-05T10:41:56.000Z</time>
      </trkpt>
      <trkpt lat="42.75197" lon="1.60825">
        <ele>1834</ele>
        <time>2020-01-05T10:41:58.000Z</time>
      </trkpt>
      <trkpt lat="42.75196" lon="1.60826">
        <ele>1834</ele>
        <time>2020-01-05T10:42:00.000Z</time>
      </trkpt>
      <trkpt lat="42.75196" lon="1.60827">
        <ele>1835</ele>
        <time>2020-01-05T10:42:02.000Z</time>
      </trkpt>
      <trkpt lat="42.75195" lon="1.60828">
        <ele>1835</ele>
        <time>2020-01-05T10:42:04.000Z</time>
      </trkpt>
      <trkpt lat="42.75195" lon="1.60829">
        <ele>1835</ele>
        <time>2020-01-05T10:42:06.000Z</time>
      </trkpt>
      <trkpt lat="42.75194" lon="1.60831">
        <ele>1835</ele>
        <time>2020-01-05T10:42:08.000Z</time>
      </trkpt>
      <trkpt lat="42.75194" lon="1.60832">
        <ele>1835</ele>
        <time>2020-01-05T10:42:10.000Z</time>
      </trkpt>
      <trkpt lat="42.75193" lon="1.60833">
        <ele>1835</ele>
        <time>2020-01-05T10:42:12.000Z</time>
      </trkpt>
      <trkpt lat="42.75193" lon="1.60834">
        <ele>1835</ele>
        <time>2020-01-05T10:42:14.000Z</time>
      </trkpt>
      <trkpt lat="42.75193" lon="1.60835">
        <ele>1835</ele>
        <time>2020-01-05T10:42:16.000Z</time>
      </trkpt>
      <trkpt lat="42.75192" lon="1.60837">
        <ele>1836</ele>
        <time>2020-01-05T10:42:18.000Z</time>
      </trkpt>
      <trkpt lat="42.75192" lon="1.60838">
        <ele>1836</ele>
        <time>2020-01-05T10:42:20.000Z</time>
      </trkpt>
      <trkpt lat="42.75191" lon="1.6084">
        <ele>1836</ele>
        <time>2020-01-05T10:42:22.000Z</time>
      </trkpt>
      <trkpt lat="42.7519" lon="1.60841">
        <ele>1837</ele>
        <time>2020-01-05T10:42:24.000Z</time>
      </trkpt>
      <trkpt lat="42.75189" lon="1.60842">
        <ele>1837</ele>
        <time>2020-01-05T10:42:26.000Z</time>
      </trkpt>
      <trkpt lat="42.75189" lon="1.60843">
        <ele>1837</ele>
        <time>2020-01-05T10:42:28.000Z</time>
      </trkpt>
      <trkpt lat="42.75188" lon="1.60844">
        <ele>1838</ele>
        <time>2020-01-05T10:42:30.000Z</time>
      </trkpt>
      <trkpt lat="42.75187" lon="1.60845">
        <ele>1839</ele>
        <time>2020-01-05T10:42:32.000Z</time>
      </trkpt>
      <trkpt lat="42.75186" lon="1.60846">
        <ele>1839</ele>
        <time>2020-01-05T10:42:34.000Z</time>
      </trkpt>
      <trkpt lat="42.75186" lon="1.60847">
        <ele>1839</ele>
        <time>2020-01-05T10:42:36.000Z</time>
      </trkpt>
      <trkpt lat="42.75185" lon="1.60849">
        <ele>1840</ele>
        <time>2020-01-05T10:42:38.000Z</time>
      </trkpt>
      <trkpt lat="42.75185" lon="1.6085">
        <ele>1840</ele>
        <time>2020-01-05T10:42:40.000Z</time>
      </trkpt>
      <trkpt lat="42.75185" lon="1.60851">
        <ele>1840</ele>
        <time>2020-01-05T10:42:42.000Z</time>
      </trkpt>
      <trkpt lat="42.75185" lon="1.60852">
        <ele>1841</ele>
        <time>2020-01-05T10:42:44.000Z</time>
      </trkpt>
      <trkpt lat="42.75185" lon="1.60853">
        <ele>1841</ele>
        <time>2020-01-05T10:42:46.000Z</time>
      </trkpt>
      <trkpt lat="42.75184" lon="1.60853">
        <ele>1841</ele>
        <time>2020-01-05T10:42:48.000Z</time>
      </trkpt>
      <trkpt lat="42.75184" lon="1.60855">
        <ele>1841</ele>
        <time>2020-01-05T10:42:50.000Z</time>
      </trkpt>
      <trkpt lat="42.75183" lon="1.60856">
        <ele>1842</ele>
        <time>2020-01-05T10:42:52.000Z</time>
      </trkpt>
      <trkpt lat="42.75183" lon="1.60857">
        <ele>1842</ele>
        <time>2020-01-05T10:42:54.000Z</time>
      </trkpt>
      <trkpt lat="42.75182" lon="1.60858">
        <ele>1842</ele>
        <time>2020-01-05T10:42:56.000Z</time>
      </trkpt>
      <trkpt lat="42.75182" lon="1.60858">
        <ele>1843</ele>
        <time>2020-01-05T10:42:58.000Z</time>
      </trkpt>
      <trkpt lat="42.75181" lon="1.6086">
        <ele>1843</ele>
        <time>2020-01-05T10:43:00.000Z</time>
      </trkpt>
      <trkpt lat="42.7518" lon="1.6086">
        <ele>1844</ele>
        <time>2020-01-05T10:43:02.000Z</time>
      </trkpt>
      <trkpt lat="42.7518" lon="1.60861">
        <ele>1844</ele>
        <time>2020-01-05T10:43:04.000Z</time>
      </trkpt>
      <trkpt lat="42.75179" lon="1.60862">
        <ele>1844</ele>
        <time>2020-01-05T10:43:06.000Z</time>
      </trkpt>
      <trkpt lat="42.75179" lon="1.60863">
        <ele>1845</ele>
        <time>2020-01-05T10:43:08.000Z</time>
      </trkpt>
      <trkpt lat="42.75178" lon="1.60864">
        <ele>1845</ele>
        <time>2020-01-05T10:43:10.000Z</time>
      </trkpt>
      <trkpt lat="42.75177" lon="1.60865">
        <ele>1846</ele>
        <time>2020-01-05T10:43:12.000Z</time>
      </trkpt>
      <trkpt lat="42.75176" lon="1.60867">
        <ele>1846</ele>
        <time>2020-01-05T10:43:14.000Z</time>
      </trkpt>
      <trkpt lat="42.75175" lon="1.60867">
        <ele>1847</ele>
        <time>2020-01-05T10:43:16.000Z</time>
      </trkpt>
      <trkpt lat="42.75175" lon="1.60868">
        <ele>1847</ele>
        <time>2020-01-05T10:43:18.000Z</time>
      </trkpt>
      <trkpt lat="42.75174" lon="1.60869">
        <ele>1847</ele>
        <time>2020-01-05T10:43:20.000Z</time>
      </trkpt>
      <trkpt lat="42.75174" lon="1.6087">
        <ele>1848</ele>
        <time>2020-01-05T10:43:22.000Z</time>
      </trkpt>
      <trkpt lat="42.75173" lon="1.60871">
        <ele>1848</ele>
        <time>2020-01-05T10:43:24.000Z</time>
      </trkpt>
      <trkpt lat="42.75173" lon="1.60872">
        <ele>1848</ele>
        <time>2020-01-05T10:43:26.000Z</time>
      </trkpt>
      <trkpt lat="42.75173" lon="1.60873">
        <ele>1849</ele>
        <time>2020-01-05T10:43:28.000Z</time>
      </trkpt>
      <trkpt lat="42.75172" lon="1.60874">
        <ele>1849</ele>
        <time>2020-01-05T10:43:30.000Z</time>
      </trkpt>
      <trkpt lat="42.75171" lon="1.60875">
        <ele>1849</ele>
        <time>2020-01-05T10:43:32.000Z</time>
      </trkpt>
      <trkpt lat="42.7517" lon="1.60875">
        <ele>1850</ele>
        <time>2020-01-05T10:43:34.000Z</time>
      </trkpt>
      <trkpt lat="42.7517" lon="1.60876">
        <ele>1850</ele>
        <time>2020-01-05T10:43:36.000Z</time>
      </trkpt>
      <trkpt lat="42.75169" lon="1.60877">
        <ele>1850</ele>
        <time>2020-01-05T10:43:38.000Z</time>
      </trkpt>
      <trkpt lat="42.75168" lon="1.60877">
        <ele>1850</ele>
        <time>2020-01-05T10:43:40.000Z</time>
      </trkpt>
      <trkpt lat="42.75168" lon="1.60878">
        <ele>1850</ele>
        <time>2020-01-05T10:43:42.000Z</time>
      </trkpt>
      <trkpt lat="42.75167" lon="1.60878">
        <ele>1850</ele>
        <time>2020-01-05T10:43:44.000Z</time>
      </trkpt>
      <trkpt lat="42.75167" lon="1.60878">
        <ele>1850</ele>
        <time>2020-01-05T10:43:46.000Z</time>
      </trkpt>
      <trkpt lat="42.75168" lon="1.60878">
        <ele>1850</ele>
        <time>2020-01-05T10:43:48.000Z</time>
      </trkpt>
      <trkpt lat="42.75167" lon="1.60878">
        <ele>1850</ele>
        <time>2020-01-05T10:43:50.000Z</time>
      </trkpt>
      <trkpt lat="42.75167" lon="1.60878">
        <ele>1850</ele>
        <time>2020-01-05T10:43:52.000Z</time>
      </trkpt>
      <trkpt lat="42.75167" lon="1.60879">
        <ele>1850</ele>
        <time>2020-01-05T10:43:54.000Z</time>
      </trkpt>
      <trkpt lat="42.75166" lon="1.60879">
        <ele>1850</ele>
        <time>2020-01-05T10:43:56.000Z</time>
      </trkpt>
      <trkpt lat="42.75165" lon="1.6088">
        <ele>1850</ele>
        <time>2020-01-05T10:43:58.000Z</time>
      </trkpt>
      <trkpt lat="42.75164" lon="1.60881">
        <ele>1850</ele>
        <time>2020-01-05T10:44:00.000Z</time>
      </trkpt>
      <trkpt lat="42.75163" lon="1.60882">
        <ele>1850</ele>
        <time>2020-01-05T10:44:02.000Z</time>
      </trkpt>
      <trkpt lat="42.75162" lon="1.60882">
        <ele>1850</ele>
        <time>2020-01-05T10:44:04.000Z</time>
      </trkpt>
      <trkpt lat="42.75162" lon="1.60883">
        <ele>1850</ele>
        <time>2020-01-05T10:44:06.000Z</time>
      </trkpt>
      <trkpt lat="42.75161" lon="1.60884">
        <ele>1850</ele>
        <time>2020-01-05T10:44:08.000Z</time>
      </trkpt>
      <trkpt lat="42.75161" lon="1.60885">
        <ele>1850</ele>
        <time>2020-01-05T10:44:10.000Z</time>
      </trkpt>
      <trkpt lat="42.75161" lon="1.60886">
        <ele>1851</ele>
        <time>2020-01-05T10:44:12.000Z</time>
      </trkpt>
      <trkpt lat="42.75161" lon="1.60887">
        <ele>1851</ele>
        <time>2020-01-05T10:44:14.000Z</time>
      </trkpt>
      <trkpt lat="42.7516" lon="1.60888">
        <ele>1851</ele>
        <time>2020-01-05T10:44:16.000Z</time>
      </trkpt>
      <trkpt lat="42.7516" lon="1.60889">
        <ele>1851</ele>
        <time>2020-01-05T10:44:18.000Z</time>
      </trkpt>
      <trkpt lat="42.7516" lon="1.6089">
        <ele>1851</ele>
        <time>2020-01-05T10:44:20.000Z</time>
      </trkpt>
      <trkpt lat="42.75159" lon="1.60891">
        <ele>1852</ele>
        <time>2020-01-05T10:44:22.000Z</time>
      </trkpt>
      <trkpt lat="42.75159" lon="1.60892">
        <ele>1852</ele>
        <time>2020-01-05T10:44:24.000Z</time>
      </trkpt>
      <trkpt lat="42.75159" lon="1.60894">
        <ele>1852</ele>
        <time>2020-01-05T10:44:26.000Z</time>
      </trkpt>
      <trkpt lat="42.75159" lon="1.60895">
        <ele>1853</ele>
        <time>2020-01-05T10:44:28.000Z</time>
      </trkpt>
      <trkpt lat="42.75158" lon="1.60895">
        <ele>1853</ele>
        <time>2020-01-05T10:44:30.000Z</time>
      </trkpt>
      <trkpt lat="42.75158" lon="1.60896">
        <ele>1853</ele>
        <time>2020-01-05T10:44:32.000Z</time>
      </trkpt>
      <trkpt lat="42.75157" lon="1.60897">
        <ele>1853</ele>
        <time>2020-01-05T10:44:34.000Z</time>
      </trkpt>
      <trkpt lat="42.75157" lon="1.60899">
        <ele>1854</ele>
        <time>2020-01-05T10:44:36.000Z</time>
      </trkpt>
      <trkpt lat="42.75157" lon="1.60899">
        <ele>1854</ele>
        <time>2020-01-05T10:44:38.000Z</time>
      </trkpt>
      <trkpt lat="42.75156" lon="1.609">
        <ele>1854</ele>
        <time>2020-01-05T10:44:40.000Z</time>
      </trkpt>
      <trkpt lat="42.75155" lon="1.60901">
        <ele>1854</ele>
        <time>2020-01-05T10:44:42.000Z</time>
      </trkpt>
      <trkpt lat="42.75155" lon="1.60902">
        <ele>1855</ele>
        <time>2020-01-05T10:44:44.000Z</time>
      </trkpt>
      <trkpt lat="42.75154" lon="1.60902">
        <ele>1855</ele>
        <time>2020-01-05T10:44:46.000Z</time>
      </trkpt>
      <trkpt lat="42.75153" lon="1.60903">
        <ele>1855</ele>
        <time>2020-01-05T10:44:48.000Z</time>
      </trkpt>
      <trkpt lat="42.75153" lon="1.60904">
        <ele>1855</ele>
        <time>2020-01-05T10:44:50.000Z</time>
      </trkpt>
      <trkpt lat="42.75152" lon="1.60905">
        <ele>1855</ele>
        <time>2020-01-05T10:44:52.000Z</time>
      </trkpt>
      <trkpt lat="42.75152" lon="1.60906">
        <ele>1855</ele>
        <time>2020-01-05T10:44:54.000Z</time>
      </trkpt>
      <trkpt lat="42.75151" lon="1.60907">
        <ele>1855</ele>
        <time>2020-01-05T10:44:56.000Z</time>
      </trkpt>
      <trkpt lat="42.7515" lon="1.60907">
        <ele>1856</ele>
        <time>2020-01-05T10:44:58.000Z</time>
      </trkpt>
      <trkpt lat="42.7515" lon="1.60908">
        <ele>1856</ele>
        <time>2020-01-05T10:45:00.000Z</time>
      </trkpt>
      <trkpt lat="42.7515" lon="1.60909">
        <ele>1856</ele>
        <time>2020-01-05T10:45:02.000Z</time>
      </trkpt>
      <trkpt lat="42.7515" lon="1.6091">
        <ele>1856</ele>
        <time>2020-01-05T10:45:04.000Z</time>
      </trkpt>
      <trkpt lat="42.7515" lon="1.60911">
        <ele>1856</ele>
        <time>2020-01-05T10:45:06.000Z</time>
      </trkpt>
      <trkpt lat="42.75149" lon="1.60912">
        <ele>1856</ele>
        <time>2020-01-05T10:45:08.000Z</time>
      </trkpt>
      <trkpt lat="42.75148" lon="1.60913">
        <ele>1856</ele>
        <time>2020-01-05T10:45:10.000Z</time>
      </trkpt>
      <trkpt lat="42.75148" lon="1.60914">
        <ele>1856</ele>
        <time>2020-01-05T10:45:12.000Z</time>
      </trkpt>
      <trkpt lat="42.75147" lon="1.60914">
        <ele>1856</ele>
        <time>2020-01-05T10:45:14.000Z</time>
      </trkpt>
      <trkpt lat="42.75146" lon="1.60915">
        <ele>1857</ele>
        <time>2020-01-05T10:45:16.000Z</time>
      </trkpt>
      <trkpt lat="42.75146" lon="1.60915">
        <ele>1857</ele>
        <time>2020-01-05T10:45:18.000Z</time>
      </trkpt>
      <trkpt lat="42.75146" lon="1.60915">
        <ele>1857</ele>
        <time>2020-01-05T10:45:20.000Z</time>
      </trkpt>
      <trkpt lat="42.75146" lon="1.60915">
        <ele>1857</ele>
        <time>2020-01-05T10:45:22.000Z</time>
      </trkpt>
      <trkpt lat="42.75145" lon="1.60915">
        <ele>1857</ele>
        <time>2020-01-05T10:45:24.000Z</time>
      </trkpt>
      <trkpt lat="42.75145" lon="1.60915">
        <ele>1857</ele>
        <time>2020-01-05T10:45:26.000Z</time>
      </trkpt>
      <trkpt lat="42.75145" lon="1.60915">
        <ele>1857</ele>
        <time>2020-01-05T10:45:28.000Z</time>
      </trkpt>
      <trkpt lat="42.75145" lon="1.60915">
        <ele>1857</ele>
        <time>2020-01-05T10:45:30.000Z</time>
      </trkpt>
      <trkpt lat="42.75144" lon="1.60915">
        <ele>1857</ele>
        <time>2020-01-05T10:45:32.000Z</time>
      </trkpt>
      <trkpt lat="42.75144" lon="1.60916">
        <ele>1857</ele>
        <time>2020-01-05T10:45:34.000Z</time>
      </trkpt>
      <trkpt lat="42.75143" lon="1.60917">
        <ele>1857</ele>
        <time>2020-01-05T10:45:36.000Z</time>
      </trkpt>
      <trkpt lat="42.75142" lon="1.60917">
        <ele>1857</ele>
        <time>2020-01-05T10:45:38.000Z</time>
      </trkpt>
      <trkpt lat="42.75142" lon="1.60918">
        <ele>1857</ele>
        <time>2020-01-05T10:45:40.000Z</time>
      </trkpt>
      <trkpt lat="42.75142" lon="1.60919">
        <ele>1857</ele>
        <time>2020-01-05T10:45:42.000Z</time>
      </trkpt>
      <trkpt lat="42.75142" lon="1.6092">
        <ele>1857</ele>
        <time>2020-01-05T10:45:44.000Z</time>
      </trkpt>
      <trkpt lat="42.75142" lon="1.60921">
        <ele>1857</ele>
        <time>2020-01-05T10:45:46.000Z</time>
      </trkpt>
      <trkpt lat="42.75141" lon="1.60922">
        <ele>1858</ele>
        <time>2020-01-05T10:45:48.000Z</time>
      </trkpt>
      <trkpt lat="42.7514" lon="1.60923">
        <ele>1858</ele>
        <time>2020-01-05T10:45:50.000Z</time>
      </trkpt>
      <trkpt lat="42.7514" lon="1.60923">
        <ele>1858</ele>
        <time>2020-01-05T10:45:52.000Z</time>
      </trkpt>
      <trkpt lat="42.75139" lon="1.60924">
        <ele>1858</ele>
        <time>2020-01-05T10:45:54.000Z</time>
      </trkpt>
      <trkpt lat="42.75139" lon="1.60925">
        <ele>1858</ele>
        <time>2020-01-05T10:45:56.000Z</time>
      </trkpt>
      <trkpt lat="42.75139" lon="1.60926">
        <ele>1858</ele>
        <time>2020-01-05T10:45:58.000Z</time>
      </trkpt>
      <trkpt lat="42.75139" lon="1.60927">
        <ele>1858</ele>
        <time>2020-01-05T10:46:00.000Z</time>
      </trkpt>
      <trkpt lat="42.75138" lon="1.60928">
        <ele>1858</ele>
        <time>2020-01-05T10:46:02.000Z</time>
      </trkpt>
      <trkpt lat="42.75138" lon="1.60929">
        <ele>1859</ele>
        <time>2020-01-05T10:46:04.000Z</time>
      </trkpt>
      <trkpt lat="42.75138" lon="1.6093">
        <ele>1859</ele>
        <time>2020-01-05T10:46:06.000Z</time>
      </trkpt>
      <trkpt lat="42.75137" lon="1.60931">
        <ele>1859</ele>
        <time>2020-01-05T10:46:08.000Z</time>
      </trkpt>
      <trkpt lat="42.75137" lon="1.60932">
        <ele>1859</ele>
        <time>2020-01-05T10:46:10.000Z</time>
      </trkpt>
      <trkpt lat="42.75137" lon="1.60932">
        <ele>1859</ele>
        <time>2020-01-05T10:46:12.000Z</time>
      </trkpt>
      <trkpt lat="42.75136" lon="1.60933">
        <ele>1859</ele>
        <time>2020-01-05T10:46:14.000Z</time>
      </trkpt>
      <trkpt lat="42.75136" lon="1.60934">
        <ele>1859</ele>
        <time>2020-01-05T10:46:16.000Z</time>
      </trkpt>
      <trkpt lat="42.75136" lon="1.60935">
        <ele>1859</ele>
        <time>2020-01-05T10:46:18.000Z</time>
      </trkpt>
      <trkpt lat="42.75135" lon="1.60935">
        <ele>1859</ele>
        <time>2020-01-05T10:46:20.000Z</time>
      </trkpt>
      <trkpt lat="42.75136" lon="1.60936">
        <ele>1860</ele>
        <time>2020-01-05T10:46:22.000Z</time>
      </trkpt>
      <trkpt lat="42.75136" lon="1.60937">
        <ele>1860</ele>
        <time>2020-01-05T10:46:24.000Z</time>
      </trkpt>
      <trkpt lat="42.75136" lon="1.60938">
        <ele>1860</ele>
        <time>2020-01-05T10:46:26.000Z</time>
      </trkpt>
      <trkpt lat="42.75135" lon="1.60939">
        <ele>1860</ele>
        <time>2020-01-05T10:46:28.000Z</time>
      </trkpt>
      <trkpt lat="42.75136" lon="1.60939">
        <ele>1860</ele>
        <time>2020-01-05T10:46:30.000Z</time>
      </trkpt>
      <trkpt lat="42.75136" lon="1.6094">
        <ele>1860</ele>
        <time>2020-01-05T10:46:32.000Z</time>
      </trkpt>
      <trkpt lat="42.75136" lon="1.60941">
        <ele>1860</ele>
        <time>2020-01-05T10:46:34.000Z</time>
      </trkpt>
      <trkpt lat="42.75135" lon="1.60942">
        <ele>1860</ele>
        <time>2020-01-05T10:46:36.000Z</time>
      </trkpt>
      <trkpt lat="42.75135" lon="1.60943">
        <ele>1860</ele>
        <time>2020-01-05T10:46:38.000Z</time>
      </trkpt>
      <trkpt lat="42.75135" lon="1.60944">
        <ele>1861</ele>
        <time>2020-01-05T10:46:40.000Z</time>
      </trkpt>
      <trkpt lat="42.75135" lon="1.60944">
        <ele>1861</ele>
        <time>2020-01-05T10:46:42.000Z</time>
      </trkpt>
      <trkpt lat="42.75134" lon="1.60945">
        <ele>1861</ele>
        <time>2020-01-05T10:46:44.000Z</time>
      </trkpt>
      <trkpt lat="42.75134" lon="1.60946">
        <ele>1861</ele>
        <time>2020-01-05T10:46:46.000Z</time>
      </trkpt>
      <trkpt lat="42.75135" lon="1.60946">
        <ele>1861</ele>
        <time>2020-01-05T10:46:48.000Z</time>
      </trkpt>
      <trkpt lat="42.75135" lon="1.60947">
        <ele>1861</ele>
        <time>2020-01-05T10:46:50.000Z</time>
      </trkpt>
      <trkpt lat="42.75135" lon="1.60948">
        <ele>1861</ele>
        <time>2020-01-05T10:46:52.000Z</time>
      </trkpt>
      <trkpt lat="42.75134" lon="1.60949">
        <ele>1861</ele>
        <time>2020-01-05T10:46:54.000Z</time>
      </trkpt>
      <trkpt lat="42.75133" lon="1.6095">
        <ele>1862</ele>
        <time>2020-01-05T10:46:56.000Z</time>
      </trkpt>
      <trkpt lat="42.75133" lon="1.60951">
        <ele>1862</ele>
        <time>2020-01-05T10:46:58.000Z</time>
      </trkpt>
      <trkpt lat="42.75132" lon="1.60951">
        <ele>1862</ele>
        <time>2020-01-05T10:47:00.000Z</time>
      </trkpt>
      <trkpt lat="42.75132" lon="1.60951">
        <ele>1862</ele>
        <time>2020-01-05T10:47:02.000Z</time>
      </trkpt>
      <trkpt lat="42.75132" lon="1.60952">
        <ele>1862</ele>
        <time>2020-01-05T10:47:04.000Z</time>
      </trkpt>
      <trkpt lat="42.75131" lon="1.60953">
        <ele>1863</ele>
        <time>2020-01-05T10:47:06.000Z</time>
      </trkpt>
      <trkpt lat="42.75131" lon="1.60954">
        <ele>1863</ele>
        <time>2020-01-05T10:47:08.000Z</time>
      </trkpt>
      <trkpt lat="42.7513" lon="1.60955">
        <ele>1863</ele>
        <time>2020-01-05T10:47:10.000Z</time>
      </trkpt>
      <trkpt lat="42.7513" lon="1.60956">
        <ele>1863</ele>
        <time>2020-01-05T10:47:12.000Z</time>
      </trkpt>
      <trkpt lat="42.7513" lon="1.60957">
        <ele>1864</ele>
        <time>2020-01-05T10:47:14.000Z</time>
      </trkpt>
      <trkpt lat="42.7513" lon="1.60957">
        <ele>1864</ele>
        <time>2020-01-05T10:47:16.000Z</time>
      </trkpt>
      <trkpt lat="42.75129" lon="1.60958">
        <ele>1864</ele>
        <time>2020-01-05T10:47:18.000Z</time>
      </trkpt>
      <trkpt lat="42.7513" lon="1.60959">
        <ele>1864</ele>
        <time>2020-01-05T10:47:20.000Z</time>
      </trkpt>
      <trkpt lat="42.7513" lon="1.6096">
        <ele>1864</ele>
        <time>2020-01-05T10:47:22.000Z</time>
      </trkpt>
      <trkpt lat="42.7513" lon="1.60961">
        <ele>1865</ele>
        <time>2020-01-05T10:47:24.000Z</time>
      </trkpt>
      <trkpt lat="42.7513" lon="1.60962">
        <ele>1865</ele>
        <time>2020-01-05T10:47:26.000Z</time>
      </trkpt>
      <trkpt lat="42.7513" lon="1.60963">
        <ele>1865</ele>
        <time>2020-01-05T10:47:28.000Z</time>
      </trkpt>
      <trkpt lat="42.7513" lon="1.60963">
        <ele>1865</ele>
        <time>2020-01-05T10:47:30.000Z</time>
      </trkpt>
      <trkpt lat="42.7513" lon="1.60963">
        <ele>1865</ele>
        <time>2020-01-05T10:47:32.000Z</time>
      </trkpt>
      <trkpt lat="42.75131" lon="1.60963">
        <ele>1865</ele>
        <time>2020-01-05T10:47:34.000Z</time>
      </trkpt>
      <trkpt lat="42.75131" lon="1.60964">
        <ele>1865</ele>
        <time>2020-01-05T10:47:36.000Z</time>
      </trkpt>
      <trkpt lat="42.75131" lon="1.60965">
        <ele>1865</ele>
        <time>2020-01-05T10:47:38.000Z</time>
      </trkpt>
      <trkpt lat="42.75131" lon="1.60966">
        <ele>1866</ele>
        <time>2020-01-05T10:47:40.000Z</time>
      </trkpt>
      <trkpt lat="42.75131" lon="1.60967">
        <ele>1866</ele>
        <time>2020-01-05T10:47:42.000Z</time>
      </trkpt>
      <trkpt lat="42.75131" lon="1.60968">
        <ele>1866</ele>
        <time>2020-01-05T10:47:44.000Z</time>
      </trkpt>
      <trkpt lat="42.75131" lon="1.60968">
        <ele>1866</ele>
        <time>2020-01-05T10:47:46.000Z</time>
      </trkpt>
      <trkpt lat="42.7513" lon="1.60969">
        <ele>1867</ele>
        <time>2020-01-05T10:47:48.000Z</time>
      </trkpt>
      <trkpt lat="42.7513" lon="1.60969">
        <ele>1867</ele>
        <time>2020-01-05T10:47:50.000Z</time>
      </trkpt>
      <trkpt lat="42.7513" lon="1.6097">
        <ele>1867</ele>
        <time>2020-01-05T10:47:52.000Z</time>
      </trkpt>
      <trkpt lat="42.7513" lon="1.6097">
        <ele>1867</ele>
        <time>2020-01-05T10:47:54.000Z</time>
      </trkpt>
      <trkpt lat="42.7513" lon="1.60971">
        <ele>1867</ele>
        <time>2020-01-05T10:47:56.000Z</time>
      </trkpt>
      <trkpt lat="42.75131" lon="1.60972">
        <ele>1867</ele>
        <time>2020-01-05T10:47:58.000Z</time>
      </trkpt>
      <trkpt lat="42.75131" lon="1.60973">
        <ele>1867</ele>
        <time>2020-01-05T10:48:00.000Z</time>
      </trkpt>
      <trkpt lat="42.75131" lon="1.60974">
        <ele>1868</ele>
        <time>2020-01-05T10:48:02.000Z</time>
      </trkpt>
      <trkpt lat="42.75131" lon="1.60975">
        <ele>1868</ele>
        <time>2020-01-05T10:48:04.000Z</time>
      </trkpt>
      <trkpt lat="42.7513" lon="1.60976">
        <ele>1868</ele>
        <time>2020-01-05T10:48:06.000Z</time>
      </trkpt>
      <trkpt lat="42.7513" lon="1.60977">
        <ele>1868</ele>
        <time>2020-01-05T10:48:08.000Z</time>
      </trkpt>
      <trkpt lat="42.7513" lon="1.60978">
        <ele>1869</ele>
        <time>2020-01-05T10:48:10.000Z</time>
      </trkpt>
      <trkpt lat="42.7513" lon="1.60978">
        <ele>1869</ele>
        <time>2020-01-05T10:48:12.000Z</time>
      </trkpt>
      <trkpt lat="42.7513" lon="1.60979">
        <ele>1869</ele>
        <time>2020-01-05T10:48:14.000Z</time>
      </trkpt>
      <trkpt lat="42.7513" lon="1.6098">
        <ele>1869</ele>
        <time>2020-01-05T10:48:16.000Z</time>
      </trkpt>
      <trkpt lat="42.7513" lon="1.60981">
        <ele>1869</ele>
        <time>2020-01-05T10:48:18.000Z</time>
      </trkpt>
      <trkpt lat="42.7513" lon="1.60981">
        <ele>1869</ele>
        <time>2020-01-05T10:48:20.000Z</time>
      </trkpt>
      <trkpt lat="42.7513" lon="1.60982">
        <ele>1870</ele>
        <time>2020-01-05T10:48:22.000Z</time>
      </trkpt>
      <trkpt lat="42.7513" lon="1.60982">
        <ele>1870</ele>
        <time>2020-01-05T10:48:24.000Z</time>
      </trkpt>
      <trkpt lat="42.7513" lon="1.60983">
        <ele>1870</ele>
        <time>2020-01-05T10:48:26.000Z</time>
      </trkpt>
      <trkpt lat="42.7513" lon="1.60984">
        <ele>1870</ele>
        <time>2020-01-05T10:48:28.000Z</time>
      </trkpt>
      <trkpt lat="42.7513" lon="1.60984">
        <ele>1870</ele>
        <time>2020-01-05T10:48:30.000Z</time>
      </trkpt>
      <trkpt lat="42.7513" lon="1.60984">
        <ele>1870</ele>
        <time>2020-01-05T10:48:32.000Z</time>
      </trkpt>
      <trkpt lat="42.75129" lon="1.60984">
        <ele>1870</ele>
        <time>2020-01-05T10:48:34.000Z</time>
      </trkpt>
      <trkpt lat="42.75129" lon="1.60985">
        <ele>1870</ele>
        <time>2020-01-05T10:48:36.000Z</time>
      </trkpt>
      <trkpt lat="42.75129" lon="1.60986">
        <ele>1871</ele>
        <time>2020-01-05T10:48:38.000Z</time>
      </trkpt>
      <trkpt lat="42.75129" lon="1.60986">
        <ele>1871</ele>
        <time>2020-01-05T10:48:40.000Z</time>
      </trkpt>
      <trkpt lat="42.75129" lon="1.60986">
        <ele>1871</ele>
        <time>2020-01-05T10:48:42.000Z</time>
      </trkpt>
      <trkpt lat="42.75129" lon="1.60987">
        <ele>1871</ele>
        <time>2020-01-05T10:48:44.000Z</time>
      </trkpt>
      <trkpt lat="42.75129" lon="1.60987">
        <ele>1871</ele>
        <time>2020-01-05T10:48:46.000Z</time>
      </trkpt>
      <trkpt lat="42.75128" lon="1.60988">
        <ele>1871</ele>
        <time>2020-01-05T10:48:48.000Z</time>
      </trkpt>
      <trkpt lat="42.75128" lon="1.60988">
        <ele>1871</ele>
        <time>2020-01-05T10:48:50.000Z</time>
      </trkpt>
      <trkpt lat="42.75127" lon="1.60988">
        <ele>1871</ele>
        <time>2020-01-05T10:48:52.000Z</time>
      </trkpt>
      <trkpt lat="42.75126" lon="1.60989">
        <ele>1871</ele>
        <time>2020-01-05T10:48:54.000Z</time>
      </trkpt>
      <trkpt lat="42.75126" lon="1.60989">
        <ele>1871</ele>
        <time>2020-01-05T10:48:56.000Z</time>
      </trkpt>
      <trkpt lat="42.75126" lon="1.6099">
        <ele>1871</ele>
        <time>2020-01-05T10:48:58.000Z</time>
      </trkpt>
      <trkpt lat="42.75125" lon="1.6099">
        <ele>1871</ele>
        <time>2020-01-05T10:49:00.000Z</time>
      </trkpt>
      <trkpt lat="42.75124" lon="1.6099">
        <ele>1871</ele>
        <time>2020-01-05T10:49:02.000Z</time>
      </trkpt>
      <trkpt lat="42.75123" lon="1.6099">
        <ele>1871</ele>
        <time>2020-01-05T10:49:04.000Z</time>
      </trkpt>
      <trkpt lat="42.75123" lon="1.60991">
        <ele>1871</ele>
        <time>2020-01-05T10:49:06.000Z</time>
      </trkpt>
      <trkpt lat="42.75122" lon="1.60991">
        <ele>1871</ele>
        <time>2020-01-05T10:49:08.000Z</time>
      </trkpt>
      <trkpt lat="42.75122" lon="1.60991">
        <ele>1871</ele>
        <time>2020-01-05T10:49:10.000Z</time>
      </trkpt>
      <trkpt lat="42.75121" lon="1.60992">
        <ele>1872</ele>
        <time>2020-01-05T10:49:12.000Z</time>
      </trkpt>
      <trkpt lat="42.7512" lon="1.60992">
        <ele>1872</ele>
        <time>2020-01-05T10:49:14.000Z</time>
      </trkpt>
      <trkpt lat="42.7512" lon="1.60992">
        <ele>1872</ele>
        <time>2020-01-05T10:49:16.000Z</time>
      </trkpt>
      <trkpt lat="42.7512" lon="1.60992">
        <ele>1872</ele>
        <time>2020-01-05T10:49:18.000Z</time>
      </trkpt>
      <trkpt lat="42.75119" lon="1.60993">
        <ele>1872</ele>
        <time>2020-01-05T10:49:20.000Z</time>
      </trkpt>
      <trkpt lat="42.75119" lon="1.60994">
        <ele>1872</ele>
        <time>2020-01-05T10:49:22.000Z</time>
      </trkpt>
      <trkpt lat="42.75118" lon="1.60995">
        <ele>1872</ele>
        <time>2020-01-05T10:49:24.000Z</time>
      </trkpt>
      <trkpt lat="42.75118" lon="1.60995">
        <ele>1872</ele>
        <time>2020-01-05T10:49:26.000Z</time>
      </trkpt>
      <trkpt lat="42.75118" lon="1.60995">
        <ele>1872</ele>
        <time>2020-01-05T10:49:28.000Z</time>
      </trkpt>
      <trkpt lat="42.75117" lon="1.60995">
        <ele>1872</ele>
        <time>2020-01-05T10:49:30.000Z</time>
      </trkpt>
      <trkpt lat="42.75117" lon="1.60996">
        <ele>1872</ele>
        <time>2020-01-05T10:49:32.000Z</time>
      </trkpt>
      <trkpt lat="42.75117" lon="1.60997">
        <ele>1872</ele>
        <time>2020-01-05T10:49:34.000Z</time>
      </trkpt>
      <trkpt lat="42.75116" lon="1.60997">
        <ele>1872</ele>
        <time>2020-01-05T10:49:36.000Z</time>
      </trkpt>
      <trkpt lat="42.75115" lon="1.60998">
        <ele>1872</ele>
        <time>2020-01-05T10:49:38.000Z</time>
      </trkpt>
      <trkpt lat="42.75115" lon="1.60999">
        <ele>1872</ele>
        <time>2020-01-05T10:49:40.000Z</time>
      </trkpt>
      <trkpt lat="42.75115" lon="1.60999">
        <ele>1872</ele>
        <time>2020-01-05T10:49:42.000Z</time>
      </trkpt>
      <trkpt lat="42.75115" lon="1.60999">
        <ele>1872</ele>
        <time>2020-01-05T10:49:44.000Z</time>
      </trkpt>
      <trkpt lat="42.75114" lon="1.61">
        <ele>1872</ele>
        <time>2020-01-05T10:49:46.000Z</time>
      </trkpt>
      <trkpt lat="42.75114" lon="1.61001">
        <ele>1873</ele>
        <time>2020-01-05T10:49:48.000Z</time>
      </trkpt>
      <trkpt lat="42.75114" lon="1.61002">
        <ele>1873</ele>
        <time>2020-01-05T10:49:50.000Z</time>
      </trkpt>
      <trkpt lat="42.75114" lon="1.61003">
        <ele>1873</ele>
        <time>2020-01-05T10:49:52.000Z</time>
      </trkpt>
      <trkpt lat="42.75114" lon="1.61003">
        <ele>1873</ele>
        <time>2020-01-05T10:49:54.000Z</time>
      </trkpt>
      <trkpt lat="42.75114" lon="1.61004">
        <ele>1873</ele>
        <time>2020-01-05T10:49:56.000Z</time>
      </trkpt>
      <trkpt lat="42.75113" lon="1.61004">
        <ele>1873</ele>
        <time>2020-01-05T10:49:58.000Z</time>
      </trkpt>
      <trkpt lat="42.75113" lon="1.61005">
        <ele>1873</ele>
        <time>2020-01-05T10:50:00.000Z</time>
      </trkpt>
      <trkpt lat="42.75113" lon="1.61006">
        <ele>1873</ele>
        <time>2020-01-05T10:50:02.000Z</time>
      </trkpt>
      <trkpt lat="42.75113" lon="1.61006">
        <ele>1873</ele>
        <time>2020-01-05T10:50:04.000Z</time>
      </trkpt>
      <trkpt lat="42.75113" lon="1.61007">
        <ele>1873</ele>
        <time>2020-01-05T10:50:06.000Z</time>
      </trkpt>
      <trkpt lat="42.75113" lon="1.61008">
        <ele>1873</ele>
        <time>2020-01-05T10:50:08.000Z</time>
      </trkpt>
      <trkpt lat="42.75112" lon="1.61009">
        <ele>1873</ele>
        <time>2020-01-05T10:50:10.000Z</time>
      </trkpt>
      <trkpt lat="42.75112" lon="1.6101">
        <ele>1873</ele>
        <time>2020-01-05T10:50:12.000Z</time>
      </trkpt>
      <trkpt lat="42.75111" lon="1.61011">
        <ele>1873</ele>
        <time>2020-01-05T10:50:14.000Z</time>
      </trkpt>
      <trkpt lat="42.75111" lon="1.61012">
        <ele>1874</ele>
        <time>2020-01-05T10:50:16.000Z</time>
      </trkpt>
      <trkpt lat="42.75111" lon="1.61013">
        <ele>1874</ele>
        <time>2020-01-05T10:50:18.000Z</time>
      </trkpt>
      <trkpt lat="42.7511" lon="1.61013">
        <ele>1874</ele>
        <time>2020-01-05T10:50:20.000Z</time>
      </trkpt>
      <trkpt lat="42.7511" lon="1.61014">
        <ele>1874</ele>
        <time>2020-01-05T10:50:22.000Z</time>
      </trkpt>
      <trkpt lat="42.7511" lon="1.61015">
        <ele>1874</ele>
        <time>2020-01-05T10:50:24.000Z</time>
      </trkpt>
      <trkpt lat="42.7511" lon="1.61016">
        <ele>1874</ele>
        <time>2020-01-05T10:50:26.000Z</time>
      </trkpt>
      <trkpt lat="42.7511" lon="1.61017">
        <ele>1875</ele>
        <time>2020-01-05T10:50:28.000Z</time>
      </trkpt>
      <trkpt lat="42.75109" lon="1.61018">
        <ele>1875</ele>
        <time>2020-01-05T10:50:30.000Z</time>
      </trkpt>
      <trkpt lat="42.75109" lon="1.61019">
        <ele>1875</ele>
        <time>2020-01-05T10:50:32.000Z</time>
      </trkpt>
      <trkpt lat="42.75109" lon="1.6102">
        <ele>1875</ele>
        <time>2020-01-05T10:50:34.000Z</time>
      </trkpt>
      <trkpt lat="42.75109" lon="1.61021">
        <ele>1875</ele>
        <time>2020-01-05T10:50:36.000Z</time>
      </trkpt>
      <trkpt lat="42.75108" lon="1.61021">
        <ele>1875</ele>
        <time>2020-01-05T10:50:38.000Z</time>
      </trkpt>
      <trkpt lat="42.75107" lon="1.61022">
        <ele>1876</ele>
        <time>2020-01-05T10:50:40.000Z</time>
      </trkpt>
      <trkpt lat="42.75106" lon="1.61023">
        <ele>1876</ele>
        <time>2020-01-05T10:50:42.000Z</time>
      </trkpt>
      <trkpt lat="42.75106" lon="1.61024">
        <ele>1876</ele>
        <time>2020-01-05T10:50:44.000Z</time>
      </trkpt>
      <trkpt lat="42.75106" lon="1.61025">
        <ele>1876</ele>
        <time>2020-01-05T10:50:46.000Z</time>
      </trkpt>
      <trkpt lat="42.75106" lon="1.61026">
        <ele>1876</ele>
        <time>2020-01-05T10:50:48.000Z</time>
      </trkpt>
      <trkpt lat="42.75106" lon="1.61026">
        <ele>1876</ele>
        <time>2020-01-05T10:50:50.000Z</time>
      </trkpt>
      <trkpt lat="42.75105" lon="1.61027">
        <ele>1877</ele>
        <time>2020-01-05T10:50:52.000Z</time>
      </trkpt>
      <trkpt lat="42.75105" lon="1.61029">
        <ele>1877</ele>
        <time>2020-01-05T10:50:54.000Z</time>
      </trkpt>
      <trkpt lat="42.75105" lon="1.61029">
        <ele>1877</ele>
        <time>2020-01-05T10:50:56.000Z</time>
      </trkpt>
      <trkpt lat="42.75104" lon="1.6103">
        <ele>1877</ele>
        <time>2020-01-05T10:50:58.000Z</time>
      </trkpt>
      <trkpt lat="42.75104" lon="1.61031">
        <ele>1877</ele>
        <time>2020-01-05T10:51:00.000Z</time>
      </trkpt>
      <trkpt lat="42.75103" lon="1.61031">
        <ele>1877</ele>
        <time>2020-01-05T10:51:02.000Z</time>
      </trkpt>
      <trkpt lat="42.75103" lon="1.61032">
        <ele>1878</ele>
        <time>2020-01-05T10:51:04.000Z</time>
      </trkpt>
      <trkpt lat="42.75102" lon="1.61033">
        <ele>1878</ele>
        <time>2020-01-05T10:51:06.000Z</time>
      </trkpt>
      <trkpt lat="42.75101" lon="1.61034">
        <ele>1878</ele>
        <time>2020-01-05T10:51:08.000Z</time>
      </trkpt>
      <trkpt lat="42.75101" lon="1.61035">
        <ele>1878</ele>
        <time>2020-01-05T10:51:10.000Z</time>
      </trkpt>
      <trkpt lat="42.751" lon="1.61036">
        <ele>1879</ele>
        <time>2020-01-05T10:51:12.000Z</time>
      </trkpt>
      <trkpt lat="42.751" lon="1.61038">
        <ele>1879</ele>
        <time>2020-01-05T10:51:14.000Z</time>
      </trkpt>
      <trkpt lat="42.75099" lon="1.61039">
        <ele>1879</ele>
        <time>2020-01-05T10:51:16.000Z</time>
      </trkpt>
      <trkpt lat="42.75098" lon="1.61041">
        <ele>1880</ele>
        <time>2020-01-05T10:51:18.000Z</time>
      </trkpt>
      <trkpt lat="42.75098" lon="1.61043">
        <ele>1880</ele>
        <time>2020-01-05T10:51:20.000Z</time>
      </trkpt>
      <trkpt lat="42.75097" lon="1.61045">
        <ele>1880</ele>
        <time>2020-01-05T10:51:22.000Z</time>
      </trkpt>
      <trkpt lat="42.75097" lon="1.61046">
        <ele>1881</ele>
        <time>2020-01-05T10:51:24.000Z</time>
      </trkpt>
      <trkpt lat="42.75096" lon="1.61048">
        <ele>1881</ele>
        <time>2020-01-05T10:51:26.000Z</time>
      </trkpt>
      <trkpt lat="42.75096" lon="1.61049">
        <ele>1881</ele>
        <time>2020-01-05T10:51:28.000Z</time>
      </trkpt>
      <trkpt lat="42.75096" lon="1.6105">
        <ele>1881</ele>
        <time>2020-01-05T10:51:30.000Z</time>
      </trkpt>
      <trkpt lat="42.75095" lon="1.61052">
        <ele>1882</ele>
        <time>2020-01-05T10:51:32.000Z</time>
      </trkpt>
      <trkpt lat="42.75094" lon="1.61054">
        <ele>1882</ele>
        <time>2020-01-05T10:51:34.000Z</time>
      </trkpt>
      <trkpt lat="42.75093" lon="1.61055">
        <ele>1882</ele>
        <time>2020-01-05T10:51:36.000Z</time>
      </trkpt>
      <trkpt lat="42.75092" lon="1.61057">
        <ele>1883</ele>
        <time>2020-01-05T10:51:38.000Z</time>
      </trkpt>
      <trkpt lat="42.75091" lon="1.61059">
        <ele>1883</ele>
        <time>2020-01-05T10:51:40.000Z</time>
      </trkpt>
      <trkpt lat="42.7509" lon="1.6106">
        <ele>1883</ele>
        <time>2020-01-05T10:51:42.000Z</time>
      </trkpt>
      <trkpt lat="42.75089" lon="1.61062">
        <ele>1884</ele>
        <time>2020-01-05T10:51:44.000Z</time>
      </trkpt>
      <trkpt lat="42.75088" lon="1.61063">
        <ele>1884</ele>
        <time>2020-01-05T10:51:46.000Z</time>
      </trkpt>
      <trkpt lat="42.75087" lon="1.61066">
        <ele>1885</ele>
        <time>2020-01-05T10:51:48.000Z</time>
      </trkpt>
      <trkpt lat="42.75086" lon="1.61068">
        <ele>1885</ele>
        <time>2020-01-05T10:51:50.000Z</time>
      </trkpt>
      <trkpt lat="42.75085" lon="1.61069">
        <ele>1885</ele>
        <time>2020-01-05T10:51:52.000Z</time>
      </trkpt>
      <trkpt lat="42.75084" lon="1.61071">
        <ele>1885</ele>
        <time>2020-01-05T10:51:54.000Z</time>
      </trkpt>
      <trkpt lat="42.75083" lon="1.61073">
        <ele>1885</ele>
        <time>2020-01-05T10:51:56.000Z</time>
      </trkpt>
      <trkpt lat="42.75082" lon="1.61075">
        <ele>1885</ele>
        <time>2020-01-05T10:51:58.000Z</time>
      </trkpt>
      <trkpt lat="42.75081" lon="1.61077">
        <ele>1885</ele>
        <time>2020-01-05T10:52:00.000Z</time>
      </trkpt>
      <trkpt lat="42.7508" lon="1.61078">
        <ele>1885</ele>
        <time>2020-01-05T10:52:02.000Z</time>
      </trkpt>
      <trkpt lat="42.75079" lon="1.6108">
        <ele>1885</ele>
        <time>2020-01-05T10:52:04.000Z</time>
      </trkpt>
      <trkpt lat="42.75078" lon="1.61082">
        <ele>1885</ele>
        <time>2020-01-05T10:52:06.000Z</time>
      </trkpt>
      <trkpt lat="42.75077" lon="1.61084">
        <ele>1885</ele>
        <time>2020-01-05T10:52:08.000Z</time>
      </trkpt>
      <trkpt lat="42.75076" lon="1.61086">
        <ele>1885</ele>
        <time>2020-01-05T10:52:10.000Z</time>
      </trkpt>
      <trkpt lat="42.75075" lon="1.61088">
        <ele>1885</ele>
        <time>2020-01-05T10:52:12.000Z</time>
      </trkpt>
      <trkpt lat="42.75074" lon="1.6109">
        <ele>1885</ele>
        <time>2020-01-05T10:52:14.000Z</time>
      </trkpt>
      <trkpt lat="42.75073" lon="1.61091">
        <ele>1885</ele>
        <time>2020-01-05T10:52:16.000Z</time>
      </trkpt>
      <trkpt lat="42.75072" lon="1.61093">
        <ele>1885</ele>
        <time>2020-01-05T10:52:18.000Z</time>
      </trkpt>
      <trkpt lat="42.75071" lon="1.61095">
        <ele>1884</ele>
        <time>2020-01-05T10:52:20.000Z</time>
      </trkpt>
      <trkpt lat="42.7507" lon="1.61097">
        <ele>1884</ele>
        <time>2020-01-05T10:52:22.000Z</time>
      </trkpt>
      <trkpt lat="42.75069" lon="1.61098">
        <ele>1884</ele>
        <time>2020-01-05T10:52:24.000Z</time>
      </trkpt>
      <trkpt lat="42.75067" lon="1.61099">
        <ele>1884</ele>
        <time>2020-01-05T10:52:26.000Z</time>
      </trkpt>
      <trkpt lat="42.75066" lon="1.61101">
        <ele>1884</ele>
        <time>2020-01-05T10:52:28.000Z</time>
      </trkpt>
      <trkpt lat="42.75065" lon="1.61103">
        <ele>1884</ele>
        <time>2020-01-05T10:52:30.000Z</time>
      </trkpt>
      <trkpt lat="42.75064" lon="1.61105">
        <ele>1884</ele>
        <time>2020-01-05T10:52:32.000Z</time>
      </trkpt>
      <trkpt lat="42.75063" lon="1.61106">
        <ele>1884</ele>
        <time>2020-01-05T10:52:34.000Z</time>
      </trkpt>
      <trkpt lat="42.75061" lon="1.61108">
        <ele>1884</ele>
        <time>2020-01-05T10:52:36.000Z</time>
      </trkpt>
      <trkpt lat="42.7506" lon="1.61109">
        <ele>1884</ele>
        <time>2020-01-05T10:52:38.000Z</time>
      </trkpt>
      <trkpt lat="42.75059" lon="1.61111">
        <ele>1884</ele>
        <time>2020-01-05T10:52:40.000Z</time>
      </trkpt>
      <trkpt lat="42.75057" lon="1.61113">
        <ele>1884</ele>
        <time>2020-01-05T10:52:42.000Z</time>
      </trkpt>
      <trkpt lat="42.75055" lon="1.61114">
        <ele>1884</ele>
        <time>2020-01-05T10:52:44.000Z</time>
      </trkpt>
      <trkpt lat="42.75054" lon="1.61115">
        <ele>1884</ele>
        <time>2020-01-05T10:52:46.000Z</time>
      </trkpt>
      <trkpt lat="42.75052" lon="1.61117">
        <ele>1884</ele>
        <time>2020-01-05T10:52:48.000Z</time>
      </trkpt>
      <trkpt lat="42.75051" lon="1.61119">
        <ele>1885</ele>
        <time>2020-01-05T10:52:50.000Z</time>
      </trkpt>
      <trkpt lat="42.7505" lon="1.6112">
        <ele>1885</ele>
        <time>2020-01-05T10:52:52.000Z</time>
      </trkpt>
      <trkpt lat="42.75049" lon="1.61122">
        <ele>1885</ele>
        <time>2020-01-05T10:52:54.000Z</time>
      </trkpt>
      <trkpt lat="42.75048" lon="1.61124">
        <ele>1886</ele>
        <time>2020-01-05T10:52:56.000Z</time>
      </trkpt>
      <trkpt lat="42.75046" lon="1.61126">
        <ele>1887</ele>
        <time>2020-01-05T10:52:58.000Z</time>
      </trkpt>
      <trkpt lat="42.75045" lon="1.61127">
        <ele>1887</ele>
        <time>2020-01-05T10:53:00.000Z</time>
      </trkpt>
      <trkpt lat="42.75043" lon="1.61129">
        <ele>1888</ele>
        <time>2020-01-05T10:53:02.000Z</time>
      </trkpt>
      <trkpt lat="42.75042" lon="1.61131">
        <ele>1888</ele>
        <time>2020-01-05T10:53:04.000Z</time>
      </trkpt>
      <trkpt lat="42.7504" lon="1.61132">
        <ele>1889</ele>
        <time>2020-01-05T10:53:06.000Z</time>
      </trkpt>
      <trkpt lat="42.75038" lon="1.61134">
        <ele>1889</ele>
        <time>2020-01-05T10:53:08.000Z</time>
      </trkpt>
      <trkpt lat="42.75037" lon="1.61136">
        <ele>1890</ele>
        <time>2020-01-05T10:53:10.000Z</time>
      </trkpt>
      <trkpt lat="42.75035" lon="1.61138">
        <ele>1890</ele>
        <time>2020-01-05T10:53:12.000Z</time>
      </trkpt>
      <trkpt lat="42.75033" lon="1.6114">
        <ele>1891</ele>
        <time>2020-01-05T10:53:14.000Z</time>
      </trkpt>
      <trkpt lat="42.75032" lon="1.61142">
        <ele>1892</ele>
        <time>2020-01-05T10:53:16.000Z</time>
      </trkpt>
      <trkpt lat="42.75031" lon="1.61144">
        <ele>1892</ele>
        <time>2020-01-05T10:53:18.000Z</time>
      </trkpt>
      <trkpt lat="42.7503" lon="1.61146">
        <ele>1893</ele>
        <time>2020-01-05T10:53:20.000Z</time>
      </trkpt>
      <trkpt lat="42.75028" lon="1.61148">
        <ele>1893</ele>
        <time>2020-01-05T10:53:22.000Z</time>
      </trkpt>
      <trkpt lat="42.75027" lon="1.6115">
        <ele>1894</ele>
        <time>2020-01-05T10:53:24.000Z</time>
      </trkpt>
      <trkpt lat="42.75026" lon="1.61152">
        <ele>1894</ele>
        <time>2020-01-05T10:53:26.000Z</time>
      </trkpt>
      <trkpt lat="42.75025" lon="1.61154">
        <ele>1894</ele>
        <time>2020-01-05T10:53:28.000Z</time>
      </trkpt>
      <trkpt lat="42.75024" lon="1.61156">
        <ele>1894</ele>
        <time>2020-01-05T10:53:30.000Z</time>
      </trkpt>
      <trkpt lat="42.75023" lon="1.61158">
        <ele>1893</ele>
        <time>2020-01-05T10:53:32.000Z</time>
      </trkpt>
      <trkpt lat="42.75022" lon="1.61161">
        <ele>1893</ele>
        <time>2020-01-05T10:53:34.000Z</time>
      </trkpt>
      <trkpt lat="42.75021" lon="1.61163">
        <ele>1892</ele>
        <time>2020-01-05T10:53:36.000Z</time>
      </trkpt>
      <trkpt lat="42.7502" lon="1.61165">
        <ele>1892</ele>
        <time>2020-01-05T10:53:38.000Z</time>
      </trkpt>
      <trkpt lat="42.75019" lon="1.61168">
        <ele>1892</ele>
        <time>2020-01-05T10:53:40.000Z</time>
      </trkpt>
      <trkpt lat="42.75018" lon="1.6117">
        <ele>1892</ele>
        <time>2020-01-05T10:53:42.000Z</time>
      </trkpt>
      <trkpt lat="42.75017" lon="1.61173">
        <ele>1892</ele>
        <time>2020-01-05T10:53:44.000Z</time>
      </trkpt>
      <trkpt lat="42.75017" lon="1.61175">
        <ele>1892</ele>
        <time>2020-01-05T10:53:46.000Z</time>
      </trkpt>
      <trkpt lat="42.75016" lon="1.61178">
        <ele>1893</ele>
        <time>2020-01-05T10:53:48.000Z</time>
      </trkpt>
      <trkpt lat="42.75015" lon="1.6118">
        <ele>1893</ele>
        <time>2020-01-05T10:53:50.000Z</time>
      </trkpt>
      <trkpt lat="42.75014" lon="1.61182">
        <ele>1893</ele>
        <time>2020-01-05T10:53:52.000Z</time>
      </trkpt>
      <trkpt lat="42.75013" lon="1.61185">
        <ele>1894</ele>
        <time>2020-01-05T10:53:54.000Z</time>
      </trkpt>
      <trkpt lat="42.75011" lon="1.61187">
        <ele>1895</ele>
        <time>2020-01-05T10:53:56.000Z</time>
      </trkpt>
      <trkpt lat="42.75009" lon="1.61189">
        <ele>1895</ele>
        <time>2020-01-05T10:53:58.000Z</time>
      </trkpt>
      <trkpt lat="42.75008" lon="1.61191">
        <ele>1896</ele>
        <time>2020-01-05T10:54:00.000Z</time>
      </trkpt>
      <trkpt lat="42.75006" lon="1.61193">
        <ele>1897</ele>
        <time>2020-01-05T10:54:02.000Z</time>
      </trkpt>
      <trkpt lat="42.75005" lon="1.61195">
        <ele>1897</ele>
        <time>2020-01-05T10:54:04.000Z</time>
      </trkpt>
      <trkpt lat="42.75003" lon="1.61197">
        <ele>1897</ele>
        <time>2020-01-05T10:54:06.000Z</time>
      </trkpt>
      <trkpt lat="42.75001" lon="1.61199">
        <ele>1897</ele>
        <time>2020-01-05T10:54:08.000Z</time>
      </trkpt>
      <trkpt lat="42.75" lon="1.61202">
        <ele>1897</ele>
        <time>2020-01-05T10:54:10.000Z</time>
      </trkpt>
      <trkpt lat="42.74998" lon="1.61204">
        <ele>1897</ele>
        <time>2020-01-05T10:54:12.000Z</time>
      </trkpt>
      <trkpt lat="42.74997" lon="1.61207">
        <ele>1897</ele>
        <time>2020-01-05T10:54:14.000Z</time>
      </trkpt>
      <trkpt lat="42.74996" lon="1.61209">
        <ele>1896</ele>
        <time>2020-01-05T10:54:16.000Z</time>
      </trkpt>
      <trkpt lat="42.74994" lon="1.61211">
        <ele>1896</ele>
        <time>2020-01-05T10:54:18.000Z</time>
      </trkpt>
      <trkpt lat="42.74992" lon="1.61214">
        <ele>1896</ele>
        <time>2020-01-05T10:54:20.000Z</time>
      </trkpt>
      <trkpt lat="42.74991" lon="1.61217">
        <ele>1896</ele>
        <time>2020-01-05T10:54:22.000Z</time>
      </trkpt>
      <trkpt lat="42.7499" lon="1.61219">
        <ele>1895</ele>
        <time>2020-01-05T10:54:24.000Z</time>
      </trkpt>
      <trkpt lat="42.74988" lon="1.61222">
        <ele>1895</ele>
        <time>2020-01-05T10:54:26.000Z</time>
      </trkpt>
      <trkpt lat="42.74987" lon="1.61224">
        <ele>1895</ele>
        <time>2020-01-05T10:54:28.000Z</time>
      </trkpt>
      <trkpt lat="42.74986" lon="1.61228">
        <ele>1896</ele>
        <time>2020-01-05T10:54:30.000Z</time>
      </trkpt>
      <trkpt lat="42.74985" lon="1.61231">
        <ele>1896</ele>
        <time>2020-01-05T10:54:32.000Z</time>
      </trkpt>
      <trkpt lat="42.74985" lon="1.61234">
        <ele>1896</ele>
        <time>2020-01-05T10:54:34.000Z</time>
      </trkpt>
      <trkpt lat="42.74984" lon="1.61238">
        <ele>1895</ele>
        <time>2020-01-05T10:54:36.000Z</time>
      </trkpt>
      <trkpt lat="42.74984" lon="1.61242">
        <ele>1894</ele>
        <time>2020-01-05T10:54:38.000Z</time>
      </trkpt>
      <trkpt lat="42.74984" lon="1.61245">
        <ele>1894</ele>
        <time>2020-01-05T10:54:40.000Z</time>
      </trkpt>
      <trkpt lat="42.74984" lon="1.61249">
        <ele>1893</ele>
        <time>2020-01-05T10:54:42.000Z</time>
      </trkpt>
      <trkpt lat="42.74983" lon="1.61252">
        <ele>1892</ele>
        <time>2020-01-05T10:54:44.000Z</time>
      </trkpt>
      <trkpt lat="42.74982" lon="1.61256">
        <ele>1891</ele>
        <time>2020-01-05T10:54:46.000Z</time>
      </trkpt>
      <trkpt lat="42.7498" lon="1.6126">
        <ele>1891</ele>
        <time>2020-01-05T10:54:48.000Z</time>
      </trkpt>
      <trkpt lat="42.74979" lon="1.61263">
        <ele>1890</ele>
        <time>2020-01-05T10:54:50.000Z</time>
      </trkpt>
      <trkpt lat="42.74978" lon="1.61267">
        <ele>1889</ele>
        <time>2020-01-05T10:54:52.000Z</time>
      </trkpt>
      <trkpt lat="42.74977" lon="1.6127">
        <ele>1888</ele>
        <time>2020-01-05T10:54:54.000Z</time>
      </trkpt>
      <trkpt lat="42.74976" lon="1.61273">
        <ele>1888</ele>
        <time>2020-01-05T10:54:56.000Z</time>
      </trkpt>
      <trkpt lat="42.74976" lon="1.61277">
        <ele>1887</ele>
        <time>2020-01-05T10:54:58.000Z</time>
      </trkpt>
      <trkpt lat="42.74975" lon="1.6128">
        <ele>1886</ele>
        <time>2020-01-05T10:55:00.000Z</time>
      </trkpt>
      <trkpt lat="42.74973" lon="1.61283">
        <ele>1885</ele>
        <time>2020-01-05T10:55:02.000Z</time>
      </trkpt>
      <trkpt lat="42.74972" lon="1.61286">
        <ele>1885</ele>
        <time>2020-01-05T10:55:04.000Z</time>
      </trkpt>
      <trkpt lat="42.74971" lon="1.61289">
        <ele>1885</ele>
        <time>2020-01-05T10:55:06.000Z</time>
      </trkpt>
      <trkpt lat="42.74969" lon="1.61291">
        <ele>1885</ele>
        <time>2020-01-05T10:55:08.000Z</time>
      </trkpt>
      <trkpt lat="42.74967" lon="1.61293">
        <ele>1885</ele>
        <time>2020-01-05T10:55:10.000Z</time>
      </trkpt>
      <trkpt lat="42.74965" lon="1.61295">
        <ele>1885</ele>
        <time>2020-01-05T10:55:12.000Z</time>
      </trkpt>
      <trkpt lat="42.74963" lon="1.61296">
        <ele>1885</ele>
        <time>2020-01-05T10:55:14.000Z</time>
      </trkpt>
      <trkpt lat="42.74962" lon="1.61299">
        <ele>1885</ele>
        <time>2020-01-05T10:55:16.000Z</time>
      </trkpt>
      <trkpt lat="42.7496" lon="1.61302">
        <ele>1885</ele>
        <time>2020-01-05T10:55:18.000Z</time>
      </trkpt>
      <trkpt lat="42.74959" lon="1.61304">
        <ele>1885</ele>
        <time>2020-01-05T10:55:20.000Z</time>
      </trkpt>
      <trkpt lat="42.74958" lon="1.61306">
        <ele>1885</ele>
        <time>2020-01-05T10:55:22.000Z</time>
      </trkpt>
      <trkpt lat="42.74957" lon="1.61309">
        <ele>1885</ele>
        <time>2020-01-05T10:55:24.000Z</time>
      </trkpt>
      <trkpt lat="42.74956" lon="1.61311">
        <ele>1884</ele>
        <time>2020-01-05T10:55:26.000Z</time>
      </trkpt>
      <trkpt lat="42.74955" lon="1.61314">
        <ele>1884</ele>
        <time>2020-01-05T10:55:28.000Z</time>
      </trkpt>
      <trkpt lat="42.74954" lon="1.61316">
        <ele>1884</ele>
        <time>2020-01-05T10:55:30.000Z</time>
      </trkpt>
      <trkpt lat="42.74953" lon="1.61317">
        <ele>1884</ele>
        <time>2020-01-05T10:55:32.000Z</time>
      </trkpt>
      <trkpt lat="42.74952" lon="1.61318">
        <ele>1884</ele>
        <time>2020-01-05T10:55:34.000Z</time>
      </trkpt>
      <trkpt lat="42.74951" lon="1.6132">
        <ele>1884</ele>
        <time>2020-01-05T10:55:36.000Z</time>
      </trkpt>
      <trkpt lat="42.7495" lon="1.61321">
        <ele>1884</ele>
        <time>2020-01-05T10:55:38.000Z</time>
      </trkpt>
      <trkpt lat="42.74948" lon="1.61323">
        <ele>1883</ele>
        <time>2020-01-05T10:55:40.000Z</time>
      </trkpt>
      <trkpt lat="42.74948" lon="1.61324">
        <ele>1883</ele>
        <time>2020-01-05T10:55:42.000Z</time>
      </trkpt>
      <trkpt lat="42.74947" lon="1.61325">
        <ele>1883</ele>
        <time>2020-01-05T10:55:44.000Z</time>
      </trkpt>
      <trkpt lat="42.74947" lon="1.61326">
        <ele>1883</ele>
        <time>2020-01-05T10:55:46.000Z</time>
      </trkpt>
      <trkpt lat="42.74946" lon="1.61326">
        <ele>1883</ele>
        <time>2020-01-05T10:55:48.000Z</time>
      </trkpt>
      <trkpt lat="42.74946" lon="1.61327">
        <ele>1883</ele>
        <time>2020-01-05T10:55:50.000Z</time>
      </trkpt>
      <trkpt lat="42.74945" lon="1.61327">
        <ele>1883</ele>
        <time>2020-01-05T10:55:52.000Z</time>
      </trkpt>
      <trkpt lat="42.74945" lon="1.61328">
        <ele>1882</ele>
        <time>2020-01-05T10:55:54.000Z</time>
      </trkpt>
      <trkpt lat="42.74945" lon="1.61327">
        <ele>1883</ele>
        <time>2020-01-05T10:55:56.000Z</time>
      </trkpt>
      <trkpt lat="42.74944" lon="1.61328">
        <ele>1882</ele>
        <time>2020-01-05T10:55:58.000Z</time>
      </trkpt>
      <trkpt lat="42.74943" lon="1.61328">
        <ele>1883</ele>
        <time>2020-01-05T10:56:00.000Z</time>
      </trkpt>
      <trkpt lat="42.74943" lon="1.61328">
        <ele>1882</ele>
        <time>2020-01-05T10:56:02.000Z</time>
      </trkpt>
      <trkpt lat="42.74943" lon="1.61328">
        <ele>1883</ele>
        <time>2020-01-05T10:56:04.000Z</time>
      </trkpt>
      <trkpt lat="42.74942" lon="1.61328">
        <ele>1883</ele>
        <time>2020-01-05T10:56:06.000Z</time>
      </trkpt>
      <trkpt lat="42.74942" lon="1.61328">
        <ele>1883</ele>
        <time>2020-01-05T10:56:08.000Z</time>
      </trkpt>
      <trkpt lat="42.74942" lon="1.61328">
        <ele>1883</ele>
        <time>2020-01-05T10:56:10.000Z</time>
      </trkpt>
      <trkpt lat="42.74942" lon="1.61328">
        <ele>1883</ele>
        <time>2020-01-05T10:56:12.000Z</time>
      </trkpt>
      <trkpt lat="42.74942" lon="1.61328">
        <ele>1883</ele>
        <time>2020-01-05T10:56:14.000Z</time>
      </trkpt>
      <trkpt lat="42.74942" lon="1.61327">
        <ele>1883</ele>
        <time>2020-01-05T10:56:16.000Z</time>
      </trkpt>
      <trkpt lat="42.74943" lon="1.61327">
        <ele>1883</ele>
        <time>2020-01-05T10:56:18.000Z</time>
      </trkpt>
      <trkpt lat="42.74944" lon="1.61328">
        <ele>1882</ele>
        <time>2020-01-05T10:56:20.000Z</time>
      </trkpt>
      <trkpt lat="42.74946" lon="1.61328">
        <ele>1882</ele>
        <time>2020-01-05T10:56:22.000Z</time>
      </trkpt>
      <trkpt lat="42.74947" lon="1.61327">
        <ele>1882</ele>
        <time>2020-01-05T10:56:24.000Z</time>
      </trkpt>
      <trkpt lat="42.74949" lon="1.61327">
        <ele>1882</ele>
        <time>2020-01-05T10:56:26.000Z</time>
      </trkpt>
      <trkpt lat="42.74949" lon="1.61327">
        <ele>1882</ele>
        <time>2020-01-05T10:56:28.000Z</time>
      </trkpt>
      <trkpt lat="42.74949" lon="1.61326">
        <ele>1882</ele>
        <time>2020-01-05T10:56:30.000Z</time>
      </trkpt>
      <trkpt lat="42.74949" lon="1.61326">
        <ele>1883</ele>
        <time>2020-01-05T10:56:32.000Z</time>
      </trkpt>
      <trkpt lat="42.74949" lon="1.61326">
        <ele>1883</ele>
        <time>2020-01-05T10:56:34.000Z</time>
      </trkpt>
      <trkpt lat="42.74949" lon="1.61326">
        <ele>1883</ele>
        <time>2020-01-05T10:56:36.000Z</time>
      </trkpt>
      <trkpt lat="42.74949" lon="1.61326">
        <ele>1883</ele>
        <time>2020-01-05T10:56:38.000Z</time>
      </trkpt>
      <trkpt lat="42.74948" lon="1.61326">
        <ele>1883</ele>
        <time>2020-01-05T10:56:40.000Z</time>
      </trkpt>
      <trkpt lat="42.74948" lon="1.61326">
        <ele>1883</ele>
        <time>2020-01-05T10:56:42.000Z</time>
      </trkpt>
      <trkpt lat="42.74947" lon="1.61327">
        <ele>1882</ele>
        <time>2020-01-05T10:56:44.000Z</time>
      </trkpt>
      <trkpt lat="42.74946" lon="1.61326">
        <ele>1883</ele>
        <time>2020-01-05T10:56:46.000Z</time>
      </trkpt>
      <trkpt lat="42.74945" lon="1.61325">
        <ele>1883</ele>
        <time>2020-01-05T10:56:48.000Z</time>
      </trkpt>
      <trkpt lat="42.74944" lon="1.61325">
        <ele>1883</ele>
        <time>2020-01-05T10:56:50.000Z</time>
      </trkpt>
      <trkpt lat="42.74943" lon="1.61324">
        <ele>1884</ele>
        <time>2020-01-05T10:56:52.000Z</time>
      </trkpt>
      <trkpt lat="42.74942" lon="1.61324">
        <ele>1884</ele>
        <time>2020-01-05T10:56:54.000Z</time>
      </trkpt>
      <trkpt lat="42.74942" lon="1.61324">
        <ele>1884</ele>
        <time>2020-01-05T10:56:56.000Z</time>
      </trkpt>
      <trkpt lat="42.74941" lon="1.61324">
        <ele>1884</ele>
        <time>2020-01-05T10:56:58.000Z</time>
      </trkpt>
      <trkpt lat="42.74941" lon="1.61324">
        <ele>1884</ele>
        <time>2020-01-05T10:57:00.000Z</time>
      </trkpt>
      <trkpt lat="42.7494" lon="1.61323">
        <ele>1884</ele>
        <time>2020-01-05T10:57:02.000Z</time>
      </trkpt>
      <trkpt lat="42.74939" lon="1.61323">
        <ele>1884</ele>
        <time>2020-01-05T10:57:04.000Z</time>
      </trkpt>
      <trkpt lat="42.74939" lon="1.61322">
        <ele>1885</ele>
        <time>2020-01-05T10:57:06.000Z</time>
      </trkpt>
      <trkpt lat="42.74938" lon="1.61322">
        <ele>1885</ele>
        <time>2020-01-05T10:57:08.000Z</time>
      </trkpt>
      <trkpt lat="42.74937" lon="1.61322">
        <ele>1885</ele>
        <time>2020-01-05T10:57:10.000Z</time>
      </trkpt>
      <trkpt lat="42.74936" lon="1.61321">
        <ele>1885</ele>
        <time>2020-01-05T10:57:12.000Z</time>
      </trkpt>
      <trkpt lat="42.74936" lon="1.6132">
        <ele>1885</ele>
        <time>2020-01-05T10:57:14.000Z</time>
      </trkpt>
      <trkpt lat="42.74935" lon="1.61319">
        <ele>1886</ele>
        <time>2020-01-05T10:57:16.000Z</time>
      </trkpt>
      <trkpt lat="42.74934" lon="1.61318">
        <ele>1886</ele>
        <time>2020-01-05T10:57:18.000Z</time>
      </trkpt>
      <trkpt lat="42.74933" lon="1.61317">
        <ele>1886</ele>
        <time>2020-01-05T10:57:20.000Z</time>
      </trkpt>
      <trkpt lat="42.74932" lon="1.61316">
        <ele>1886</ele>
        <time>2020-01-05T10:57:22.000Z</time>
      </trkpt>
      <trkpt lat="42.7493" lon="1.61315">
        <ele>1886</ele>
        <time>2020-01-05T10:57:24.000Z</time>
      </trkpt>
      <trkpt lat="42.74929" lon="1.61314">
        <ele>1887</ele>
        <time>2020-01-05T10:57:26.000Z</time>
      </trkpt>
      <trkpt lat="42.74928" lon="1.61312">
        <ele>1887</ele>
        <time>2020-01-05T10:57:28.000Z</time>
      </trkpt>
      <trkpt lat="42.74927" lon="1.6131">
        <ele>1887</ele>
        <time>2020-01-05T10:57:30.000Z</time>
      </trkpt>
      <trkpt lat="42.74928" lon="1.61309">
        <ele>1887</ele>
        <time>2020-01-05T10:57:32.000Z</time>
      </trkpt>
      <trkpt lat="42.74928" lon="1.61308">
        <ele>1887</ele>
        <time>2020-01-05T10:57:34.000Z</time>
      </trkpt>
      <trkpt lat="42.74929" lon="1.61307">
        <ele>1887</ele>
        <time>2020-01-05T10:57:36.000Z</time>
      </trkpt>
      <trkpt lat="42.74929" lon="1.61306">
        <ele>1887</ele>
        <time>2020-01-05T10:57:38.000Z</time>
      </trkpt>
      <trkpt lat="42.74929" lon="1.61306">
        <ele>1887</ele>
        <time>2020-01-05T10:57:40.000Z</time>
      </trkpt>
      <trkpt lat="42.74929" lon="1.61305">
        <ele>1887</ele>
        <time>2020-01-05T10:57:42.000Z</time>
      </trkpt>
      <trkpt lat="42.74929" lon="1.61304">
        <ele>1887</ele>
        <time>2020-01-05T10:57:44.000Z</time>
      </trkpt>
      <trkpt lat="42.74929" lon="1.61304">
        <ele>1887</ele>
        <time>2020-01-05T10:57:46.000Z</time>
      </trkpt>
      <trkpt lat="42.7493" lon="1.61304">
        <ele>1887</ele>
        <time>2020-01-05T10:57:48.000Z</time>
      </trkpt>
      <trkpt lat="42.7493" lon="1.61303">
        <ele>1887</ele>
        <time>2020-01-05T10:57:50.000Z</time>
      </trkpt>
      <trkpt lat="42.7493" lon="1.61302">
        <ele>1887</ele>
        <time>2020-01-05T10:57:52.000Z</time>
      </trkpt>
      <trkpt lat="42.74929" lon="1.613">
        <ele>1887</ele>
        <time>2020-01-05T10:57:54.000Z</time>
      </trkpt>
      <trkpt lat="42.74929" lon="1.61299">
        <ele>1888</ele>
        <time>2020-01-05T10:57:56.000Z</time>
      </trkpt>
      <trkpt lat="42.74929" lon="1.61298">
        <ele>1888</ele>
        <time>2020-01-05T10:57:58.000Z</time>
      </trkpt>
      <trkpt lat="42.74929" lon="1.61297">
        <ele>1888</ele>
        <time>2020-01-05T10:58:00.000Z</time>
      </trkpt>
      <trkpt lat="42.74928" lon="1.61297">
        <ele>1888</ele>
        <time>2020-01-05T10:58:02.000Z</time>
      </trkpt>
      <trkpt lat="42.74927" lon="1.61297">
        <ele>1888</ele>
        <time>2020-01-05T10:58:04.000Z</time>
      </trkpt>
      <trkpt lat="42.74927" lon="1.61297">
        <ele>1888</ele>
        <time>2020-01-05T10:58:06.000Z</time>
      </trkpt>
      <trkpt lat="42.74926" lon="1.61297">
        <ele>1888</ele>
        <time>2020-01-05T10:58:08.000Z</time>
      </trkpt>
      <trkpt lat="42.74925" lon="1.61297">
        <ele>1888</ele>
        <time>2020-01-05T10:58:10.000Z</time>
      </trkpt>
      <trkpt lat="42.74926" lon="1.61297">
        <ele>1888</ele>
        <time>2020-01-05T10:58:12.000Z</time>
      </trkpt>
      <trkpt lat="42.74925" lon="1.61297">
        <ele>1888</ele>
        <time>2020-01-05T10:58:14.000Z</time>
      </trkpt>
      <trkpt lat="42.74925" lon="1.61297">
        <ele>1888</ele>
        <time>2020-01-05T10:58:16.000Z</time>
      </trkpt>
      <trkpt lat="42.74925" lon="1.61297">
        <ele>1888</ele>
        <time>2020-01-05T10:58:18.000Z</time>
      </trkpt>
      <trkpt lat="42.74924" lon="1.61296">
        <ele>1888</ele>
        <time>2020-01-05T10:58:20.000Z</time>
      </trkpt>
      <trkpt lat="42.74924" lon="1.61296">
        <ele>1888</ele>
        <time>2020-01-05T10:58:22.000Z</time>
      </trkpt>
      <trkpt lat="42.74924" lon="1.61295">
        <ele>1888</ele>
        <time>2020-01-05T10:58:24.000Z</time>
      </trkpt>
      <trkpt lat="42.74924" lon="1.61295">
        <ele>1888</ele>
        <time>2020-01-05T10:58:26.000Z</time>
      </trkpt>
      <trkpt lat="42.74925" lon="1.61295">
        <ele>1888</ele>
        <time>2020-01-05T10:58:28.000Z</time>
      </trkpt>
      <trkpt lat="42.74924" lon="1.61296">
        <ele>1888</ele>
        <time>2020-01-05T10:58:30.000Z</time>
      </trkpt>
      <trkpt lat="42.74924" lon="1.61296">
        <ele>1888</ele>
        <time>2020-01-05T10:58:32.000Z</time>
      </trkpt>
      <trkpt lat="42.74924" lon="1.61296">
        <ele>1888</ele>
        <time>2020-01-05T10:58:34.000Z</time>
      </trkpt>
      <trkpt lat="42.74924" lon="1.61295">
        <ele>1888</ele>
        <time>2020-01-05T10:58:36.000Z</time>
      </trkpt>
      <trkpt lat="42.74924" lon="1.61295">
        <ele>1888</ele>
        <time>2020-01-05T10:58:38.000Z</time>
      </trkpt>
      <trkpt lat="42.74924" lon="1.61296">
        <ele>1888</ele>
        <time>2020-01-05T10:58:40.000Z</time>
      </trkpt>
      <trkpt lat="42.74924" lon="1.61296">
        <ele>1888</ele>
        <time>2020-01-05T10:58:42.000Z</time>
      </trkpt>
      <trkpt lat="42.74924" lon="1.61296">
        <ele>1888</ele>
        <time>2020-01-05T10:58:44.000Z</time>
      </trkpt>
      <trkpt lat="42.74924" lon="1.61296">
        <ele>1888</ele>
        <time>2020-01-05T10:58:46.000Z</time>
      </trkpt>
      <trkpt lat="42.74925" lon="1.61296">
        <ele>1888</ele>
        <time>2020-01-05T10:58:48.000Z</time>
      </trkpt>
      <trkpt lat="42.74925" lon="1.61296">
        <ele>1888</ele>
        <time>2020-01-05T10:58:50.000Z</time>
      </trkpt>
      <trkpt lat="42.74925" lon="1.61296">
        <ele>1888</ele>
        <time>2020-01-05T10:58:52.000Z</time>
      </trkpt>
      <trkpt lat="42.74925" lon="1.61296">
        <ele>1888</ele>
        <time>2020-01-05T10:58:54.000Z</time>
      </trkpt>
      <trkpt lat="42.74925" lon="1.61296">
        <ele>1888</ele>
        <time>2020-01-05T10:58:56.000Z</time>
      </trkpt>
      <trkpt lat="42.74925" lon="1.61296">
        <ele>1888</ele>
        <time>2020-01-05T10:58:58.000Z</time>
      </trkpt>
      <trkpt lat="42.74925" lon="1.61296">
        <ele>1888</ele>
        <time>2020-01-05T10:59:00.000Z</time>
      </trkpt>
      <trkpt lat="42.74925" lon="1.61296">
        <ele>1888</ele>
        <time>2020-01-05T10:59:02.000Z</time>
      </trkpt>
      <trkpt lat="42.74925" lon="1.61296">
        <ele>1888</ele>
        <time>2020-01-05T10:59:04.000Z</time>
      </trkpt>
      <trkpt lat="42.74925" lon="1.61297">
        <ele>1888</ele>
        <time>2020-01-05T10:59:06.000Z</time>
      </trkpt>
      <trkpt lat="42.74925" lon="1.61297">
        <ele>1888</ele>
        <time>2020-01-05T10:59:08.000Z</time>
      </trkpt>
      <trkpt lat="42.74925" lon="1.61297">
        <ele>1888</ele>
        <time>2020-01-05T10:59:10.000Z</time>
      </trkpt>
      <trkpt lat="42.74925" lon="1.61297">
        <ele>1888</ele>
        <time>2020-01-05T10:59:12.000Z</time>
      </trkpt>
      <trkpt lat="42.74925" lon="1.61297">
        <ele>1888</ele>
        <time>2020-01-05T10:59:14.000Z</time>
      </trkpt>
      <trkpt lat="42.74925" lon="1.61297">
        <ele>1888</ele>
        <time>2020-01-05T10:59:16.000Z</time>
      </trkpt>
      <trkpt lat="42.74925" lon="1.61297">
        <ele>1888</ele>
        <time>2020-01-05T10:59:18.000Z</time>
      </trkpt>
      <trkpt lat="42.74925" lon="1.61297">
        <ele>1888</ele>
        <time>2020-01-05T10:59:20.000Z</time>
      </trkpt>
      <trkpt lat="42.74925" lon="1.61298">
        <ele>1888</ele>
        <time>2020-01-05T10:59:22.000Z</time>
      </trkpt>
      <trkpt lat="42.74925" lon="1.61297">
        <ele>1888</ele>
        <time>2020-01-05T10:59:24.000Z</time>
      </trkpt>
      <trkpt lat="42.74925" lon="1.61297">
        <ele>1888</ele>
        <time>2020-01-05T10:59:26.000Z</time>
      </trkpt>
      <trkpt lat="42.74925" lon="1.61297">
        <ele>1888</ele>
        <time>2020-01-05T10:59:28.000Z</time>
      </trkpt>
      <trkpt lat="42.74925" lon="1.61298">
        <ele>1888</ele>
        <time>2020-01-05T10:59:30.000Z</time>
      </trkpt>
      <trkpt lat="42.74925" lon="1.61297">
        <ele>1888</ele>
        <time>2020-01-05T10:59:32.000Z</time>
      </trkpt>
      <trkpt lat="42.74925" lon="1.61297">
        <ele>1888</ele>
        <time>2020-01-05T10:59:34.000Z</time>
      </trkpt>
      <trkpt lat="42.74924" lon="1.61297">
        <ele>1888</ele>
        <time>2020-01-05T10:59:36.000Z</time>
      </trkpt>
      <trkpt lat="42.74925" lon="1.61297">
        <ele>1888</ele>
        <time>2020-01-05T10:59:38.000Z</time>
      </trkpt>
      <trkpt lat="42.74925" lon="1.61297">
        <ele>1888</ele>
        <time>2020-01-05T10:59:40.000Z</time>
      </trkpt>
      <trkpt lat="42.74925" lon="1.61297">
        <ele>1888</ele>
        <time>2020-01-05T10:59:42.000Z</time>
      </trkpt>
      <trkpt lat="42.74925" lon="1.61298">
        <ele>1888</ele>
        <time>2020-01-05T10:59:44.000Z</time>
      </trkpt>
      <trkpt lat="42.74925" lon="1.61298">
        <ele>1888</ele>
        <time>2020-01-05T10:59:46.000Z</time>
      </trkpt>
      <trkpt lat="42.74924" lon="1.61298">
        <ele>1888</ele>
        <time>2020-01-05T10:59:48.000Z</time>
      </trkpt>
      <trkpt lat="42.74925" lon="1.61298">
        <ele>1888</ele>
        <time>2020-01-05T10:59:50.000Z</time>
      </trkpt>
      <trkpt lat="42.74925" lon="1.61298">
        <ele>1888</ele>
        <time>2020-01-05T10:59:52.000Z</time>
      </trkpt>
      <trkpt lat="42.74924" lon="1.61298">
        <ele>1888</ele>
        <time>2020-01-05T10:59:54.000Z</time>
      </trkpt>
      <trkpt lat="42.74924" lon="1.61298">
        <ele>1888</ele>
        <time>2020-01-05T10:59:56.000Z</time>
      </trkpt>
      <trkpt lat="42.74925" lon="1.61297">
        <ele>1888</ele>
        <time>2020-01-05T10:59:58.000Z</time>
      </trkpt>
      <trkpt lat="42.74925" lon="1.61297">
        <ele>1888</ele>
        <time>2020-01-05T11:00:00.000Z</time>
      </trkpt>
      <trkpt lat="42.74925" lon="1.61297">
        <ele>1888</ele>
        <time>2020-01-05T11:00:02.000Z</time>
      </trkpt>
      <trkpt lat="42.74924" lon="1.61297">
        <ele>1888</ele>
        <time>2020-01-05T11:00:04.000Z</time>
      </trkpt>
      <trkpt lat="42.74924" lon="1.61297">
        <ele>1888</ele>
        <time>2020-01-05T11:00:06.000Z</time>
      </trkpt>
      <trkpt lat="42.74924" lon="1.61297">
        <ele>1888</ele>
        <time>2020-01-05T11:00:08.000Z</time>
      </trkpt>
      <trkpt lat="42.74925" lon="1.61297">
        <ele>1888</ele>
        <time>2020-01-05T11:00:10.000Z</time>
      </trkpt>
      <trkpt lat="42.74925" lon="1.61296">
        <ele>1888</ele>
        <time>2020-01-05T11:00:12.000Z</time>
      </trkpt>
      <trkpt lat="42.74925" lon="1.61297">
        <ele>1888</ele>
        <time>2020-01-05T11:00:14.000Z</time>
      </trkpt>
      <trkpt lat="42.74924" lon="1.61296">
        <ele>1888</ele>
        <time>2020-01-05T11:00:16.000Z</time>
      </trkpt>
      <trkpt lat="42.74924" lon="1.61296">
        <ele>1888</ele>
        <time>2020-01-05T11:00:18.000Z</time>
      </trkpt>
      <trkpt lat="42.74924" lon="1.61297">
        <ele>1888</ele>
        <time>2020-01-05T11:00:20.000Z</time>
      </trkpt>
      <trkpt lat="42.74925" lon="1.61297">
        <ele>1888</ele>
        <time>2020-01-05T11:00:22.000Z</time>
      </trkpt>
      <trkpt lat="42.74924" lon="1.61296">
        <ele>1888</ele>
        <time>2020-01-05T11:00:24.000Z</time>
      </trkpt>
      <trkpt lat="42.74924" lon="1.61297">
        <ele>1888</ele>
        <time>2020-01-05T11:00:26.000Z</time>
      </trkpt>
      <trkpt lat="42.74924" lon="1.61296">
        <ele>1888</ele>
        <time>2020-01-05T11:00:28.000Z</time>
      </trkpt>
      <trkpt lat="42.74925" lon="1.61296">
        <ele>1888</ele>
        <time>2020-01-05T11:00:30.000Z</time>
      </trkpt>
      <trkpt lat="42.74925" lon="1.61296">
        <ele>1888</ele>
        <time>2020-01-05T11:00:32.000Z</time>
      </trkpt>
      <trkpt lat="42.74925" lon="1.61297">
        <ele>1888</ele>
        <time>2020-01-05T11:00:34.000Z</time>
      </trkpt>
      <trkpt lat="42.74925" lon="1.61297">
        <ele>1888</ele>
        <time>2020-01-05T11:00:36.000Z</time>
      </trkpt>
      <trkpt lat="42.74925" lon="1.61297">
        <ele>1888</ele>
        <time>2020-01-05T11:00:38.000Z</time>
      </trkpt>
      <trkpt lat="42.74925" lon="1.61297">
        <ele>1888</ele>
        <time>2020-01-05T11:00:40.000Z</time>
      </trkpt>
      <trkpt lat="42.74925" lon="1.61297">
        <ele>1888</ele>
        <time>2020-01-05T11:00:42.000Z</time>
      </trkpt>
      <trkpt lat="42.74925" lon="1.61296">
        <ele>1888</ele>
        <time>2020-01-05T11:00:44.000Z</time>
      </trkpt>
      <trkpt lat="42.74925" lon="1.61296">
        <ele>1888</ele>
        <time>2020-01-05T11:00:46.000Z</time>
      </trkpt>
      <trkpt lat="42.74925" lon="1.61296">
        <ele>1888</ele>
        <time>2020-01-05T11:00:48.000Z</time>
      </trkpt>
      <trkpt lat="42.74925" lon="1.61296">
        <ele>1888</ele>
        <time>2020-01-05T11:00:50.000Z</time>
      </trkpt>
      <trkpt lat="42.74925" lon="1.61296">
        <ele>1888</ele>
        <time>2020-01-05T11:00:52.000Z</time>
      </trkpt>
      <trkpt lat="42.74925" lon="1.61296">
        <ele>1888</ele>
        <time>2020-01-05T11:00:54.000Z</time>
      </trkpt>
      <trkpt lat="42.74925" lon="1.61296">
        <ele>1888</ele>
        <time>2020-01-05T11:00:56.000Z</time>
      </trkpt>
      <trkpt lat="42.74925" lon="1.61297">
        <ele>1888</ele>
        <time>2020-01-05T11:00:58.000Z</time>
      </trkpt>
      <trkpt lat="42.74925" lon="1.61296">
        <ele>1888</ele>
        <time>2020-01-05T11:01:00.000Z</time>
      </trkpt>
      <trkpt lat="42.74925" lon="1.61295">
        <ele>1888</ele>
        <time>2020-01-05T11:01:02.000Z</time>
      </trkpt>
      <trkpt lat="42.74925" lon="1.61295">
        <ele>1888</ele>
        <time>2020-01-05T11:01:04.000Z</time>
      </trkpt>
      <trkpt lat="42.74926" lon="1.61295">
        <ele>1888</ele>
        <time>2020-01-05T11:01:06.000Z</time>
      </trkpt>
      <trkpt lat="42.74926" lon="1.61295">
        <ele>1888</ele>
        <time>2020-01-05T11:01:08.000Z</time>
      </trkpt>
      <trkpt lat="42.74926" lon="1.61295">
        <ele>1888</ele>
        <time>2020-01-05T11:01:10.000Z</time>
      </trkpt>
      <trkpt lat="42.74926" lon="1.61294">
        <ele>1888</ele>
        <time>2020-01-05T11:01:12.000Z</time>
      </trkpt>
      <trkpt lat="42.74926" lon="1.61295">
        <ele>1888</ele>
        <time>2020-01-05T11:01:14.000Z</time>
      </trkpt>
      <trkpt lat="42.74926" lon="1.61295">
        <ele>1888</ele>
        <time>2020-01-05T11:01:16.000Z</time>
      </trkpt>
      <trkpt lat="42.74926" lon="1.61295">
        <ele>1888</ele>
        <time>2020-01-05T11:01:18.000Z</time>
      </trkpt>
      <trkpt lat="42.74926" lon="1.61296">
        <ele>1888</ele>
        <time>2020-01-05T11:01:20.000Z</time>
      </trkpt>
      <trkpt lat="42.74925" lon="1.61296">
        <ele>1888</ele>
        <time>2020-01-05T11:01:22.000Z</time>
      </trkpt>
      <trkpt lat="42.74925" lon="1.61296">
        <ele>1888</ele>
        <time>2020-01-05T11:01:24.000Z</time>
      </trkpt>
      <trkpt lat="42.74925" lon="1.61296">
        <ele>1888</ele>
        <time>2020-01-05T11:01:26.000Z</time>
      </trkpt>
      <trkpt lat="42.74925" lon="1.61297">
        <ele>1888</ele>
        <time>2020-01-05T11:01:28.000Z</time>
      </trkpt>
      <trkpt lat="42.74925" lon="1.61296">
        <ele>1888</ele>
        <time>2020-01-05T11:01:30.000Z</time>
      </trkpt>
      <trkpt lat="42.74926" lon="1.61296">
        <ele>1888</ele>
        <time>2020-01-05T11:01:32.000Z</time>
      </trkpt>
      <trkpt lat="42.74925" lon="1.61296">
        <ele>1888</ele>
        <time>2020-01-05T11:01:34.000Z</time>
      </trkpt>
      <trkpt lat="42.74925" lon="1.61297">
        <ele>1888</ele>
        <time>2020-01-05T11:01:36.000Z</time>
      </trkpt>
      <trkpt lat="42.74925" lon="1.61297">
        <ele>1888</ele>
        <time>2020-01-05T11:01:38.000Z</time>
      </trkpt>
      <trkpt lat="42.74925" lon="1.61297">
        <ele>1888</ele>
        <time>2020-01-05T11:01:40.000Z</time>
      </trkpt>
      <trkpt lat="42.74925" lon="1.61297">
        <ele>1888</ele>
        <time>2020-01-05T11:01:42.000Z</time>
      </trkpt>
      <trkpt lat="42.74925" lon="1.61297">
        <ele>1888</ele>
        <time>2020-01-05T11:01:44.000Z</time>
      </trkpt>
      <trkpt lat="42.74925" lon="1.61297">
        <ele>1888</ele>
        <time>2020-01-05T11:01:46.000Z</time>
      </trkpt>
      <trkpt lat="42.74924" lon="1.61297">
        <ele>1888</ele>
        <time>2020-01-05T11:01:48.000Z</time>
      </trkpt>
      <trkpt lat="42.74925" lon="1.61296">
        <ele>1888</ele>
        <time>2020-01-05T11:01:50.000Z</time>
      </trkpt>
      <trkpt lat="42.74925" lon="1.61297">
        <ele>1888</ele>
        <time>2020-01-05T11:01:52.000Z</time>
      </trkpt>
      <trkpt lat="42.74925" lon="1.61297">
        <ele>1888</ele>
        <time>2020-01-05T11:01:54.000Z</time>
      </trkpt>
      <trkpt lat="42.74925" lon="1.61297">
        <ele>1888</ele>
        <time>2020-01-05T11:01:56.000Z</time>
      </trkpt>
      <trkpt lat="42.74925" lon="1.61297">
        <ele>1888</ele>
        <time>2020-01-05T11:01:58.000Z</time>
      </trkpt>
      <trkpt lat="42.74925" lon="1.61298">
        <ele>1888</ele>
        <time>2020-01-05T11:02:00.000Z</time>
      </trkpt>
      <trkpt lat="42.74925" lon="1.61298">
        <ele>1888</ele>
        <time>2020-01-05T11:02:02.000Z</time>
      </trkpt>
      <trkpt lat="42.74925" lon="1.61298">
        <ele>1888</ele>
        <time>2020-01-05T11:02:04.000Z</time>
      </trkpt>
      <trkpt lat="42.74925" lon="1.61298">
        <ele>1888</ele>
        <time>2020-01-05T11:02:06.000Z</time>
      </trkpt>
      <trkpt lat="42.74925" lon="1.61298">
        <ele>1888</ele>
        <time>2020-01-05T11:02:08.000Z</time>
      </trkpt>
      <trkpt lat="42.74925" lon="1.61298">
        <ele>1888</ele>
        <time>2020-01-05T11:02:10.000Z</time>
      </trkpt>
      <trkpt lat="42.74925" lon="1.61297">
        <ele>1888</ele>
        <time>2020-01-05T11:02:12.000Z</time>
      </trkpt>
      <trkpt lat="42.74924" lon="1.61298">
        <ele>1888</ele>
        <time>2020-01-05T11:02:14.000Z</time>
      </trkpt>
      <trkpt lat="42.74924" lon="1.61298">
        <ele>1888</ele>
        <time>2020-01-05T11:02:16.000Z</time>
      </trkpt>
      <trkpt lat="42.74925" lon="1.61299">
        <ele>1888</ele>
        <time>2020-01-05T11:02:18.000Z</time>
      </trkpt>
      <trkpt lat="42.74924" lon="1.61299">
        <ele>1888</ele>
        <time>2020-01-05T11:02:20.000Z</time>
      </trkpt>
      <trkpt lat="42.74924" lon="1.61298">
        <ele>1888</ele>
        <time>2020-01-05T11:02:22.000Z</time>
      </trkpt>
      <trkpt lat="42.74924" lon="1.61298">
        <ele>1888</ele>
        <time>2020-01-05T11:02:24.000Z</time>
      </trkpt>
      <trkpt lat="42.74924" lon="1.61298">
        <ele>1888</ele>
        <time>2020-01-05T11:02:26.000Z</time>
      </trkpt>
      <trkpt lat="42.74924" lon="1.61298">
        <ele>1888</ele>
        <time>2020-01-05T11:02:28.000Z</time>
      </trkpt>
      <trkpt lat="42.74924" lon="1.61298">
        <ele>1888</ele>
        <time>2020-01-05T11:02:30.000Z</time>
      </trkpt>
      <trkpt lat="42.74924" lon="1.61298">
        <ele>1888</ele>
        <time>2020-01-05T11:02:32.000Z</time>
      </trkpt>
      <trkpt lat="42.74924" lon="1.61298">
        <ele>1888</ele>
        <time>2020-01-05T11:02:34.000Z</time>
      </trkpt>
      <trkpt lat="42.74924" lon="1.61298">
        <ele>1888</ele>
        <time>2020-01-05T11:02:36.000Z</time>
      </trkpt>
      <trkpt lat="42.74924" lon="1.61298">
        <ele>1888</ele>
        <time>2020-01-05T11:02:38.000Z</time>
      </trkpt>
      <trkpt lat="42.74924" lon="1.61298">
        <ele>1888</ele>
        <time>2020-01-05T11:02:40.000Z</time>
      </trkpt>
      <trkpt lat="42.74924" lon="1.61298">
        <ele>1888</ele>
        <time>2020-01-05T11:02:42.000Z</time>
      </trkpt>
      <trkpt lat="42.74924" lon="1.61297">
        <ele>1888</ele>
        <time>2020-01-05T11:02:44.000Z</time>
      </trkpt>
      <trkpt lat="42.74924" lon="1.61297">
        <ele>1888</ele>
        <time>2020-01-05T11:02:46.000Z</time>
      </trkpt>
      <trkpt lat="42.74924" lon="1.61296">
        <ele>1888</ele>
        <time>2020-01-05T11:02:48.000Z</time>
      </trkpt>
      <trkpt lat="42.74924" lon="1.61297">
        <ele>1888</ele>
        <time>2020-01-05T11:02:50.000Z</time>
      </trkpt>
      <trkpt lat="42.74924" lon="1.61297">
        <ele>1888</ele>
        <time>2020-01-05T11:02:52.000Z</time>
      </trkpt>
      <trkpt lat="42.74924" lon="1.61297">
        <ele>1888</ele>
        <time>2020-01-05T11:02:54.000Z</time>
      </trkpt>
      <trkpt lat="42.74924" lon="1.61298">
        <ele>1888</ele>
        <time>2020-01-05T11:02:56.000Z</time>
      </trkpt>
      <trkpt lat="42.74924" lon="1.61298">
        <ele>1888</ele>
        <time>2020-01-05T11:02:58.000Z</time>
      </trkpt>
      <trkpt lat="42.74924" lon="1.61297">
        <ele>1888</ele>
        <time>2020-01-05T11:03:00.000Z</time>
      </trkpt>
      <trkpt lat="42.74924" lon="1.61296">
        <ele>1888</ele>
        <time>2020-01-05T11:03:02.000Z</time>
      </trkpt>
      <trkpt lat="42.74925" lon="1.61296">
        <ele>1888</ele>
        <time>2020-01-05T11:03:04.000Z</time>
      </trkpt>
      <trkpt lat="42.74924" lon="1.61296">
        <ele>1888</ele>
        <time>2020-01-05T11:03:06.000Z</time>
      </trkpt>
      <trkpt lat="42.74924" lon="1.61296">
        <ele>1888</ele>
        <time>2020-01-05T11:03:08.000Z</time>
      </trkpt>
      <trkpt lat="42.74924" lon="1.61296">
        <ele>1888</ele>
        <time>2020-01-05T11:03:10.000Z</time>
      </trkpt>
      <trkpt lat="42.74924" lon="1.61295">
        <ele>1888</ele>
        <time>2020-01-05T11:03:12.000Z</time>
      </trkpt>
      <trkpt lat="42.74925" lon="1.61295">
        <ele>1888</ele>
        <time>2020-01-05T11:03:14.000Z</time>
      </trkpt>
      <trkpt lat="42.74925" lon="1.61296">
        <ele>1888</ele>
        <time>2020-01-05T11:03:16.000Z</time>
      </trkpt>
      <trkpt lat="42.74925" lon="1.61296">
        <ele>1888</ele>
        <time>2020-01-05T11:03:18.000Z</time>
      </trkpt>
      <trkpt lat="42.74925" lon="1.61296">
        <ele>1888</ele>
        <time>2020-01-05T11:03:20.000Z</time>
      </trkpt>
      <trkpt lat="42.74925" lon="1.61295">
        <ele>1888</ele>
        <time>2020-01-05T11:03:22.000Z</time>
      </trkpt>
      <trkpt lat="42.74925" lon="1.61296">
        <ele>1888</ele>
        <time>2020-01-05T11:03:24.000Z</time>
      </trkpt>
      <trkpt lat="42.74925" lon="1.61295">
        <ele>1888</ele>
        <time>2020-01-05T11:03:26.000Z</time>
      </trkpt>
      <trkpt lat="42.74925" lon="1.61295">
        <ele>1888</ele>
        <time>2020-01-05T11:03:28.000Z</time>
      </trkpt>
      <trkpt lat="42.74925" lon="1.61295">
        <ele>1888</ele>
        <time>2020-01-05T11:03:30.000Z</time>
      </trkpt>
      <trkpt lat="42.74925" lon="1.61295">
        <ele>1888</ele>
        <time>2020-01-05T11:03:32.000Z</time>
      </trkpt>
      <trkpt lat="42.74925" lon="1.61295">
        <ele>1888</ele>
        <time>2020-01-05T11:03:34.000Z</time>
      </trkpt>
      <trkpt lat="42.74925" lon="1.61295">
        <ele>1888</ele>
        <time>2020-01-05T11:03:36.000Z</time>
      </trkpt>
      <trkpt lat="42.74925" lon="1.61295">
        <ele>1888</ele>
        <time>2020-01-05T11:03:38.000Z</time>
      </trkpt>
      <trkpt lat="42.74925" lon="1.61296">
        <ele>1888</ele>
        <time>2020-01-05T11:03:40.000Z</time>
      </trkpt>
      <trkpt lat="42.74925" lon="1.61296">
        <ele>1888</ele>
        <time>2020-01-05T11:03:42.000Z</time>
      </trkpt>
      <trkpt lat="42.74925" lon="1.61296">
        <ele>1888</ele>
        <time>2020-01-05T11:03:44.000Z</time>
      </trkpt>
      <trkpt lat="42.74925" lon="1.61295">
        <ele>1888</ele>
        <time>2020-01-05T11:03:46.000Z</time>
      </trkpt>
      <trkpt lat="42.74925" lon="1.61295">
        <ele>1888</ele>
        <time>2020-01-05T11:03:48.000Z</time>
      </trkpt>
      <trkpt lat="42.74925" lon="1.61295">
        <ele>1888</ele>
        <time>2020-01-05T11:03:50.000Z</time>
      </trkpt>
      <trkpt lat="42.74925" lon="1.61295">
        <ele>1888</ele>
        <time>2020-01-05T11:03:52.000Z</time>
      </trkpt>
      <trkpt lat="42.74925" lon="1.61294">
        <ele>1888</ele>
        <time>2020-01-05T11:03:54.000Z</time>
      </trkpt>
      <trkpt lat="42.74926" lon="1.61293">
        <ele>1888</ele>
        <time>2020-01-05T11:03:56.000Z</time>
      </trkpt>
      <trkpt lat="42.74926" lon="1.61293">
        <ele>1888</ele>
        <time>2020-01-05T11:03:58.000Z</time>
      </trkpt>
      <trkpt lat="42.74926" lon="1.61293">
        <ele>1888</ele>
        <time>2020-01-05T11:04:00.000Z</time>
      </trkpt>
      <trkpt lat="42.74927" lon="1.61293">
        <ele>1888</ele>
        <time>2020-01-05T11:04:02.000Z</time>
      </trkpt>
      <trkpt lat="42.74927" lon="1.61293">
        <ele>1888</ele>
        <time>2020-01-05T11:04:04.000Z</time>
      </trkpt>
      <trkpt lat="42.74927" lon="1.61294">
        <ele>1888</ele>
        <time>2020-01-05T11:04:06.000Z</time>
      </trkpt>
      <trkpt lat="42.74926" lon="1.61294">
        <ele>1888</ele>
        <time>2020-01-05T11:04:08.000Z</time>
      </trkpt>
      <trkpt lat="42.74926" lon="1.61294">
        <ele>1888</ele>
        <time>2020-01-05T11:04:10.000Z</time>
      </trkpt>
      <trkpt lat="42.74926" lon="1.61294">
        <ele>1888</ele>
        <time>2020-01-05T11:04:12.000Z</time>
      </trkpt>
      <trkpt lat="42.74925" lon="1.61295">
        <ele>1888</ele>
        <time>2020-01-05T11:04:14.000Z</time>
      </trkpt>
      <trkpt lat="42.74925" lon="1.61295">
        <ele>1888</ele>
        <time>2020-01-05T11:04:16.000Z</time>
      </trkpt>
      <trkpt lat="42.74925" lon="1.61295">
        <ele>1888</ele>
        <time>2020-01-05T11:04:18.000Z</time>
      </trkpt>
      <trkpt lat="42.74925" lon="1.61295">
        <ele>1888</ele>
        <time>2020-01-05T11:04:20.000Z</time>
      </trkpt>
      <trkpt lat="42.74924" lon="1.61296">
        <ele>1888</ele>
        <time>2020-01-05T11:04:22.000Z</time>
      </trkpt>
      <trkpt lat="42.74924" lon="1.61296">
        <ele>1888</ele>
        <time>2020-01-05T11:04:24.000Z</time>
      </trkpt>
      <trkpt lat="42.74924" lon="1.61296">
        <ele>1888</ele>
        <time>2020-01-05T11:04:26.000Z</time>
      </trkpt>
      <trkpt lat="42.74924" lon="1.61296">
        <ele>1888</ele>
        <time>2020-01-05T11:04:28.000Z</time>
      </trkpt>
      <trkpt lat="42.74924" lon="1.61296">
        <ele>1888</ele>
        <time>2020-01-05T11:04:30.000Z</time>
      </trkpt>
      <trkpt lat="42.74924" lon="1.61296">
        <ele>1888</ele>
        <time>2020-01-05T11:04:32.000Z</time>
      </trkpt>
      <trkpt lat="42.74924" lon="1.61296">
        <ele>1888</ele>
        <time>2020-01-05T11:04:34.000Z</time>
      </trkpt>
      <trkpt lat="42.74924" lon="1.61296">
        <ele>1888</ele>
        <time>2020-01-05T11:04:36.000Z</time>
      </trkpt>
      <trkpt lat="42.74925" lon="1.61296">
        <ele>1888</ele>
        <time>2020-01-05T11:04:38.000Z</time>
      </trkpt>
      <trkpt lat="42.74925" lon="1.61297">
        <ele>1888</ele>
        <time>2020-01-05T11:04:40.000Z</time>
      </trkpt>
      <trkpt lat="42.74925" lon="1.61297">
        <ele>1888</ele>
        <time>2020-01-05T11:04:42.000Z</time>
      </trkpt>
      <trkpt lat="42.74925" lon="1.61297">
        <ele>1888</ele>
        <time>2020-01-05T11:04:44.000Z</time>
      </trkpt>
      <trkpt lat="42.74925" lon="1.61297">
        <ele>1888</ele>
        <time>2020-01-05T11:04:46.000Z</time>
      </trkpt>
      <trkpt lat="42.74925" lon="1.61297">
        <ele>1888</ele>
        <time>2020-01-05T11:04:48.000Z</time>
      </trkpt>
      <trkpt lat="42.74925" lon="1.61297">
        <ele>1888</ele>
        <time>2020-01-05T11:04:50.000Z</time>
      </trkpt>
      <trkpt lat="42.74925" lon="1.61297">
        <ele>1888</ele>
        <time>2020-01-05T11:04:52.000Z</time>
      </trkpt>
      <trkpt lat="42.74925" lon="1.61297">
        <ele>1888</ele>
        <time>2020-01-05T11:04:54.000Z</time>
      </trkpt>
      <trkpt lat="42.74925" lon="1.61297">
        <ele>1888</ele>
        <time>2020-01-05T11:04:56.000Z</time>
      </trkpt>
      <trkpt lat="42.74925" lon="1.61296">
        <ele>1888</ele>
        <time>2020-01-05T11:04:58.000Z</time>
      </trkpt>
      <trkpt lat="42.74925" lon="1.61296">
        <ele>1888</ele>
        <time>2020-01-05T11:05:00.000Z</time>
      </trkpt>
      <trkpt lat="42.74925" lon="1.61296">
        <ele>1888</ele>
        <time>2020-01-05T11:05:02.000Z</time>
      </trkpt>
      <trkpt lat="42.74926" lon="1.61296">
        <ele>1888</ele>
        <time>2020-01-05T11:05:04.000Z</time>
      </trkpt>
      <trkpt lat="42.74926" lon="1.61296">
        <ele>1888</ele>
        <time>2020-01-05T11:05:06.000Z</time>
      </trkpt>
      <trkpt lat="42.74926" lon="1.61296">
        <ele>1888</ele>
        <time>2020-01-05T11:05:08.000Z</time>
      </trkpt>
      <trkpt lat="42.74926" lon="1.61296">
        <ele>1888</ele>
        <time>2020-01-05T11:05:10.000Z</time>
      </trkpt>
      <trkpt lat="42.74926" lon="1.61296">
        <ele>1888</ele>
        <time>2020-01-05T11:05:12.000Z</time>
      </trkpt>
      <trkpt lat="42.74925" lon="1.61296">
        <ele>1888</ele>
        <time>2020-01-05T11:05:14.000Z</time>
      </trkpt>
      <trkpt lat="42.74925" lon="1.61296">
        <ele>1888</ele>
        <time>2020-01-05T11:05:16.000Z</time>
      </trkpt>
      <trkpt lat="42.74926" lon="1.61296">
        <ele>1888</ele>
        <time>2020-01-05T11:05:18.000Z</time>
      </trkpt>
      <trkpt lat="42.74925" lon="1.61297">
        <ele>1888</ele>
        <time>2020-01-05T11:05:20.000Z</time>
      </trkpt>
      <trkpt lat="42.74925" lon="1.61296">
        <ele>1888</ele>
        <time>2020-01-05T11:05:22.000Z</time>
      </trkpt>
      <trkpt lat="42.74926" lon="1.61296">
        <ele>1888</ele>
        <time>2020-01-05T11:05:24.000Z</time>
      </trkpt>
      <trkpt lat="42.74926" lon="1.61295">
        <ele>1888</ele>
        <time>2020-01-05T11:05:26.000Z</time>
      </trkpt>
      <trkpt lat="42.74926" lon="1.61295">
        <ele>1888</ele>
        <time>2020-01-05T11:05:28.000Z</time>
      </trkpt>
      <trkpt lat="42.74926" lon="1.61295">
        <ele>1888</ele>
        <time>2020-01-05T11:05:30.000Z</time>
      </trkpt>
      <trkpt lat="42.74925" lon="1.61295">
        <ele>1888</ele>
        <time>2020-01-05T11:05:32.000Z</time>
      </trkpt>
      <trkpt lat="42.74925" lon="1.61294">
        <ele>1888</ele>
        <time>2020-01-05T11:05:34.000Z</time>
      </trkpt>
      <trkpt lat="42.74925" lon="1.61294">
        <ele>1888</ele>
        <time>2020-01-05T11:05:36.000Z</time>
      </trkpt>
      <trkpt lat="42.74926" lon="1.61294">
        <ele>1888</ele>
        <time>2020-01-05T11:05:38.000Z</time>
      </trkpt>
      <trkpt lat="42.74925" lon="1.61294">
        <ele>1888</ele>
        <time>2020-01-05T11:05:40.000Z</time>
      </trkpt>
      <trkpt lat="42.74926" lon="1.61294">
        <ele>1888</ele>
        <time>2020-01-05T11:05:42.000Z</time>
      </trkpt>
      <trkpt lat="42.74926" lon="1.61294">
        <ele>1888</ele>
        <time>2020-01-05T11:05:44.000Z</time>
      </trkpt>
      <trkpt lat="42.74926" lon="1.61294">
        <ele>1888</ele>
        <time>2020-01-05T11:05:46.000Z</time>
      </trkpt>
      <trkpt lat="42.74926" lon="1.61294">
        <ele>1888</ele>
        <time>2020-01-05T11:05:48.000Z</time>
      </trkpt>
      <trkpt lat="42.74927" lon="1.61295">
        <ele>1888</ele>
        <time>2020-01-05T11:05:50.000Z</time>
      </trkpt>
      <trkpt lat="42.74927" lon="1.61295">
        <ele>1888</ele>
        <time>2020-01-05T11:05:52.000Z</time>
      </trkpt>
      <trkpt lat="42.74927" lon="1.61295">
        <ele>1888</ele>
        <time>2020-01-05T11:05:54.000Z</time>
      </trkpt>
      <trkpt lat="42.74927" lon="1.61295">
        <ele>1888</ele>
        <time>2020-01-05T11:05:56.000Z</time>
      </trkpt>
      <trkpt lat="42.74927" lon="1.61295">
        <ele>1888</ele>
        <time>2020-01-05T11:05:58.000Z</time>
      </trkpt>
      <trkpt lat="42.74927" lon="1.61295">
        <ele>1888</ele>
        <time>2020-01-05T11:06:00.000Z</time>
      </trkpt>
      <trkpt lat="42.74927" lon="1.61295">
        <ele>1888</ele>
        <time>2020-01-05T11:06:02.000Z</time>
      </trkpt>
      <trkpt lat="42.74927" lon="1.61295">
        <ele>1888</ele>
        <time>2020-01-05T11:06:04.000Z</time>
      </trkpt>
      <trkpt lat="42.74926" lon="1.61296">
        <ele>1888</ele>
        <time>2020-01-05T11:06:06.000Z</time>
      </trkpt>
      <trkpt lat="42.74926" lon="1.61296">
        <ele>1888</ele>
        <time>2020-01-05T11:06:08.000Z</time>
      </trkpt>
      <trkpt lat="42.74926" lon="1.61296">
        <ele>1888</ele>
        <time>2020-01-05T11:06:10.000Z</time>
      </trkpt>
      <trkpt lat="42.74926" lon="1.61296">
        <ele>1888</ele>
        <time>2020-01-05T11:06:12.000Z</time>
      </trkpt>
      <trkpt lat="42.74925" lon="1.61296">
        <ele>1888</ele>
        <time>2020-01-05T11:06:14.000Z</time>
      </trkpt>
      <trkpt lat="42.74925" lon="1.61297">
        <ele>1888</ele>
        <time>2020-01-05T11:06:16.000Z</time>
      </trkpt>
      <trkpt lat="42.74925" lon="1.61297">
        <ele>1888</ele>
        <time>2020-01-05T11:06:18.000Z</time>
      </trkpt>
      <trkpt lat="42.74925" lon="1.61297">
        <ele>1888</ele>
        <time>2020-01-05T11:06:20.000Z</time>
      </trkpt>
      <trkpt lat="42.74925" lon="1.61297">
        <ele>1888</ele>
        <time>2020-01-05T11:06:22.000Z</time>
      </trkpt>
      <trkpt lat="42.74925" lon="1.61297">
        <ele>1888</ele>
        <time>2020-01-05T11:06:24.000Z</time>
      </trkpt>
      <trkpt lat="42.74925" lon="1.61297">
        <ele>1888</ele>
        <time>2020-01-05T11:06:26.000Z</time>
      </trkpt>
      <trkpt lat="42.74925" lon="1.61297">
        <ele>1888</ele>
        <time>2020-01-05T11:06:28.000Z</time>
      </trkpt>
      <trkpt lat="42.74925" lon="1.61297">
        <ele>1888</ele>
        <time>2020-01-05T11:06:30.000Z</time>
      </trkpt>
      <trkpt lat="42.74925" lon="1.61296">
        <ele>1888</ele>
        <time>2020-01-05T11:06:32.000Z</time>
      </trkpt>
      <trkpt lat="42.74925" lon="1.61296">
        <ele>1888</ele>
        <time>2020-01-05T11:06:34.000Z</time>
      </trkpt>
      <trkpt lat="42.74925" lon="1.61296">
        <ele>1888</ele>
        <time>2020-01-05T11:06:36.000Z</time>
      </trkpt>
      <trkpt lat="42.74924" lon="1.61296">
        <ele>1888</ele>
        <time>2020-01-05T11:06:38.000Z</time>
      </trkpt>
      <trkpt lat="42.74925" lon="1.61297">
        <ele>1888</ele>
        <time>2020-01-05T11:06:40.000Z</time>
      </trkpt>
      <trkpt lat="42.74925" lon="1.61297">
        <ele>1888</ele>
        <time>2020-01-05T11:06:42.000Z</time>
      </trkpt>
      <trkpt lat="42.74925" lon="1.61297">
        <ele>1888</ele>
        <time>2020-01-05T11:06:44.000Z</time>
      </trkpt>
      <trkpt lat="42.74924" lon="1.61297">
        <ele>1888</ele>
        <time>2020-01-05T11:06:46.000Z</time>
      </trkpt>
      <trkpt lat="42.74924" lon="1.61297">
        <ele>1888</ele>
        <time>2020-01-05T11:06:48.000Z</time>
      </trkpt>
      <trkpt lat="42.74924" lon="1.61297">
        <ele>1888</ele>
        <time>2020-01-05T11:06:50.000Z</time>
      </trkpt>
      <trkpt lat="42.74924" lon="1.61296">
        <ele>1888</ele>
        <time>2020-01-05T11:06:52.000Z</time>
      </trkpt>
      <trkpt lat="42.74924" lon="1.61297">
        <ele>1888</ele>
        <time>2020-01-05T11:06:54.000Z</time>
      </trkpt>
      <trkpt lat="42.74924" lon="1.61297">
        <ele>1888</ele>
        <time>2020-01-05T11:06:56.000Z</time>
      </trkpt>
      <trkpt lat="42.74924" lon="1.61297">
        <ele>1888</ele>
        <time>2020-01-05T11:06:58.000Z</time>
      </trkpt>
      <trkpt lat="42.74924" lon="1.61297">
        <ele>1888</ele>
        <time>2020-01-05T11:07:00.000Z</time>
      </trkpt>
      <trkpt lat="42.74924" lon="1.61297">
        <ele>1888</ele>
        <time>2020-01-05T11:07:02.000Z</time>
      </trkpt>
      <trkpt lat="42.74925" lon="1.61297">
        <ele>1888</ele>
        <time>2020-01-05T11:07:04.000Z</time>
      </trkpt>
      <trkpt lat="42.74926" lon="1.61297">
        <ele>1888</ele>
        <time>2020-01-05T11:07:06.000Z</time>
      </trkpt>
      <trkpt lat="42.74926" lon="1.61297">
        <ele>1888</ele>
        <time>2020-01-05T11:07:08.000Z</time>
      </trkpt>
      <trkpt lat="42.74927" lon="1.61297">
        <ele>1888</ele>
        <time>2020-01-05T11:07:10.000Z</time>
      </trkpt>
      <trkpt lat="42.74926" lon="1.61297">
        <ele>1888</ele>
        <time>2020-01-05T11:07:12.000Z</time>
      </trkpt>
      <trkpt lat="42.74927" lon="1.61297">
        <ele>1888</ele>
        <time>2020-01-05T11:07:14.000Z</time>
      </trkpt>
      <trkpt lat="42.74926" lon="1.61297">
        <ele>1888</ele>
        <time>2020-01-05T11:07:16.000Z</time>
      </trkpt>
      <trkpt lat="42.74926" lon="1.61297">
        <ele>1888</ele>
        <time>2020-01-05T11:07:18.000Z</time>
      </trkpt>
      <trkpt lat="42.74926" lon="1.61297">
        <ele>1888</ele>
        <time>2020-01-05T11:07:20.000Z</time>
      </trkpt>
      <trkpt lat="42.74926" lon="1.61297">
        <ele>1888</ele>
        <time>2020-01-05T11:07:22.000Z</time>
      </trkpt>
      <trkpt lat="42.74926" lon="1.61297">
        <ele>1888</ele>
        <time>2020-01-05T11:07:24.000Z</time>
      </trkpt>
      <trkpt lat="42.74926" lon="1.61297">
        <ele>1888</ele>
        <time>2020-01-05T11:07:26.000Z</time>
      </trkpt>
      <trkpt lat="42.74926" lon="1.61297">
        <ele>1888</ele>
        <time>2020-01-05T11:07:28.000Z</time>
      </trkpt>
      <trkpt lat="42.74926" lon="1.61296">
        <ele>1888</ele>
        <time>2020-01-05T11:07:30.000Z</time>
      </trkpt>
      <trkpt lat="42.74925" lon="1.61296">
        <ele>1888</ele>
        <time>2020-01-05T11:07:32.000Z</time>
      </trkpt>
      <trkpt lat="42.74925" lon="1.61296">
        <ele>1888</ele>
        <time>2020-01-05T11:07:34.000Z</time>
      </trkpt>
      <trkpt lat="42.74925" lon="1.61296">
        <ele>1888</ele>
        <time>2020-01-05T11:07:36.000Z</time>
      </trkpt>
      <trkpt lat="42.74925" lon="1.61296">
        <ele>1888</ele>
        <time>2020-01-05T11:07:38.000Z</time>
      </trkpt>
      <trkpt lat="42.74925" lon="1.61296">
        <ele>1888</ele>
        <time>2020-01-05T11:07:40.000Z</time>
      </trkpt>
      <trkpt lat="42.74925" lon="1.61296">
        <ele>1888</ele>
        <time>2020-01-05T11:07:42.000Z</time>
      </trkpt>
      <trkpt lat="42.74925" lon="1.61296">
        <ele>1888</ele>
        <time>2020-01-05T11:07:44.000Z</time>
      </trkpt>
      <trkpt lat="42.74925" lon="1.61296">
        <ele>1888</ele>
        <time>2020-01-05T11:07:46.000Z</time>
      </trkpt>
      <trkpt lat="42.74925" lon="1.61296">
        <ele>1888</ele>
        <time>2020-01-05T11:07:48.000Z</time>
      </trkpt>
      <trkpt lat="42.74925" lon="1.61297">
        <ele>1888</ele>
        <time>2020-01-05T11:07:50.000Z</time>
      </trkpt>
      <trkpt lat="42.74925" lon="1.61297">
        <ele>1888</ele>
        <time>2020-01-05T11:07:52.000Z</time>
      </trkpt>
      <trkpt lat="42.74925" lon="1.61297">
        <ele>1888</ele>
        <time>2020-01-05T11:07:54.000Z</time>
      </trkpt>
      <trkpt lat="42.74925" lon="1.61297">
        <ele>1888</ele>
        <time>2020-01-05T11:07:56.000Z</time>
      </trkpt>
      <trkpt lat="42.74925" lon="1.61297">
        <ele>1888</ele>
        <time>2020-01-05T11:07:58.000Z</time>
      </trkpt>
      <trkpt lat="42.74925" lon="1.61297">
        <ele>1888</ele>
        <time>2020-01-05T11:08:00.000Z</time>
      </trkpt>
      <trkpt lat="42.74925" lon="1.61297">
        <ele>1888</ele>
        <time>2020-01-05T11:08:02.000Z</time>
      </trkpt>
      <trkpt lat="42.74925" lon="1.61297">
        <ele>1888</ele>
        <time>2020-01-05T11:08:04.000Z</time>
      </trkpt>
      <trkpt lat="42.74925" lon="1.61297">
        <ele>1888</ele>
        <time>2020-01-05T11:08:06.000Z</time>
      </trkpt>
      <trkpt lat="42.74925" lon="1.61297">
        <ele>1888</ele>
        <time>2020-01-05T11:08:08.000Z</time>
      </trkpt>
      <trkpt lat="42.74925" lon="1.61297">
        <ele>1888</ele>
        <time>2020-01-05T11:08:10.000Z</time>
      </trkpt>
      <trkpt lat="42.74925" lon="1.61297">
        <ele>1888</ele>
        <time>2020-01-05T11:08:12.000Z</time>
      </trkpt>
      <trkpt lat="42.74925" lon="1.61297">
        <ele>1888</ele>
        <time>2020-01-05T11:08:14.000Z</time>
      </trkpt>
      <trkpt lat="42.74925" lon="1.61297">
        <ele>1888</ele>
        <time>2020-01-05T11:08:16.000Z</time>
      </trkpt>
      <trkpt lat="42.74925" lon="1.61297">
        <ele>1888</ele>
        <time>2020-01-05T11:08:18.000Z</time>
      </trkpt>
      <trkpt lat="42.74925" lon="1.61297">
        <ele>1888</ele>
        <time>2020-01-05T11:08:20.000Z</time>
      </trkpt>
      <trkpt lat="42.74925" lon="1.61296">
        <ele>1888</ele>
        <time>2020-01-05T11:08:22.000Z</time>
      </trkpt>
      <trkpt lat="42.74925" lon="1.61296">
        <ele>1888</ele>
        <time>2020-01-05T11:08:24.000Z</time>
      </trkpt>
      <trkpt lat="42.74926" lon="1.61296">
        <ele>1888</ele>
        <time>2020-01-05T11:08:26.000Z</time>
      </trkpt>
      <trkpt lat="42.74925" lon="1.61296">
        <ele>1888</ele>
        <time>2020-01-05T11:08:28.000Z</time>
      </trkpt>
      <trkpt lat="42.74925" lon="1.61296">
        <ele>1888</ele>
        <time>2020-01-05T11:08:30.000Z</time>
      </trkpt>
      <trkpt lat="42.74925" lon="1.61296">
        <ele>1888</ele>
        <time>2020-01-05T11:08:32.000Z</time>
      </trkpt>
      <trkpt lat="42.74925" lon="1.61297">
        <ele>1888</ele>
        <time>2020-01-05T11:08:34.000Z</time>
      </trkpt>
      <trkpt lat="42.74926" lon="1.61297">
        <ele>1888</ele>
        <time>2020-01-05T11:08:36.000Z</time>
      </trkpt>
      <trkpt lat="42.74926" lon="1.61296">
        <ele>1888</ele>
        <time>2020-01-05T11:08:38.000Z</time>
      </trkpt>
      <trkpt lat="42.74925" lon="1.61296">
        <ele>1888</ele>
        <time>2020-01-05T11:08:40.000Z</time>
      </trkpt>
      <trkpt lat="42.74925" lon="1.61296">
        <ele>1888</ele>
        <time>2020-01-05T11:08:42.000Z</time>
      </trkpt>
      <trkpt lat="42.74925" lon="1.61297">
        <ele>1888</ele>
        <time>2020-01-05T11:08:44.000Z</time>
      </trkpt>
      <trkpt lat="42.74925" lon="1.61297">
        <ele>1888</ele>
        <time>2020-01-05T11:08:46.000Z</time>
      </trkpt>
      <trkpt lat="42.74925" lon="1.61297">
        <ele>1888</ele>
        <time>2020-01-05T11:08:48.000Z</time>
      </trkpt>
      <trkpt lat="42.74925" lon="1.61296">
        <ele>1888</ele>
        <time>2020-01-05T11:08:50.000Z</time>
      </trkpt>
      <trkpt lat="42.74925" lon="1.61297">
        <ele>1888</ele>
        <time>2020-01-05T11:08:52.000Z</time>
      </trkpt>
      <trkpt lat="42.74925" lon="1.61297">
        <ele>1888</ele>
        <time>2020-01-05T11:08:54.000Z</time>
      </trkpt>
      <trkpt lat="42.74925" lon="1.61297">
        <ele>1888</ele>
        <time>2020-01-05T11:08:56.000Z</time>
      </trkpt>
      <trkpt lat="42.74925" lon="1.61297">
        <ele>1888</ele>
        <time>2020-01-05T11:08:58.000Z</time>
      </trkpt>
      <trkpt lat="42.74925" lon="1.61297">
        <ele>1888</ele>
        <time>2020-01-05T11:09:00.000Z</time>
      </trkpt>
      <trkpt lat="42.74925" lon="1.61297">
        <ele>1888</ele>
        <time>2020-01-05T11:09:02.000Z</time>
      </trkpt>
      <trkpt lat="42.74926" lon="1.61297">
        <ele>1888</ele>
        <time>2020-01-05T11:09:04.000Z</time>
      </trkpt>
      <trkpt lat="42.74926" lon="1.61297">
        <ele>1888</ele>
        <time>2020-01-05T11:09:06.000Z</time>
      </trkpt>
      <trkpt lat="42.74926" lon="1.61297">
        <ele>1888</ele>
        <time>2020-01-05T11:09:08.000Z</time>
      </trkpt>
      <trkpt lat="42.74926" lon="1.61297">
        <ele>1888</ele>
        <time>2020-01-05T11:09:10.000Z</time>
      </trkpt>
      <trkpt lat="42.74926" lon="1.61296">
        <ele>1888</ele>
        <time>2020-01-05T11:09:12.000Z</time>
      </trkpt>
      <trkpt lat="42.74926" lon="1.61296">
        <ele>1888</ele>
        <time>2020-01-05T11:09:14.000Z</time>
      </trkpt>
      <trkpt lat="42.74925" lon="1.61297">
        <ele>1888</ele>
        <time>2020-01-05T11:09:16.000Z</time>
      </trkpt>
      <trkpt lat="42.74925" lon="1.61297">
        <ele>1888</ele>
        <time>2020-01-05T11:09:18.000Z</time>
      </trkpt>
      <trkpt lat="42.74925" lon="1.61297">
        <ele>1888</ele>
        <time>2020-01-05T11:09:20.000Z</time>
      </trkpt>
      <trkpt lat="42.74925" lon="1.61297">
        <ele>1888</ele>
        <time>2020-01-05T11:09:22.000Z</time>
      </trkpt>
      <trkpt lat="42.74925" lon="1.61297">
        <ele>1888</ele>
        <time>2020-01-05T11:09:24.000Z</time>
      </trkpt>
      <trkpt lat="42.74925" lon="1.61297">
        <ele>1888</ele>
        <time>2020-01-05T11:09:26.000Z</time>
      </trkpt>
      <trkpt lat="42.74925" lon="1.61297">
        <ele>1888</ele>
        <time>2020-01-05T11:09:28.000Z</time>
      </trkpt>
      <trkpt lat="42.74925" lon="1.61297">
        <ele>1888</ele>
        <time>2020-01-05T11:09:30.000Z</time>
      </trkpt>
      <trkpt lat="42.74925" lon="1.61297">
        <ele>1888</ele>
        <time>2020-01-05T11:09:32.000Z</time>
      </trkpt>
      <trkpt lat="42.74925" lon="1.61296">
        <ele>1888</ele>
        <time>2020-01-05T11:09:34.000Z</time>
      </trkpt>
      <trkpt lat="42.74925" lon="1.61296">
        <ele>1888</ele>
        <time>2020-01-05T11:09:36.000Z</time>
      </trkpt>
      <trkpt lat="42.74925" lon="1.61296">
        <ele>1888</ele>
        <time>2020-01-05T11:09:38.000Z</time>
      </trkpt>
      <trkpt lat="42.74925" lon="1.61297">
        <ele>1888</ele>
        <time>2020-01-05T11:09:40.000Z</time>
      </trkpt>
      <trkpt lat="42.74925" lon="1.61297">
        <ele>1888</ele>
        <time>2020-01-05T11:09:42.000Z</time>
      </trkpt>
      <trkpt lat="42.74925" lon="1.61297">
        <ele>1888</ele>
        <time>2020-01-05T11:09:44.000Z</time>
      </trkpt>
      <trkpt lat="42.74924" lon="1.61298">
        <ele>1888</ele>
        <time>2020-01-05T11:09:46.000Z</time>
      </trkpt>
      <trkpt lat="42.74925" lon="1.61298">
        <ele>1888</ele>
        <time>2020-01-05T11:09:48.000Z</time>
      </trkpt>
      <trkpt lat="42.74925" lon="1.61297">
        <ele>1888</ele>
        <time>2020-01-05T11:09:50.000Z</time>
      </trkpt>
      <trkpt lat="42.74925" lon="1.61298">
        <ele>1888</ele>
        <time>2020-01-05T11:09:52.000Z</time>
      </trkpt>
      <trkpt lat="42.74925" lon="1.61298">
        <ele>1888</ele>
        <time>2020-01-05T11:09:54.000Z</time>
      </trkpt>
      <trkpt lat="42.74925" lon="1.61298">
        <ele>1888</ele>
        <time>2020-01-05T11:09:56.000Z</time>
      </trkpt>
      <trkpt lat="42.74925" lon="1.61298">
        <ele>1888</ele>
        <time>2020-01-05T11:09:58.000Z</time>
      </trkpt>
      <trkpt lat="42.74925" lon="1.61298">
        <ele>1888</ele>
        <time>2020-01-05T11:10:00.000Z</time>
      </trkpt>
      <trkpt lat="42.74925" lon="1.61298">
        <ele>1888</ele>
        <time>2020-01-05T11:10:02.000Z</time>
      </trkpt>
      <trkpt lat="42.74925" lon="1.61297">
        <ele>1888</ele>
        <time>2020-01-05T11:10:04.000Z</time>
      </trkpt>
      <trkpt lat="42.74925" lon="1.61297">
        <ele>1888</ele>
        <time>2020-01-05T11:10:06.000Z</time>
      </trkpt>
      <trkpt lat="42.74925" lon="1.61297">
        <ele>1888</ele>
        <time>2020-01-05T11:10:08.000Z</time>
      </trkpt>
      <trkpt lat="42.74925" lon="1.61297">
        <ele>1888</ele>
        <time>2020-01-05T11:10:10.000Z</time>
      </trkpt>
      <trkpt lat="42.74926" lon="1.61296">
        <ele>1888</ele>
        <time>2020-01-05T11:10:12.000Z</time>
      </trkpt>
      <trkpt lat="42.74926" lon="1.61296">
        <ele>1888</ele>
        <time>2020-01-05T11:10:14.000Z</time>
      </trkpt>
      <trkpt lat="42.74926" lon="1.61296">
        <ele>1888</ele>
        <time>2020-01-05T11:10:16.000Z</time>
      </trkpt>
      <trkpt lat="42.74926" lon="1.61296">
        <ele>1888</ele>
        <time>2020-01-05T11:10:18.000Z</time>
      </trkpt>
      <trkpt lat="42.74926" lon="1.61296">
        <ele>1888</ele>
        <time>2020-01-05T11:10:20.000Z</time>
      </trkpt>
      <trkpt lat="42.74926" lon="1.61296">
        <ele>1888</ele>
        <time>2020-01-05T11:10:22.000Z</time>
      </trkpt>
      <trkpt lat="42.74926" lon="1.61296">
        <ele>1888</ele>
        <time>2020-01-05T11:10:24.000Z</time>
      </trkpt>
      <trkpt lat="42.74926" lon="1.61296">
        <ele>1888</ele>
        <time>2020-01-05T11:10:26.000Z</time>
      </trkpt>
      <trkpt lat="42.74926" lon="1.61296">
        <ele>1888</ele>
        <time>2020-01-05T11:10:28.000Z</time>
      </trkpt>
      <trkpt lat="42.74926" lon="1.61296">
        <ele>1888</ele>
        <time>2020-01-05T11:10:30.000Z</time>
      </trkpt>
      <trkpt lat="42.74926" lon="1.61296">
        <ele>1888</ele>
        <time>2020-01-05T11:10:32.000Z</time>
      </trkpt>
      <trkpt lat="42.74926" lon="1.61296">
        <ele>1888</ele>
        <time>2020-01-05T11:10:34.000Z</time>
      </trkpt>
      <trkpt lat="42.74926" lon="1.61296">
        <ele>1888</ele>
        <time>2020-01-05T11:10:36.000Z</time>
      </trkpt>
      <trkpt lat="42.74926" lon="1.61296">
        <ele>1888</ele>
        <time>2020-01-05T11:10:38.000Z</time>
      </trkpt>
      <trkpt lat="42.74926" lon="1.61297">
        <ele>1888</ele>
        <time>2020-01-05T11:10:40.000Z</time>
      </trkpt>
      <trkpt lat="42.74926" lon="1.61296">
        <ele>1888</ele>
        <time>2020-01-05T11:10:42.000Z</time>
      </trkpt>
      <trkpt lat="42.74926" lon="1.61296">
        <ele>1888</ele>
        <time>2020-01-05T11:10:44.000Z</time>
      </trkpt>
      <trkpt lat="42.74926" lon="1.61296">
        <ele>1888</ele>
        <time>2020-01-05T11:10:46.000Z</time>
      </trkpt>
      <trkpt lat="42.74926" lon="1.61296">
        <ele>1888</ele>
        <time>2020-01-05T11:10:48.000Z</time>
      </trkpt>
      <trkpt lat="42.74926" lon="1.61295">
        <ele>1888</ele>
        <time>2020-01-05T11:10:50.000Z</time>
      </trkpt>
      <trkpt lat="42.74926" lon="1.61295">
        <ele>1888</ele>
        <time>2020-01-05T11:10:52.000Z</time>
      </trkpt>
      <trkpt lat="42.74926" lon="1.61295">
        <ele>1888</ele>
        <time>2020-01-05T11:10:54.000Z</time>
      </trkpt>
      <trkpt lat="42.74926" lon="1.61295">
        <ele>1888</ele>
        <time>2020-01-05T11:10:56.000Z</time>
      </trkpt>
      <trkpt lat="42.74926" lon="1.61295">
        <ele>1888</ele>
        <time>2020-01-05T11:10:58.000Z</time>
      </trkpt>
      <trkpt lat="42.74926" lon="1.61295">
        <ele>1888</ele>
        <time>2020-01-05T11:11:00.000Z</time>
      </trkpt>
      <trkpt lat="42.74926" lon="1.61295">
        <ele>1888</ele>
        <time>2020-01-05T11:11:02.000Z</time>
      </trkpt>
      <trkpt lat="42.74926" lon="1.61295">
        <ele>1888</ele>
        <time>2020-01-05T11:11:04.000Z</time>
      </trkpt>
      <trkpt lat="42.74927" lon="1.61295">
        <ele>1888</ele>
        <time>2020-01-05T11:11:06.000Z</time>
      </trkpt>
      <trkpt lat="42.74927" lon="1.61295">
        <ele>1888</ele>
        <time>2020-01-05T11:11:08.000Z</time>
      </trkpt>
      <trkpt lat="42.74927" lon="1.61294">
        <ele>1888</ele>
        <time>2020-01-05T11:11:10.000Z</time>
      </trkpt>
      <trkpt lat="42.74927" lon="1.61295">
        <ele>1888</ele>
        <time>2020-01-05T11:11:12.000Z</time>
      </trkpt>
      <trkpt lat="42.74927" lon="1.61295">
        <ele>1888</ele>
        <time>2020-01-05T11:11:14.000Z</time>
      </trkpt>
      <trkpt lat="42.74927" lon="1.61295">
        <ele>1888</ele>
        <time>2020-01-05T11:11:16.000Z</time>
      </trkpt>
      <trkpt lat="42.74927" lon="1.61296">
        <ele>1888</ele>
        <time>2020-01-05T11:11:18.000Z</time>
      </trkpt>
      <trkpt lat="42.74927" lon="1.61296">
        <ele>1888</ele>
        <time>2020-01-05T11:11:20.000Z</time>
      </trkpt>
      <trkpt lat="42.74927" lon="1.61296">
        <ele>1888</ele>
        <time>2020-01-05T11:11:22.000Z</time>
      </trkpt>
      <trkpt lat="42.74927" lon="1.61296">
        <ele>1888</ele>
        <time>2020-01-05T11:11:24.000Z</time>
      </trkpt>
      <trkpt lat="42.74927" lon="1.61296">
        <ele>1888</ele>
        <time>2020-01-05T11:11:26.000Z</time>
      </trkpt>
      <trkpt lat="42.74927" lon="1.61296">
        <ele>1888</ele>
        <time>2020-01-05T11:11:28.000Z</time>
      </trkpt>
      <trkpt lat="42.74927" lon="1.61296">
        <ele>1888</ele>
        <time>2020-01-05T11:11:30.000Z</time>
      </trkpt>
      <trkpt lat="42.74927" lon="1.61296">
        <ele>1888</ele>
        <time>2020-01-05T11:11:32.000Z</time>
      </trkpt>
      <trkpt lat="42.74927" lon="1.61296">
        <ele>1888</ele>
        <time>2020-01-05T11:11:34.000Z</time>
      </trkpt>
      <trkpt lat="42.74927" lon="1.61296">
        <ele>1888</ele>
        <time>2020-01-05T11:11:36.000Z</time>
      </trkpt>
      <trkpt lat="42.74927" lon="1.61296">
        <ele>1888</ele>
        <time>2020-01-05T11:11:38.000Z</time>
      </trkpt>
      <trkpt lat="42.74928" lon="1.61296">
        <ele>1888</ele>
        <time>2020-01-05T11:11:40.000Z</time>
      </trkpt>
      <trkpt lat="42.74928" lon="1.61296">
        <ele>1888</ele>
        <time>2020-01-05T11:11:42.000Z</time>
      </trkpt>
      <trkpt lat="42.74928" lon="1.61295">
        <ele>1888</ele>
        <time>2020-01-05T11:11:44.000Z</time>
      </trkpt>
      <trkpt lat="42.74927" lon="1.61296">
        <ele>1888</ele>
        <time>2020-01-05T11:11:46.000Z</time>
      </trkpt>
      <trkpt lat="42.74927" lon="1.61297">
        <ele>1888</ele>
        <time>2020-01-05T11:11:48.000Z</time>
      </trkpt>
      <trkpt lat="42.74927" lon="1.61297">
        <ele>1888</ele>
        <time>2020-01-05T11:11:50.000Z</time>
      </trkpt>
      <trkpt lat="42.74927" lon="1.61297">
        <ele>1888</ele>
        <time>2020-01-05T11:11:52.000Z</time>
      </trkpt>
      <trkpt lat="42.74927" lon="1.61297">
        <ele>1888</ele>
        <time>2020-01-05T11:11:54.000Z</time>
      </trkpt>
      <trkpt lat="42.74927" lon="1.61297">
        <ele>1888</ele>
        <time>2020-01-05T11:11:56.000Z</time>
      </trkpt>
      <trkpt lat="42.74927" lon="1.61297">
        <ele>1888</ele>
        <time>2020-01-05T11:11:58.000Z</time>
      </trkpt>
      <trkpt lat="42.74927" lon="1.61297">
        <ele>1888</ele>
        <time>2020-01-05T11:12:00.000Z</time>
      </trkpt>
      <trkpt lat="42.74927" lon="1.61297">
        <ele>1888</ele>
        <time>2020-01-05T11:12:02.000Z</time>
      </trkpt>
      <trkpt lat="42.74927" lon="1.61296">
        <ele>1888</ele>
        <time>2020-01-05T11:12:04.000Z</time>
      </trkpt>
      <trkpt lat="42.74927" lon="1.61296">
        <ele>1888</ele>
        <time>2020-01-05T11:12:06.000Z</time>
      </trkpt>
      <trkpt lat="42.74927" lon="1.61296">
        <ele>1888</ele>
        <time>2020-01-05T11:12:08.000Z</time>
      </trkpt>
      <trkpt lat="42.74927" lon="1.61296">
        <ele>1888</ele>
        <time>2020-01-05T11:12:10.000Z</time>
      </trkpt>
      <trkpt lat="42.74927" lon="1.61296">
        <ele>1888</ele>
        <time>2020-01-05T11:12:12.000Z</time>
      </trkpt>
      <trkpt lat="42.74927" lon="1.61296">
        <ele>1888</ele>
        <time>2020-01-05T11:12:14.000Z</time>
      </trkpt>
      <trkpt lat="42.74927" lon="1.61296">
        <ele>1888</ele>
        <time>2020-01-05T11:12:16.000Z</time>
      </trkpt>
      <trkpt lat="42.74927" lon="1.61296">
        <ele>1888</ele>
        <time>2020-01-05T11:12:18.000Z</time>
      </trkpt>
      <trkpt lat="42.74927" lon="1.61296">
        <ele>1888</ele>
        <time>2020-01-05T11:12:20.000Z</time>
      </trkpt>
      <trkpt lat="42.74927" lon="1.61296">
        <ele>1888</ele>
        <time>2020-01-05T11:12:22.000Z</time>
      </trkpt>
      <trkpt lat="42.74927" lon="1.61296">
        <ele>1888</ele>
        <time>2020-01-05T11:12:24.000Z</time>
      </trkpt>
      <trkpt lat="42.74927" lon="1.61295">
        <ele>1888</ele>
        <time>2020-01-05T11:12:26.000Z</time>
      </trkpt>
      <trkpt lat="42.74927" lon="1.61295">
        <ele>1888</ele>
        <time>2020-01-05T11:12:28.000Z</time>
      </trkpt>
      <trkpt lat="42.74927" lon="1.61295">
        <ele>1888</ele>
        <time>2020-01-05T11:12:30.000Z</time>
      </trkpt>
      <trkpt lat="42.74927" lon="1.61295">
        <ele>1888</ele>
        <time>2020-01-05T11:12:32.000Z</time>
      </trkpt>
      <trkpt lat="42.74927" lon="1.61295">
        <ele>1888</ele>
        <time>2020-01-05T11:12:34.000Z</time>
      </trkpt>
      <trkpt lat="42.74927" lon="1.61294">
        <ele>1888</ele>
        <time>2020-01-05T11:12:36.000Z</time>
      </trkpt>
      <trkpt lat="42.74927" lon="1.61295">
        <ele>1888</ele>
        <time>2020-01-05T11:12:38.000Z</time>
      </trkpt>
      <trkpt lat="42.74927" lon="1.61295">
        <ele>1888</ele>
        <time>2020-01-05T11:12:40.000Z</time>
      </trkpt>
      <trkpt lat="42.74927" lon="1.61294">
        <ele>1888</ele>
        <time>2020-01-05T11:12:42.000Z</time>
      </trkpt>
      <trkpt lat="42.74927" lon="1.61294">
        <ele>1888</ele>
        <time>2020-01-05T11:12:44.000Z</time>
      </trkpt>
      <trkpt lat="42.74927" lon="1.61294">
        <ele>1888</ele>
        <time>2020-01-05T11:12:46.000Z</time>
      </trkpt>
      <trkpt lat="42.74926" lon="1.61295">
        <ele>1888</ele>
        <time>2020-01-05T11:12:48.000Z</time>
      </trkpt>
      <trkpt lat="42.74926" lon="1.61295">
        <ele>1888</ele>
        <time>2020-01-05T11:12:50.000Z</time>
      </trkpt>
      <trkpt lat="42.74926" lon="1.61295">
        <ele>1888</ele>
        <time>2020-01-05T11:12:52.000Z</time>
      </trkpt>
      <trkpt lat="42.74926" lon="1.61296">
        <ele>1888</ele>
        <time>2020-01-05T11:12:54.000Z</time>
      </trkpt>
      <trkpt lat="42.74926" lon="1.61296">
        <ele>1888</ele>
        <time>2020-01-05T11:12:56.000Z</time>
      </trkpt>
      <trkpt lat="42.74925" lon="1.61296">
        <ele>1888</ele>
        <time>2020-01-05T11:12:58.000Z</time>
      </trkpt>
      <trkpt lat="42.74925" lon="1.61296">
        <ele>1888</ele>
        <time>2020-01-05T11:13:00.000Z</time>
      </trkpt>
      <trkpt lat="42.74925" lon="1.61296">
        <ele>1888</ele>
        <time>2020-01-05T11:13:02.000Z</time>
      </trkpt>
      <trkpt lat="42.74925" lon="1.61296">
        <ele>1888</ele>
        <time>2020-01-05T11:13:04.000Z</time>
      </trkpt>
      <trkpt lat="42.74926" lon="1.61296">
        <ele>1888</ele>
        <time>2020-01-05T11:13:06.000Z</time>
      </trkpt>
      <trkpt lat="42.74926" lon="1.61296">
        <ele>1888</ele>
        <time>2020-01-05T11:13:08.000Z</time>
      </trkpt>
      <trkpt lat="42.74926" lon="1.61296">
        <ele>1888</ele>
        <time>2020-01-05T11:13:10.000Z</time>
      </trkpt>
      <trkpt lat="42.74926" lon="1.61296">
        <ele>1888</ele>
        <time>2020-01-05T11:13:12.000Z</time>
      </trkpt>
      <trkpt lat="42.74926" lon="1.61296">
        <ele>1888</ele>
        <time>2020-01-05T11:13:14.000Z</time>
      </trkpt>
      <trkpt lat="42.74927" lon="1.61296">
        <ele>1888</ele>
        <time>2020-01-05T11:13:16.000Z</time>
      </trkpt>
      <trkpt lat="42.74927" lon="1.61296">
        <ele>1888</ele>
        <time>2020-01-05T11:13:18.000Z</time>
      </trkpt>
      <trkpt lat="42.74926" lon="1.61296">
        <ele>1888</ele>
        <time>2020-01-05T11:13:20.000Z</time>
      </trkpt>
      <trkpt lat="42.74926" lon="1.61296">
        <ele>1888</ele>
        <time>2020-01-05T11:13:22.000Z</time>
      </trkpt>
      <trkpt lat="42.74926" lon="1.61296">
        <ele>1888</ele>
        <time>2020-01-05T11:13:24.000Z</time>
      </trkpt>
      <trkpt lat="42.74926" lon="1.61296">
        <ele>1888</ele>
        <time>2020-01-05T11:13:26.000Z</time>
      </trkpt>
      <trkpt lat="42.74926" lon="1.61296">
        <ele>1888</ele>
        <time>2020-01-05T11:13:28.000Z</time>
      </trkpt>
      <trkpt lat="42.74926" lon="1.61296">
        <ele>1888</ele>
        <time>2020-01-05T11:13:30.000Z</time>
      </trkpt>
      <trkpt lat="42.74926" lon="1.61296">
        <ele>1888</ele>
        <time>2020-01-05T11:13:32.000Z</time>
      </trkpt>
      <trkpt lat="42.74926" lon="1.61296">
        <ele>1888</ele>
        <time>2020-01-05T11:13:34.000Z</time>
      </trkpt>
      <trkpt lat="42.74926" lon="1.61296">
        <ele>1888</ele>
        <time>2020-01-05T11:13:36.000Z</time>
      </trkpt>
      <trkpt lat="42.74926" lon="1.61296">
        <ele>1888</ele>
        <time>2020-01-05T11:13:38.000Z</time>
      </trkpt>
      <trkpt lat="42.74926" lon="1.61297">
        <ele>1888</ele>
        <time>2020-01-05T11:13:40.000Z</time>
      </trkpt>
      <trkpt lat="42.74926" lon="1.61297">
        <ele>1888</ele>
        <time>2020-01-05T11:13:42.000Z</time>
      </trkpt>
      <trkpt lat="42.74926" lon="1.61297">
        <ele>1888</ele>
        <time>2020-01-05T11:13:44.000Z</time>
      </trkpt>
      <trkpt lat="42.74926" lon="1.61297">
        <ele>1888</ele>
        <time>2020-01-05T11:13:46.000Z</time>
      </trkpt>
      <trkpt lat="42.74926" lon="1.61297">
        <ele>1888</ele>
        <time>2020-01-05T11:13:48.000Z</time>
      </trkpt>
      <trkpt lat="42.74926" lon="1.61297">
        <ele>1888</ele>
        <time>2020-01-05T11:13:50.000Z</time>
      </trkpt>
      <trkpt lat="42.74926" lon="1.61297">
        <ele>1888</ele>
        <time>2020-01-05T11:13:52.000Z</time>
      </trkpt>
      <trkpt lat="42.74926" lon="1.61297">
        <ele>1888</ele>
        <time>2020-01-05T11:13:54.000Z</time>
      </trkpt>
      <trkpt lat="42.74926" lon="1.61297">
        <ele>1888</ele>
        <time>2020-01-05T11:13:56.000Z</time>
      </trkpt>
      <trkpt lat="42.74926" lon="1.61297">
        <ele>1888</ele>
        <time>2020-01-05T11:13:58.000Z</time>
      </trkpt>
      <trkpt lat="42.74926" lon="1.61297">
        <ele>1888</ele>
        <time>2020-01-05T11:14:00.000Z</time>
      </trkpt>
      <trkpt lat="42.74926" lon="1.61297">
        <ele>1888</ele>
        <time>2020-01-05T11:14:02.000Z</time>
      </trkpt>
      <trkpt lat="42.74926" lon="1.61297">
        <ele>1888</ele>
        <time>2020-01-05T11:14:04.000Z</time>
      </trkpt>
      <trkpt lat="42.74926" lon="1.61297">
        <ele>1888</ele>
        <time>2020-01-05T11:14:06.000Z</time>
      </trkpt>
      <trkpt lat="42.74926" lon="1.61297">
        <ele>1888</ele>
        <time>2020-01-05T11:14:08.000Z</time>
      </trkpt>
      <trkpt lat="42.74926" lon="1.61297">
        <ele>1888</ele>
        <time>2020-01-05T11:14:10.000Z</time>
      </trkpt>
      <trkpt lat="42.74926" lon="1.61297">
        <ele>1888</ele>
        <time>2020-01-05T11:14:12.000Z</time>
      </trkpt>
      <trkpt lat="42.74926" lon="1.61297">
        <ele>1888</ele>
        <time>2020-01-05T11:14:14.000Z</time>
      </trkpt>
      <trkpt lat="42.74926" lon="1.61297">
        <ele>1888</ele>
        <time>2020-01-05T11:14:16.000Z</time>
      </trkpt>
      <trkpt lat="42.74926" lon="1.61297">
        <ele>1888</ele>
        <time>2020-01-05T11:14:18.000Z</time>
      </trkpt>
      <trkpt lat="42.74926" lon="1.61297">
        <ele>1888</ele>
        <time>2020-01-05T11:14:20.000Z</time>
      </trkpt>
      <trkpt lat="42.74926" lon="1.61297">
        <ele>1888</ele>
        <time>2020-01-05T11:14:22.000Z</time>
      </trkpt>
      <trkpt lat="42.74926" lon="1.61296">
        <ele>1888</ele>
        <time>2020-01-05T11:14:24.000Z</time>
      </trkpt>
      <trkpt lat="42.74926" lon="1.61296">
        <ele>1888</ele>
        <time>2020-01-05T11:14:26.000Z</time>
      </trkpt>
      <trkpt lat="42.74926" lon="1.61296">
        <ele>1888</ele>
        <time>2020-01-05T11:14:28.000Z</time>
      </trkpt>
      <trkpt lat="42.74926" lon="1.61296">
        <ele>1888</ele>
        <time>2020-01-05T11:14:30.000Z</time>
      </trkpt>
      <trkpt lat="42.74926" lon="1.61296">
        <ele>1888</ele>
        <time>2020-01-05T11:14:32.000Z</time>
      </trkpt>
      <trkpt lat="42.74927" lon="1.61296">
        <ele>1888</ele>
        <time>2020-01-05T11:14:34.000Z</time>
      </trkpt>
      <trkpt lat="42.74927" lon="1.61296">
        <ele>1888</ele>
        <time>2020-01-05T11:14:36.000Z</time>
      </trkpt>
      <trkpt lat="42.74927" lon="1.61296">
        <ele>1888</ele>
        <time>2020-01-05T11:14:38.000Z</time>
      </trkpt>
      <trkpt lat="42.74927" lon="1.61296">
        <ele>1888</ele>
        <time>2020-01-05T11:14:40.000Z</time>
      </trkpt>
      <trkpt lat="42.74926" lon="1.61296">
        <ele>1888</ele>
        <time>2020-01-05T11:14:42.000Z</time>
      </trkpt>
      <trkpt lat="42.74926" lon="1.61296">
        <ele>1888</ele>
        <time>2020-01-05T11:14:44.000Z</time>
      </trkpt>
      <trkpt lat="42.74926" lon="1.61296">
        <ele>1888</ele>
        <time>2020-01-05T11:14:46.000Z</time>
      </trkpt>
      <trkpt lat="42.74926" lon="1.61296">
        <ele>1888</ele>
        <time>2020-01-05T11:14:48.000Z</time>
      </trkpt>
      <trkpt lat="42.74926" lon="1.61296">
        <ele>1888</ele>
        <time>2020-01-05T11:14:50.000Z</time>
      </trkpt>
      <trkpt lat="42.74926" lon="1.61296">
        <ele>1888</ele>
        <time>2020-01-05T11:14:52.000Z</time>
      </trkpt>
      <trkpt lat="42.74926" lon="1.61297">
        <ele>1888</ele>
        <time>2020-01-05T11:14:54.000Z</time>
      </trkpt>
      <trkpt lat="42.74926" lon="1.61297">
        <ele>1888</ele>
        <time>2020-01-05T11:14:56.000Z</time>
      </trkpt>
      <trkpt lat="42.74926" lon="1.61297">
        <ele>1888</ele>
        <time>2020-01-05T11:14:58.000Z</time>
      </trkpt>
      <trkpt lat="42.74926" lon="1.61297">
        <ele>1888</ele>
        <time>2020-01-05T11:15:00.000Z</time>
      </trkpt>
      <trkpt lat="42.74926" lon="1.61297">
        <ele>1888</ele>
        <time>2020-01-05T11:15:02.000Z</time>
      </trkpt>
      <trkpt lat="42.74926" lon="1.61298">
        <ele>1888</ele>
        <time>2020-01-05T11:15:04.000Z</time>
      </trkpt>
      <trkpt lat="42.74926" lon="1.61298">
        <ele>1888</ele>
        <time>2020-01-05T11:15:06.000Z</time>
      </trkpt>
      <trkpt lat="42.74926" lon="1.61298">
        <ele>1888</ele>
        <time>2020-01-05T11:15:08.000Z</time>
      </trkpt>
      <trkpt lat="42.74926" lon="1.61298">
        <ele>1888</ele>
        <time>2020-01-05T11:15:10.000Z</time>
      </trkpt>
      <trkpt lat="42.74926" lon="1.61298">
        <ele>1888</ele>
        <time>2020-01-05T11:15:12.000Z</time>
      </trkpt>
      <trkpt lat="42.74926" lon="1.61299">
        <ele>1888</ele>
        <time>2020-01-05T11:15:14.000Z</time>
      </trkpt>
      <trkpt lat="42.74926" lon="1.61299">
        <ele>1888</ele>
        <time>2020-01-05T11:15:16.000Z</time>
      </trkpt>
      <trkpt lat="42.74926" lon="1.61299">
        <ele>1888</ele>
        <time>2020-01-05T11:15:18.000Z</time>
      </trkpt>
      <trkpt lat="42.74926" lon="1.61299">
        <ele>1888</ele>
        <time>2020-01-05T11:15:20.000Z</time>
      </trkpt>
      <trkpt lat="42.74926" lon="1.61299">
        <ele>1888</ele>
        <time>2020-01-05T11:15:22.000Z</time>
      </trkpt>
      <trkpt lat="42.74925" lon="1.61299">
        <ele>1888</ele>
        <time>2020-01-05T11:15:24.000Z</time>
      </trkpt>
      <trkpt lat="42.74925" lon="1.61299">
        <ele>1888</ele>
        <time>2020-01-05T11:15:26.000Z</time>
      </trkpt>
      <trkpt lat="42.74925" lon="1.61298">
        <ele>1888</ele>
        <time>2020-01-05T11:15:28.000Z</time>
      </trkpt>
      <trkpt lat="42.74925" lon="1.61298">
        <ele>1888</ele>
        <time>2020-01-05T11:15:30.000Z</time>
      </trkpt>
      <trkpt lat="42.74926" lon="1.61298">
        <ele>1888</ele>
        <time>2020-01-05T11:15:32.000Z</time>
      </trkpt>
      <trkpt lat="42.74926" lon="1.61298">
        <ele>1888</ele>
        <time>2020-01-05T11:15:34.000Z</time>
      </trkpt>
      <trkpt lat="42.74926" lon="1.61298">
        <ele>1888</ele>
        <time>2020-01-05T11:15:36.000Z</time>
      </trkpt>
      <trkpt lat="42.74925" lon="1.61298">
        <ele>1888</ele>
        <time>2020-01-05T11:15:38.000Z</time>
      </trkpt>
      <trkpt lat="42.74925" lon="1.61298">
        <ele>1888</ele>
        <time>2020-01-05T11:15:40.000Z</time>
      </trkpt>
      <trkpt lat="42.74925" lon="1.61298">
        <ele>1888</ele>
        <time>2020-01-05T11:15:42.000Z</time>
      </trkpt>
      <trkpt lat="42.74925" lon="1.61298">
        <ele>1888</ele>
        <time>2020-01-05T11:15:44.000Z</time>
      </trkpt>
      <trkpt lat="42.74925" lon="1.61298">
        <ele>1888</ele>
        <time>2020-01-05T11:15:46.000Z</time>
      </trkpt>
      <trkpt lat="42.74925" lon="1.61299">
        <ele>1888</ele>
        <time>2020-01-05T11:15:48.000Z</time>
      </trkpt>
      <trkpt lat="42.74925" lon="1.61299">
        <ele>1888</ele>
        <time>2020-01-05T11:15:50.000Z</time>
      </trkpt>
      <trkpt lat="42.74925" lon="1.61299">
        <ele>1888</ele>
        <time>2020-01-05T11:15:52.000Z</time>
      </trkpt>
      <trkpt lat="42.74925" lon="1.61299">
        <ele>1888</ele>
        <time>2020-01-05T11:15:54.000Z</time>
      </trkpt>
      <trkpt lat="42.74926" lon="1.61299">
        <ele>1888</ele>
        <time>2020-01-05T11:15:56.000Z</time>
      </trkpt>
      <trkpt lat="42.74925" lon="1.61299">
        <ele>1888</ele>
        <time>2020-01-05T11:15:58.000Z</time>
      </trkpt>
      <trkpt lat="42.74925" lon="1.61299">
        <ele>1888</ele>
        <time>2020-01-05T11:16:00.000Z</time>
      </trkpt>
      <trkpt lat="42.74925" lon="1.61299">
        <ele>1888</ele>
        <time>2020-01-05T11:16:02.000Z</time>
      </trkpt>
      <trkpt lat="42.74925" lon="1.61299">
        <ele>1888</ele>
        <time>2020-01-05T11:16:04.000Z</time>
      </trkpt>
      <trkpt lat="42.74925" lon="1.61299">
        <ele>1888</ele>
        <time>2020-01-05T11:16:06.000Z</time>
      </trkpt>
      <trkpt lat="42.74925" lon="1.61299">
        <ele>1888</ele>
        <time>2020-01-05T11:16:08.000Z</time>
      </trkpt>
      <trkpt lat="42.74925" lon="1.61299">
        <ele>1888</ele>
        <time>2020-01-05T11:16:10.000Z</time>
      </trkpt>
      <trkpt lat="42.74925" lon="1.61299">
        <ele>1888</ele>
        <time>2020-01-05T11:16:12.000Z</time>
      </trkpt>
      <trkpt lat="42.74925" lon="1.61299">
        <ele>1888</ele>
        <time>2020-01-05T11:16:14.000Z</time>
      </trkpt>
      <trkpt lat="42.74924" lon="1.61298">
        <ele>1888</ele>
        <time>2020-01-05T11:16:16.000Z</time>
      </trkpt>
      <trkpt lat="42.74924" lon="1.61298">
        <ele>1888</ele>
        <time>2020-01-05T11:16:18.000Z</time>
      </trkpt>
      <trkpt lat="42.74924" lon="1.61298">
        <ele>1888</ele>
        <time>2020-01-05T11:16:20.000Z</time>
      </trkpt>
      <trkpt lat="42.74924" lon="1.61298">
        <ele>1888</ele>
        <time>2020-01-05T11:16:22.000Z</time>
      </trkpt>
      <trkpt lat="42.74924" lon="1.61299">
        <ele>1888</ele>
        <time>2020-01-05T11:16:24.000Z</time>
      </trkpt>
      <trkpt lat="42.74924" lon="1.61299">
        <ele>1888</ele>
        <time>2020-01-05T11:16:26.000Z</time>
      </trkpt>
      <trkpt lat="42.74924" lon="1.61298">
        <ele>1888</ele>
        <time>2020-01-05T11:16:28.000Z</time>
      </trkpt>
      <trkpt lat="42.74924" lon="1.61298">
        <ele>1888</ele>
        <time>2020-01-05T11:16:30.000Z</time>
      </trkpt>
      <trkpt lat="42.74924" lon="1.61299">
        <ele>1888</ele>
        <time>2020-01-05T11:16:32.000Z</time>
      </trkpt>
      <trkpt lat="42.74924" lon="1.61299">
        <ele>1888</ele>
        <time>2020-01-05T11:16:34.000Z</time>
      </trkpt>
      <trkpt lat="42.74924" lon="1.61299">
        <ele>1888</ele>
        <time>2020-01-05T11:16:36.000Z</time>
      </trkpt>
      <trkpt lat="42.74924" lon="1.61299">
        <ele>1888</ele>
        <time>2020-01-05T11:16:38.000Z</time>
      </trkpt>
      <trkpt lat="42.74924" lon="1.61299">
        <ele>1888</ele>
        <time>2020-01-05T11:16:40.000Z</time>
      </trkpt>
      <trkpt lat="42.74924" lon="1.61299">
        <ele>1888</ele>
        <time>2020-01-05T11:16:42.000Z</time>
      </trkpt>
      <trkpt lat="42.74924" lon="1.61298">
        <ele>1888</ele>
        <time>2020-01-05T11:16:44.000Z</time>
      </trkpt>
      <trkpt lat="42.74924" lon="1.61298">
        <ele>1888</ele>
        <time>2020-01-05T11:16:46.000Z</time>
      </trkpt>
      <trkpt lat="42.74924" lon="1.61298">
        <ele>1888</ele>
        <time>2020-01-05T11:16:48.000Z</time>
      </trkpt>
      <trkpt lat="42.74924" lon="1.61298">
        <ele>1888</ele>
        <time>2020-01-05T11:16:50.000Z</time>
      </trkpt>
      <trkpt lat="42.74924" lon="1.61298">
        <ele>1888</ele>
        <time>2020-01-05T11:16:52.000Z</time>
      </trkpt>
      <trkpt lat="42.74924" lon="1.61298">
        <ele>1888</ele>
        <time>2020-01-05T11:16:54.000Z</time>
      </trkpt>
      <trkpt lat="42.74924" lon="1.61298">
        <ele>1888</ele>
        <time>2020-01-05T11:16:56.000Z</time>
      </trkpt>
      <trkpt lat="42.74924" lon="1.61298">
        <ele>1888</ele>
        <time>2020-01-05T11:16:58.000Z</time>
      </trkpt>
      <trkpt lat="42.74924" lon="1.61298">
        <ele>1888</ele>
        <time>2020-01-05T11:17:00.000Z</time>
      </trkpt>
      <trkpt lat="42.74924" lon="1.61298">
        <ele>1888</ele>
        <time>2020-01-05T11:17:02.000Z</time>
      </trkpt>
      <trkpt lat="42.74924" lon="1.61298">
        <ele>1888</ele>
        <time>2020-01-05T11:17:04.000Z</time>
      </trkpt>
      <trkpt lat="42.74924" lon="1.61298">
        <ele>1888</ele>
        <time>2020-01-05T11:17:06.000Z</time>
      </trkpt>
      <trkpt lat="42.74924" lon="1.61298">
        <ele>1888</ele>
        <time>2020-01-05T11:17:08.000Z</time>
      </trkpt>
      <trkpt lat="42.74924" lon="1.61298">
        <ele>1888</ele>
        <time>2020-01-05T11:17:10.000Z</time>
      </trkpt>
      <trkpt lat="42.74924" lon="1.61298">
        <ele>1888</ele>
        <time>2020-01-05T11:17:12.000Z</time>
      </trkpt>
      <trkpt lat="42.74924" lon="1.61298">
        <ele>1888</ele>
        <time>2020-01-05T11:17:14.000Z</time>
      </trkpt>
      <trkpt lat="42.74924" lon="1.61298">
        <ele>1888</ele>
        <time>2020-01-05T11:17:16.000Z</time>
      </trkpt>
      <trkpt lat="42.74924" lon="1.61298">
        <ele>1888</ele>
        <time>2020-01-05T11:17:18.000Z</time>
      </trkpt>
      <trkpt lat="42.74924" lon="1.61298">
        <ele>1888</ele>
        <time>2020-01-05T11:17:20.000Z</time>
      </trkpt>
      <trkpt lat="42.74924" lon="1.61298">
        <ele>1888</ele>
        <time>2020-01-05T11:17:22.000Z</time>
      </trkpt>
      <trkpt lat="42.74924" lon="1.61298">
        <ele>1888</ele>
        <time>2020-01-05T11:17:24.000Z</time>
      </trkpt>
      <trkpt lat="42.74924" lon="1.61298">
        <ele>1888</ele>
        <time>2020-01-05T11:17:26.000Z</time>
      </trkpt>
      <trkpt lat="42.74924" lon="1.61298">
        <ele>1888</ele>
        <time>2020-01-05T11:17:28.000Z</time>
      </trkpt>
      <trkpt lat="42.74924" lon="1.61298">
        <ele>1888</ele>
        <time>2020-01-05T11:17:30.000Z</time>
      </trkpt>
      <trkpt lat="42.74924" lon="1.61298">
        <ele>1888</ele>
        <time>2020-01-05T11:17:32.000Z</time>
      </trkpt>
      <trkpt lat="42.74924" lon="1.61298">
        <ele>1888</ele>
        <time>2020-01-05T11:17:34.000Z</time>
      </trkpt>
      <trkpt lat="42.74924" lon="1.61298">
        <ele>1888</ele>
        <time>2020-01-05T11:17:36.000Z</time>
      </trkpt>
      <trkpt lat="42.74924" lon="1.61298">
        <ele>1888</ele>
        <time>2020-01-05T11:17:38.000Z</time>
      </trkpt>
      <trkpt lat="42.74924" lon="1.61298">
        <ele>1888</ele>
        <time>2020-01-05T11:17:40.000Z</time>
      </trkpt>
      <trkpt lat="42.74924" lon="1.61298">
        <ele>1888</ele>
        <time>2020-01-05T11:17:42.000Z</time>
      </trkpt>
      <trkpt lat="42.74924" lon="1.61298">
        <ele>1888</ele>
        <time>2020-01-05T11:17:44.000Z</time>
      </trkpt>
      <trkpt lat="42.74923" lon="1.61298">
        <ele>1888</ele>
        <time>2020-01-05T11:17:46.000Z</time>
      </trkpt>
      <trkpt lat="42.74923" lon="1.61298">
        <ele>1888</ele>
        <time>2020-01-05T11:17:48.000Z</time>
      </trkpt>
      <trkpt lat="42.74923" lon="1.61298">
        <ele>1888</ele>
        <time>2020-01-05T11:17:50.000Z</time>
      </trkpt>
      <trkpt lat="42.74923" lon="1.61298">
        <ele>1888</ele>
        <time>2020-01-05T11:17:52.000Z</time>
      </trkpt>
      <trkpt lat="42.74923" lon="1.61298">
        <ele>1888</ele>
        <time>2020-01-05T11:17:54.000Z</time>
      </trkpt>
      <trkpt lat="42.74923" lon="1.61298">
        <ele>1888</ele>
        <time>2020-01-05T11:17:56.000Z</time>
      </trkpt>
      <trkpt lat="42.74923" lon="1.61298">
        <ele>1888</ele>
        <time>2020-01-05T11:17:58.000Z</time>
      </trkpt>
      <trkpt lat="42.74923" lon="1.61298">
        <ele>1888</ele>
        <time>2020-01-05T11:18:00.000Z</time>
      </trkpt>
      <trkpt lat="42.74923" lon="1.61298">
        <ele>1888</ele>
        <time>2020-01-05T11:18:02.000Z</time>
      </trkpt>
      <trkpt lat="42.74923" lon="1.61298">
        <ele>1888</ele>
        <time>2020-01-05T11:18:04.000Z</time>
      </trkpt>
      <trkpt lat="42.74923" lon="1.61298">
        <ele>1888</ele>
        <time>2020-01-05T11:18:06.000Z</time>
      </trkpt>
      <trkpt lat="42.74923" lon="1.61298">
        <ele>1888</ele>
        <time>2020-01-05T11:18:08.000Z</time>
      </trkpt>
      <trkpt lat="42.74923" lon="1.61298">
        <ele>1888</ele>
        <time>2020-01-05T11:18:10.000Z</time>
      </trkpt>
      <trkpt lat="42.74923" lon="1.61298">
        <ele>1888</ele>
        <time>2020-01-05T11:18:12.000Z</time>
      </trkpt>
      <trkpt lat="42.74923" lon="1.61298">
        <ele>1888</ele>
        <time>2020-01-05T11:18:14.000Z</time>
      </trkpt>
      <trkpt lat="42.74924" lon="1.61298">
        <ele>1888</ele>
        <time>2020-01-05T11:18:16.000Z</time>
      </trkpt>
      <trkpt lat="42.74924" lon="1.61298">
        <ele>1888</ele>
        <time>2020-01-05T11:18:18.000Z</time>
      </trkpt>
      <trkpt lat="42.74924" lon="1.61298">
        <ele>1888</ele>
        <time>2020-01-05T11:18:20.000Z</time>
      </trkpt>
      <trkpt lat="42.74924" lon="1.61298">
        <ele>1888</ele>
        <time>2020-01-05T11:18:22.000Z</time>
      </trkpt>
      <trkpt lat="42.74924" lon="1.61298">
        <ele>1888</ele>
        <time>2020-01-05T11:18:24.000Z</time>
      </trkpt>
      <trkpt lat="42.74924" lon="1.61298">
        <ele>1888</ele>
        <time>2020-01-05T11:18:26.000Z</time>
      </trkpt>
      <trkpt lat="42.74924" lon="1.61298">
        <ele>1888</ele>
        <time>2020-01-05T11:18:28.000Z</time>
      </trkpt>
      <trkpt lat="42.74923" lon="1.61298">
        <ele>1888</ele>
        <time>2020-01-05T11:18:30.000Z</time>
      </trkpt>
      <trkpt lat="42.74923" lon="1.61298">
        <ele>1888</ele>
        <time>2020-01-05T11:18:32.000Z</time>
      </trkpt>
      <trkpt lat="42.74923" lon="1.61298">
        <ele>1888</ele>
        <time>2020-01-05T11:18:34.000Z</time>
      </trkpt>
      <trkpt lat="42.74923" lon="1.61298">
        <ele>1888</ele>
        <time>2020-01-05T11:18:36.000Z</time>
      </trkpt>
      <trkpt lat="42.74923" lon="1.61298">
        <ele>1888</ele>
        <time>2020-01-05T11:18:38.000Z</time>
      </trkpt>
      <trkpt lat="42.74923" lon="1.61298">
        <ele>1888</ele>
        <time>2020-01-05T11:18:40.000Z</time>
      </trkpt>
      <trkpt lat="42.74923" lon="1.61297">
        <ele>1888</ele>
        <time>2020-01-05T11:18:42.000Z</time>
      </trkpt>
      <trkpt lat="42.74923" lon="1.61297">
        <ele>1888</ele>
        <time>2020-01-05T11:18:44.000Z</time>
      </trkpt>
      <trkpt lat="42.74923" lon="1.61297">
        <ele>1888</ele>
        <time>2020-01-05T11:18:46.000Z</time>
      </trkpt>
      <trkpt lat="42.74922" lon="1.61297">
        <ele>1888</ele>
        <time>2020-01-05T11:18:48.000Z</time>
      </trkpt>
      <trkpt lat="42.74922" lon="1.61297">
        <ele>1888</ele>
        <time>2020-01-05T11:18:50.000Z</time>
      </trkpt>
      <trkpt lat="42.74922" lon="1.61297">
        <ele>1888</ele>
        <time>2020-01-05T11:18:52.000Z</time>
      </trkpt>
      <trkpt lat="42.74923" lon="1.61298">
        <ele>1888</ele>
        <time>2020-01-05T11:18:54.000Z</time>
      </trkpt>
      <trkpt lat="42.74923" lon="1.61298">
        <ele>1888</ele>
        <time>2020-01-05T11:18:56.000Z</time>
      </trkpt>
      <trkpt lat="42.74923" lon="1.61298">
        <ele>1888</ele>
        <time>2020-01-05T11:18:58.000Z</time>
      </trkpt>
      <trkpt lat="42.74923" lon="1.61298">
        <ele>1888</ele>
        <time>2020-01-05T11:19:00.000Z</time>
      </trkpt>
      <trkpt lat="42.74923" lon="1.61298">
        <ele>1888</ele>
        <time>2020-01-05T11:19:02.000Z</time>
      </trkpt>
      <trkpt lat="42.74923" lon="1.61298">
        <ele>1888</ele>
        <time>2020-01-05T11:19:04.000Z</time>
      </trkpt>
      <trkpt lat="42.74923" lon="1.61298">
        <ele>1888</ele>
        <time>2020-01-05T11:19:06.000Z</time>
      </trkpt>
      <trkpt lat="42.74924" lon="1.61298">
        <ele>1888</ele>
        <time>2020-01-05T11:19:08.000Z</time>
      </trkpt>
      <trkpt lat="42.74924" lon="1.61298">
        <ele>1888</ele>
        <time>2020-01-05T11:19:10.000Z</time>
      </trkpt>
      <trkpt lat="42.74924" lon="1.61298">
        <ele>1888</ele>
        <time>2020-01-05T11:19:12.000Z</time>
      </trkpt>
      <trkpt lat="42.74924" lon="1.61298">
        <ele>1888</ele>
        <time>2020-01-05T11:19:14.000Z</time>
      </trkpt>
      <trkpt lat="42.74924" lon="1.61298">
        <ele>1888</ele>
        <time>2020-01-05T11:19:16.000Z</time>
      </trkpt>
      <trkpt lat="42.74924" lon="1.61297">
        <ele>1888</ele>
        <time>2020-01-05T11:19:18.000Z</time>
      </trkpt>
      <trkpt lat="42.74924" lon="1.61297">
        <ele>1888</ele>
        <time>2020-01-05T11:19:20.000Z</time>
      </trkpt>
      <trkpt lat="42.74924" lon="1.61298">
        <ele>1888</ele>
        <time>2020-01-05T11:19:22.000Z</time>
      </trkpt>
      <trkpt lat="42.74924" lon="1.61298">
        <ele>1888</ele>
        <time>2020-01-05T11:19:24.000Z</time>
      </trkpt>
      <trkpt lat="42.74924" lon="1.61298">
        <ele>1888</ele>
        <time>2020-01-05T11:19:26.000Z</time>
      </trkpt>
      <trkpt lat="42.74924" lon="1.61298">
        <ele>1888</ele>
        <time>2020-01-05T11:19:28.000Z</time>
      </trkpt>
      <trkpt lat="42.74924" lon="1.61298">
        <ele>1888</ele>
        <time>2020-01-05T11:19:30.000Z</time>
      </trkpt>
      <trkpt lat="42.74924" lon="1.61298">
        <ele>1888</ele>
        <time>2020-01-05T11:19:32.000Z</time>
      </trkpt>
      <trkpt lat="42.74924" lon="1.61297">
        <ele>1888</ele>
        <time>2020-01-05T11:19:34.000Z</time>
      </trkpt>
      <trkpt lat="42.74924" lon="1.61298">
        <ele>1888</ele>
        <time>2020-01-05T11:19:36.000Z</time>
      </trkpt>
      <trkpt lat="42.74924" lon="1.61297">
        <ele>1888</ele>
        <time>2020-01-05T11:19:38.000Z</time>
      </trkpt>
      <trkpt lat="42.74924" lon="1.61297">
        <ele>1888</ele>
        <time>2020-01-05T11:19:40.000Z</time>
      </trkpt>
      <trkpt lat="42.74924" lon="1.61297">
        <ele>1888</ele>
        <time>2020-01-05T11:19:42.000Z</time>
      </trkpt>
      <trkpt lat="42.74924" lon="1.61296">
        <ele>1888</ele>
        <time>2020-01-05T11:19:44.000Z</time>
      </trkpt>
      <trkpt lat="42.74923" lon="1.61296">
        <ele>1888</ele>
        <time>2020-01-05T11:19:46.000Z</time>
      </trkpt>
      <trkpt lat="42.74923" lon="1.61296">
        <ele>1888</ele>
        <time>2020-01-05T11:19:48.000Z</time>
      </trkpt>
      <trkpt lat="42.74923" lon="1.61296">
        <ele>1888</ele>
        <time>2020-01-05T11:19:50.000Z</time>
      </trkpt>
      <trkpt lat="42.74923" lon="1.61297">
        <ele>1888</ele>
        <time>2020-01-05T11:19:52.000Z</time>
      </trkpt>
      <trkpt lat="42.74923" lon="1.61297">
        <ele>1888</ele>
        <time>2020-01-05T11:19:54.000Z</time>
      </trkpt>
      <trkpt lat="42.74923" lon="1.61297">
        <ele>1888</ele>
        <time>2020-01-05T11:19:56.000Z</time>
      </trkpt>
      <trkpt lat="42.74923" lon="1.61297">
        <ele>1888</ele>
        <time>2020-01-05T11:19:58.000Z</time>
      </trkpt>
      <trkpt lat="42.74923" lon="1.61297">
        <ele>1888</ele>
        <time>2020-01-05T11:20:00.000Z</time>
      </trkpt>
      <trkpt lat="42.74923" lon="1.61297">
        <ele>1888</ele>
        <time>2020-01-05T11:20:02.000Z</time>
      </trkpt>
      <trkpt lat="42.74923" lon="1.61297">
        <ele>1888</ele>
        <time>2020-01-05T11:20:04.000Z</time>
      </trkpt>
      <trkpt lat="42.74923" lon="1.61297">
        <ele>1888</ele>
        <time>2020-01-05T11:20:06.000Z</time>
      </trkpt>
      <trkpt lat="42.74923" lon="1.61297">
        <ele>1888</ele>
        <time>2020-01-05T11:20:08.000Z</time>
      </trkpt>
      <trkpt lat="42.74923" lon="1.61297">
        <ele>1888</ele>
        <time>2020-01-05T11:20:10.000Z</time>
      </trkpt>
      <trkpt lat="42.74923" lon="1.61297">
        <ele>1888</ele>
        <time>2020-01-05T11:20:12.000Z</time>
      </trkpt>
      <trkpt lat="42.74923" lon="1.61298">
        <ele>1888</ele>
        <time>2020-01-05T11:20:14.000Z</time>
      </trkpt>
      <trkpt lat="42.74923" lon="1.61297">
        <ele>1888</ele>
        <time>2020-01-05T11:20:16.000Z</time>
      </trkpt>
      <trkpt lat="42.74923" lon="1.61297">
        <ele>1888</ele>
        <time>2020-01-05T11:20:18.000Z</time>
      </trkpt>
      <trkpt lat="42.74923" lon="1.61298">
        <ele>1888</ele>
        <time>2020-01-05T11:20:20.000Z</time>
      </trkpt>
      <trkpt lat="42.74923" lon="1.61298">
        <ele>1888</ele>
        <time>2020-01-05T11:20:22.000Z</time>
      </trkpt>
      <trkpt lat="42.74923" lon="1.61298">
        <ele>1888</ele>
        <time>2020-01-05T11:20:24.000Z</time>
      </trkpt>
      <trkpt lat="42.74924" lon="1.61299">
        <ele>1888</ele>
        <time>2020-01-05T11:20:26.000Z</time>
      </trkpt>
      <trkpt lat="42.74924" lon="1.61299">
        <ele>1888</ele>
        <time>2020-01-05T11:20:28.000Z</time>
      </trkpt>
      <trkpt lat="42.74924" lon="1.613">
        <ele>1888</ele>
        <time>2020-01-05T11:20:30.000Z</time>
      </trkpt>
      <trkpt lat="42.74923" lon="1.61299">
        <ele>1888</ele>
        <time>2020-01-05T11:20:32.000Z</time>
      </trkpt>
      <trkpt lat="42.74923" lon="1.61299">
        <ele>1888</ele>
        <time>2020-01-05T11:20:34.000Z</time>
      </trkpt>
      <trkpt lat="42.74923" lon="1.61299">
        <ele>1888</ele>
        <time>2020-01-05T11:20:36.000Z</time>
      </trkpt>
      <trkpt lat="42.74923" lon="1.61299">
        <ele>1888</ele>
        <time>2020-01-05T11:20:38.000Z</time>
      </trkpt>
      <trkpt lat="42.74923" lon="1.61299">
        <ele>1888</ele>
        <time>2020-01-05T11:20:40.000Z</time>
      </trkpt>
      <trkpt lat="42.74922" lon="1.613">
        <ele>1888</ele>
        <time>2020-01-05T11:20:42.000Z</time>
      </trkpt>
      <trkpt lat="42.74921" lon="1.61299">
        <ele>1888</ele>
        <time>2020-01-05T11:20:44.000Z</time>
      </trkpt>
      <trkpt lat="42.74922" lon="1.61299">
        <ele>1888</ele>
        <time>2020-01-05T11:20:46.000Z</time>
      </trkpt>
      <trkpt lat="42.74922" lon="1.61299">
        <ele>1888</ele>
        <time>2020-01-05T11:20:48.000Z</time>
      </trkpt>
      <trkpt lat="42.74922" lon="1.61299">
        <ele>1888</ele>
        <time>2020-01-05T11:20:50.000Z</time>
      </trkpt>
      <trkpt lat="42.74922" lon="1.61299">
        <ele>1888</ele>
        <time>2020-01-05T11:20:52.000Z</time>
      </trkpt>
      <trkpt lat="42.74922" lon="1.61299">
        <ele>1888</ele>
        <time>2020-01-05T11:20:54.000Z</time>
      </trkpt>
      <trkpt lat="42.74922" lon="1.61299">
        <ele>1888</ele>
        <time>2020-01-05T11:20:56.000Z</time>
      </trkpt>
      <trkpt lat="42.74922" lon="1.61299">
        <ele>1888</ele>
        <time>2020-01-05T11:20:58.000Z</time>
      </trkpt>
      <trkpt lat="42.74922" lon="1.61298">
        <ele>1888</ele>
        <time>2020-01-05T11:21:00.000Z</time>
      </trkpt>
      <trkpt lat="42.74922" lon="1.61298">
        <ele>1888</ele>
        <time>2020-01-05T11:21:02.000Z</time>
      </trkpt>
      <trkpt lat="42.74922" lon="1.61298">
        <ele>1888</ele>
        <time>2020-01-05T11:21:04.000Z</time>
      </trkpt>
      <trkpt lat="42.74922" lon="1.61298">
        <ele>1888</ele>
        <time>2020-01-05T11:21:06.000Z</time>
      </trkpt>
      <trkpt lat="42.74922" lon="1.61298">
        <ele>1888</ele>
        <time>2020-01-05T11:21:08.000Z</time>
      </trkpt>
      <trkpt lat="42.74922" lon="1.61298">
        <ele>1888</ele>
        <time>2020-01-05T11:21:10.000Z</time>
      </trkpt>
      <trkpt lat="42.74922" lon="1.61298">
        <ele>1888</ele>
        <time>2020-01-05T11:21:12.000Z</time>
      </trkpt>
      <trkpt lat="42.74922" lon="1.61298">
        <ele>1888</ele>
        <time>2020-01-05T11:21:14.000Z</time>
      </trkpt>
      <trkpt lat="42.74922" lon="1.61298">
        <ele>1888</ele>
        <time>2020-01-05T11:21:16.000Z</time>
      </trkpt>
      <trkpt lat="42.74922" lon="1.61298">
        <ele>1888</ele>
        <time>2020-01-05T11:21:18.000Z</time>
      </trkpt>
      <trkpt lat="42.74922" lon="1.61298">
        <ele>1888</ele>
        <time>2020-01-05T11:21:20.000Z</time>
      </trkpt>
      <trkpt lat="42.74922" lon="1.61298">
        <ele>1888</ele>
        <time>2020-01-05T11:21:22.000Z</time>
      </trkpt>
      <trkpt lat="42.74923" lon="1.61298">
        <ele>1888</ele>
        <time>2020-01-05T11:21:24.000Z</time>
      </trkpt>
      <trkpt lat="42.74923" lon="1.61298">
        <ele>1888</ele>
        <time>2020-01-05T11:21:26.000Z</time>
      </trkpt>
      <trkpt lat="42.74922" lon="1.61298">
        <ele>1888</ele>
        <time>2020-01-05T11:21:28.000Z</time>
      </trkpt>
      <trkpt lat="42.74922" lon="1.61298">
        <ele>1888</ele>
        <time>2020-01-05T11:21:30.000Z</time>
      </trkpt>
      <trkpt lat="42.74922" lon="1.61298">
        <ele>1888</ele>
        <time>2020-01-05T11:21:32.000Z</time>
      </trkpt>
      <trkpt lat="42.74923" lon="1.61298">
        <ele>1888</ele>
        <time>2020-01-05T11:21:34.000Z</time>
      </trkpt>
      <trkpt lat="42.74923" lon="1.61298">
        <ele>1888</ele>
        <time>2020-01-05T11:21:36.000Z</time>
      </trkpt>
      <trkpt lat="42.74922" lon="1.61298">
        <ele>1888</ele>
        <time>2020-01-05T11:21:38.000Z</time>
      </trkpt>
      <trkpt lat="42.74923" lon="1.61298">
        <ele>1888</ele>
        <time>2020-01-05T11:21:40.000Z</time>
      </trkpt>
      <trkpt lat="42.74922" lon="1.61298">
        <ele>1888</ele>
        <time>2020-01-05T11:21:42.000Z</time>
      </trkpt>
      <trkpt lat="42.74922" lon="1.61298">
        <ele>1888</ele>
        <time>2020-01-05T11:21:44.000Z</time>
      </trkpt>
      <trkpt lat="42.74922" lon="1.61298">
        <ele>1888</ele>
        <time>2020-01-05T11:21:46.000Z</time>
      </trkpt>
      <trkpt lat="42.74922" lon="1.61298">
        <ele>1888</ele>
        <time>2020-01-05T11:21:48.000Z</time>
      </trkpt>
      <trkpt lat="42.74922" lon="1.61298">
        <ele>1888</ele>
        <time>2020-01-05T11:21:50.000Z</time>
      </trkpt>
      <trkpt lat="42.74922" lon="1.61298">
        <ele>1888</ele>
        <time>2020-01-05T11:21:52.000Z</time>
      </trkpt>
      <trkpt lat="42.74923" lon="1.61298">
        <ele>1888</ele>
        <time>2020-01-05T11:21:54.000Z</time>
      </trkpt>
      <trkpt lat="42.74923" lon="1.61298">
        <ele>1888</ele>
        <time>2020-01-05T11:21:56.000Z</time>
      </trkpt>
      <trkpt lat="42.74923" lon="1.61299">
        <ele>1888</ele>
        <time>2020-01-05T11:21:58.000Z</time>
      </trkpt>
      <trkpt lat="42.74922" lon="1.61299">
        <ele>1888</ele>
        <time>2020-01-05T11:22:00.000Z</time>
      </trkpt>
      <trkpt lat="42.74922" lon="1.61298">
        <ele>1888</ele>
        <time>2020-01-05T11:22:02.000Z</time>
      </trkpt>
      <trkpt lat="42.74922" lon="1.61298">
        <ele>1888</ele>
        <time>2020-01-05T11:22:04.000Z</time>
      </trkpt>
      <trkpt lat="42.74922" lon="1.61298">
        <ele>1888</ele>
        <time>2020-01-05T11:22:06.000Z</time>
      </trkpt>
      <trkpt lat="42.74922" lon="1.61298">
        <ele>1888</ele>
        <time>2020-01-05T11:22:08.000Z</time>
      </trkpt>
      <trkpt lat="42.74922" lon="1.61298">
        <ele>1888</ele>
        <time>2020-01-05T11:22:10.000Z</time>
      </trkpt>
      <trkpt lat="42.74922" lon="1.61297">
        <ele>1888</ele>
        <time>2020-01-05T11:22:12.000Z</time>
      </trkpt>
      <trkpt lat="42.74923" lon="1.61297">
        <ele>1888</ele>
        <time>2020-01-05T11:22:14.000Z</time>
      </trkpt>
      <trkpt lat="42.74923" lon="1.61297">
        <ele>1888</ele>
        <time>2020-01-05T11:22:16.000Z</time>
      </trkpt>
      <trkpt lat="42.74923" lon="1.61297">
        <ele>1888</ele>
        <time>2020-01-05T11:22:18.000Z</time>
      </trkpt>
      <trkpt lat="42.74923" lon="1.61297">
        <ele>1888</ele>
        <time>2020-01-05T11:22:20.000Z</time>
      </trkpt>
      <trkpt lat="42.74923" lon="1.61297">
        <ele>1888</ele>
        <time>2020-01-05T11:22:22.000Z</time>
      </trkpt>
      <trkpt lat="42.74923" lon="1.61297">
        <ele>1888</ele>
        <time>2020-01-05T11:22:24.000Z</time>
      </trkpt>
      <trkpt lat="42.74923" lon="1.61297">
        <ele>1888</ele>
        <time>2020-01-05T11:22:26.000Z</time>
      </trkpt>
      <trkpt lat="42.74923" lon="1.61297">
        <ele>1888</ele>
        <time>2020-01-05T11:22:28.000Z</time>
      </trkpt>
      <trkpt lat="42.74923" lon="1.61297">
        <ele>1888</ele>
        <time>2020-01-05T11:22:30.000Z</time>
      </trkpt>
      <trkpt lat="42.74923" lon="1.61297">
        <ele>1888</ele>
        <time>2020-01-05T11:22:32.000Z</time>
      </trkpt>
      <trkpt lat="42.74923" lon="1.61297">
        <ele>1888</ele>
        <time>2020-01-05T11:22:34.000Z</time>
      </trkpt>
      <trkpt lat="42.74923" lon="1.61297">
        <ele>1888</ele>
        <time>2020-01-05T11:22:36.000Z</time>
      </trkpt>
      <trkpt lat="42.74923" lon="1.61297">
        <ele>1888</ele>
        <time>2020-01-05T11:22:38.000Z</time>
      </trkpt>
      <trkpt lat="42.74923" lon="1.61298">
        <ele>1888</ele>
        <time>2020-01-05T11:22:40.000Z</time>
      </trkpt>
      <trkpt lat="42.74923" lon="1.61298">
        <ele>1888</ele>
        <time>2020-01-05T11:22:42.000Z</time>
      </trkpt>
      <trkpt lat="42.74923" lon="1.61298">
        <ele>1888</ele>
        <time>2020-01-05T11:22:44.000Z</time>
      </trkpt>
      <trkpt lat="42.74923" lon="1.61298">
        <ele>1888</ele>
        <time>2020-01-05T11:22:46.000Z</time>
      </trkpt>
      <trkpt lat="42.74923" lon="1.61298">
        <ele>1888</ele>
        <time>2020-01-05T11:22:48.000Z</time>
      </trkpt>
      <trkpt lat="42.74923" lon="1.61298">
        <ele>1888</ele>
        <time>2020-01-05T11:22:50.000Z</time>
      </trkpt>
      <trkpt lat="42.74924" lon="1.61298">
        <ele>1888</ele>
        <time>2020-01-05T11:22:52.000Z</time>
      </trkpt>
      <trkpt lat="42.74924" lon="1.61299">
        <ele>1888</ele>
        <time>2020-01-05T11:22:54.000Z</time>
      </trkpt>
      <trkpt lat="42.74924" lon="1.61298">
        <ele>1888</ele>
        <time>2020-01-05T11:22:56.000Z</time>
      </trkpt>
      <trkpt lat="42.74924" lon="1.61298">
        <ele>1888</ele>
        <time>2020-01-05T11:22:58.000Z</time>
      </trkpt>
      <trkpt lat="42.74923" lon="1.61298">
        <ele>1888</ele>
        <time>2020-01-05T11:23:00.000Z</time>
      </trkpt>
      <trkpt lat="42.74924" lon="1.61296">
        <ele>1888</ele>
        <time>2020-01-05T11:23:02.000Z</time>
      </trkpt>
      <trkpt lat="42.74925" lon="1.61295">
        <ele>1888</ele>
        <time>2020-01-05T11:23:04.000Z</time>
      </trkpt>
      <trkpt lat="42.74926" lon="1.61294">
        <ele>1888</ele>
        <time>2020-01-05T11:23:06.000Z</time>
      </trkpt>
      <trkpt lat="42.74926" lon="1.61292">
        <ele>1888</ele>
        <time>2020-01-05T11:23:08.000Z</time>
      </trkpt>
      <trkpt lat="42.74926" lon="1.61292">
        <ele>1888</ele>
        <time>2020-01-05T11:23:10.000Z</time>
      </trkpt>
      <trkpt lat="42.74926" lon="1.61291">
        <ele>1888</ele>
        <time>2020-01-05T11:23:12.000Z</time>
      </trkpt>
      <trkpt lat="42.74926" lon="1.61291">
        <ele>1888</ele>
        <time>2020-01-05T11:23:14.000Z</time>
      </trkpt>
      <trkpt lat="42.74926" lon="1.61291">
        <ele>1888</ele>
        <time>2020-01-05T11:23:16.000Z</time>
      </trkpt>
      <trkpt lat="42.74926" lon="1.61292">
        <ele>1888</ele>
        <time>2020-01-05T11:23:18.000Z</time>
      </trkpt>
      <trkpt lat="42.74927" lon="1.61292">
        <ele>1888</ele>
        <time>2020-01-05T11:23:20.000Z</time>
      </trkpt>
      <trkpt lat="42.74926" lon="1.61292">
        <ele>1888</ele>
        <time>2020-01-05T11:23:22.000Z</time>
      </trkpt>
      <trkpt lat="42.74926" lon="1.61292">
        <ele>1888</ele>
        <time>2020-01-05T11:23:24.000Z</time>
      </trkpt>
      <trkpt lat="42.74926" lon="1.61292">
        <ele>1888</ele>
        <time>2020-01-05T11:23:26.000Z</time>
      </trkpt>
      <trkpt lat="42.74926" lon="1.61292">
        <ele>1888</ele>
        <time>2020-01-05T11:23:28.000Z</time>
      </trkpt>
      <trkpt lat="42.74926" lon="1.61292">
        <ele>1888</ele>
        <time>2020-01-05T11:23:30.000Z</time>
      </trkpt>
      <trkpt lat="42.74925" lon="1.61292">
        <ele>1888</ele>
        <time>2020-01-05T11:23:32.000Z</time>
      </trkpt>
      <trkpt lat="42.74925" lon="1.61292">
        <ele>1888</ele>
        <time>2020-01-05T11:23:34.000Z</time>
      </trkpt>
      <trkpt lat="42.74925" lon="1.61292">
        <ele>1888</ele>
        <time>2020-01-05T11:23:36.000Z</time>
      </trkpt>
      <trkpt lat="42.74925" lon="1.61291">
        <ele>1888</ele>
        <time>2020-01-05T11:23:38.000Z</time>
      </trkpt>
      <trkpt lat="42.74925" lon="1.61291">
        <ele>1888</ele>
        <time>2020-01-05T11:23:40.000Z</time>
      </trkpt>
      <trkpt lat="42.74925" lon="1.61291">
        <ele>1888</ele>
        <time>2020-01-05T11:23:42.000Z</time>
      </trkpt>
      <trkpt lat="42.74925" lon="1.61291">
        <ele>1888</ele>
        <time>2020-01-05T11:23:44.000Z</time>
      </trkpt>
      <trkpt lat="42.74925" lon="1.61291">
        <ele>1888</ele>
        <time>2020-01-05T11:23:46.000Z</time>
      </trkpt>
      <trkpt lat="42.74925" lon="1.6129">
        <ele>1888</ele>
        <time>2020-01-05T11:23:48.000Z</time>
      </trkpt>
      <trkpt lat="42.74925" lon="1.6129">
        <ele>1888</ele>
        <time>2020-01-05T11:23:50.000Z</time>
      </trkpt>
      <trkpt lat="42.74925" lon="1.6129">
        <ele>1888</ele>
        <time>2020-01-05T11:23:52.000Z</time>
      </trkpt>
      <trkpt lat="42.74925" lon="1.6129">
        <ele>1888</ele>
        <time>2020-01-05T11:23:54.000Z</time>
      </trkpt>
      <trkpt lat="42.74926" lon="1.6129">
        <ele>1888</ele>
        <time>2020-01-05T11:23:56.000Z</time>
      </trkpt>
      <trkpt lat="42.74926" lon="1.6129">
        <ele>1888</ele>
        <time>2020-01-05T11:23:58.000Z</time>
      </trkpt>
      <trkpt lat="42.74926" lon="1.6129">
        <ele>1888</ele>
        <time>2020-01-05T11:24:00.000Z</time>
      </trkpt>
      <trkpt lat="42.74926" lon="1.6129">
        <ele>1888</ele>
        <time>2020-01-05T11:24:02.000Z</time>
      </trkpt>
      <trkpt lat="42.74925" lon="1.6129">
        <ele>1888</ele>
        <time>2020-01-05T11:24:04.000Z</time>
      </trkpt>
      <trkpt lat="42.74925" lon="1.6129">
        <ele>1888</ele>
        <time>2020-01-05T11:24:06.000Z</time>
      </trkpt>
      <trkpt lat="42.74924" lon="1.61291">
        <ele>1888</ele>
        <time>2020-01-05T11:24:08.000Z</time>
      </trkpt>
      <trkpt lat="42.74924" lon="1.61291">
        <ele>1888</ele>
        <time>2020-01-05T11:24:10.000Z</time>
      </trkpt>
      <trkpt lat="42.74925" lon="1.61291">
        <ele>1888</ele>
        <time>2020-01-05T11:24:12.000Z</time>
      </trkpt>
      <trkpt lat="42.74925" lon="1.6129">
        <ele>1888</ele>
        <time>2020-01-05T11:24:14.000Z</time>
      </trkpt>
      <trkpt lat="42.74925" lon="1.6129">
        <ele>1888</ele>
        <time>2020-01-05T11:24:16.000Z</time>
      </trkpt>
      <trkpt lat="42.74925" lon="1.6129">
        <ele>1888</ele>
        <time>2020-01-05T11:24:18.000Z</time>
      </trkpt>
      <trkpt lat="42.74925" lon="1.6129">
        <ele>1888</ele>
        <time>2020-01-05T11:24:20.000Z</time>
      </trkpt>
      <trkpt lat="42.74926" lon="1.6129">
        <ele>1888</ele>
        <time>2020-01-05T11:24:22.000Z</time>
      </trkpt>
      <trkpt lat="42.74926" lon="1.6129">
        <ele>1888</ele>
        <time>2020-01-05T11:24:24.000Z</time>
      </trkpt>
      <trkpt lat="42.74926" lon="1.61292">
        <ele>1888</ele>
        <time>2020-01-05T11:24:26.000Z</time>
      </trkpt>
      <trkpt lat="42.74925" lon="1.61294">
        <ele>1888</ele>
        <time>2020-01-05T11:24:28.000Z</time>
      </trkpt>
      <trkpt lat="42.74924" lon="1.61295">
        <ele>1888</ele>
        <time>2020-01-05T11:24:30.000Z</time>
      </trkpt>
      <trkpt lat="42.74924" lon="1.61296">
        <ele>1888</ele>
        <time>2020-01-05T11:24:32.000Z</time>
      </trkpt>
      <trkpt lat="42.74923" lon="1.61296">
        <ele>1888</ele>
        <time>2020-01-05T11:24:34.000Z</time>
      </trkpt>
      <trkpt lat="42.74924" lon="1.61296">
        <ele>1888</ele>
        <time>2020-01-05T11:24:36.000Z</time>
      </trkpt>
      <trkpt lat="42.74923" lon="1.61296">
        <ele>1888</ele>
        <time>2020-01-05T11:24:38.000Z</time>
      </trkpt>
      <trkpt lat="42.74923" lon="1.61296">
        <ele>1888</ele>
        <time>2020-01-05T11:24:40.000Z</time>
      </trkpt>
      <trkpt lat="42.74922" lon="1.61297">
        <ele>1888</ele>
        <time>2020-01-05T11:24:42.000Z</time>
      </trkpt>
      <trkpt lat="42.74922" lon="1.61297">
        <ele>1888</ele>
        <time>2020-01-05T11:24:44.000Z</time>
      </trkpt>
      <trkpt lat="42.74922" lon="1.61297">
        <ele>1888</ele>
        <time>2020-01-05T11:24:46.000Z</time>
      </trkpt>
      <trkpt lat="42.74922" lon="1.61297">
        <ele>1888</ele>
        <time>2020-01-05T11:24:48.000Z</time>
      </trkpt>
      <trkpt lat="42.74922" lon="1.61297">
        <ele>1888</ele>
        <time>2020-01-05T11:24:50.000Z</time>
      </trkpt>
      <trkpt lat="42.74922" lon="1.61297">
        <ele>1888</ele>
        <time>2020-01-05T11:24:52.000Z</time>
      </trkpt>
      <trkpt lat="42.74922" lon="1.61297">
        <ele>1888</ele>
        <time>2020-01-05T11:24:54.000Z</time>
      </trkpt>
      <trkpt lat="42.74922" lon="1.61297">
        <ele>1888</ele>
        <time>2020-01-05T11:24:56.000Z</time>
      </trkpt>
      <trkpt lat="42.74922" lon="1.61297">
        <ele>1888</ele>
        <time>2020-01-05T11:24:58.000Z</time>
      </trkpt>
      <trkpt lat="42.74922" lon="1.61297">
        <ele>1888</ele>
        <time>2020-01-05T11:25:00.000Z</time>
      </trkpt>
      <trkpt lat="42.74922" lon="1.61297">
        <ele>1888</ele>
        <time>2020-01-05T11:25:02.000Z</time>
      </trkpt>
      <trkpt lat="42.74922" lon="1.61297">
        <ele>1888</ele>
        <time>2020-01-05T11:25:04.000Z</time>
      </trkpt>
      <trkpt lat="42.74922" lon="1.61298">
        <ele>1888</ele>
        <time>2020-01-05T11:25:06.000Z</time>
      </trkpt>
      <trkpt lat="42.74922" lon="1.61298">
        <ele>1888</ele>
        <time>2020-01-05T11:25:08.000Z</time>
      </trkpt>
      <trkpt lat="42.74922" lon="1.61298">
        <ele>1888</ele>
        <time>2020-01-05T11:25:10.000Z</time>
      </trkpt>
      <trkpt lat="42.74922" lon="1.61298">
        <ele>1888</ele>
        <time>2020-01-05T11:25:12.000Z</time>
      </trkpt>
      <trkpt lat="42.74922" lon="1.61298">
        <ele>1888</ele>
        <time>2020-01-05T11:25:14.000Z</time>
      </trkpt>
      <trkpt lat="42.74922" lon="1.61299">
        <ele>1888</ele>
        <time>2020-01-05T11:25:16.000Z</time>
      </trkpt>
      <trkpt lat="42.74923" lon="1.61299">
        <ele>1888</ele>
        <time>2020-01-05T11:25:18.000Z</time>
      </trkpt>
      <trkpt lat="42.74923" lon="1.61298">
        <ele>1888</ele>
        <time>2020-01-05T11:25:20.000Z</time>
      </trkpt>
      <trkpt lat="42.74923" lon="1.61298">
        <ele>1888</ele>
        <time>2020-01-05T11:25:22.000Z</time>
      </trkpt>
      <trkpt lat="42.74923" lon="1.61298">
        <ele>1888</ele>
        <time>2020-01-05T11:25:24.000Z</time>
      </trkpt>
      <trkpt lat="42.74923" lon="1.61298">
        <ele>1888</ele>
        <time>2020-01-05T11:25:26.000Z</time>
      </trkpt>
      <trkpt lat="42.74923" lon="1.61297">
        <ele>1888</ele>
        <time>2020-01-05T11:25:28.000Z</time>
      </trkpt>
      <trkpt lat="42.74923" lon="1.61297">
        <ele>1888</ele>
        <time>2020-01-05T11:25:30.000Z</time>
      </trkpt>
      <trkpt lat="42.74922" lon="1.61297">
        <ele>1888</ele>
        <time>2020-01-05T11:25:32.000Z</time>
      </trkpt>
      <trkpt lat="42.74922" lon="1.61297">
        <ele>1888</ele>
        <time>2020-01-05T11:25:34.000Z</time>
      </trkpt>
      <trkpt lat="42.74922" lon="1.61297">
        <ele>1888</ele>
        <time>2020-01-05T11:25:36.000Z</time>
      </trkpt>
      <trkpt lat="42.74923" lon="1.61297">
        <ele>1888</ele>
        <time>2020-01-05T11:25:38.000Z</time>
      </trkpt>
      <trkpt lat="42.74923" lon="1.61297">
        <ele>1888</ele>
        <time>2020-01-05T11:25:40.000Z</time>
      </trkpt>
      <trkpt lat="42.74923" lon="1.61297">
        <ele>1888</ele>
        <time>2020-01-05T11:25:42.000Z</time>
      </trkpt>
      <trkpt lat="42.74922" lon="1.61297">
        <ele>1888</ele>
        <time>2020-01-05T11:25:44.000Z</time>
      </trkpt>
      <trkpt lat="42.74922" lon="1.61297">
        <ele>1888</ele>
        <time>2020-01-05T11:25:46.000Z</time>
      </trkpt>
      <trkpt lat="42.74923" lon="1.61296">
        <ele>1888</ele>
        <time>2020-01-05T11:25:48.000Z</time>
      </trkpt>
      <trkpt lat="42.74922" lon="1.61296">
        <ele>1888</ele>
        <time>2020-01-05T11:25:50.000Z</time>
      </trkpt>
      <trkpt lat="42.74922" lon="1.61296">
        <ele>1888</ele>
        <time>2020-01-05T11:25:52.000Z</time>
      </trkpt>
      <trkpt lat="42.74922" lon="1.61296">
        <ele>1888</ele>
        <time>2020-01-05T11:25:54.000Z</time>
      </trkpt>
      <trkpt lat="42.74922" lon="1.61296">
        <ele>1888</ele>
        <time>2020-01-05T11:25:56.000Z</time>
      </trkpt>
      <trkpt lat="42.74922" lon="1.61297">
        <ele>1888</ele>
        <time>2020-01-05T11:25:58.000Z</time>
      </trkpt>
      <trkpt lat="42.74922" lon="1.61297">
        <ele>1888</ele>
        <time>2020-01-05T11:26:00.000Z</time>
      </trkpt>
      <trkpt lat="42.74922" lon="1.61297">
        <ele>1888</ele>
        <time>2020-01-05T11:26:02.000Z</time>
      </trkpt>
      <trkpt lat="42.74922" lon="1.61297">
        <ele>1888</ele>
        <time>2020-01-05T11:26:04.000Z</time>
      </trkpt>
      <trkpt lat="42.74922" lon="1.61298">
        <ele>1888</ele>
        <time>2020-01-05T11:26:06.000Z</time>
      </trkpt>
      <trkpt lat="42.74922" lon="1.61297">
        <ele>1888</ele>
        <time>2020-01-05T11:26:08.000Z</time>
      </trkpt>
      <trkpt lat="42.74922" lon="1.61298">
        <ele>1888</ele>
        <time>2020-01-05T11:26:10.000Z</time>
      </trkpt>
      <trkpt lat="42.74922" lon="1.61298">
        <ele>1888</ele>
        <time>2020-01-05T11:26:12.000Z</time>
      </trkpt>
      <trkpt lat="42.74922" lon="1.61298">
        <ele>1888</ele>
        <time>2020-01-05T11:26:14.000Z</time>
      </trkpt>
      <trkpt lat="42.74923" lon="1.61298">
        <ele>1888</ele>
        <time>2020-01-05T11:26:16.000Z</time>
      </trkpt>
      <trkpt lat="42.74922" lon="1.61298">
        <ele>1888</ele>
        <time>2020-01-05T11:26:18.000Z</time>
      </trkpt>
      <trkpt lat="42.74923" lon="1.61298">
        <ele>1888</ele>
        <time>2020-01-05T11:26:20.000Z</time>
      </trkpt>
      <trkpt lat="42.74922" lon="1.61298">
        <ele>1888</ele>
        <time>2020-01-05T11:26:22.000Z</time>
      </trkpt>
      <trkpt lat="42.74922" lon="1.61298">
        <ele>1888</ele>
        <time>2020-01-05T11:26:24.000Z</time>
      </trkpt>
      <trkpt lat="42.74922" lon="1.61297">
        <ele>1888</ele>
        <time>2020-01-05T11:26:26.000Z</time>
      </trkpt>
      <trkpt lat="42.74922" lon="1.61297">
        <ele>1888</ele>
        <time>2020-01-05T11:26:28.000Z</time>
      </trkpt>
      <trkpt lat="42.74922" lon="1.61297">
        <ele>1888</ele>
        <time>2020-01-05T11:26:30.000Z</time>
      </trkpt>
      <trkpt lat="42.74922" lon="1.61297">
        <ele>1888</ele>
        <time>2020-01-05T11:26:32.000Z</time>
      </trkpt>
      <trkpt lat="42.74923" lon="1.61297">
        <ele>1888</ele>
        <time>2020-01-05T11:26:34.000Z</time>
      </trkpt>
      <trkpt lat="42.74923" lon="1.61297">
        <ele>1888</ele>
        <time>2020-01-05T11:26:36.000Z</time>
      </trkpt>
      <trkpt lat="42.74923" lon="1.61298">
        <ele>1888</ele>
        <time>2020-01-05T11:26:38.000Z</time>
      </trkpt>
      <trkpt lat="42.74922" lon="1.61297">
        <ele>1888</ele>
        <time>2020-01-05T11:26:40.000Z</time>
      </trkpt>
      <trkpt lat="42.74923" lon="1.61297">
        <ele>1888</ele>
        <time>2020-01-05T11:26:42.000Z</time>
      </trkpt>
      <trkpt lat="42.74923" lon="1.61297">
        <ele>1888</ele>
        <time>2020-01-05T11:26:44.000Z</time>
      </trkpt>
      <trkpt lat="42.74923" lon="1.61297">
        <ele>1888</ele>
        <time>2020-01-05T11:26:46.000Z</time>
      </trkpt>
      <trkpt lat="42.74923" lon="1.61297">
        <ele>1888</ele>
        <time>2020-01-05T11:26:48.000Z</time>
      </trkpt>
      <trkpt lat="42.74923" lon="1.61297">
        <ele>1888</ele>
        <time>2020-01-05T11:26:50.000Z</time>
      </trkpt>
      <trkpt lat="42.74923" lon="1.61297">
        <ele>1888</ele>
        <time>2020-01-05T11:26:52.000Z</time>
      </trkpt>
      <trkpt lat="42.74923" lon="1.61297">
        <ele>1888</ele>
        <time>2020-01-05T11:26:54.000Z</time>
      </trkpt>
      <trkpt lat="42.74923" lon="1.61297">
        <ele>1888</ele>
        <time>2020-01-05T11:26:56.000Z</time>
      </trkpt>
      <trkpt lat="42.74923" lon="1.61297">
        <ele>1888</ele>
        <time>2020-01-05T11:26:58.000Z</time>
      </trkpt>
      <trkpt lat="42.74923" lon="1.61297">
        <ele>1888</ele>
        <time>2020-01-05T11:27:00.000Z</time>
      </trkpt>
      <trkpt lat="42.74923" lon="1.61297">
        <ele>1888</ele>
        <time>2020-01-05T11:27:02.000Z</time>
      </trkpt>
      <trkpt lat="42.74922" lon="1.61297">
        <ele>1888</ele>
        <time>2020-01-05T11:27:04.000Z</time>
      </trkpt>
      <trkpt lat="42.74922" lon="1.61297">
        <ele>1888</ele>
        <time>2020-01-05T11:27:06.000Z</time>
      </trkpt>
      <trkpt lat="42.74922" lon="1.61297">
        <ele>1888</ele>
        <time>2020-01-05T11:27:08.000Z</time>
      </trkpt>
      <trkpt lat="42.74922" lon="1.61297">
        <ele>1888</ele>
        <time>2020-01-05T11:27:10.000Z</time>
      </trkpt>
      <trkpt lat="42.74923" lon="1.61297">
        <ele>1888</ele>
        <time>2020-01-05T11:27:12.000Z</time>
      </trkpt>
      <trkpt lat="42.74922" lon="1.61297">
        <ele>1888</ele>
        <time>2020-01-05T11:27:14.000Z</time>
      </trkpt>
      <trkpt lat="42.74923" lon="1.61297">
        <ele>1888</ele>
        <time>2020-01-05T11:27:16.000Z</time>
      </trkpt>
      <trkpt lat="42.74923" lon="1.61297">
        <ele>1888</ele>
        <time>2020-01-05T11:27:18.000Z</time>
      </trkpt>
      <trkpt lat="42.74923" lon="1.61297">
        <ele>1888</ele>
        <time>2020-01-05T11:27:20.000Z</time>
      </trkpt>
      <trkpt lat="42.74923" lon="1.61297">
        <ele>1888</ele>
        <time>2020-01-05T11:27:22.000Z</time>
      </trkpt>
      <trkpt lat="42.74923" lon="1.61297">
        <ele>1888</ele>
        <time>2020-01-05T11:27:24.000Z</time>
      </trkpt>
      <trkpt lat="42.74923" lon="1.61297">
        <ele>1888</ele>
        <time>2020-01-05T11:27:26.000Z</time>
      </trkpt>
      <trkpt lat="42.74923" lon="1.61297">
        <ele>1888</ele>
        <time>2020-01-05T11:27:28.000Z</time>
      </trkpt>
      <trkpt lat="42.74923" lon="1.61297">
        <ele>1888</ele>
        <time>2020-01-05T11:27:30.000Z</time>
      </trkpt>
      <trkpt lat="42.74923" lon="1.61297">
        <ele>1888</ele>
        <time>2020-01-05T11:27:32.000Z</time>
      </trkpt>
      <trkpt lat="42.74923" lon="1.61297">
        <ele>1888</ele>
        <time>2020-01-05T11:27:34.000Z</time>
      </trkpt>
      <trkpt lat="42.74923" lon="1.61297">
        <ele>1888</ele>
        <time>2020-01-05T11:27:36.000Z</time>
      </trkpt>
      <trkpt lat="42.74923" lon="1.61297">
        <ele>1888</ele>
        <time>2020-01-05T11:27:38.000Z</time>
      </trkpt>
      <trkpt lat="42.74923" lon="1.61298">
        <ele>1888</ele>
        <time>2020-01-05T11:27:40.000Z</time>
      </trkpt>
      <trkpt lat="42.74922" lon="1.61298">
        <ele>1888</ele>
        <time>2020-01-05T11:27:42.000Z</time>
      </trkpt>
      <trkpt lat="42.74922" lon="1.61298">
        <ele>1888</ele>
        <time>2020-01-05T11:27:44.000Z</time>
      </trkpt>
      <trkpt lat="42.74922" lon="1.61298">
        <ele>1888</ele>
        <time>2020-01-05T11:27:46.000Z</time>
      </trkpt>
      <trkpt lat="42.74922" lon="1.61298">
        <ele>1888</ele>
        <time>2020-01-05T11:27:48.000Z</time>
      </trkpt>
      <trkpt lat="42.74922" lon="1.61297">
        <ele>1888</ele>
        <time>2020-01-05T11:27:50.000Z</time>
      </trkpt>
      <trkpt lat="42.74922" lon="1.61297">
        <ele>1888</ele>
        <time>2020-01-05T11:27:52.000Z</time>
      </trkpt>
      <trkpt lat="42.74922" lon="1.61297">
        <ele>1888</ele>
        <time>2020-01-05T11:27:54.000Z</time>
      </trkpt>
      <trkpt lat="42.74922" lon="1.61297">
        <ele>1888</ele>
        <time>2020-01-05T11:27:56.000Z</time>
      </trkpt>
      <trkpt lat="42.74922" lon="1.61297">
        <ele>1888</ele>
        <time>2020-01-05T11:27:58.000Z</time>
      </trkpt>
      <trkpt lat="42.74922" lon="1.61297">
        <ele>1888</ele>
        <time>2020-01-05T11:28:00.000Z</time>
      </trkpt>
      <trkpt lat="42.74922" lon="1.61297">
        <ele>1888</ele>
        <time>2020-01-05T11:28:02.000Z</time>
      </trkpt>
      <trkpt lat="42.74922" lon="1.61298">
        <ele>1888</ele>
        <time>2020-01-05T11:28:04.000Z</time>
      </trkpt>
      <trkpt lat="42.74921" lon="1.61298">
        <ele>1888</ele>
        <time>2020-01-05T11:28:06.000Z</time>
      </trkpt>
      <trkpt lat="42.74921" lon="1.61298">
        <ele>1888</ele>
        <time>2020-01-05T11:28:08.000Z</time>
      </trkpt>
      <trkpt lat="42.74922" lon="1.61298">
        <ele>1888</ele>
        <time>2020-01-05T11:28:10.000Z</time>
      </trkpt>
      <trkpt lat="42.74922" lon="1.61298">
        <ele>1888</ele>
        <time>2020-01-05T11:28:12.000Z</time>
      </trkpt>
      <trkpt lat="42.74922" lon="1.61299">
        <ele>1888</ele>
        <time>2020-01-05T11:28:14.000Z</time>
      </trkpt>
      <trkpt lat="42.74921" lon="1.61299">
        <ele>1888</ele>
        <time>2020-01-05T11:28:16.000Z</time>
      </trkpt>
      <trkpt lat="42.74922" lon="1.61299">
        <ele>1888</ele>
        <time>2020-01-05T11:28:18.000Z</time>
      </trkpt>
      <trkpt lat="42.74922" lon="1.61298">
        <ele>1888</ele>
        <time>2020-01-05T11:28:20.000Z</time>
      </trkpt>
      <trkpt lat="42.74922" lon="1.61298">
        <ele>1888</ele>
        <time>2020-01-05T11:28:22.000Z</time>
      </trkpt>
      <trkpt lat="42.74922" lon="1.61298">
        <ele>1888</ele>
        <time>2020-01-05T11:28:24.000Z</time>
      </trkpt>
      <trkpt lat="42.74922" lon="1.61298">
        <ele>1888</ele>
        <time>2020-01-05T11:28:26.000Z</time>
      </trkpt>
      <trkpt lat="42.74921" lon="1.61298">
        <ele>1888</ele>
        <time>2020-01-05T11:28:28.000Z</time>
      </trkpt>
      <trkpt lat="42.74921" lon="1.61298">
        <ele>1888</ele>
        <time>2020-01-05T11:28:30.000Z</time>
      </trkpt>
      <trkpt lat="42.74921" lon="1.61298">
        <ele>1888</ele>
        <time>2020-01-05T11:28:32.000Z</time>
      </trkpt>
      <trkpt lat="42.74921" lon="1.61298">
        <ele>1888</ele>
        <time>2020-01-05T11:28:34.000Z</time>
      </trkpt>
      <trkpt lat="42.74921" lon="1.61298">
        <ele>1888</ele>
        <time>2020-01-05T11:28:36.000Z</time>
      </trkpt>
      <trkpt lat="42.74921" lon="1.61298">
        <ele>1888</ele>
        <time>2020-01-05T11:28:38.000Z</time>
      </trkpt>
      <trkpt lat="42.74921" lon="1.61298">
        <ele>1888</ele>
        <time>2020-01-05T11:28:40.000Z</time>
      </trkpt>
      <trkpt lat="42.74921" lon="1.61298">
        <ele>1888</ele>
        <time>2020-01-05T11:28:42.000Z</time>
      </trkpt>
      <trkpt lat="42.74922" lon="1.61298">
        <ele>1888</ele>
        <time>2020-01-05T11:28:44.000Z</time>
      </trkpt>
      <trkpt lat="42.74922" lon="1.61298">
        <ele>1888</ele>
        <time>2020-01-05T11:28:46.000Z</time>
      </trkpt>
      <trkpt lat="42.74922" lon="1.61298">
        <ele>1888</ele>
        <time>2020-01-05T11:28:48.000Z</time>
      </trkpt>
      <trkpt lat="42.74922" lon="1.61298">
        <ele>1888</ele>
        <time>2020-01-05T11:28:50.000Z</time>
      </trkpt>
      <trkpt lat="42.74922" lon="1.61297">
        <ele>1888</ele>
        <time>2020-01-05T11:28:52.000Z</time>
      </trkpt>
      <trkpt lat="42.74922" lon="1.61297">
        <ele>1888</ele>
        <time>2020-01-05T11:28:54.000Z</time>
      </trkpt>
      <trkpt lat="42.74922" lon="1.61297">
        <ele>1888</ele>
        <time>2020-01-05T11:28:56.000Z</time>
      </trkpt>
      <trkpt lat="42.74922" lon="1.61297">
        <ele>1888</ele>
        <time>2020-01-05T11:28:58.000Z</time>
      </trkpt>
      <trkpt lat="42.74922" lon="1.61297">
        <ele>1888</ele>
        <time>2020-01-05T11:29:00.000Z</time>
      </trkpt>
      <trkpt lat="42.74922" lon="1.61297">
        <ele>1888</ele>
        <time>2020-01-05T11:29:02.000Z</time>
      </trkpt>
      <trkpt lat="42.74922" lon="1.61297">
        <ele>1888</ele>
        <time>2020-01-05T11:29:04.000Z</time>
      </trkpt>
      <trkpt lat="42.74922" lon="1.61296">
        <ele>1888</ele>
        <time>2020-01-05T11:29:06.000Z</time>
      </trkpt>
      <trkpt lat="42.74922" lon="1.61296">
        <ele>1888</ele>
        <time>2020-01-05T11:29:08.000Z</time>
      </trkpt>
      <trkpt lat="42.74922" lon="1.61296">
        <ele>1888</ele>
        <time>2020-01-05T11:29:10.000Z</time>
      </trkpt>
      <trkpt lat="42.74922" lon="1.61296">
        <ele>1888</ele>
        <time>2020-01-05T11:29:12.000Z</time>
      </trkpt>
      <trkpt lat="42.74922" lon="1.61296">
        <ele>1888</ele>
        <time>2020-01-05T11:29:14.000Z</time>
      </trkpt>
      <trkpt lat="42.74922" lon="1.61296">
        <ele>1888</ele>
        <time>2020-01-05T11:29:16.000Z</time>
      </trkpt>
      <trkpt lat="42.74922" lon="1.61296">
        <ele>1888</ele>
        <time>2020-01-05T11:29:18.000Z</time>
      </trkpt>
      <trkpt lat="42.74922" lon="1.61296">
        <ele>1888</ele>
        <time>2020-01-05T11:29:20.000Z</time>
      </trkpt>
      <trkpt lat="42.74922" lon="1.61296">
        <ele>1888</ele>
        <time>2020-01-05T11:29:22.000Z</time>
      </trkpt>
      <trkpt lat="42.74922" lon="1.61297">
        <ele>1888</ele>
        <time>2020-01-05T11:29:24.000Z</time>
      </trkpt>
      <trkpt lat="42.74922" lon="1.61297">
        <ele>1888</ele>
        <time>2020-01-05T11:29:26.000Z</time>
      </trkpt>
      <trkpt lat="42.74922" lon="1.61297">
        <ele>1888</ele>
        <time>2020-01-05T11:29:28.000Z</time>
      </trkpt>
      <trkpt lat="42.74922" lon="1.61297">
        <ele>1888</ele>
        <time>2020-01-05T11:29:30.000Z</time>
      </trkpt>
      <trkpt lat="42.74922" lon="1.61297">
        <ele>1888</ele>
        <time>2020-01-05T11:29:32.000Z</time>
      </trkpt>
      <trkpt lat="42.74922" lon="1.61297">
        <ele>1888</ele>
        <time>2020-01-05T11:29:34.000Z</time>
      </trkpt>
      <trkpt lat="42.74922" lon="1.61297">
        <ele>1888</ele>
        <time>2020-01-05T11:29:36.000Z</time>
      </trkpt>
      <trkpt lat="42.74922" lon="1.61297">
        <ele>1888</ele>
        <time>2020-01-05T11:29:38.000Z</time>
      </trkpt>
      <trkpt lat="42.74922" lon="1.61297">
        <ele>1888</ele>
        <time>2020-01-05T11:29:40.000Z</time>
      </trkpt>
      <trkpt lat="42.74922" lon="1.61297">
        <ele>1888</ele>
        <time>2020-01-05T11:29:42.000Z</time>
      </trkpt>
      <trkpt lat="42.74922" lon="1.61297">
        <ele>1888</ele>
        <time>2020-01-05T11:29:44.000Z</time>
      </trkpt>
      <trkpt lat="42.74922" lon="1.61297">
        <ele>1888</ele>
        <time>2020-01-05T11:29:46.000Z</time>
      </trkpt>
      <trkpt lat="42.74922" lon="1.61297">
        <ele>1888</ele>
        <time>2020-01-05T11:29:48.000Z</time>
      </trkpt>
      <trkpt lat="42.74922" lon="1.61297">
        <ele>1888</ele>
        <time>2020-01-05T11:29:50.000Z</time>
      </trkpt>
      <trkpt lat="42.74922" lon="1.61298">
        <ele>1888</ele>
        <time>2020-01-05T11:29:52.000Z</time>
      </trkpt>
      <trkpt lat="42.74922" lon="1.61298">
        <ele>1888</ele>
        <time>2020-01-05T11:29:54.000Z</time>
      </trkpt>
      <trkpt lat="42.74921" lon="1.61298">
        <ele>1888</ele>
        <time>2020-01-05T11:29:56.000Z</time>
      </trkpt>
      <trkpt lat="42.74921" lon="1.61298">
        <ele>1888</ele>
        <time>2020-01-05T11:29:58.000Z</time>
      </trkpt>
      <trkpt lat="42.74921" lon="1.61298">
        <ele>1888</ele>
        <time>2020-01-05T11:30:00.000Z</time>
      </trkpt>
      <trkpt lat="42.74922" lon="1.61298">
        <ele>1888</ele>
        <time>2020-01-05T11:30:02.000Z</time>
      </trkpt>
      <trkpt lat="42.74922" lon="1.61298">
        <ele>1888</ele>
        <time>2020-01-05T11:30:04.000Z</time>
      </trkpt>
      <trkpt lat="42.74921" lon="1.61297">
        <ele>1888</ele>
        <time>2020-01-05T11:30:06.000Z</time>
      </trkpt>
      <trkpt lat="42.74922" lon="1.61297">
        <ele>1888</ele>
        <time>2020-01-05T11:30:08.000Z</time>
      </trkpt>
      <trkpt lat="42.74922" lon="1.61298">
        <ele>1888</ele>
        <time>2020-01-05T11:30:10.000Z</time>
      </trkpt>
      <trkpt lat="42.74922" lon="1.61298">
        <ele>1888</ele>
        <time>2020-01-05T11:30:12.000Z</time>
      </trkpt>
      <trkpt lat="42.74922" lon="1.61298">
        <ele>1888</ele>
        <time>2020-01-05T11:30:14.000Z</time>
      </trkpt>
      <trkpt lat="42.74922" lon="1.61298">
        <ele>1888</ele>
        <time>2020-01-05T11:30:16.000Z</time>
      </trkpt>
      <trkpt lat="42.74922" lon="1.61298">
        <ele>1888</ele>
        <time>2020-01-05T11:30:18.000Z</time>
      </trkpt>
      <trkpt lat="42.74922" lon="1.61298">
        <ele>1888</ele>
        <time>2020-01-05T11:30:20.000Z</time>
      </trkpt>
      <trkpt lat="42.74922" lon="1.61298">
        <ele>1888</ele>
        <time>2020-01-05T11:30:22.000Z</time>
      </trkpt>
      <trkpt lat="42.74922" lon="1.61297">
        <ele>1888</ele>
        <time>2020-01-05T11:30:24.000Z</time>
      </trkpt>
      <trkpt lat="42.74922" lon="1.61297">
        <ele>1888</ele>
        <time>2020-01-05T11:30:26.000Z</time>
      </trkpt>
      <trkpt lat="42.74922" lon="1.61297">
        <ele>1888</ele>
        <time>2020-01-05T11:30:28.000Z</time>
      </trkpt>
      <trkpt lat="42.74922" lon="1.61296">
        <ele>1888</ele>
        <time>2020-01-05T11:30:30.000Z</time>
      </trkpt>
      <trkpt lat="42.74922" lon="1.61296">
        <ele>1888</ele>
        <time>2020-01-05T11:30:32.000Z</time>
      </trkpt>
      <trkpt lat="42.74923" lon="1.61297">
        <ele>1888</ele>
        <time>2020-01-05T11:30:34.000Z</time>
      </trkpt>
      <trkpt lat="42.74923" lon="1.61297">
        <ele>1888</ele>
        <time>2020-01-05T11:30:36.000Z</time>
      </trkpt>
      <trkpt lat="42.74923" lon="1.61297">
        <ele>1888</ele>
        <time>2020-01-05T11:30:38.000Z</time>
      </trkpt>
      <trkpt lat="42.74923" lon="1.61297">
        <ele>1888</ele>
        <time>2020-01-05T11:30:40.000Z</time>
      </trkpt>
      <trkpt lat="42.74923" lon="1.61297">
        <ele>1888</ele>
        <time>2020-01-05T11:30:42.000Z</time>
      </trkpt>
      <trkpt lat="42.74923" lon="1.61298">
        <ele>1888</ele>
        <time>2020-01-05T11:30:44.000Z</time>
      </trkpt>
      <trkpt lat="42.74923" lon="1.61298">
        <ele>1888</ele>
        <time>2020-01-05T11:30:46.000Z</time>
      </trkpt>
      <trkpt lat="42.74923" lon="1.61298">
        <ele>1888</ele>
        <time>2020-01-05T11:30:48.000Z</time>
      </trkpt>
      <trkpt lat="42.74923" lon="1.61298">
        <ele>1888</ele>
        <time>2020-01-05T11:30:50.000Z</time>
      </trkpt>
      <trkpt lat="42.74923" lon="1.61297">
        <ele>1888</ele>
        <time>2020-01-05T11:30:52.000Z</time>
      </trkpt>
      <trkpt lat="42.74923" lon="1.61297">
        <ele>1888</ele>
        <time>2020-01-05T11:30:54.000Z</time>
      </trkpt>
      <trkpt lat="42.74923" lon="1.61297">
        <ele>1888</ele>
        <time>2020-01-05T11:30:56.000Z</time>
      </trkpt>
      <trkpt lat="42.74923" lon="1.61297">
        <ele>1888</ele>
        <time>2020-01-05T11:30:58.000Z</time>
      </trkpt>
      <trkpt lat="42.74923" lon="1.61297">
        <ele>1888</ele>
        <time>2020-01-05T11:31:00.000Z</time>
      </trkpt>
      <trkpt lat="42.74923" lon="1.61297">
        <ele>1888</ele>
        <time>2020-01-05T11:31:02.000Z</time>
      </trkpt>
      <trkpt lat="42.74923" lon="1.61297">
        <ele>1888</ele>
        <time>2020-01-05T11:31:04.000Z</time>
      </trkpt>
      <trkpt lat="42.74922" lon="1.61297">
        <ele>1888</ele>
        <time>2020-01-05T11:31:06.000Z</time>
      </trkpt>
      <trkpt lat="42.74922" lon="1.61297">
        <ele>1888</ele>
        <time>2020-01-05T11:31:08.000Z</time>
      </trkpt>
      <trkpt lat="42.74922" lon="1.61297">
        <ele>1888</ele>
        <time>2020-01-05T11:31:10.000Z</time>
      </trkpt>
      <trkpt lat="42.74922" lon="1.61297">
        <ele>1888</ele>
        <time>2020-01-05T11:31:12.000Z</time>
      </trkpt>
      <trkpt lat="42.74921" lon="1.61297">
        <ele>1888</ele>
        <time>2020-01-05T11:31:14.000Z</time>
      </trkpt>
      <trkpt lat="42.74921" lon="1.61297">
        <ele>1888</ele>
        <time>2020-01-05T11:31:16.000Z</time>
      </trkpt>
      <trkpt lat="42.74921" lon="1.61297">
        <ele>1888</ele>
        <time>2020-01-05T11:31:18.000Z</time>
      </trkpt>
      <trkpt lat="42.74921" lon="1.61297">
        <ele>1888</ele>
        <time>2020-01-05T11:31:20.000Z</time>
      </trkpt>
      <trkpt lat="42.74921" lon="1.61298">
        <ele>1888</ele>
        <time>2020-01-05T11:31:22.000Z</time>
      </trkpt>
      <trkpt lat="42.74921" lon="1.61297">
        <ele>1888</ele>
        <time>2020-01-05T11:31:24.000Z</time>
      </trkpt>
      <trkpt lat="42.74921" lon="1.61297">
        <ele>1888</ele>
        <time>2020-01-05T11:31:26.000Z</time>
      </trkpt>
      <trkpt lat="42.74921" lon="1.61298">
        <ele>1888</ele>
        <time>2020-01-05T11:31:28.000Z</time>
      </trkpt>
      <trkpt lat="42.74922" lon="1.61298">
        <ele>1888</ele>
        <time>2020-01-05T11:31:30.000Z</time>
      </trkpt>
      <trkpt lat="42.74922" lon="1.61298">
        <ele>1888</ele>
        <time>2020-01-05T11:31:32.000Z</time>
      </trkpt>
      <trkpt lat="42.74922" lon="1.61298">
        <ele>1888</ele>
        <time>2020-01-05T11:31:34.000Z</time>
      </trkpt>
      <trkpt lat="42.74922" lon="1.61298">
        <ele>1888</ele>
        <time>2020-01-05T11:31:36.000Z</time>
      </trkpt>
      <trkpt lat="42.74922" lon="1.61298">
        <ele>1888</ele>
        <time>2020-01-05T11:31:38.000Z</time>
      </trkpt>
      <trkpt lat="42.74922" lon="1.61298">
        <ele>1888</ele>
        <time>2020-01-05T11:31:40.000Z</time>
      </trkpt>
      <trkpt lat="42.74922" lon="1.61298">
        <ele>1888</ele>
        <time>2020-01-05T11:31:42.000Z</time>
      </trkpt>
      <trkpt lat="42.74922" lon="1.61298">
        <ele>1888</ele>
        <time>2020-01-05T11:31:44.000Z</time>
      </trkpt>
      <trkpt lat="42.74922" lon="1.61298">
        <ele>1888</ele>
        <time>2020-01-05T11:31:46.000Z</time>
      </trkpt>
      <trkpt lat="42.74922" lon="1.61297">
        <ele>1888</ele>
        <time>2020-01-05T11:31:48.000Z</time>
      </trkpt>
      <trkpt lat="42.74922" lon="1.61297">
        <ele>1888</ele>
        <time>2020-01-05T11:31:50.000Z</time>
      </trkpt>
      <trkpt lat="42.74922" lon="1.61297">
        <ele>1888</ele>
        <time>2020-01-05T11:31:52.000Z</time>
      </trkpt>
      <trkpt lat="42.74922" lon="1.61297">
        <ele>1888</ele>
        <time>2020-01-05T11:31:54.000Z</time>
      </trkpt>
      <trkpt lat="42.74922" lon="1.61297">
        <ele>1888</ele>
        <time>2020-01-05T11:31:56.000Z</time>
      </trkpt>
      <trkpt lat="42.74922" lon="1.61297">
        <ele>1888</ele>
        <time>2020-01-05T11:31:58.000Z</time>
      </trkpt>
      <trkpt lat="42.74922" lon="1.61297">
        <ele>1888</ele>
        <time>2020-01-05T11:32:00.000Z</time>
      </trkpt>
      <trkpt lat="42.74922" lon="1.61297">
        <ele>1888</ele>
        <time>2020-01-05T11:32:02.000Z</time>
      </trkpt>
      <trkpt lat="42.74922" lon="1.61297">
        <ele>1888</ele>
        <time>2020-01-05T11:32:04.000Z</time>
      </trkpt>
      <trkpt lat="42.74922" lon="1.61296">
        <ele>1888</ele>
        <time>2020-01-05T11:32:06.000Z</time>
      </trkpt>
      <trkpt lat="42.74922" lon="1.61297">
        <ele>1888</ele>
        <time>2020-01-05T11:32:08.000Z</time>
      </trkpt>
      <trkpt lat="42.74922" lon="1.61297">
        <ele>1888</ele>
        <time>2020-01-05T11:32:10.000Z</time>
      </trkpt>
      <trkpt lat="42.74922" lon="1.61297">
        <ele>1888</ele>
        <time>2020-01-05T11:32:12.000Z</time>
      </trkpt>
      <trkpt lat="42.74922" lon="1.61297">
        <ele>1888</ele>
        <time>2020-01-05T11:32:14.000Z</time>
      </trkpt>
      <trkpt lat="42.74922" lon="1.61297">
        <ele>1888</ele>
        <time>2020-01-05T11:32:16.000Z</time>
      </trkpt>
      <trkpt lat="42.74922" lon="1.61296">
        <ele>1888</ele>
        <time>2020-01-05T11:32:18.000Z</time>
      </trkpt>
      <trkpt lat="42.74922" lon="1.61296">
        <ele>1888</ele>
        <time>2020-01-05T11:32:20.000Z</time>
      </trkpt>
      <trkpt lat="42.74922" lon="1.61296">
        <ele>1888</ele>
        <time>2020-01-05T11:32:22.000Z</time>
      </trkpt>
      <trkpt lat="42.74922" lon="1.61296">
        <ele>1888</ele>
        <time>2020-01-05T11:32:24.000Z</time>
      </trkpt>
      <trkpt lat="42.74922" lon="1.61297">
        <ele>1888</ele>
        <time>2020-01-05T11:32:26.000Z</time>
      </trkpt>
      <trkpt lat="42.74922" lon="1.61297">
        <ele>1888</ele>
        <time>2020-01-05T11:32:28.000Z</time>
      </trkpt>
      <trkpt lat="42.74922" lon="1.61297">
        <ele>1888</ele>
        <time>2020-01-05T11:32:30.000Z</time>
      </trkpt>
      <trkpt lat="42.74922" lon="1.61297">
        <ele>1888</ele>
        <time>2020-01-05T11:32:32.000Z</time>
      </trkpt>
      <trkpt lat="42.74923" lon="1.61298">
        <ele>1888</ele>
        <time>2020-01-05T11:32:34.000Z</time>
      </trkpt>
      <trkpt lat="42.74923" lon="1.61298">
        <ele>1888</ele>
        <time>2020-01-05T11:32:36.000Z</time>
      </trkpt>
      <trkpt lat="42.74922" lon="1.61297">
        <ele>1888</ele>
        <time>2020-01-05T11:32:38.000Z</time>
      </trkpt>
      <trkpt lat="42.74923" lon="1.61297">
        <ele>1888</ele>
        <time>2020-01-05T11:32:40.000Z</time>
      </trkpt>
      <trkpt lat="42.74923" lon="1.61297">
        <ele>1888</ele>
        <time>2020-01-05T11:32:42.000Z</time>
      </trkpt>
      <trkpt lat="42.74922" lon="1.61297">
        <ele>1888</ele>
        <time>2020-01-05T11:32:44.000Z</time>
      </trkpt>
      <trkpt lat="42.74922" lon="1.61296">
        <ele>1888</ele>
        <time>2020-01-05T11:32:46.000Z</time>
      </trkpt>
      <trkpt lat="42.74922" lon="1.61296">
        <ele>1888</ele>
        <time>2020-01-05T11:32:48.000Z</time>
      </trkpt>
      <trkpt lat="42.74922" lon="1.61296">
        <ele>1888</ele>
        <time>2020-01-05T11:32:50.000Z</time>
      </trkpt>
      <trkpt lat="42.74922" lon="1.61296">
        <ele>1888</ele>
        <time>2020-01-05T11:32:52.000Z</time>
      </trkpt>
      <trkpt lat="42.74922" lon="1.61296">
        <ele>1888</ele>
        <time>2020-01-05T11:32:54.000Z</time>
      </trkpt>
      <trkpt lat="42.74922" lon="1.61296">
        <ele>1888</ele>
        <time>2020-01-05T11:32:56.000Z</time>
      </trkpt>
      <trkpt lat="42.74922" lon="1.61296">
        <ele>1888</ele>
        <time>2020-01-05T11:32:58.000Z</time>
      </trkpt>
      <trkpt lat="42.74922" lon="1.61296">
        <ele>1888</ele>
        <time>2020-01-05T11:33:00.000Z</time>
      </trkpt>
      <trkpt lat="42.74922" lon="1.61296">
        <ele>1888</ele>
        <time>2020-01-05T11:33:02.000Z</time>
      </trkpt>
      <trkpt lat="42.74922" lon="1.61297">
        <ele>1888</ele>
        <time>2020-01-05T11:33:04.000Z</time>
      </trkpt>
      <trkpt lat="42.74922" lon="1.61297">
        <ele>1888</ele>
        <time>2020-01-05T11:33:06.000Z</time>
      </trkpt>
      <trkpt lat="42.74922" lon="1.61297">
        <ele>1888</ele>
        <time>2020-01-05T11:33:08.000Z</time>
      </trkpt>
      <trkpt lat="42.74923" lon="1.61297">
        <ele>1888</ele>
        <time>2020-01-05T11:33:10.000Z</time>
      </trkpt>
      <trkpt lat="42.74922" lon="1.61297">
        <ele>1888</ele>
        <time>2020-01-05T11:33:12.000Z</time>
      </trkpt>
      <trkpt lat="42.74922" lon="1.61297">
        <ele>1888</ele>
        <time>2020-01-05T11:33:14.000Z</time>
      </trkpt>
      <trkpt lat="42.74922" lon="1.61297">
        <ele>1888</ele>
        <time>2020-01-05T11:33:16.000Z</time>
      </trkpt>
      <trkpt lat="42.74922" lon="1.61297">
        <ele>1888</ele>
        <time>2020-01-05T11:33:18.000Z</time>
      </trkpt>
      <trkpt lat="42.74922" lon="1.61297">
        <ele>1888</ele>
        <time>2020-01-05T11:33:20.000Z</time>
      </trkpt>
      <trkpt lat="42.74922" lon="1.61297">
        <ele>1888</ele>
        <time>2020-01-05T11:33:22.000Z</time>
      </trkpt>
      <trkpt lat="42.74921" lon="1.61297">
        <ele>1888</ele>
        <time>2020-01-05T11:33:24.000Z</time>
      </trkpt>
      <trkpt lat="42.74921" lon="1.61296">
        <ele>1888</ele>
        <time>2020-01-05T11:33:26.000Z</time>
      </trkpt>
      <trkpt lat="42.74921" lon="1.61296">
        <ele>1888</ele>
        <time>2020-01-05T11:33:28.000Z</time>
      </trkpt>
      <trkpt lat="42.74921" lon="1.61296">
        <ele>1888</ele>
        <time>2020-01-05T11:33:30.000Z</time>
      </trkpt>
      <trkpt lat="42.74921" lon="1.61296">
        <ele>1888</ele>
        <time>2020-01-05T11:33:32.000Z</time>
      </trkpt>
      <trkpt lat="42.74921" lon="1.61296">
        <ele>1888</ele>
        <time>2020-01-05T11:33:34.000Z</time>
      </trkpt>
      <trkpt lat="42.74921" lon="1.61296">
        <ele>1888</ele>
        <time>2020-01-05T11:33:36.000Z</time>
      </trkpt>
      <trkpt lat="42.74921" lon="1.61295">
        <ele>1888</ele>
        <time>2020-01-05T11:33:38.000Z</time>
      </trkpt>
      <trkpt lat="42.74921" lon="1.61296">
        <ele>1888</ele>
        <time>2020-01-05T11:33:40.000Z</time>
      </trkpt>
      <trkpt lat="42.74921" lon="1.61296">
        <ele>1888</ele>
        <time>2020-01-05T11:33:42.000Z</time>
      </trkpt>
      <trkpt lat="42.74921" lon="1.61296">
        <ele>1888</ele>
        <time>2020-01-05T11:33:44.000Z</time>
      </trkpt>
      <trkpt lat="42.74921" lon="1.61296">
        <ele>1888</ele>
        <time>2020-01-05T11:33:46.000Z</time>
      </trkpt>
      <trkpt lat="42.74921" lon="1.61297">
        <ele>1888</ele>
        <time>2020-01-05T11:33:48.000Z</time>
      </trkpt>
      <trkpt lat="42.74921" lon="1.61297">
        <ele>1888</ele>
        <time>2020-01-05T11:33:50.000Z</time>
      </trkpt>
      <trkpt lat="42.74921" lon="1.61297">
        <ele>1888</ele>
        <time>2020-01-05T11:33:52.000Z</time>
      </trkpt>
      <trkpt lat="42.74921" lon="1.61297">
        <ele>1888</ele>
        <time>2020-01-05T11:33:54.000Z</time>
      </trkpt>
      <trkpt lat="42.74921" lon="1.61297">
        <ele>1888</ele>
        <time>2020-01-05T11:33:56.000Z</time>
      </trkpt>
      <trkpt lat="42.74922" lon="1.61297">
        <ele>1888</ele>
        <time>2020-01-05T11:33:58.000Z</time>
      </trkpt>
      <trkpt lat="42.74921" lon="1.61298">
        <ele>1888</ele>
        <time>2020-01-05T11:34:00.000Z</time>
      </trkpt>
      <trkpt lat="42.74921" lon="1.61298">
        <ele>1888</ele>
        <time>2020-01-05T11:34:02.000Z</time>
      </trkpt>
      <trkpt lat="42.74922" lon="1.61298">
        <ele>1888</ele>
        <time>2020-01-05T11:34:04.000Z</time>
      </trkpt>
      <trkpt lat="42.74921" lon="1.61298">
        <ele>1888</ele>
        <time>2020-01-05T11:34:06.000Z</time>
      </trkpt>
      <trkpt lat="42.74922" lon="1.61297">
        <ele>1888</ele>
        <time>2020-01-05T11:34:08.000Z</time>
      </trkpt>
      <trkpt lat="42.74922" lon="1.61297">
        <ele>1888</ele>
        <time>2020-01-05T11:34:10.000Z</time>
      </trkpt>
      <trkpt lat="42.74922" lon="1.61297">
        <ele>1888</ele>
        <time>2020-01-05T11:34:12.000Z</time>
      </trkpt>
      <trkpt lat="42.74922" lon="1.61297">
        <ele>1888</ele>
        <time>2020-01-05T11:34:14.000Z</time>
      </trkpt>
      <trkpt lat="42.74922" lon="1.61296">
        <ele>1888</ele>
        <time>2020-01-05T11:34:16.000Z</time>
      </trkpt>
      <trkpt lat="42.74923" lon="1.61297">
        <ele>1888</ele>
        <time>2020-01-05T11:34:18.000Z</time>
      </trkpt>
      <trkpt lat="42.74923" lon="1.61297">
        <ele>1888</ele>
        <time>2020-01-05T11:34:20.000Z</time>
      </trkpt>
      <trkpt lat="42.74923" lon="1.61297">
        <ele>1888</ele>
        <time>2020-01-05T11:34:22.000Z</time>
      </trkpt>
      <trkpt lat="42.74923" lon="1.61297">
        <ele>1888</ele>
        <time>2020-01-05T11:34:24.000Z</time>
      </trkpt>
      <trkpt lat="42.74923" lon="1.61297">
        <ele>1888</ele>
        <time>2020-01-05T11:34:26.000Z</time>
      </trkpt>
      <trkpt lat="42.74923" lon="1.61297">
        <ele>1888</ele>
        <time>2020-01-05T11:34:28.000Z</time>
      </trkpt>
      <trkpt lat="42.74923" lon="1.61297">
        <ele>1888</ele>
        <time>2020-01-05T11:34:30.000Z</time>
      </trkpt>
      <trkpt lat="42.74923" lon="1.61297">
        <ele>1888</ele>
        <time>2020-01-05T11:34:32.000Z</time>
      </trkpt>
      <trkpt lat="42.74922" lon="1.61296">
        <ele>1888</ele>
        <time>2020-01-05T11:34:34.000Z</time>
      </trkpt>
      <trkpt lat="42.74922" lon="1.61296">
        <ele>1888</ele>
        <time>2020-01-05T11:34:36.000Z</time>
      </trkpt>
      <trkpt lat="42.74922" lon="1.61296">
        <ele>1888</ele>
        <time>2020-01-05T11:34:38.000Z</time>
      </trkpt>
      <trkpt lat="42.74922" lon="1.61296">
        <ele>1888</ele>
        <time>2020-01-05T11:34:40.000Z</time>
      </trkpt>
      <trkpt lat="42.74922" lon="1.61296">
        <ele>1888</ele>
        <time>2020-01-05T11:34:42.000Z</time>
      </trkpt>
      <trkpt lat="42.74922" lon="1.61296">
        <ele>1888</ele>
        <time>2020-01-05T11:34:44.000Z</time>
      </trkpt>
      <trkpt lat="42.74922" lon="1.61296">
        <ele>1888</ele>
        <time>2020-01-05T11:34:46.000Z</time>
      </trkpt>
      <trkpt lat="42.74922" lon="1.61296">
        <ele>1888</ele>
        <time>2020-01-05T11:34:48.000Z</time>
      </trkpt>
      <trkpt lat="42.74922" lon="1.61295">
        <ele>1888</ele>
        <time>2020-01-05T11:34:50.000Z</time>
      </trkpt>
      <trkpt lat="42.74922" lon="1.61296">
        <ele>1888</ele>
        <time>2020-01-05T11:34:52.000Z</time>
      </trkpt>
      <trkpt lat="42.74922" lon="1.61296">
        <ele>1888</ele>
        <time>2020-01-05T11:34:54.000Z</time>
      </trkpt>
      <trkpt lat="42.74922" lon="1.61297">
        <ele>1888</ele>
        <time>2020-01-05T11:34:56.000Z</time>
      </trkpt>
      <trkpt lat="42.74922" lon="1.61297">
        <ele>1888</ele>
        <time>2020-01-05T11:34:58.000Z</time>
      </trkpt>
      <trkpt lat="42.74922" lon="1.61298">
        <ele>1888</ele>
        <time>2020-01-05T11:35:00.000Z</time>
      </trkpt>
      <trkpt lat="42.74922" lon="1.61298">
        <ele>1888</ele>
        <time>2020-01-05T11:35:02.000Z</time>
      </trkpt>
      <trkpt lat="42.74922" lon="1.61297">
        <ele>1888</ele>
        <time>2020-01-05T11:35:04.000Z</time>
      </trkpt>
      <trkpt lat="42.74922" lon="1.61297">
        <ele>1888</ele>
        <time>2020-01-05T11:35:06.000Z</time>
      </trkpt>
      <trkpt lat="42.74922" lon="1.61297">
        <ele>1888</ele>
        <time>2020-01-05T11:35:08.000Z</time>
      </trkpt>
      <trkpt lat="42.74922" lon="1.61297">
        <ele>1888</ele>
        <time>2020-01-05T11:35:10.000Z</time>
      </trkpt>
      <trkpt lat="42.74922" lon="1.61297">
        <ele>1888</ele>
        <time>2020-01-05T11:35:12.000Z</time>
      </trkpt>
      <trkpt lat="42.74922" lon="1.61297">
        <ele>1888</ele>
        <time>2020-01-05T11:35:14.000Z</time>
      </trkpt>
      <trkpt lat="42.74922" lon="1.61297">
        <ele>1888</ele>
        <time>2020-01-05T11:35:16.000Z</time>
      </trkpt>
      <trkpt lat="42.74922" lon="1.61297">
        <ele>1888</ele>
        <time>2020-01-05T11:35:18.000Z</time>
      </trkpt>
      <trkpt lat="42.74922" lon="1.61297">
        <ele>1888</ele>
        <time>2020-01-05T11:35:20.000Z</time>
      </trkpt>
      <trkpt lat="42.74922" lon="1.61298">
        <ele>1888</ele>
        <time>2020-01-05T11:35:22.000Z</time>
      </trkpt>
      <trkpt lat="42.74922" lon="1.61298">
        <ele>1888</ele>
        <time>2020-01-05T11:35:24.000Z</time>
      </trkpt>
      <trkpt lat="42.74922" lon="1.61297">
        <ele>1888</ele>
        <time>2020-01-05T11:35:26.000Z</time>
      </trkpt>
      <trkpt lat="42.74922" lon="1.61297">
        <ele>1888</ele>
        <time>2020-01-05T11:35:28.000Z</time>
      </trkpt>
      <trkpt lat="42.74922" lon="1.61297">
        <ele>1888</ele>
        <time>2020-01-05T11:35:30.000Z</time>
      </trkpt>
      <trkpt lat="42.74922" lon="1.61297">
        <ele>1888</ele>
        <time>2020-01-05T11:35:32.000Z</time>
      </trkpt>
      <trkpt lat="42.74923" lon="1.61297">
        <ele>1888</ele>
        <time>2020-01-05T11:35:34.000Z</time>
      </trkpt>
      <trkpt lat="42.74923" lon="1.61297">
        <ele>1888</ele>
        <time>2020-01-05T11:35:36.000Z</time>
      </trkpt>
      <trkpt lat="42.74923" lon="1.61297">
        <ele>1888</ele>
        <time>2020-01-05T11:35:38.000Z</time>
      </trkpt>
      <trkpt lat="42.74923" lon="1.61297">
        <ele>1888</ele>
        <time>2020-01-05T11:35:40.000Z</time>
      </trkpt>
      <trkpt lat="42.74923" lon="1.61297">
        <ele>1888</ele>
        <time>2020-01-05T11:35:42.000Z</time>
      </trkpt>
      <trkpt lat="42.74923" lon="1.61297">
        <ele>1888</ele>
        <time>2020-01-05T11:35:44.000Z</time>
      </trkpt>
      <trkpt lat="42.74923" lon="1.61297">
        <ele>1888</ele>
        <time>2020-01-05T11:35:46.000Z</time>
      </trkpt>
      <trkpt lat="42.74923" lon="1.61297">
        <ele>1888</ele>
        <time>2020-01-05T11:35:48.000Z</time>
      </trkpt>
      <trkpt lat="42.74923" lon="1.61297">
        <ele>1888</ele>
        <time>2020-01-05T11:35:50.000Z</time>
      </trkpt>
      <trkpt lat="42.74923" lon="1.61297">
        <ele>1888</ele>
        <time>2020-01-05T11:35:52.000Z</time>
      </trkpt>
      <trkpt lat="42.74923" lon="1.61297">
        <ele>1888</ele>
        <time>2020-01-05T11:35:54.000Z</time>
      </trkpt>
      <trkpt lat="42.74923" lon="1.61297">
        <ele>1888</ele>
        <time>2020-01-05T11:35:56.000Z</time>
      </trkpt>
      <trkpt lat="42.74923" lon="1.61297">
        <ele>1888</ele>
        <time>2020-01-05T11:35:58.000Z</time>
      </trkpt>
      <trkpt lat="42.74923" lon="1.61297">
        <ele>1888</ele>
        <time>2020-01-05T11:36:00.000Z</time>
      </trkpt>
      <trkpt lat="42.74923" lon="1.61297">
        <ele>1888</ele>
        <time>2020-01-05T11:36:02.000Z</time>
      </trkpt>
      <trkpt lat="42.74923" lon="1.61297">
        <ele>1888</ele>
        <time>2020-01-05T11:36:04.000Z</time>
      </trkpt>
      <trkpt lat="42.74923" lon="1.61297">
        <ele>1888</ele>
        <time>2020-01-05T11:36:06.000Z</time>
      </trkpt>
      <trkpt lat="42.74923" lon="1.61297">
        <ele>1888</ele>
        <time>2020-01-05T11:36:08.000Z</time>
      </trkpt>
      <trkpt lat="42.74923" lon="1.61297">
        <ele>1888</ele>
        <time>2020-01-05T11:36:10.000Z</time>
      </trkpt>
      <trkpt lat="42.74923" lon="1.61297">
        <ele>1888</ele>
        <time>2020-01-05T11:36:12.000Z</time>
      </trkpt>
      <trkpt lat="42.74923" lon="1.61297">
        <ele>1888</ele>
        <time>2020-01-05T11:36:14.000Z</time>
      </trkpt>
      <trkpt lat="42.74923" lon="1.61297">
        <ele>1888</ele>
        <time>2020-01-05T11:36:16.000Z</time>
      </trkpt>
      <trkpt lat="42.74923" lon="1.61297">
        <ele>1888</ele>
        <time>2020-01-05T11:36:18.000Z</time>
      </trkpt>
      <trkpt lat="42.74923" lon="1.61296">
        <ele>1888</ele>
        <time>2020-01-05T11:36:20.000Z</time>
      </trkpt>
      <trkpt lat="42.74923" lon="1.61296">
        <ele>1888</ele>
        <time>2020-01-05T11:36:22.000Z</time>
      </trkpt>
      <trkpt lat="42.74924" lon="1.61296">
        <ele>1888</ele>
        <time>2020-01-05T11:36:24.000Z</time>
      </trkpt>
      <trkpt lat="42.74924" lon="1.61296">
        <ele>1888</ele>
        <time>2020-01-05T11:36:26.000Z</time>
      </trkpt>
      <trkpt lat="42.74924" lon="1.61296">
        <ele>1888</ele>
        <time>2020-01-05T11:36:28.000Z</time>
      </trkpt>
      <trkpt lat="42.74924" lon="1.61296">
        <ele>1888</ele>
        <time>2020-01-05T11:36:30.000Z</time>
      </trkpt>
      <trkpt lat="42.74924" lon="1.61296">
        <ele>1888</ele>
        <time>2020-01-05T11:36:32.000Z</time>
      </trkpt>
      <trkpt lat="42.74924" lon="1.61296">
        <ele>1888</ele>
        <time>2020-01-05T11:36:34.000Z</time>
      </trkpt>
      <trkpt lat="42.74924" lon="1.61296">
        <ele>1888</ele>
        <time>2020-01-05T11:36:36.000Z</time>
      </trkpt>
      <trkpt lat="42.74924" lon="1.61296">
        <ele>1888</ele>
        <time>2020-01-05T11:36:38.000Z</time>
      </trkpt>
      <trkpt lat="42.74924" lon="1.61296">
        <ele>1888</ele>
        <time>2020-01-05T11:36:40.000Z</time>
      </trkpt>
      <trkpt lat="42.74924" lon="1.61296">
        <ele>1888</ele>
        <time>2020-01-05T11:36:42.000Z</time>
      </trkpt>
      <trkpt lat="42.74924" lon="1.61296">
        <ele>1888</ele>
        <time>2020-01-05T11:36:44.000Z</time>
      </trkpt>
      <trkpt lat="42.74924" lon="1.61296">
        <ele>1888</ele>
        <time>2020-01-05T11:36:46.000Z</time>
      </trkpt>
      <trkpt lat="42.74924" lon="1.61296">
        <ele>1888</ele>
        <time>2020-01-05T11:36:48.000Z</time>
      </trkpt>
      <trkpt lat="42.74924" lon="1.61296">
        <ele>1888</ele>
        <time>2020-01-05T11:36:50.000Z</time>
      </trkpt>
      <trkpt lat="42.74924" lon="1.61296">
        <ele>1888</ele>
        <time>2020-01-05T11:36:52.000Z</time>
      </trkpt>
      <trkpt lat="42.74924" lon="1.61296">
        <ele>1888</ele>
        <time>2020-01-05T11:36:54.000Z</time>
      </trkpt>
      <trkpt lat="42.74924" lon="1.61296">
        <ele>1888</ele>
        <time>2020-01-05T11:36:56.000Z</time>
      </trkpt>
      <trkpt lat="42.74924" lon="1.61297">
        <ele>1888</ele>
        <time>2020-01-05T11:36:58.000Z</time>
      </trkpt>
      <trkpt lat="42.74924" lon="1.61297">
        <ele>1888</ele>
        <time>2020-01-05T11:37:00.000Z</time>
      </trkpt>
      <trkpt lat="42.74924" lon="1.61297">
        <ele>1888</ele>
        <time>2020-01-05T11:37:02.000Z</time>
      </trkpt>
      <trkpt lat="42.74924" lon="1.61297">
        <ele>1888</ele>
        <time>2020-01-05T11:37:04.000Z</time>
      </trkpt>
      <trkpt lat="42.74924" lon="1.61297">
        <ele>1888</ele>
        <time>2020-01-05T11:37:06.000Z</time>
      </trkpt>
      <trkpt lat="42.74924" lon="1.61297">
        <ele>1888</ele>
        <time>2020-01-05T11:37:08.000Z</time>
      </trkpt>
      <trkpt lat="42.74924" lon="1.61297">
        <ele>1888</ele>
        <time>2020-01-05T11:37:10.000Z</time>
      </trkpt>
      <trkpt lat="42.74924" lon="1.61297">
        <ele>1888</ele>
        <time>2020-01-05T11:37:12.000Z</time>
      </trkpt>
      <trkpt lat="42.74924" lon="1.61297">
        <ele>1888</ele>
        <time>2020-01-05T11:37:14.000Z</time>
      </trkpt>
      <trkpt lat="42.74924" lon="1.61297">
        <ele>1888</ele>
        <time>2020-01-05T11:37:16.000Z</time>
      </trkpt>
      <trkpt lat="42.74924" lon="1.61297">
        <ele>1888</ele>
        <time>2020-01-05T11:37:18.000Z</time>
      </trkpt>
      <trkpt lat="42.74923" lon="1.61297">
        <ele>1888</ele>
        <time>2020-01-05T11:37:20.000Z</time>
      </trkpt>
      <trkpt lat="42.74923" lon="1.61297">
        <ele>1888</ele>
        <time>2020-01-05T11:37:22.000Z</time>
      </trkpt>
      <trkpt lat="42.74923" lon="1.61297">
        <ele>1888</ele>
        <time>2020-01-05T11:37:24.000Z</time>
      </trkpt>
      <trkpt lat="42.74923" lon="1.61297">
        <ele>1888</ele>
        <time>2020-01-05T11:37:26.000Z</time>
      </trkpt>
      <trkpt lat="42.74923" lon="1.61297">
        <ele>1888</ele>
        <time>2020-01-05T11:37:28.000Z</time>
      </trkpt>
      <trkpt lat="42.74923" lon="1.61297">
        <ele>1888</ele>
        <time>2020-01-05T11:37:30.000Z</time>
      </trkpt>
      <trkpt lat="42.74924" lon="1.61297">
        <ele>1888</ele>
        <time>2020-01-05T11:37:32.000Z</time>
      </trkpt>
      <trkpt lat="42.74924" lon="1.61297">
        <ele>1888</ele>
        <time>2020-01-05T11:37:34.000Z</time>
      </trkpt>
      <trkpt lat="42.74924" lon="1.61297">
        <ele>1888</ele>
        <time>2020-01-05T11:37:36.000Z</time>
      </trkpt>
      <trkpt lat="42.74924" lon="1.61297">
        <ele>1888</ele>
        <time>2020-01-05T11:37:38.000Z</time>
      </trkpt>
      <trkpt lat="42.74924" lon="1.61297">
        <ele>1888</ele>
        <time>2020-01-05T11:37:40.000Z</time>
      </trkpt>
      <trkpt lat="42.74924" lon="1.61297">
        <ele>1888</ele>
        <time>2020-01-05T11:37:42.000Z</time>
      </trkpt>
      <trkpt lat="42.74924" lon="1.61297">
        <ele>1888</ele>
        <time>2020-01-05T11:37:44.000Z</time>
      </trkpt>
      <trkpt lat="42.74924" lon="1.61297">
        <ele>1888</ele>
        <time>2020-01-05T11:37:46.000Z</time>
      </trkpt>
      <trkpt lat="42.74923" lon="1.61297">
        <ele>1888</ele>
        <time>2020-01-05T11:37:48.000Z</time>
      </trkpt>
      <trkpt lat="42.74923" lon="1.61297">
        <ele>1888</ele>
        <time>2020-01-05T11:37:50.000Z</time>
      </trkpt>
      <trkpt lat="42.74923" lon="1.61297">
        <ele>1888</ele>
        <time>2020-01-05T11:37:52.000Z</time>
      </trkpt>
      <trkpt lat="42.74923" lon="1.61297">
        <ele>1888</ele>
        <time>2020-01-05T11:37:54.000Z</time>
      </trkpt>
      <trkpt lat="42.74923" lon="1.61297">
        <ele>1888</ele>
        <time>2020-01-05T11:37:56.000Z</time>
      </trkpt>
      <trkpt lat="42.74923" lon="1.61297">
        <ele>1888</ele>
        <time>2020-01-05T11:37:58.000Z</time>
      </trkpt>
      <trkpt lat="42.74923" lon="1.61297">
        <ele>1888</ele>
        <time>2020-01-05T11:38:00.000Z</time>
      </trkpt>
      <trkpt lat="42.74923" lon="1.61297">
        <ele>1888</ele>
        <time>2020-01-05T11:38:02.000Z</time>
      </trkpt>
      <trkpt lat="42.74923" lon="1.61297">
        <ele>1888</ele>
        <time>2020-01-05T11:38:04.000Z</time>
      </trkpt>
      <trkpt lat="42.74923" lon="1.61297">
        <ele>1888</ele>
        <time>2020-01-05T11:38:06.000Z</time>
      </trkpt>
      <trkpt lat="42.74923" lon="1.61297">
        <ele>1888</ele>
        <time>2020-01-05T11:38:08.000Z</time>
      </trkpt>
      <trkpt lat="42.74923" lon="1.61297">
        <ele>1888</ele>
        <time>2020-01-05T11:38:10.000Z</time>
      </trkpt>
      <trkpt lat="42.74923" lon="1.61297">
        <ele>1888</ele>
        <time>2020-01-05T11:38:12.000Z</time>
      </trkpt>
      <trkpt lat="42.74923" lon="1.61297">
        <ele>1888</ele>
        <time>2020-01-05T11:38:14.000Z</time>
      </trkpt>
      <trkpt lat="42.74923" lon="1.61297">
        <ele>1888</ele>
        <time>2020-01-05T11:38:16.000Z</time>
      </trkpt>
      <trkpt lat="42.74923" lon="1.61297">
        <ele>1888</ele>
        <time>2020-01-05T11:38:18.000Z</time>
      </trkpt>
      <trkpt lat="42.74923" lon="1.61297">
        <ele>1888</ele>
        <time>2020-01-05T11:38:20.000Z</time>
      </trkpt>
      <trkpt lat="42.74923" lon="1.61297">
        <ele>1888</ele>
        <time>2020-01-05T11:38:22.000Z</time>
      </trkpt>
      <trkpt lat="42.74923" lon="1.61297">
        <ele>1888</ele>
        <time>2020-01-05T11:38:24.000Z</time>
      </trkpt>
      <trkpt lat="42.74923" lon="1.61297">
        <ele>1888</ele>
        <time>2020-01-05T11:38:26.000Z</time>
      </trkpt>
      <trkpt lat="42.74923" lon="1.61297">
        <ele>1888</ele>
        <time>2020-01-05T11:38:28.000Z</time>
      </trkpt>
      <trkpt lat="42.74923" lon="1.61296">
        <ele>1888</ele>
        <time>2020-01-05T11:38:30.000Z</time>
      </trkpt>
      <trkpt lat="42.74923" lon="1.61296">
        <ele>1888</ele>
        <time>2020-01-05T11:38:32.000Z</time>
      </trkpt>
      <trkpt lat="42.74923" lon="1.61296">
        <ele>1888</ele>
        <time>2020-01-05T11:38:34.000Z</time>
      </trkpt>
      <trkpt lat="42.74923" lon="1.61296">
        <ele>1888</ele>
        <time>2020-01-05T11:38:36.000Z</time>
      </trkpt>
      <trkpt lat="42.74923" lon="1.61296">
        <ele>1888</ele>
        <time>2020-01-05T11:38:38.000Z</time>
      </trkpt>
      <trkpt lat="42.74923" lon="1.61296">
        <ele>1888</ele>
        <time>2020-01-05T11:38:40.000Z</time>
      </trkpt>
      <trkpt lat="42.74923" lon="1.61296">
        <ele>1888</ele>
        <time>2020-01-05T11:38:42.000Z</time>
      </trkpt>
      <trkpt lat="42.74923" lon="1.61296">
        <ele>1888</ele>
        <time>2020-01-05T11:38:44.000Z</time>
      </trkpt>
      <trkpt lat="42.74923" lon="1.61296">
        <ele>1888</ele>
        <time>2020-01-05T11:38:46.000Z</time>
      </trkpt>
      <trkpt lat="42.74923" lon="1.61296">
        <ele>1888</ele>
        <time>2020-01-05T11:38:48.000Z</time>
      </trkpt>
      <trkpt lat="42.74923" lon="1.61296">
        <ele>1888</ele>
        <time>2020-01-05T11:38:50.000Z</time>
      </trkpt>
      <trkpt lat="42.74923" lon="1.61296">
        <ele>1888</ele>
        <time>2020-01-05T11:38:52.000Z</time>
      </trkpt>
      <trkpt lat="42.74923" lon="1.61296">
        <ele>1888</ele>
        <time>2020-01-05T11:38:54.000Z</time>
      </trkpt>
      <trkpt lat="42.74923" lon="1.61297">
        <ele>1888</ele>
        <time>2020-01-05T11:38:56.000Z</time>
      </trkpt>
      <trkpt lat="42.74923" lon="1.61296">
        <ele>1888</ele>
        <time>2020-01-05T11:38:58.000Z</time>
      </trkpt>
      <trkpt lat="42.74923" lon="1.61296">
        <ele>1888</ele>
        <time>2020-01-05T11:39:00.000Z</time>
      </trkpt>
      <trkpt lat="42.74923" lon="1.61296">
        <ele>1888</ele>
        <time>2020-01-05T11:39:02.000Z</time>
      </trkpt>
      <trkpt lat="42.74923" lon="1.61296">
        <ele>1888</ele>
        <time>2020-01-05T11:39:04.000Z</time>
      </trkpt>
      <trkpt lat="42.74923" lon="1.61296">
        <ele>1888</ele>
        <time>2020-01-05T11:39:06.000Z</time>
      </trkpt>
      <trkpt lat="42.74923" lon="1.61297">
        <ele>1888</ele>
        <time>2020-01-05T11:39:08.000Z</time>
      </trkpt>
      <trkpt lat="42.74923" lon="1.61296">
        <ele>1888</ele>
        <time>2020-01-05T11:39:10.000Z</time>
      </trkpt>
      <trkpt lat="42.74923" lon="1.61296">
        <ele>1888</ele>
        <time>2020-01-05T11:39:12.000Z</time>
      </trkpt>
      <trkpt lat="42.74923" lon="1.61296">
        <ele>1888</ele>
        <time>2020-01-05T11:39:14.000Z</time>
      </trkpt>
      <trkpt lat="42.74923" lon="1.61296">
        <ele>1888</ele>
        <time>2020-01-05T11:39:16.000Z</time>
      </trkpt>
      <trkpt lat="42.74923" lon="1.61296">
        <ele>1888</ele>
        <time>2020-01-05T11:39:18.000Z</time>
      </trkpt>
      <trkpt lat="42.74923" lon="1.61296">
        <ele>1888</ele>
        <time>2020-01-05T11:39:20.000Z</time>
      </trkpt>
      <trkpt lat="42.74923" lon="1.61296">
        <ele>1888</ele>
        <time>2020-01-05T11:39:22.000Z</time>
      </trkpt>
      <trkpt lat="42.74923" lon="1.61296">
        <ele>1888</ele>
        <time>2020-01-05T11:39:24.000Z</time>
      </trkpt>
      <trkpt lat="42.74923" lon="1.61296">
        <ele>1888</ele>
        <time>2020-01-05T11:39:26.000Z</time>
      </trkpt>
      <trkpt lat="42.74923" lon="1.61296">
        <ele>1888</ele>
        <time>2020-01-05T11:39:28.000Z</time>
      </trkpt>
      <trkpt lat="42.74923" lon="1.61296">
        <ele>1888</ele>
        <time>2020-01-05T11:39:30.000Z</time>
      </trkpt>
      <trkpt lat="42.74923" lon="1.61296">
        <ele>1888</ele>
        <time>2020-01-05T11:39:32.000Z</time>
      </trkpt>
      <trkpt lat="42.74923" lon="1.61296">
        <ele>1888</ele>
        <time>2020-01-05T11:39:34.000Z</time>
      </trkpt>
      <trkpt lat="42.74923" lon="1.61296">
        <ele>1888</ele>
        <time>2020-01-05T11:39:36.000Z</time>
      </trkpt>
      <trkpt lat="42.74923" lon="1.61296">
        <ele>1888</ele>
        <time>2020-01-05T11:39:38.000Z</time>
      </trkpt>
      <trkpt lat="42.74923" lon="1.61296">
        <ele>1888</ele>
        <time>2020-01-05T11:39:40.000Z</time>
      </trkpt>
      <trkpt lat="42.74923" lon="1.61297">
        <ele>1888</ele>
        <time>2020-01-05T11:39:42.000Z</time>
      </trkpt>
      <trkpt lat="42.74923" lon="1.61297">
        <ele>1888</ele>
        <time>2020-01-05T11:39:44.000Z</time>
      </trkpt>
      <trkpt lat="42.74923" lon="1.61297">
        <ele>1888</ele>
        <time>2020-01-05T11:39:46.000Z</time>
      </trkpt>
      <trkpt lat="42.74923" lon="1.61297">
        <ele>1888</ele>
        <time>2020-01-05T11:39:48.000Z</time>
      </trkpt>
      <trkpt lat="42.74923" lon="1.61297">
        <ele>1888</ele>
        <time>2020-01-05T11:39:50.000Z</time>
      </trkpt>
      <trkpt lat="42.74923" lon="1.61297">
        <ele>1888</ele>
        <time>2020-01-05T11:39:52.000Z</time>
      </trkpt>
      <trkpt lat="42.74923" lon="1.61297">
        <ele>1888</ele>
        <time>2020-01-05T11:39:54.000Z</time>
      </trkpt>
      <trkpt lat="42.74923" lon="1.61297">
        <ele>1888</ele>
        <time>2020-01-05T11:39:56.000Z</time>
      </trkpt>
      <trkpt lat="42.74923" lon="1.61297">
        <ele>1888</ele>
        <time>2020-01-05T11:39:58.000Z</time>
      </trkpt>
      <trkpt lat="42.74923" lon="1.61297">
        <ele>1888</ele>
        <time>2020-01-05T11:40:00.000Z</time>
      </trkpt>
      <trkpt lat="42.74923" lon="1.61297">
        <ele>1888</ele>
        <time>2020-01-05T11:40:02.000Z</time>
      </trkpt>
      <trkpt lat="42.74923" lon="1.61298">
        <ele>1888</ele>
        <time>2020-01-05T11:40:04.000Z</time>
      </trkpt>
      <trkpt lat="42.74923" lon="1.61298">
        <ele>1888</ele>
        <time>2020-01-05T11:40:06.000Z</time>
      </trkpt>
      <trkpt lat="42.74924" lon="1.61298">
        <ele>1888</ele>
        <time>2020-01-05T11:40:08.000Z</time>
      </trkpt>
      <trkpt lat="42.74924" lon="1.61298">
        <ele>1888</ele>
        <time>2020-01-05T11:40:10.000Z</time>
      </trkpt>
      <trkpt lat="42.74924" lon="1.61298">
        <ele>1888</ele>
        <time>2020-01-05T11:40:12.000Z</time>
      </trkpt>
      <trkpt lat="42.74924" lon="1.61298">
        <ele>1888</ele>
        <time>2020-01-05T11:40:14.000Z</time>
      </trkpt>
      <trkpt lat="42.74924" lon="1.61298">
        <ele>1888</ele>
        <time>2020-01-05T11:40:16.000Z</time>
      </trkpt>
      <trkpt lat="42.74924" lon="1.61299">
        <ele>1888</ele>
        <time>2020-01-05T11:40:18.000Z</time>
      </trkpt>
      <trkpt lat="42.74925" lon="1.61297">
        <ele>1888</ele>
        <time>2020-01-05T11:40:20.000Z</time>
      </trkpt>
      <trkpt lat="42.74925" lon="1.61297">
        <ele>1888</ele>
        <time>2020-01-05T11:40:22.000Z</time>
      </trkpt>
      <trkpt lat="42.74925" lon="1.61298">
        <ele>1888</ele>
        <time>2020-01-05T11:40:24.000Z</time>
      </trkpt>
      <trkpt lat="42.74925" lon="1.61298">
        <ele>1888</ele>
        <time>2020-01-05T11:40:26.000Z</time>
      </trkpt>
      <trkpt lat="42.74925" lon="1.61297">
        <ele>1888</ele>
        <time>2020-01-05T11:40:28.000Z</time>
      </trkpt>
      <trkpt lat="42.74926" lon="1.61297">
        <ele>1888</ele>
        <time>2020-01-05T11:40:30.000Z</time>
      </trkpt>
      <trkpt lat="42.74926" lon="1.61297">
        <ele>1888</ele>
        <time>2020-01-05T11:40:32.000Z</time>
      </trkpt>
      <trkpt lat="42.74925" lon="1.61297">
        <ele>1888</ele>
        <time>2020-01-05T11:40:34.000Z</time>
      </trkpt>
      <trkpt lat="42.74925" lon="1.61297">
        <ele>1888</ele>
        <time>2020-01-05T11:40:36.000Z</time>
      </trkpt>
      <trkpt lat="42.74925" lon="1.61297">
        <ele>1888</ele>
        <time>2020-01-05T11:40:38.000Z</time>
      </trkpt>
      <trkpt lat="42.74925" lon="1.61297">
        <ele>1888</ele>
        <time>2020-01-05T11:40:40.000Z</time>
      </trkpt>
      <trkpt lat="42.74926" lon="1.61297">
        <ele>1888</ele>
        <time>2020-01-05T11:40:42.000Z</time>
      </trkpt>
      <trkpt lat="42.74925" lon="1.61298">
        <ele>1888</ele>
        <time>2020-01-05T11:40:44.000Z</time>
      </trkpt>
      <trkpt lat="42.74925" lon="1.61297">
        <ele>1888</ele>
        <time>2020-01-05T11:40:46.000Z</time>
      </trkpt>
      <trkpt lat="42.74925" lon="1.61298">
        <ele>1888</ele>
        <time>2020-01-05T11:40:48.000Z</time>
      </trkpt>
      <trkpt lat="42.74925" lon="1.61298">
        <ele>1888</ele>
        <time>2020-01-05T11:40:50.000Z</time>
      </trkpt>
      <trkpt lat="42.74925" lon="1.61299">
        <ele>1888</ele>
        <time>2020-01-05T11:40:52.000Z</time>
      </trkpt>
      <trkpt lat="42.74925" lon="1.61299">
        <ele>1888</ele>
        <time>2020-01-05T11:40:54.000Z</time>
      </trkpt>
      <trkpt lat="42.74924" lon="1.61299">
        <ele>1888</ele>
        <time>2020-01-05T11:40:56.000Z</time>
      </trkpt>
      <trkpt lat="42.74924" lon="1.61299">
        <ele>1888</ele>
        <time>2020-01-05T11:40:58.000Z</time>
      </trkpt>
      <trkpt lat="42.74925" lon="1.61299">
        <ele>1888</ele>
        <time>2020-01-05T11:41:00.000Z</time>
      </trkpt>
      <trkpt lat="42.74924" lon="1.61299">
        <ele>1888</ele>
        <time>2020-01-05T11:41:02.000Z</time>
      </trkpt>
      <trkpt lat="42.74924" lon="1.61299">
        <ele>1888</ele>
        <time>2020-01-05T11:41:04.000Z</time>
      </trkpt>
      <trkpt lat="42.74924" lon="1.61298">
        <ele>1888</ele>
        <time>2020-01-05T11:41:06.000Z</time>
      </trkpt>
      <trkpt lat="42.74924" lon="1.61298">
        <ele>1888</ele>
        <time>2020-01-05T11:41:08.000Z</time>
      </trkpt>
      <trkpt lat="42.74924" lon="1.61298">
        <ele>1888</ele>
        <time>2020-01-05T11:41:10.000Z</time>
      </trkpt>
      <trkpt lat="42.74924" lon="1.61298">
        <ele>1888</ele>
        <time>2020-01-05T11:41:12.000Z</time>
      </trkpt>
      <trkpt lat="42.74924" lon="1.61298">
        <ele>1888</ele>
        <time>2020-01-05T11:41:14.000Z</time>
      </trkpt>
      <trkpt lat="42.74923" lon="1.61297">
        <ele>1888</ele>
        <time>2020-01-05T11:41:16.000Z</time>
      </trkpt>
      <trkpt lat="42.74924" lon="1.61298">
        <ele>1888</ele>
        <time>2020-01-05T11:41:18.000Z</time>
      </trkpt>
      <trkpt lat="42.74924" lon="1.61298">
        <ele>1888</ele>
        <time>2020-01-05T11:41:20.000Z</time>
      </trkpt>
      <trkpt lat="42.74923" lon="1.61299">
        <ele>1888</ele>
        <time>2020-01-05T11:41:22.000Z</time>
      </trkpt>
      <trkpt lat="42.74923" lon="1.61299">
        <ele>1888</ele>
        <time>2020-01-05T11:41:24.000Z</time>
      </trkpt>
      <trkpt lat="42.74922" lon="1.61298">
        <ele>1888</ele>
        <time>2020-01-05T11:41:26.000Z</time>
      </trkpt>
      <trkpt lat="42.74922" lon="1.61297">
        <ele>1888</ele>
        <time>2020-01-05T11:41:28.000Z</time>
      </trkpt>
      <trkpt lat="42.74921" lon="1.61297">
        <ele>1888</ele>
        <time>2020-01-05T11:41:30.000Z</time>
      </trkpt>
      <trkpt lat="42.74921" lon="1.61297">
        <ele>1888</ele>
        <time>2020-01-05T11:41:32.000Z</time>
      </trkpt>
      <trkpt lat="42.74921" lon="1.61297">
        <ele>1888</ele>
        <time>2020-01-05T11:41:34.000Z</time>
      </trkpt>
      <trkpt lat="42.74921" lon="1.61298">
        <ele>1888</ele>
        <time>2020-01-05T11:41:36.000Z</time>
      </trkpt>
      <trkpt lat="42.74921" lon="1.61298">
        <ele>1888</ele>
        <time>2020-01-05T11:41:38.000Z</time>
      </trkpt>
      <trkpt lat="42.74922" lon="1.61298">
        <ele>1888</ele>
        <time>2020-01-05T11:41:40.000Z</time>
      </trkpt>
      <trkpt lat="42.74922" lon="1.61298">
        <ele>1888</ele>
        <time>2020-01-05T11:41:42.000Z</time>
      </trkpt>
      <trkpt lat="42.74922" lon="1.61298">
        <ele>1888</ele>
        <time>2020-01-05T11:41:44.000Z</time>
      </trkpt>
      <trkpt lat="42.74922" lon="1.61297">
        <ele>1888</ele>
        <time>2020-01-05T11:41:46.000Z</time>
      </trkpt>
      <trkpt lat="42.74922" lon="1.61297">
        <ele>1888</ele>
        <time>2020-01-05T11:41:48.000Z</time>
      </trkpt>
      <trkpt lat="42.74922" lon="1.61298">
        <ele>1888</ele>
        <time>2020-01-05T11:41:50.000Z</time>
      </trkpt>
      <trkpt lat="42.74923" lon="1.61297">
        <ele>1888</ele>
        <time>2020-01-05T11:41:52.000Z</time>
      </trkpt>
      <trkpt lat="42.74922" lon="1.61297">
        <ele>1888</ele>
        <time>2020-01-05T11:41:54.000Z</time>
      </trkpt>
      <trkpt lat="42.74922" lon="1.61297">
        <ele>1888</ele>
        <time>2020-01-05T11:41:56.000Z</time>
      </trkpt>
      <trkpt lat="42.74922" lon="1.61297">
        <ele>1888</ele>
        <time>2020-01-05T11:41:58.000Z</time>
      </trkpt>
      <trkpt lat="42.74922" lon="1.61296">
        <ele>1888</ele>
        <time>2020-01-05T11:42:00.000Z</time>
      </trkpt>
      <trkpt lat="42.74922" lon="1.61296">
        <ele>1888</ele>
        <time>2020-01-05T11:42:02.000Z</time>
      </trkpt>
      <trkpt lat="42.74922" lon="1.61296">
        <ele>1888</ele>
        <time>2020-01-05T11:42:04.000Z</time>
      </trkpt>
      <trkpt lat="42.74922" lon="1.61296">
        <ele>1888</ele>
        <time>2020-01-05T11:42:06.000Z</time>
      </trkpt>
      <trkpt lat="42.74922" lon="1.61296">
        <ele>1888</ele>
        <time>2020-01-05T11:42:08.000Z</time>
      </trkpt>
      <trkpt lat="42.74922" lon="1.61296">
        <ele>1888</ele>
        <time>2020-01-05T11:42:10.000Z</time>
      </trkpt>
      <trkpt lat="42.74922" lon="1.61296">
        <ele>1888</ele>
        <time>2020-01-05T11:42:12.000Z</time>
      </trkpt>
      <trkpt lat="42.74922" lon="1.61296">
        <ele>1888</ele>
        <time>2020-01-05T11:42:14.000Z</time>
      </trkpt>
      <trkpt lat="42.74921" lon="1.61296">
        <ele>1888</ele>
        <time>2020-01-05T11:42:16.000Z</time>
      </trkpt>
      <trkpt lat="42.74921" lon="1.61296">
        <ele>1888</ele>
        <time>2020-01-05T11:42:18.000Z</time>
      </trkpt>
      <trkpt lat="42.74921" lon="1.61296">
        <ele>1888</ele>
        <time>2020-01-05T11:42:20.000Z</time>
      </trkpt>
      <trkpt lat="42.74921" lon="1.61296">
        <ele>1888</ele>
        <time>2020-01-05T11:42:22.000Z</time>
      </trkpt>
      <trkpt lat="42.74921" lon="1.61296">
        <ele>1888</ele>
        <time>2020-01-05T11:42:24.000Z</time>
      </trkpt>
      <trkpt lat="42.74921" lon="1.61296">
        <ele>1888</ele>
        <time>2020-01-05T11:42:26.000Z</time>
      </trkpt>
      <trkpt lat="42.74921" lon="1.61295">
        <ele>1888</ele>
        <time>2020-01-05T11:42:28.000Z</time>
      </trkpt>
      <trkpt lat="42.74921" lon="1.61294">
        <ele>1888</ele>
        <time>2020-01-05T11:42:30.000Z</time>
      </trkpt>
      <trkpt lat="42.74921" lon="1.61293">
        <ele>1889</ele>
        <time>2020-01-05T11:42:32.000Z</time>
      </trkpt>
      <trkpt lat="42.74922" lon="1.61293">
        <ele>1888</ele>
        <time>2020-01-05T11:42:34.000Z</time>
      </trkpt>
      <trkpt lat="42.74922" lon="1.61294">
        <ele>1888</ele>
        <time>2020-01-05T11:42:36.000Z</time>
      </trkpt>
      <trkpt lat="42.74922" lon="1.61296">
        <ele>1888</ele>
        <time>2020-01-05T11:42:38.000Z</time>
      </trkpt>
      <trkpt lat="42.74922" lon="1.61297">
        <ele>1888</ele>
        <time>2020-01-05T11:42:40.000Z</time>
      </trkpt>
      <trkpt lat="42.74922" lon="1.61298">
        <ele>1888</ele>
        <time>2020-01-05T11:42:42.000Z</time>
      </trkpt>
      <trkpt lat="42.74922" lon="1.61298">
        <ele>1888</ele>
        <time>2020-01-05T11:42:44.000Z</time>
      </trkpt>
      <trkpt lat="42.74922" lon="1.61297">
        <ele>1888</ele>
        <time>2020-01-05T11:42:46.000Z</time>
      </trkpt>
      <trkpt lat="42.74922" lon="1.61297">
        <ele>1888</ele>
        <time>2020-01-05T11:42:48.000Z</time>
      </trkpt>
      <trkpt lat="42.74922" lon="1.61297">
        <ele>1888</ele>
        <time>2020-01-05T11:42:50.000Z</time>
      </trkpt>
      <trkpt lat="42.74922" lon="1.61297">
        <ele>1888</ele>
        <time>2020-01-05T11:42:52.000Z</time>
      </trkpt>
      <trkpt lat="42.74922" lon="1.61297">
        <ele>1888</ele>
        <time>2020-01-05T11:42:54.000Z</time>
      </trkpt>
      <trkpt lat="42.74922" lon="1.61296">
        <ele>1888</ele>
        <time>2020-01-05T11:42:56.000Z</time>
      </trkpt>
      <trkpt lat="42.74922" lon="1.61296">
        <ele>1888</ele>
        <time>2020-01-05T11:42:58.000Z</time>
      </trkpt>
      <trkpt lat="42.74922" lon="1.61296">
        <ele>1888</ele>
        <time>2020-01-05T11:43:00.000Z</time>
      </trkpt>
      <trkpt lat="42.74922" lon="1.61296">
        <ele>1888</ele>
        <time>2020-01-05T11:43:02.000Z</time>
      </trkpt>
      <trkpt lat="42.74922" lon="1.61296">
        <ele>1888</ele>
        <time>2020-01-05T11:43:04.000Z</time>
      </trkpt>
      <trkpt lat="42.74922" lon="1.61297">
        <ele>1888</ele>
        <time>2020-01-05T11:43:06.000Z</time>
      </trkpt>
      <trkpt lat="42.74921" lon="1.61297">
        <ele>1888</ele>
        <time>2020-01-05T11:43:08.000Z</time>
      </trkpt>
      <trkpt lat="42.74921" lon="1.61297">
        <ele>1888</ele>
        <time>2020-01-05T11:43:10.000Z</time>
      </trkpt>
      <trkpt lat="42.74921" lon="1.61297">
        <ele>1888</ele>
        <time>2020-01-05T11:43:12.000Z</time>
      </trkpt>
      <trkpt lat="42.74921" lon="1.61297">
        <ele>1888</ele>
        <time>2020-01-05T11:43:14.000Z</time>
      </trkpt>
      <trkpt lat="42.74921" lon="1.61296">
        <ele>1888</ele>
        <time>2020-01-05T11:43:16.000Z</time>
      </trkpt>
      <trkpt lat="42.74921" lon="1.61297">
        <ele>1888</ele>
        <time>2020-01-05T11:43:18.000Z</time>
      </trkpt>
      <trkpt lat="42.74921" lon="1.61297">
        <ele>1888</ele>
        <time>2020-01-05T11:43:20.000Z</time>
      </trkpt>
      <trkpt lat="42.74921" lon="1.61297">
        <ele>1888</ele>
        <time>2020-01-05T11:43:22.000Z</time>
      </trkpt>
      <trkpt lat="42.74921" lon="1.61297">
        <ele>1888</ele>
        <time>2020-01-05T11:43:24.000Z</time>
      </trkpt>
      <trkpt lat="42.74921" lon="1.61297">
        <ele>1888</ele>
        <time>2020-01-05T11:43:26.000Z</time>
      </trkpt>
      <trkpt lat="42.74921" lon="1.61297">
        <ele>1888</ele>
        <time>2020-01-05T11:43:28.000Z</time>
      </trkpt>
      <trkpt lat="42.74921" lon="1.61297">
        <ele>1888</ele>
        <time>2020-01-05T11:43:30.000Z</time>
      </trkpt>
      <trkpt lat="42.74921" lon="1.61298">
        <ele>1888</ele>
        <time>2020-01-05T11:43:32.000Z</time>
      </trkpt>
      <trkpt lat="42.74921" lon="1.61297">
        <ele>1888</ele>
        <time>2020-01-05T11:43:34.000Z</time>
      </trkpt>
      <trkpt lat="42.74921" lon="1.61297">
        <ele>1888</ele>
        <time>2020-01-05T11:43:36.000Z</time>
      </trkpt>
      <trkpt lat="42.74921" lon="1.61298">
        <ele>1888</ele>
        <time>2020-01-05T11:43:38.000Z</time>
      </trkpt>
      <trkpt lat="42.74921" lon="1.61297">
        <ele>1888</ele>
        <time>2020-01-05T11:43:40.000Z</time>
      </trkpt>
      <trkpt lat="42.74921" lon="1.61297">
        <ele>1888</ele>
        <time>2020-01-05T11:43:42.000Z</time>
      </trkpt>
      <trkpt lat="42.74921" lon="1.61297">
        <ele>1888</ele>
        <time>2020-01-05T11:43:44.000Z</time>
      </trkpt>
      <trkpt lat="42.74921" lon="1.61297">
        <ele>1888</ele>
        <time>2020-01-05T11:43:46.000Z</time>
      </trkpt>
      <trkpt lat="42.74921" lon="1.61297">
        <ele>1888</ele>
        <time>2020-01-05T11:43:48.000Z</time>
      </trkpt>
      <trkpt lat="42.74922" lon="1.61297">
        <ele>1888</ele>
        <time>2020-01-05T11:43:50.000Z</time>
      </trkpt>
      <trkpt lat="42.74922" lon="1.61296">
        <ele>1888</ele>
        <time>2020-01-05T11:43:52.000Z</time>
      </trkpt>
      <trkpt lat="42.74922" lon="1.61296">
        <ele>1888</ele>
        <time>2020-01-05T11:43:54.000Z</time>
      </trkpt>
      <trkpt lat="42.74921" lon="1.61297">
        <ele>1888</ele>
        <time>2020-01-05T11:43:56.000Z</time>
      </trkpt>
      <trkpt lat="42.74921" lon="1.61297">
        <ele>1888</ele>
        <time>2020-01-05T11:43:58.000Z</time>
      </trkpt>
      <trkpt lat="42.74921" lon="1.61296">
        <ele>1888</ele>
        <time>2020-01-05T11:44:00.000Z</time>
      </trkpt>
      <trkpt lat="42.74921" lon="1.61296">
        <ele>1888</ele>
        <time>2020-01-05T11:44:02.000Z</time>
      </trkpt>
      <trkpt lat="42.74921" lon="1.61297">
        <ele>1888</ele>
        <time>2020-01-05T11:44:04.000Z</time>
      </trkpt>
      <trkpt lat="42.7492" lon="1.61297">
        <ele>1888</ele>
        <time>2020-01-05T11:44:06.000Z</time>
      </trkpt>
      <trkpt lat="42.7492" lon="1.61297">
        <ele>1888</ele>
        <time>2020-01-05T11:44:08.000Z</time>
      </trkpt>
      <trkpt lat="42.7492" lon="1.61297">
        <ele>1888</ele>
        <time>2020-01-05T11:44:10.000Z</time>
      </trkpt>
      <trkpt lat="42.7492" lon="1.61298">
        <ele>1888</ele>
        <time>2020-01-05T11:44:12.000Z</time>
      </trkpt>
      <trkpt lat="42.7492" lon="1.61298">
        <ele>1888</ele>
        <time>2020-01-05T11:44:14.000Z</time>
      </trkpt>
      <trkpt lat="42.7492" lon="1.61298">
        <ele>1888</ele>
        <time>2020-01-05T11:44:16.000Z</time>
      </trkpt>
      <trkpt lat="42.7492" lon="1.61299">
        <ele>1888</ele>
        <time>2020-01-05T11:44:18.000Z</time>
      </trkpt>
      <trkpt lat="42.7492" lon="1.61299">
        <ele>1888</ele>
        <time>2020-01-05T11:44:20.000Z</time>
      </trkpt>
      <trkpt lat="42.7492" lon="1.61299">
        <ele>1888</ele>
        <time>2020-01-05T11:44:22.000Z</time>
      </trkpt>
      <trkpt lat="42.74921" lon="1.61299">
        <ele>1888</ele>
        <time>2020-01-05T11:44:24.000Z</time>
      </trkpt>
      <trkpt lat="42.74921" lon="1.61299">
        <ele>1888</ele>
        <time>2020-01-05T11:44:26.000Z</time>
      </trkpt>
      <trkpt lat="42.74921" lon="1.61298">
        <ele>1888</ele>
        <time>2020-01-05T11:44:28.000Z</time>
      </trkpt>
      <trkpt lat="42.74921" lon="1.61298">
        <ele>1888</ele>
        <time>2020-01-05T11:44:30.000Z</time>
      </trkpt>
      <trkpt lat="42.74921" lon="1.61298">
        <ele>1888</ele>
        <time>2020-01-05T11:44:32.000Z</time>
      </trkpt>
      <trkpt lat="42.74921" lon="1.61298">
        <ele>1888</ele>
        <time>2020-01-05T11:44:34.000Z</time>
      </trkpt>
      <trkpt lat="42.74921" lon="1.61298">
        <ele>1888</ele>
        <time>2020-01-05T11:44:36.000Z</time>
      </trkpt>
      <trkpt lat="42.74921" lon="1.61299">
        <ele>1888</ele>
        <time>2020-01-05T11:44:38.000Z</time>
      </trkpt>
      <trkpt lat="42.74921" lon="1.61299">
        <ele>1888</ele>
        <time>2020-01-05T11:44:40.000Z</time>
      </trkpt>
      <trkpt lat="42.74921" lon="1.61299">
        <ele>1888</ele>
        <time>2020-01-05T11:44:42.000Z</time>
      </trkpt>
      <trkpt lat="42.74921" lon="1.61298">
        <ele>1888</ele>
        <time>2020-01-05T11:44:44.000Z</time>
      </trkpt>
      <trkpt lat="42.74922" lon="1.61298">
        <ele>1888</ele>
        <time>2020-01-05T11:44:46.000Z</time>
      </trkpt>
      <trkpt lat="42.74922" lon="1.61298">
        <ele>1888</ele>
        <time>2020-01-05T11:44:48.000Z</time>
      </trkpt>
      <trkpt lat="42.74922" lon="1.61297">
        <ele>1888</ele>
        <time>2020-01-05T11:44:50.000Z</time>
      </trkpt>
      <trkpt lat="42.74922" lon="1.61297">
        <ele>1888</ele>
        <time>2020-01-05T11:44:52.000Z</time>
      </trkpt>
      <trkpt lat="42.74922" lon="1.61297">
        <ele>1888</ele>
        <time>2020-01-05T11:44:54.000Z</time>
      </trkpt>
      <trkpt lat="42.74922" lon="1.61297">
        <ele>1888</ele>
        <time>2020-01-05T11:44:56.000Z</time>
      </trkpt>
      <trkpt lat="42.74922" lon="1.61297">
        <ele>1888</ele>
        <time>2020-01-05T11:44:58.000Z</time>
      </trkpt>
      <trkpt lat="42.74922" lon="1.61297">
        <ele>1888</ele>
        <time>2020-01-05T11:45:00.000Z</time>
      </trkpt>
      <trkpt lat="42.74921" lon="1.61298">
        <ele>1888</ele>
        <time>2020-01-05T11:45:02.000Z</time>
      </trkpt>
      <trkpt lat="42.74921" lon="1.61298">
        <ele>1888</ele>
        <time>2020-01-05T11:45:04.000Z</time>
      </trkpt>
      <trkpt lat="42.74921" lon="1.61298">
        <ele>1888</ele>
        <time>2020-01-05T11:45:06.000Z</time>
      </trkpt>
      <trkpt lat="42.74921" lon="1.61298">
        <ele>1888</ele>
        <time>2020-01-05T11:45:08.000Z</time>
      </trkpt>
      <trkpt lat="42.74921" lon="1.61298">
        <ele>1888</ele>
        <time>2020-01-05T11:45:10.000Z</time>
      </trkpt>
      <trkpt lat="42.74921" lon="1.61297">
        <ele>1888</ele>
        <time>2020-01-05T11:45:12.000Z</time>
      </trkpt>
      <trkpt lat="42.74921" lon="1.61297">
        <ele>1888</ele>
        <time>2020-01-05T11:45:14.000Z</time>
      </trkpt>
      <trkpt lat="42.74922" lon="1.61297">
        <ele>1888</ele>
        <time>2020-01-05T11:45:16.000Z</time>
      </trkpt>
      <trkpt lat="42.74921" lon="1.61297">
        <ele>1888</ele>
        <time>2020-01-05T11:45:18.000Z</time>
      </trkpt>
      <trkpt lat="42.74921" lon="1.61297">
        <ele>1888</ele>
        <time>2020-01-05T11:45:20.000Z</time>
      </trkpt>
      <trkpt lat="42.74921" lon="1.61297">
        <ele>1888</ele>
        <time>2020-01-05T11:45:22.000Z</time>
      </trkpt>
      <trkpt lat="42.74921" lon="1.61298">
        <ele>1888</ele>
        <time>2020-01-05T11:45:24.000Z</time>
      </trkpt>
      <trkpt lat="42.74921" lon="1.61297">
        <ele>1888</ele>
        <time>2020-01-05T11:45:26.000Z</time>
      </trkpt>
      <trkpt lat="42.74922" lon="1.61297">
        <ele>1888</ele>
        <time>2020-01-05T11:45:28.000Z</time>
      </trkpt>
      <trkpt lat="42.74922" lon="1.61298">
        <ele>1888</ele>
        <time>2020-01-05T11:45:30.000Z</time>
      </trkpt>
      <trkpt lat="42.74922" lon="1.61297">
        <ele>1888</ele>
        <time>2020-01-05T11:45:32.000Z</time>
      </trkpt>
      <trkpt lat="42.74922" lon="1.61297">
        <ele>1888</ele>
        <time>2020-01-05T11:45:34.000Z</time>
      </trkpt>
      <trkpt lat="42.74922" lon="1.61297">
        <ele>1888</ele>
        <time>2020-01-05T11:45:36.000Z</time>
      </trkpt>
      <trkpt lat="42.74923" lon="1.61297">
        <ele>1888</ele>
        <time>2020-01-05T11:45:38.000Z</time>
      </trkpt>
      <trkpt lat="42.74923" lon="1.61297">
        <ele>1888</ele>
        <time>2020-01-05T11:45:40.000Z</time>
      </trkpt>
      <trkpt lat="42.74922" lon="1.61297">
        <ele>1888</ele>
        <time>2020-01-05T11:45:42.000Z</time>
      </trkpt>
      <trkpt lat="42.74922" lon="1.61296">
        <ele>1888</ele>
        <time>2020-01-05T11:45:44.000Z</time>
      </trkpt>
      <trkpt lat="42.74922" lon="1.61296">
        <ele>1888</ele>
        <time>2020-01-05T11:45:46.000Z</time>
      </trkpt>
      <trkpt lat="42.74922" lon="1.61296">
        <ele>1888</ele>
        <time>2020-01-05T11:45:48.000Z</time>
      </trkpt>
      <trkpt lat="42.74922" lon="1.61296">
        <ele>1888</ele>
        <time>2020-01-05T11:45:50.000Z</time>
      </trkpt>
      <trkpt lat="42.74922" lon="1.61296">
        <ele>1888</ele>
        <time>2020-01-05T11:45:52.000Z</time>
      </trkpt>
      <trkpt lat="42.74923" lon="1.61296">
        <ele>1888</ele>
        <time>2020-01-05T11:45:54.000Z</time>
      </trkpt>
      <trkpt lat="42.74923" lon="1.61296">
        <ele>1888</ele>
        <time>2020-01-05T11:45:56.000Z</time>
      </trkpt>
      <trkpt lat="42.74923" lon="1.61296">
        <ele>1888</ele>
        <time>2020-01-05T11:45:58.000Z</time>
      </trkpt>
      <trkpt lat="42.74923" lon="1.61296">
        <ele>1888</ele>
        <time>2020-01-05T11:46:00.000Z</time>
      </trkpt>
      <trkpt lat="42.74923" lon="1.61296">
        <ele>1888</ele>
        <time>2020-01-05T11:46:02.000Z</time>
      </trkpt>
      <trkpt lat="42.74923" lon="1.61296">
        <ele>1888</ele>
        <time>2020-01-05T11:46:04.000Z</time>
      </trkpt>
      <trkpt lat="42.74923" lon="1.61296">
        <ele>1888</ele>
        <time>2020-01-05T11:46:06.000Z</time>
      </trkpt>
      <trkpt lat="42.74923" lon="1.61296">
        <ele>1888</ele>
        <time>2020-01-05T11:46:08.000Z</time>
      </trkpt>
      <trkpt lat="42.74923" lon="1.61296">
        <ele>1888</ele>
        <time>2020-01-05T11:46:10.000Z</time>
      </trkpt>
      <trkpt lat="42.74923" lon="1.61296">
        <ele>1888</ele>
        <time>2020-01-05T11:46:12.000Z</time>
      </trkpt>
      <trkpt lat="42.74923" lon="1.61297">
        <ele>1888</ele>
        <time>2020-01-05T11:46:14.000Z</time>
      </trkpt>
      <trkpt lat="42.74923" lon="1.61297">
        <ele>1888</ele>
        <time>2020-01-05T11:46:16.000Z</time>
      </trkpt>
      <trkpt lat="42.74923" lon="1.61297">
        <ele>1888</ele>
        <time>2020-01-05T11:46:18.000Z</time>
      </trkpt>
      <trkpt lat="42.74923" lon="1.61297">
        <ele>1888</ele>
        <time>2020-01-05T11:46:20.000Z</time>
      </trkpt>
      <trkpt lat="42.74923" lon="1.61297">
        <ele>1888</ele>
        <time>2020-01-05T11:46:22.000Z</time>
      </trkpt>
      <trkpt lat="42.74923" lon="1.61296">
        <ele>1888</ele>
        <time>2020-01-05T11:46:24.000Z</time>
      </trkpt>
      <trkpt lat="42.74923" lon="1.61296">
        <ele>1888</ele>
        <time>2020-01-05T11:46:26.000Z</time>
      </trkpt>
      <trkpt lat="42.74923" lon="1.61296">
        <ele>1888</ele>
        <time>2020-01-05T11:46:28.000Z</time>
      </trkpt>
      <trkpt lat="42.74923" lon="1.61296">
        <ele>1888</ele>
        <time>2020-01-05T11:46:30.000Z</time>
      </trkpt>
      <trkpt lat="42.74923" lon="1.61295">
        <ele>1888</ele>
        <time>2020-01-05T11:46:32.000Z</time>
      </trkpt>
      <trkpt lat="42.74923" lon="1.61295">
        <ele>1888</ele>
        <time>2020-01-05T11:46:34.000Z</time>
      </trkpt>
      <trkpt lat="42.74923" lon="1.61296">
        <ele>1888</ele>
        <time>2020-01-05T11:46:36.000Z</time>
      </trkpt>
      <trkpt lat="42.74923" lon="1.61295">
        <ele>1888</ele>
        <time>2020-01-05T11:46:38.000Z</time>
      </trkpt>
      <trkpt lat="42.74923" lon="1.61295">
        <ele>1888</ele>
        <time>2020-01-05T11:46:40.000Z</time>
      </trkpt>
      <trkpt lat="42.74924" lon="1.61295">
        <ele>1888</ele>
        <time>2020-01-05T11:46:42.000Z</time>
      </trkpt>
      <trkpt lat="42.74923" lon="1.61295">
        <ele>1888</ele>
        <time>2020-01-05T11:46:44.000Z</time>
      </trkpt>
      <trkpt lat="42.74923" lon="1.61295">
        <ele>1888</ele>
        <time>2020-01-05T11:46:46.000Z</time>
      </trkpt>
      <trkpt lat="42.74923" lon="1.61295">
        <ele>1888</ele>
        <time>2020-01-05T11:46:48.000Z</time>
      </trkpt>
      <trkpt lat="42.74923" lon="1.61296">
        <ele>1888</ele>
        <time>2020-01-05T11:46:50.000Z</time>
      </trkpt>
      <trkpt lat="42.74923" lon="1.61296">
        <ele>1888</ele>
        <time>2020-01-05T11:46:52.000Z</time>
      </trkpt>
      <trkpt lat="42.74923" lon="1.61296">
        <ele>1888</ele>
        <time>2020-01-05T11:46:54.000Z</time>
      </trkpt>
      <trkpt lat="42.74923" lon="1.61296">
        <ele>1888</ele>
        <time>2020-01-05T11:46:56.000Z</time>
      </trkpt>
      <trkpt lat="42.74923" lon="1.61295">
        <ele>1888</ele>
        <time>2020-01-05T11:46:58.000Z</time>
      </trkpt>
      <trkpt lat="42.74923" lon="1.61295">
        <ele>1888</ele>
        <time>2020-01-05T11:47:00.000Z</time>
      </trkpt>
      <trkpt lat="42.74923" lon="1.61296">
        <ele>1888</ele>
        <time>2020-01-05T11:47:02.000Z</time>
      </trkpt>
      <trkpt lat="42.74922" lon="1.61296">
        <ele>1888</ele>
        <time>2020-01-05T11:47:04.000Z</time>
      </trkpt>
      <trkpt lat="42.74922" lon="1.61296">
        <ele>1888</ele>
        <time>2020-01-05T11:47:06.000Z</time>
      </trkpt>
      <trkpt lat="42.74922" lon="1.61296">
        <ele>1888</ele>
        <time>2020-01-05T11:47:08.000Z</time>
      </trkpt>
      <trkpt lat="42.74922" lon="1.61296">
        <ele>1888</ele>
        <time>2020-01-05T11:47:10.000Z</time>
      </trkpt>
      <trkpt lat="42.74922" lon="1.61296">
        <ele>1888</ele>
        <time>2020-01-05T11:47:12.000Z</time>
      </trkpt>
      <trkpt lat="42.74922" lon="1.61296">
        <ele>1888</ele>
        <time>2020-01-05T11:47:14.000Z</time>
      </trkpt>
      <trkpt lat="42.74922" lon="1.61296">
        <ele>1888</ele>
        <time>2020-01-05T11:47:16.000Z</time>
      </trkpt>
      <trkpt lat="42.74922" lon="1.61296">
        <ele>1888</ele>
        <time>2020-01-05T11:47:18.000Z</time>
      </trkpt>
      <trkpt lat="42.74922" lon="1.61296">
        <ele>1888</ele>
        <time>2020-01-05T11:47:20.000Z</time>
      </trkpt>
      <trkpt lat="42.74922" lon="1.61297">
        <ele>1888</ele>
        <time>2020-01-05T11:47:22.000Z</time>
      </trkpt>
      <trkpt lat="42.74922" lon="1.61297">
        <ele>1888</ele>
        <time>2020-01-05T11:47:24.000Z</time>
      </trkpt>
      <trkpt lat="42.74922" lon="1.61297">
        <ele>1888</ele>
        <time>2020-01-05T11:47:26.000Z</time>
      </trkpt>
      <trkpt lat="42.74922" lon="1.61297">
        <ele>1888</ele>
        <time>2020-01-05T11:47:28.000Z</time>
      </trkpt>
      <trkpt lat="42.74922" lon="1.61297">
        <ele>1888</ele>
        <time>2020-01-05T11:47:30.000Z</time>
      </trkpt>
      <trkpt lat="42.74922" lon="1.61297">
        <ele>1888</ele>
        <time>2020-01-05T11:47:32.000Z</time>
      </trkpt>
      <trkpt lat="42.74922" lon="1.61297">
        <ele>1888</ele>
        <time>2020-01-05T11:47:34.000Z</time>
      </trkpt>
      <trkpt lat="42.74922" lon="1.61297">
        <ele>1888</ele>
        <time>2020-01-05T11:47:36.000Z</time>
      </trkpt>
      <trkpt lat="42.74922" lon="1.61297">
        <ele>1888</ele>
        <time>2020-01-05T11:47:38.000Z</time>
      </trkpt>
      <trkpt lat="42.74922" lon="1.61297">
        <ele>1888</ele>
        <time>2020-01-05T11:47:40.000Z</time>
      </trkpt>
      <trkpt lat="42.74922" lon="1.61297">
        <ele>1888</ele>
        <time>2020-01-05T11:47:42.000Z</time>
      </trkpt>
      <trkpt lat="42.74922" lon="1.61298">
        <ele>1888</ele>
        <time>2020-01-05T11:47:44.000Z</time>
      </trkpt>
      <trkpt lat="42.74922" lon="1.61298">
        <ele>1888</ele>
        <time>2020-01-05T11:47:46.000Z</time>
      </trkpt>
      <trkpt lat="42.74922" lon="1.61298">
        <ele>1888</ele>
        <time>2020-01-05T11:47:48.000Z</time>
      </trkpt>
      <trkpt lat="42.74923" lon="1.61298">
        <ele>1888</ele>
        <time>2020-01-05T11:47:50.000Z</time>
      </trkpt>
      <trkpt lat="42.74923" lon="1.61298">
        <ele>1888</ele>
        <time>2020-01-05T11:47:52.000Z</time>
      </trkpt>
      <trkpt lat="42.74923" lon="1.61298">
        <ele>1888</ele>
        <time>2020-01-05T11:47:54.000Z</time>
      </trkpt>
      <trkpt lat="42.74923" lon="1.61298">
        <ele>1888</ele>
        <time>2020-01-05T11:47:56.000Z</time>
      </trkpt>
      <trkpt lat="42.74923" lon="1.61298">
        <ele>1888</ele>
        <time>2020-01-05T11:47:58.000Z</time>
      </trkpt>
      <trkpt lat="42.74923" lon="1.61298">
        <ele>1888</ele>
        <time>2020-01-05T11:48:00.000Z</time>
      </trkpt>
      <trkpt lat="42.74923" lon="1.61298">
        <ele>1888</ele>
        <time>2020-01-05T11:48:02.000Z</time>
      </trkpt>
      <trkpt lat="42.74922" lon="1.61298">
        <ele>1888</ele>
        <time>2020-01-05T11:48:04.000Z</time>
      </trkpt>
      <trkpt lat="42.74922" lon="1.61298">
        <ele>1888</ele>
        <time>2020-01-05T11:48:06.000Z</time>
      </trkpt>
      <trkpt lat="42.74922" lon="1.61298">
        <ele>1888</ele>
        <time>2020-01-05T11:48:08.000Z</time>
      </trkpt>
      <trkpt lat="42.74922" lon="1.61298">
        <ele>1888</ele>
        <time>2020-01-05T11:48:10.000Z</time>
      </trkpt>
      <trkpt lat="42.74922" lon="1.61298">
        <ele>1888</ele>
        <time>2020-01-05T11:48:12.000Z</time>
      </trkpt>
      <trkpt lat="42.74922" lon="1.61298">
        <ele>1888</ele>
        <time>2020-01-05T11:48:14.000Z</time>
      </trkpt>
      <trkpt lat="42.74922" lon="1.61298">
        <ele>1888</ele>
        <time>2020-01-05T11:48:16.000Z</time>
      </trkpt>
      <trkpt lat="42.74922" lon="1.61298">
        <ele>1888</ele>
        <time>2020-01-05T11:48:18.000Z</time>
      </trkpt>
      <trkpt lat="42.74922" lon="1.61297">
        <ele>1888</ele>
        <time>2020-01-05T11:48:20.000Z</time>
      </trkpt>
      <trkpt lat="42.74922" lon="1.61298">
        <ele>1888</ele>
        <time>2020-01-05T11:48:22.000Z</time>
      </trkpt>
      <trkpt lat="42.74922" lon="1.61298">
        <ele>1888</ele>
        <time>2020-01-05T11:48:24.000Z</time>
      </trkpt>
      <trkpt lat="42.74922" lon="1.61298">
        <ele>1888</ele>
        <time>2020-01-05T11:48:26.000Z</time>
      </trkpt>
      <trkpt lat="42.74922" lon="1.61298">
        <ele>1888</ele>
        <time>2020-01-05T11:48:28.000Z</time>
      </trkpt>
      <trkpt lat="42.74922" lon="1.61298">
        <ele>1888</ele>
        <time>2020-01-05T11:48:30.000Z</time>
      </trkpt>
      <trkpt lat="42.74922" lon="1.61298">
        <ele>1888</ele>
        <time>2020-01-05T11:48:32.000Z</time>
      </trkpt>
      <trkpt lat="42.74922" lon="1.61298">
        <ele>1888</ele>
        <time>2020-01-05T11:48:34.000Z</time>
      </trkpt>
      <trkpt lat="42.74922" lon="1.61298">
        <ele>1888</ele>
        <time>2020-01-05T11:48:36.000Z</time>
      </trkpt>
      <trkpt lat="42.74922" lon="1.61298">
        <ele>1888</ele>
        <time>2020-01-05T11:48:38.000Z</time>
      </trkpt>
      <trkpt lat="42.74922" lon="1.61298">
        <ele>1888</ele>
        <time>2020-01-05T11:48:40.000Z</time>
      </trkpt>
      <trkpt lat="42.74922" lon="1.61298">
        <ele>1888</ele>
        <time>2020-01-05T11:48:42.000Z</time>
      </trkpt>
      <trkpt lat="42.74922" lon="1.61298">
        <ele>1888</ele>
        <time>2020-01-05T11:48:44.000Z</time>
      </trkpt>
      <trkpt lat="42.74922" lon="1.61298">
        <ele>1888</ele>
        <time>2020-01-05T11:48:46.000Z</time>
      </trkpt>
      <trkpt lat="42.74922" lon="1.61298">
        <ele>1888</ele>
        <time>2020-01-05T11:48:48.000Z</time>
      </trkpt>
      <trkpt lat="42.74922" lon="1.61298">
        <ele>1888</ele>
        <time>2020-01-05T11:48:50.000Z</time>
      </trkpt>
      <trkpt lat="42.74922" lon="1.61298">
        <ele>1888</ele>
        <time>2020-01-05T11:48:52.000Z</time>
      </trkpt>
      <trkpt lat="42.74922" lon="1.61298">
        <ele>1888</ele>
        <time>2020-01-05T11:48:54.000Z</time>
      </trkpt>
      <trkpt lat="42.74922" lon="1.61298">
        <ele>1888</ele>
        <time>2020-01-05T11:48:56.000Z</time>
      </trkpt>
      <trkpt lat="42.74922" lon="1.61298">
        <ele>1888</ele>
        <time>2020-01-05T11:48:58.000Z</time>
      </trkpt>
      <trkpt lat="42.74922" lon="1.61298">
        <ele>1888</ele>
        <time>2020-01-05T11:49:00.000Z</time>
      </trkpt>
      <trkpt lat="42.74922" lon="1.61297">
        <ele>1888</ele>
        <time>2020-01-05T11:49:02.000Z</time>
      </trkpt>
      <trkpt lat="42.74922" lon="1.61297">
        <ele>1888</ele>
        <time>2020-01-05T11:49:04.000Z</time>
      </trkpt>
      <trkpt lat="42.74922" lon="1.61297">
        <ele>1888</ele>
        <time>2020-01-05T11:49:06.000Z</time>
      </trkpt>
      <trkpt lat="42.74922" lon="1.61297">
        <ele>1888</ele>
        <time>2020-01-05T11:49:08.000Z</time>
      </trkpt>
      <trkpt lat="42.74922" lon="1.61296">
        <ele>1888</ele>
        <time>2020-01-05T11:49:10.000Z</time>
      </trkpt>
      <trkpt lat="42.74922" lon="1.61296">
        <ele>1888</ele>
        <time>2020-01-05T11:49:12.000Z</time>
      </trkpt>
      <trkpt lat="42.74922" lon="1.61296">
        <ele>1888</ele>
        <time>2020-01-05T11:49:14.000Z</time>
      </trkpt>
      <trkpt lat="42.74922" lon="1.61296">
        <ele>1888</ele>
        <time>2020-01-05T11:49:16.000Z</time>
      </trkpt>
      <trkpt lat="42.74922" lon="1.61296">
        <ele>1888</ele>
        <time>2020-01-05T11:49:18.000Z</time>
      </trkpt>
      <trkpt lat="42.74922" lon="1.61296">
        <ele>1888</ele>
        <time>2020-01-05T11:49:20.000Z</time>
      </trkpt>
      <trkpt lat="42.74922" lon="1.61296">
        <ele>1888</ele>
        <time>2020-01-05T11:49:22.000Z</time>
      </trkpt>
      <trkpt lat="42.74922" lon="1.61296">
        <ele>1888</ele>
        <time>2020-01-05T11:49:24.000Z</time>
      </trkpt>
      <trkpt lat="42.74922" lon="1.61296">
        <ele>1888</ele>
        <time>2020-01-05T11:49:26.000Z</time>
      </trkpt>
      <trkpt lat="42.74921" lon="1.61296">
        <ele>1888</ele>
        <time>2020-01-05T11:49:28.000Z</time>
      </trkpt>
      <trkpt lat="42.74921" lon="1.61296">
        <ele>1888</ele>
        <time>2020-01-05T11:49:30.000Z</time>
      </trkpt>
      <trkpt lat="42.74921" lon="1.61296">
        <ele>1888</ele>
        <time>2020-01-05T11:49:32.000Z</time>
      </trkpt>
      <trkpt lat="42.74921" lon="1.61296">
        <ele>1888</ele>
        <time>2020-01-05T11:49:34.000Z</time>
      </trkpt>
      <trkpt lat="42.74921" lon="1.61297">
        <ele>1888</ele>
        <time>2020-01-05T11:49:36.000Z</time>
      </trkpt>
      <trkpt lat="42.74921" lon="1.61297">
        <ele>1888</ele>
        <time>2020-01-05T11:49:38.000Z</time>
      </trkpt>
      <trkpt lat="42.74921" lon="1.61297">
        <ele>1888</ele>
        <time>2020-01-05T11:49:40.000Z</time>
      </trkpt>
      <trkpt lat="42.74921" lon="1.61296">
        <ele>1888</ele>
        <time>2020-01-05T11:49:42.000Z</time>
      </trkpt>
      <trkpt lat="42.74921" lon="1.61296">
        <ele>1888</ele>
        <time>2020-01-05T11:49:44.000Z</time>
      </trkpt>
      <trkpt lat="42.74921" lon="1.61296">
        <ele>1888</ele>
        <time>2020-01-05T11:49:46.000Z</time>
      </trkpt>
      <trkpt lat="42.74921" lon="1.61296">
        <ele>1888</ele>
        <time>2020-01-05T11:49:48.000Z</time>
      </trkpt>
      <trkpt lat="42.74921" lon="1.61296">
        <ele>1888</ele>
        <time>2020-01-05T11:49:50.000Z</time>
      </trkpt>
      <trkpt lat="42.74921" lon="1.61296">
        <ele>1888</ele>
        <time>2020-01-05T11:49:52.000Z</time>
      </trkpt>
      <trkpt lat="42.74921" lon="1.61296">
        <ele>1888</ele>
        <time>2020-01-05T11:49:54.000Z</time>
      </trkpt>
      <trkpt lat="42.74921" lon="1.61296">
        <ele>1888</ele>
        <time>2020-01-05T11:49:56.000Z</time>
      </trkpt>
      <trkpt lat="42.74921" lon="1.61296">
        <ele>1888</ele>
        <time>2020-01-05T11:49:58.000Z</time>
      </trkpt>
      <trkpt lat="42.74921" lon="1.61296">
        <ele>1888</ele>
        <time>2020-01-05T11:50:00.000Z</time>
      </trkpt>
      <trkpt lat="42.74921" lon="1.61296">
        <ele>1888</ele>
        <time>2020-01-05T11:50:02.000Z</time>
      </trkpt>
      <trkpt lat="42.74921" lon="1.61296">
        <ele>1888</ele>
        <time>2020-01-05T11:50:04.000Z</time>
      </trkpt>
      <trkpt lat="42.74922" lon="1.61297">
        <ele>1888</ele>
        <time>2020-01-05T11:50:06.000Z</time>
      </trkpt>
      <trkpt lat="42.74922" lon="1.61297">
        <ele>1888</ele>
        <time>2020-01-05T11:50:08.000Z</time>
      </trkpt>
      <trkpt lat="42.74921" lon="1.61297">
        <ele>1888</ele>
        <time>2020-01-05T11:50:10.000Z</time>
      </trkpt>
      <trkpt lat="42.74922" lon="1.61298">
        <ele>1888</ele>
        <time>2020-01-05T11:50:12.000Z</time>
      </trkpt>
      <trkpt lat="42.74922" lon="1.61297">
        <ele>1888</ele>
        <time>2020-01-05T11:50:14.000Z</time>
      </trkpt>
      <trkpt lat="42.74922" lon="1.61298">
        <ele>1888</ele>
        <time>2020-01-05T11:50:16.000Z</time>
      </trkpt>
      <trkpt lat="42.74922" lon="1.61298">
        <ele>1888</ele>
        <time>2020-01-05T11:50:18.000Z</time>
      </trkpt>
      <trkpt lat="42.74922" lon="1.61297">
        <ele>1888</ele>
        <time>2020-01-05T11:50:20.000Z</time>
      </trkpt>
      <trkpt lat="42.74921" lon="1.61298">
        <ele>1888</ele>
        <time>2020-01-05T11:50:22.000Z</time>
      </trkpt>
      <trkpt lat="42.74921" lon="1.61298">
        <ele>1888</ele>
        <time>2020-01-05T11:50:24.000Z</time>
      </trkpt>
      <trkpt lat="42.74921" lon="1.61298">
        <ele>1888</ele>
        <time>2020-01-05T11:50:26.000Z</time>
      </trkpt>
      <trkpt lat="42.74921" lon="1.61298">
        <ele>1888</ele>
        <time>2020-01-05T11:50:28.000Z</time>
      </trkpt>
      <trkpt lat="42.74921" lon="1.61298">
        <ele>1888</ele>
        <time>2020-01-05T11:50:30.000Z</time>
      </trkpt>
      <trkpt lat="42.74921" lon="1.61297">
        <ele>1888</ele>
        <time>2020-01-05T11:50:32.000Z</time>
      </trkpt>
      <trkpt lat="42.74921" lon="1.61297">
        <ele>1888</ele>
        <time>2020-01-05T11:50:34.000Z</time>
      </trkpt>
      <trkpt lat="42.74921" lon="1.61297">
        <ele>1888</ele>
        <time>2020-01-05T11:50:36.000Z</time>
      </trkpt>
      <trkpt lat="42.74921" lon="1.61298">
        <ele>1888</ele>
        <time>2020-01-05T11:50:38.000Z</time>
      </trkpt>
      <trkpt lat="42.74921" lon="1.61297">
        <ele>1888</ele>
        <time>2020-01-05T11:50:40.000Z</time>
      </trkpt>
      <trkpt lat="42.74921" lon="1.61297">
        <ele>1888</ele>
        <time>2020-01-05T11:50:42.000Z</time>
      </trkpt>
      <trkpt lat="42.74921" lon="1.61297">
        <ele>1888</ele>
        <time>2020-01-05T11:50:44.000Z</time>
      </trkpt>
      <trkpt lat="42.74921" lon="1.61297">
        <ele>1888</ele>
        <time>2020-01-05T11:50:46.000Z</time>
      </trkpt>
      <trkpt lat="42.74921" lon="1.61297">
        <ele>1888</ele>
        <time>2020-01-05T11:50:48.000Z</time>
      </trkpt>
      <trkpt lat="42.74921" lon="1.61297">
        <ele>1888</ele>
        <time>2020-01-05T11:50:50.000Z</time>
      </trkpt>
      <trkpt lat="42.74921" lon="1.61297">
        <ele>1888</ele>
        <time>2020-01-05T11:50:52.000Z</time>
      </trkpt>
      <trkpt lat="42.74921" lon="1.61297">
        <ele>1888</ele>
        <time>2020-01-05T11:50:54.000Z</time>
      </trkpt>
      <trkpt lat="42.74921" lon="1.61297">
        <ele>1888</ele>
        <time>2020-01-05T11:50:56.000Z</time>
      </trkpt>
      <trkpt lat="42.74921" lon="1.61297">
        <ele>1888</ele>
        <time>2020-01-05T11:50:58.000Z</time>
      </trkpt>
      <trkpt lat="42.74921" lon="1.61297">
        <ele>1888</ele>
        <time>2020-01-05T11:51:00.000Z</time>
      </trkpt>
      <trkpt lat="42.74921" lon="1.61298">
        <ele>1888</ele>
        <time>2020-01-05T11:51:02.000Z</time>
      </trkpt>
      <trkpt lat="42.74921" lon="1.61298">
        <ele>1888</ele>
        <time>2020-01-05T11:51:04.000Z</time>
      </trkpt>
      <trkpt lat="42.7492" lon="1.61298">
        <ele>1888</ele>
        <time>2020-01-05T11:51:06.000Z</time>
      </trkpt>
      <trkpt lat="42.7492" lon="1.61298">
        <ele>1888</ele>
        <time>2020-01-05T11:51:08.000Z</time>
      </trkpt>
      <trkpt lat="42.7492" lon="1.61298">
        <ele>1888</ele>
        <time>2020-01-05T11:51:10.000Z</time>
      </trkpt>
      <trkpt lat="42.7492" lon="1.61298">
        <ele>1888</ele>
        <time>2020-01-05T11:51:12.000Z</time>
      </trkpt>
      <trkpt lat="42.7492" lon="1.61298">
        <ele>1888</ele>
        <time>2020-01-05T11:51:14.000Z</time>
      </trkpt>
      <trkpt lat="42.7492" lon="1.61298">
        <ele>1888</ele>
        <time>2020-01-05T11:51:16.000Z</time>
      </trkpt>
      <trkpt lat="42.7492" lon="1.61298">
        <ele>1888</ele>
        <time>2020-01-05T11:51:18.000Z</time>
      </trkpt>
      <trkpt lat="42.7492" lon="1.61298">
        <ele>1888</ele>
        <time>2020-01-05T11:51:20.000Z</time>
      </trkpt>
      <trkpt lat="42.7492" lon="1.61298">
        <ele>1888</ele>
        <time>2020-01-05T11:51:22.000Z</time>
      </trkpt>
      <trkpt lat="42.7492" lon="1.61297">
        <ele>1888</ele>
        <time>2020-01-05T11:51:24.000Z</time>
      </trkpt>
      <trkpt lat="42.7492" lon="1.61297">
        <ele>1888</ele>
        <time>2020-01-05T11:51:26.000Z</time>
      </trkpt>
      <trkpt lat="42.7492" lon="1.61297">
        <ele>1888</ele>
        <time>2020-01-05T11:51:28.000Z</time>
      </trkpt>
      <trkpt lat="42.7492" lon="1.61297">
        <ele>1888</ele>
        <time>2020-01-05T11:51:30.000Z</time>
      </trkpt>
      <trkpt lat="42.7492" lon="1.61297">
        <ele>1888</ele>
        <time>2020-01-05T11:51:32.000Z</time>
      </trkpt>
      <trkpt lat="42.7492" lon="1.61297">
        <ele>1888</ele>
        <time>2020-01-05T11:51:34.000Z</time>
      </trkpt>
      <trkpt lat="42.7492" lon="1.61297">
        <ele>1888</ele>
        <time>2020-01-05T11:51:36.000Z</time>
      </trkpt>
      <trkpt lat="42.7492" lon="1.61297">
        <ele>1888</ele>
        <time>2020-01-05T11:51:38.000Z</time>
      </trkpt>
      <trkpt lat="42.7492" lon="1.61297">
        <ele>1888</ele>
        <time>2020-01-05T11:51:40.000Z</time>
      </trkpt>
      <trkpt lat="42.74921" lon="1.61298">
        <ele>1888</ele>
        <time>2020-01-05T11:51:42.000Z</time>
      </trkpt>
      <trkpt lat="42.74921" lon="1.61298">
        <ele>1888</ele>
        <time>2020-01-05T11:51:44.000Z</time>
      </trkpt>
      <trkpt lat="42.74921" lon="1.61298">
        <ele>1888</ele>
        <time>2020-01-05T11:51:46.000Z</time>
      </trkpt>
      <trkpt lat="42.74921" lon="1.61298">
        <ele>1888</ele>
        <time>2020-01-05T11:51:48.000Z</time>
      </trkpt>
      <trkpt lat="42.74921" lon="1.61298">
        <ele>1888</ele>
        <time>2020-01-05T11:51:50.000Z</time>
      </trkpt>
      <trkpt lat="42.74921" lon="1.61298">
        <ele>1888</ele>
        <time>2020-01-05T11:51:52.000Z</time>
      </trkpt>
      <trkpt lat="42.74921" lon="1.61299">
        <ele>1888</ele>
        <time>2020-01-05T11:51:54.000Z</time>
      </trkpt>
      <trkpt lat="42.74921" lon="1.61299">
        <ele>1888</ele>
        <time>2020-01-05T11:51:56.000Z</time>
      </trkpt>
      <trkpt lat="42.74921" lon="1.61298">
        <ele>1888</ele>
        <time>2020-01-05T11:51:58.000Z</time>
      </trkpt>
      <trkpt lat="42.74921" lon="1.61298">
        <ele>1888</ele>
        <time>2020-01-05T11:52:00.000Z</time>
      </trkpt>
      <trkpt lat="42.74921" lon="1.61298">
        <ele>1888</ele>
        <time>2020-01-05T11:52:02.000Z</time>
      </trkpt>
      <trkpt lat="42.74921" lon="1.61298">
        <ele>1888</ele>
        <time>2020-01-05T11:52:04.000Z</time>
      </trkpt>
      <trkpt lat="42.74921" lon="1.61298">
        <ele>1888</ele>
        <time>2020-01-05T11:52:06.000Z</time>
      </trkpt>
      <trkpt lat="42.74921" lon="1.61298">
        <ele>1888</ele>
        <time>2020-01-05T11:52:08.000Z</time>
      </trkpt>
      <trkpt lat="42.74921" lon="1.61298">
        <ele>1888</ele>
        <time>2020-01-05T11:52:10.000Z</time>
      </trkpt>
      <trkpt lat="42.74921" lon="1.61298">
        <ele>1888</ele>
        <time>2020-01-05T11:52:12.000Z</time>
      </trkpt>
      <trkpt lat="42.74921" lon="1.61298">
        <ele>1888</ele>
        <time>2020-01-05T11:52:14.000Z</time>
      </trkpt>
      <trkpt lat="42.74921" lon="1.61297">
        <ele>1888</ele>
        <time>2020-01-05T11:52:16.000Z</time>
      </trkpt>
      <trkpt lat="42.74921" lon="1.61297">
        <ele>1888</ele>
        <time>2020-01-05T11:52:18.000Z</time>
      </trkpt>
      <trkpt lat="42.74921" lon="1.61297">
        <ele>1888</ele>
        <time>2020-01-05T11:52:20.000Z</time>
      </trkpt>
      <trkpt lat="42.74921" lon="1.61297">
        <ele>1888</ele>
        <time>2020-01-05T11:52:22.000Z</time>
      </trkpt>
      <trkpt lat="42.74921" lon="1.61297">
        <ele>1888</ele>
        <time>2020-01-05T11:52:24.000Z</time>
      </trkpt>
      <trkpt lat="42.74921" lon="1.61297">
        <ele>1888</ele>
        <time>2020-01-05T11:52:26.000Z</time>
      </trkpt>
      <trkpt lat="42.74921" lon="1.61297">
        <ele>1888</ele>
        <time>2020-01-05T11:52:28.000Z</time>
      </trkpt>
      <trkpt lat="42.74921" lon="1.61297">
        <ele>1888</ele>
        <time>2020-01-05T11:52:30.000Z</time>
      </trkpt>
      <trkpt lat="42.74921" lon="1.61297">
        <ele>1888</ele>
        <time>2020-01-05T11:52:32.000Z</time>
      </trkpt>
      <trkpt lat="42.74921" lon="1.61297">
        <ele>1888</ele>
        <time>2020-01-05T11:52:34.000Z</time>
      </trkpt>
      <trkpt lat="42.74921" lon="1.61297">
        <ele>1888</ele>
        <time>2020-01-05T11:52:36.000Z</time>
      </trkpt>
      <trkpt lat="42.74921" lon="1.61297">
        <ele>1888</ele>
        <time>2020-01-05T11:52:38.000Z</time>
      </trkpt>
      <trkpt lat="42.74922" lon="1.61297">
        <ele>1888</ele>
        <time>2020-01-05T11:52:40.000Z</time>
      </trkpt>
      <trkpt lat="42.74922" lon="1.61297">
        <ele>1888</ele>
        <time>2020-01-05T11:52:42.000Z</time>
      </trkpt>
      <trkpt lat="42.74922" lon="1.61297">
        <ele>1888</ele>
        <time>2020-01-05T11:52:44.000Z</time>
      </trkpt>
      <trkpt lat="42.74922" lon="1.61297">
        <ele>1888</ele>
        <time>2020-01-05T11:52:46.000Z</time>
      </trkpt>
      <trkpt lat="42.74922" lon="1.61297">
        <ele>1888</ele>
        <time>2020-01-05T11:52:48.000Z</time>
      </trkpt>
      <trkpt lat="42.74923" lon="1.61297">
        <ele>1888</ele>
        <time>2020-01-05T11:52:50.000Z</time>
      </trkpt>
      <trkpt lat="42.74923" lon="1.61297">
        <ele>1888</ele>
        <time>2020-01-05T11:52:52.000Z</time>
      </trkpt>
      <trkpt lat="42.74923" lon="1.61297">
        <ele>1888</ele>
        <time>2020-01-05T11:52:54.000Z</time>
      </trkpt>
      <trkpt lat="42.74923" lon="1.61297">
        <ele>1888</ele>
        <time>2020-01-05T11:52:56.000Z</time>
      </trkpt>
      <trkpt lat="42.74923" lon="1.61297">
        <ele>1888</ele>
        <time>2020-01-05T11:52:58.000Z</time>
      </trkpt>
      <trkpt lat="42.74923" lon="1.61297">
        <ele>1888</ele>
        <time>2020-01-05T11:53:00.000Z</time>
      </trkpt>
      <trkpt lat="42.74923" lon="1.61297">
        <ele>1888</ele>
        <time>2020-01-05T11:53:02.000Z</time>
      </trkpt>
      <trkpt lat="42.74923" lon="1.61297">
        <ele>1888</ele>
        <time>2020-01-05T11:53:04.000Z</time>
      </trkpt>
      <trkpt lat="42.74923" lon="1.61297">
        <ele>1888</ele>
        <time>2020-01-05T11:53:06.000Z</time>
      </trkpt>
      <trkpt lat="42.74923" lon="1.61297">
        <ele>1888</ele>
        <time>2020-01-05T11:53:08.000Z</time>
      </trkpt>
      <trkpt lat="42.74923" lon="1.61297">
        <ele>1888</ele>
        <time>2020-01-05T11:53:10.000Z</time>
      </trkpt>
      <trkpt lat="42.74923" lon="1.61297">
        <ele>1888</ele>
        <time>2020-01-05T11:53:12.000Z</time>
      </trkpt>
      <trkpt lat="42.74922" lon="1.61297">
        <ele>1888</ele>
        <time>2020-01-05T11:53:14.000Z</time>
      </trkpt>
      <trkpt lat="42.74922" lon="1.61297">
        <ele>1888</ele>
        <time>2020-01-05T11:53:16.000Z</time>
      </trkpt>
      <trkpt lat="42.74922" lon="1.61297">
        <ele>1888</ele>
        <time>2020-01-05T11:53:18.000Z</time>
      </trkpt>
      <trkpt lat="42.74922" lon="1.61297">
        <ele>1888</ele>
        <time>2020-01-05T11:53:20.000Z</time>
      </trkpt>
      <trkpt lat="42.74922" lon="1.61298">
        <ele>1888</ele>
        <time>2020-01-05T11:53:22.000Z</time>
      </trkpt>
      <trkpt lat="42.74922" lon="1.61298">
        <ele>1888</ele>
        <time>2020-01-05T11:53:24.000Z</time>
      </trkpt>
      <trkpt lat="42.74922" lon="1.61298">
        <ele>1888</ele>
        <time>2020-01-05T11:53:26.000Z</time>
      </trkpt>
      <trkpt lat="42.74922" lon="1.61298">
        <ele>1888</ele>
        <time>2020-01-05T11:53:28.000Z</time>
      </trkpt>
      <trkpt lat="42.74922" lon="1.61298">
        <ele>1888</ele>
        <time>2020-01-05T11:53:30.000Z</time>
      </trkpt>
      <trkpt lat="42.74922" lon="1.61298">
        <ele>1888</ele>
        <time>2020-01-05T11:53:32.000Z</time>
      </trkpt>
      <trkpt lat="42.74922" lon="1.61298">
        <ele>1888</ele>
        <time>2020-01-05T11:53:34.000Z</time>
      </trkpt>
      <trkpt lat="42.74922" lon="1.61298">
        <ele>1888</ele>
        <time>2020-01-05T11:53:36.000Z</time>
      </trkpt>
      <trkpt lat="42.74922" lon="1.61298">
        <ele>1888</ele>
        <time>2020-01-05T11:53:38.000Z</time>
      </trkpt>
      <trkpt lat="42.74922" lon="1.61298">
        <ele>1888</ele>
        <time>2020-01-05T11:53:40.000Z</time>
      </trkpt>
      <trkpt lat="42.74922" lon="1.61298">
        <ele>1888</ele>
        <time>2020-01-05T11:53:42.000Z</time>
      </trkpt>
      <trkpt lat="42.74922" lon="1.61298">
        <ele>1888</ele>
        <time>2020-01-05T11:53:44.000Z</time>
      </trkpt>
      <trkpt lat="42.74922" lon="1.61298">
        <ele>1888</ele>
        <time>2020-01-05T11:53:46.000Z</time>
      </trkpt>
      <trkpt lat="42.74922" lon="1.61298">
        <ele>1888</ele>
        <time>2020-01-05T11:53:48.000Z</time>
      </trkpt>
      <trkpt lat="42.74922" lon="1.61298">
        <ele>1888</ele>
        <time>2020-01-05T11:53:50.000Z</time>
      </trkpt>
      <trkpt lat="42.74922" lon="1.61298">
        <ele>1888</ele>
        <time>2020-01-05T11:53:52.000Z</time>
      </trkpt>
      <trkpt lat="42.74922" lon="1.61298">
        <ele>1888</ele>
        <time>2020-01-05T11:53:54.000Z</time>
      </trkpt>
      <trkpt lat="42.74922" lon="1.61298">
        <ele>1888</ele>
        <time>2020-01-05T11:53:56.000Z</time>
      </trkpt>
      <trkpt lat="42.74922" lon="1.61298">
        <ele>1888</ele>
        <time>2020-01-05T11:53:58.000Z</time>
      </trkpt>
      <trkpt lat="42.74922" lon="1.61298">
        <ele>1888</ele>
        <time>2020-01-05T11:54:00.000Z</time>
      </trkpt>
      <trkpt lat="42.74922" lon="1.61298">
        <ele>1888</ele>
        <time>2020-01-05T11:54:02.000Z</time>
      </trkpt>
      <trkpt lat="42.74922" lon="1.61298">
        <ele>1888</ele>
        <time>2020-01-05T11:54:04.000Z</time>
      </trkpt>
      <trkpt lat="42.74922" lon="1.61298">
        <ele>1888</ele>
        <time>2020-01-05T11:54:06.000Z</time>
      </trkpt>
      <trkpt lat="42.74922" lon="1.61298">
        <ele>1888</ele>
        <time>2020-01-05T11:54:08.000Z</time>
      </trkpt>
      <trkpt lat="42.74922" lon="1.61298">
        <ele>1888</ele>
        <time>2020-01-05T11:54:10.000Z</time>
      </trkpt>
      <trkpt lat="42.74922" lon="1.61298">
        <ele>1888</ele>
        <time>2020-01-05T11:54:12.000Z</time>
      </trkpt>
      <trkpt lat="42.74922" lon="1.61298">
        <ele>1888</ele>
        <time>2020-01-05T11:54:14.000Z</time>
      </trkpt>
      <trkpt lat="42.74922" lon="1.61298">
        <ele>1888</ele>
        <time>2020-01-05T11:54:16.000Z</time>
      </trkpt>
      <trkpt lat="42.74922" lon="1.61298">
        <ele>1888</ele>
        <time>2020-01-05T11:54:18.000Z</time>
      </trkpt>
      <trkpt lat="42.74922" lon="1.61298">
        <ele>1888</ele>
        <time>2020-01-05T11:54:20.000Z</time>
      </trkpt>
      <trkpt lat="42.74922" lon="1.61298">
        <ele>1888</ele>
        <time>2020-01-05T11:54:22.000Z</time>
      </trkpt>
      <trkpt lat="42.74922" lon="1.61298">
        <ele>1888</ele>
        <time>2020-01-05T11:54:24.000Z</time>
      </trkpt>
      <trkpt lat="42.74922" lon="1.61298">
        <ele>1888</ele>
        <time>2020-01-05T11:54:26.000Z</time>
      </trkpt>
      <trkpt lat="42.74922" lon="1.61298">
        <ele>1888</ele>
        <time>2020-01-05T11:54:28.000Z</time>
      </trkpt>
      <trkpt lat="42.74922" lon="1.61298">
        <ele>1888</ele>
        <time>2020-01-05T11:54:30.000Z</time>
      </trkpt>
      <trkpt lat="42.74922" lon="1.61298">
        <ele>1888</ele>
        <time>2020-01-05T11:54:32.000Z</time>
      </trkpt>
      <trkpt lat="42.74922" lon="1.61298">
        <ele>1888</ele>
        <time>2020-01-05T11:54:34.000Z</time>
      </trkpt>
      <trkpt lat="42.74922" lon="1.61298">
        <ele>1888</ele>
        <time>2020-01-05T11:54:36.000Z</time>
      </trkpt>
      <trkpt lat="42.74922" lon="1.61298">
        <ele>1888</ele>
        <time>2020-01-05T11:54:38.000Z</time>
      </trkpt>
      <trkpt lat="42.74922" lon="1.61298">
        <ele>1888</ele>
        <time>2020-01-05T11:54:40.000Z</time>
      </trkpt>
      <trkpt lat="42.74922" lon="1.61298">
        <ele>1888</ele>
        <time>2020-01-05T11:54:42.000Z</time>
      </trkpt>
      <trkpt lat="42.74922" lon="1.61298">
        <ele>1888</ele>
        <time>2020-01-05T11:54:44.000Z</time>
      </trkpt>
      <trkpt lat="42.74921" lon="1.61298">
        <ele>1888</ele>
        <time>2020-01-05T11:54:46.000Z</time>
      </trkpt>
      <trkpt lat="42.74921" lon="1.61297">
        <ele>1888</ele>
        <time>2020-01-05T11:54:48.000Z</time>
      </trkpt>
      <trkpt lat="42.74921" lon="1.61297">
        <ele>1888</ele>
        <time>2020-01-05T11:54:50.000Z</time>
      </trkpt>
      <trkpt lat="42.74921" lon="1.61297">
        <ele>1888</ele>
        <time>2020-01-05T11:54:52.000Z</time>
      </trkpt>
      <trkpt lat="42.74921" lon="1.61297">
        <ele>1888</ele>
        <time>2020-01-05T11:54:54.000Z</time>
      </trkpt>
      <trkpt lat="42.74921" lon="1.61297">
        <ele>1888</ele>
        <time>2020-01-05T11:54:56.000Z</time>
      </trkpt>
      <trkpt lat="42.74921" lon="1.61297">
        <ele>1888</ele>
        <time>2020-01-05T11:54:58.000Z</time>
      </trkpt>
      <trkpt lat="42.74921" lon="1.61297">
        <ele>1888</ele>
        <time>2020-01-05T11:55:00.000Z</time>
      </trkpt>
      <trkpt lat="42.74921" lon="1.61297">
        <ele>1888</ele>
        <time>2020-01-05T11:55:02.000Z</time>
      </trkpt>
      <trkpt lat="42.74921" lon="1.61297">
        <ele>1888</ele>
        <time>2020-01-05T11:55:04.000Z</time>
      </trkpt>
      <trkpt lat="42.74921" lon="1.61297">
        <ele>1888</ele>
        <time>2020-01-05T11:55:06.000Z</time>
      </trkpt>
      <trkpt lat="42.74921" lon="1.61297">
        <ele>1888</ele>
        <time>2020-01-05T11:55:08.000Z</time>
      </trkpt>
      <trkpt lat="42.74921" lon="1.61297">
        <ele>1888</ele>
        <time>2020-01-05T11:55:10.000Z</time>
      </trkpt>
      <trkpt lat="42.74921" lon="1.61297">
        <ele>1888</ele>
        <time>2020-01-05T11:55:12.000Z</time>
      </trkpt>
      <trkpt lat="42.74921" lon="1.61297">
        <ele>1888</ele>
        <time>2020-01-05T11:55:14.000Z</time>
      </trkpt>
      <trkpt lat="42.74921" lon="1.61297">
        <ele>1888</ele>
        <time>2020-01-05T11:55:16.000Z</time>
      </trkpt>
      <trkpt lat="42.74921" lon="1.61297">
        <ele>1888</ele>
        <time>2020-01-05T11:55:18.000Z</time>
      </trkpt>
      <trkpt lat="42.74921" lon="1.61297">
        <ele>1888</ele>
        <time>2020-01-05T11:55:20.000Z</time>
      </trkpt>
      <trkpt lat="42.74921" lon="1.61297">
        <ele>1888</ele>
        <time>2020-01-05T11:55:22.000Z</time>
      </trkpt>
      <trkpt lat="42.74921" lon="1.61297">
        <ele>1888</ele>
        <time>2020-01-05T11:55:24.000Z</time>
      </trkpt>
      <trkpt lat="42.74921" lon="1.61296">
        <ele>1888</ele>
        <time>2020-01-05T11:55:26.000Z</time>
      </trkpt>
      <trkpt lat="42.74921" lon="1.61296">
        <ele>1888</ele>
        <time>2020-01-05T11:55:28.000Z</time>
      </trkpt>
      <trkpt lat="42.74921" lon="1.61296">
        <ele>1888</ele>
        <time>2020-01-05T11:55:30.000Z</time>
      </trkpt>
      <trkpt lat="42.74921" lon="1.61297">
        <ele>1888</ele>
        <time>2020-01-05T11:55:32.000Z</time>
      </trkpt>
      <trkpt lat="42.74921" lon="1.61297">
        <ele>1888</ele>
        <time>2020-01-05T11:55:34.000Z</time>
      </trkpt>
      <trkpt lat="42.74921" lon="1.61297">
        <ele>1888</ele>
        <time>2020-01-05T11:55:36.000Z</time>
      </trkpt>
      <trkpt lat="42.74921" lon="1.61297">
        <ele>1888</ele>
        <time>2020-01-05T11:55:38.000Z</time>
      </trkpt>
      <trkpt lat="42.74921" lon="1.61297">
        <ele>1888</ele>
        <time>2020-01-05T11:55:40.000Z</time>
      </trkpt>
      <trkpt lat="42.74921" lon="1.61297">
        <ele>1888</ele>
        <time>2020-01-05T11:55:42.000Z</time>
      </trkpt>
      <trkpt lat="42.74921" lon="1.61297">
        <ele>1888</ele>
        <time>2020-01-05T11:55:44.000Z</time>
      </trkpt>
      <trkpt lat="42.74921" lon="1.61297">
        <ele>1888</ele>
        <time>2020-01-05T11:55:46.000Z</time>
      </trkpt>
      <trkpt lat="42.74921" lon="1.61297">
        <ele>1888</ele>
        <time>2020-01-05T11:55:48.000Z</time>
      </trkpt>
      <trkpt lat="42.74921" lon="1.61297">
        <ele>1888</ele>
        <time>2020-01-05T11:55:50.000Z</time>
      </trkpt>
      <trkpt lat="42.74921" lon="1.61297">
        <ele>1888</ele>
        <time>2020-01-05T11:55:52.000Z</time>
      </trkpt>
      <trkpt lat="42.74921" lon="1.61297">
        <ele>1888</ele>
        <time>2020-01-05T11:55:54.000Z</time>
      </trkpt>
      <trkpt lat="42.74921" lon="1.61297">
        <ele>1888</ele>
        <time>2020-01-05T11:55:56.000Z</time>
      </trkpt>
      <trkpt lat="42.74921" lon="1.61297">
        <ele>1888</ele>
        <time>2020-01-05T11:55:58.000Z</time>
      </trkpt>
      <trkpt lat="42.74921" lon="1.61297">
        <ele>1888</ele>
        <time>2020-01-05T11:56:00.000Z</time>
      </trkpt>
      <trkpt lat="42.74921" lon="1.61297">
        <ele>1888</ele>
        <time>2020-01-05T11:56:02.000Z</time>
      </trkpt>
      <trkpt lat="42.74921" lon="1.61297">
        <ele>1888</ele>
        <time>2020-01-05T11:56:04.000Z</time>
      </trkpt>
      <trkpt lat="42.74921" lon="1.61297">
        <ele>1888</ele>
        <time>2020-01-05T11:56:06.000Z</time>
      </trkpt>
      <trkpt lat="42.74921" lon="1.61297">
        <ele>1888</ele>
        <time>2020-01-05T11:56:08.000Z</time>
      </trkpt>
      <trkpt lat="42.74921" lon="1.61297">
        <ele>1888</ele>
        <time>2020-01-05T11:56:10.000Z</time>
      </trkpt>
      <trkpt lat="42.74921" lon="1.61297">
        <ele>1888</ele>
        <time>2020-01-05T11:56:12.000Z</time>
      </trkpt>
      <trkpt lat="42.74921" lon="1.61297">
        <ele>1888</ele>
        <time>2020-01-05T11:56:14.000Z</time>
      </trkpt>
      <trkpt lat="42.74921" lon="1.61297">
        <ele>1888</ele>
        <time>2020-01-05T11:56:16.000Z</time>
      </trkpt>
      <trkpt lat="42.74921" lon="1.61297">
        <ele>1888</ele>
        <time>2020-01-05T11:56:18.000Z</time>
      </trkpt>
      <trkpt lat="42.74921" lon="1.61297">
        <ele>1888</ele>
        <time>2020-01-05T11:56:20.000Z</time>
      </trkpt>
      <trkpt lat="42.74921" lon="1.61297">
        <ele>1888</ele>
        <time>2020-01-05T11:56:22.000Z</time>
      </trkpt>
      <trkpt lat="42.74921" lon="1.61297">
        <ele>1888</ele>
        <time>2020-01-05T11:56:24.000Z</time>
      </trkpt>
      <trkpt lat="42.74921" lon="1.61297">
        <ele>1888</ele>
        <time>2020-01-05T11:56:26.000Z</time>
      </trkpt>
      <trkpt lat="42.74921" lon="1.61297">
        <ele>1888</ele>
        <time>2020-01-05T11:56:28.000Z</time>
      </trkpt>
      <trkpt lat="42.74921" lon="1.61297">
        <ele>1888</ele>
        <time>2020-01-05T11:56:30.000Z</time>
      </trkpt>
      <trkpt lat="42.74921" lon="1.61297">
        <ele>1888</ele>
        <time>2020-01-05T11:56:32.000Z</time>
      </trkpt>
      <trkpt lat="42.74921" lon="1.61298">
        <ele>1888</ele>
        <time>2020-01-05T11:56:34.000Z</time>
      </trkpt>
      <trkpt lat="42.74921" lon="1.61297">
        <ele>1888</ele>
        <time>2020-01-05T11:56:36.000Z</time>
      </trkpt>
      <trkpt lat="42.74921" lon="1.61297">
        <ele>1888</ele>
        <time>2020-01-05T11:56:38.000Z</time>
      </trkpt>
      <trkpt lat="42.74921" lon="1.61297">
        <ele>1888</ele>
        <time>2020-01-05T11:56:40.000Z</time>
      </trkpt>
      <trkpt lat="42.74921" lon="1.61297">
        <ele>1888</ele>
        <time>2020-01-05T11:56:42.000Z</time>
      </trkpt>
      <trkpt lat="42.74921" lon="1.61297">
        <ele>1888</ele>
        <time>2020-01-05T11:56:44.000Z</time>
      </trkpt>
      <trkpt lat="42.74921" lon="1.61297">
        <ele>1888</ele>
        <time>2020-01-05T11:56:46.000Z</time>
      </trkpt>
      <trkpt lat="42.74921" lon="1.61297">
        <ele>1888</ele>
        <time>2020-01-05T11:56:48.000Z</time>
      </trkpt>
      <trkpt lat="42.74921" lon="1.61297">
        <ele>1888</ele>
        <time>2020-01-05T11:56:50.000Z</time>
      </trkpt>
      <trkpt lat="42.74921" lon="1.61297">
        <ele>1888</ele>
        <time>2020-01-05T11:56:52.000Z</time>
      </trkpt>
      <trkpt lat="42.74921" lon="1.61297">
        <ele>1888</ele>
        <time>2020-01-05T11:56:54.000Z</time>
      </trkpt>
      <trkpt lat="42.74921" lon="1.61297">
        <ele>1888</ele>
        <time>2020-01-05T11:56:56.000Z</time>
      </trkpt>
      <trkpt lat="42.74921" lon="1.61297">
        <ele>1888</ele>
        <time>2020-01-05T11:56:58.000Z</time>
      </trkpt>
      <trkpt lat="42.74921" lon="1.61297">
        <ele>1888</ele>
        <time>2020-01-05T11:57:00.000Z</time>
      </trkpt>
      <trkpt lat="42.74921" lon="1.61297">
        <ele>1888</ele>
        <time>2020-01-05T11:57:02.000Z</time>
      </trkpt>
      <trkpt lat="42.74921" lon="1.61297">
        <ele>1888</ele>
        <time>2020-01-05T11:57:04.000Z</time>
      </trkpt>
      <trkpt lat="42.74921" lon="1.61297">
        <ele>1888</ele>
        <time>2020-01-05T11:57:06.000Z</time>
      </trkpt>
      <trkpt lat="42.74921" lon="1.61297">
        <ele>1888</ele>
        <time>2020-01-05T11:57:08.000Z</time>
      </trkpt>
      <trkpt lat="42.74921" lon="1.61297">
        <ele>1888</ele>
        <time>2020-01-05T11:57:10.000Z</time>
      </trkpt>
      <trkpt lat="42.74921" lon="1.61297">
        <ele>1888</ele>
        <time>2020-01-05T11:57:12.000Z</time>
      </trkpt>
      <trkpt lat="42.74921" lon="1.61297">
        <ele>1888</ele>
        <time>2020-01-05T11:57:14.000Z</time>
      </trkpt>
      <trkpt lat="42.74921" lon="1.61297">
        <ele>1888</ele>
        <time>2020-01-05T11:57:16.000Z</time>
      </trkpt>
      <trkpt lat="42.74922" lon="1.61298">
        <ele>1888</ele>
        <time>2020-01-05T11:57:18.000Z</time>
      </trkpt>
      <trkpt lat="42.74921" lon="1.61298">
        <ele>1888</ele>
        <time>2020-01-05T11:57:20.000Z</time>
      </trkpt>
      <trkpt lat="42.74921" lon="1.61298">
        <ele>1888</ele>
        <time>2020-01-05T11:57:22.000Z</time>
      </trkpt>
      <trkpt lat="42.74921" lon="1.61298">
        <ele>1888</ele>
        <time>2020-01-05T11:57:24.000Z</time>
      </trkpt>
      <trkpt lat="42.74921" lon="1.61298">
        <ele>1888</ele>
        <time>2020-01-05T11:57:26.000Z</time>
      </trkpt>
      <trkpt lat="42.74921" lon="1.61298">
        <ele>1888</ele>
        <time>2020-01-05T11:57:28.000Z</time>
      </trkpt>
      <trkpt lat="42.74921" lon="1.61298">
        <ele>1888</ele>
        <time>2020-01-05T11:57:30.000Z</time>
      </trkpt>
      <trkpt lat="42.74922" lon="1.61298">
        <ele>1888</ele>
        <time>2020-01-05T11:57:32.000Z</time>
      </trkpt>
      <trkpt lat="42.74922" lon="1.61298">
        <ele>1888</ele>
        <time>2020-01-05T11:57:34.000Z</time>
      </trkpt>
      <trkpt lat="42.74921" lon="1.61298">
        <ele>1888</ele>
        <time>2020-01-05T11:57:36.000Z</time>
      </trkpt>
      <trkpt lat="42.74921" lon="1.61298">
        <ele>1888</ele>
        <time>2020-01-05T11:57:38.000Z</time>
      </trkpt>
      <trkpt lat="42.74921" lon="1.61298">
        <ele>1888</ele>
        <time>2020-01-05T11:57:40.000Z</time>
      </trkpt>
      <trkpt lat="42.74921" lon="1.61298">
        <ele>1888</ele>
        <time>2020-01-05T11:57:42.000Z</time>
      </trkpt>
      <trkpt lat="42.74922" lon="1.61299">
        <ele>1888</ele>
        <time>2020-01-05T11:57:44.000Z</time>
      </trkpt>
      <trkpt lat="42.74922" lon="1.61299">
        <ele>1888</ele>
        <time>2020-01-05T11:57:46.000Z</time>
      </trkpt>
      <trkpt lat="42.74922" lon="1.61299">
        <ele>1888</ele>
        <time>2020-01-05T11:57:48.000Z</time>
      </trkpt>
      <trkpt lat="42.74922" lon="1.61299">
        <ele>1888</ele>
        <time>2020-01-05T11:57:50.000Z</time>
      </trkpt>
      <trkpt lat="42.74922" lon="1.61299">
        <ele>1888</ele>
        <time>2020-01-05T11:57:52.000Z</time>
      </trkpt>
      <trkpt lat="42.74922" lon="1.61299">
        <ele>1888</ele>
        <time>2020-01-05T11:57:54.000Z</time>
      </trkpt>
      <trkpt lat="42.74922" lon="1.61299">
        <ele>1888</ele>
        <time>2020-01-05T11:57:56.000Z</time>
      </trkpt>
      <trkpt lat="42.74922" lon="1.61299">
        <ele>1888</ele>
        <time>2020-01-05T11:57:58.000Z</time>
      </trkpt>
      <trkpt lat="42.74922" lon="1.61299">
        <ele>1888</ele>
        <time>2020-01-05T11:58:00.000Z</time>
      </trkpt>
      <trkpt lat="42.74922" lon="1.61299">
        <ele>1888</ele>
        <time>2020-01-05T11:58:02.000Z</time>
      </trkpt>
      <trkpt lat="42.74922" lon="1.61299">
        <ele>1888</ele>
        <time>2020-01-05T11:58:04.000Z</time>
      </trkpt>
      <trkpt lat="42.74922" lon="1.61299">
        <ele>1888</ele>
        <time>2020-01-05T11:58:06.000Z</time>
      </trkpt>
      <trkpt lat="42.74921" lon="1.61299">
        <ele>1888</ele>
        <time>2020-01-05T11:58:08.000Z</time>
      </trkpt>
      <trkpt lat="42.74921" lon="1.61299">
        <ele>1888</ele>
        <time>2020-01-05T11:58:10.000Z</time>
      </trkpt>
      <trkpt lat="42.7492" lon="1.61299">
        <ele>1888</ele>
        <time>2020-01-05T11:58:12.000Z</time>
      </trkpt>
      <trkpt lat="42.7492" lon="1.61299">
        <ele>1888</ele>
        <time>2020-01-05T11:58:14.000Z</time>
      </trkpt>
      <trkpt lat="42.7492" lon="1.61299">
        <ele>1888</ele>
        <time>2020-01-05T11:58:16.000Z</time>
      </trkpt>
      <trkpt lat="42.74921" lon="1.61299">
        <ele>1888</ele>
        <time>2020-01-05T11:58:18.000Z</time>
      </trkpt>
      <trkpt lat="42.74921" lon="1.61299">
        <ele>1888</ele>
        <time>2020-01-05T11:58:20.000Z</time>
      </trkpt>
      <trkpt lat="42.74921" lon="1.61299">
        <ele>1888</ele>
        <time>2020-01-05T11:58:22.000Z</time>
      </trkpt>
      <trkpt lat="42.74921" lon="1.61299">
        <ele>1888</ele>
        <time>2020-01-05T11:58:24.000Z</time>
      </trkpt>
      <trkpt lat="42.74921" lon="1.61299">
        <ele>1888</ele>
        <time>2020-01-05T11:58:26.000Z</time>
      </trkpt>
      <trkpt lat="42.74921" lon="1.61298">
        <ele>1888</ele>
        <time>2020-01-05T11:58:28.000Z</time>
      </trkpt>
      <trkpt lat="42.74921" lon="1.61299">
        <ele>1888</ele>
        <time>2020-01-05T11:58:30.000Z</time>
      </trkpt>
      <trkpt lat="42.74921" lon="1.61299">
        <ele>1888</ele>
        <time>2020-01-05T11:58:32.000Z</time>
      </trkpt>
      <trkpt lat="42.74921" lon="1.61299">
        <ele>1888</ele>
        <time>2020-01-05T11:58:34.000Z</time>
      </trkpt>
      <trkpt lat="42.74921" lon="1.61299">
        <ele>1888</ele>
        <time>2020-01-05T11:58:36.000Z</time>
      </trkpt>
      <trkpt lat="42.74921" lon="1.61299">
        <ele>1888</ele>
        <time>2020-01-05T11:58:38.000Z</time>
      </trkpt>
      <trkpt lat="42.74921" lon="1.61299">
        <ele>1888</ele>
        <time>2020-01-05T11:58:40.000Z</time>
      </trkpt>
      <trkpt lat="42.74921" lon="1.61298">
        <ele>1888</ele>
        <time>2020-01-05T11:58:42.000Z</time>
      </trkpt>
      <trkpt lat="42.74921" lon="1.61298">
        <ele>1888</ele>
        <time>2020-01-05T11:58:44.000Z</time>
      </trkpt>
      <trkpt lat="42.74921" lon="1.61298">
        <ele>1888</ele>
        <time>2020-01-05T11:58:46.000Z</time>
      </trkpt>
      <trkpt lat="42.74921" lon="1.61298">
        <ele>1888</ele>
        <time>2020-01-05T11:58:48.000Z</time>
      </trkpt>
      <trkpt lat="42.74921" lon="1.61298">
        <ele>1888</ele>
        <time>2020-01-05T11:58:50.000Z</time>
      </trkpt>
      <trkpt lat="42.74921" lon="1.61298">
        <ele>1888</ele>
        <time>2020-01-05T11:58:52.000Z</time>
      </trkpt>
      <trkpt lat="42.74922" lon="1.61298">
        <ele>1888</ele>
        <time>2020-01-05T11:58:54.000Z</time>
      </trkpt>
      <trkpt lat="42.74922" lon="1.61298">
        <ele>1888</ele>
        <time>2020-01-05T11:58:56.000Z</time>
      </trkpt>
      <trkpt lat="42.74922" lon="1.61298">
        <ele>1888</ele>
        <time>2020-01-05T11:58:58.000Z</time>
      </trkpt>
      <trkpt lat="42.74922" lon="1.61298">
        <ele>1888</ele>
        <time>2020-01-05T11:59:00.000Z</time>
      </trkpt>
      <trkpt lat="42.74922" lon="1.61298">
        <ele>1888</ele>
        <time>2020-01-05T11:59:02.000Z</time>
      </trkpt>
      <trkpt lat="42.74922" lon="1.61298">
        <ele>1888</ele>
        <time>2020-01-05T11:59:04.000Z</time>
      </trkpt>
      <trkpt lat="42.74922" lon="1.61298">
        <ele>1888</ele>
        <time>2020-01-05T11:59:06.000Z</time>
      </trkpt>
      <trkpt lat="42.74922" lon="1.61298">
        <ele>1888</ele>
        <time>2020-01-05T11:59:08.000Z</time>
      </trkpt>
      <trkpt lat="42.74922" lon="1.61298">
        <ele>1888</ele>
        <time>2020-01-05T11:59:10.000Z</time>
      </trkpt>
      <trkpt lat="42.74922" lon="1.61298">
        <ele>1888</ele>
        <time>2020-01-05T11:59:12.000Z</time>
      </trkpt>
      <trkpt lat="42.74922" lon="1.61298">
        <ele>1888</ele>
        <time>2020-01-05T11:59:14.000Z</time>
      </trkpt>
      <trkpt lat="42.74922" lon="1.61298">
        <ele>1888</ele>
        <time>2020-01-05T11:59:16.000Z</time>
      </trkpt>
      <trkpt lat="42.74922" lon="1.61298">
        <ele>1888</ele>
        <time>2020-01-05T11:59:18.000Z</time>
      </trkpt>
      <trkpt lat="42.74922" lon="1.61298">
        <ele>1888</ele>
        <time>2020-01-05T11:59:20.000Z</time>
      </trkpt>
      <trkpt lat="42.74922" lon="1.61298">
        <ele>1888</ele>
        <time>2020-01-05T11:59:22.000Z</time>
      </trkpt>
      <trkpt lat="42.74922" lon="1.61298">
        <ele>1888</ele>
        <time>2020-01-05T11:59:24.000Z</time>
      </trkpt>
      <trkpt lat="42.74922" lon="1.61297">
        <ele>1888</ele>
        <time>2020-01-05T11:59:26.000Z</time>
      </trkpt>
      <trkpt lat="42.74923" lon="1.61297">
        <ele>1888</ele>
        <time>2020-01-05T11:59:28.000Z</time>
      </trkpt>
      <trkpt lat="42.74923" lon="1.61298">
        <ele>1888</ele>
        <time>2020-01-05T11:59:30.000Z</time>
      </trkpt>
      <trkpt lat="42.74924" lon="1.61297">
        <ele>1888</ele>
        <time>2020-01-05T11:59:32.000Z</time>
      </trkpt>
      <trkpt lat="42.74924" lon="1.61297">
        <ele>1888</ele>
        <time>2020-01-05T11:59:34.000Z</time>
      </trkpt>
      <trkpt lat="42.74924" lon="1.61297">
        <ele>1888</ele>
        <time>2020-01-05T11:59:36.000Z</time>
      </trkpt>
      <trkpt lat="42.74925" lon="1.61297">
        <ele>1888</ele>
        <time>2020-01-05T11:59:38.000Z</time>
      </trkpt>
      <trkpt lat="42.74924" lon="1.61297">
        <ele>1888</ele>
        <time>2020-01-05T11:59:40.000Z</time>
      </trkpt>
      <trkpt lat="42.74924" lon="1.61297">
        <ele>1888</ele>
        <time>2020-01-05T11:59:42.000Z</time>
      </trkpt>
      <trkpt lat="42.74923" lon="1.61297">
        <ele>1888</ele>
        <time>2020-01-05T11:59:44.000Z</time>
      </trkpt>
      <trkpt lat="42.74923" lon="1.61297">
        <ele>1888</ele>
        <time>2020-01-05T11:59:46.000Z</time>
      </trkpt>
      <trkpt lat="42.74923" lon="1.61298">
        <ele>1888</ele>
        <time>2020-01-05T11:59:48.000Z</time>
      </trkpt>
      <trkpt lat="42.74923" lon="1.61298">
        <ele>1888</ele>
        <time>2020-01-05T11:59:50.000Z</time>
      </trkpt>
      <trkpt lat="42.74922" lon="1.61298">
        <ele>1888</ele>
        <time>2020-01-05T11:59:52.000Z</time>
      </trkpt>
      <trkpt lat="42.74922" lon="1.61298">
        <ele>1888</ele>
        <time>2020-01-05T11:59:54.000Z</time>
      </trkpt>
      <trkpt lat="42.74922" lon="1.61299">
        <ele>1888</ele>
        <time>2020-01-05T11:59:56.000Z</time>
      </trkpt>
      <trkpt lat="42.74923" lon="1.61298">
        <ele>1888</ele>
        <time>2020-01-05T11:59:58.000Z</time>
      </trkpt>
      <trkpt lat="42.74923" lon="1.61299">
        <ele>1888</ele>
        <time>2020-01-05T12:00:00.000Z</time>
      </trkpt>
      <trkpt lat="42.74923" lon="1.61299">
        <ele>1888</ele>
        <time>2020-01-05T12:00:02.000Z</time>
      </trkpt>
      <trkpt lat="42.74923" lon="1.61299">
        <ele>1888</ele>
        <time>2020-01-05T12:00:04.000Z</time>
      </trkpt>
      <trkpt lat="42.74922" lon="1.61299">
        <ele>1888</ele>
        <time>2020-01-05T12:00:06.000Z</time>
      </trkpt>
      <trkpt lat="42.74923" lon="1.61299">
        <ele>1888</ele>
        <time>2020-01-05T12:00:08.000Z</time>
      </trkpt>
      <trkpt lat="42.74923" lon="1.61299">
        <ele>1888</ele>
        <time>2020-01-05T12:00:10.000Z</time>
      </trkpt>
      <trkpt lat="42.74923" lon="1.61299">
        <ele>1888</ele>
        <time>2020-01-05T12:00:12.000Z</time>
      </trkpt>
      <trkpt lat="42.74923" lon="1.61298">
        <ele>1888</ele>
        <time>2020-01-05T12:00:14.000Z</time>
      </trkpt>
      <trkpt lat="42.74923" lon="1.61299">
        <ele>1888</ele>
        <time>2020-01-05T12:00:16.000Z</time>
      </trkpt>
      <trkpt lat="42.74923" lon="1.61299">
        <ele>1888</ele>
        <time>2020-01-05T12:00:18.000Z</time>
      </trkpt>
      <trkpt lat="42.74923" lon="1.61299">
        <ele>1888</ele>
        <time>2020-01-05T12:00:20.000Z</time>
      </trkpt>
      <trkpt lat="42.74923" lon="1.61298">
        <ele>1888</ele>
        <time>2020-01-05T12:00:22.000Z</time>
      </trkpt>
      <trkpt lat="42.74923" lon="1.61299">
        <ele>1888</ele>
        <time>2020-01-05T12:00:24.000Z</time>
      </trkpt>
      <trkpt lat="42.74922" lon="1.61299">
        <ele>1888</ele>
        <time>2020-01-05T12:00:26.000Z</time>
      </trkpt>
      <trkpt lat="42.74922" lon="1.61299">
        <ele>1888</ele>
        <time>2020-01-05T12:00:28.000Z</time>
      </trkpt>
      <trkpt lat="42.74922" lon="1.61298">
        <ele>1888</ele>
        <time>2020-01-05T12:00:30.000Z</time>
      </trkpt>
      <trkpt lat="42.74922" lon="1.61298">
        <ele>1888</ele>
        <time>2020-01-05T12:00:32.000Z</time>
      </trkpt>
      <trkpt lat="42.74922" lon="1.61299">
        <ele>1888</ele>
        <time>2020-01-05T12:00:34.000Z</time>
      </trkpt>
      <trkpt lat="42.74921" lon="1.61299">
        <ele>1888</ele>
        <time>2020-01-05T12:00:36.000Z</time>
      </trkpt>
      <trkpt lat="42.74921" lon="1.61298">
        <ele>1888</ele>
        <time>2020-01-05T12:00:38.000Z</time>
      </trkpt>
      <trkpt lat="42.74921" lon="1.61298">
        <ele>1888</ele>
        <time>2020-01-05T12:00:40.000Z</time>
      </trkpt>
      <trkpt lat="42.74921" lon="1.61298">
        <ele>1888</ele>
        <time>2020-01-05T12:00:42.000Z</time>
      </trkpt>
      <trkpt lat="42.74921" lon="1.61298">
        <ele>1888</ele>
        <time>2020-01-05T12:00:44.000Z</time>
      </trkpt>
      <trkpt lat="42.74921" lon="1.61298">
        <ele>1888</ele>
        <time>2020-01-05T12:00:46.000Z</time>
      </trkpt>
      <trkpt lat="42.74922" lon="1.613">
        <ele>1888</ele>
        <time>2020-01-05T12:00:48.000Z</time>
      </trkpt>
      <trkpt lat="42.74922" lon="1.61299">
        <ele>1888</ele>
        <time>2020-01-05T12:00:50.000Z</time>
      </trkpt>
      <trkpt lat="42.74922" lon="1.61298">
        <ele>1888</ele>
        <time>2020-01-05T12:00:52.000Z</time>
      </trkpt>
      <trkpt lat="42.74922" lon="1.61298">
        <ele>1888</ele>
        <time>2020-01-05T12:00:54.000Z</time>
      </trkpt>
      <trkpt lat="42.74921" lon="1.61299">
        <ele>1888</ele>
        <time>2020-01-05T12:00:56.000Z</time>
      </trkpt>
      <trkpt lat="42.74921" lon="1.61298">
        <ele>1888</ele>
        <time>2020-01-05T12:00:58.000Z</time>
      </trkpt>
      <trkpt lat="42.74922" lon="1.61298">
        <ele>1888</ele>
        <time>2020-01-05T12:01:00.000Z</time>
      </trkpt>
      <trkpt lat="42.74922" lon="1.61298">
        <ele>1888</ele>
        <time>2020-01-05T12:01:02.000Z</time>
      </trkpt>
      <trkpt lat="42.74922" lon="1.61299">
        <ele>1888</ele>
        <time>2020-01-05T12:01:04.000Z</time>
      </trkpt>
      <trkpt lat="42.74922" lon="1.61299">
        <ele>1888</ele>
        <time>2020-01-05T12:01:06.000Z</time>
      </trkpt>
      <trkpt lat="42.74922" lon="1.61298">
        <ele>1888</ele>
        <time>2020-01-05T12:01:08.000Z</time>
      </trkpt>
      <trkpt lat="42.74922" lon="1.61298">
        <ele>1888</ele>
        <time>2020-01-05T12:01:10.000Z</time>
      </trkpt>
      <trkpt lat="42.74921" lon="1.61298">
        <ele>1888</ele>
        <time>2020-01-05T12:01:12.000Z</time>
      </trkpt>
      <trkpt lat="42.74921" lon="1.61298">
        <ele>1888</ele>
        <time>2020-01-05T12:01:14.000Z</time>
      </trkpt>
      <trkpt lat="42.74921" lon="1.61298">
        <ele>1888</ele>
        <time>2020-01-05T12:01:16.000Z</time>
      </trkpt>
      <trkpt lat="42.74921" lon="1.61298">
        <ele>1888</ele>
        <time>2020-01-05T12:01:18.000Z</time>
      </trkpt>
      <trkpt lat="42.74921" lon="1.61298">
        <ele>1888</ele>
        <time>2020-01-05T12:01:20.000Z</time>
      </trkpt>
      <trkpt lat="42.74921" lon="1.61299">
        <ele>1888</ele>
        <time>2020-01-05T12:01:22.000Z</time>
      </trkpt>
      <trkpt lat="42.74921" lon="1.61299">
        <ele>1888</ele>
        <time>2020-01-05T12:01:24.000Z</time>
      </trkpt>
      <trkpt lat="42.74921" lon="1.61299">
        <ele>1888</ele>
        <time>2020-01-05T12:01:26.000Z</time>
      </trkpt>
      <trkpt lat="42.74921" lon="1.61299">
        <ele>1888</ele>
        <time>2020-01-05T12:01:28.000Z</time>
      </trkpt>
      <trkpt lat="42.74922" lon="1.61299">
        <ele>1888</ele>
        <time>2020-01-05T12:01:30.000Z</time>
      </trkpt>
      <trkpt lat="42.74922" lon="1.61299">
        <ele>1888</ele>
        <time>2020-01-05T12:01:32.000Z</time>
      </trkpt>
      <trkpt lat="42.74921" lon="1.61299">
        <ele>1888</ele>
        <time>2020-01-05T12:01:34.000Z</time>
      </trkpt>
      <trkpt lat="42.74922" lon="1.61298">
        <ele>1888</ele>
        <time>2020-01-05T12:01:36.000Z</time>
      </trkpt>
      <trkpt lat="42.74922" lon="1.61297">
        <ele>1888</ele>
        <time>2020-01-05T12:01:38.000Z</time>
      </trkpt>
      <trkpt lat="42.74922" lon="1.61298">
        <ele>1888</ele>
        <time>2020-01-05T12:01:40.000Z</time>
      </trkpt>
      <trkpt lat="42.74922" lon="1.61298">
        <ele>1888</ele>
        <time>2020-01-05T12:01:42.000Z</time>
      </trkpt>
      <trkpt lat="42.74922" lon="1.61297">
        <ele>1888</ele>
        <time>2020-01-05T12:01:44.000Z</time>
      </trkpt>
      <trkpt lat="42.74922" lon="1.61297">
        <ele>1888</ele>
        <time>2020-01-05T12:01:46.000Z</time>
      </trkpt>
      <trkpt lat="42.74921" lon="1.61298">
        <ele>1888</ele>
        <time>2020-01-05T12:01:48.000Z</time>
      </trkpt>
      <trkpt lat="42.74921" lon="1.61297">
        <ele>1888</ele>
        <time>2020-01-05T12:01:50.000Z</time>
      </trkpt>
      <trkpt lat="42.74921" lon="1.61298">
        <ele>1888</ele>
        <time>2020-01-05T12:01:52.000Z</time>
      </trkpt>
      <trkpt lat="42.74922" lon="1.61297">
        <ele>1888</ele>
        <time>2020-01-05T12:01:54.000Z</time>
      </trkpt>
      <trkpt lat="42.74922" lon="1.61298">
        <ele>1888</ele>
        <time>2020-01-05T12:01:56.000Z</time>
      </trkpt>
      <trkpt lat="42.74922" lon="1.61298">
        <ele>1888</ele>
        <time>2020-01-05T12:01:58.000Z</time>
      </trkpt>
      <trkpt lat="42.74922" lon="1.61297">
        <ele>1888</ele>
        <time>2020-01-05T12:02:00.000Z</time>
      </trkpt>
      <trkpt lat="42.74922" lon="1.61297">
        <ele>1888</ele>
        <time>2020-01-05T12:02:02.000Z</time>
      </trkpt>
      <trkpt lat="42.74922" lon="1.61297">
        <ele>1888</ele>
        <time>2020-01-05T12:02:04.000Z</time>
      </trkpt>
      <trkpt lat="42.74922" lon="1.61297">
        <ele>1888</ele>
        <time>2020-01-05T12:02:06.000Z</time>
      </trkpt>
      <trkpt lat="42.74922" lon="1.61298">
        <ele>1888</ele>
        <time>2020-01-05T12:02:08.000Z</time>
      </trkpt>
      <trkpt lat="42.74922" lon="1.61298">
        <ele>1888</ele>
        <time>2020-01-05T12:02:10.000Z</time>
      </trkpt>
      <trkpt lat="42.74922" lon="1.61298">
        <ele>1888</ele>
        <time>2020-01-05T12:02:12.000Z</time>
      </trkpt>
      <trkpt lat="42.74923" lon="1.61298">
        <ele>1888</ele>
        <time>2020-01-05T12:02:14.000Z</time>
      </trkpt>
      <trkpt lat="42.74923" lon="1.61298">
        <ele>1888</ele>
        <time>2020-01-05T12:02:16.000Z</time>
      </trkpt>
      <trkpt lat="42.74923" lon="1.61298">
        <ele>1888</ele>
        <time>2020-01-05T12:02:18.000Z</time>
      </trkpt>
      <trkpt lat="42.74923" lon="1.61299">
        <ele>1888</ele>
        <time>2020-01-05T12:02:20.000Z</time>
      </trkpt>
      <trkpt lat="42.74923" lon="1.61299">
        <ele>1888</ele>
        <time>2020-01-05T12:02:22.000Z</time>
      </trkpt>
      <trkpt lat="42.74923" lon="1.61298">
        <ele>1888</ele>
        <time>2020-01-05T12:02:24.000Z</time>
      </trkpt>
      <trkpt lat="42.74923" lon="1.61298">
        <ele>1888</ele>
        <time>2020-01-05T12:02:26.000Z</time>
      </trkpt>
      <trkpt lat="42.74923" lon="1.61298">
        <ele>1888</ele>
        <time>2020-01-05T12:02:28.000Z</time>
      </trkpt>
      <trkpt lat="42.74922" lon="1.61297">
        <ele>1888</ele>
        <time>2020-01-05T12:02:30.000Z</time>
      </trkpt>
      <trkpt lat="42.74922" lon="1.61297">
        <ele>1888</ele>
        <time>2020-01-05T12:02:32.000Z</time>
      </trkpt>
      <trkpt lat="42.74922" lon="1.61297">
        <ele>1888</ele>
        <time>2020-01-05T12:02:34.000Z</time>
      </trkpt>
      <trkpt lat="42.74921" lon="1.61298">
        <ele>1888</ele>
        <time>2020-01-05T12:02:36.000Z</time>
      </trkpt>
      <trkpt lat="42.74921" lon="1.61297">
        <ele>1888</ele>
        <time>2020-01-05T12:02:38.000Z</time>
      </trkpt>
      <trkpt lat="42.74922" lon="1.61297">
        <ele>1888</ele>
        <time>2020-01-05T12:02:40.000Z</time>
      </trkpt>
      <trkpt lat="42.74922" lon="1.61297">
        <ele>1888</ele>
        <time>2020-01-05T12:02:42.000Z</time>
      </trkpt>
      <trkpt lat="42.74922" lon="1.61297">
        <ele>1888</ele>
        <time>2020-01-05T12:02:44.000Z</time>
      </trkpt>
      <trkpt lat="42.74922" lon="1.61297">
        <ele>1888</ele>
        <time>2020-01-05T12:02:46.000Z</time>
      </trkpt>
      <trkpt lat="42.74922" lon="1.61297">
        <ele>1888</ele>
        <time>2020-01-05T12:02:48.000Z</time>
      </trkpt>
      <trkpt lat="42.74922" lon="1.61297">
        <ele>1888</ele>
        <time>2020-01-05T12:02:50.000Z</time>
      </trkpt>
      <trkpt lat="42.74922" lon="1.61297">
        <ele>1888</ele>
        <time>2020-01-05T12:02:52.000Z</time>
      </trkpt>
      <trkpt lat="42.74922" lon="1.61297">
        <ele>1888</ele>
        <time>2020-01-05T12:02:54.000Z</time>
      </trkpt>
      <trkpt lat="42.74922" lon="1.61297">
        <ele>1888</ele>
        <time>2020-01-05T12:02:56.000Z</time>
      </trkpt>
      <trkpt lat="42.74922" lon="1.61298">
        <ele>1888</ele>
        <time>2020-01-05T12:02:58.000Z</time>
      </trkpt>
      <trkpt lat="42.74922" lon="1.61299">
        <ele>1888</ele>
        <time>2020-01-05T12:03:00.000Z</time>
      </trkpt>
      <trkpt lat="42.74922" lon="1.61299">
        <ele>1888</ele>
        <time>2020-01-05T12:03:02.000Z</time>
      </trkpt>
      <trkpt lat="42.74922" lon="1.61299">
        <ele>1888</ele>
        <time>2020-01-05T12:03:04.000Z</time>
      </trkpt>
      <trkpt lat="42.74922" lon="1.61298">
        <ele>1888</ele>
        <time>2020-01-05T12:03:06.000Z</time>
      </trkpt>
      <trkpt lat="42.74921" lon="1.61298">
        <ele>1888</ele>
        <time>2020-01-05T12:03:08.000Z</time>
      </trkpt>
      <trkpt lat="42.74921" lon="1.61298">
        <ele>1888</ele>
        <time>2020-01-05T12:03:10.000Z</time>
      </trkpt>
      <trkpt lat="42.74921" lon="1.61299">
        <ele>1888</ele>
        <time>2020-01-05T12:03:12.000Z</time>
      </trkpt>
      <trkpt lat="42.74921" lon="1.61299">
        <ele>1888</ele>
        <time>2020-01-05T12:03:14.000Z</time>
      </trkpt>
      <trkpt lat="42.74921" lon="1.61299">
        <ele>1888</ele>
        <time>2020-01-05T12:03:16.000Z</time>
      </trkpt>
      <trkpt lat="42.74921" lon="1.61299">
        <ele>1888</ele>
        <time>2020-01-05T12:03:18.000Z</time>
      </trkpt>
      <trkpt lat="42.74921" lon="1.61299">
        <ele>1888</ele>
        <time>2020-01-05T12:03:20.000Z</time>
      </trkpt>
      <trkpt lat="42.74922" lon="1.61299">
        <ele>1888</ele>
        <time>2020-01-05T12:03:22.000Z</time>
      </trkpt>
      <trkpt lat="42.74921" lon="1.61299">
        <ele>1888</ele>
        <time>2020-01-05T12:03:24.000Z</time>
      </trkpt>
      <trkpt lat="42.74921" lon="1.61297">
        <ele>1888</ele>
        <time>2020-01-05T12:03:26.000Z</time>
      </trkpt>
      <trkpt lat="42.74921" lon="1.61298">
        <ele>1888</ele>
        <time>2020-01-05T12:03:28.000Z</time>
      </trkpt>
      <trkpt lat="42.74921" lon="1.61298">
        <ele>1888</ele>
        <time>2020-01-05T12:03:30.000Z</time>
      </trkpt>
      <trkpt lat="42.74922" lon="1.61298">
        <ele>1888</ele>
        <time>2020-01-05T12:03:32.000Z</time>
      </trkpt>
      <trkpt lat="42.74922" lon="1.61299">
        <ele>1888</ele>
        <time>2020-01-05T12:03:34.000Z</time>
      </trkpt>
      <trkpt lat="42.74922" lon="1.61298">
        <ele>1888</ele>
        <time>2020-01-05T12:03:36.000Z</time>
      </trkpt>
      <trkpt lat="42.74922" lon="1.61297">
        <ele>1888</ele>
        <time>2020-01-05T12:03:38.000Z</time>
      </trkpt>
      <trkpt lat="42.74921" lon="1.61299">
        <ele>1888</ele>
        <time>2020-01-05T12:03:40.000Z</time>
      </trkpt>
      <trkpt lat="42.7492" lon="1.61299">
        <ele>1888</ele>
        <time>2020-01-05T12:03:42.000Z</time>
      </trkpt>
      <trkpt lat="42.7492" lon="1.61299">
        <ele>1888</ele>
        <time>2020-01-05T12:03:44.000Z</time>
      </trkpt>
      <trkpt lat="42.7492" lon="1.61299">
        <ele>1888</ele>
        <time>2020-01-05T12:03:46.000Z</time>
      </trkpt>
      <trkpt lat="42.74919" lon="1.61298">
        <ele>1888</ele>
        <time>2020-01-05T12:03:48.000Z</time>
      </trkpt>
      <trkpt lat="42.74919" lon="1.61298">
        <ele>1888</ele>
        <time>2020-01-05T12:03:50.000Z</time>
      </trkpt>
      <trkpt lat="42.7492" lon="1.61297">
        <ele>1888</ele>
        <time>2020-01-05T12:03:52.000Z</time>
      </trkpt>
      <trkpt lat="42.7492" lon="1.61297">
        <ele>1888</ele>
        <time>2020-01-05T12:03:54.000Z</time>
      </trkpt>
      <trkpt lat="42.7492" lon="1.61297">
        <ele>1888</ele>
        <time>2020-01-05T12:03:56.000Z</time>
      </trkpt>
      <trkpt lat="42.7492" lon="1.61297">
        <ele>1888</ele>
        <time>2020-01-05T12:03:58.000Z</time>
      </trkpt>
      <trkpt lat="42.7492" lon="1.61297">
        <ele>1888</ele>
        <time>2020-01-05T12:04:00.000Z</time>
      </trkpt>
      <trkpt lat="42.7492" lon="1.61297">
        <ele>1888</ele>
        <time>2020-01-05T12:04:02.000Z</time>
      </trkpt>
      <trkpt lat="42.74921" lon="1.61297">
        <ele>1888</ele>
        <time>2020-01-05T12:04:04.000Z</time>
      </trkpt>
      <trkpt lat="42.7492" lon="1.61297">
        <ele>1888</ele>
        <time>2020-01-05T12:04:06.000Z</time>
      </trkpt>
      <trkpt lat="42.7492" lon="1.61297">
        <ele>1888</ele>
        <time>2020-01-05T12:04:08.000Z</time>
      </trkpt>
      <trkpt lat="42.7492" lon="1.61297">
        <ele>1888</ele>
        <time>2020-01-05T12:04:10.000Z</time>
      </trkpt>
      <trkpt lat="42.7492" lon="1.61297">
        <ele>1888</ele>
        <time>2020-01-05T12:04:12.000Z</time>
      </trkpt>
      <trkpt lat="42.7492" lon="1.61297">
        <ele>1888</ele>
        <time>2020-01-05T12:04:14.000Z</time>
      </trkpt>
      <trkpt lat="42.7492" lon="1.61297">
        <ele>1888</ele>
        <time>2020-01-05T12:04:16.000Z</time>
      </trkpt>
      <trkpt lat="42.7492" lon="1.61296">
        <ele>1888</ele>
        <time>2020-01-05T12:04:18.000Z</time>
      </trkpt>
      <trkpt lat="42.74921" lon="1.61296">
        <ele>1888</ele>
        <time>2020-01-05T12:04:20.000Z</time>
      </trkpt>
      <trkpt lat="42.74921" lon="1.61296">
        <ele>1888</ele>
        <time>2020-01-05T12:04:22.000Z</time>
      </trkpt>
      <trkpt lat="42.74921" lon="1.61296">
        <ele>1888</ele>
        <time>2020-01-05T12:04:24.000Z</time>
      </trkpt>
      <trkpt lat="42.74921" lon="1.61296">
        <ele>1888</ele>
        <time>2020-01-05T12:04:26.000Z</time>
      </trkpt>
      <trkpt lat="42.74921" lon="1.61296">
        <ele>1888</ele>
        <time>2020-01-05T12:04:28.000Z</time>
      </trkpt>
      <trkpt lat="42.74921" lon="1.61296">
        <ele>1888</ele>
        <time>2020-01-05T12:04:30.000Z</time>
      </trkpt>
      <trkpt lat="42.74921" lon="1.61296">
        <ele>1888</ele>
        <time>2020-01-05T12:04:32.000Z</time>
      </trkpt>
      <trkpt lat="42.74921" lon="1.61296">
        <ele>1888</ele>
        <time>2020-01-05T12:04:34.000Z</time>
      </trkpt>
      <trkpt lat="42.74921" lon="1.61296">
        <ele>1888</ele>
        <time>2020-01-05T12:04:36.000Z</time>
      </trkpt>
      <trkpt lat="42.74921" lon="1.61296">
        <ele>1888</ele>
        <time>2020-01-05T12:04:38.000Z</time>
      </trkpt>
      <trkpt lat="42.74921" lon="1.61296">
        <ele>1888</ele>
        <time>2020-01-05T12:04:40.000Z</time>
      </trkpt>
      <trkpt lat="42.74921" lon="1.61296">
        <ele>1888</ele>
        <time>2020-01-05T12:04:42.000Z</time>
      </trkpt>
      <trkpt lat="42.74921" lon="1.61296">
        <ele>1888</ele>
        <time>2020-01-05T12:04:44.000Z</time>
      </trkpt>
      <trkpt lat="42.74921" lon="1.61296">
        <ele>1888</ele>
        <time>2020-01-05T12:04:46.000Z</time>
      </trkpt>
      <trkpt lat="42.74921" lon="1.61296">
        <ele>1888</ele>
        <time>2020-01-05T12:04:48.000Z</time>
      </trkpt>
      <trkpt lat="42.74921" lon="1.61296">
        <ele>1888</ele>
        <time>2020-01-05T12:04:50.000Z</time>
      </trkpt>
      <trkpt lat="42.74921" lon="1.61296">
        <ele>1888</ele>
        <time>2020-01-05T12:04:52.000Z</time>
      </trkpt>
      <trkpt lat="42.74921" lon="1.61296">
        <ele>1888</ele>
        <time>2020-01-05T12:04:54.000Z</time>
      </trkpt>
      <trkpt lat="42.74921" lon="1.61296">
        <ele>1888</ele>
        <time>2020-01-05T12:04:56.000Z</time>
      </trkpt>
      <trkpt lat="42.74921" lon="1.61296">
        <ele>1888</ele>
        <time>2020-01-05T12:04:58.000Z</time>
      </trkpt>
      <trkpt lat="42.74921" lon="1.61297">
        <ele>1888</ele>
        <time>2020-01-05T12:05:00.000Z</time>
      </trkpt>
      <trkpt lat="42.74921" lon="1.61297">
        <ele>1888</ele>
        <time>2020-01-05T12:05:02.000Z</time>
      </trkpt>
      <trkpt lat="42.74921" lon="1.61297">
        <ele>1888</ele>
        <time>2020-01-05T12:05:04.000Z</time>
      </trkpt>
      <trkpt lat="42.74921" lon="1.61297">
        <ele>1888</ele>
        <time>2020-01-05T12:05:06.000Z</time>
      </trkpt>
      <trkpt lat="42.74921" lon="1.61297">
        <ele>1888</ele>
        <time>2020-01-05T12:05:08.000Z</time>
      </trkpt>
      <trkpt lat="42.74921" lon="1.61297">
        <ele>1888</ele>
        <time>2020-01-05T12:05:10.000Z</time>
      </trkpt>
      <trkpt lat="42.74921" lon="1.61297">
        <ele>1888</ele>
        <time>2020-01-05T12:05:12.000Z</time>
      </trkpt>
      <trkpt lat="42.74921" lon="1.61297">
        <ele>1888</ele>
        <time>2020-01-05T12:05:14.000Z</time>
      </trkpt>
      <trkpt lat="42.74921" lon="1.61297">
        <ele>1888</ele>
        <time>2020-01-05T12:05:16.000Z</time>
      </trkpt>
      <trkpt lat="42.74921" lon="1.61297">
        <ele>1888</ele>
        <time>2020-01-05T12:05:18.000Z</time>
      </trkpt>
      <trkpt lat="42.74921" lon="1.61297">
        <ele>1888</ele>
        <time>2020-01-05T12:05:20.000Z</time>
      </trkpt>
      <trkpt lat="42.74921" lon="1.61297">
        <ele>1888</ele>
        <time>2020-01-05T12:05:22.000Z</time>
      </trkpt>
      <trkpt lat="42.74921" lon="1.61297">
        <ele>1888</ele>
        <time>2020-01-05T12:05:24.000Z</time>
      </trkpt>
      <trkpt lat="42.74921" lon="1.61297">
        <ele>1888</ele>
        <time>2020-01-05T12:05:26.000Z</time>
      </trkpt>
      <trkpt lat="42.74921" lon="1.61297">
        <ele>1888</ele>
        <time>2020-01-05T12:05:28.000Z</time>
      </trkpt>
      <trkpt lat="42.74921" lon="1.61297">
        <ele>1888</ele>
        <time>2020-01-05T12:05:30.000Z</time>
      </trkpt>
      <trkpt lat="42.74921" lon="1.61297">
        <ele>1888</ele>
        <time>2020-01-05T12:05:32.000Z</time>
      </trkpt>
      <trkpt lat="42.74921" lon="1.61297">
        <ele>1888</ele>
        <time>2020-01-05T12:05:34.000Z</time>
      </trkpt>
      <trkpt lat="42.74921" lon="1.61297">
        <ele>1888</ele>
        <time>2020-01-05T12:05:36.000Z</time>
      </trkpt>
      <trkpt lat="42.74921" lon="1.61297">
        <ele>1888</ele>
        <time>2020-01-05T12:05:38.000Z</time>
      </trkpt>
      <trkpt lat="42.74921" lon="1.61297">
        <ele>1888</ele>
        <time>2020-01-05T12:05:40.000Z</time>
      </trkpt>
      <trkpt lat="42.74921" lon="1.61296">
        <ele>1888</ele>
        <time>2020-01-05T12:05:42.000Z</time>
      </trkpt>
      <trkpt lat="42.74921" lon="1.61296">
        <ele>1888</ele>
        <time>2020-01-05T12:05:44.000Z</time>
      </trkpt>
      <trkpt lat="42.74921" lon="1.61296">
        <ele>1888</ele>
        <time>2020-01-05T12:05:46.000Z</time>
      </trkpt>
      <trkpt lat="42.74921" lon="1.61296">
        <ele>1888</ele>
        <time>2020-01-05T12:05:48.000Z</time>
      </trkpt>
      <trkpt lat="42.74921" lon="1.61296">
        <ele>1888</ele>
        <time>2020-01-05T12:05:50.000Z</time>
      </trkpt>
      <trkpt lat="42.74921" lon="1.61296">
        <ele>1888</ele>
        <time>2020-01-05T12:05:52.000Z</time>
      </trkpt>
      <trkpt lat="42.74921" lon="1.61296">
        <ele>1888</ele>
        <time>2020-01-05T12:05:54.000Z</time>
      </trkpt>
      <trkpt lat="42.74921" lon="1.61296">
        <ele>1888</ele>
        <time>2020-01-05T12:05:56.000Z</time>
      </trkpt>
      <trkpt lat="42.74921" lon="1.61296">
        <ele>1888</ele>
        <time>2020-01-05T12:05:58.000Z</time>
      </trkpt>
      <trkpt lat="42.74921" lon="1.61296">
        <ele>1888</ele>
        <time>2020-01-05T12:06:00.000Z</time>
      </trkpt>
      <trkpt lat="42.74921" lon="1.61296">
        <ele>1888</ele>
        <time>2020-01-05T12:06:02.000Z</time>
      </trkpt>
      <trkpt lat="42.7492" lon="1.61296">
        <ele>1888</ele>
        <time>2020-01-05T12:06:04.000Z</time>
      </trkpt>
      <trkpt lat="42.7492" lon="1.61296">
        <ele>1888</ele>
        <time>2020-01-05T12:06:06.000Z</time>
      </trkpt>
      <trkpt lat="42.7492" lon="1.61296">
        <ele>1888</ele>
        <time>2020-01-05T12:06:08.000Z</time>
      </trkpt>
      <trkpt lat="42.7492" lon="1.61296">
        <ele>1888</ele>
        <time>2020-01-05T12:06:10.000Z</time>
      </trkpt>
      <trkpt lat="42.74921" lon="1.61296">
        <ele>1888</ele>
        <time>2020-01-05T12:06:12.000Z</time>
      </trkpt>
      <trkpt lat="42.74921" lon="1.61296">
        <ele>1888</ele>
        <time>2020-01-05T12:06:14.000Z</time>
      </trkpt>
      <trkpt lat="42.7492" lon="1.61296">
        <ele>1888</ele>
        <time>2020-01-05T12:06:16.000Z</time>
      </trkpt>
      <trkpt lat="42.7492" lon="1.61296">
        <ele>1888</ele>
        <time>2020-01-05T12:06:18.000Z</time>
      </trkpt>
      <trkpt lat="42.7492" lon="1.61296">
        <ele>1888</ele>
        <time>2020-01-05T12:06:20.000Z</time>
      </trkpt>
      <trkpt lat="42.7492" lon="1.61296">
        <ele>1888</ele>
        <time>2020-01-05T12:06:22.000Z</time>
      </trkpt>
      <trkpt lat="42.7492" lon="1.61296">
        <ele>1888</ele>
        <time>2020-01-05T12:06:24.000Z</time>
      </trkpt>
      <trkpt lat="42.7492" lon="1.61296">
        <ele>1888</ele>
        <time>2020-01-05T12:06:26.000Z</time>
      </trkpt>
      <trkpt lat="42.74921" lon="1.61296">
        <ele>1888</ele>
        <time>2020-01-05T12:06:28.000Z</time>
      </trkpt>
      <trkpt lat="42.74921" lon="1.61296">
        <ele>1888</ele>
        <time>2020-01-05T12:06:30.000Z</time>
      </trkpt>
      <trkpt lat="42.74921" lon="1.61296">
        <ele>1888</ele>
        <time>2020-01-05T12:06:32.000Z</time>
      </trkpt>
      <trkpt lat="42.74921" lon="1.61296">
        <ele>1888</ele>
        <time>2020-01-05T12:06:34.000Z</time>
      </trkpt>
      <trkpt lat="42.74921" lon="1.61296">
        <ele>1888</ele>
        <time>2020-01-05T12:06:36.000Z</time>
      </trkpt>
      <trkpt lat="42.74921" lon="1.61296">
        <ele>1888</ele>
        <time>2020-01-05T12:06:38.000Z</time>
      </trkpt>
      <trkpt lat="42.74921" lon="1.61296">
        <ele>1888</ele>
        <time>2020-01-05T12:06:40.000Z</time>
      </trkpt>
      <trkpt lat="42.74921" lon="1.61296">
        <ele>1888</ele>
        <time>2020-01-05T12:06:42.000Z</time>
      </trkpt>
      <trkpt lat="42.74921" lon="1.61296">
        <ele>1888</ele>
        <time>2020-01-05T12:06:44.000Z</time>
      </trkpt>
      <trkpt lat="42.74921" lon="1.61296">
        <ele>1888</ele>
        <time>2020-01-05T12:06:46.000Z</time>
      </trkpt>
      <trkpt lat="42.74921" lon="1.61297">
        <ele>1888</ele>
        <time>2020-01-05T12:06:48.000Z</time>
      </trkpt>
      <trkpt lat="42.74921" lon="1.61297">
        <ele>1888</ele>
        <time>2020-01-05T12:06:50.000Z</time>
      </trkpt>
      <trkpt lat="42.74921" lon="1.61297">
        <ele>1888</ele>
        <time>2020-01-05T12:06:52.000Z</time>
      </trkpt>
      <trkpt lat="42.74922" lon="1.61296">
        <ele>1888</ele>
        <time>2020-01-05T12:06:54.000Z</time>
      </trkpt>
      <trkpt lat="42.74922" lon="1.61296">
        <ele>1888</ele>
        <time>2020-01-05T12:06:56.000Z</time>
      </trkpt>
      <trkpt lat="42.74922" lon="1.61297">
        <ele>1888</ele>
        <time>2020-01-05T12:06:58.000Z</time>
      </trkpt>
      <trkpt lat="42.74922" lon="1.61297">
        <ele>1888</ele>
        <time>2020-01-05T12:07:00.000Z</time>
      </trkpt>
      <trkpt lat="42.74922" lon="1.61297">
        <ele>1888</ele>
        <time>2020-01-05T12:07:02.000Z</time>
      </trkpt>
      <trkpt lat="42.74922" lon="1.61297">
        <ele>1888</ele>
        <time>2020-01-05T12:07:04.000Z</time>
      </trkpt>
      <trkpt lat="42.74922" lon="1.61297">
        <ele>1888</ele>
        <time>2020-01-05T12:07:06.000Z</time>
      </trkpt>
      <trkpt lat="42.74922" lon="1.61297">
        <ele>1888</ele>
        <time>2020-01-05T12:07:08.000Z</time>
      </trkpt>
      <trkpt lat="42.74922" lon="1.61297">
        <ele>1888</ele>
        <time>2020-01-05T12:07:10.000Z</time>
      </trkpt>
      <trkpt lat="42.74922" lon="1.61297">
        <ele>1888</ele>
        <time>2020-01-05T12:07:12.000Z</time>
      </trkpt>
      <trkpt lat="42.74922" lon="1.61297">
        <ele>1888</ele>
        <time>2020-01-05T12:07:14.000Z</time>
      </trkpt>
      <trkpt lat="42.74922" lon="1.61297">
        <ele>1888</ele>
        <time>2020-01-05T12:07:16.000Z</time>
      </trkpt>
      <trkpt lat="42.74922" lon="1.61297">
        <ele>1888</ele>
        <time>2020-01-05T12:07:18.000Z</time>
      </trkpt>
      <trkpt lat="42.74922" lon="1.61298">
        <ele>1888</ele>
        <time>2020-01-05T12:07:20.000Z</time>
      </trkpt>
      <trkpt lat="42.74922" lon="1.61298">
        <ele>1888</ele>
        <time>2020-01-05T12:07:22.000Z</time>
      </trkpt>
      <trkpt lat="42.74922" lon="1.61298">
        <ele>1888</ele>
        <time>2020-01-05T12:07:24.000Z</time>
      </trkpt>
      <trkpt lat="42.74922" lon="1.61298">
        <ele>1888</ele>
        <time>2020-01-05T12:07:26.000Z</time>
      </trkpt>
      <trkpt lat="42.74922" lon="1.61298">
        <ele>1888</ele>
        <time>2020-01-05T12:07:28.000Z</time>
      </trkpt>
      <trkpt lat="42.74922" lon="1.61298">
        <ele>1888</ele>
        <time>2020-01-05T12:07:30.000Z</time>
      </trkpt>
      <trkpt lat="42.74922" lon="1.61298">
        <ele>1888</ele>
        <time>2020-01-05T12:07:32.000Z</time>
      </trkpt>
      <trkpt lat="42.74922" lon="1.61298">
        <ele>1888</ele>
        <time>2020-01-05T12:07:34.000Z</time>
      </trkpt>
      <trkpt lat="42.74922" lon="1.61298">
        <ele>1888</ele>
        <time>2020-01-05T12:07:36.000Z</time>
      </trkpt>
      <trkpt lat="42.74922" lon="1.61298">
        <ele>1888</ele>
        <time>2020-01-05T12:07:38.000Z</time>
      </trkpt>
      <trkpt lat="42.74922" lon="1.61298">
        <ele>1888</ele>
        <time>2020-01-05T12:07:40.000Z</time>
      </trkpt>
      <trkpt lat="42.74922" lon="1.61298">
        <ele>1888</ele>
        <time>2020-01-05T12:07:42.000Z</time>
      </trkpt>
      <trkpt lat="42.74922" lon="1.61298">
        <ele>1888</ele>
        <time>2020-01-05T12:07:44.000Z</time>
      </trkpt>
      <trkpt lat="42.74922" lon="1.61298">
        <ele>1888</ele>
        <time>2020-01-05T12:07:46.000Z</time>
      </trkpt>
      <trkpt lat="42.74922" lon="1.61298">
        <ele>1888</ele>
        <time>2020-01-05T12:07:48.000Z</time>
      </trkpt>
      <trkpt lat="42.74921" lon="1.61298">
        <ele>1888</ele>
        <time>2020-01-05T12:07:50.000Z</time>
      </trkpt>
      <trkpt lat="42.74921" lon="1.61298">
        <ele>1888</ele>
        <time>2020-01-05T12:07:52.000Z</time>
      </trkpt>
      <trkpt lat="42.74922" lon="1.61298">
        <ele>1888</ele>
        <time>2020-01-05T12:07:54.000Z</time>
      </trkpt>
      <trkpt lat="42.74922" lon="1.61298">
        <ele>1888</ele>
        <time>2020-01-05T12:07:56.000Z</time>
      </trkpt>
      <trkpt lat="42.74922" lon="1.61298">
        <ele>1888</ele>
        <time>2020-01-05T12:07:58.000Z</time>
      </trkpt>
      <trkpt lat="42.74922" lon="1.61299">
        <ele>1888</ele>
        <time>2020-01-05T12:08:00.000Z</time>
      </trkpt>
      <trkpt lat="42.74922" lon="1.61298">
        <ele>1888</ele>
        <time>2020-01-05T12:08:02.000Z</time>
      </trkpt>
      <trkpt lat="42.74922" lon="1.61298">
        <ele>1888</ele>
        <time>2020-01-05T12:08:04.000Z</time>
      </trkpt>
      <trkpt lat="42.74922" lon="1.61298">
        <ele>1888</ele>
        <time>2020-01-05T12:08:06.000Z</time>
      </trkpt>
      <trkpt lat="42.74922" lon="1.61298">
        <ele>1888</ele>
        <time>2020-01-05T12:08:08.000Z</time>
      </trkpt>
      <trkpt lat="42.74922" lon="1.61297">
        <ele>1888</ele>
        <time>2020-01-05T12:08:10.000Z</time>
      </trkpt>
      <trkpt lat="42.74922" lon="1.61297">
        <ele>1888</ele>
        <time>2020-01-05T12:08:12.000Z</time>
      </trkpt>
      <trkpt lat="42.74922" lon="1.61297">
        <ele>1888</ele>
        <time>2020-01-05T12:08:14.000Z</time>
      </trkpt>
      <trkpt lat="42.74922" lon="1.61297">
        <ele>1888</ele>
        <time>2020-01-05T12:08:16.000Z</time>
      </trkpt>
      <trkpt lat="42.74922" lon="1.61297">
        <ele>1888</ele>
        <time>2020-01-05T12:08:18.000Z</time>
      </trkpt>
      <trkpt lat="42.74922" lon="1.61296">
        <ele>1888</ele>
        <time>2020-01-05T12:08:20.000Z</time>
      </trkpt>
      <trkpt lat="42.74923" lon="1.61296">
        <ele>1888</ele>
        <time>2020-01-05T12:08:22.000Z</time>
      </trkpt>
      <trkpt lat="42.74923" lon="1.61296">
        <ele>1888</ele>
        <time>2020-01-05T12:08:24.000Z</time>
      </trkpt>
      <trkpt lat="42.74923" lon="1.61296">
        <ele>1888</ele>
        <time>2020-01-05T12:08:26.000Z</time>
      </trkpt>
      <trkpt lat="42.74923" lon="1.61296">
        <ele>1888</ele>
        <time>2020-01-05T12:08:28.000Z</time>
      </trkpt>
      <trkpt lat="42.74923" lon="1.61296">
        <ele>1888</ele>
        <time>2020-01-05T12:08:30.000Z</time>
      </trkpt>
      <trkpt lat="42.74923" lon="1.61296">
        <ele>1888</ele>
        <time>2020-01-05T12:08:32.000Z</time>
      </trkpt>
      <trkpt lat="42.74922" lon="1.61296">
        <ele>1888</ele>
        <time>2020-01-05T12:08:34.000Z</time>
      </trkpt>
      <trkpt lat="42.74922" lon="1.61296">
        <ele>1888</ele>
        <time>2020-01-05T12:08:36.000Z</time>
      </trkpt>
      <trkpt lat="42.74922" lon="1.61295">
        <ele>1888</ele>
        <time>2020-01-05T12:08:38.000Z</time>
      </trkpt>
      <trkpt lat="42.74922" lon="1.61295">
        <ele>1888</ele>
        <time>2020-01-05T12:08:40.000Z</time>
      </trkpt>
      <trkpt lat="42.74922" lon="1.61295">
        <ele>1888</ele>
        <time>2020-01-05T12:08:42.000Z</time>
      </trkpt>
      <trkpt lat="42.74922" lon="1.61295">
        <ele>1888</ele>
        <time>2020-01-05T12:08:44.000Z</time>
      </trkpt>
      <trkpt lat="42.74922" lon="1.61296">
        <ele>1888</ele>
        <time>2020-01-05T12:08:46.000Z</time>
      </trkpt>
      <trkpt lat="42.74921" lon="1.61296">
        <ele>1888</ele>
        <time>2020-01-05T12:08:48.000Z</time>
      </trkpt>
      <trkpt lat="42.74921" lon="1.61296">
        <ele>1888</ele>
        <time>2020-01-05T12:08:50.000Z</time>
      </trkpt>
      <trkpt lat="42.74921" lon="1.61296">
        <ele>1888</ele>
        <time>2020-01-05T12:08:52.000Z</time>
      </trkpt>
      <trkpt lat="42.74921" lon="1.61296">
        <ele>1888</ele>
        <time>2020-01-05T12:08:54.000Z</time>
      </trkpt>
      <trkpt lat="42.74921" lon="1.61296">
        <ele>1888</ele>
        <time>2020-01-05T12:08:56.000Z</time>
      </trkpt>
      <trkpt lat="42.74921" lon="1.61296">
        <ele>1888</ele>
        <time>2020-01-05T12:08:58.000Z</time>
      </trkpt>
      <trkpt lat="42.74922" lon="1.61296">
        <ele>1888</ele>
        <time>2020-01-05T12:09:00.000Z</time>
      </trkpt>
      <trkpt lat="42.74922" lon="1.61296">
        <ele>1888</ele>
        <time>2020-01-05T12:09:02.000Z</time>
      </trkpt>
      <trkpt lat="42.74922" lon="1.61297">
        <ele>1888</ele>
        <time>2020-01-05T12:09:04.000Z</time>
      </trkpt>
      <trkpt lat="42.74922" lon="1.61297">
        <ele>1888</ele>
        <time>2020-01-05T12:09:06.000Z</time>
      </trkpt>
      <trkpt lat="42.74922" lon="1.61297">
        <ele>1888</ele>
        <time>2020-01-05T12:09:08.000Z</time>
      </trkpt>
      <trkpt lat="42.74923" lon="1.61296">
        <ele>1888</ele>
        <time>2020-01-05T12:09:10.000Z</time>
      </trkpt>
      <trkpt lat="42.74922" lon="1.61296">
        <ele>1888</ele>
        <time>2020-01-05T12:09:12.000Z</time>
      </trkpt>
      <trkpt lat="42.74922" lon="1.61296">
        <ele>1888</ele>
        <time>2020-01-05T12:09:14.000Z</time>
      </trkpt>
      <trkpt lat="42.74922" lon="1.61297">
        <ele>1888</ele>
        <time>2020-01-05T12:09:16.000Z</time>
      </trkpt>
      <trkpt lat="42.74922" lon="1.61296">
        <ele>1888</ele>
        <time>2020-01-05T12:09:18.000Z</time>
      </trkpt>
      <trkpt lat="42.74922" lon="1.61296">
        <ele>1888</ele>
        <time>2020-01-05T12:09:20.000Z</time>
      </trkpt>
      <trkpt lat="42.74922" lon="1.61296">
        <ele>1888</ele>
        <time>2020-01-05T12:09:22.000Z</time>
      </trkpt>
      <trkpt lat="42.74922" lon="1.61296">
        <ele>1888</ele>
        <time>2020-01-05T12:09:24.000Z</time>
      </trkpt>
      <trkpt lat="42.74922" lon="1.61296">
        <ele>1888</ele>
        <time>2020-01-05T12:09:26.000Z</time>
      </trkpt>
      <trkpt lat="42.74922" lon="1.61296">
        <ele>1888</ele>
        <time>2020-01-05T12:09:28.000Z</time>
      </trkpt>
      <trkpt lat="42.74921" lon="1.61296">
        <ele>1888</ele>
        <time>2020-01-05T12:09:30.000Z</time>
      </trkpt>
      <trkpt lat="42.74921" lon="1.61296">
        <ele>1888</ele>
        <time>2020-01-05T12:09:32.000Z</time>
      </trkpt>
      <trkpt lat="42.74921" lon="1.61295">
        <ele>1888</ele>
        <time>2020-01-05T12:09:34.000Z</time>
      </trkpt>
      <trkpt lat="42.74922" lon="1.61295">
        <ele>1888</ele>
        <time>2020-01-05T12:09:36.000Z</time>
      </trkpt>
      <trkpt lat="42.74922" lon="1.61295">
        <ele>1888</ele>
        <time>2020-01-05T12:09:38.000Z</time>
      </trkpt>
      <trkpt lat="42.74922" lon="1.61295">
        <ele>1888</ele>
        <time>2020-01-05T12:09:40.000Z</time>
      </trkpt>
      <trkpt lat="42.74922" lon="1.61295">
        <ele>1888</ele>
        <time>2020-01-05T12:09:42.000Z</time>
      </trkpt>
      <trkpt lat="42.74922" lon="1.61295">
        <ele>1888</ele>
        <time>2020-01-05T12:09:44.000Z</time>
      </trkpt>
      <trkpt lat="42.74922" lon="1.61295">
        <ele>1888</ele>
        <time>2020-01-05T12:09:46.000Z</time>
      </trkpt>
      <trkpt lat="42.74922" lon="1.61295">
        <ele>1888</ele>
        <time>2020-01-05T12:09:48.000Z</time>
      </trkpt>
      <trkpt lat="42.74922" lon="1.61295">
        <ele>1888</ele>
        <time>2020-01-05T12:09:50.000Z</time>
      </trkpt>
      <trkpt lat="42.74922" lon="1.61294">
        <ele>1888</ele>
        <time>2020-01-05T12:09:52.000Z</time>
      </trkpt>
      <trkpt lat="42.74922" lon="1.61295">
        <ele>1888</ele>
        <time>2020-01-05T12:09:54.000Z</time>
      </trkpt>
      <trkpt lat="42.74922" lon="1.61295">
        <ele>1888</ele>
        <time>2020-01-05T12:09:56.000Z</time>
      </trkpt>
      <trkpt lat="42.74922" lon="1.61295">
        <ele>1888</ele>
        <time>2020-01-05T12:09:58.000Z</time>
      </trkpt>
      <trkpt lat="42.74922" lon="1.61296">
        <ele>1888</ele>
        <time>2020-01-05T12:10:00.000Z</time>
      </trkpt>
      <trkpt lat="42.74922" lon="1.61296">
        <ele>1888</ele>
        <time>2020-01-05T12:10:02.000Z</time>
      </trkpt>
      <trkpt lat="42.74922" lon="1.61296">
        <ele>1888</ele>
        <time>2020-01-05T12:10:04.000Z</time>
      </trkpt>
      <trkpt lat="42.74922" lon="1.61295">
        <ele>1888</ele>
        <time>2020-01-05T12:10:06.000Z</time>
      </trkpt>
      <trkpt lat="42.74922" lon="1.61295">
        <ele>1888</ele>
        <time>2020-01-05T12:10:08.000Z</time>
      </trkpt>
      <trkpt lat="42.74922" lon="1.61294">
        <ele>1888</ele>
        <time>2020-01-05T12:10:10.000Z</time>
      </trkpt>
      <trkpt lat="42.74923" lon="1.61294">
        <ele>1888</ele>
        <time>2020-01-05T12:10:12.000Z</time>
      </trkpt>
      <trkpt lat="42.74923" lon="1.61294">
        <ele>1888</ele>
        <time>2020-01-05T12:10:14.000Z</time>
      </trkpt>
      <trkpt lat="42.74922" lon="1.61294">
        <ele>1888</ele>
        <time>2020-01-05T12:10:16.000Z</time>
      </trkpt>
      <trkpt lat="42.74922" lon="1.61292">
        <ele>1888</ele>
        <time>2020-01-05T12:10:18.000Z</time>
      </trkpt>
      <trkpt lat="42.74922" lon="1.61292">
        <ele>1888</ele>
        <time>2020-01-05T12:10:20.000Z</time>
      </trkpt>
      <trkpt lat="42.74923" lon="1.61291">
        <ele>1888</ele>
        <time>2020-01-05T12:10:22.000Z</time>
      </trkpt>
      <trkpt lat="42.74922" lon="1.61292">
        <ele>1888</ele>
        <time>2020-01-05T12:10:24.000Z</time>
      </trkpt>
      <trkpt lat="42.74923" lon="1.61292">
        <ele>1888</ele>
        <time>2020-01-05T12:10:26.000Z</time>
      </trkpt>
      <trkpt lat="42.74923" lon="1.61291">
        <ele>1888</ele>
        <time>2020-01-05T12:10:28.000Z</time>
      </trkpt>
      <trkpt lat="42.74923" lon="1.61291">
        <ele>1889</ele>
        <time>2020-01-05T12:10:30.000Z</time>
      </trkpt>
      <trkpt lat="42.74923" lon="1.61291">
        <ele>1889</ele>
        <time>2020-01-05T12:10:32.000Z</time>
      </trkpt>
      <trkpt lat="42.74923" lon="1.61291">
        <ele>1888</ele>
        <time>2020-01-05T12:10:34.000Z</time>
      </trkpt>
      <trkpt lat="42.74923" lon="1.6129">
        <ele>1889</ele>
        <time>2020-01-05T12:10:36.000Z</time>
      </trkpt>
      <trkpt lat="42.74923" lon="1.6129">
        <ele>1888</ele>
        <time>2020-01-05T12:10:38.000Z</time>
      </trkpt>
      <trkpt lat="42.74924" lon="1.6129">
        <ele>1888</ele>
        <time>2020-01-05T12:10:40.000Z</time>
      </trkpt>
      <trkpt lat="42.74923" lon="1.61291">
        <ele>1888</ele>
        <time>2020-01-05T12:10:42.000Z</time>
      </trkpt>
      <trkpt lat="42.74923" lon="1.61291">
        <ele>1888</ele>
        <time>2020-01-05T12:10:44.000Z</time>
      </trkpt>
      <trkpt lat="42.74924" lon="1.6129">
        <ele>1888</ele>
        <time>2020-01-05T12:10:46.000Z</time>
      </trkpt>
      <trkpt lat="42.74923" lon="1.61291">
        <ele>1888</ele>
        <time>2020-01-05T12:10:48.000Z</time>
      </trkpt>
      <trkpt lat="42.74923" lon="1.61291">
        <ele>1888</ele>
        <time>2020-01-05T12:10:50.000Z</time>
      </trkpt>
      <trkpt lat="42.74923" lon="1.61291">
        <ele>1888</ele>
        <time>2020-01-05T12:10:52.000Z</time>
      </trkpt>
      <trkpt lat="42.74923" lon="1.61291">
        <ele>1888</ele>
        <time>2020-01-05T12:10:54.000Z</time>
      </trkpt>
      <trkpt lat="42.74923" lon="1.61292">
        <ele>1888</ele>
        <time>2020-01-05T12:10:56.000Z</time>
      </trkpt>
      <trkpt lat="42.74923" lon="1.61293">
        <ele>1888</ele>
        <time>2020-01-05T12:10:58.000Z</time>
      </trkpt>
      <trkpt lat="42.74923" lon="1.61293">
        <ele>1888</ele>
        <time>2020-01-05T12:11:00.000Z</time>
      </trkpt>
      <trkpt lat="42.74923" lon="1.61293">
        <ele>1888</ele>
        <time>2020-01-05T12:11:02.000Z</time>
      </trkpt>
      <trkpt lat="42.74923" lon="1.61294">
        <ele>1888</ele>
        <time>2020-01-05T12:11:04.000Z</time>
      </trkpt>
      <trkpt lat="42.74923" lon="1.61294">
        <ele>1888</ele>
        <time>2020-01-05T12:11:06.000Z</time>
      </trkpt>
      <trkpt lat="42.74922" lon="1.61294">
        <ele>1888</ele>
        <time>2020-01-05T12:11:08.000Z</time>
      </trkpt>
      <trkpt lat="42.74922" lon="1.61294">
        <ele>1888</ele>
        <time>2020-01-05T12:11:10.000Z</time>
      </trkpt>
      <trkpt lat="42.74922" lon="1.61294">
        <ele>1888</ele>
        <time>2020-01-05T12:11:12.000Z</time>
      </trkpt>
      <trkpt lat="42.74922" lon="1.61294">
        <ele>1888</ele>
        <time>2020-01-05T12:11:14.000Z</time>
      </trkpt>
      <trkpt lat="42.74922" lon="1.61294">
        <ele>1888</ele>
        <time>2020-01-05T12:11:16.000Z</time>
      </trkpt>
      <trkpt lat="42.74922" lon="1.61294">
        <ele>1888</ele>
        <time>2020-01-05T12:11:18.000Z</time>
      </trkpt>
      <trkpt lat="42.74922" lon="1.61294">
        <ele>1888</ele>
        <time>2020-01-05T12:11:20.000Z</time>
      </trkpt>
      <trkpt lat="42.74921" lon="1.61294">
        <ele>1888</ele>
        <time>2020-01-05T12:11:22.000Z</time>
      </trkpt>
      <trkpt lat="42.74921" lon="1.61294">
        <ele>1888</ele>
        <time>2020-01-05T12:11:24.000Z</time>
      </trkpt>
      <trkpt lat="42.74921" lon="1.61295">
        <ele>1888</ele>
        <time>2020-01-05T12:11:26.000Z</time>
      </trkpt>
      <trkpt lat="42.74921" lon="1.61295">
        <ele>1888</ele>
        <time>2020-01-05T12:11:28.000Z</time>
      </trkpt>
      <trkpt lat="42.7492" lon="1.61295">
        <ele>1888</ele>
        <time>2020-01-05T12:11:30.000Z</time>
      </trkpt>
      <trkpt lat="42.7492" lon="1.61295">
        <ele>1888</ele>
        <time>2020-01-05T12:11:32.000Z</time>
      </trkpt>
      <trkpt lat="42.7492" lon="1.61294">
        <ele>1888</ele>
        <time>2020-01-05T12:11:34.000Z</time>
      </trkpt>
      <trkpt lat="42.7492" lon="1.61294">
        <ele>1888</ele>
        <time>2020-01-05T12:11:36.000Z</time>
      </trkpt>
      <trkpt lat="42.74921" lon="1.61294">
        <ele>1888</ele>
        <time>2020-01-05T12:11:38.000Z</time>
      </trkpt>
      <trkpt lat="42.74921" lon="1.61295">
        <ele>1888</ele>
        <time>2020-01-05T12:11:40.000Z</time>
      </trkpt>
      <trkpt lat="42.74921" lon="1.61295">
        <ele>1888</ele>
        <time>2020-01-05T12:11:42.000Z</time>
      </trkpt>
      <trkpt lat="42.7492" lon="1.61295">
        <ele>1888</ele>
        <time>2020-01-05T12:11:44.000Z</time>
      </trkpt>
      <trkpt lat="42.7492" lon="1.61295">
        <ele>1888</ele>
        <time>2020-01-05T12:11:46.000Z</time>
      </trkpt>
      <trkpt lat="42.7492" lon="1.61295">
        <ele>1888</ele>
        <time>2020-01-05T12:11:48.000Z</time>
      </trkpt>
      <trkpt lat="42.7492" lon="1.61294">
        <ele>1888</ele>
        <time>2020-01-05T12:11:50.000Z</time>
      </trkpt>
      <trkpt lat="42.7492" lon="1.61294">
        <ele>1888</ele>
        <time>2020-01-05T12:11:52.000Z</time>
      </trkpt>
      <trkpt lat="42.7492" lon="1.61294">
        <ele>1888</ele>
        <time>2020-01-05T12:11:54.000Z</time>
      </trkpt>
      <trkpt lat="42.7492" lon="1.61294">
        <ele>1888</ele>
        <time>2020-01-05T12:11:56.000Z</time>
      </trkpt>
      <trkpt lat="42.7492" lon="1.61294">
        <ele>1888</ele>
        <time>2020-01-05T12:11:58.000Z</time>
      </trkpt>
      <trkpt lat="42.74921" lon="1.61293">
        <ele>1888</ele>
        <time>2020-01-05T12:12:00.000Z</time>
      </trkpt>
      <trkpt lat="42.74921" lon="1.61293">
        <ele>1888</ele>
        <time>2020-01-05T12:12:02.000Z</time>
      </trkpt>
      <trkpt lat="42.74921" lon="1.61293">
        <ele>1888</ele>
        <time>2020-01-05T12:12:04.000Z</time>
      </trkpt>
      <trkpt lat="42.7492" lon="1.61294">
        <ele>1888</ele>
        <time>2020-01-05T12:12:06.000Z</time>
      </trkpt>
      <trkpt lat="42.7492" lon="1.61294">
        <ele>1888</ele>
        <time>2020-01-05T12:12:08.000Z</time>
      </trkpt>
      <trkpt lat="42.7492" lon="1.61294">
        <ele>1888</ele>
        <time>2020-01-05T12:12:10.000Z</time>
      </trkpt>
      <trkpt lat="42.7492" lon="1.61294">
        <ele>1888</ele>
        <time>2020-01-05T12:12:12.000Z</time>
      </trkpt>
      <trkpt lat="42.7492" lon="1.61293">
        <ele>1888</ele>
        <time>2020-01-05T12:12:14.000Z</time>
      </trkpt>
      <trkpt lat="42.7492" lon="1.61293">
        <ele>1888</ele>
        <time>2020-01-05T12:12:16.000Z</time>
      </trkpt>
      <trkpt lat="42.7492" lon="1.61293">
        <ele>1888</ele>
        <time>2020-01-05T12:12:18.000Z</time>
      </trkpt>
      <trkpt lat="42.7492" lon="1.61292">
        <ele>1889</ele>
        <time>2020-01-05T12:12:20.000Z</time>
      </trkpt>
      <trkpt lat="42.74921" lon="1.61291">
        <ele>1889</ele>
        <time>2020-01-05T12:12:22.000Z</time>
      </trkpt>
      <trkpt lat="42.74921" lon="1.61291">
        <ele>1889</ele>
        <time>2020-01-05T12:12:24.000Z</time>
      </trkpt>
      <trkpt lat="42.74921" lon="1.61292">
        <ele>1889</ele>
        <time>2020-01-05T12:12:26.000Z</time>
      </trkpt>
      <trkpt lat="42.74921" lon="1.61292">
        <ele>1889</ele>
        <time>2020-01-05T12:12:28.000Z</time>
      </trkpt>
      <trkpt lat="42.74921" lon="1.61291">
        <ele>1889</ele>
        <time>2020-01-05T12:12:30.000Z</time>
      </trkpt>
      <trkpt lat="42.74921" lon="1.61292">
        <ele>1889</ele>
        <time>2020-01-05T12:12:32.000Z</time>
      </trkpt>
      <trkpt lat="42.74921" lon="1.61291">
        <ele>1889</ele>
        <time>2020-01-05T12:12:34.000Z</time>
      </trkpt>
      <trkpt lat="42.74921" lon="1.61292">
        <ele>1889</ele>
        <time>2020-01-05T12:12:36.000Z</time>
      </trkpt>
      <trkpt lat="42.74921" lon="1.61292">
        <ele>1889</ele>
        <time>2020-01-05T12:12:38.000Z</time>
      </trkpt>
      <trkpt lat="42.74921" lon="1.61292">
        <ele>1889</ele>
        <time>2020-01-05T12:12:40.000Z</time>
      </trkpt>
      <trkpt lat="42.7492" lon="1.61292">
        <ele>1888</ele>
        <time>2020-01-05T12:12:42.000Z</time>
      </trkpt>
      <trkpt lat="42.7492" lon="1.61293">
        <ele>1888</ele>
        <time>2020-01-05T12:12:44.000Z</time>
      </trkpt>
      <trkpt lat="42.7492" lon="1.61294">
        <ele>1888</ele>
        <time>2020-01-05T12:12:46.000Z</time>
      </trkpt>
      <trkpt lat="42.7492" lon="1.61294">
        <ele>1888</ele>
        <time>2020-01-05T12:12:48.000Z</time>
      </trkpt>
      <trkpt lat="42.7492" lon="1.61294">
        <ele>1888</ele>
        <time>2020-01-05T12:12:50.000Z</time>
      </trkpt>
      <trkpt lat="42.7492" lon="1.61295">
        <ele>1888</ele>
        <time>2020-01-05T12:12:52.000Z</time>
      </trkpt>
      <trkpt lat="42.7492" lon="1.61295">
        <ele>1888</ele>
        <time>2020-01-05T12:12:54.000Z</time>
      </trkpt>
      <trkpt lat="42.7492" lon="1.61295">
        <ele>1888</ele>
        <time>2020-01-05T12:12:56.000Z</time>
      </trkpt>
      <trkpt lat="42.7492" lon="1.61295">
        <ele>1888</ele>
        <time>2020-01-05T12:12:58.000Z</time>
      </trkpt>
      <trkpt lat="42.7492" lon="1.61295">
        <ele>1888</ele>
        <time>2020-01-05T12:13:00.000Z</time>
      </trkpt>
      <trkpt lat="42.7492" lon="1.61295">
        <ele>1888</ele>
        <time>2020-01-05T12:13:02.000Z</time>
      </trkpt>
      <trkpt lat="42.7492" lon="1.61295">
        <ele>1888</ele>
        <time>2020-01-05T12:13:04.000Z</time>
      </trkpt>
      <trkpt lat="42.74921" lon="1.61294">
        <ele>1888</ele>
        <time>2020-01-05T12:13:06.000Z</time>
      </trkpt>
      <trkpt lat="42.74921" lon="1.61294">
        <ele>1888</ele>
        <time>2020-01-05T12:13:08.000Z</time>
      </trkpt>
      <trkpt lat="42.74921" lon="1.61294">
        <ele>1888</ele>
        <time>2020-01-05T12:13:10.000Z</time>
      </trkpt>
      <trkpt lat="42.74921" lon="1.61294">
        <ele>1888</ele>
        <time>2020-01-05T12:13:12.000Z</time>
      </trkpt>
      <trkpt lat="42.74921" lon="1.61294">
        <ele>1888</ele>
        <time>2020-01-05T12:13:14.000Z</time>
      </trkpt>
      <trkpt lat="42.74921" lon="1.61294">
        <ele>1888</ele>
        <time>2020-01-05T12:13:16.000Z</time>
      </trkpt>
      <trkpt lat="42.74921" lon="1.61295">
        <ele>1888</ele>
        <time>2020-01-05T12:13:18.000Z</time>
      </trkpt>
      <trkpt lat="42.74921" lon="1.61295">
        <ele>1888</ele>
        <time>2020-01-05T12:13:20.000Z</time>
      </trkpt>
      <trkpt lat="42.7492" lon="1.61295">
        <ele>1888</ele>
        <time>2020-01-05T12:13:22.000Z</time>
      </trkpt>
      <trkpt lat="42.7492" lon="1.61295">
        <ele>1888</ele>
        <time>2020-01-05T12:13:24.000Z</time>
      </trkpt>
      <trkpt lat="42.7492" lon="1.61296">
        <ele>1888</ele>
        <time>2020-01-05T12:13:26.000Z</time>
      </trkpt>
      <trkpt lat="42.7492" lon="1.61296">
        <ele>1888</ele>
        <time>2020-01-05T12:13:28.000Z</time>
      </trkpt>
      <trkpt lat="42.74919" lon="1.61296">
        <ele>1888</ele>
        <time>2020-01-05T12:13:30.000Z</time>
      </trkpt>
      <trkpt lat="42.74919" lon="1.61296">
        <ele>1888</ele>
        <time>2020-01-05T12:13:32.000Z</time>
      </trkpt>
      <trkpt lat="42.74919" lon="1.61296">
        <ele>1888</ele>
        <time>2020-01-05T12:13:34.000Z</time>
      </trkpt>
      <trkpt lat="42.74918" lon="1.61296">
        <ele>1888</ele>
        <time>2020-01-05T12:13:36.000Z</time>
      </trkpt>
      <trkpt lat="42.74918" lon="1.61296">
        <ele>1888</ele>
        <time>2020-01-05T12:13:38.000Z</time>
      </trkpt>
      <trkpt lat="42.74918" lon="1.61296">
        <ele>1888</ele>
        <time>2020-01-05T12:13:40.000Z</time>
      </trkpt>
      <trkpt lat="42.74918" lon="1.61296">
        <ele>1888</ele>
        <time>2020-01-05T12:13:42.000Z</time>
      </trkpt>
      <trkpt lat="42.74919" lon="1.61296">
        <ele>1888</ele>
        <time>2020-01-05T12:13:44.000Z</time>
      </trkpt>
      <trkpt lat="42.74919" lon="1.61296">
        <ele>1888</ele>
        <time>2020-01-05T12:13:46.000Z</time>
      </trkpt>
      <trkpt lat="42.74919" lon="1.61296">
        <ele>1888</ele>
        <time>2020-01-05T12:13:48.000Z</time>
      </trkpt>
      <trkpt lat="42.74919" lon="1.61296">
        <ele>1888</ele>
        <time>2020-01-05T12:13:50.000Z</time>
      </trkpt>
      <trkpt lat="42.74919" lon="1.61296">
        <ele>1888</ele>
        <time>2020-01-05T12:13:52.000Z</time>
      </trkpt>
      <trkpt lat="42.74918" lon="1.61296">
        <ele>1888</ele>
        <time>2020-01-05T12:13:54.000Z</time>
      </trkpt>
      <trkpt lat="42.74919" lon="1.61296">
        <ele>1888</ele>
        <time>2020-01-05T12:13:56.000Z</time>
      </trkpt>
      <trkpt lat="42.74918" lon="1.61296">
        <ele>1888</ele>
        <time>2020-01-05T12:13:58.000Z</time>
      </trkpt>
      <trkpt lat="42.74918" lon="1.61296">
        <ele>1888</ele>
        <time>2020-01-05T12:14:00.000Z</time>
      </trkpt>
      <trkpt lat="42.74918" lon="1.61297">
        <ele>1888</ele>
        <time>2020-01-05T12:14:02.000Z</time>
      </trkpt>
      <trkpt lat="42.74918" lon="1.61297">
        <ele>1888</ele>
        <time>2020-01-05T12:14:04.000Z</time>
      </trkpt>
      <trkpt lat="42.74919" lon="1.61297">
        <ele>1888</ele>
        <time>2020-01-05T12:14:06.000Z</time>
      </trkpt>
      <trkpt lat="42.74919" lon="1.61297">
        <ele>1888</ele>
        <time>2020-01-05T12:14:08.000Z</time>
      </trkpt>
      <trkpt lat="42.74919" lon="1.61297">
        <ele>1888</ele>
        <time>2020-01-05T12:14:10.000Z</time>
      </trkpt>
      <trkpt lat="42.74919" lon="1.61297">
        <ele>1888</ele>
        <time>2020-01-05T12:14:12.000Z</time>
      </trkpt>
      <trkpt lat="42.74918" lon="1.61297">
        <ele>1888</ele>
        <time>2020-01-05T12:14:14.000Z</time>
      </trkpt>
      <trkpt lat="42.74918" lon="1.61297">
        <ele>1888</ele>
        <time>2020-01-05T12:14:16.000Z</time>
      </trkpt>
      <trkpt lat="42.74919" lon="1.61296">
        <ele>1888</ele>
        <time>2020-01-05T12:14:18.000Z</time>
      </trkpt>
      <trkpt lat="42.74919" lon="1.61297">
        <ele>1888</ele>
        <time>2020-01-05T12:14:20.000Z</time>
      </trkpt>
      <trkpt lat="42.74919" lon="1.61297">
        <ele>1888</ele>
        <time>2020-01-05T12:14:22.000Z</time>
      </trkpt>
      <trkpt lat="42.74918" lon="1.61297">
        <ele>1888</ele>
        <time>2020-01-05T12:14:24.000Z</time>
      </trkpt>
      <trkpt lat="42.74918" lon="1.61297">
        <ele>1888</ele>
        <time>2020-01-05T12:14:26.000Z</time>
      </trkpt>
      <trkpt lat="42.74919" lon="1.61297">
        <ele>1888</ele>
        <time>2020-01-05T12:14:28.000Z</time>
      </trkpt>
      <trkpt lat="42.74919" lon="1.61296">
        <ele>1888</ele>
        <time>2020-01-05T12:14:30.000Z</time>
      </trkpt>
      <trkpt lat="42.7492" lon="1.61296">
        <ele>1888</ele>
        <time>2020-01-05T12:14:32.000Z</time>
      </trkpt>
      <trkpt lat="42.7492" lon="1.61295">
        <ele>1888</ele>
        <time>2020-01-05T12:14:34.000Z</time>
      </trkpt>
      <trkpt lat="42.7492" lon="1.61295">
        <ele>1888</ele>
        <time>2020-01-05T12:14:36.000Z</time>
      </trkpt>
      <trkpt lat="42.7492" lon="1.61294">
        <ele>1888</ele>
        <time>2020-01-05T12:14:38.000Z</time>
      </trkpt>
      <trkpt lat="42.74919" lon="1.61294">
        <ele>1888</ele>
        <time>2020-01-05T12:14:40.000Z</time>
      </trkpt>
      <trkpt lat="42.74919" lon="1.61294">
        <ele>1888</ele>
        <time>2020-01-05T12:14:42.000Z</time>
      </trkpt>
      <trkpt lat="42.74919" lon="1.61294">
        <ele>1888</ele>
        <time>2020-01-05T12:14:44.000Z</time>
      </trkpt>
      <trkpt lat="42.7492" lon="1.61294">
        <ele>1888</ele>
        <time>2020-01-05T12:14:46.000Z</time>
      </trkpt>
      <trkpt lat="42.7492" lon="1.61294">
        <ele>1888</ele>
        <time>2020-01-05T12:14:48.000Z</time>
      </trkpt>
      <trkpt lat="42.7492" lon="1.61294">
        <ele>1888</ele>
        <time>2020-01-05T12:14:50.000Z</time>
      </trkpt>
      <trkpt lat="42.74921" lon="1.61294">
        <ele>1888</ele>
        <time>2020-01-05T12:14:52.000Z</time>
      </trkpt>
      <trkpt lat="42.74921" lon="1.61294">
        <ele>1888</ele>
        <time>2020-01-05T12:14:54.000Z</time>
      </trkpt>
      <trkpt lat="42.74921" lon="1.61293">
        <ele>1888</ele>
        <time>2020-01-05T12:14:56.000Z</time>
      </trkpt>
      <trkpt lat="42.74921" lon="1.61293">
        <ele>1889</ele>
        <time>2020-01-05T12:14:58.000Z</time>
      </trkpt>
      <trkpt lat="42.7492" lon="1.61293">
        <ele>1888</ele>
        <time>2020-01-05T12:15:00.000Z</time>
      </trkpt>
      <trkpt lat="42.7492" lon="1.61293">
        <ele>1888</ele>
        <time>2020-01-05T12:15:02.000Z</time>
      </trkpt>
      <trkpt lat="42.7492" lon="1.61292">
        <ele>1888</ele>
        <time>2020-01-05T12:15:04.000Z</time>
      </trkpt>
      <trkpt lat="42.7492" lon="1.61292">
        <ele>1888</ele>
        <time>2020-01-05T12:15:06.000Z</time>
      </trkpt>
      <trkpt lat="42.7492" lon="1.61292">
        <ele>1888</ele>
        <time>2020-01-05T12:15:08.000Z</time>
      </trkpt>
      <trkpt lat="42.74921" lon="1.61292">
        <ele>1889</ele>
        <time>2020-01-05T12:15:10.000Z</time>
      </trkpt>
      <trkpt lat="42.7492" lon="1.61293">
        <ele>1888</ele>
        <time>2020-01-05T12:15:12.000Z</time>
      </trkpt>
      <trkpt lat="42.74921" lon="1.61293">
        <ele>1889</ele>
        <time>2020-01-05T12:15:14.000Z</time>
      </trkpt>
      <trkpt lat="42.7492" lon="1.61293">
        <ele>1888</ele>
        <time>2020-01-05T12:15:16.000Z</time>
      </trkpt>
      <trkpt lat="42.7492" lon="1.61293">
        <ele>1888</ele>
        <time>2020-01-05T12:15:18.000Z</time>
      </trkpt>
      <trkpt lat="42.7492" lon="1.61292">
        <ele>1888</ele>
        <time>2020-01-05T12:15:20.000Z</time>
      </trkpt>
      <trkpt lat="42.7492" lon="1.61292">
        <ele>1888</ele>
        <time>2020-01-05T12:15:22.000Z</time>
      </trkpt>
      <trkpt lat="42.7492" lon="1.61292">
        <ele>1888</ele>
        <time>2020-01-05T12:15:24.000Z</time>
      </trkpt>
      <trkpt lat="42.74919" lon="1.61293">
        <ele>1888</ele>
        <time>2020-01-05T12:15:26.000Z</time>
      </trkpt>
      <trkpt lat="42.74919" lon="1.61293">
        <ele>1888</ele>
        <time>2020-01-05T12:15:28.000Z</time>
      </trkpt>
      <trkpt lat="42.74919" lon="1.61293">
        <ele>1888</ele>
        <time>2020-01-05T12:15:30.000Z</time>
      </trkpt>
      <trkpt lat="42.74918" lon="1.61293">
        <ele>1888</ele>
        <time>2020-01-05T12:15:32.000Z</time>
      </trkpt>
      <trkpt lat="42.74918" lon="1.61293">
        <ele>1888</ele>
        <time>2020-01-05T12:15:34.000Z</time>
      </trkpt>
      <trkpt lat="42.74918" lon="1.61293">
        <ele>1888</ele>
        <time>2020-01-05T12:15:36.000Z</time>
      </trkpt>
      <trkpt lat="42.74919" lon="1.61293">
        <ele>1888</ele>
        <time>2020-01-05T12:15:38.000Z</time>
      </trkpt>
      <trkpt lat="42.74919" lon="1.61293">
        <ele>1888</ele>
        <time>2020-01-05T12:15:40.000Z</time>
      </trkpt>
      <trkpt lat="42.74919" lon="1.61293">
        <ele>1888</ele>
        <time>2020-01-05T12:15:42.000Z</time>
      </trkpt>
      <trkpt lat="42.74919" lon="1.61294">
        <ele>1888</ele>
        <time>2020-01-05T12:15:44.000Z</time>
      </trkpt>
      <trkpt lat="42.74919" lon="1.61294">
        <ele>1888</ele>
        <time>2020-01-05T12:15:46.000Z</time>
      </trkpt>
      <trkpt lat="42.74919" lon="1.61295">
        <ele>1888</ele>
        <time>2020-01-05T12:15:48.000Z</time>
      </trkpt>
      <trkpt lat="42.74919" lon="1.61295">
        <ele>1888</ele>
        <time>2020-01-05T12:15:50.000Z</time>
      </trkpt>
      <trkpt lat="42.74919" lon="1.61295">
        <ele>1888</ele>
        <time>2020-01-05T12:15:52.000Z</time>
      </trkpt>
      <trkpt lat="42.7492" lon="1.61295">
        <ele>1888</ele>
        <time>2020-01-05T12:15:54.000Z</time>
      </trkpt>
      <trkpt lat="42.74919" lon="1.61294">
        <ele>1888</ele>
        <time>2020-01-05T12:15:56.000Z</time>
      </trkpt>
      <trkpt lat="42.74919" lon="1.61294">
        <ele>1888</ele>
        <time>2020-01-05T12:15:58.000Z</time>
      </trkpt>
      <trkpt lat="42.74919" lon="1.61294">
        <ele>1888</ele>
        <time>2020-01-05T12:16:00.000Z</time>
      </trkpt>
      <trkpt lat="42.74919" lon="1.61293">
        <ele>1888</ele>
        <time>2020-01-05T12:16:02.000Z</time>
      </trkpt>
      <trkpt lat="42.74919" lon="1.61293">
        <ele>1888</ele>
        <time>2020-01-05T12:16:04.000Z</time>
      </trkpt>
      <trkpt lat="42.7492" lon="1.61294">
        <ele>1888</ele>
        <time>2020-01-05T12:16:06.000Z</time>
      </trkpt>
      <trkpt lat="42.7492" lon="1.61294">
        <ele>1888</ele>
        <time>2020-01-05T12:16:08.000Z</time>
      </trkpt>
      <trkpt lat="42.74921" lon="1.61294">
        <ele>1888</ele>
        <time>2020-01-05T12:16:10.000Z</time>
      </trkpt>
      <trkpt lat="42.74921" lon="1.61295">
        <ele>1888</ele>
        <time>2020-01-05T12:16:12.000Z</time>
      </trkpt>
      <trkpt lat="42.74921" lon="1.61295">
        <ele>1888</ele>
        <time>2020-01-05T12:16:14.000Z</time>
      </trkpt>
      <trkpt lat="42.74921" lon="1.61295">
        <ele>1888</ele>
        <time>2020-01-05T12:16:16.000Z</time>
      </trkpt>
      <trkpt lat="42.74921" lon="1.61294">
        <ele>1888</ele>
        <time>2020-01-05T12:16:18.000Z</time>
      </trkpt>
      <trkpt lat="42.74921" lon="1.61295">
        <ele>1888</ele>
        <time>2020-01-05T12:16:20.000Z</time>
      </trkpt>
      <trkpt lat="42.74921" lon="1.61295">
        <ele>1888</ele>
        <time>2020-01-05T12:16:22.000Z</time>
      </trkpt>
      <trkpt lat="42.74921" lon="1.61295">
        <ele>1888</ele>
        <time>2020-01-05T12:16:24.000Z</time>
      </trkpt>
      <trkpt lat="42.74921" lon="1.61295">
        <ele>1888</ele>
        <time>2020-01-05T12:16:26.000Z</time>
      </trkpt>
      <trkpt lat="42.74921" lon="1.61295">
        <ele>1888</ele>
        <time>2020-01-05T12:16:28.000Z</time>
      </trkpt>
      <trkpt lat="42.7492" lon="1.61296">
        <ele>1888</ele>
        <time>2020-01-05T12:16:30.000Z</time>
      </trkpt>
      <trkpt lat="42.7492" lon="1.61296">
        <ele>1888</ele>
        <time>2020-01-05T12:16:32.000Z</time>
      </trkpt>
      <trkpt lat="42.7492" lon="1.61296">
        <ele>1888</ele>
        <time>2020-01-05T12:16:34.000Z</time>
      </trkpt>
      <trkpt lat="42.7492" lon="1.61296">
        <ele>1888</ele>
        <time>2020-01-05T12:16:36.000Z</time>
      </trkpt>
      <trkpt lat="42.7492" lon="1.61296">
        <ele>1888</ele>
        <time>2020-01-05T12:16:38.000Z</time>
      </trkpt>
      <trkpt lat="42.7492" lon="1.61296">
        <ele>1888</ele>
        <time>2020-01-05T12:16:40.000Z</time>
      </trkpt>
      <trkpt lat="42.7492" lon="1.61296">
        <ele>1888</ele>
        <time>2020-01-05T12:16:42.000Z</time>
      </trkpt>
      <trkpt lat="42.74919" lon="1.61296">
        <ele>1888</ele>
        <time>2020-01-05T12:16:44.000Z</time>
      </trkpt>
      <trkpt lat="42.74919" lon="1.61296">
        <ele>1888</ele>
        <time>2020-01-05T12:16:46.000Z</time>
      </trkpt>
      <trkpt lat="42.74919" lon="1.61296">
        <ele>1888</ele>
        <time>2020-01-05T12:16:48.000Z</time>
      </trkpt>
      <trkpt lat="42.74919" lon="1.61296">
        <ele>1888</ele>
        <time>2020-01-05T12:16:50.000Z</time>
      </trkpt>
      <trkpt lat="42.74919" lon="1.61297">
        <ele>1888</ele>
        <time>2020-01-05T12:16:52.000Z</time>
      </trkpt>
      <trkpt lat="42.74919" lon="1.61297">
        <ele>1888</ele>
        <time>2020-01-05T12:16:54.000Z</time>
      </trkpt>
      <trkpt lat="42.74919" lon="1.61297">
        <ele>1888</ele>
        <time>2020-01-05T12:16:56.000Z</time>
      </trkpt>
      <trkpt lat="42.74918" lon="1.61297">
        <ele>1888</ele>
        <time>2020-01-05T12:16:58.000Z</time>
      </trkpt>
      <trkpt lat="42.74918" lon="1.61297">
        <ele>1888</ele>
        <time>2020-01-05T12:17:00.000Z</time>
      </trkpt>
      <trkpt lat="42.74918" lon="1.61297">
        <ele>1888</ele>
        <time>2020-01-05T12:17:02.000Z</time>
      </trkpt>
      <trkpt lat="42.74918" lon="1.61296">
        <ele>1888</ele>
        <time>2020-01-05T12:17:04.000Z</time>
      </trkpt>
      <trkpt lat="42.74918" lon="1.61296">
        <ele>1888</ele>
        <time>2020-01-05T12:17:06.000Z</time>
      </trkpt>
      <trkpt lat="42.74918" lon="1.61296">
        <ele>1888</ele>
        <time>2020-01-05T12:17:08.000Z</time>
      </trkpt>
      <trkpt lat="42.74918" lon="1.61296">
        <ele>1888</ele>
        <time>2020-01-05T12:17:10.000Z</time>
      </trkpt>
      <trkpt lat="42.74918" lon="1.61296">
        <ele>1888</ele>
        <time>2020-01-05T12:17:12.000Z</time>
      </trkpt>
      <trkpt lat="42.74918" lon="1.61296">
        <ele>1888</ele>
        <time>2020-01-05T12:17:14.000Z</time>
      </trkpt>
      <trkpt lat="42.74918" lon="1.61296">
        <ele>1888</ele>
        <time>2020-01-05T12:17:16.000Z</time>
      </trkpt>
      <trkpt lat="42.74918" lon="1.61296">
        <ele>1888</ele>
        <time>2020-01-05T12:17:18.000Z</time>
      </trkpt>
      <trkpt lat="42.74918" lon="1.61296">
        <ele>1888</ele>
        <time>2020-01-05T12:17:20.000Z</time>
      </trkpt>
      <trkpt lat="42.74918" lon="1.61296">
        <ele>1888</ele>
        <time>2020-01-05T12:17:22.000Z</time>
      </trkpt>
      <trkpt lat="42.74918" lon="1.61296">
        <ele>1888</ele>
        <time>2020-01-05T12:17:24.000Z</time>
      </trkpt>
      <trkpt lat="42.74919" lon="1.61296">
        <ele>1888</ele>
        <time>2020-01-05T12:17:26.000Z</time>
      </trkpt>
      <trkpt lat="42.74919" lon="1.61296">
        <ele>1888</ele>
        <time>2020-01-05T12:17:28.000Z</time>
      </trkpt>
      <trkpt lat="42.74919" lon="1.61296">
        <ele>1888</ele>
        <time>2020-01-05T12:17:30.000Z</time>
      </trkpt>
      <trkpt lat="42.74919" lon="1.61296">
        <ele>1888</ele>
        <time>2020-01-05T12:17:32.000Z</time>
      </trkpt>
      <trkpt lat="42.74919" lon="1.61296">
        <ele>1888</ele>
        <time>2020-01-05T12:17:34.000Z</time>
      </trkpt>
      <trkpt lat="42.74922" lon="1.61295">
        <ele>1888</ele>
        <time>2020-01-05T12:17:36.000Z</time>
      </trkpt>
      <trkpt lat="42.74922" lon="1.61295">
        <ele>1888</ele>
        <time>2020-01-05T12:17:38.000Z</time>
      </trkpt>
      <trkpt lat="42.74921" lon="1.61296">
        <ele>1888</ele>
        <time>2020-01-05T12:17:40.000Z</time>
      </trkpt>
      <trkpt lat="42.74921" lon="1.61296">
        <ele>1888</ele>
        <time>2020-01-05T12:17:42.000Z</time>
      </trkpt>
      <trkpt lat="42.74921" lon="1.61297">
        <ele>1888</ele>
        <time>2020-01-05T12:17:44.000Z</time>
      </trkpt>
      <trkpt lat="42.74921" lon="1.61297">
        <ele>1888</ele>
        <time>2020-01-05T12:17:46.000Z</time>
      </trkpt>
      <trkpt lat="42.74921" lon="1.61297">
        <ele>1888</ele>
        <time>2020-01-05T12:17:48.000Z</time>
      </trkpt>
      <trkpt lat="42.74921" lon="1.61297">
        <ele>1888</ele>
        <time>2020-01-05T12:17:50.000Z</time>
      </trkpt>
      <trkpt lat="42.74921" lon="1.61296">
        <ele>1888</ele>
        <time>2020-01-05T12:17:52.000Z</time>
      </trkpt>
      <trkpt lat="42.74921" lon="1.61296">
        <ele>1888</ele>
        <time>2020-01-05T12:17:54.000Z</time>
      </trkpt>
      <trkpt lat="42.74921" lon="1.61296">
        <ele>1888</ele>
        <time>2020-01-05T12:17:56.000Z</time>
      </trkpt>
      <trkpt lat="42.74921" lon="1.61296">
        <ele>1888</ele>
        <time>2020-01-05T12:17:58.000Z</time>
      </trkpt>
      <trkpt lat="42.74921" lon="1.61296">
        <ele>1888</ele>
        <time>2020-01-05T12:18:00.000Z</time>
      </trkpt>
      <trkpt lat="42.74921" lon="1.61296">
        <ele>1888</ele>
        <time>2020-01-05T12:18:02.000Z</time>
      </trkpt>
      <trkpt lat="42.74921" lon="1.61297">
        <ele>1888</ele>
        <time>2020-01-05T12:18:04.000Z</time>
      </trkpt>
      <trkpt lat="42.74921" lon="1.61297">
        <ele>1888</ele>
        <time>2020-01-05T12:18:06.000Z</time>
      </trkpt>
      <trkpt lat="42.74921" lon="1.61297">
        <ele>1888</ele>
        <time>2020-01-05T12:18:08.000Z</time>
      </trkpt>
      <trkpt lat="42.74921" lon="1.61297">
        <ele>1888</ele>
        <time>2020-01-05T12:18:10.000Z</time>
      </trkpt>
      <trkpt lat="42.74921" lon="1.61297">
        <ele>1888</ele>
        <time>2020-01-05T12:18:12.000Z</time>
      </trkpt>
      <trkpt lat="42.74921" lon="1.61297">
        <ele>1888</ele>
        <time>2020-01-05T12:18:14.000Z</time>
      </trkpt>
      <trkpt lat="42.74921" lon="1.61297">
        <ele>1888</ele>
        <time>2020-01-05T12:18:16.000Z</time>
      </trkpt>
      <trkpt lat="42.74921" lon="1.61296">
        <ele>1888</ele>
        <time>2020-01-05T12:18:18.000Z</time>
      </trkpt>
      <trkpt lat="42.74921" lon="1.61296">
        <ele>1888</ele>
        <time>2020-01-05T12:18:20.000Z</time>
      </trkpt>
      <trkpt lat="42.74921" lon="1.61296">
        <ele>1888</ele>
        <time>2020-01-05T12:18:22.000Z</time>
      </trkpt>
      <trkpt lat="42.74921" lon="1.61296">
        <ele>1888</ele>
        <time>2020-01-05T12:18:24.000Z</time>
      </trkpt>
      <trkpt lat="42.74921" lon="1.61296">
        <ele>1888</ele>
        <time>2020-01-05T12:18:26.000Z</time>
      </trkpt>
      <trkpt lat="42.74921" lon="1.61296">
        <ele>1888</ele>
        <time>2020-01-05T12:18:28.000Z</time>
      </trkpt>
      <trkpt lat="42.74921" lon="1.61296">
        <ele>1888</ele>
        <time>2020-01-05T12:18:30.000Z</time>
      </trkpt>
      <trkpt lat="42.74921" lon="1.61296">
        <ele>1888</ele>
        <time>2020-01-05T12:18:32.000Z</time>
      </trkpt>
      <trkpt lat="42.74921" lon="1.61296">
        <ele>1888</ele>
        <time>2020-01-05T12:18:34.000Z</time>
      </trkpt>
      <trkpt lat="42.74921" lon="1.61296">
        <ele>1888</ele>
        <time>2020-01-05T12:18:36.000Z</time>
      </trkpt>
      <trkpt lat="42.74921" lon="1.61296">
        <ele>1888</ele>
        <time>2020-01-05T12:18:38.000Z</time>
      </trkpt>
      <trkpt lat="42.74921" lon="1.61296">
        <ele>1888</ele>
        <time>2020-01-05T12:18:40.000Z</time>
      </trkpt>
      <trkpt lat="42.74921" lon="1.61296">
        <ele>1888</ele>
        <time>2020-01-05T12:18:42.000Z</time>
      </trkpt>
      <trkpt lat="42.74921" lon="1.61296">
        <ele>1888</ele>
        <time>2020-01-05T12:18:44.000Z</time>
      </trkpt>
      <trkpt lat="42.7492" lon="1.61296">
        <ele>1888</ele>
        <time>2020-01-05T12:18:46.000Z</time>
      </trkpt>
      <trkpt lat="42.7492" lon="1.61296">
        <ele>1888</ele>
        <time>2020-01-05T12:18:48.000Z</time>
      </trkpt>
      <trkpt lat="42.7492" lon="1.61296">
        <ele>1888</ele>
        <time>2020-01-05T12:18:50.000Z</time>
      </trkpt>
      <trkpt lat="42.74921" lon="1.61296">
        <ele>1888</ele>
        <time>2020-01-05T12:18:52.000Z</time>
      </trkpt>
      <trkpt lat="42.74921" lon="1.61296">
        <ele>1888</ele>
        <time>2020-01-05T12:18:54.000Z</time>
      </trkpt>
      <trkpt lat="42.74921" lon="1.61296">
        <ele>1888</ele>
        <time>2020-01-05T12:18:56.000Z</time>
      </trkpt>
      <trkpt lat="42.74921" lon="1.61296">
        <ele>1888</ele>
        <time>2020-01-05T12:18:58.000Z</time>
      </trkpt>
      <trkpt lat="42.7492" lon="1.61297">
        <ele>1888</ele>
        <time>2020-01-05T12:19:00.000Z</time>
      </trkpt>
      <trkpt lat="42.74921" lon="1.61297">
        <ele>1888</ele>
        <time>2020-01-05T12:19:02.000Z</time>
      </trkpt>
      <trkpt lat="42.74921" lon="1.61297">
        <ele>1888</ele>
        <time>2020-01-05T12:19:04.000Z</time>
      </trkpt>
      <trkpt lat="42.74921" lon="1.61297">
        <ele>1888</ele>
        <time>2020-01-05T12:19:06.000Z</time>
      </trkpt>
      <trkpt lat="42.74921" lon="1.61297">
        <ele>1888</ele>
        <time>2020-01-05T12:19:08.000Z</time>
      </trkpt>
      <trkpt lat="42.7492" lon="1.61297">
        <ele>1888</ele>
        <time>2020-01-05T12:19:10.000Z</time>
      </trkpt>
      <trkpt lat="42.7492" lon="1.61297">
        <ele>1888</ele>
        <time>2020-01-05T12:19:12.000Z</time>
      </trkpt>
      <trkpt lat="42.7492" lon="1.61297">
        <ele>1888</ele>
        <time>2020-01-05T12:19:14.000Z</time>
      </trkpt>
      <trkpt lat="42.7492" lon="1.61297">
        <ele>1888</ele>
        <time>2020-01-05T12:19:16.000Z</time>
      </trkpt>
      <trkpt lat="42.7492" lon="1.61297">
        <ele>1888</ele>
        <time>2020-01-05T12:19:18.000Z</time>
      </trkpt>
      <trkpt lat="42.7492" lon="1.61298">
        <ele>1888</ele>
        <time>2020-01-05T12:19:20.000Z</time>
      </trkpt>
      <trkpt lat="42.7492" lon="1.61298">
        <ele>1888</ele>
        <time>2020-01-05T12:19:22.000Z</time>
      </trkpt>
      <trkpt lat="42.7492" lon="1.61298">
        <ele>1888</ele>
        <time>2020-01-05T12:19:24.000Z</time>
      </trkpt>
      <trkpt lat="42.7492" lon="1.61298">
        <ele>1888</ele>
        <time>2020-01-05T12:19:26.000Z</time>
      </trkpt>
      <trkpt lat="42.7492" lon="1.61298">
        <ele>1888</ele>
        <time>2020-01-05T12:19:28.000Z</time>
      </trkpt>
      <trkpt lat="42.7492" lon="1.61298">
        <ele>1888</ele>
        <time>2020-01-05T12:19:30.000Z</time>
      </trkpt>
      <trkpt lat="42.7492" lon="1.61298">
        <ele>1888</ele>
        <time>2020-01-05T12:19:32.000Z</time>
      </trkpt>
      <trkpt lat="42.7492" lon="1.61297">
        <ele>1888</ele>
        <time>2020-01-05T12:19:34.000Z</time>
      </trkpt>
      <trkpt lat="42.7492" lon="1.61297">
        <ele>1888</ele>
        <time>2020-01-05T12:19:36.000Z</time>
      </trkpt>
      <trkpt lat="42.7492" lon="1.61297">
        <ele>1888</ele>
        <time>2020-01-05T12:19:38.000Z</time>
      </trkpt>
      <trkpt lat="42.7492" lon="1.61297">
        <ele>1888</ele>
        <time>2020-01-05T12:19:40.000Z</time>
      </trkpt>
      <trkpt lat="42.7492" lon="1.61297">
        <ele>1888</ele>
        <time>2020-01-05T12:19:42.000Z</time>
      </trkpt>
      <trkpt lat="42.7492" lon="1.61297">
        <ele>1888</ele>
        <time>2020-01-05T12:19:44.000Z</time>
      </trkpt>
      <trkpt lat="42.74919" lon="1.61297">
        <ele>1888</ele>
        <time>2020-01-05T12:19:46.000Z</time>
      </trkpt>
      <trkpt lat="42.74919" lon="1.61297">
        <ele>1888</ele>
        <time>2020-01-05T12:19:48.000Z</time>
      </trkpt>
      <trkpt lat="42.74919" lon="1.61297">
        <ele>1888</ele>
        <time>2020-01-05T12:19:50.000Z</time>
      </trkpt>
      <trkpt lat="42.74919" lon="1.61297">
        <ele>1888</ele>
        <time>2020-01-05T12:19:52.000Z</time>
      </trkpt>
      <trkpt lat="42.74919" lon="1.61297">
        <ele>1888</ele>
        <time>2020-01-05T12:19:54.000Z</time>
      </trkpt>
      <trkpt lat="42.74919" lon="1.61297">
        <ele>1888</ele>
        <time>2020-01-05T12:19:56.000Z</time>
      </trkpt>
      <trkpt lat="42.74919" lon="1.61296">
        <ele>1888</ele>
        <time>2020-01-05T12:19:58.000Z</time>
      </trkpt>
      <trkpt lat="42.74919" lon="1.61296">
        <ele>1888</ele>
        <time>2020-01-05T12:20:00.000Z</time>
      </trkpt>
      <trkpt lat="42.7492" lon="1.61296">
        <ele>1888</ele>
        <time>2020-01-05T12:20:02.000Z</time>
      </trkpt>
      <trkpt lat="42.7492" lon="1.61295">
        <ele>1888</ele>
        <time>2020-01-05T12:20:04.000Z</time>
      </trkpt>
      <trkpt lat="42.7492" lon="1.61295">
        <ele>1888</ele>
        <time>2020-01-05T12:20:06.000Z</time>
      </trkpt>
      <trkpt lat="42.7492" lon="1.61295">
        <ele>1888</ele>
        <time>2020-01-05T12:20:08.000Z</time>
      </trkpt>
      <trkpt lat="42.7492" lon="1.61295">
        <ele>1888</ele>
        <time>2020-01-05T12:20:10.000Z</time>
      </trkpt>
      <trkpt lat="42.7492" lon="1.61295">
        <ele>1888</ele>
        <time>2020-01-05T12:20:12.000Z</time>
      </trkpt>
      <trkpt lat="42.7492" lon="1.61295">
        <ele>1888</ele>
        <time>2020-01-05T12:20:14.000Z</time>
      </trkpt>
      <trkpt lat="42.7492" lon="1.61294">
        <ele>1888</ele>
        <time>2020-01-05T12:20:16.000Z</time>
      </trkpt>
      <trkpt lat="42.7492" lon="1.61294">
        <ele>1888</ele>
        <time>2020-01-05T12:20:18.000Z</time>
      </trkpt>
      <trkpt lat="42.7492" lon="1.61294">
        <ele>1888</ele>
        <time>2020-01-05T12:20:20.000Z</time>
      </trkpt>
      <trkpt lat="42.7492" lon="1.61294">
        <ele>1888</ele>
        <time>2020-01-05T12:20:22.000Z</time>
      </trkpt>
      <trkpt lat="42.7492" lon="1.61295">
        <ele>1888</ele>
        <time>2020-01-05T12:20:24.000Z</time>
      </trkpt>
      <trkpt lat="42.7492" lon="1.61295">
        <ele>1888</ele>
        <time>2020-01-05T12:20:26.000Z</time>
      </trkpt>
      <trkpt lat="42.7492" lon="1.61295">
        <ele>1888</ele>
        <time>2020-01-05T12:20:28.000Z</time>
      </trkpt>
      <trkpt lat="42.7492" lon="1.61295">
        <ele>1888</ele>
        <time>2020-01-05T12:20:30.000Z</time>
      </trkpt>
      <trkpt lat="42.7492" lon="1.61295">
        <ele>1888</ele>
        <time>2020-01-05T12:20:32.000Z</time>
      </trkpt>
      <trkpt lat="42.7492" lon="1.61295">
        <ele>1888</ele>
        <time>2020-01-05T12:20:34.000Z</time>
      </trkpt>
      <trkpt lat="42.7492" lon="1.61295">
        <ele>1888</ele>
        <time>2020-01-05T12:20:36.000Z</time>
      </trkpt>
      <trkpt lat="42.74919" lon="1.61296">
        <ele>1888</ele>
        <time>2020-01-05T12:20:38.000Z</time>
      </trkpt>
      <trkpt lat="42.74919" lon="1.61296">
        <ele>1888</ele>
        <time>2020-01-05T12:20:40.000Z</time>
      </trkpt>
      <trkpt lat="42.74919" lon="1.61296">
        <ele>1888</ele>
        <time>2020-01-05T12:20:42.000Z</time>
      </trkpt>
      <trkpt lat="42.74919" lon="1.61295">
        <ele>1888</ele>
        <time>2020-01-05T12:20:44.000Z</time>
      </trkpt>
      <trkpt lat="42.74919" lon="1.61296">
        <ele>1888</ele>
        <time>2020-01-05T12:20:46.000Z</time>
      </trkpt>
      <trkpt lat="42.7492" lon="1.61294">
        <ele>1888</ele>
        <time>2020-01-05T12:20:48.000Z</time>
      </trkpt>
      <trkpt lat="42.7492" lon="1.61294">
        <ele>1888</ele>
        <time>2020-01-05T12:20:50.000Z</time>
      </trkpt>
      <trkpt lat="42.7492" lon="1.61294">
        <ele>1888</ele>
        <time>2020-01-05T12:20:52.000Z</time>
      </trkpt>
      <trkpt lat="42.7492" lon="1.61296">
        <ele>1888</ele>
        <time>2020-01-05T12:20:54.000Z</time>
      </trkpt>
      <trkpt lat="42.74919" lon="1.61296">
        <ele>1888</ele>
        <time>2020-01-05T12:20:56.000Z</time>
      </trkpt>
      <trkpt lat="42.74919" lon="1.61296">
        <ele>1888</ele>
        <time>2020-01-05T12:20:58.000Z</time>
      </trkpt>
      <trkpt lat="42.74918" lon="1.61298">
        <ele>1888</ele>
        <time>2020-01-05T12:21:00.000Z</time>
      </trkpt>
      <trkpt lat="42.74918" lon="1.613">
        <ele>1888</ele>
        <time>2020-01-05T12:21:02.000Z</time>
      </trkpt>
      <trkpt lat="42.74917" lon="1.61301">
        <ele>1887</ele>
        <time>2020-01-05T12:21:04.000Z</time>
      </trkpt>
      <trkpt lat="42.74915" lon="1.61302">
        <ele>1887</ele>
        <time>2020-01-05T12:21:06.000Z</time>
      </trkpt>
      <trkpt lat="42.74914" lon="1.61304">
        <ele>1887</ele>
        <time>2020-01-05T12:21:08.000Z</time>
      </trkpt>
      <trkpt lat="42.74914" lon="1.61306">
        <ele>1887</ele>
        <time>2020-01-05T12:21:10.000Z</time>
      </trkpt>
      <trkpt lat="42.74912" lon="1.61307">
        <ele>1886</ele>
        <time>2020-01-05T12:21:12.000Z</time>
      </trkpt>
      <trkpt lat="42.74912" lon="1.61308">
        <ele>1886</ele>
        <time>2020-01-05T12:21:14.000Z</time>
      </trkpt>
      <trkpt lat="42.74911" lon="1.61309">
        <ele>1886</ele>
        <time>2020-01-05T12:21:16.000Z</time>
      </trkpt>
      <trkpt lat="42.74911" lon="1.6131">
        <ele>1886</ele>
        <time>2020-01-05T12:21:18.000Z</time>
      </trkpt>
      <trkpt lat="42.7491" lon="1.61311">
        <ele>1886</ele>
        <time>2020-01-05T12:21:20.000Z</time>
      </trkpt>
      <trkpt lat="42.7491" lon="1.61314">
        <ele>1885</ele>
        <time>2020-01-05T12:21:22.000Z</time>
      </trkpt>
      <trkpt lat="42.74909" lon="1.61315">
        <ele>1885</ele>
        <time>2020-01-05T12:21:24.000Z</time>
      </trkpt>
      <trkpt lat="42.74909" lon="1.61317">
        <ele>1885</ele>
        <time>2020-01-05T12:21:26.000Z</time>
      </trkpt>
      <trkpt lat="42.74909" lon="1.61318">
        <ele>1885</ele>
        <time>2020-01-05T12:21:28.000Z</time>
      </trkpt>
      <trkpt lat="42.74909" lon="1.6132">
        <ele>1885</ele>
        <time>2020-01-05T12:21:30.000Z</time>
      </trkpt>
      <trkpt lat="42.74909" lon="1.61321">
        <ele>1884</ele>
        <time>2020-01-05T12:21:32.000Z</time>
      </trkpt>
      <trkpt lat="42.74908" lon="1.61323">
        <ele>1884</ele>
        <time>2020-01-05T12:21:34.000Z</time>
      </trkpt>
      <trkpt lat="42.74908" lon="1.61323">
        <ele>1883</ele>
        <time>2020-01-05T12:21:36.000Z</time>
      </trkpt>
      <trkpt lat="42.74908" lon="1.61323">
        <ele>1883</ele>
        <time>2020-01-05T12:21:38.000Z</time>
      </trkpt>
      <trkpt lat="42.74908" lon="1.61323">
        <ele>1884</ele>
        <time>2020-01-05T12:21:40.000Z</time>
      </trkpt>
      <trkpt lat="42.74908" lon="1.61323">
        <ele>1884</ele>
        <time>2020-01-05T12:21:42.000Z</time>
      </trkpt>
      <trkpt lat="42.74908" lon="1.61323">
        <ele>1884</ele>
        <time>2020-01-05T12:21:44.000Z</time>
      </trkpt>
      <trkpt lat="42.74908" lon="1.61323">
        <ele>1884</ele>
        <time>2020-01-05T12:21:46.000Z</time>
      </trkpt>
      <trkpt lat="42.74909" lon="1.61322">
        <ele>1884</ele>
        <time>2020-01-05T12:21:48.000Z</time>
      </trkpt>
      <trkpt lat="42.74909" lon="1.61322">
        <ele>1884</ele>
        <time>2020-01-05T12:21:50.000Z</time>
      </trkpt>
      <trkpt lat="42.74909" lon="1.61322">
        <ele>1884</ele>
        <time>2020-01-05T12:21:52.000Z</time>
      </trkpt>
      <trkpt lat="42.74909" lon="1.61322">
        <ele>1884</ele>
        <time>2020-01-05T12:21:54.000Z</time>
      </trkpt>
      <trkpt lat="42.74909" lon="1.61322">
        <ele>1884</ele>
        <time>2020-01-05T12:21:56.000Z</time>
      </trkpt>
      <trkpt lat="42.74909" lon="1.61322">
        <ele>1884</ele>
        <time>2020-01-05T12:21:58.000Z</time>
      </trkpt>
      <trkpt lat="42.74909" lon="1.61322">
        <ele>1884</ele>
        <time>2020-01-05T12:22:00.000Z</time>
      </trkpt>
      <trkpt lat="42.74909" lon="1.61322">
        <ele>1884</ele>
        <time>2020-01-05T12:22:02.000Z</time>
      </trkpt>
      <trkpt lat="42.74909" lon="1.61322">
        <ele>1884</ele>
        <time>2020-01-05T12:22:04.000Z</time>
      </trkpt>
      <trkpt lat="42.74909" lon="1.61323">
        <ele>1884</ele>
        <time>2020-01-05T12:22:06.000Z</time>
      </trkpt>
      <trkpt lat="42.7491" lon="1.61324">
        <ele>1883</ele>
        <time>2020-01-05T12:22:08.000Z</time>
      </trkpt>
      <trkpt lat="42.74911" lon="1.61324">
        <ele>1884</ele>
        <time>2020-01-05T12:22:10.000Z</time>
      </trkpt>
      <trkpt lat="42.74912" lon="1.61326">
        <ele>1883</ele>
        <time>2020-01-05T12:22:12.000Z</time>
      </trkpt>
      <trkpt lat="42.74913" lon="1.61328">
        <ele>1883</ele>
        <time>2020-01-05T12:22:14.000Z</time>
      </trkpt>
      <trkpt lat="42.74914" lon="1.6133">
        <ele>1882</ele>
        <time>2020-01-05T12:22:16.000Z</time>
      </trkpt>
      <trkpt lat="42.74914" lon="1.61331">
        <ele>1882</ele>
        <time>2020-01-05T12:22:18.000Z</time>
      </trkpt>
      <trkpt lat="42.74914" lon="1.61332">
        <ele>1881</ele>
        <time>2020-01-05T12:22:20.000Z</time>
      </trkpt>
      <trkpt lat="42.74914" lon="1.61333">
        <ele>1881</ele>
        <time>2020-01-05T12:22:22.000Z</time>
      </trkpt>
      <trkpt lat="42.74915" lon="1.61333">
        <ele>1881</ele>
        <time>2020-01-05T12:22:24.000Z</time>
      </trkpt>
      <trkpt lat="42.74916" lon="1.61332">
        <ele>1882</ele>
        <time>2020-01-05T12:22:26.000Z</time>
      </trkpt>
      <trkpt lat="42.74916" lon="1.6133">
        <ele>1882</ele>
        <time>2020-01-05T12:22:28.000Z</time>
      </trkpt>
      <trkpt lat="42.74917" lon="1.61329">
        <ele>1883</ele>
        <time>2020-01-05T12:22:30.000Z</time>
      </trkpt>
      <trkpt lat="42.74918" lon="1.61327">
        <ele>1884</ele>
        <time>2020-01-05T12:22:32.000Z</time>
      </trkpt>
      <trkpt lat="42.74918" lon="1.61325">
        <ele>1884</ele>
        <time>2020-01-05T12:22:34.000Z</time>
      </trkpt>
      <trkpt lat="42.74919" lon="1.61324">
        <ele>1885</ele>
        <time>2020-01-05T12:22:36.000Z</time>
      </trkpt>
      <trkpt lat="42.7492" lon="1.61323">
        <ele>1886</ele>
        <time>2020-01-05T12:22:38.000Z</time>
      </trkpt>
      <trkpt lat="42.74922" lon="1.61323">
        <ele>1886</ele>
        <time>2020-01-05T12:22:40.000Z</time>
      </trkpt>
      <trkpt lat="42.74923" lon="1.61322">
        <ele>1886</ele>
        <time>2020-01-05T12:22:42.000Z</time>
      </trkpt>
      <trkpt lat="42.74924" lon="1.61322">
        <ele>1886</ele>
        <time>2020-01-05T12:22:44.000Z</time>
      </trkpt>
      <trkpt lat="42.74925" lon="1.61322">
        <ele>1886</ele>
        <time>2020-01-05T12:22:46.000Z</time>
      </trkpt>
      <trkpt lat="42.74926" lon="1.61322">
        <ele>1885</ele>
        <time>2020-01-05T12:22:48.000Z</time>
      </trkpt>
      <trkpt lat="42.74927" lon="1.61323">
        <ele>1885</ele>
        <time>2020-01-05T12:22:50.000Z</time>
      </trkpt>
      <trkpt lat="42.74929" lon="1.61323">
        <ele>1885</ele>
        <time>2020-01-05T12:22:52.000Z</time>
      </trkpt>
      <trkpt lat="42.7493" lon="1.61323">
        <ele>1885</ele>
        <time>2020-01-05T12:22:54.000Z</time>
      </trkpt>
      <trkpt lat="42.74931" lon="1.61325">
        <ele>1884</ele>
        <time>2020-01-05T12:22:56.000Z</time>
      </trkpt>
      <trkpt lat="42.74932" lon="1.61326">
        <ele>1884</ele>
        <time>2020-01-05T12:22:58.000Z</time>
      </trkpt>
      <trkpt lat="42.74932" lon="1.61326">
        <ele>1884</ele>
        <time>2020-01-05T12:23:00.000Z</time>
      </trkpt>
      <trkpt lat="42.74932" lon="1.61327">
        <ele>1884</ele>
        <time>2020-01-05T12:23:02.000Z</time>
      </trkpt>
      <trkpt lat="42.74932" lon="1.61327">
        <ele>1884</ele>
        <time>2020-01-05T12:23:04.000Z</time>
      </trkpt>
      <trkpt lat="42.74932" lon="1.61327">
        <ele>1884</ele>
        <time>2020-01-05T12:23:06.000Z</time>
      </trkpt>
      <trkpt lat="42.74933" lon="1.61327">
        <ele>1884</ele>
        <time>2020-01-05T12:23:08.000Z</time>
      </trkpt>
      <trkpt lat="42.74933" lon="1.61327">
        <ele>1884</ele>
        <time>2020-01-05T12:23:10.000Z</time>
      </trkpt>
      <trkpt lat="42.74933" lon="1.61327">
        <ele>1884</ele>
        <time>2020-01-05T12:23:12.000Z</time>
      </trkpt>
      <trkpt lat="42.74933" lon="1.61327">
        <ele>1884</ele>
        <time>2020-01-05T12:23:14.000Z</time>
      </trkpt>
      <trkpt lat="42.74933" lon="1.61327">
        <ele>1884</ele>
        <time>2020-01-05T12:23:16.000Z</time>
      </trkpt>
      <trkpt lat="42.74933" lon="1.61327">
        <ele>1884</ele>
        <time>2020-01-05T12:23:18.000Z</time>
      </trkpt>
      <trkpt lat="42.74933" lon="1.61326">
        <ele>1884</ele>
        <time>2020-01-05T12:23:20.000Z</time>
      </trkpt>
      <trkpt lat="42.74933" lon="1.61326">
        <ele>1884</ele>
        <time>2020-01-05T12:23:22.000Z</time>
      </trkpt>
      <trkpt lat="42.74933" lon="1.61326">
        <ele>1884</ele>
        <time>2020-01-05T12:23:24.000Z</time>
      </trkpt>
      <trkpt lat="42.74932" lon="1.61325">
        <ele>1884</ele>
        <time>2020-01-05T12:23:26.000Z</time>
      </trkpt>
      <trkpt lat="42.74931" lon="1.61324">
        <ele>1885</ele>
        <time>2020-01-05T12:23:28.000Z</time>
      </trkpt>
      <trkpt lat="42.74929" lon="1.61323">
        <ele>1885</ele>
        <time>2020-01-05T12:23:30.000Z</time>
      </trkpt>
      <trkpt lat="42.74929" lon="1.61321">
        <ele>1886</ele>
        <time>2020-01-05T12:23:32.000Z</time>
      </trkpt>
      <trkpt lat="42.74928" lon="1.61319">
        <ele>1886</ele>
        <time>2020-01-05T12:23:34.000Z</time>
      </trkpt>
      <trkpt lat="42.74927" lon="1.61317">
        <ele>1887</ele>
        <time>2020-01-05T12:23:36.000Z</time>
      </trkpt>
      <trkpt lat="42.74927" lon="1.61315">
        <ele>1887</ele>
        <time>2020-01-05T12:23:38.000Z</time>
      </trkpt>
      <trkpt lat="42.74927" lon="1.61313">
        <ele>1887</ele>
        <time>2020-01-05T12:23:40.000Z</time>
      </trkpt>
      <trkpt lat="42.74927" lon="1.61312">
        <ele>1887</ele>
        <time>2020-01-05T12:23:42.000Z</time>
      </trkpt>
      <trkpt lat="42.74927" lon="1.6131">
        <ele>1887</ele>
        <time>2020-01-05T12:23:44.000Z</time>
      </trkpt>
      <trkpt lat="42.74927" lon="1.61309">
        <ele>1887</ele>
        <time>2020-01-05T12:23:46.000Z</time>
      </trkpt>
      <trkpt lat="42.74927" lon="1.61308">
        <ele>1887</ele>
        <time>2020-01-05T12:23:48.000Z</time>
      </trkpt>
      <trkpt lat="42.74927" lon="1.61306">
        <ele>1887</ele>
        <time>2020-01-05T12:23:50.000Z</time>
      </trkpt>
      <trkpt lat="42.74928" lon="1.61305">
        <ele>1887</ele>
        <time>2020-01-05T12:23:52.000Z</time>
      </trkpt>
      <trkpt lat="42.74928" lon="1.61304">
        <ele>1887</ele>
        <time>2020-01-05T12:23:54.000Z</time>
      </trkpt>
      <trkpt lat="42.74928" lon="1.61303">
        <ele>1887</ele>
        <time>2020-01-05T12:23:56.000Z</time>
      </trkpt>
      <trkpt lat="42.74928" lon="1.61302">
        <ele>1887</ele>
        <time>2020-01-05T12:23:58.000Z</time>
      </trkpt>
      <trkpt lat="42.74928" lon="1.61301">
        <ele>1887</ele>
        <time>2020-01-05T12:24:00.000Z</time>
      </trkpt>
      <trkpt lat="42.74927" lon="1.613">
        <ele>1888</ele>
        <time>2020-01-05T12:24:02.000Z</time>
      </trkpt>
      <trkpt lat="42.74927" lon="1.613">
        <ele>1888</ele>
        <time>2020-01-05T12:24:04.000Z</time>
      </trkpt>
      <trkpt lat="42.74927" lon="1.61299">
        <ele>1888</ele>
        <time>2020-01-05T12:24:06.000Z</time>
      </trkpt>
      <trkpt lat="42.74927" lon="1.61299">
        <ele>1888</ele>
        <time>2020-01-05T12:24:08.000Z</time>
      </trkpt>
      <trkpt lat="42.74926" lon="1.61299">
        <ele>1888</ele>
        <time>2020-01-05T12:24:10.000Z</time>
      </trkpt>
      <trkpt lat="42.74926" lon="1.61298">
        <ele>1888</ele>
        <time>2020-01-05T12:24:12.000Z</time>
      </trkpt>
      <trkpt lat="42.74925" lon="1.61298">
        <ele>1888</ele>
        <time>2020-01-05T12:24:14.000Z</time>
      </trkpt>
      <trkpt lat="42.74924" lon="1.61297">
        <ele>1888</ele>
        <time>2020-01-05T12:24:16.000Z</time>
      </trkpt>
      <trkpt lat="42.74924" lon="1.61297">
        <ele>1888</ele>
        <time>2020-01-05T12:24:18.000Z</time>
      </trkpt>
      <trkpt lat="42.74923" lon="1.61296">
        <ele>1888</ele>
        <time>2020-01-05T12:24:20.000Z</time>
      </trkpt>
      <trkpt lat="42.74922" lon="1.61296">
        <ele>1888</ele>
        <time>2020-01-05T12:24:22.000Z</time>
      </trkpt>
      <trkpt lat="42.74921" lon="1.61295">
        <ele>1888</ele>
        <time>2020-01-05T12:24:24.000Z</time>
      </trkpt>
      <trkpt lat="42.74921" lon="1.61295">
        <ele>1888</ele>
        <time>2020-01-05T12:24:26.000Z</time>
      </trkpt>
      <trkpt lat="42.74921" lon="1.61295">
        <ele>1888</ele>
        <time>2020-01-05T12:24:28.000Z</time>
      </trkpt>
      <trkpt lat="42.74921" lon="1.61295">
        <ele>1888</ele>
        <time>2020-01-05T12:24:30.000Z</time>
      </trkpt>
      <trkpt lat="42.7492" lon="1.61295">
        <ele>1888</ele>
        <time>2020-01-05T12:24:32.000Z</time>
      </trkpt>
      <trkpt lat="42.7492" lon="1.61295">
        <ele>1888</ele>
        <time>2020-01-05T12:24:34.000Z</time>
      </trkpt>
      <trkpt lat="42.74919" lon="1.61296">
        <ele>1888</ele>
        <time>2020-01-05T12:24:36.000Z</time>
      </trkpt>
      <trkpt lat="42.74919" lon="1.61296">
        <ele>1888</ele>
        <time>2020-01-05T12:24:38.000Z</time>
      </trkpt>
      <trkpt lat="42.74919" lon="1.61296">
        <ele>1888</ele>
        <time>2020-01-05T12:24:40.000Z</time>
      </trkpt>
      <trkpt lat="42.74919" lon="1.61296">
        <ele>1888</ele>
        <time>2020-01-05T12:24:42.000Z</time>
      </trkpt>
      <trkpt lat="42.74919" lon="1.61296">
        <ele>1888</ele>
        <time>2020-01-05T12:24:44.000Z</time>
      </trkpt>
      <trkpt lat="42.74919" lon="1.61296">
        <ele>1888</ele>
        <time>2020-01-05T12:24:46.000Z</time>
      </trkpt>
      <trkpt lat="42.74919" lon="1.61296">
        <ele>1888</ele>
        <time>2020-01-05T12:24:48.000Z</time>
      </trkpt>
      <trkpt lat="42.74919" lon="1.61296">
        <ele>1888</ele>
        <time>2020-01-05T12:24:50.000Z</time>
      </trkpt>
      <trkpt lat="42.74919" lon="1.61296">
        <ele>1888</ele>
        <time>2020-01-05T12:24:52.000Z</time>
      </trkpt>
      <trkpt lat="42.74918" lon="1.61296">
        <ele>1888</ele>
        <time>2020-01-05T12:24:54.000Z</time>
      </trkpt>
      <trkpt lat="42.74919" lon="1.61296">
        <ele>1888</ele>
        <time>2020-01-05T12:24:56.000Z</time>
      </trkpt>
      <trkpt lat="42.74918" lon="1.61296">
        <ele>1888</ele>
        <time>2020-01-05T12:24:58.000Z</time>
      </trkpt>
      <trkpt lat="42.74918" lon="1.61296">
        <ele>1888</ele>
        <time>2020-01-05T12:25:00.000Z</time>
      </trkpt>
      <trkpt lat="42.74918" lon="1.61296">
        <ele>1888</ele>
        <time>2020-01-05T12:25:02.000Z</time>
      </trkpt>
      <trkpt lat="42.74918" lon="1.61296">
        <ele>1888</ele>
        <time>2020-01-05T12:25:04.000Z</time>
      </trkpt>
      <trkpt lat="42.74918" lon="1.61296">
        <ele>1888</ele>
        <time>2020-01-05T12:25:06.000Z</time>
      </trkpt>
      <trkpt lat="42.74918" lon="1.61296">
        <ele>1888</ele>
        <time>2020-01-05T12:25:08.000Z</time>
      </trkpt>
      <trkpt lat="42.74918" lon="1.61296">
        <ele>1888</ele>
        <time>2020-01-05T12:25:10.000Z</time>
      </trkpt>
      <trkpt lat="42.74918" lon="1.61296">
        <ele>1888</ele>
        <time>2020-01-05T12:25:12.000Z</time>
      </trkpt>
      <trkpt lat="42.74918" lon="1.61297">
        <ele>1888</ele>
        <time>2020-01-05T12:25:14.000Z</time>
      </trkpt>
      <trkpt lat="42.74918" lon="1.61297">
        <ele>1888</ele>
        <time>2020-01-05T12:25:16.000Z</time>
      </trkpt>
      <trkpt lat="42.74917" lon="1.61297">
        <ele>1888</ele>
        <time>2020-01-05T12:25:18.000Z</time>
      </trkpt>
      <trkpt lat="42.74918" lon="1.61297">
        <ele>1888</ele>
        <time>2020-01-05T12:25:20.000Z</time>
      </trkpt>
      <trkpt lat="42.74917" lon="1.61296">
        <ele>1888</ele>
        <time>2020-01-05T12:25:22.000Z</time>
      </trkpt>
      <trkpt lat="42.74917" lon="1.61296">
        <ele>1888</ele>
        <time>2020-01-05T12:25:24.000Z</time>
      </trkpt>
      <trkpt lat="42.74917" lon="1.61297">
        <ele>1888</ele>
        <time>2020-01-05T12:25:26.000Z</time>
      </trkpt>
      <trkpt lat="42.74917" lon="1.61297">
        <ele>1888</ele>
        <time>2020-01-05T12:25:28.000Z</time>
      </trkpt>
      <trkpt lat="42.74917" lon="1.61297">
        <ele>1888</ele>
        <time>2020-01-05T12:25:30.000Z</time>
      </trkpt>
      <trkpt lat="42.74917" lon="1.61297">
        <ele>1888</ele>
        <time>2020-01-05T12:25:32.000Z</time>
      </trkpt>
      <trkpt lat="42.74917" lon="1.61297">
        <ele>1888</ele>
        <time>2020-01-05T12:25:34.000Z</time>
      </trkpt>
      <trkpt lat="42.74917" lon="1.61297">
        <ele>1888</ele>
        <time>2020-01-05T12:25:36.000Z</time>
      </trkpt>
      <trkpt lat="42.74917" lon="1.61297">
        <ele>1888</ele>
        <time>2020-01-05T12:25:38.000Z</time>
      </trkpt>
      <trkpt lat="42.74917" lon="1.61298">
        <ele>1888</ele>
        <time>2020-01-05T12:25:40.000Z</time>
      </trkpt>
      <trkpt lat="42.74918" lon="1.61298">
        <ele>1888</ele>
        <time>2020-01-05T12:25:42.000Z</time>
      </trkpt>
      <trkpt lat="42.74918" lon="1.61298">
        <ele>1888</ele>
        <time>2020-01-05T12:25:44.000Z</time>
      </trkpt>
      <trkpt lat="42.74918" lon="1.61298">
        <ele>1888</ele>
        <time>2020-01-05T12:25:46.000Z</time>
      </trkpt>
      <trkpt lat="42.74918" lon="1.61298">
        <ele>1888</ele>
        <time>2020-01-05T12:25:48.000Z</time>
      </trkpt>
      <trkpt lat="42.74918" lon="1.61298">
        <ele>1888</ele>
        <time>2020-01-05T12:25:50.000Z</time>
      </trkpt>
      <trkpt lat="42.74918" lon="1.61298">
        <ele>1888</ele>
        <time>2020-01-05T12:25:52.000Z</time>
      </trkpt>
      <trkpt lat="42.74918" lon="1.61297">
        <ele>1888</ele>
        <time>2020-01-05T12:25:54.000Z</time>
      </trkpt>
      <trkpt lat="42.74918" lon="1.61297">
        <ele>1888</ele>
        <time>2020-01-05T12:25:56.000Z</time>
      </trkpt>
      <trkpt lat="42.74918" lon="1.61297">
        <ele>1888</ele>
        <time>2020-01-05T12:25:58.000Z</time>
      </trkpt>
      <trkpt lat="42.74918" lon="1.61297">
        <ele>1888</ele>
        <time>2020-01-05T12:26:00.000Z</time>
      </trkpt>
      <trkpt lat="42.74918" lon="1.61297">
        <ele>1888</ele>
        <time>2020-01-05T12:26:02.000Z</time>
      </trkpt>
      <trkpt lat="42.74918" lon="1.61298">
        <ele>1888</ele>
        <time>2020-01-05T12:26:04.000Z</time>
      </trkpt>
      <trkpt lat="42.74919" lon="1.61297">
        <ele>1888</ele>
        <time>2020-01-05T12:26:06.000Z</time>
      </trkpt>
      <trkpt lat="42.74919" lon="1.61297">
        <ele>1888</ele>
        <time>2020-01-05T12:26:08.000Z</time>
      </trkpt>
      <trkpt lat="42.74918" lon="1.61297">
        <ele>1888</ele>
        <time>2020-01-05T12:26:10.000Z</time>
      </trkpt>
      <trkpt lat="42.74919" lon="1.61297">
        <ele>1888</ele>
        <time>2020-01-05T12:26:12.000Z</time>
      </trkpt>
      <trkpt lat="42.74919" lon="1.61297">
        <ele>1888</ele>
        <time>2020-01-05T12:26:14.000Z</time>
      </trkpt>
      <trkpt lat="42.74919" lon="1.61297">
        <ele>1888</ele>
        <time>2020-01-05T12:26:16.000Z</time>
      </trkpt>
      <trkpt lat="42.7492" lon="1.61297">
        <ele>1888</ele>
        <time>2020-01-05T12:26:18.000Z</time>
      </trkpt>
      <trkpt lat="42.7492" lon="1.61297">
        <ele>1888</ele>
        <time>2020-01-05T12:26:20.000Z</time>
      </trkpt>
      <trkpt lat="42.7492" lon="1.61297">
        <ele>1888</ele>
        <time>2020-01-05T12:26:22.000Z</time>
      </trkpt>
      <trkpt lat="42.7492" lon="1.61297">
        <ele>1888</ele>
        <time>2020-01-05T12:26:24.000Z</time>
      </trkpt>
      <trkpt lat="42.7492" lon="1.61297">
        <ele>1888</ele>
        <time>2020-01-05T12:26:26.000Z</time>
      </trkpt>
      <trkpt lat="42.7492" lon="1.61298">
        <ele>1888</ele>
        <time>2020-01-05T12:26:28.000Z</time>
      </trkpt>
      <trkpt lat="42.7492" lon="1.61298">
        <ele>1888</ele>
        <time>2020-01-05T12:26:30.000Z</time>
      </trkpt>
      <trkpt lat="42.7492" lon="1.61298">
        <ele>1888</ele>
        <time>2020-01-05T12:26:32.000Z</time>
      </trkpt>
      <trkpt lat="42.7492" lon="1.61298">
        <ele>1888</ele>
        <time>2020-01-05T12:26:34.000Z</time>
      </trkpt>
      <trkpt lat="42.7492" lon="1.61298">
        <ele>1888</ele>
        <time>2020-01-05T12:26:36.000Z</time>
      </trkpt>
      <trkpt lat="42.7492" lon="1.61298">
        <ele>1888</ele>
        <time>2020-01-05T12:26:38.000Z</time>
      </trkpt>
      <trkpt lat="42.7492" lon="1.61298">
        <ele>1888</ele>
        <time>2020-01-05T12:26:40.000Z</time>
      </trkpt>
      <trkpt lat="42.7492" lon="1.61298">
        <ele>1888</ele>
        <time>2020-01-05T12:26:42.000Z</time>
      </trkpt>
      <trkpt lat="42.7492" lon="1.61298">
        <ele>1888</ele>
        <time>2020-01-05T12:26:44.000Z</time>
      </trkpt>
      <trkpt lat="42.7492" lon="1.61297">
        <ele>1888</ele>
        <time>2020-01-05T12:26:46.000Z</time>
      </trkpt>
      <trkpt lat="42.74921" lon="1.61297">
        <ele>1888</ele>
        <time>2020-01-05T12:26:48.000Z</time>
      </trkpt>
      <trkpt lat="42.7492" lon="1.61297">
        <ele>1888</ele>
        <time>2020-01-05T12:26:50.000Z</time>
      </trkpt>
      <trkpt lat="42.7492" lon="1.61297">
        <ele>1888</ele>
        <time>2020-01-05T12:26:52.000Z</time>
      </trkpt>
      <trkpt lat="42.7492" lon="1.61297">
        <ele>1888</ele>
        <time>2020-01-05T12:26:54.000Z</time>
      </trkpt>
      <trkpt lat="42.7492" lon="1.61297">
        <ele>1888</ele>
        <time>2020-01-05T12:26:56.000Z</time>
      </trkpt>
      <trkpt lat="42.7492" lon="1.61297">
        <ele>1888</ele>
        <time>2020-01-05T12:26:58.000Z</time>
      </trkpt>
      <trkpt lat="42.7492" lon="1.61297">
        <ele>1888</ele>
        <time>2020-01-05T12:27:00.000Z</time>
      </trkpt>
      <trkpt lat="42.7492" lon="1.61297">
        <ele>1888</ele>
        <time>2020-01-05T12:27:02.000Z</time>
      </trkpt>
      <trkpt lat="42.7492" lon="1.61297">
        <ele>1888</ele>
        <time>2020-01-05T12:27:04.000Z</time>
      </trkpt>
      <trkpt lat="42.7492" lon="1.61297">
        <ele>1888</ele>
        <time>2020-01-05T12:27:06.000Z</time>
      </trkpt>
      <trkpt lat="42.7492" lon="1.61297">
        <ele>1888</ele>
        <time>2020-01-05T12:27:08.000Z</time>
      </trkpt>
      <trkpt lat="42.7492" lon="1.61297">
        <ele>1888</ele>
        <time>2020-01-05T12:27:10.000Z</time>
      </trkpt>
      <trkpt lat="42.7492" lon="1.61297">
        <ele>1888</ele>
        <time>2020-01-05T12:27:12.000Z</time>
      </trkpt>
      <trkpt lat="42.7492" lon="1.61297">
        <ele>1888</ele>
        <time>2020-01-05T12:27:14.000Z</time>
      </trkpt>
      <trkpt lat="42.7492" lon="1.61297">
        <ele>1888</ele>
        <time>2020-01-05T12:27:16.000Z</time>
      </trkpt>
      <trkpt lat="42.7492" lon="1.61297">
        <ele>1888</ele>
        <time>2020-01-05T12:27:18.000Z</time>
      </trkpt>
      <trkpt lat="42.7492" lon="1.61297">
        <ele>1888</ele>
        <time>2020-01-05T12:27:20.000Z</time>
      </trkpt>
      <trkpt lat="42.7492" lon="1.61297">
        <ele>1888</ele>
        <time>2020-01-05T12:27:22.000Z</time>
      </trkpt>
      <trkpt lat="42.74919" lon="1.61297">
        <ele>1888</ele>
        <time>2020-01-05T12:27:24.000Z</time>
      </trkpt>
      <trkpt lat="42.74919" lon="1.61297">
        <ele>1888</ele>
        <time>2020-01-05T12:27:26.000Z</time>
      </trkpt>
      <trkpt lat="42.74919" lon="1.61297">
        <ele>1888</ele>
        <time>2020-01-05T12:27:28.000Z</time>
      </trkpt>
      <trkpt lat="42.74919" lon="1.61297">
        <ele>1888</ele>
        <time>2020-01-05T12:27:30.000Z</time>
      </trkpt>
      <trkpt lat="42.74919" lon="1.61296">
        <ele>1888</ele>
        <time>2020-01-05T12:27:32.000Z</time>
      </trkpt>
      <trkpt lat="42.74919" lon="1.61296">
        <ele>1888</ele>
        <time>2020-01-05T12:27:34.000Z</time>
      </trkpt>
      <trkpt lat="42.74919" lon="1.61296">
        <ele>1888</ele>
        <time>2020-01-05T12:27:36.000Z</time>
      </trkpt>
      <trkpt lat="42.74919" lon="1.61296">
        <ele>1888</ele>
        <time>2020-01-05T12:27:38.000Z</time>
      </trkpt>
      <trkpt lat="42.74919" lon="1.61296">
        <ele>1888</ele>
        <time>2020-01-05T12:27:40.000Z</time>
      </trkpt>
      <trkpt lat="42.74919" lon="1.61297">
        <ele>1888</ele>
        <time>2020-01-05T12:27:42.000Z</time>
      </trkpt>
      <trkpt lat="42.74919" lon="1.61296">
        <ele>1888</ele>
        <time>2020-01-05T12:27:44.000Z</time>
      </trkpt>
      <trkpt lat="42.74919" lon="1.61296">
        <ele>1888</ele>
        <time>2020-01-05T12:27:46.000Z</time>
      </trkpt>
      <trkpt lat="42.74919" lon="1.61296">
        <ele>1888</ele>
        <time>2020-01-05T12:27:48.000Z</time>
      </trkpt>
      <trkpt lat="42.74918" lon="1.61296">
        <ele>1888</ele>
        <time>2020-01-05T12:27:50.000Z</time>
      </trkpt>
      <trkpt lat="42.74919" lon="1.61295">
        <ele>1888</ele>
        <time>2020-01-05T12:27:52.000Z</time>
      </trkpt>
      <trkpt lat="42.74919" lon="1.61295">
        <ele>1888</ele>
        <time>2020-01-05T12:27:54.000Z</time>
      </trkpt>
      <trkpt lat="42.74919" lon="1.61295">
        <ele>1888</ele>
        <time>2020-01-05T12:27:56.000Z</time>
      </trkpt>
      <trkpt lat="42.74919" lon="1.61296">
        <ele>1888</ele>
        <time>2020-01-05T12:27:58.000Z</time>
      </trkpt>
      <trkpt lat="42.7492" lon="1.61296">
        <ele>1888</ele>
        <time>2020-01-05T12:28:00.000Z</time>
      </trkpt>
      <trkpt lat="42.7492" lon="1.61296">
        <ele>1888</ele>
        <time>2020-01-05T12:28:02.000Z</time>
      </trkpt>
      <trkpt lat="42.7492" lon="1.61296">
        <ele>1888</ele>
        <time>2020-01-05T12:28:04.000Z</time>
      </trkpt>
      <trkpt lat="42.7492" lon="1.61296">
        <ele>1888</ele>
        <time>2020-01-05T12:28:06.000Z</time>
      </trkpt>
      <trkpt lat="42.7492" lon="1.61296">
        <ele>1888</ele>
        <time>2020-01-05T12:28:08.000Z</time>
      </trkpt>
      <trkpt lat="42.7492" lon="1.61296">
        <ele>1888</ele>
        <time>2020-01-05T12:28:10.000Z</time>
      </trkpt>
      <trkpt lat="42.7492" lon="1.61296">
        <ele>1888</ele>
        <time>2020-01-05T12:28:12.000Z</time>
      </trkpt>
      <trkpt lat="42.74919" lon="1.61296">
        <ele>1888</ele>
        <time>2020-01-05T12:28:14.000Z</time>
      </trkpt>
      <trkpt lat="42.74919" lon="1.61296">
        <ele>1888</ele>
        <time>2020-01-05T12:28:16.000Z</time>
      </trkpt>
      <trkpt lat="42.74919" lon="1.61296">
        <ele>1888</ele>
        <time>2020-01-05T12:28:18.000Z</time>
      </trkpt>
      <trkpt lat="42.74919" lon="1.61296">
        <ele>1888</ele>
        <time>2020-01-05T12:28:20.000Z</time>
      </trkpt>
      <trkpt lat="42.74918" lon="1.61296">
        <ele>1888</ele>
        <time>2020-01-05T12:28:22.000Z</time>
      </trkpt>
      <trkpt lat="42.74918" lon="1.61296">
        <ele>1888</ele>
        <time>2020-01-05T12:28:24.000Z</time>
      </trkpt>
      <trkpt lat="42.74918" lon="1.61296">
        <ele>1888</ele>
        <time>2020-01-05T12:28:26.000Z</time>
      </trkpt>
      <trkpt lat="42.74918" lon="1.61296">
        <ele>1888</ele>
        <time>2020-01-05T12:28:28.000Z</time>
      </trkpt>
      <trkpt lat="42.74918" lon="1.61296">
        <ele>1888</ele>
        <time>2020-01-05T12:28:30.000Z</time>
      </trkpt>
      <trkpt lat="42.74918" lon="1.61296">
        <ele>1888</ele>
        <time>2020-01-05T12:28:32.000Z</time>
      </trkpt>
      <trkpt lat="42.74918" lon="1.61296">
        <ele>1888</ele>
        <time>2020-01-05T12:28:34.000Z</time>
      </trkpt>
      <trkpt lat="42.74918" lon="1.61296">
        <ele>1888</ele>
        <time>2020-01-05T12:28:36.000Z</time>
      </trkpt>
      <trkpt lat="42.74918" lon="1.61296">
        <ele>1888</ele>
        <time>2020-01-05T12:28:38.000Z</time>
      </trkpt>
      <trkpt lat="42.74919" lon="1.61296">
        <ele>1888</ele>
        <time>2020-01-05T12:28:40.000Z</time>
      </trkpt>
      <trkpt lat="42.7492" lon="1.61297">
        <ele>1888</ele>
        <time>2020-01-05T12:28:42.000Z</time>
      </trkpt>
      <trkpt lat="42.7492" lon="1.61297">
        <ele>1888</ele>
        <time>2020-01-05T12:28:44.000Z</time>
      </trkpt>
      <trkpt lat="42.7492" lon="1.61297">
        <ele>1888</ele>
        <time>2020-01-05T12:28:46.000Z</time>
      </trkpt>
      <trkpt lat="42.7492" lon="1.61297">
        <ele>1888</ele>
        <time>2020-01-05T12:28:48.000Z</time>
      </trkpt>
      <trkpt lat="42.74919" lon="1.61296">
        <ele>1888</ele>
        <time>2020-01-05T12:28:50.000Z</time>
      </trkpt>
      <trkpt lat="42.74918" lon="1.61296">
        <ele>1888</ele>
        <time>2020-01-05T12:28:52.000Z</time>
      </trkpt>
      <trkpt lat="42.74918" lon="1.61295">
        <ele>1888</ele>
        <time>2020-01-05T12:28:54.000Z</time>
      </trkpt>
      <trkpt lat="42.74918" lon="1.61295">
        <ele>1888</ele>
        <time>2020-01-05T12:28:56.000Z</time>
      </trkpt>
      <trkpt lat="42.74918" lon="1.61295">
        <ele>1888</ele>
        <time>2020-01-05T12:28:58.000Z</time>
      </trkpt>
      <trkpt lat="42.74918" lon="1.61296">
        <ele>1888</ele>
        <time>2020-01-05T12:29:00.000Z</time>
      </trkpt>
      <trkpt lat="42.74919" lon="1.61296">
        <ele>1888</ele>
        <time>2020-01-05T12:29:02.000Z</time>
      </trkpt>
      <trkpt lat="42.74919" lon="1.61296">
        <ele>1888</ele>
        <time>2020-01-05T12:29:04.000Z</time>
      </trkpt>
      <trkpt lat="42.74919" lon="1.61296">
        <ele>1888</ele>
        <time>2020-01-05T12:29:06.000Z</time>
      </trkpt>
      <trkpt lat="42.74919" lon="1.61296">
        <ele>1888</ele>
        <time>2020-01-05T12:29:08.000Z</time>
      </trkpt>
      <trkpt lat="42.7492" lon="1.61298">
        <ele>1888</ele>
        <time>2020-01-05T12:29:10.000Z</time>
      </trkpt>
      <trkpt lat="42.7492" lon="1.61298">
        <ele>1888</ele>
        <time>2020-01-05T12:29:12.000Z</time>
      </trkpt>
      <trkpt lat="42.7492" lon="1.61298">
        <ele>1888</ele>
        <time>2020-01-05T12:29:14.000Z</time>
      </trkpt>
      <trkpt lat="42.74921" lon="1.61298">
        <ele>1888</ele>
        <time>2020-01-05T12:29:16.000Z</time>
      </trkpt>
      <trkpt lat="42.74921" lon="1.61298">
        <ele>1888</ele>
        <time>2020-01-05T12:29:18.000Z</time>
      </trkpt>
      <trkpt lat="42.74921" lon="1.61297">
        <ele>1888</ele>
        <time>2020-01-05T12:29:20.000Z</time>
      </trkpt>
      <trkpt lat="42.74922" lon="1.61297">
        <ele>1888</ele>
        <time>2020-01-05T12:29:22.000Z</time>
      </trkpt>
      <trkpt lat="42.74921" lon="1.61296">
        <ele>1888</ele>
        <time>2020-01-05T12:29:24.000Z</time>
      </trkpt>
      <trkpt lat="42.74921" lon="1.61295">
        <ele>1888</ele>
        <time>2020-01-05T12:29:26.000Z</time>
      </trkpt>
      <trkpt lat="42.7492" lon="1.61294">
        <ele>1888</ele>
        <time>2020-01-05T12:29:28.000Z</time>
      </trkpt>
      <trkpt lat="42.74921" lon="1.61294">
        <ele>1888</ele>
        <time>2020-01-05T12:29:30.000Z</time>
      </trkpt>
      <trkpt lat="42.74921" lon="1.61293">
        <ele>1888</ele>
        <time>2020-01-05T12:29:32.000Z</time>
      </trkpt>
      <trkpt lat="42.74921" lon="1.61293">
        <ele>1889</ele>
        <time>2020-01-05T12:29:34.000Z</time>
      </trkpt>
      <trkpt lat="42.74921" lon="1.61293">
        <ele>1889</ele>
        <time>2020-01-05T12:29:36.000Z</time>
      </trkpt>
      <trkpt lat="42.74921" lon="1.61292">
        <ele>1889</ele>
        <time>2020-01-05T12:29:38.000Z</time>
      </trkpt>
      <trkpt lat="42.74921" lon="1.61292">
        <ele>1889</ele>
        <time>2020-01-05T12:29:40.000Z</time>
      </trkpt>
      <trkpt lat="42.74921" lon="1.61292">
        <ele>1889</ele>
        <time>2020-01-05T12:29:42.000Z</time>
      </trkpt>
      <trkpt lat="42.74921" lon="1.61292">
        <ele>1889</ele>
        <time>2020-01-05T12:29:44.000Z</time>
      </trkpt>
      <trkpt lat="42.74921" lon="1.61292">
        <ele>1889</ele>
        <time>2020-01-05T12:29:46.000Z</time>
      </trkpt>
      <trkpt lat="42.74921" lon="1.61292">
        <ele>1889</ele>
        <time>2020-01-05T12:29:48.000Z</time>
      </trkpt>
      <trkpt lat="42.74921" lon="1.61292">
        <ele>1889</ele>
        <time>2020-01-05T12:29:50.000Z</time>
      </trkpt>
      <trkpt lat="42.74922" lon="1.61292">
        <ele>1889</ele>
        <time>2020-01-05T12:29:52.000Z</time>
      </trkpt>
      <trkpt lat="42.74922" lon="1.61292">
        <ele>1889</ele>
        <time>2020-01-05T12:29:54.000Z</time>
      </trkpt>
      <trkpt lat="42.74922" lon="1.61292">
        <ele>1889</ele>
        <time>2020-01-05T12:29:56.000Z</time>
      </trkpt>
      <trkpt lat="42.74922" lon="1.61292">
        <ele>1889</ele>
        <time>2020-01-05T12:29:58.000Z</time>
      </trkpt>
      <trkpt lat="42.74922" lon="1.61291">
        <ele>1889</ele>
        <time>2020-01-05T12:30:00.000Z</time>
      </trkpt>
      <trkpt lat="42.74922" lon="1.61291">
        <ele>1889</ele>
        <time>2020-01-05T12:30:02.000Z</time>
      </trkpt>
      <trkpt lat="42.74922" lon="1.61291">
        <ele>1889</ele>
        <time>2020-01-05T12:30:04.000Z</time>
      </trkpt>
      <trkpt lat="42.74922" lon="1.61291">
        <ele>1889</ele>
        <time>2020-01-05T12:30:06.000Z</time>
      </trkpt>
      <trkpt lat="42.74922" lon="1.61291">
        <ele>1889</ele>
        <time>2020-01-05T12:30:08.000Z</time>
      </trkpt>
      <trkpt lat="42.74921" lon="1.61291">
        <ele>1889</ele>
        <time>2020-01-05T12:30:10.000Z</time>
      </trkpt>
      <trkpt lat="42.74921" lon="1.61291">
        <ele>1889</ele>
        <time>2020-01-05T12:30:12.000Z</time>
      </trkpt>
      <trkpt lat="42.74921" lon="1.61291">
        <ele>1889</ele>
        <time>2020-01-05T12:30:14.000Z</time>
      </trkpt>
      <trkpt lat="42.74921" lon="1.61292">
        <ele>1889</ele>
        <time>2020-01-05T12:30:16.000Z</time>
      </trkpt>
      <trkpt lat="42.74921" lon="1.61291">
        <ele>1889</ele>
        <time>2020-01-05T12:30:18.000Z</time>
      </trkpt>
      <trkpt lat="42.74921" lon="1.61291">
        <ele>1889</ele>
        <time>2020-01-05T12:30:20.000Z</time>
      </trkpt>
      <trkpt lat="42.74921" lon="1.61292">
        <ele>1889</ele>
        <time>2020-01-05T12:30:22.000Z</time>
      </trkpt>
      <trkpt lat="42.74921" lon="1.61291">
        <ele>1889</ele>
        <time>2020-01-05T12:30:24.000Z</time>
      </trkpt>
      <trkpt lat="42.74921" lon="1.61291">
        <ele>1889</ele>
        <time>2020-01-05T12:30:26.000Z</time>
      </trkpt>
      <trkpt lat="42.74921" lon="1.61291">
        <ele>1889</ele>
        <time>2020-01-05T12:30:28.000Z</time>
      </trkpt>
      <trkpt lat="42.74921" lon="1.61291">
        <ele>1889</ele>
        <time>2020-01-05T12:30:30.000Z</time>
      </trkpt>
      <trkpt lat="42.74921" lon="1.61291">
        <ele>1889</ele>
        <time>2020-01-05T12:30:32.000Z</time>
      </trkpt>
      <trkpt lat="42.74921" lon="1.61291">
        <ele>1889</ele>
        <time>2020-01-05T12:30:34.000Z</time>
      </trkpt>
      <trkpt lat="42.7492" lon="1.61291">
        <ele>1889</ele>
        <time>2020-01-05T12:30:36.000Z</time>
      </trkpt>
      <trkpt lat="42.7492" lon="1.61291">
        <ele>1889</ele>
        <time>2020-01-05T12:30:38.000Z</time>
      </trkpt>
      <trkpt lat="42.7492" lon="1.61291">
        <ele>1889</ele>
        <time>2020-01-05T12:30:40.000Z</time>
      </trkpt>
      <trkpt lat="42.7492" lon="1.61291">
        <ele>1888</ele>
        <time>2020-01-05T12:30:42.000Z</time>
      </trkpt>
      <trkpt lat="42.7492" lon="1.61292">
        <ele>1888</ele>
        <time>2020-01-05T12:30:44.000Z</time>
      </trkpt>
      <trkpt lat="42.7492" lon="1.61292">
        <ele>1888</ele>
        <time>2020-01-05T12:30:46.000Z</time>
      </trkpt>
      <trkpt lat="42.7492" lon="1.61292">
        <ele>1888</ele>
        <time>2020-01-05T12:30:48.000Z</time>
      </trkpt>
      <trkpt lat="42.7492" lon="1.61292">
        <ele>1888</ele>
        <time>2020-01-05T12:30:50.000Z</time>
      </trkpt>
      <trkpt lat="42.7492" lon="1.61292">
        <ele>1888</ele>
        <time>2020-01-05T12:30:52.000Z</time>
      </trkpt>
      <trkpt lat="42.7492" lon="1.61291">
        <ele>1889</ele>
        <time>2020-01-05T12:30:54.000Z</time>
      </trkpt>
      <trkpt lat="42.7492" lon="1.61291">
        <ele>1889</ele>
        <time>2020-01-05T12:30:56.000Z</time>
      </trkpt>
      <trkpt lat="42.7492" lon="1.61291">
        <ele>1888</ele>
        <time>2020-01-05T12:30:58.000Z</time>
      </trkpt>
      <trkpt lat="42.7492" lon="1.61291">
        <ele>1889</ele>
        <time>2020-01-05T12:31:00.000Z</time>
      </trkpt>
      <trkpt lat="42.7492" lon="1.61291">
        <ele>1888</ele>
        <time>2020-01-05T12:31:02.000Z</time>
      </trkpt>
      <trkpt lat="42.7492" lon="1.61291">
        <ele>1888</ele>
        <time>2020-01-05T12:31:04.000Z</time>
      </trkpt>
      <trkpt lat="42.74919" lon="1.61291">
        <ele>1888</ele>
        <time>2020-01-05T12:31:06.000Z</time>
      </trkpt>
      <trkpt lat="42.74919" lon="1.61292">
        <ele>1888</ele>
        <time>2020-01-05T12:31:08.000Z</time>
      </trkpt>
      <trkpt lat="42.74919" lon="1.61292">
        <ele>1888</ele>
        <time>2020-01-05T12:31:10.000Z</time>
      </trkpt>
      <trkpt lat="42.74919" lon="1.61292">
        <ele>1888</ele>
        <time>2020-01-05T12:31:12.000Z</time>
      </trkpt>
      <trkpt lat="42.74919" lon="1.61292">
        <ele>1888</ele>
        <time>2020-01-05T12:31:14.000Z</time>
      </trkpt>
      <trkpt lat="42.74919" lon="1.61292">
        <ele>1888</ele>
        <time>2020-01-05T12:31:16.000Z</time>
      </trkpt>
      <trkpt lat="42.74918" lon="1.61291">
        <ele>1888</ele>
        <time>2020-01-05T12:31:18.000Z</time>
      </trkpt>
      <trkpt lat="42.74919" lon="1.61291">
        <ele>1888</ele>
        <time>2020-01-05T12:31:20.000Z</time>
      </trkpt>
      <trkpt lat="42.74919" lon="1.61291">
        <ele>1888</ele>
        <time>2020-01-05T12:31:22.000Z</time>
      </trkpt>
      <trkpt lat="42.74919" lon="1.61291">
        <ele>1888</ele>
        <time>2020-01-05T12:31:24.000Z</time>
      </trkpt>
      <trkpt lat="42.74918" lon="1.61292">
        <ele>1888</ele>
        <time>2020-01-05T12:31:26.000Z</time>
      </trkpt>
      <trkpt lat="42.74918" lon="1.61292">
        <ele>1888</ele>
        <time>2020-01-05T12:31:28.000Z</time>
      </trkpt>
      <trkpt lat="42.74919" lon="1.61291">
        <ele>1888</ele>
        <time>2020-01-05T12:31:30.000Z</time>
      </trkpt>
      <trkpt lat="42.74919" lon="1.6129">
        <ele>1888</ele>
        <time>2020-01-05T12:31:32.000Z</time>
      </trkpt>
      <trkpt lat="42.7492" lon="1.61289">
        <ele>1889</ele>
        <time>2020-01-05T12:31:34.000Z</time>
      </trkpt>
      <trkpt lat="42.74921" lon="1.61289">
        <ele>1889</ele>
        <time>2020-01-05T12:31:36.000Z</time>
      </trkpt>
      <trkpt lat="42.74922" lon="1.61288">
        <ele>1889</ele>
        <time>2020-01-05T12:31:38.000Z</time>
      </trkpt>
      <trkpt lat="42.74923" lon="1.61287">
        <ele>1889</ele>
        <time>2020-01-05T12:31:40.000Z</time>
      </trkpt>
      <trkpt lat="42.74924" lon="1.61286">
        <ele>1889</ele>
        <time>2020-01-05T12:31:42.000Z</time>
      </trkpt>
      <trkpt lat="42.74926" lon="1.61286">
        <ele>1889</ele>
        <time>2020-01-05T12:31:44.000Z</time>
      </trkpt>
      <trkpt lat="42.74927" lon="1.61285">
        <ele>1888</ele>
        <time>2020-01-05T12:31:46.000Z</time>
      </trkpt>
      <trkpt lat="42.74929" lon="1.61285">
        <ele>1888</ele>
        <time>2020-01-05T12:31:48.000Z</time>
      </trkpt>
      <trkpt lat="42.7493" lon="1.61285">
        <ele>1888</ele>
        <time>2020-01-05T12:31:50.000Z</time>
      </trkpt>
      <trkpt lat="42.74932" lon="1.61284">
        <ele>1888</ele>
        <time>2020-01-05T12:31:52.000Z</time>
      </trkpt>
      <trkpt lat="42.74933" lon="1.61283">
        <ele>1888</ele>
        <time>2020-01-05T12:31:54.000Z</time>
      </trkpt>
      <trkpt lat="42.74935" lon="1.61282">
        <ele>1888</ele>
        <time>2020-01-05T12:31:56.000Z</time>
      </trkpt>
      <trkpt lat="42.74937" lon="1.61282">
        <ele>1888</ele>
        <time>2020-01-05T12:31:58.000Z</time>
      </trkpt>
      <trkpt lat="42.74938" lon="1.61281">
        <ele>1888</ele>
        <time>2020-01-05T12:32:00.000Z</time>
      </trkpt>
      <trkpt lat="42.74939" lon="1.61279">
        <ele>1888</ele>
        <time>2020-01-05T12:32:02.000Z</time>
      </trkpt>
      <trkpt lat="42.7494" lon="1.61278">
        <ele>1888</ele>
        <time>2020-01-05T12:32:04.000Z</time>
      </trkpt>
      <trkpt lat="42.74941" lon="1.61278">
        <ele>1888</ele>
        <time>2020-01-05T12:32:06.000Z</time>
      </trkpt>
      <trkpt lat="42.74942" lon="1.61277">
        <ele>1888</ele>
        <time>2020-01-05T12:32:08.000Z</time>
      </trkpt>
      <trkpt lat="42.74943" lon="1.61277">
        <ele>1888</ele>
        <time>2020-01-05T12:32:10.000Z</time>
      </trkpt>
      <trkpt lat="42.74944" lon="1.61277">
        <ele>1888</ele>
        <time>2020-01-05T12:32:12.000Z</time>
      </trkpt>
      <trkpt lat="42.74946" lon="1.61276">
        <ele>1887</ele>
        <time>2020-01-05T12:32:14.000Z</time>
      </trkpt>
      <trkpt lat="42.74947" lon="1.61276">
        <ele>1887</ele>
        <time>2020-01-05T12:32:16.000Z</time>
      </trkpt>
      <trkpt lat="42.74949" lon="1.61275">
        <ele>1887</ele>
        <time>2020-01-05T12:32:18.000Z</time>
      </trkpt>
      <trkpt lat="42.7495" lon="1.61273">
        <ele>1887</ele>
        <time>2020-01-05T12:32:20.000Z</time>
      </trkpt>
      <trkpt lat="42.74951" lon="1.61271">
        <ele>1887</ele>
        <time>2020-01-05T12:32:22.000Z</time>
      </trkpt>
      <trkpt lat="42.74952" lon="1.61269">
        <ele>1887</ele>
        <time>2020-01-05T12:32:24.000Z</time>
      </trkpt>
      <trkpt lat="42.74953" lon="1.61267">
        <ele>1887</ele>
        <time>2020-01-05T12:32:26.000Z</time>
      </trkpt>
      <trkpt lat="42.74954" lon="1.61266">
        <ele>1888</ele>
        <time>2020-01-05T12:32:28.000Z</time>
      </trkpt>
      <trkpt lat="42.74955" lon="1.61263">
        <ele>1888</ele>
        <time>2020-01-05T12:32:30.000Z</time>
      </trkpt>
      <trkpt lat="42.74956" lon="1.61261">
        <ele>1889</ele>
        <time>2020-01-05T12:32:32.000Z</time>
      </trkpt>
      <trkpt lat="42.74958" lon="1.61259">
        <ele>1889</ele>
        <time>2020-01-05T12:32:34.000Z</time>
      </trkpt>
      <trkpt lat="42.74958" lon="1.61256">
        <ele>1890</ele>
        <time>2020-01-05T12:32:36.000Z</time>
      </trkpt>
      <trkpt lat="42.74959" lon="1.61254">
        <ele>1890</ele>
        <time>2020-01-05T12:32:38.000Z</time>
      </trkpt>
      <trkpt lat="42.7496" lon="1.61252">
        <ele>1891</ele>
        <time>2020-01-05T12:32:40.000Z</time>
      </trkpt>
      <trkpt lat="42.74961" lon="1.61249">
        <ele>1892</ele>
        <time>2020-01-05T12:32:42.000Z</time>
      </trkpt>
      <trkpt lat="42.74962" lon="1.61248">
        <ele>1892</ele>
        <time>2020-01-05T12:32:44.000Z</time>
      </trkpt>
      <trkpt lat="42.74963" lon="1.61246">
        <ele>1892</ele>
        <time>2020-01-05T12:32:46.000Z</time>
      </trkpt>
      <trkpt lat="42.74965" lon="1.61244">
        <ele>1893</ele>
        <time>2020-01-05T12:32:48.000Z</time>
      </trkpt>
      <trkpt lat="42.74966" lon="1.61242">
        <ele>1893</ele>
        <time>2020-01-05T12:32:50.000Z</time>
      </trkpt>
      <trkpt lat="42.74967" lon="1.6124">
        <ele>1894</ele>
        <time>2020-01-05T12:32:52.000Z</time>
      </trkpt>
      <trkpt lat="42.74968" lon="1.61238">
        <ele>1894</ele>
        <time>2020-01-05T12:32:54.000Z</time>
      </trkpt>
      <trkpt lat="42.74969" lon="1.61236">
        <ele>1895</ele>
        <time>2020-01-05T12:32:56.000Z</time>
      </trkpt>
      <trkpt lat="42.74971" lon="1.61234">
        <ele>1895</ele>
        <time>2020-01-05T12:32:58.000Z</time>
      </trkpt>
      <trkpt lat="42.74972" lon="1.61232">
        <ele>1895</ele>
        <time>2020-01-05T12:33:00.000Z</time>
      </trkpt>
      <trkpt lat="42.74973" lon="1.61229">
        <ele>1895</ele>
        <time>2020-01-05T12:33:02.000Z</time>
      </trkpt>
      <trkpt lat="42.74974" lon="1.61227">
        <ele>1895</ele>
        <time>2020-01-05T12:33:04.000Z</time>
      </trkpt>
      <trkpt lat="42.74976" lon="1.61224">
        <ele>1895</ele>
        <time>2020-01-05T12:33:06.000Z</time>
      </trkpt>
      <trkpt lat="42.74977" lon="1.61223">
        <ele>1895</ele>
        <time>2020-01-05T12:33:08.000Z</time>
      </trkpt>
      <trkpt lat="42.74979" lon="1.61221">
        <ele>1895</ele>
        <time>2020-01-05T12:33:10.000Z</time>
      </trkpt>
      <trkpt lat="42.7498" lon="1.61219">
        <ele>1895</ele>
        <time>2020-01-05T12:33:12.000Z</time>
      </trkpt>
      <trkpt lat="42.74981" lon="1.61216">
        <ele>1895</ele>
        <time>2020-01-05T12:33:14.000Z</time>
      </trkpt>
      <trkpt lat="42.74983" lon="1.61214">
        <ele>1895</ele>
        <time>2020-01-05T12:33:16.000Z</time>
      </trkpt>
      <trkpt lat="42.74984" lon="1.61213">
        <ele>1895</ele>
        <time>2020-01-05T12:33:18.000Z</time>
      </trkpt>
      <trkpt lat="42.74985" lon="1.6121">
        <ele>1895</ele>
        <time>2020-01-05T12:33:20.000Z</time>
      </trkpt>
      <trkpt lat="42.74987" lon="1.61208">
        <ele>1895</ele>
        <time>2020-01-05T12:33:22.000Z</time>
      </trkpt>
      <trkpt lat="42.74989" lon="1.61206">
        <ele>1895</ele>
        <time>2020-01-05T12:33:24.000Z</time>
      </trkpt>
      <trkpt lat="42.7499" lon="1.61205">
        <ele>1896</ele>
        <time>2020-01-05T12:33:26.000Z</time>
      </trkpt>
      <trkpt lat="42.74992" lon="1.61203">
        <ele>1896</ele>
        <time>2020-01-05T12:33:28.000Z</time>
      </trkpt>
      <trkpt lat="42.74993" lon="1.61201">
        <ele>1896</ele>
        <time>2020-01-05T12:33:30.000Z</time>
      </trkpt>
      <trkpt lat="42.74996" lon="1.61199">
        <ele>1896</ele>
        <time>2020-01-05T12:33:32.000Z</time>
      </trkpt>
      <trkpt lat="42.74997" lon="1.61197">
        <ele>1897</ele>
        <time>2020-01-05T12:33:34.000Z</time>
      </trkpt>
      <trkpt lat="42.74999" lon="1.61196">
        <ele>1897</ele>
        <time>2020-01-05T12:33:36.000Z</time>
      </trkpt>
      <trkpt lat="42.75" lon="1.61194">
        <ele>1897</ele>
        <time>2020-01-05T12:33:38.000Z</time>
      </trkpt>
      <trkpt lat="42.75002" lon="1.61192">
        <ele>1897</ele>
        <time>2020-01-05T12:33:40.000Z</time>
      </trkpt>
      <trkpt lat="42.75003" lon="1.6119">
        <ele>1897</ele>
        <time>2020-01-05T12:33:42.000Z</time>
      </trkpt>
      <trkpt lat="42.75005" lon="1.61188">
        <ele>1897</ele>
        <time>2020-01-05T12:33:44.000Z</time>
      </trkpt>
      <trkpt lat="42.75007" lon="1.61185">
        <ele>1897</ele>
        <time>2020-01-05T12:33:46.000Z</time>
      </trkpt>
      <trkpt lat="42.75008" lon="1.61183">
        <ele>1896</ele>
        <time>2020-01-05T12:33:48.000Z</time>
      </trkpt>
      <trkpt lat="42.75009" lon="1.61181">
        <ele>1895</ele>
        <time>2020-01-05T12:33:50.000Z</time>
      </trkpt>
      <trkpt lat="42.75011" lon="1.61179">
        <ele>1895</ele>
        <time>2020-01-05T12:33:52.000Z</time>
      </trkpt>
      <trkpt lat="42.75013" lon="1.61177">
        <ele>1894</ele>
        <time>2020-01-05T12:33:54.000Z</time>
      </trkpt>
      <trkpt lat="42.75014" lon="1.61175">
        <ele>1893</ele>
        <time>2020-01-05T12:33:56.000Z</time>
      </trkpt>
      <trkpt lat="42.75016" lon="1.61173">
        <ele>1893</ele>
        <time>2020-01-05T12:33:58.000Z</time>
      </trkpt>
      <trkpt lat="42.75018" lon="1.61172">
        <ele>1892</ele>
        <time>2020-01-05T12:34:00.000Z</time>
      </trkpt>
      <trkpt lat="42.7502" lon="1.6117">
        <ele>1891</ele>
        <time>2020-01-05T12:34:02.000Z</time>
      </trkpt>
      <trkpt lat="42.75021" lon="1.61168">
        <ele>1891</ele>
        <time>2020-01-05T12:34:04.000Z</time>
      </trkpt>
      <trkpt lat="42.75023" lon="1.61166">
        <ele>1891</ele>
        <time>2020-01-05T12:34:06.000Z</time>
      </trkpt>
      <trkpt lat="42.75025" lon="1.61164">
        <ele>1891</ele>
        <time>2020-01-05T12:34:08.000Z</time>
      </trkpt>
      <trkpt lat="42.75026" lon="1.61161">
        <ele>1892</ele>
        <time>2020-01-05T12:34:10.000Z</time>
      </trkpt>
      <trkpt lat="42.75027" lon="1.61159">
        <ele>1892</ele>
        <time>2020-01-05T12:34:12.000Z</time>
      </trkpt>
      <trkpt lat="42.75029" lon="1.61157">
        <ele>1893</ele>
        <time>2020-01-05T12:34:14.000Z</time>
      </trkpt>
      <trkpt lat="42.7503" lon="1.61155">
        <ele>1893</ele>
        <time>2020-01-05T12:34:16.000Z</time>
      </trkpt>
      <trkpt lat="42.75032" lon="1.61152">
        <ele>1893</ele>
        <time>2020-01-05T12:34:18.000Z</time>
      </trkpt>
      <trkpt lat="42.75033" lon="1.6115">
        <ele>1893</ele>
        <time>2020-01-05T12:34:20.000Z</time>
      </trkpt>
      <trkpt lat="42.75035" lon="1.61148">
        <ele>1892</ele>
        <time>2020-01-05T12:34:22.000Z</time>
      </trkpt>
      <trkpt lat="42.75036" lon="1.61146">
        <ele>1892</ele>
        <time>2020-01-05T12:34:24.000Z</time>
      </trkpt>
      <trkpt lat="42.75037" lon="1.61143">
        <ele>1891</ele>
        <time>2020-01-05T12:34:26.000Z</time>
      </trkpt>
      <trkpt lat="42.75039" lon="1.61141">
        <ele>1890</ele>
        <time>2020-01-05T12:34:28.000Z</time>
      </trkpt>
      <trkpt lat="42.7504" lon="1.61139">
        <ele>1890</ele>
        <time>2020-01-05T12:34:30.000Z</time>
      </trkpt>
      <trkpt lat="42.75042" lon="1.61137">
        <ele>1889</ele>
        <time>2020-01-05T12:34:32.000Z</time>
      </trkpt>
      <trkpt lat="42.75043" lon="1.61134">
        <ele>1888</ele>
        <time>2020-01-05T12:34:34.000Z</time>
      </trkpt>
      <trkpt lat="42.75044" lon="1.61132">
        <ele>1888</ele>
        <time>2020-01-05T12:34:36.000Z</time>
      </trkpt>
      <trkpt lat="42.75046" lon="1.61129">
        <ele>1887</ele>
        <time>2020-01-05T12:34:38.000Z</time>
      </trkpt>
      <trkpt lat="42.75047" lon="1.61127">
        <ele>1887</ele>
        <time>2020-01-05T12:34:40.000Z</time>
      </trkpt>
      <trkpt lat="42.75049" lon="1.61124">
        <ele>1886</ele>
        <time>2020-01-05T12:34:42.000Z</time>
      </trkpt>
      <trkpt lat="42.7505" lon="1.61122">
        <ele>1885</ele>
        <time>2020-01-05T12:34:44.000Z</time>
      </trkpt>
      <trkpt lat="42.75052" lon="1.6112">
        <ele>1885</ele>
        <time>2020-01-05T12:34:46.000Z</time>
      </trkpt>
      <trkpt lat="42.75054" lon="1.61118">
        <ele>1884</ele>
        <time>2020-01-05T12:34:48.000Z</time>
      </trkpt>
      <trkpt lat="42.75056" lon="1.61116">
        <ele>1884</ele>
        <time>2020-01-05T12:34:50.000Z</time>
      </trkpt>
      <trkpt lat="42.75057" lon="1.61113">
        <ele>1884</ele>
        <time>2020-01-05T12:34:52.000Z</time>
      </trkpt>
      <trkpt lat="42.75059" lon="1.61111">
        <ele>1884</ele>
        <time>2020-01-05T12:34:54.000Z</time>
      </trkpt>
      <trkpt lat="42.75061" lon="1.61109">
        <ele>1884</ele>
        <time>2020-01-05T12:34:56.000Z</time>
      </trkpt>
      <trkpt lat="42.75062" lon="1.61107">
        <ele>1884</ele>
        <time>2020-01-05T12:34:58.000Z</time>
      </trkpt>
      <trkpt lat="42.75063" lon="1.61104">
        <ele>1884</ele>
        <time>2020-01-05T12:35:00.000Z</time>
      </trkpt>
      <trkpt lat="42.75064" lon="1.61101">
        <ele>1884</ele>
        <time>2020-01-05T12:35:02.000Z</time>
      </trkpt>
      <trkpt lat="42.75065" lon="1.61099">
        <ele>1884</ele>
        <time>2020-01-05T12:35:04.000Z</time>
      </trkpt>
      <trkpt lat="42.75067" lon="1.61096">
        <ele>1884</ele>
        <time>2020-01-05T12:35:06.000Z</time>
      </trkpt>
      <trkpt lat="42.75068" lon="1.61094">
        <ele>1884</ele>
        <time>2020-01-05T12:35:08.000Z</time>
      </trkpt>
      <trkpt lat="42.7507" lon="1.61092">
        <ele>1885</ele>
        <time>2020-01-05T12:35:10.000Z</time>
      </trkpt>
      <trkpt lat="42.75071" lon="1.61089">
        <ele>1885</ele>
        <time>2020-01-05T12:35:12.000Z</time>
      </trkpt>
      <trkpt lat="42.75072" lon="1.61086">
        <ele>1885</ele>
        <time>2020-01-05T12:35:14.000Z</time>
      </trkpt>
      <trkpt lat="42.75073" lon="1.61084">
        <ele>1885</ele>
        <time>2020-01-05T12:35:16.000Z</time>
      </trkpt>
      <trkpt lat="42.75075" lon="1.61081">
        <ele>1885</ele>
        <time>2020-01-05T12:35:18.000Z</time>
      </trkpt>
      <trkpt lat="42.75076" lon="1.61079">
        <ele>1885</ele>
        <time>2020-01-05T12:35:20.000Z</time>
      </trkpt>
      <trkpt lat="42.75077" lon="1.61077">
        <ele>1885</ele>
        <time>2020-01-05T12:35:22.000Z</time>
      </trkpt>
      <trkpt lat="42.75078" lon="1.61074">
        <ele>1885</ele>
        <time>2020-01-05T12:35:24.000Z</time>
      </trkpt>
      <trkpt lat="42.75079" lon="1.61071">
        <ele>1885</ele>
        <time>2020-01-05T12:35:26.000Z</time>
      </trkpt>
      <trkpt lat="42.75081" lon="1.61069">
        <ele>1885</ele>
        <time>2020-01-05T12:35:28.000Z</time>
      </trkpt>
      <trkpt lat="42.75082" lon="1.61067">
        <ele>1884</ele>
        <time>2020-01-05T12:35:30.000Z</time>
      </trkpt>
      <trkpt lat="42.75083" lon="1.61064">
        <ele>1884</ele>
        <time>2020-01-05T12:35:32.000Z</time>
      </trkpt>
      <trkpt lat="42.75084" lon="1.61062">
        <ele>1884</ele>
        <time>2020-01-05T12:35:34.000Z</time>
      </trkpt>
      <trkpt lat="42.75085" lon="1.61059">
        <ele>1883</ele>
        <time>2020-01-05T12:35:36.000Z</time>
      </trkpt>
      <trkpt lat="42.75087" lon="1.61057">
        <ele>1883</ele>
        <time>2020-01-05T12:35:38.000Z</time>
      </trkpt>
      <trkpt lat="42.75088" lon="1.61055">
        <ele>1883</ele>
        <time>2020-01-05T12:35:40.000Z</time>
      </trkpt>
      <trkpt lat="42.75089" lon="1.61052">
        <ele>1883</ele>
        <time>2020-01-05T12:35:42.000Z</time>
      </trkpt>
      <trkpt lat="42.75089" lon="1.6105">
        <ele>1882</ele>
        <time>2020-01-05T12:35:44.000Z</time>
      </trkpt>
      <trkpt lat="42.7509" lon="1.61047">
        <ele>1882</ele>
        <time>2020-01-05T12:35:46.000Z</time>
      </trkpt>
      <trkpt lat="42.7509" lon="1.61044">
        <ele>1881</ele>
        <time>2020-01-05T12:35:48.000Z</time>
      </trkpt>
      <trkpt lat="42.75091" lon="1.61042">
        <ele>1881</ele>
        <time>2020-01-05T12:35:50.000Z</time>
      </trkpt>
      <trkpt lat="42.75092" lon="1.61039">
        <ele>1880</ele>
        <time>2020-01-05T12:35:52.000Z</time>
      </trkpt>
      <trkpt lat="42.75093" lon="1.61037">
        <ele>1880</ele>
        <time>2020-01-05T12:35:54.000Z</time>
      </trkpt>
      <trkpt lat="42.75094" lon="1.61035">
        <ele>1879</ele>
        <time>2020-01-05T12:35:56.000Z</time>
      </trkpt>
      <trkpt lat="42.75095" lon="1.61033">
        <ele>1879</ele>
        <time>2020-01-05T12:35:58.000Z</time>
      </trkpt>
      <trkpt lat="42.75095" lon="1.6103">
        <ele>1879</ele>
        <time>2020-01-05T12:36:00.000Z</time>
      </trkpt>
      <trkpt lat="42.75097" lon="1.61028">
        <ele>1878</ele>
        <time>2020-01-05T12:36:02.000Z</time>
      </trkpt>
      <trkpt lat="42.75098" lon="1.61026">
        <ele>1878</ele>
        <time>2020-01-05T12:36:04.000Z</time>
      </trkpt>
      <trkpt lat="42.75099" lon="1.61025">
        <ele>1877</ele>
        <time>2020-01-05T12:36:06.000Z</time>
      </trkpt>
      <trkpt lat="42.75099" lon="1.61023">
        <ele>1877</ele>
        <time>2020-01-05T12:36:08.000Z</time>
      </trkpt>
      <trkpt lat="42.751" lon="1.61021">
        <ele>1877</ele>
        <time>2020-01-05T12:36:10.000Z</time>
      </trkpt>
      <trkpt lat="42.75101" lon="1.6102">
        <ele>1876</ele>
        <time>2020-01-05T12:36:12.000Z</time>
      </trkpt>
      <trkpt lat="42.75101" lon="1.61018">
        <ele>1876</ele>
        <time>2020-01-05T12:36:14.000Z</time>
      </trkpt>
      <trkpt lat="42.75102" lon="1.61016">
        <ele>1876</ele>
        <time>2020-01-05T12:36:16.000Z</time>
      </trkpt>
      <trkpt lat="42.75102" lon="1.61014">
        <ele>1875</ele>
        <time>2020-01-05T12:36:18.000Z</time>
      </trkpt>
      <trkpt lat="42.75103" lon="1.61012">
        <ele>1875</ele>
        <time>2020-01-05T12:36:20.000Z</time>
      </trkpt>
      <trkpt lat="42.75103" lon="1.61011">
        <ele>1875</ele>
        <time>2020-01-05T12:36:22.000Z</time>
      </trkpt>
      <trkpt lat="42.75105" lon="1.61009">
        <ele>1874</ele>
        <time>2020-01-05T12:36:24.000Z</time>
      </trkpt>
      <trkpt lat="42.75105" lon="1.61007">
        <ele>1874</ele>
        <time>2020-01-05T12:36:26.000Z</time>
      </trkpt>
      <trkpt lat="42.75106" lon="1.61005">
        <ele>1874</ele>
        <time>2020-01-05T12:36:28.000Z</time>
      </trkpt>
      <trkpt lat="42.75106" lon="1.61003">
        <ele>1873</ele>
        <time>2020-01-05T12:36:30.000Z</time>
      </trkpt>
      <trkpt lat="42.75106" lon="1.61002">
        <ele>1873</ele>
        <time>2020-01-05T12:36:32.000Z</time>
      </trkpt>
      <trkpt lat="42.75107" lon="1.61">
        <ele>1873</ele>
        <time>2020-01-05T12:36:34.000Z</time>
      </trkpt>
      <trkpt lat="42.75108" lon="1.60998">
        <ele>1873</ele>
        <time>2020-01-05T12:36:36.000Z</time>
      </trkpt>
      <trkpt lat="42.75109" lon="1.60997">
        <ele>1873</ele>
        <time>2020-01-05T12:36:38.000Z</time>
      </trkpt>
      <trkpt lat="42.7511" lon="1.60997">
        <ele>1873</ele>
        <time>2020-01-05T12:36:40.000Z</time>
      </trkpt>
      <trkpt lat="42.75111" lon="1.60997">
        <ele>1873</ele>
        <time>2020-01-05T12:36:42.000Z</time>
      </trkpt>
      <trkpt lat="42.75112" lon="1.60996">
        <ele>1872</ele>
        <time>2020-01-05T12:36:44.000Z</time>
      </trkpt>
      <trkpt lat="42.75113" lon="1.60995">
        <ele>1872</ele>
        <time>2020-01-05T12:36:46.000Z</time>
      </trkpt>
      <trkpt lat="42.75114" lon="1.60994">
        <ele>1872</ele>
        <time>2020-01-05T12:36:48.000Z</time>
      </trkpt>
      <trkpt lat="42.75115" lon="1.60993">
        <ele>1872</ele>
        <time>2020-01-05T12:36:50.000Z</time>
      </trkpt>
      <trkpt lat="42.75116" lon="1.60992">
        <ele>1872</ele>
        <time>2020-01-05T12:36:52.000Z</time>
      </trkpt>
      <trkpt lat="42.75117" lon="1.60991">
        <ele>1872</ele>
        <time>2020-01-05T12:36:54.000Z</time>
      </trkpt>
      <trkpt lat="42.75118" lon="1.60991">
        <ele>1872</ele>
        <time>2020-01-05T12:36:56.000Z</time>
      </trkpt>
      <trkpt lat="42.75119" lon="1.6099">
        <ele>1872</ele>
        <time>2020-01-05T12:36:58.000Z</time>
      </trkpt>
      <trkpt lat="42.7512" lon="1.60989">
        <ele>1871</ele>
        <time>2020-01-05T12:37:00.000Z</time>
      </trkpt>
      <trkpt lat="42.75122" lon="1.60988">
        <ele>1871</ele>
        <time>2020-01-05T12:37:02.000Z</time>
      </trkpt>
      <trkpt lat="42.75123" lon="1.60987">
        <ele>1871</ele>
        <time>2020-01-05T12:37:04.000Z</time>
      </trkpt>
      <trkpt lat="42.75124" lon="1.60985">
        <ele>1871</ele>
        <time>2020-01-05T12:37:06.000Z</time>
      </trkpt>
      <trkpt lat="42.75125" lon="1.60984">
        <ele>1871</ele>
        <time>2020-01-05T12:37:08.000Z</time>
      </trkpt>
      <trkpt lat="42.75126" lon="1.60983">
        <ele>1870</ele>
        <time>2020-01-05T12:37:10.000Z</time>
      </trkpt>
      <trkpt lat="42.75127" lon="1.60982">
        <ele>1870</ele>
        <time>2020-01-05T12:37:12.000Z</time>
      </trkpt>
      <trkpt lat="42.75127" lon="1.60981">
        <ele>1870</ele>
        <time>2020-01-05T12:37:14.000Z</time>
      </trkpt>
      <trkpt lat="42.75128" lon="1.6098">
        <ele>1869</ele>
        <time>2020-01-05T12:37:16.000Z</time>
      </trkpt>
      <trkpt lat="42.75128" lon="1.60979">
        <ele>1869</ele>
        <time>2020-01-05T12:37:18.000Z</time>
      </trkpt>
      <trkpt lat="42.75128" lon="1.60979">
        <ele>1869</ele>
        <time>2020-01-05T12:37:20.000Z</time>
      </trkpt>
      <trkpt lat="42.75128" lon="1.60979">
        <ele>1869</ele>
        <time>2020-01-05T12:37:22.000Z</time>
      </trkpt>
      <trkpt lat="42.75128" lon="1.60978">
        <ele>1869</ele>
        <time>2020-01-05T12:37:24.000Z</time>
      </trkpt>
      <trkpt lat="42.75129" lon="1.60977">
        <ele>1869</ele>
        <time>2020-01-05T12:37:26.000Z</time>
      </trkpt>
      <trkpt lat="42.75128" lon="1.60975">
        <ele>1868</ele>
        <time>2020-01-05T12:37:28.000Z</time>
      </trkpt>
      <trkpt lat="42.75128" lon="1.60974">
        <ele>1868</ele>
        <time>2020-01-05T12:37:30.000Z</time>
      </trkpt>
      <trkpt lat="42.75128" lon="1.60973">
        <ele>1868</ele>
        <time>2020-01-05T12:37:32.000Z</time>
      </trkpt>
      <trkpt lat="42.75128" lon="1.60972">
        <ele>1867</ele>
        <time>2020-01-05T12:37:34.000Z</time>
      </trkpt>
      <trkpt lat="42.75128" lon="1.60971">
        <ele>1867</ele>
        <time>2020-01-05T12:37:36.000Z</time>
      </trkpt>
      <trkpt lat="42.75128" lon="1.60968">
        <ele>1867</ele>
        <time>2020-01-05T12:37:38.000Z</time>
      </trkpt>
      <trkpt lat="42.75127" lon="1.60966">
        <ele>1866</ele>
        <time>2020-01-05T12:37:40.000Z</time>
      </trkpt>
      <trkpt lat="42.75127" lon="1.60964">
        <ele>1866</ele>
        <time>2020-01-05T12:37:42.000Z</time>
      </trkpt>
      <trkpt lat="42.75127" lon="1.60963">
        <ele>1865</ele>
        <time>2020-01-05T12:37:44.000Z</time>
      </trkpt>
      <trkpt lat="42.75127" lon="1.60961">
        <ele>1865</ele>
        <time>2020-01-05T12:37:46.000Z</time>
      </trkpt>
      <trkpt lat="42.75127" lon="1.60959">
        <ele>1864</ele>
        <time>2020-01-05T12:37:48.000Z</time>
      </trkpt>
      <trkpt lat="42.75127" lon="1.60957">
        <ele>1864</ele>
        <time>2020-01-05T12:37:50.000Z</time>
      </trkpt>
      <trkpt lat="42.75127" lon="1.60955">
        <ele>1864</ele>
        <time>2020-01-05T12:37:52.000Z</time>
      </trkpt>
      <trkpt lat="42.75128" lon="1.60953">
        <ele>1863</ele>
        <time>2020-01-05T12:37:54.000Z</time>
      </trkpt>
      <trkpt lat="42.75129" lon="1.60951">
        <ele>1862</ele>
        <time>2020-01-05T12:37:56.000Z</time>
      </trkpt>
      <trkpt lat="42.75129" lon="1.6095">
        <ele>1862</ele>
        <time>2020-01-05T12:37:58.000Z</time>
      </trkpt>
      <trkpt lat="42.7513" lon="1.60949">
        <ele>1862</ele>
        <time>2020-01-05T12:38:00.000Z</time>
      </trkpt>
      <trkpt lat="42.7513" lon="1.60947">
        <ele>1861</ele>
        <time>2020-01-05T12:38:02.000Z</time>
      </trkpt>
      <trkpt lat="42.75131" lon="1.60946">
        <ele>1861</ele>
        <time>2020-01-05T12:38:04.000Z</time>
      </trkpt>
      <trkpt lat="42.75131" lon="1.60944">
        <ele>1861</ele>
        <time>2020-01-05T12:38:06.000Z</time>
      </trkpt>
      <trkpt lat="42.75131" lon="1.60942">
        <ele>1860</ele>
        <time>2020-01-05T12:38:08.000Z</time>
      </trkpt>
      <trkpt lat="42.75131" lon="1.60941">
        <ele>1860</ele>
        <time>2020-01-05T12:38:10.000Z</time>
      </trkpt>
      <trkpt lat="42.75132" lon="1.60939">
        <ele>1860</ele>
        <time>2020-01-05T12:38:12.000Z</time>
      </trkpt>
      <trkpt lat="42.75132" lon="1.60938">
        <ele>1860</ele>
        <time>2020-01-05T12:38:14.000Z</time>
      </trkpt>
      <trkpt lat="42.75132" lon="1.60936">
        <ele>1859</ele>
        <time>2020-01-05T12:38:16.000Z</time>
      </trkpt>
      <trkpt lat="42.75133" lon="1.60935">
        <ele>1859</ele>
        <time>2020-01-05T12:38:18.000Z</time>
      </trkpt>
      <trkpt lat="42.75133" lon="1.60933">
        <ele>1859</ele>
        <time>2020-01-05T12:38:20.000Z</time>
      </trkpt>
      <trkpt lat="42.75134" lon="1.60931">
        <ele>1859</ele>
        <time>2020-01-05T12:38:22.000Z</time>
      </trkpt>
      <trkpt lat="42.75134" lon="1.6093">
        <ele>1859</ele>
        <time>2020-01-05T12:38:24.000Z</time>
      </trkpt>
      <trkpt lat="42.75135" lon="1.60929">
        <ele>1858</ele>
        <time>2020-01-05T12:38:26.000Z</time>
      </trkpt>
      <trkpt lat="42.75135" lon="1.60928">
        <ele>1858</ele>
        <time>2020-01-05T12:38:28.000Z</time>
      </trkpt>
      <trkpt lat="42.75136" lon="1.60926">
        <ele>1858</ele>
        <time>2020-01-05T12:38:30.000Z</time>
      </trkpt>
      <trkpt lat="42.75136" lon="1.60925">
        <ele>1858</ele>
        <time>2020-01-05T12:38:32.000Z</time>
      </trkpt>
      <trkpt lat="42.75137" lon="1.60923">
        <ele>1858</ele>
        <time>2020-01-05T12:38:34.000Z</time>
      </trkpt>
      <trkpt lat="42.75137" lon="1.60922">
        <ele>1857</ele>
        <time>2020-01-05T12:38:36.000Z</time>
      </trkpt>
      <trkpt lat="42.75137" lon="1.6092">
        <ele>1857</ele>
        <time>2020-01-05T12:38:38.000Z</time>
      </trkpt>
      <trkpt lat="42.75137" lon="1.60918">
        <ele>1857</ele>
        <time>2020-01-05T12:38:40.000Z</time>
      </trkpt>
      <trkpt lat="42.75138" lon="1.60916">
        <ele>1857</ele>
        <time>2020-01-05T12:38:42.000Z</time>
      </trkpt>
      <trkpt lat="42.75139" lon="1.60915">
        <ele>1856</ele>
        <time>2020-01-05T12:38:44.000Z</time>
      </trkpt>
      <trkpt lat="42.75139" lon="1.60914">
        <ele>1856</ele>
        <time>2020-01-05T12:38:46.000Z</time>
      </trkpt>
      <trkpt lat="42.7514" lon="1.60912">
        <ele>1856</ele>
        <time>2020-01-05T12:38:48.000Z</time>
      </trkpt>
      <trkpt lat="42.7514" lon="1.60911">
        <ele>1856</ele>
        <time>2020-01-05T12:38:50.000Z</time>
      </trkpt>
      <trkpt lat="42.75141" lon="1.60911">
        <ele>1856</ele>
        <time>2020-01-05T12:38:52.000Z</time>
      </trkpt>
      <trkpt lat="42.75141" lon="1.60911">
        <ele>1856</ele>
        <time>2020-01-05T12:38:54.000Z</time>
      </trkpt>
      <trkpt lat="42.75141" lon="1.60911">
        <ele>1856</ele>
        <time>2020-01-05T12:38:56.000Z</time>
      </trkpt>
      <trkpt lat="42.75141" lon="1.60911">
        <ele>1856</ele>
        <time>2020-01-05T12:38:58.000Z</time>
      </trkpt>
      <trkpt lat="42.75142" lon="1.60911">
        <ele>1856</ele>
        <time>2020-01-05T12:39:00.000Z</time>
      </trkpt>
      <trkpt lat="42.75143" lon="1.60911">
        <ele>1856</ele>
        <time>2020-01-05T12:39:02.000Z</time>
      </trkpt>
      <trkpt lat="42.75144" lon="1.6091">
        <ele>1856</ele>
        <time>2020-01-05T12:39:04.000Z</time>
      </trkpt>
      <trkpt lat="42.75146" lon="1.60909">
        <ele>1856</ele>
        <time>2020-01-05T12:39:06.000Z</time>
      </trkpt>
      <trkpt lat="42.75147" lon="1.60907">
        <ele>1855</ele>
        <time>2020-01-05T12:39:08.000Z</time>
      </trkpt>
      <trkpt lat="42.75148" lon="1.60906">
        <ele>1855</ele>
        <time>2020-01-05T12:39:10.000Z</time>
      </trkpt>
      <trkpt lat="42.75149" lon="1.60904">
        <ele>1855</ele>
        <time>2020-01-05T12:39:12.000Z</time>
      </trkpt>
      <trkpt lat="42.7515" lon="1.60904">
        <ele>1855</ele>
        <time>2020-01-05T12:39:14.000Z</time>
      </trkpt>
      <trkpt lat="42.75151" lon="1.60902">
        <ele>1855</ele>
        <time>2020-01-05T12:39:16.000Z</time>
      </trkpt>
      <trkpt lat="42.75152" lon="1.60901">
        <ele>1854</ele>
        <time>2020-01-05T12:39:18.000Z</time>
      </trkpt>
      <trkpt lat="42.75153" lon="1.60899">
        <ele>1854</ele>
        <time>2020-01-05T12:39:20.000Z</time>
      </trkpt>
      <trkpt lat="42.75154" lon="1.60898">
        <ele>1854</ele>
        <time>2020-01-05T12:39:22.000Z</time>
      </trkpt>
      <trkpt lat="42.75155" lon="1.60897">
        <ele>1853</ele>
        <time>2020-01-05T12:39:24.000Z</time>
      </trkpt>
      <trkpt lat="42.75156" lon="1.60895">
        <ele>1853</ele>
        <time>2020-01-05T12:39:26.000Z</time>
      </trkpt>
      <trkpt lat="42.75157" lon="1.60893">
        <ele>1852</ele>
        <time>2020-01-05T12:39:28.000Z</time>
      </trkpt>
      <trkpt lat="42.75157" lon="1.60892">
        <ele>1852</ele>
        <time>2020-01-05T12:39:30.000Z</time>
      </trkpt>
      <trkpt lat="42.75158" lon="1.6089">
        <ele>1851</ele>
        <time>2020-01-05T12:39:32.000Z</time>
      </trkpt>
      <trkpt lat="42.75159" lon="1.60888">
        <ele>1851</ele>
        <time>2020-01-05T12:39:34.000Z</time>
      </trkpt>
      <trkpt lat="42.75161" lon="1.60886">
        <ele>1851</ele>
        <time>2020-01-05T12:39:36.000Z</time>
      </trkpt>
      <trkpt lat="42.75162" lon="1.60886">
        <ele>1851</ele>
        <time>2020-01-05T12:39:38.000Z</time>
      </trkpt>
      <trkpt lat="42.75163" lon="1.60884">
        <ele>1850</ele>
        <time>2020-01-05T12:39:40.000Z</time>
      </trkpt>
      <trkpt lat="42.75164" lon="1.60883">
        <ele>1850</ele>
        <time>2020-01-05T12:39:42.000Z</time>
      </trkpt>
      <trkpt lat="42.75164" lon="1.60882">
        <ele>1850</ele>
        <time>2020-01-05T12:39:44.000Z</time>
      </trkpt>
      <trkpt lat="42.75165" lon="1.6088">
        <ele>1850</ele>
        <time>2020-01-05T12:39:46.000Z</time>
      </trkpt>
      <trkpt lat="42.75166" lon="1.60878">
        <ele>1850</ele>
        <time>2020-01-05T12:39:48.000Z</time>
      </trkpt>
      <trkpt lat="42.75167" lon="1.60877">
        <ele>1849</ele>
        <time>2020-01-05T12:39:50.000Z</time>
      </trkpt>
      <trkpt lat="42.75169" lon="1.60875">
        <ele>1849</ele>
        <time>2020-01-05T12:39:52.000Z</time>
      </trkpt>
      <trkpt lat="42.7517" lon="1.60874">
        <ele>1849</ele>
        <time>2020-01-05T12:39:54.000Z</time>
      </trkpt>
      <trkpt lat="42.7517" lon="1.60871">
        <ele>1849</ele>
        <time>2020-01-05T12:39:56.000Z</time>
      </trkpt>
      <trkpt lat="42.75171" lon="1.60869">
        <ele>1848</ele>
        <time>2020-01-05T12:39:58.000Z</time>
      </trkpt>
      <trkpt lat="42.75172" lon="1.60867">
        <ele>1848</ele>
        <time>2020-01-05T12:40:00.000Z</time>
      </trkpt>
      <trkpt lat="42.75173" lon="1.60866">
        <ele>1847</ele>
        <time>2020-01-05T12:40:02.000Z</time>
      </trkpt>
      <trkpt lat="42.75174" lon="1.60864">
        <ele>1846</ele>
        <time>2020-01-05T12:40:04.000Z</time>
      </trkpt>
      <trkpt lat="42.75175" lon="1.60863">
        <ele>1846</ele>
        <time>2020-01-05T12:40:06.000Z</time>
      </trkpt>
      <trkpt lat="42.75176" lon="1.60861">
        <ele>1845</ele>
        <time>2020-01-05T12:40:08.000Z</time>
      </trkpt>
      <trkpt lat="42.75177" lon="1.60859">
        <ele>1844</ele>
        <time>2020-01-05T12:40:10.000Z</time>
      </trkpt>
      <trkpt lat="42.75179" lon="1.60856">
        <ele>1843</ele>
        <time>2020-01-05T12:40:12.000Z</time>
      </trkpt>
      <trkpt lat="42.7518" lon="1.60853">
        <ele>1842</ele>
        <time>2020-01-05T12:40:14.000Z</time>
      </trkpt>
      <trkpt lat="42.75181" lon="1.6085">
        <ele>1841</ele>
        <time>2020-01-05T12:40:16.000Z</time>
      </trkpt>
      <trkpt lat="42.75182" lon="1.60849">
        <ele>1841</ele>
        <time>2020-01-05T12:40:18.000Z</time>
      </trkpt>
      <trkpt lat="42.75184" lon="1.60847">
        <ele>1840</ele>
        <time>2020-01-05T12:40:20.000Z</time>
      </trkpt>
      <trkpt lat="42.75185" lon="1.60844">
        <ele>1839</ele>
        <time>2020-01-05T12:40:22.000Z</time>
      </trkpt>
      <trkpt lat="42.75186" lon="1.60842">
        <ele>1838</ele>
        <time>2020-01-05T12:40:24.000Z</time>
      </trkpt>
      <trkpt lat="42.75187" lon="1.6084">
        <ele>1837</ele>
        <time>2020-01-05T12:40:26.000Z</time>
      </trkpt>
      <trkpt lat="42.75189" lon="1.60839">
        <ele>1836</ele>
        <time>2020-01-05T12:40:28.000Z</time>
      </trkpt>
      <trkpt lat="42.7519" lon="1.60836">
        <ele>1836</ele>
        <time>2020-01-05T12:40:30.000Z</time>
      </trkpt>
      <trkpt lat="42.7519" lon="1.60833">
        <ele>1836</ele>
        <time>2020-01-05T12:40:32.000Z</time>
      </trkpt>
      <trkpt lat="42.75192" lon="1.60831">
        <ele>1835</ele>
        <time>2020-01-05T12:40:34.000Z</time>
      </trkpt>
      <trkpt lat="42.75192" lon="1.60829">
        <ele>1835</ele>
        <time>2020-01-05T12:40:36.000Z</time>
      </trkpt>
      <trkpt lat="42.75193" lon="1.60827">
        <ele>1835</ele>
        <time>2020-01-05T12:40:38.000Z</time>
      </trkpt>
      <trkpt lat="42.75194" lon="1.60825">
        <ele>1835</ele>
        <time>2020-01-05T12:40:40.000Z</time>
      </trkpt>
      <trkpt lat="42.75195" lon="1.60822">
        <ele>1834</ele>
        <time>2020-01-05T12:40:42.000Z</time>
      </trkpt>
      <trkpt lat="42.75196" lon="1.6082">
        <ele>1834</ele>
        <time>2020-01-05T12:40:44.000Z</time>
      </trkpt>
      <trkpt lat="42.75198" lon="1.60818">
        <ele>1834</ele>
        <time>2020-01-05T12:40:46.000Z</time>
      </trkpt>
      <trkpt lat="42.75199" lon="1.60815">
        <ele>1833</ele>
        <time>2020-01-05T12:40:48.000Z</time>
      </trkpt>
      <trkpt lat="42.752" lon="1.60813">
        <ele>1832</ele>
        <time>2020-01-05T12:40:50.000Z</time>
      </trkpt>
      <trkpt lat="42.752" lon="1.6081">
        <ele>1831</ele>
        <time>2020-01-05T12:40:52.000Z</time>
      </trkpt>
      <trkpt lat="42.75201" lon="1.60808">
        <ele>1830</ele>
        <time>2020-01-05T12:40:54.000Z</time>
      </trkpt>
      <trkpt lat="42.75203" lon="1.60805">
        <ele>1829</ele>
        <time>2020-01-05T12:40:56.000Z</time>
      </trkpt>
      <trkpt lat="42.75204" lon="1.60803">
        <ele>1828</ele>
        <time>2020-01-05T12:40:58.000Z</time>
      </trkpt>
      <trkpt lat="42.75206" lon="1.60801">
        <ele>1827</ele>
        <time>2020-01-05T12:41:00.000Z</time>
      </trkpt>
      <trkpt lat="42.75207" lon="1.60799">
        <ele>1827</ele>
        <time>2020-01-05T12:41:02.000Z</time>
      </trkpt>
      <trkpt lat="42.75208" lon="1.60796">
        <ele>1826</ele>
        <time>2020-01-05T12:41:04.000Z</time>
      </trkpt>
      <trkpt lat="42.75209" lon="1.60795">
        <ele>1825</ele>
        <time>2020-01-05T12:41:06.000Z</time>
      </trkpt>
      <trkpt lat="42.7521" lon="1.60792">
        <ele>1824</ele>
        <time>2020-01-05T12:41:08.000Z</time>
      </trkpt>
      <trkpt lat="42.7521" lon="1.60789">
        <ele>1823</ele>
        <time>2020-01-05T12:41:10.000Z</time>
      </trkpt>
      <trkpt lat="42.7521" lon="1.60786">
        <ele>1823</ele>
        <time>2020-01-05T12:41:12.000Z</time>
      </trkpt>
      <trkpt lat="42.75211" lon="1.60783">
        <ele>1822</ele>
        <time>2020-01-05T12:41:14.000Z</time>
      </trkpt>
      <trkpt lat="42.75212" lon="1.6078">
        <ele>1821</ele>
        <time>2020-01-05T12:41:16.000Z</time>
      </trkpt>
      <trkpt lat="42.75214" lon="1.60778">
        <ele>1820</ele>
        <time>2020-01-05T12:41:18.000Z</time>
      </trkpt>
      <trkpt lat="42.75216" lon="1.60775">
        <ele>1819</ele>
        <time>2020-01-05T12:41:20.000Z</time>
      </trkpt>
      <trkpt lat="42.75218" lon="1.60773">
        <ele>1819</ele>
        <time>2020-01-05T12:41:22.000Z</time>
      </trkpt>
      <trkpt lat="42.75219" lon="1.60771">
        <ele>1818</ele>
        <time>2020-01-05T12:41:24.000Z</time>
      </trkpt>
      <trkpt lat="42.75221" lon="1.60769">
        <ele>1818</ele>
        <time>2020-01-05T12:41:26.000Z</time>
      </trkpt>
      <trkpt lat="42.75222" lon="1.60768">
        <ele>1818</ele>
        <time>2020-01-05T12:41:28.000Z</time>
      </trkpt>
      <trkpt lat="42.75224" lon="1.60765">
        <ele>1817</ele>
        <time>2020-01-05T12:41:30.000Z</time>
      </trkpt>
      <trkpt lat="42.75226" lon="1.60762">
        <ele>1817</ele>
        <time>2020-01-05T12:41:32.000Z</time>
      </trkpt>
      <trkpt lat="42.75227" lon="1.6076">
        <ele>1817</ele>
        <time>2020-01-05T12:41:34.000Z</time>
      </trkpt>
      <trkpt lat="42.75227" lon="1.60758">
        <ele>1816</ele>
        <time>2020-01-05T12:41:36.000Z</time>
      </trkpt>
      <trkpt lat="42.75227" lon="1.60756">
        <ele>1816</ele>
        <time>2020-01-05T12:41:38.000Z</time>
      </trkpt>
      <trkpt lat="42.75227" lon="1.60754">
        <ele>1816</ele>
        <time>2020-01-05T12:41:40.000Z</time>
      </trkpt>
      <trkpt lat="42.75228" lon="1.60751">
        <ele>1815</ele>
        <time>2020-01-05T12:41:42.000Z</time>
      </trkpt>
      <trkpt lat="42.75228" lon="1.60749">
        <ele>1815</ele>
        <time>2020-01-05T12:41:44.000Z</time>
      </trkpt>
      <trkpt lat="42.75229" lon="1.60747">
        <ele>1814</ele>
        <time>2020-01-05T12:41:46.000Z</time>
      </trkpt>
      <trkpt lat="42.7523" lon="1.60746">
        <ele>1814</ele>
        <time>2020-01-05T12:41:48.000Z</time>
      </trkpt>
      <trkpt lat="42.75232" lon="1.60744">
        <ele>1814</ele>
        <time>2020-01-05T12:41:50.000Z</time>
      </trkpt>
      <trkpt lat="42.75233" lon="1.60744">
        <ele>1814</ele>
        <time>2020-01-05T12:41:52.000Z</time>
      </trkpt>
      <trkpt lat="42.75235" lon="1.60744">
        <ele>1814</ele>
        <time>2020-01-05T12:41:54.000Z</time>
      </trkpt>
      <trkpt lat="42.75237" lon="1.60744">
        <ele>1814</ele>
        <time>2020-01-05T12:41:56.000Z</time>
      </trkpt>
      <trkpt lat="42.75238" lon="1.60743">
        <ele>1814</ele>
        <time>2020-01-05T12:41:58.000Z</time>
      </trkpt>
      <trkpt lat="42.75239" lon="1.60742">
        <ele>1813</ele>
        <time>2020-01-05T12:42:00.000Z</time>
      </trkpt>
      <trkpt lat="42.7524" lon="1.6074">
        <ele>1813</ele>
        <time>2020-01-05T12:42:02.000Z</time>
      </trkpt>
      <trkpt lat="42.75241" lon="1.60738">
        <ele>1813</ele>
        <time>2020-01-05T12:42:04.000Z</time>
      </trkpt>
      <trkpt lat="42.75241" lon="1.60737">
        <ele>1813</ele>
        <time>2020-01-05T12:42:06.000Z</time>
      </trkpt>
      <trkpt lat="42.75242" lon="1.60736">
        <ele>1812</ele>
        <time>2020-01-05T12:42:08.000Z</time>
      </trkpt>
      <trkpt lat="42.75243" lon="1.60734">
        <ele>1812</ele>
        <time>2020-01-05T12:42:10.000Z</time>
      </trkpt>
      <trkpt lat="42.75244" lon="1.60733">
        <ele>1812</ele>
        <time>2020-01-05T12:42:12.000Z</time>
      </trkpt>
      <trkpt lat="42.75246" lon="1.60732">
        <ele>1811</ele>
        <time>2020-01-05T12:42:14.000Z</time>
      </trkpt>
      <trkpt lat="42.75247" lon="1.60731">
        <ele>1811</ele>
        <time>2020-01-05T12:42:16.000Z</time>
      </trkpt>
      <trkpt lat="42.75248" lon="1.60729">
        <ele>1810</ele>
        <time>2020-01-05T12:42:18.000Z</time>
      </trkpt>
      <trkpt lat="42.75249" lon="1.60727">
        <ele>1810</ele>
        <time>2020-01-05T12:42:20.000Z</time>
      </trkpt>
      <trkpt lat="42.75251" lon="1.60726">
        <ele>1810</ele>
        <time>2020-01-05T12:42:22.000Z</time>
      </trkpt>
      <trkpt lat="42.75251" lon="1.60724">
        <ele>1810</ele>
        <time>2020-01-05T12:42:24.000Z</time>
      </trkpt>
      <trkpt lat="42.75251" lon="1.60722">
        <ele>1810</ele>
        <time>2020-01-05T12:42:26.000Z</time>
      </trkpt>
      <trkpt lat="42.75252" lon="1.6072">
        <ele>1809</ele>
        <time>2020-01-05T12:42:28.000Z</time>
      </trkpt>
      <trkpt lat="42.75254" lon="1.60719">
        <ele>1809</ele>
        <time>2020-01-05T12:42:30.000Z</time>
      </trkpt>
      <trkpt lat="42.75255" lon="1.60718">
        <ele>1809</ele>
        <time>2020-01-05T12:42:32.000Z</time>
      </trkpt>
      <trkpt lat="42.75255" lon="1.60716">
        <ele>1809</ele>
        <time>2020-01-05T12:42:34.000Z</time>
      </trkpt>
      <trkpt lat="42.75256" lon="1.60714">
        <ele>1808</ele>
        <time>2020-01-05T12:42:36.000Z</time>
      </trkpt>
      <trkpt lat="42.75257" lon="1.60712">
        <ele>1808</ele>
        <time>2020-01-05T12:42:38.000Z</time>
      </trkpt>
      <trkpt lat="42.75258" lon="1.60711">
        <ele>1807</ele>
        <time>2020-01-05T12:42:40.000Z</time>
      </trkpt>
      <trkpt lat="42.75259" lon="1.60709">
        <ele>1807</ele>
        <time>2020-01-05T12:42:42.000Z</time>
      </trkpt>
      <trkpt lat="42.75259" lon="1.60707">
        <ele>1806</ele>
        <time>2020-01-05T12:42:44.000Z</time>
      </trkpt>
      <trkpt lat="42.7526" lon="1.60705">
        <ele>1806</ele>
        <time>2020-01-05T12:42:46.000Z</time>
      </trkpt>
      <trkpt lat="42.7526" lon="1.60703">
        <ele>1805</ele>
        <time>2020-01-05T12:42:48.000Z</time>
      </trkpt>
      <trkpt lat="42.7526" lon="1.60702">
        <ele>1805</ele>
        <time>2020-01-05T12:42:50.000Z</time>
      </trkpt>
      <trkpt lat="42.75261" lon="1.60699">
        <ele>1804</ele>
        <time>2020-01-05T12:42:52.000Z</time>
      </trkpt>
      <trkpt lat="42.75262" lon="1.60698">
        <ele>1804</ele>
        <time>2020-01-05T12:42:54.000Z</time>
      </trkpt>
      <trkpt lat="42.75263" lon="1.60697">
        <ele>1803</ele>
        <time>2020-01-05T12:42:56.000Z</time>
      </trkpt>
      <trkpt lat="42.75264" lon="1.60696">
        <ele>1803</ele>
        <time>2020-01-05T12:42:58.000Z</time>
      </trkpt>
      <trkpt lat="42.75265" lon="1.60695">
        <ele>1803</ele>
        <time>2020-01-05T12:43:00.000Z</time>
      </trkpt>
      <trkpt lat="42.75266" lon="1.60695">
        <ele>1802</ele>
        <time>2020-01-05T12:43:02.000Z</time>
      </trkpt>
      <trkpt lat="42.75266" lon="1.60693">
        <ele>1802</ele>
        <time>2020-01-05T12:43:04.000Z</time>
      </trkpt>
      <trkpt lat="42.75267" lon="1.60692">
        <ele>1801</ele>
        <time>2020-01-05T12:43:06.000Z</time>
      </trkpt>
      <trkpt lat="42.75269" lon="1.60692">
        <ele>1801</ele>
        <time>2020-01-05T12:43:08.000Z</time>
      </trkpt>
      <trkpt lat="42.7527" lon="1.60691">
        <ele>1801</ele>
        <time>2020-01-05T12:43:10.000Z</time>
      </trkpt>
      <trkpt lat="42.75271" lon="1.60691">
        <ele>1800</ele>
        <time>2020-01-05T12:43:12.000Z</time>
      </trkpt>
      <trkpt lat="42.75272" lon="1.6069">
        <ele>1800</ele>
        <time>2020-01-05T12:43:14.000Z</time>
      </trkpt>
      <trkpt lat="42.75272" lon="1.6069">
        <ele>1800</ele>
        <time>2020-01-05T12:43:16.000Z</time>
      </trkpt>
      <trkpt lat="42.75272" lon="1.60689">
        <ele>1799</ele>
        <time>2020-01-05T12:43:18.000Z</time>
      </trkpt>
      <trkpt lat="42.75272" lon="1.6069">
        <ele>1799</ele>
        <time>2020-01-05T12:43:20.000Z</time>
      </trkpt>
      <trkpt lat="42.75272" lon="1.60689">
        <ele>1799</ele>
        <time>2020-01-05T12:43:22.000Z</time>
      </trkpt>
      <trkpt lat="42.75272" lon="1.60688">
        <ele>1799</ele>
        <time>2020-01-05T12:43:24.000Z</time>
      </trkpt>
      <trkpt lat="42.75273" lon="1.60687">
        <ele>1799</ele>
        <time>2020-01-05T12:43:26.000Z</time>
      </trkpt>
      <trkpt lat="42.75273" lon="1.60685">
        <ele>1798</ele>
        <time>2020-01-05T12:43:28.000Z</time>
      </trkpt>
      <trkpt lat="42.75275" lon="1.60683">
        <ele>1798</ele>
        <time>2020-01-05T12:43:30.000Z</time>
      </trkpt>
      <trkpt lat="42.75275" lon="1.60682">
        <ele>1798</ele>
        <time>2020-01-05T12:43:32.000Z</time>
      </trkpt>
      <trkpt lat="42.75275" lon="1.60681">
        <ele>1797</ele>
        <time>2020-01-05T12:43:34.000Z</time>
      </trkpt>
      <trkpt lat="42.75276" lon="1.60679">
        <ele>1797</ele>
        <time>2020-01-05T12:43:36.000Z</time>
      </trkpt>
      <trkpt lat="42.75276" lon="1.60678">
        <ele>1796</ele>
        <time>2020-01-05T12:43:38.000Z</time>
      </trkpt>
      <trkpt lat="42.75277" lon="1.60676">
        <ele>1796</ele>
        <time>2020-01-05T12:43:40.000Z</time>
      </trkpt>
      <trkpt lat="42.75277" lon="1.60675">
        <ele>1796</ele>
        <time>2020-01-05T12:43:42.000Z</time>
      </trkpt>
      <trkpt lat="42.75278" lon="1.60673">
        <ele>1796</ele>
        <time>2020-01-05T12:43:44.000Z</time>
      </trkpt>
      <trkpt lat="42.75278" lon="1.60672">
        <ele>1796</ele>
        <time>2020-01-05T12:43:46.000Z</time>
      </trkpt>
      <trkpt lat="42.75279" lon="1.6067">
        <ele>1795</ele>
        <time>2020-01-05T12:43:48.000Z</time>
      </trkpt>
      <trkpt lat="42.7528" lon="1.60668">
        <ele>1795</ele>
        <time>2020-01-05T12:43:50.000Z</time>
      </trkpt>
      <trkpt lat="42.75281" lon="1.60667">
        <ele>1795</ele>
        <time>2020-01-05T12:43:52.000Z</time>
      </trkpt>
      <trkpt lat="42.75282" lon="1.60665">
        <ele>1795</ele>
        <time>2020-01-05T12:43:54.000Z</time>
      </trkpt>
      <trkpt lat="42.75282" lon="1.60663">
        <ele>1795</ele>
        <time>2020-01-05T12:43:56.000Z</time>
      </trkpt>
      <trkpt lat="42.75283" lon="1.60662">
        <ele>1795</ele>
        <time>2020-01-05T12:43:58.000Z</time>
      </trkpt>
      <trkpt lat="42.75285" lon="1.6066">
        <ele>1795</ele>
        <time>2020-01-05T12:44:00.000Z</time>
      </trkpt>
      <trkpt lat="42.75286" lon="1.60659">
        <ele>1794</ele>
        <time>2020-01-05T12:44:02.000Z</time>
      </trkpt>
      <trkpt lat="42.75286" lon="1.60657">
        <ele>1794</ele>
        <time>2020-01-05T12:44:04.000Z</time>
      </trkpt>
      <trkpt lat="42.75286" lon="1.60656">
        <ele>1794</ele>
        <time>2020-01-05T12:44:06.000Z</time>
      </trkpt>
      <trkpt lat="42.75286" lon="1.60655">
        <ele>1794</ele>
        <time>2020-01-05T12:44:08.000Z</time>
      </trkpt>
      <trkpt lat="42.75287" lon="1.60654">
        <ele>1794</ele>
        <time>2020-01-05T12:44:10.000Z</time>
      </trkpt>
      <trkpt lat="42.75287" lon="1.60652">
        <ele>1794</ele>
        <time>2020-01-05T12:44:12.000Z</time>
      </trkpt>
      <trkpt lat="42.75288" lon="1.6065">
        <ele>1794</ele>
        <time>2020-01-05T12:44:14.000Z</time>
      </trkpt>
      <trkpt lat="42.75289" lon="1.60649">
        <ele>1793</ele>
        <time>2020-01-05T12:44:16.000Z</time>
      </trkpt>
      <trkpt lat="42.7529" lon="1.60647">
        <ele>1792</ele>
        <time>2020-01-05T12:44:18.000Z</time>
      </trkpt>
      <trkpt lat="42.75291" lon="1.60645">
        <ele>1791</ele>
        <time>2020-01-05T12:44:20.000Z</time>
      </trkpt>
      <trkpt lat="42.75292" lon="1.60644">
        <ele>1791</ele>
        <time>2020-01-05T12:44:22.000Z</time>
      </trkpt>
      <trkpt lat="42.75292" lon="1.60642">
        <ele>1790</ele>
        <time>2020-01-05T12:44:24.000Z</time>
      </trkpt>
      <trkpt lat="42.75293" lon="1.60641">
        <ele>1790</ele>
        <time>2020-01-05T12:44:26.000Z</time>
      </trkpt>
      <trkpt lat="42.75294" lon="1.60639">
        <ele>1789</ele>
        <time>2020-01-05T12:44:28.000Z</time>
      </trkpt>
      <trkpt lat="42.75295" lon="1.60638">
        <ele>1788</ele>
        <time>2020-01-05T12:44:30.000Z</time>
      </trkpt>
      <trkpt lat="42.75296" lon="1.60636">
        <ele>1788</ele>
        <time>2020-01-05T12:44:32.000Z</time>
      </trkpt>
      <trkpt lat="42.75297" lon="1.60635">
        <ele>1787</ele>
        <time>2020-01-05T12:44:34.000Z</time>
      </trkpt>
      <trkpt lat="42.75298" lon="1.60634">
        <ele>1786</ele>
        <time>2020-01-05T12:44:36.000Z</time>
      </trkpt>
      <trkpt lat="42.75298" lon="1.60632">
        <ele>1786</ele>
        <time>2020-01-05T12:44:38.000Z</time>
      </trkpt>
      <trkpt lat="42.75299" lon="1.6063">
        <ele>1785</ele>
        <time>2020-01-05T12:44:40.000Z</time>
      </trkpt>
      <trkpt lat="42.75299" lon="1.60629">
        <ele>1784</ele>
        <time>2020-01-05T12:44:42.000Z</time>
      </trkpt>
      <trkpt lat="42.753" lon="1.60627">
        <ele>1784</ele>
        <time>2020-01-05T12:44:44.000Z</time>
      </trkpt>
      <trkpt lat="42.75301" lon="1.60626">
        <ele>1783</ele>
        <time>2020-01-05T12:44:46.000Z</time>
      </trkpt>
      <trkpt lat="42.75303" lon="1.60624">
        <ele>1782</ele>
        <time>2020-01-05T12:44:48.000Z</time>
      </trkpt>
      <trkpt lat="42.75304" lon="1.60623">
        <ele>1782</ele>
        <time>2020-01-05T12:44:50.000Z</time>
      </trkpt>
      <trkpt lat="42.75305" lon="1.60621">
        <ele>1781</ele>
        <time>2020-01-05T12:44:52.000Z</time>
      </trkpt>
      <trkpt lat="42.75306" lon="1.6062">
        <ele>1780</ele>
        <time>2020-01-05T12:44:54.000Z</time>
      </trkpt>
      <trkpt lat="42.75307" lon="1.60617">
        <ele>1780</ele>
        <time>2020-01-05T12:44:56.000Z</time>
      </trkpt>
      <trkpt lat="42.75307" lon="1.60615">
        <ele>1780</ele>
        <time>2020-01-05T12:44:58.000Z</time>
      </trkpt>
      <trkpt lat="42.75309" lon="1.60613">
        <ele>1780</ele>
        <time>2020-01-05T12:45:00.000Z</time>
      </trkpt>
      <trkpt lat="42.7531" lon="1.60612">
        <ele>1780</ele>
        <time>2020-01-05T12:45:02.000Z</time>
      </trkpt>
      <trkpt lat="42.75311" lon="1.6061">
        <ele>1779</ele>
        <time>2020-01-05T12:45:04.000Z</time>
      </trkpt>
      <trkpt lat="42.75312" lon="1.60609">
        <ele>1779</ele>
        <time>2020-01-05T12:45:06.000Z</time>
      </trkpt>
      <trkpt lat="42.75313" lon="1.60608">
        <ele>1779</ele>
        <time>2020-01-05T12:45:08.000Z</time>
      </trkpt>
      <trkpt lat="42.75314" lon="1.60606">
        <ele>1779</ele>
        <time>2020-01-05T12:45:10.000Z</time>
      </trkpt>
      <trkpt lat="42.75315" lon="1.60605">
        <ele>1779</ele>
        <time>2020-01-05T12:45:12.000Z</time>
      </trkpt>
      <trkpt lat="42.75316" lon="1.60603">
        <ele>1779</ele>
        <time>2020-01-05T12:45:14.000Z</time>
      </trkpt>
      <trkpt lat="42.75317" lon="1.60602">
        <ele>1779</ele>
        <time>2020-01-05T12:45:16.000Z</time>
      </trkpt>
      <trkpt lat="42.75318" lon="1.606">
        <ele>1778</ele>
        <time>2020-01-05T12:45:18.000Z</time>
      </trkpt>
      <trkpt lat="42.75319" lon="1.60598">
        <ele>1778</ele>
        <time>2020-01-05T12:45:20.000Z</time>
      </trkpt>
      <trkpt lat="42.7532" lon="1.60597">
        <ele>1778</ele>
        <time>2020-01-05T12:45:22.000Z</time>
      </trkpt>
      <trkpt lat="42.75321" lon="1.60595">
        <ele>1778</ele>
        <time>2020-01-05T12:45:24.000Z</time>
      </trkpt>
      <trkpt lat="42.75322" lon="1.60594">
        <ele>1778</ele>
        <time>2020-01-05T12:45:26.000Z</time>
      </trkpt>
      <trkpt lat="42.75323" lon="1.60593">
        <ele>1778</ele>
        <time>2020-01-05T12:45:28.000Z</time>
      </trkpt>
      <trkpt lat="42.75324" lon="1.6059">
        <ele>1777</ele>
        <time>2020-01-05T12:45:30.000Z</time>
      </trkpt>
      <trkpt lat="42.75325" lon="1.60589">
        <ele>1777</ele>
        <time>2020-01-05T12:45:32.000Z</time>
      </trkpt>
      <trkpt lat="42.75326" lon="1.60587">
        <ele>1777</ele>
        <time>2020-01-05T12:45:34.000Z</time>
      </trkpt>
      <trkpt lat="42.75327" lon="1.60586">
        <ele>1777</ele>
        <time>2020-01-05T12:45:36.000Z</time>
      </trkpt>
      <trkpt lat="42.75328" lon="1.60584">
        <ele>1777</ele>
        <time>2020-01-05T12:45:38.000Z</time>
      </trkpt>
      <trkpt lat="42.75328" lon="1.60582">
        <ele>1776</ele>
        <time>2020-01-05T12:45:40.000Z</time>
      </trkpt>
      <trkpt lat="42.75329" lon="1.6058">
        <ele>1776</ele>
        <time>2020-01-05T12:45:42.000Z</time>
      </trkpt>
      <trkpt lat="42.75331" lon="1.60578">
        <ele>1776</ele>
        <time>2020-01-05T12:45:44.000Z</time>
      </trkpt>
      <trkpt lat="42.75332" lon="1.60577">
        <ele>1776</ele>
        <time>2020-01-05T12:45:46.000Z</time>
      </trkpt>
      <trkpt lat="42.75332" lon="1.60575">
        <ele>1776</ele>
        <time>2020-01-05T12:45:48.000Z</time>
      </trkpt>
      <trkpt lat="42.75333" lon="1.60573">
        <ele>1775</ele>
        <time>2020-01-05T12:45:50.000Z</time>
      </trkpt>
      <trkpt lat="42.75333" lon="1.60572">
        <ele>1775</ele>
        <time>2020-01-05T12:45:52.000Z</time>
      </trkpt>
      <trkpt lat="42.75334" lon="1.6057">
        <ele>1775</ele>
        <time>2020-01-05T12:45:54.000Z</time>
      </trkpt>
      <trkpt lat="42.75335" lon="1.60568">
        <ele>1775</ele>
        <time>2020-01-05T12:45:56.000Z</time>
      </trkpt>
      <trkpt lat="42.75335" lon="1.60566">
        <ele>1774</ele>
        <time>2020-01-05T12:45:58.000Z</time>
      </trkpt>
      <trkpt lat="42.75336" lon="1.60564">
        <ele>1774</ele>
        <time>2020-01-05T12:46:00.000Z</time>
      </trkpt>
      <trkpt lat="42.75337" lon="1.60563">
        <ele>1774</ele>
        <time>2020-01-05T12:46:02.000Z</time>
      </trkpt>
      <trkpt lat="42.75338" lon="1.60562">
        <ele>1773</ele>
        <time>2020-01-05T12:46:04.000Z</time>
      </trkpt>
      <trkpt lat="42.75338" lon="1.6056">
        <ele>1773</ele>
        <time>2020-01-05T12:46:06.000Z</time>
      </trkpt>
      <trkpt lat="42.75338" lon="1.60559">
        <ele>1772</ele>
        <time>2020-01-05T12:46:08.000Z</time>
      </trkpt>
      <trkpt lat="42.75339" lon="1.60557">
        <ele>1771</ele>
        <time>2020-01-05T12:46:10.000Z</time>
      </trkpt>
      <trkpt lat="42.75339" lon="1.60555">
        <ele>1771</ele>
        <time>2020-01-05T12:46:12.000Z</time>
      </trkpt>
      <trkpt lat="42.7534" lon="1.60554">
        <ele>1770</ele>
        <time>2020-01-05T12:46:14.000Z</time>
      </trkpt>
      <trkpt lat="42.7534" lon="1.60552">
        <ele>1769</ele>
        <time>2020-01-05T12:46:16.000Z</time>
      </trkpt>
      <trkpt lat="42.75341" lon="1.60549">
        <ele>1769</ele>
        <time>2020-01-05T12:46:18.000Z</time>
      </trkpt>
      <trkpt lat="42.75342" lon="1.60548">
        <ele>1768</ele>
        <time>2020-01-05T12:46:20.000Z</time>
      </trkpt>
      <trkpt lat="42.75343" lon="1.60547">
        <ele>1767</ele>
        <time>2020-01-05T12:46:22.000Z</time>
      </trkpt>
      <trkpt lat="42.75344" lon="1.60546">
        <ele>1767</ele>
        <time>2020-01-05T12:46:24.000Z</time>
      </trkpt>
      <trkpt lat="42.75344" lon="1.60544">
        <ele>1766</ele>
        <time>2020-01-05T12:46:26.000Z</time>
      </trkpt>
      <trkpt lat="42.75345" lon="1.60542">
        <ele>1765</ele>
        <time>2020-01-05T12:46:28.000Z</time>
      </trkpt>
      <trkpt lat="42.75346" lon="1.6054">
        <ele>1764</ele>
        <time>2020-01-05T12:46:30.000Z</time>
      </trkpt>
      <trkpt lat="42.75347" lon="1.60539">
        <ele>1764</ele>
        <time>2020-01-05T12:46:32.000Z</time>
      </trkpt>
      <trkpt lat="42.75347" lon="1.60538">
        <ele>1763</ele>
        <time>2020-01-05T12:46:34.000Z</time>
      </trkpt>
      <trkpt lat="42.75347" lon="1.60536">
        <ele>1763</ele>
        <time>2020-01-05T12:46:36.000Z</time>
      </trkpt>
      <trkpt lat="42.75348" lon="1.60535">
        <ele>1762</ele>
        <time>2020-01-05T12:46:38.000Z</time>
      </trkpt>
      <trkpt lat="42.75348" lon="1.60532">
        <ele>1761</ele>
        <time>2020-01-05T12:46:40.000Z</time>
      </trkpt>
      <trkpt lat="42.75349" lon="1.60531">
        <ele>1761</ele>
        <time>2020-01-05T12:46:42.000Z</time>
      </trkpt>
      <trkpt lat="42.7535" lon="1.6053">
        <ele>1760</ele>
        <time>2020-01-05T12:46:44.000Z</time>
      </trkpt>
      <trkpt lat="42.7535" lon="1.60528">
        <ele>1759</ele>
        <time>2020-01-05T12:46:46.000Z</time>
      </trkpt>
      <trkpt lat="42.7535" lon="1.60526">
        <ele>1759</ele>
        <time>2020-01-05T12:46:48.000Z</time>
      </trkpt>
      <trkpt lat="42.75351" lon="1.60524">
        <ele>1758</ele>
        <time>2020-01-05T12:46:50.000Z</time>
      </trkpt>
      <trkpt lat="42.75351" lon="1.60523">
        <ele>1758</ele>
        <time>2020-01-05T12:46:52.000Z</time>
      </trkpt>
      <trkpt lat="42.75352" lon="1.60521">
        <ele>1757</ele>
        <time>2020-01-05T12:46:54.000Z</time>
      </trkpt>
      <trkpt lat="42.75353" lon="1.60519">
        <ele>1756</ele>
        <time>2020-01-05T12:46:56.000Z</time>
      </trkpt>
      <trkpt lat="42.75354" lon="1.60517">
        <ele>1755</ele>
        <time>2020-01-05T12:46:58.000Z</time>
      </trkpt>
      <trkpt lat="42.75356" lon="1.60515">
        <ele>1754</ele>
        <time>2020-01-05T12:47:00.000Z</time>
      </trkpt>
      <trkpt lat="42.75357" lon="1.60514">
        <ele>1753</ele>
        <time>2020-01-05T12:47:02.000Z</time>
      </trkpt>
      <trkpt lat="42.75358" lon="1.60513">
        <ele>1753</ele>
        <time>2020-01-05T12:47:04.000Z</time>
      </trkpt>
      <trkpt lat="42.75358" lon="1.6051">
        <ele>1752</ele>
        <time>2020-01-05T12:47:06.000Z</time>
      </trkpt>
      <trkpt lat="42.75359" lon="1.60509">
        <ele>1751</ele>
        <time>2020-01-05T12:47:08.000Z</time>
      </trkpt>
      <trkpt lat="42.7536" lon="1.60507">
        <ele>1750</ele>
        <time>2020-01-05T12:47:10.000Z</time>
      </trkpt>
      <trkpt lat="42.7536" lon="1.60505">
        <ele>1750</ele>
        <time>2020-01-05T12:47:12.000Z</time>
      </trkpt>
      <trkpt lat="42.75361" lon="1.60504">
        <ele>1750</ele>
        <time>2020-01-05T12:47:14.000Z</time>
      </trkpt>
      <trkpt lat="42.75362" lon="1.60502">
        <ele>1750</ele>
        <time>2020-01-05T12:47:16.000Z</time>
      </trkpt>
      <trkpt lat="42.75362" lon="1.605">
        <ele>1750</ele>
        <time>2020-01-05T12:47:18.000Z</time>
      </trkpt>
      <trkpt lat="42.75362" lon="1.60498">
        <ele>1750</ele>
        <time>2020-01-05T12:47:20.000Z</time>
      </trkpt>
      <trkpt lat="42.75364" lon="1.60495">
        <ele>1750</ele>
        <time>2020-01-05T12:47:22.000Z</time>
      </trkpt>
      <trkpt lat="42.75364" lon="1.60493">
        <ele>1750</ele>
        <time>2020-01-05T12:47:24.000Z</time>
      </trkpt>
      <trkpt lat="42.75365" lon="1.6049">
        <ele>1750</ele>
        <time>2020-01-05T12:47:26.000Z</time>
      </trkpt>
      <trkpt lat="42.75366" lon="1.60488">
        <ele>1750</ele>
        <time>2020-01-05T12:47:28.000Z</time>
      </trkpt>
      <trkpt lat="42.75367" lon="1.60484">
        <ele>1749</ele>
        <time>2020-01-05T12:47:30.000Z</time>
      </trkpt>
      <trkpt lat="42.75369" lon="1.60482">
        <ele>1748</ele>
        <time>2020-01-05T12:47:32.000Z</time>
      </trkpt>
      <trkpt lat="42.7537" lon="1.60479">
        <ele>1748</ele>
        <time>2020-01-05T12:47:34.000Z</time>
      </trkpt>
      <trkpt lat="42.75371" lon="1.60477">
        <ele>1747</ele>
        <time>2020-01-05T12:47:36.000Z</time>
      </trkpt>
      <trkpt lat="42.75373" lon="1.60474">
        <ele>1746</ele>
        <time>2020-01-05T12:47:38.000Z</time>
      </trkpt>
      <trkpt lat="42.75374" lon="1.60471">
        <ele>1745</ele>
        <time>2020-01-05T12:47:40.000Z</time>
      </trkpt>
      <trkpt lat="42.75375" lon="1.60469">
        <ele>1744</ele>
        <time>2020-01-05T12:47:42.000Z</time>
      </trkpt>
      <trkpt lat="42.75376" lon="1.60466">
        <ele>1744</ele>
        <time>2020-01-05T12:47:44.000Z</time>
      </trkpt>
      <trkpt lat="42.75377" lon="1.60463">
        <ele>1743</ele>
        <time>2020-01-05T12:47:46.000Z</time>
      </trkpt>
      <trkpt lat="42.75377" lon="1.60459">
        <ele>1742</ele>
        <time>2020-01-05T12:47:48.000Z</time>
      </trkpt>
      <trkpt lat="42.75378" lon="1.60456">
        <ele>1741</ele>
        <time>2020-01-05T12:47:50.000Z</time>
      </trkpt>
      <trkpt lat="42.7538" lon="1.60453">
        <ele>1740</ele>
        <time>2020-01-05T12:47:52.000Z</time>
      </trkpt>
      <trkpt lat="42.7538" lon="1.6045">
        <ele>1739</ele>
        <time>2020-01-05T12:47:54.000Z</time>
      </trkpt>
      <trkpt lat="42.75381" lon="1.60446">
        <ele>1738</ele>
        <time>2020-01-05T12:47:56.000Z</time>
      </trkpt>
      <trkpt lat="42.75382" lon="1.60443">
        <ele>1738</ele>
        <time>2020-01-05T12:47:58.000Z</time>
      </trkpt>
      <trkpt lat="42.75383" lon="1.6044">
        <ele>1738</ele>
        <time>2020-01-05T12:48:00.000Z</time>
      </trkpt>
      <trkpt lat="42.75383" lon="1.60437">
        <ele>1738</ele>
        <time>2020-01-05T12:48:02.000Z</time>
      </trkpt>
      <trkpt lat="42.75384" lon="1.60435">
        <ele>1737</ele>
        <time>2020-01-05T12:48:04.000Z</time>
      </trkpt>
      <trkpt lat="42.75384" lon="1.60432">
        <ele>1737</ele>
        <time>2020-01-05T12:48:06.000Z</time>
      </trkpt>
      <trkpt lat="42.75384" lon="1.6043">
        <ele>1737</ele>
        <time>2020-01-05T12:48:08.000Z</time>
      </trkpt>
      <trkpt lat="42.75385" lon="1.60428">
        <ele>1737</ele>
        <time>2020-01-05T12:48:10.000Z</time>
      </trkpt>
      <trkpt lat="42.75385" lon="1.60426">
        <ele>1737</ele>
        <time>2020-01-05T12:48:12.000Z</time>
      </trkpt>
      <trkpt lat="42.75385" lon="1.60424">
        <ele>1737</ele>
        <time>2020-01-05T12:48:14.000Z</time>
      </trkpt>
      <trkpt lat="42.75386" lon="1.60421">
        <ele>1737</ele>
        <time>2020-01-05T12:48:16.000Z</time>
      </trkpt>
      <trkpt lat="42.75387" lon="1.60419">
        <ele>1737</ele>
        <time>2020-01-05T12:48:18.000Z</time>
      </trkpt>
      <trkpt lat="42.75388" lon="1.60416">
        <ele>1737</ele>
        <time>2020-01-05T12:48:20.000Z</time>
      </trkpt>
      <trkpt lat="42.75389" lon="1.60414">
        <ele>1737</ele>
        <time>2020-01-05T12:48:22.000Z</time>
      </trkpt>
      <trkpt lat="42.7539" lon="1.60411">
        <ele>1737</ele>
        <time>2020-01-05T12:48:24.000Z</time>
      </trkpt>
      <trkpt lat="42.7539" lon="1.60409">
        <ele>1737</ele>
        <time>2020-01-05T12:48:26.000Z</time>
      </trkpt>
      <trkpt lat="42.7539" lon="1.60407">
        <ele>1737</ele>
        <time>2020-01-05T12:48:28.000Z</time>
      </trkpt>
      <trkpt lat="42.7539" lon="1.60404">
        <ele>1737</ele>
        <time>2020-01-05T12:48:30.000Z</time>
      </trkpt>
      <trkpt lat="42.75391" lon="1.60402">
        <ele>1736</ele>
        <time>2020-01-05T12:48:32.000Z</time>
      </trkpt>
      <trkpt lat="42.75391" lon="1.604">
        <ele>1736</ele>
        <time>2020-01-05T12:48:34.000Z</time>
      </trkpt>
      <trkpt lat="42.75392" lon="1.60398">
        <ele>1736</ele>
        <time>2020-01-05T12:48:36.000Z</time>
      </trkpt>
      <trkpt lat="42.75393" lon="1.60396">
        <ele>1735</ele>
        <time>2020-01-05T12:48:38.000Z</time>
      </trkpt>
      <trkpt lat="42.75395" lon="1.60395">
        <ele>1735</ele>
        <time>2020-01-05T12:48:40.000Z</time>
      </trkpt>
      <trkpt lat="42.75396" lon="1.60394">
        <ele>1735</ele>
        <time>2020-01-05T12:48:42.000Z</time>
      </trkpt>
      <trkpt lat="42.75395" lon="1.60392">
        <ele>1734</ele>
        <time>2020-01-05T12:48:44.000Z</time>
      </trkpt>
      <trkpt lat="42.75396" lon="1.6039">
        <ele>1734</ele>
        <time>2020-01-05T12:48:46.000Z</time>
      </trkpt>
      <trkpt lat="42.75396" lon="1.60388">
        <ele>1733</ele>
        <time>2020-01-05T12:48:48.000Z</time>
      </trkpt>
      <trkpt lat="42.75396" lon="1.60387">
        <ele>1733</ele>
        <time>2020-01-05T12:48:50.000Z</time>
      </trkpt>
      <trkpt lat="42.75396" lon="1.60385">
        <ele>1733</ele>
        <time>2020-01-05T12:48:52.000Z</time>
      </trkpt>
      <trkpt lat="42.75397" lon="1.60383">
        <ele>1732</ele>
        <time>2020-01-05T12:48:54.000Z</time>
      </trkpt>
      <trkpt lat="42.75397" lon="1.6038">
        <ele>1731</ele>
        <time>2020-01-05T12:48:56.000Z</time>
      </trkpt>
      <trkpt lat="42.75398" lon="1.60378">
        <ele>1731</ele>
        <time>2020-01-05T12:48:58.000Z</time>
      </trkpt>
      <trkpt lat="42.75399" lon="1.60376">
        <ele>1731</ele>
        <time>2020-01-05T12:49:00.000Z</time>
      </trkpt>
      <trkpt lat="42.754" lon="1.60373">
        <ele>1730</ele>
        <time>2020-01-05T12:49:02.000Z</time>
      </trkpt>
      <trkpt lat="42.75401" lon="1.60371">
        <ele>1730</ele>
        <time>2020-01-05T12:49:04.000Z</time>
      </trkpt>
      <trkpt lat="42.75403" lon="1.60369">
        <ele>1730</ele>
        <time>2020-01-05T12:49:06.000Z</time>
      </trkpt>
      <trkpt lat="42.75404" lon="1.60366">
        <ele>1730</ele>
        <time>2020-01-05T12:49:08.000Z</time>
      </trkpt>
      <trkpt lat="42.75405" lon="1.60363">
        <ele>1730</ele>
        <time>2020-01-05T12:49:10.000Z</time>
      </trkpt>
      <trkpt lat="42.75406" lon="1.60361">
        <ele>1729</ele>
        <time>2020-01-05T12:49:12.000Z</time>
      </trkpt>
      <trkpt lat="42.75407" lon="1.60359">
        <ele>1729</ele>
        <time>2020-01-05T12:49:14.000Z</time>
      </trkpt>
      <trkpt lat="42.75408" lon="1.60357">
        <ele>1729</ele>
        <time>2020-01-05T12:49:16.000Z</time>
      </trkpt>
      <trkpt lat="42.75409" lon="1.60354">
        <ele>1729</ele>
        <time>2020-01-05T12:49:18.000Z</time>
      </trkpt>
      <trkpt lat="42.75409" lon="1.60352">
        <ele>1729</ele>
        <time>2020-01-05T12:49:20.000Z</time>
      </trkpt>
      <trkpt lat="42.75409" lon="1.6035">
        <ele>1728</ele>
        <time>2020-01-05T12:49:22.000Z</time>
      </trkpt>
      <trkpt lat="42.75409" lon="1.60347">
        <ele>1728</ele>
        <time>2020-01-05T12:49:24.000Z</time>
      </trkpt>
      <trkpt lat="42.75409" lon="1.60344">
        <ele>1727</ele>
        <time>2020-01-05T12:49:26.000Z</time>
      </trkpt>
      <trkpt lat="42.7541" lon="1.60342">
        <ele>1727</ele>
        <time>2020-01-05T12:49:28.000Z</time>
      </trkpt>
      <trkpt lat="42.7541" lon="1.60339">
        <ele>1726</ele>
        <time>2020-01-05T12:49:30.000Z</time>
      </trkpt>
      <trkpt lat="42.7541" lon="1.60336">
        <ele>1726</ele>
        <time>2020-01-05T12:49:32.000Z</time>
      </trkpt>
      <trkpt lat="42.75411" lon="1.60333">
        <ele>1726</ele>
        <time>2020-01-05T12:49:34.000Z</time>
      </trkpt>
      <trkpt lat="42.75413" lon="1.6033">
        <ele>1725</ele>
        <time>2020-01-05T12:49:36.000Z</time>
      </trkpt>
      <trkpt lat="42.75414" lon="1.60327">
        <ele>1725</ele>
        <time>2020-01-05T12:49:38.000Z</time>
      </trkpt>
      <trkpt lat="42.75414" lon="1.60324">
        <ele>1725</ele>
        <time>2020-01-05T12:49:40.000Z</time>
      </trkpt>
      <trkpt lat="42.75415" lon="1.60322">
        <ele>1725</ele>
        <time>2020-01-05T12:49:42.000Z</time>
      </trkpt>
      <trkpt lat="42.75416" lon="1.60319">
        <ele>1724</ele>
        <time>2020-01-05T12:49:44.000Z</time>
      </trkpt>
      <trkpt lat="42.75417" lon="1.60316">
        <ele>1724</ele>
        <time>2020-01-05T12:49:46.000Z</time>
      </trkpt>
      <trkpt lat="42.75418" lon="1.60314">
        <ele>1723</ele>
        <time>2020-01-05T12:49:48.000Z</time>
      </trkpt>
      <trkpt lat="42.75419" lon="1.60311">
        <ele>1723</ele>
        <time>2020-01-05T12:49:50.000Z</time>
      </trkpt>
      <trkpt lat="42.7542" lon="1.60309">
        <ele>1723</ele>
        <time>2020-01-05T12:49:52.000Z</time>
      </trkpt>
      <trkpt lat="42.75421" lon="1.60307">
        <ele>1722</ele>
        <time>2020-01-05T12:49:54.000Z</time>
      </trkpt>
      <trkpt lat="42.75422" lon="1.60305">
        <ele>1722</ele>
        <time>2020-01-05T12:49:56.000Z</time>
      </trkpt>
      <trkpt lat="42.75422" lon="1.60304">
        <ele>1721</ele>
        <time>2020-01-05T12:49:58.000Z</time>
      </trkpt>
      <trkpt lat="42.75422" lon="1.60301">
        <ele>1721</ele>
        <time>2020-01-05T12:50:00.000Z</time>
      </trkpt>
      <trkpt lat="42.75423" lon="1.60299">
        <ele>1720</ele>
        <time>2020-01-05T12:50:02.000Z</time>
      </trkpt>
      <trkpt lat="42.75423" lon="1.60297">
        <ele>1720</ele>
        <time>2020-01-05T12:50:04.000Z</time>
      </trkpt>
      <trkpt lat="42.75423" lon="1.60295">
        <ele>1719</ele>
        <time>2020-01-05T12:50:06.000Z</time>
      </trkpt>
      <trkpt lat="42.75424" lon="1.60293">
        <ele>1718</ele>
        <time>2020-01-05T12:50:08.000Z</time>
      </trkpt>
      <trkpt lat="42.75424" lon="1.60292">
        <ele>1718</ele>
        <time>2020-01-05T12:50:10.000Z</time>
      </trkpt>
      <trkpt lat="42.75425" lon="1.6029">
        <ele>1718</ele>
        <time>2020-01-05T12:50:12.000Z</time>
      </trkpt>
      <trkpt lat="42.75425" lon="1.60288">
        <ele>1717</ele>
        <time>2020-01-05T12:50:14.000Z</time>
      </trkpt>
      <trkpt lat="42.75426" lon="1.60285">
        <ele>1716</ele>
        <time>2020-01-05T12:50:16.000Z</time>
      </trkpt>
      <trkpt lat="42.75427" lon="1.60283">
        <ele>1716</ele>
        <time>2020-01-05T12:50:18.000Z</time>
      </trkpt>
      <trkpt lat="42.75427" lon="1.60281">
        <ele>1715</ele>
        <time>2020-01-05T12:50:20.000Z</time>
      </trkpt>
      <trkpt lat="42.75428" lon="1.60278">
        <ele>1714</ele>
        <time>2020-01-05T12:50:22.000Z</time>
      </trkpt>
      <trkpt lat="42.75428" lon="1.60276">
        <ele>1714</ele>
        <time>2020-01-05T12:50:24.000Z</time>
      </trkpt>
      <trkpt lat="42.75429" lon="1.60273">
        <ele>1713</ele>
        <time>2020-01-05T12:50:26.000Z</time>
      </trkpt>
      <trkpt lat="42.75429" lon="1.60271">
        <ele>1712</ele>
        <time>2020-01-05T12:50:28.000Z</time>
      </trkpt>
      <trkpt lat="42.75429" lon="1.60269">
        <ele>1712</ele>
        <time>2020-01-05T12:50:30.000Z</time>
      </trkpt>
      <trkpt lat="42.75429" lon="1.60267">
        <ele>1711</ele>
        <time>2020-01-05T12:50:32.000Z</time>
      </trkpt>
      <trkpt lat="42.75431" lon="1.60264">
        <ele>1710</ele>
        <time>2020-01-05T12:50:34.000Z</time>
      </trkpt>
      <trkpt lat="42.75432" lon="1.60263">
        <ele>1710</ele>
        <time>2020-01-05T12:50:36.000Z</time>
      </trkpt>
      <trkpt lat="42.75433" lon="1.60261">
        <ele>1709</ele>
        <time>2020-01-05T12:50:38.000Z</time>
      </trkpt>
      <trkpt lat="42.75434" lon="1.60259">
        <ele>1708</ele>
        <time>2020-01-05T12:50:40.000Z</time>
      </trkpt>
      <trkpt lat="42.75435" lon="1.60257">
        <ele>1708</ele>
        <time>2020-01-05T12:50:42.000Z</time>
      </trkpt>
      <trkpt lat="42.75436" lon="1.60255">
        <ele>1707</ele>
        <time>2020-01-05T12:50:44.000Z</time>
      </trkpt>
      <trkpt lat="42.75437" lon="1.60253">
        <ele>1706</ele>
        <time>2020-01-05T12:50:46.000Z</time>
      </trkpt>
      <trkpt lat="42.75437" lon="1.60251">
        <ele>1706</ele>
        <time>2020-01-05T12:50:48.000Z</time>
      </trkpt>
      <trkpt lat="42.75437" lon="1.60249">
        <ele>1706</ele>
        <time>2020-01-05T12:50:50.000Z</time>
      </trkpt>
      <trkpt lat="42.75437" lon="1.60247">
        <ele>1706</ele>
        <time>2020-01-05T12:50:52.000Z</time>
      </trkpt>
      <trkpt lat="42.75438" lon="1.60244">
        <ele>1705</ele>
        <time>2020-01-05T12:50:54.000Z</time>
      </trkpt>
      <trkpt lat="42.75439" lon="1.60242">
        <ele>1705</ele>
        <time>2020-01-05T12:50:56.000Z</time>
      </trkpt>
      <trkpt lat="42.7544" lon="1.6024">
        <ele>1705</ele>
        <time>2020-01-05T12:50:58.000Z</time>
      </trkpt>
      <trkpt lat="42.75441" lon="1.60238">
        <ele>1705</ele>
        <time>2020-01-05T12:51:00.000Z</time>
      </trkpt>
      <trkpt lat="42.75442" lon="1.60236">
        <ele>1705</ele>
        <time>2020-01-05T12:51:02.000Z</time>
      </trkpt>
      <trkpt lat="42.75443" lon="1.60233">
        <ele>1704</ele>
        <time>2020-01-05T12:51:04.000Z</time>
      </trkpt>
      <trkpt lat="42.75444" lon="1.60231">
        <ele>1704</ele>
        <time>2020-01-05T12:51:06.000Z</time>
      </trkpt>
      <trkpt lat="42.75445" lon="1.60229">
        <ele>1703</ele>
        <time>2020-01-05T12:51:08.000Z</time>
      </trkpt>
      <trkpt lat="42.75446" lon="1.60227">
        <ele>1703</ele>
        <time>2020-01-05T12:51:10.000Z</time>
      </trkpt>
      <trkpt lat="42.75446" lon="1.60225">
        <ele>1703</ele>
        <time>2020-01-05T12:51:12.000Z</time>
      </trkpt>
      <trkpt lat="42.75445" lon="1.60224">
        <ele>1702</ele>
        <time>2020-01-05T12:51:14.000Z</time>
      </trkpt>
      <trkpt lat="42.75446" lon="1.60224">
        <ele>1702</ele>
        <time>2020-01-05T12:51:16.000Z</time>
      </trkpt>
      <trkpt lat="42.75447" lon="1.60222">
        <ele>1702</ele>
        <time>2020-01-05T12:51:18.000Z</time>
      </trkpt>
      <trkpt lat="42.75447" lon="1.60221">
        <ele>1702</ele>
        <time>2020-01-05T12:51:20.000Z</time>
      </trkpt>
      <trkpt lat="42.75448" lon="1.60219">
        <ele>1701</ele>
        <time>2020-01-05T12:51:22.000Z</time>
      </trkpt>
      <trkpt lat="42.7545" lon="1.60217">
        <ele>1701</ele>
        <time>2020-01-05T12:51:24.000Z</time>
      </trkpt>
      <trkpt lat="42.75451" lon="1.60215">
        <ele>1701</ele>
        <time>2020-01-05T12:51:26.000Z</time>
      </trkpt>
      <trkpt lat="42.75451" lon="1.60212">
        <ele>1700</ele>
        <time>2020-01-05T12:51:28.000Z</time>
      </trkpt>
      <trkpt lat="42.75452" lon="1.6021">
        <ele>1700</ele>
        <time>2020-01-05T12:51:30.000Z</time>
      </trkpt>
      <trkpt lat="42.75452" lon="1.60208">
        <ele>1699</ele>
        <time>2020-01-05T12:51:32.000Z</time>
      </trkpt>
      <trkpt lat="42.75453" lon="1.60206">
        <ele>1699</ele>
        <time>2020-01-05T12:51:34.000Z</time>
      </trkpt>
      <trkpt lat="42.75454" lon="1.60203">
        <ele>1698</ele>
        <time>2020-01-05T12:51:36.000Z</time>
      </trkpt>
      <trkpt lat="42.75455" lon="1.60201">
        <ele>1698</ele>
        <time>2020-01-05T12:51:38.000Z</time>
      </trkpt>
      <trkpt lat="42.75455" lon="1.60198">
        <ele>1697</ele>
        <time>2020-01-05T12:51:40.000Z</time>
      </trkpt>
      <trkpt lat="42.75456" lon="1.60196">
        <ele>1697</ele>
        <time>2020-01-05T12:51:42.000Z</time>
      </trkpt>
      <trkpt lat="42.75457" lon="1.60193">
        <ele>1696</ele>
        <time>2020-01-05T12:51:44.000Z</time>
      </trkpt>
      <trkpt lat="42.75457" lon="1.6019">
        <ele>1696</ele>
        <time>2020-01-05T12:51:46.000Z</time>
      </trkpt>
      <trkpt lat="42.75458" lon="1.60188">
        <ele>1695</ele>
        <time>2020-01-05T12:51:48.000Z</time>
      </trkpt>
      <trkpt lat="42.75459" lon="1.60186">
        <ele>1695</ele>
        <time>2020-01-05T12:51:50.000Z</time>
      </trkpt>
      <trkpt lat="42.7546" lon="1.60184">
        <ele>1695</ele>
        <time>2020-01-05T12:51:52.000Z</time>
      </trkpt>
      <trkpt lat="42.75461" lon="1.60182">
        <ele>1695</ele>
        <time>2020-01-05T12:51:54.000Z</time>
      </trkpt>
      <trkpt lat="42.75461" lon="1.60179">
        <ele>1695</ele>
        <time>2020-01-05T12:51:56.000Z</time>
      </trkpt>
      <trkpt lat="42.75461" lon="1.60177">
        <ele>1695</ele>
        <time>2020-01-05T12:51:58.000Z</time>
      </trkpt>
      <trkpt lat="42.75461" lon="1.60174">
        <ele>1694</ele>
        <time>2020-01-05T12:52:00.000Z</time>
      </trkpt>
      <trkpt lat="42.75463" lon="1.60171">
        <ele>1694</ele>
        <time>2020-01-05T12:52:02.000Z</time>
      </trkpt>
      <trkpt lat="42.75464" lon="1.60169">
        <ele>1694</ele>
        <time>2020-01-05T12:52:04.000Z</time>
      </trkpt>
      <trkpt lat="42.75464" lon="1.60166">
        <ele>1694</ele>
        <time>2020-01-05T12:52:06.000Z</time>
      </trkpt>
      <trkpt lat="42.75464" lon="1.60163">
        <ele>1694</ele>
        <time>2020-01-05T12:52:08.000Z</time>
      </trkpt>
      <trkpt lat="42.75464" lon="1.6016">
        <ele>1693</ele>
        <time>2020-01-05T12:52:10.000Z</time>
      </trkpt>
      <trkpt lat="42.75465" lon="1.60157">
        <ele>1693</ele>
        <time>2020-01-05T12:52:12.000Z</time>
      </trkpt>
      <trkpt lat="42.75465" lon="1.60154">
        <ele>1693</ele>
        <time>2020-01-05T12:52:14.000Z</time>
      </trkpt>
      <trkpt lat="42.75466" lon="1.60151">
        <ele>1692</ele>
        <time>2020-01-05T12:52:16.000Z</time>
      </trkpt>
      <trkpt lat="42.75466" lon="1.60148">
        <ele>1692</ele>
        <time>2020-01-05T12:52:18.000Z</time>
      </trkpt>
      <trkpt lat="42.75466" lon="1.60145">
        <ele>1691</ele>
        <time>2020-01-05T12:52:20.000Z</time>
      </trkpt>
      <trkpt lat="42.75466" lon="1.60143">
        <ele>1691</ele>
        <time>2020-01-05T12:52:22.000Z</time>
      </trkpt>
      <trkpt lat="42.75467" lon="1.60141">
        <ele>1691</ele>
        <time>2020-01-05T12:52:24.000Z</time>
      </trkpt>
      <trkpt lat="42.75467" lon="1.60138">
        <ele>1690</ele>
        <time>2020-01-05T12:52:26.000Z</time>
      </trkpt>
      <trkpt lat="42.75467" lon="1.60136">
        <ele>1690</ele>
        <time>2020-01-05T12:52:28.000Z</time>
      </trkpt>
      <trkpt lat="42.75468" lon="1.60133">
        <ele>1689</ele>
        <time>2020-01-05T12:52:30.000Z</time>
      </trkpt>
      <trkpt lat="42.75468" lon="1.6013">
        <ele>1689</ele>
        <time>2020-01-05T12:52:32.000Z</time>
      </trkpt>
      <trkpt lat="42.75468" lon="1.60127">
        <ele>1688</ele>
        <time>2020-01-05T12:52:34.000Z</time>
      </trkpt>
      <trkpt lat="42.75468" lon="1.60125">
        <ele>1688</ele>
        <time>2020-01-05T12:52:36.000Z</time>
      </trkpt>
      <trkpt lat="42.75469" lon="1.60123">
        <ele>1688</ele>
        <time>2020-01-05T12:52:38.000Z</time>
      </trkpt>
      <trkpt lat="42.75469" lon="1.6012">
        <ele>1687</ele>
        <time>2020-01-05T12:52:40.000Z</time>
      </trkpt>
      <trkpt lat="42.7547" lon="1.60117">
        <ele>1687</ele>
        <time>2020-01-05T12:52:42.000Z</time>
      </trkpt>
      <trkpt lat="42.75471" lon="1.60115">
        <ele>1686</ele>
        <time>2020-01-05T12:52:44.000Z</time>
      </trkpt>
      <trkpt lat="42.75471" lon="1.60112">
        <ele>1686</ele>
        <time>2020-01-05T12:52:46.000Z</time>
      </trkpt>
      <trkpt lat="42.75472" lon="1.60109">
        <ele>1686</ele>
        <time>2020-01-05T12:52:48.000Z</time>
      </trkpt>
      <trkpt lat="42.75472" lon="1.60106">
        <ele>1685</ele>
        <time>2020-01-05T12:52:50.000Z</time>
      </trkpt>
      <trkpt lat="42.75472" lon="1.60103">
        <ele>1685</ele>
        <time>2020-01-05T12:52:52.000Z</time>
      </trkpt>
      <trkpt lat="42.75473" lon="1.60101">
        <ele>1685</ele>
        <time>2020-01-05T12:52:54.000Z</time>
      </trkpt>
      <trkpt lat="42.75474" lon="1.60098">
        <ele>1684</ele>
        <time>2020-01-05T12:52:56.000Z</time>
      </trkpt>
      <trkpt lat="42.75475" lon="1.60096">
        <ele>1684</ele>
        <time>2020-01-05T12:52:58.000Z</time>
      </trkpt>
      <trkpt lat="42.75475" lon="1.60093">
        <ele>1684</ele>
        <time>2020-01-05T12:53:00.000Z</time>
      </trkpt>
      <trkpt lat="42.75475" lon="1.6009">
        <ele>1683</ele>
        <time>2020-01-05T12:53:02.000Z</time>
      </trkpt>
      <trkpt lat="42.75476" lon="1.60088">
        <ele>1683</ele>
        <time>2020-01-05T12:53:04.000Z</time>
      </trkpt>
      <trkpt lat="42.75475" lon="1.60086">
        <ele>1683</ele>
        <time>2020-01-05T12:53:06.000Z</time>
      </trkpt>
      <trkpt lat="42.75475" lon="1.60082">
        <ele>1682</ele>
        <time>2020-01-05T12:53:08.000Z</time>
      </trkpt>
      <trkpt lat="42.75476" lon="1.6008">
        <ele>1682</ele>
        <time>2020-01-05T12:53:10.000Z</time>
      </trkpt>
      <trkpt lat="42.75476" lon="1.60077">
        <ele>1682</ele>
        <time>2020-01-05T12:53:12.000Z</time>
      </trkpt>
      <trkpt lat="42.75476" lon="1.60074">
        <ele>1681</ele>
        <time>2020-01-05T12:53:14.000Z</time>
      </trkpt>
      <trkpt lat="42.75477" lon="1.6007">
        <ele>1681</ele>
        <time>2020-01-05T12:53:16.000Z</time>
      </trkpt>
      <trkpt lat="42.75477" lon="1.60068">
        <ele>1681</ele>
        <time>2020-01-05T12:53:18.000Z</time>
      </trkpt>
      <trkpt lat="42.75479" lon="1.60067">
        <ele>1680</ele>
        <time>2020-01-05T12:53:20.000Z</time>
      </trkpt>
      <trkpt lat="42.75479" lon="1.60065">
        <ele>1680</ele>
        <time>2020-01-05T12:53:22.000Z</time>
      </trkpt>
      <trkpt lat="42.7548" lon="1.60062">
        <ele>1680</ele>
        <time>2020-01-05T12:53:24.000Z</time>
      </trkpt>
      <trkpt lat="42.7548" lon="1.6006">
        <ele>1679</ele>
        <time>2020-01-05T12:53:26.000Z</time>
      </trkpt>
      <trkpt lat="42.75481" lon="1.60057">
        <ele>1678</ele>
        <time>2020-01-05T12:53:28.000Z</time>
      </trkpt>
      <trkpt lat="42.75481" lon="1.60054">
        <ele>1678</ele>
        <time>2020-01-05T12:53:30.000Z</time>
      </trkpt>
      <trkpt lat="42.75482" lon="1.60052">
        <ele>1677</ele>
        <time>2020-01-05T12:53:32.000Z</time>
      </trkpt>
      <trkpt lat="42.75482" lon="1.60048">
        <ele>1677</ele>
        <time>2020-01-05T12:53:34.000Z</time>
      </trkpt>
      <trkpt lat="42.75482" lon="1.60045">
        <ele>1676</ele>
        <time>2020-01-05T12:53:36.000Z</time>
      </trkpt>
      <trkpt lat="42.75483" lon="1.60042">
        <ele>1676</ele>
        <time>2020-01-05T12:53:38.000Z</time>
      </trkpt>
      <trkpt lat="42.75483" lon="1.60039">
        <ele>1676</ele>
        <time>2020-01-05T12:53:40.000Z</time>
      </trkpt>
      <trkpt lat="42.75483" lon="1.60035">
        <ele>1676</ele>
        <time>2020-01-05T12:53:42.000Z</time>
      </trkpt>
      <trkpt lat="42.75483" lon="1.60032">
        <ele>1676</ele>
        <time>2020-01-05T12:53:44.000Z</time>
      </trkpt>
      <trkpt lat="42.75484" lon="1.60029">
        <ele>1675</ele>
        <time>2020-01-05T12:53:46.000Z</time>
      </trkpt>
      <trkpt lat="42.75484" lon="1.60028">
        <ele>1675</ele>
        <time>2020-01-05T12:53:48.000Z</time>
      </trkpt>
      <trkpt lat="42.75484" lon="1.60025">
        <ele>1675</ele>
        <time>2020-01-05T12:53:50.000Z</time>
      </trkpt>
      <trkpt lat="42.75485" lon="1.60023">
        <ele>1675</ele>
        <time>2020-01-05T12:53:52.000Z</time>
      </trkpt>
      <trkpt lat="42.75486" lon="1.60021">
        <ele>1675</ele>
        <time>2020-01-05T12:53:54.000Z</time>
      </trkpt>
      <trkpt lat="42.75486" lon="1.60018">
        <ele>1675</ele>
        <time>2020-01-05T12:53:56.000Z</time>
      </trkpt>
      <trkpt lat="42.75486" lon="1.60016">
        <ele>1675</ele>
        <time>2020-01-05T12:53:58.000Z</time>
      </trkpt>
      <trkpt lat="42.75485" lon="1.60015">
        <ele>1675</ele>
        <time>2020-01-05T12:54:00.000Z</time>
      </trkpt>
      <trkpt lat="42.75486" lon="1.60012">
        <ele>1675</ele>
        <time>2020-01-05T12:54:02.000Z</time>
      </trkpt>
      <trkpt lat="42.75485" lon="1.60011">
        <ele>1675</ele>
        <time>2020-01-05T12:54:04.000Z</time>
      </trkpt>
      <trkpt lat="42.75486" lon="1.60009">
        <ele>1675</ele>
        <time>2020-01-05T12:54:06.000Z</time>
      </trkpt>
      <trkpt lat="42.75487" lon="1.60008">
        <ele>1675</ele>
        <time>2020-01-05T12:54:08.000Z</time>
      </trkpt>
      <trkpt lat="42.75488" lon="1.60008">
        <ele>1675</ele>
        <time>2020-01-05T12:54:10.000Z</time>
      </trkpt>
      <trkpt lat="42.75488" lon="1.60007">
        <ele>1675</ele>
        <time>2020-01-05T12:54:12.000Z</time>
      </trkpt>
      <trkpt lat="42.75489" lon="1.60006">
        <ele>1675</ele>
        <time>2020-01-05T12:54:14.000Z</time>
      </trkpt>
      <trkpt lat="42.75489" lon="1.60003">
        <ele>1675</ele>
        <time>2020-01-05T12:54:16.000Z</time>
      </trkpt>
      <trkpt lat="42.7549" lon="1.60002">
        <ele>1675</ele>
        <time>2020-01-05T12:54:18.000Z</time>
      </trkpt>
      <trkpt lat="42.75491" lon="1.59999">
        <ele>1676</ele>
        <time>2020-01-05T12:54:20.000Z</time>
      </trkpt>
      <trkpt lat="42.75492" lon="1.59997">
        <ele>1676</ele>
        <time>2020-01-05T12:54:22.000Z</time>
      </trkpt>
      <trkpt lat="42.75493" lon="1.59995">
        <ele>1676</ele>
        <time>2020-01-05T12:54:24.000Z</time>
      </trkpt>
      <trkpt lat="42.75494" lon="1.59993">
        <ele>1676</ele>
        <time>2020-01-05T12:54:26.000Z</time>
      </trkpt>
      <trkpt lat="42.75495" lon="1.59991">
        <ele>1676</ele>
        <time>2020-01-05T12:54:28.000Z</time>
      </trkpt>
      <trkpt lat="42.75495" lon="1.59989">
        <ele>1676</ele>
        <time>2020-01-05T12:54:30.000Z</time>
      </trkpt>
      <trkpt lat="42.75496" lon="1.59986">
        <ele>1676</ele>
        <time>2020-01-05T12:54:32.000Z</time>
      </trkpt>
      <trkpt lat="42.75496" lon="1.59985">
        <ele>1676</ele>
        <time>2020-01-05T12:54:34.000Z</time>
      </trkpt>
      <trkpt lat="42.75496" lon="1.59982">
        <ele>1675</ele>
        <time>2020-01-05T12:54:36.000Z</time>
      </trkpt>
      <trkpt lat="42.75497" lon="1.5998">
        <ele>1675</ele>
        <time>2020-01-05T12:54:38.000Z</time>
      </trkpt>
      <trkpt lat="42.75498" lon="1.59978">
        <ele>1675</ele>
        <time>2020-01-05T12:54:40.000Z</time>
      </trkpt>
      <trkpt lat="42.75499" lon="1.59976">
        <ele>1675</ele>
        <time>2020-01-05T12:54:42.000Z</time>
      </trkpt>
      <trkpt lat="42.755" lon="1.59975">
        <ele>1676</ele>
        <time>2020-01-05T12:54:44.000Z</time>
      </trkpt>
      <trkpt lat="42.75501" lon="1.59973">
        <ele>1676</ele>
        <time>2020-01-05T12:54:46.000Z</time>
      </trkpt>
      <trkpt lat="42.75502" lon="1.59972">
        <ele>1677</ele>
        <time>2020-01-05T12:54:48.000Z</time>
      </trkpt>
      <trkpt lat="42.75502" lon="1.59971">
        <ele>1677</ele>
        <time>2020-01-05T12:54:50.000Z</time>
      </trkpt>
      <trkpt lat="42.75504" lon="1.5997">
        <ele>1678</ele>
        <time>2020-01-05T12:54:52.000Z</time>
      </trkpt>
      <trkpt lat="42.75505" lon="1.59968">
        <ele>1677</ele>
        <time>2020-01-05T12:54:54.000Z</time>
      </trkpt>
      <trkpt lat="42.75506" lon="1.59967">
        <ele>1677</ele>
        <time>2020-01-05T12:54:56.000Z</time>
      </trkpt>
      <trkpt lat="42.75507" lon="1.59964">
        <ele>1677</ele>
        <time>2020-01-05T12:54:58.000Z</time>
      </trkpt>
      <trkpt lat="42.75507" lon="1.59962">
        <ele>1677</ele>
        <time>2020-01-05T12:55:00.000Z</time>
      </trkpt>
      <trkpt lat="42.75507" lon="1.5996">
        <ele>1677</ele>
        <time>2020-01-05T12:55:02.000Z</time>
      </trkpt>
      <trkpt lat="42.75507" lon="1.59958">
        <ele>1677</ele>
        <time>2020-01-05T12:55:04.000Z</time>
      </trkpt>
      <trkpt lat="42.75508" lon="1.59957">
        <ele>1677</ele>
        <time>2020-01-05T12:55:06.000Z</time>
      </trkpt>
      <trkpt lat="42.75508" lon="1.59954">
        <ele>1677</ele>
        <time>2020-01-05T12:55:08.000Z</time>
      </trkpt>
      <trkpt lat="42.75509" lon="1.59952">
        <ele>1676</ele>
        <time>2020-01-05T12:55:10.000Z</time>
      </trkpt>
      <trkpt lat="42.7551" lon="1.5995">
        <ele>1676</ele>
        <time>2020-01-05T12:55:12.000Z</time>
      </trkpt>
      <trkpt lat="42.75511" lon="1.59949">
        <ele>1676</ele>
        <time>2020-01-05T12:55:14.000Z</time>
      </trkpt>
      <trkpt lat="42.75512" lon="1.59948">
        <ele>1676</ele>
        <time>2020-01-05T12:55:16.000Z</time>
      </trkpt>
      <trkpt lat="42.75512" lon="1.59946">
        <ele>1676</ele>
        <time>2020-01-05T12:55:18.000Z</time>
      </trkpt>
      <trkpt lat="42.75513" lon="1.59944">
        <ele>1675</ele>
        <time>2020-01-05T12:55:20.000Z</time>
      </trkpt>
      <trkpt lat="42.75515" lon="1.59943">
        <ele>1675</ele>
        <time>2020-01-05T12:55:22.000Z</time>
      </trkpt>
      <trkpt lat="42.75516" lon="1.59942">
        <ele>1675</ele>
        <time>2020-01-05T12:55:24.000Z</time>
      </trkpt>
      <trkpt lat="42.75517" lon="1.59941">
        <ele>1675</ele>
        <time>2020-01-05T12:55:26.000Z</time>
      </trkpt>
      <trkpt lat="42.75518" lon="1.5994">
        <ele>1674</ele>
        <time>2020-01-05T12:55:28.000Z</time>
      </trkpt>
      <trkpt lat="42.75519" lon="1.59939">
        <ele>1674</ele>
        <time>2020-01-05T12:55:30.000Z</time>
      </trkpt>
      <trkpt lat="42.7552" lon="1.59937">
        <ele>1674</ele>
        <time>2020-01-05T12:55:32.000Z</time>
      </trkpt>
      <trkpt lat="42.75521" lon="1.59936">
        <ele>1674</ele>
        <time>2020-01-05T12:55:34.000Z</time>
      </trkpt>
      <trkpt lat="42.75521" lon="1.59935">
        <ele>1674</ele>
        <time>2020-01-05T12:55:36.000Z</time>
      </trkpt>
      <trkpt lat="42.75521" lon="1.59934">
        <ele>1674</ele>
        <time>2020-01-05T12:55:38.000Z</time>
      </trkpt>
      <trkpt lat="42.75522" lon="1.59932">
        <ele>1674</ele>
        <time>2020-01-05T12:55:40.000Z</time>
      </trkpt>
      <trkpt lat="42.75523" lon="1.59932">
        <ele>1673</ele>
        <time>2020-01-05T12:55:42.000Z</time>
      </trkpt>
      <trkpt lat="42.75524" lon="1.5993">
        <ele>1673</ele>
        <time>2020-01-05T12:55:44.000Z</time>
      </trkpt>
      <trkpt lat="42.75525" lon="1.5993">
        <ele>1673</ele>
        <time>2020-01-05T12:55:46.000Z</time>
      </trkpt>
      <trkpt lat="42.75526" lon="1.59929">
        <ele>1673</ele>
        <time>2020-01-05T12:55:48.000Z</time>
      </trkpt>
      <trkpt lat="42.75526" lon="1.59928">
        <ele>1673</ele>
        <time>2020-01-05T12:55:50.000Z</time>
      </trkpt>
      <trkpt lat="42.75527" lon="1.59927">
        <ele>1673</ele>
        <time>2020-01-05T12:55:52.000Z</time>
      </trkpt>
      <trkpt lat="42.75528" lon="1.59926">
        <ele>1672</ele>
        <time>2020-01-05T12:55:54.000Z</time>
      </trkpt>
      <trkpt lat="42.75528" lon="1.59925">
        <ele>1672</ele>
        <time>2020-01-05T12:55:56.000Z</time>
      </trkpt>
      <trkpt lat="42.75529" lon="1.59925">
        <ele>1672</ele>
        <time>2020-01-05T12:55:58.000Z</time>
      </trkpt>
      <trkpt lat="42.75529" lon="1.59925">
        <ele>1673</ele>
        <time>2020-01-05T12:56:00.000Z</time>
      </trkpt>
      <trkpt lat="42.7553" lon="1.59924">
        <ele>1673</ele>
        <time>2020-01-05T12:56:02.000Z</time>
      </trkpt>
      <trkpt lat="42.7553" lon="1.59922">
        <ele>1673</ele>
        <time>2020-01-05T12:56:04.000Z</time>
      </trkpt>
      <trkpt lat="42.7553" lon="1.59922">
        <ele>1673</ele>
        <time>2020-01-05T12:56:06.000Z</time>
      </trkpt>
      <trkpt lat="42.75531" lon="1.5992">
        <ele>1674</ele>
        <time>2020-01-05T12:56:08.000Z</time>
      </trkpt>
      <trkpt lat="42.75531" lon="1.59919">
        <ele>1674</ele>
        <time>2020-01-05T12:56:10.000Z</time>
      </trkpt>
      <trkpt lat="42.75532" lon="1.59918">
        <ele>1674</ele>
        <time>2020-01-05T12:56:12.000Z</time>
      </trkpt>
      <trkpt lat="42.75532" lon="1.59918">
        <ele>1674</ele>
        <time>2020-01-05T12:56:14.000Z</time>
      </trkpt>
      <trkpt lat="42.75533" lon="1.59916">
        <ele>1675</ele>
        <time>2020-01-05T12:56:16.000Z</time>
      </trkpt>
      <trkpt lat="42.75533" lon="1.59915">
        <ele>1675</ele>
        <time>2020-01-05T12:56:18.000Z</time>
      </trkpt>
      <trkpt lat="42.75533" lon="1.59913">
        <ele>1675</ele>
        <time>2020-01-05T12:56:20.000Z</time>
      </trkpt>
      <trkpt lat="42.75533" lon="1.59912">
        <ele>1676</ele>
        <time>2020-01-05T12:56:22.000Z</time>
      </trkpt>
      <trkpt lat="42.75533" lon="1.59911">
        <ele>1676</ele>
        <time>2020-01-05T12:56:24.000Z</time>
      </trkpt>
      <trkpt lat="42.75534" lon="1.5991">
        <ele>1676</ele>
        <time>2020-01-05T12:56:26.000Z</time>
      </trkpt>
      <trkpt lat="42.75535" lon="1.59909">
        <ele>1676</ele>
        <time>2020-01-05T12:56:28.000Z</time>
      </trkpt>
      <trkpt lat="42.75536" lon="1.59909">
        <ele>1677</ele>
        <time>2020-01-05T12:56:30.000Z</time>
      </trkpt>
      <trkpt lat="42.75537" lon="1.59909">
        <ele>1677</ele>
        <time>2020-01-05T12:56:32.000Z</time>
      </trkpt>
      <trkpt lat="42.75538" lon="1.59909">
        <ele>1677</ele>
        <time>2020-01-05T12:56:34.000Z</time>
      </trkpt>
      <trkpt lat="42.75538" lon="1.59909">
        <ele>1677</ele>
        <time>2020-01-05T12:56:36.000Z</time>
      </trkpt>
      <trkpt lat="42.75539" lon="1.59908">
        <ele>1677</ele>
        <time>2020-01-05T12:56:38.000Z</time>
      </trkpt>
      <trkpt lat="42.7554" lon="1.59908">
        <ele>1677</ele>
        <time>2020-01-05T12:56:40.000Z</time>
      </trkpt>
      <trkpt lat="42.7554" lon="1.59906">
        <ele>1678</ele>
        <time>2020-01-05T12:56:42.000Z</time>
      </trkpt>
      <trkpt lat="42.75541" lon="1.59905">
        <ele>1678</ele>
        <time>2020-01-05T12:56:44.000Z</time>
      </trkpt>
      <trkpt lat="42.75542" lon="1.59904">
        <ele>1678</ele>
        <time>2020-01-05T12:56:46.000Z</time>
      </trkpt>
      <trkpt lat="42.75543" lon="1.59903">
        <ele>1679</ele>
        <time>2020-01-05T12:56:48.000Z</time>
      </trkpt>
      <trkpt lat="42.75544" lon="1.59902">
        <ele>1679</ele>
        <time>2020-01-05T12:56:50.000Z</time>
      </trkpt>
      <trkpt lat="42.75545" lon="1.59901">
        <ele>1679</ele>
        <time>2020-01-05T12:56:52.000Z</time>
      </trkpt>
      <trkpt lat="42.75546" lon="1.599">
        <ele>1679</ele>
        <time>2020-01-05T12:56:54.000Z</time>
      </trkpt>
      <trkpt lat="42.75548" lon="1.59899">
        <ele>1679</ele>
        <time>2020-01-05T12:56:56.000Z</time>
      </trkpt>
      <trkpt lat="42.75548" lon="1.59899">
        <ele>1679</ele>
        <time>2020-01-05T12:56:58.000Z</time>
      </trkpt>
      <trkpt lat="42.75549" lon="1.59898">
        <ele>1680</ele>
        <time>2020-01-05T12:57:00.000Z</time>
      </trkpt>
      <trkpt lat="42.7555" lon="1.59897">
        <ele>1680</ele>
        <time>2020-01-05T12:57:02.000Z</time>
      </trkpt>
      <trkpt lat="42.75551" lon="1.59896">
        <ele>1680</ele>
        <time>2020-01-05T12:57:04.000Z</time>
      </trkpt>
      <trkpt lat="42.75551" lon="1.59895">
        <ele>1680</ele>
        <time>2020-01-05T12:57:06.000Z</time>
      </trkpt>
      <trkpt lat="42.75552" lon="1.59894">
        <ele>1680</ele>
        <time>2020-01-05T12:57:08.000Z</time>
      </trkpt>
      <trkpt lat="42.75553" lon="1.59893">
        <ele>1680</ele>
        <time>2020-01-05T12:57:10.000Z</time>
      </trkpt>
      <trkpt lat="42.75554" lon="1.59892">
        <ele>1680</ele>
        <time>2020-01-05T12:57:12.000Z</time>
      </trkpt>
      <trkpt lat="42.75554" lon="1.59892">
        <ele>1680</ele>
        <time>2020-01-05T12:57:14.000Z</time>
      </trkpt>
      <trkpt lat="42.75554" lon="1.59891">
        <ele>1680</ele>
        <time>2020-01-05T12:57:16.000Z</time>
      </trkpt>
      <trkpt lat="42.75555" lon="1.59889">
        <ele>1681</ele>
        <time>2020-01-05T12:57:18.000Z</time>
      </trkpt>
      <trkpt lat="42.75555" lon="1.59888">
        <ele>1681</ele>
        <time>2020-01-05T12:57:20.000Z</time>
      </trkpt>
      <trkpt lat="42.75555" lon="1.59886">
        <ele>1681</ele>
        <time>2020-01-05T12:57:22.000Z</time>
      </trkpt>
      <trkpt lat="42.75555" lon="1.59884">
        <ele>1681</ele>
        <time>2020-01-05T12:57:24.000Z</time>
      </trkpt>
      <trkpt lat="42.75555" lon="1.59883">
        <ele>1681</ele>
        <time>2020-01-05T12:57:26.000Z</time>
      </trkpt>
      <trkpt lat="42.75556" lon="1.59881">
        <ele>1681</ele>
        <time>2020-01-05T12:57:28.000Z</time>
      </trkpt>
      <trkpt lat="42.75556" lon="1.5988">
        <ele>1681</ele>
        <time>2020-01-05T12:57:30.000Z</time>
      </trkpt>
      <trkpt lat="42.75556" lon="1.5988">
        <ele>1681</ele>
        <time>2020-01-05T12:57:32.000Z</time>
      </trkpt>
      <trkpt lat="42.75556" lon="1.5988">
        <ele>1681</ele>
        <time>2020-01-05T12:57:34.000Z</time>
      </trkpt>
      <trkpt lat="42.75556" lon="1.59879">
        <ele>1681</ele>
        <time>2020-01-05T12:57:36.000Z</time>
      </trkpt>
      <trkpt lat="42.75556" lon="1.59878">
        <ele>1681</ele>
        <time>2020-01-05T12:57:38.000Z</time>
      </trkpt>
      <trkpt lat="42.75556" lon="1.59876">
        <ele>1682</ele>
        <time>2020-01-05T12:57:40.000Z</time>
      </trkpt>
      <trkpt lat="42.75556" lon="1.59874">
        <ele>1682</ele>
        <time>2020-01-05T12:57:42.000Z</time>
      </trkpt>
      <trkpt lat="42.75557" lon="1.59872">
        <ele>1682</ele>
        <time>2020-01-05T12:57:44.000Z</time>
      </trkpt>
      <trkpt lat="42.75558" lon="1.59872">
        <ele>1682</ele>
        <time>2020-01-05T12:57:46.000Z</time>
      </trkpt>
      <trkpt lat="42.75559" lon="1.59871">
        <ele>1682</ele>
        <time>2020-01-05T12:57:48.000Z</time>
      </trkpt>
      <trkpt lat="42.75561" lon="1.59871">
        <ele>1682</ele>
        <time>2020-01-05T12:57:50.000Z</time>
      </trkpt>
      <trkpt lat="42.75561" lon="1.59871">
        <ele>1683</ele>
        <time>2020-01-05T12:57:52.000Z</time>
      </trkpt>
      <trkpt lat="42.75561" lon="1.59871">
        <ele>1683</ele>
        <time>2020-01-05T12:57:54.000Z</time>
      </trkpt>
      <trkpt lat="42.75561" lon="1.59872">
        <ele>1682</ele>
        <time>2020-01-05T12:57:56.000Z</time>
      </trkpt>
      <trkpt lat="42.75561" lon="1.59872">
        <ele>1682</ele>
        <time>2020-01-05T12:57:58.000Z</time>
      </trkpt>
      <trkpt lat="42.75561" lon="1.59872">
        <ele>1682</ele>
        <time>2020-01-05T12:58:00.000Z</time>
      </trkpt>
      <trkpt lat="42.75561" lon="1.59872">
        <ele>1682</ele>
        <time>2020-01-05T12:58:02.000Z</time>
      </trkpt>
      <trkpt lat="42.75561" lon="1.59872">
        <ele>1682</ele>
        <time>2020-01-05T12:58:04.000Z</time>
      </trkpt>
      <trkpt lat="42.75562" lon="1.59872">
        <ele>1682</ele>
        <time>2020-01-05T12:58:06.000Z</time>
      </trkpt>
      <trkpt lat="42.75561" lon="1.59872">
        <ele>1682</ele>
        <time>2020-01-05T12:58:08.000Z</time>
      </trkpt>
      <trkpt lat="42.75561" lon="1.59872">
        <ele>1682</ele>
        <time>2020-01-05T12:58:10.000Z</time>
      </trkpt>
      <trkpt lat="42.75561" lon="1.59872">
        <ele>1682</ele>
        <time>2020-01-05T12:58:12.000Z</time>
      </trkpt>
      <trkpt lat="42.75561" lon="1.59872">
        <ele>1682</ele>
        <time>2020-01-05T12:58:14.000Z</time>
      </trkpt>
      <trkpt lat="42.75561" lon="1.59873">
        <ele>1682</ele>
        <time>2020-01-05T12:58:16.000Z</time>
      </trkpt>
      <trkpt lat="42.75561" lon="1.59873">
        <ele>1682</ele>
        <time>2020-01-05T12:58:18.000Z</time>
      </trkpt>
      <trkpt lat="42.75561" lon="1.59872">
        <ele>1682</ele>
        <time>2020-01-05T12:58:20.000Z</time>
      </trkpt>
      <trkpt lat="42.75561" lon="1.59872">
        <ele>1682</ele>
        <time>2020-01-05T12:58:22.000Z</time>
      </trkpt>
      <trkpt lat="42.75561" lon="1.59872">
        <ele>1682</ele>
        <time>2020-01-05T12:58:24.000Z</time>
      </trkpt>
      <trkpt lat="42.75561" lon="1.59872">
        <ele>1682</ele>
        <time>2020-01-05T12:58:26.000Z</time>
      </trkpt>
      <trkpt lat="42.75561" lon="1.59872">
        <ele>1682</ele>
        <time>2020-01-05T12:58:28.000Z</time>
      </trkpt>
      <trkpt lat="42.75561" lon="1.59872">
        <ele>1682</ele>
        <time>2020-01-05T12:58:30.000Z</time>
      </trkpt>
      <trkpt lat="42.75561" lon="1.59872">
        <ele>1682</ele>
        <time>2020-01-05T12:58:32.000Z</time>
      </trkpt>
      <trkpt lat="42.75561" lon="1.59873">
        <ele>1682</ele>
        <time>2020-01-05T12:58:34.000Z</time>
      </trkpt>
      <trkpt lat="42.75561" lon="1.59873">
        <ele>1682</ele>
        <time>2020-01-05T12:58:36.000Z</time>
      </trkpt>
      <trkpt lat="42.75562" lon="1.59872">
        <ele>1682</ele>
        <time>2020-01-05T12:58:38.000Z</time>
      </trkpt>
      <trkpt lat="42.75561" lon="1.59872">
        <ele>1682</ele>
        <time>2020-01-05T12:58:40.000Z</time>
      </trkpt>
      <trkpt lat="42.75561" lon="1.59872">
        <ele>1682</ele>
        <time>2020-01-05T12:58:42.000Z</time>
      </trkpt>
      <trkpt lat="42.75561" lon="1.59872">
        <ele>1682</ele>
        <time>2020-01-05T12:58:44.000Z</time>
      </trkpt>
      <trkpt lat="42.75561" lon="1.59872">
        <ele>1682</ele>
        <time>2020-01-05T12:58:46.000Z</time>
      </trkpt>
      <trkpt lat="42.75561" lon="1.59872">
        <ele>1682</ele>
        <time>2020-01-05T12:58:48.000Z</time>
      </trkpt>
      <trkpt lat="42.75561" lon="1.59872">
        <ele>1682</ele>
        <time>2020-01-05T12:58:50.000Z</time>
      </trkpt>
      <trkpt lat="42.75561" lon="1.59872">
        <ele>1682</ele>
        <time>2020-01-05T12:58:52.000Z</time>
      </trkpt>
      <trkpt lat="42.75561" lon="1.59872">
        <ele>1682</ele>
        <time>2020-01-05T12:58:54.000Z</time>
      </trkpt>
      <trkpt lat="42.75561" lon="1.59872">
        <ele>1682</ele>
        <time>2020-01-05T12:58:56.000Z</time>
      </trkpt>
      <trkpt lat="42.75561" lon="1.59872">
        <ele>1682</ele>
        <time>2020-01-05T12:58:58.000Z</time>
      </trkpt>
      <trkpt lat="42.75562" lon="1.59872">
        <ele>1682</ele>
        <time>2020-01-05T12:59:00.000Z</time>
      </trkpt>
      <trkpt lat="42.75562" lon="1.59872">
        <ele>1682</ele>
        <time>2020-01-05T12:59:02.000Z</time>
      </trkpt>
      <trkpt lat="42.75562" lon="1.59872">
        <ele>1682</ele>
        <time>2020-01-05T12:59:04.000Z</time>
      </trkpt>
      <trkpt lat="42.75562" lon="1.59872">
        <ele>1682</ele>
        <time>2020-01-05T12:59:06.000Z</time>
      </trkpt>
      <trkpt lat="42.75562" lon="1.59872">
        <ele>1683</ele>
        <time>2020-01-05T12:59:08.000Z</time>
      </trkpt>
      <trkpt lat="42.75562" lon="1.59872">
        <ele>1682</ele>
        <time>2020-01-05T12:59:10.000Z</time>
      </trkpt>
      <trkpt lat="42.75562" lon="1.59872">
        <ele>1682</ele>
        <time>2020-01-05T12:59:12.000Z</time>
      </trkpt>
      <trkpt lat="42.75561" lon="1.59872">
        <ele>1682</ele>
        <time>2020-01-05T12:59:14.000Z</time>
      </trkpt>
      <trkpt lat="42.75561" lon="1.59872">
        <ele>1682</ele>
        <time>2020-01-05T12:59:16.000Z</time>
      </trkpt>
      <trkpt lat="42.75561" lon="1.59872">
        <ele>1682</ele>
        <time>2020-01-05T12:59:18.000Z</time>
      </trkpt>
      <trkpt lat="42.75561" lon="1.59872">
        <ele>1682</ele>
        <time>2020-01-05T12:59:20.000Z</time>
      </trkpt>
      <trkpt lat="42.75561" lon="1.59872">
        <ele>1682</ele>
        <time>2020-01-05T12:59:22.000Z</time>
      </trkpt>
      <trkpt lat="42.7556" lon="1.59872">
        <ele>1682</ele>
        <time>2020-01-05T12:59:24.000Z</time>
      </trkpt>
      <trkpt lat="42.7556" lon="1.59872">
        <ele>1682</ele>
        <time>2020-01-05T12:59:26.000Z</time>
      </trkpt>
      <trkpt lat="42.7556" lon="1.59872">
        <ele>1682</ele>
        <time>2020-01-05T12:59:28.000Z</time>
      </trkpt>
      <trkpt lat="42.7556" lon="1.59872">
        <ele>1682</ele>
        <time>2020-01-05T12:59:30.000Z</time>
      </trkpt>
      <trkpt lat="42.7556" lon="1.59872">
        <ele>1682</ele>
        <time>2020-01-05T12:59:32.000Z</time>
      </trkpt>
      <trkpt lat="42.75561" lon="1.59871">
        <ele>1682</ele>
        <time>2020-01-05T12:59:34.000Z</time>
      </trkpt>
      <trkpt lat="42.75561" lon="1.59872">
        <ele>1682</ele>
        <time>2020-01-05T12:59:36.000Z</time>
      </trkpt>
      <trkpt lat="42.75561" lon="1.59872">
        <ele>1682</ele>
        <time>2020-01-05T12:59:38.000Z</time>
      </trkpt>
      <trkpt lat="42.75561" lon="1.59872">
        <ele>1682</ele>
        <time>2020-01-05T12:59:40.000Z</time>
      </trkpt>
      <trkpt lat="42.75561" lon="1.59872">
        <ele>1682</ele>
        <time>2020-01-05T12:59:42.000Z</time>
      </trkpt>
      <trkpt lat="42.75562" lon="1.59872">
        <ele>1683</ele>
        <time>2020-01-05T12:59:44.000Z</time>
      </trkpt>
      <trkpt lat="42.75562" lon="1.59871">
        <ele>1683</ele>
        <time>2020-01-05T12:59:46.000Z</time>
      </trkpt>
      <trkpt lat="42.75562" lon="1.59871">
        <ele>1683</ele>
        <time>2020-01-05T12:59:48.000Z</time>
      </trkpt>
      <trkpt lat="42.75562" lon="1.59871">
        <ele>1683</ele>
        <time>2020-01-05T12:59:50.000Z</time>
      </trkpt>
      <trkpt lat="42.75562" lon="1.59871">
        <ele>1683</ele>
        <time>2020-01-05T12:59:52.000Z</time>
      </trkpt>
      <trkpt lat="42.75563" lon="1.59871">
        <ele>1683</ele>
        <time>2020-01-05T12:59:54.000Z</time>
      </trkpt>
      <trkpt lat="42.75563" lon="1.59871">
        <ele>1683</ele>
        <time>2020-01-05T12:59:56.000Z</time>
      </trkpt>
      <trkpt lat="42.75563" lon="1.59871">
        <ele>1683</ele>
        <time>2020-01-05T12:59:58.000Z</time>
      </trkpt>
      <trkpt lat="42.75563" lon="1.59871">
        <ele>1683</ele>
        <time>2020-01-05T13:00:00.000Z</time>
      </trkpt>
      <trkpt lat="42.75562" lon="1.59871">
        <ele>1683</ele>
        <time>2020-01-05T13:00:02.000Z</time>
      </trkpt>
      <trkpt lat="42.75562" lon="1.59871">
        <ele>1683</ele>
        <time>2020-01-05T13:00:04.000Z</time>
      </trkpt>
      <trkpt lat="42.75562" lon="1.59871">
        <ele>1683</ele>
        <time>2020-01-05T13:00:06.000Z</time>
      </trkpt>
      <trkpt lat="42.75561" lon="1.59871">
        <ele>1683</ele>
        <time>2020-01-05T13:00:08.000Z</time>
      </trkpt>
      <trkpt lat="42.7556" lon="1.59871">
        <ele>1682</ele>
        <time>2020-01-05T13:00:10.000Z</time>
      </trkpt>
      <trkpt lat="42.75561" lon="1.59871">
        <ele>1683</ele>
        <time>2020-01-05T13:00:12.000Z</time>
      </trkpt>
      <trkpt lat="42.75561" lon="1.59871">
        <ele>1683</ele>
        <time>2020-01-05T13:00:14.000Z</time>
      </trkpt>
      <trkpt lat="42.75561" lon="1.59871">
        <ele>1683</ele>
        <time>2020-01-05T13:00:16.000Z</time>
      </trkpt>
      <trkpt lat="42.75561" lon="1.59871">
        <ele>1683</ele>
        <time>2020-01-05T13:00:18.000Z</time>
      </trkpt>
      <trkpt lat="42.75561" lon="1.59871">
        <ele>1683</ele>
        <time>2020-01-05T13:00:20.000Z</time>
      </trkpt>
      <trkpt lat="42.75561" lon="1.59871">
        <ele>1683</ele>
        <time>2020-01-05T13:00:22.000Z</time>
      </trkpt>
      <trkpt lat="42.75561" lon="1.59871">
        <ele>1683</ele>
        <time>2020-01-05T13:00:24.000Z</time>
      </trkpt>
      <trkpt lat="42.75561" lon="1.59871">
        <ele>1683</ele>
        <time>2020-01-05T13:00:26.000Z</time>
      </trkpt>
      <trkpt lat="42.75561" lon="1.59871">
        <ele>1683</ele>
        <time>2020-01-05T13:00:28.000Z</time>
      </trkpt>
      <trkpt lat="42.75561" lon="1.59871">
        <ele>1683</ele>
        <time>2020-01-05T13:00:30.000Z</time>
      </trkpt>
      <trkpt lat="42.75561" lon="1.59871">
        <ele>1683</ele>
        <time>2020-01-05T13:00:32.000Z</time>
      </trkpt>
      <trkpt lat="42.75561" lon="1.59871">
        <ele>1683</ele>
        <time>2020-01-05T13:00:34.000Z</time>
      </trkpt>
      <trkpt lat="42.75561" lon="1.59871">
        <ele>1683</ele>
        <time>2020-01-05T13:00:36.000Z</time>
      </trkpt>
      <trkpt lat="42.75561" lon="1.59871">
        <ele>1683</ele>
        <time>2020-01-05T13:00:38.000Z</time>
      </trkpt>
      <trkpt lat="42.75561" lon="1.59871">
        <ele>1683</ele>
        <time>2020-01-05T13:00:40.000Z</time>
      </trkpt>
      <trkpt lat="42.75561" lon="1.59871">
        <ele>1682</ele>
        <time>2020-01-05T13:00:42.000Z</time>
      </trkpt>
      <trkpt lat="42.75561" lon="1.59871">
        <ele>1682</ele>
        <time>2020-01-05T13:00:44.000Z</time>
      </trkpt>
      <trkpt lat="42.75561" lon="1.59871">
        <ele>1683</ele>
        <time>2020-01-05T13:00:46.000Z</time>
      </trkpt>
      <trkpt lat="42.75561" lon="1.59871">
        <ele>1683</ele>
        <time>2020-01-05T13:00:48.000Z</time>
      </trkpt>
      <trkpt lat="42.75561" lon="1.59871">
        <ele>1683</ele>
        <time>2020-01-05T13:00:50.000Z</time>
      </trkpt>
      <trkpt lat="42.75561" lon="1.59871">
        <ele>1683</ele>
        <time>2020-01-05T13:00:52.000Z</time>
      </trkpt>
      <trkpt lat="42.75561" lon="1.59871">
        <ele>1683</ele>
        <time>2020-01-05T13:00:54.000Z</time>
      </trkpt>
      <trkpt lat="42.75561" lon="1.59871">
        <ele>1683</ele>
        <time>2020-01-05T13:00:56.000Z</time>
      </trkpt>
      <trkpt lat="42.75561" lon="1.59871">
        <ele>1683</ele>
        <time>2020-01-05T13:00:58.000Z</time>
      </trkpt>
      <trkpt lat="42.75561" lon="1.59871">
        <ele>1683</ele>
        <time>2020-01-05T13:01:00.000Z</time>
      </trkpt>
      <trkpt lat="42.75561" lon="1.59871">
        <ele>1682</ele>
        <time>2020-01-05T13:01:02.000Z</time>
      </trkpt>
      <trkpt lat="42.75561" lon="1.59871">
        <ele>1683</ele>
        <time>2020-01-05T13:01:04.000Z</time>
      </trkpt>
      <trkpt lat="42.75561" lon="1.59871">
        <ele>1683</ele>
        <time>2020-01-05T13:01:06.000Z</time>
      </trkpt>
      <trkpt lat="42.75561" lon="1.59871">
        <ele>1683</ele>
        <time>2020-01-05T13:01:08.000Z</time>
      </trkpt>
      <trkpt lat="42.75561" lon="1.59871">
        <ele>1683</ele>
        <time>2020-01-05T13:01:10.000Z</time>
      </trkpt>
      <trkpt lat="42.75561" lon="1.59871">
        <ele>1683</ele>
        <time>2020-01-05T13:01:12.000Z</time>
      </trkpt>
      <trkpt lat="42.75561" lon="1.59871">
        <ele>1683</ele>
        <time>2020-01-05T13:01:14.000Z</time>
      </trkpt>
      <trkpt lat="42.75561" lon="1.59871">
        <ele>1683</ele>
        <time>2020-01-05T13:01:16.000Z</time>
      </trkpt>
      <trkpt lat="42.75561" lon="1.59871">
        <ele>1683</ele>
        <time>2020-01-05T13:01:18.000Z</time>
      </trkpt>
      <trkpt lat="42.75561" lon="1.59871">
        <ele>1683</ele>
        <time>2020-01-05T13:01:20.000Z</time>
      </trkpt>
      <trkpt lat="42.75561" lon="1.59871">
        <ele>1683</ele>
        <time>2020-01-05T13:01:22.000Z</time>
      </trkpt>
      <trkpt lat="42.75561" lon="1.59871">
        <ele>1683</ele>
        <time>2020-01-05T13:01:24.000Z</time>
      </trkpt>
      <trkpt lat="42.75561" lon="1.59871">
        <ele>1683</ele>
        <time>2020-01-05T13:01:26.000Z</time>
      </trkpt>
      <trkpt lat="42.75561" lon="1.59871">
        <ele>1682</ele>
        <time>2020-01-05T13:01:28.000Z</time>
      </trkpt>
      <trkpt lat="42.75561" lon="1.59871">
        <ele>1682</ele>
        <time>2020-01-05T13:01:30.000Z</time>
      </trkpt>
      <trkpt lat="42.75561" lon="1.59871">
        <ele>1682</ele>
        <time>2020-01-05T13:01:32.000Z</time>
      </trkpt>
      <trkpt lat="42.7556" lon="1.59871">
        <ele>1682</ele>
        <time>2020-01-05T13:01:34.000Z</time>
      </trkpt>
      <trkpt lat="42.7556" lon="1.59871">
        <ele>1682</ele>
        <time>2020-01-05T13:01:36.000Z</time>
      </trkpt>
      <trkpt lat="42.7556" lon="1.59871">
        <ele>1682</ele>
        <time>2020-01-05T13:01:38.000Z</time>
      </trkpt>
      <trkpt lat="42.7556" lon="1.59871">
        <ele>1682</ele>
        <time>2020-01-05T13:01:40.000Z</time>
      </trkpt>
      <trkpt lat="42.75561" lon="1.59871">
        <ele>1683</ele>
        <time>2020-01-05T13:01:42.000Z</time>
      </trkpt>
      <trkpt lat="42.75561" lon="1.59871">
        <ele>1683</ele>
        <time>2020-01-05T13:01:44.000Z</time>
      </trkpt>
      <trkpt lat="42.75561" lon="1.59871">
        <ele>1683</ele>
        <time>2020-01-05T13:01:46.000Z</time>
      </trkpt>
      <trkpt lat="42.75561" lon="1.59871">
        <ele>1683</ele>
        <time>2020-01-05T13:01:48.000Z</time>
      </trkpt>
      <trkpt lat="42.75561" lon="1.59871">
        <ele>1683</ele>
        <time>2020-01-05T13:01:50.000Z</time>
      </trkpt>
      <trkpt lat="42.75561" lon="1.59871">
        <ele>1683</ele>
        <time>2020-01-05T13:01:52.000Z</time>
      </trkpt>
      <trkpt lat="42.75561" lon="1.59871">
        <ele>1683</ele>
        <time>2020-01-05T13:01:54.000Z</time>
      </trkpt>
      <trkpt lat="42.75561" lon="1.59871">
        <ele>1683</ele>
        <time>2020-01-05T13:01:56.000Z</time>
      </trkpt>
      <trkpt lat="42.75562" lon="1.59872">
        <ele>1682</ele>
        <time>2020-01-05T13:01:58.000Z</time>
      </trkpt>
      <trkpt lat="42.75562" lon="1.59873">
        <ele>1682</ele>
        <time>2020-01-05T13:02:00.000Z</time>
      </trkpt>
      <trkpt lat="42.75562" lon="1.59872">
        <ele>1682</ele>
        <time>2020-01-05T13:02:02.000Z</time>
      </trkpt>
      <trkpt lat="42.75562" lon="1.59872">
        <ele>1682</ele>
        <time>2020-01-05T13:02:04.000Z</time>
      </trkpt>
      <trkpt lat="42.75562" lon="1.59873">
        <ele>1682</ele>
        <time>2020-01-05T13:02:06.000Z</time>
      </trkpt>
      <trkpt lat="42.75562" lon="1.59873">
        <ele>1682</ele>
        <time>2020-01-05T13:02:08.000Z</time>
      </trkpt>
      <trkpt lat="42.75562" lon="1.59873">
        <ele>1682</ele>
        <time>2020-01-05T13:02:10.000Z</time>
      </trkpt>
      <trkpt lat="42.75562" lon="1.59873">
        <ele>1682</ele>
        <time>2020-01-05T13:02:12.000Z</time>
      </trkpt>
      <trkpt lat="42.75562" lon="1.59873">
        <ele>1682</ele>
        <time>2020-01-05T13:02:14.000Z</time>
      </trkpt>
      <trkpt lat="42.75562" lon="1.59873">
        <ele>1682</ele>
        <time>2020-01-05T13:02:16.000Z</time>
      </trkpt>
      <trkpt lat="42.75562" lon="1.59872">
        <ele>1682</ele>
        <time>2020-01-05T13:02:18.000Z</time>
      </trkpt>
      <trkpt lat="42.75562" lon="1.59872">
        <ele>1682</ele>
        <time>2020-01-05T13:02:20.000Z</time>
      </trkpt>
      <trkpt lat="42.75562" lon="1.59873">
        <ele>1682</ele>
        <time>2020-01-05T13:02:22.000Z</time>
      </trkpt>
      <trkpt lat="42.75562" lon="1.59872">
        <ele>1683</ele>
        <time>2020-01-05T13:02:24.000Z</time>
      </trkpt>
      <trkpt lat="42.75564" lon="1.59871">
        <ele>1683</ele>
        <time>2020-01-05T13:02:26.000Z</time>
      </trkpt>
      <trkpt lat="42.75565" lon="1.59869">
        <ele>1683</ele>
        <time>2020-01-05T13:02:28.000Z</time>
      </trkpt>
      <trkpt lat="42.75565" lon="1.59866">
        <ele>1684</ele>
        <time>2020-01-05T13:02:30.000Z</time>
      </trkpt>
      <trkpt lat="42.75566" lon="1.59863">
        <ele>1684</ele>
        <time>2020-01-05T13:02:32.000Z</time>
      </trkpt>
      <trkpt lat="42.75567" lon="1.5986">
        <ele>1685</ele>
        <time>2020-01-05T13:02:34.000Z</time>
      </trkpt>
      <trkpt lat="42.75568" lon="1.59857">
        <ele>1685</ele>
        <time>2020-01-05T13:02:36.000Z</time>
      </trkpt>
      <trkpt lat="42.75568" lon="1.59853">
        <ele>1686</ele>
        <time>2020-01-05T13:02:38.000Z</time>
      </trkpt>
      <trkpt lat="42.75569" lon="1.5985">
        <ele>1686</ele>
        <time>2020-01-05T13:02:40.000Z</time>
      </trkpt>
      <trkpt lat="42.75569" lon="1.59846">
        <ele>1687</ele>
        <time>2020-01-05T13:02:42.000Z</time>
      </trkpt>
      <trkpt lat="42.75569" lon="1.59843">
        <ele>1687</ele>
        <time>2020-01-05T13:02:44.000Z</time>
      </trkpt>
      <trkpt lat="42.75569" lon="1.5984">
        <ele>1688</ele>
        <time>2020-01-05T13:02:46.000Z</time>
      </trkpt>
      <trkpt lat="42.75569" lon="1.59838">
        <ele>1688</ele>
        <time>2020-01-05T13:02:48.000Z</time>
      </trkpt>
      <trkpt lat="42.7557" lon="1.59835">
        <ele>1688</ele>
        <time>2020-01-05T13:02:50.000Z</time>
      </trkpt>
      <trkpt lat="42.7557" lon="1.59832">
        <ele>1689</ele>
        <time>2020-01-05T13:02:52.000Z</time>
      </trkpt>
      <trkpt lat="42.75571" lon="1.59829">
        <ele>1689</ele>
        <time>2020-01-05T13:02:54.000Z</time>
      </trkpt>
      <trkpt lat="42.7557" lon="1.59826">
        <ele>1690</ele>
        <time>2020-01-05T13:02:56.000Z</time>
      </trkpt>
      <trkpt lat="42.7557" lon="1.59824">
        <ele>1690</ele>
        <time>2020-01-05T13:02:58.000Z</time>
      </trkpt>
      <trkpt lat="42.75571" lon="1.59821">
        <ele>1690</ele>
        <time>2020-01-05T13:03:00.000Z</time>
      </trkpt>
      <trkpt lat="42.7557" lon="1.59818">
        <ele>1691</ele>
        <time>2020-01-05T13:03:02.000Z</time>
      </trkpt>
      <trkpt lat="42.75571" lon="1.59815">
        <ele>1691</ele>
        <time>2020-01-05T13:03:04.000Z</time>
      </trkpt>
      <trkpt lat="42.7557" lon="1.59812">
        <ele>1691</ele>
        <time>2020-01-05T13:03:06.000Z</time>
      </trkpt>
      <trkpt lat="42.7557" lon="1.59808">
        <ele>1691</ele>
        <time>2020-01-05T13:03:08.000Z</time>
      </trkpt>
      <trkpt lat="42.75571" lon="1.59805">
        <ele>1692</ele>
        <time>2020-01-05T13:03:10.000Z</time>
      </trkpt>
      <trkpt lat="42.75571" lon="1.59803">
        <ele>1692</ele>
        <time>2020-01-05T13:03:12.000Z</time>
      </trkpt>
      <trkpt lat="42.75572" lon="1.598">
        <ele>1692</ele>
        <time>2020-01-05T13:03:14.000Z</time>
      </trkpt>
      <trkpt lat="42.75572" lon="1.59798">
        <ele>1692</ele>
        <time>2020-01-05T13:03:16.000Z</time>
      </trkpt>
      <trkpt lat="42.75573" lon="1.59795">
        <ele>1692</ele>
        <time>2020-01-05T13:03:18.000Z</time>
      </trkpt>
      <trkpt lat="42.75574" lon="1.59793">
        <ele>1692</ele>
        <time>2020-01-05T13:03:20.000Z</time>
      </trkpt>
      <trkpt lat="42.75575" lon="1.5979">
        <ele>1692</ele>
        <time>2020-01-05T13:03:22.000Z</time>
      </trkpt>
      <trkpt lat="42.75575" lon="1.59788">
        <ele>1692</ele>
        <time>2020-01-05T13:03:24.000Z</time>
      </trkpt>
      <trkpt lat="42.75576" lon="1.59785">
        <ele>1692</ele>
        <time>2020-01-05T13:03:26.000Z</time>
      </trkpt>
      <trkpt lat="42.75577" lon="1.59783">
        <ele>1692</ele>
        <time>2020-01-05T13:03:28.000Z</time>
      </trkpt>
      <trkpt lat="42.75577" lon="1.5978">
        <ele>1692</ele>
        <time>2020-01-05T13:03:30.000Z</time>
      </trkpt>
      <trkpt lat="42.75577" lon="1.59777">
        <ele>1692</ele>
        <time>2020-01-05T13:03:32.000Z</time>
      </trkpt>
      <trkpt lat="42.75577" lon="1.59775">
        <ele>1692</ele>
        <time>2020-01-05T13:03:34.000Z</time>
      </trkpt>
      <trkpt lat="42.75577" lon="1.59772">
        <ele>1692</ele>
        <time>2020-01-05T13:03:36.000Z</time>
      </trkpt>
      <trkpt lat="42.75578" lon="1.59769">
        <ele>1692</ele>
        <time>2020-01-05T13:03:38.000Z</time>
      </trkpt>
      <trkpt lat="42.75578" lon="1.59766">
        <ele>1692</ele>
        <time>2020-01-05T13:03:40.000Z</time>
      </trkpt>
      <trkpt lat="42.75578" lon="1.59764">
        <ele>1692</ele>
        <time>2020-01-05T13:03:42.000Z</time>
      </trkpt>
      <trkpt lat="42.75579" lon="1.59761">
        <ele>1692</ele>
        <time>2020-01-05T13:03:44.000Z</time>
      </trkpt>
      <trkpt lat="42.75579" lon="1.59759">
        <ele>1692</ele>
        <time>2020-01-05T13:03:46.000Z</time>
      </trkpt>
      <trkpt lat="42.7558" lon="1.59756">
        <ele>1692</ele>
        <time>2020-01-05T13:03:48.000Z</time>
      </trkpt>
      <trkpt lat="42.7558" lon="1.59753">
        <ele>1692</ele>
        <time>2020-01-05T13:03:50.000Z</time>
      </trkpt>
      <trkpt lat="42.75581" lon="1.59751">
        <ele>1692</ele>
        <time>2020-01-05T13:03:52.000Z</time>
      </trkpt>
      <trkpt lat="42.75581" lon="1.59748">
        <ele>1693</ele>
        <time>2020-01-05T13:03:54.000Z</time>
      </trkpt>
      <trkpt lat="42.75581" lon="1.59745">
        <ele>1693</ele>
        <time>2020-01-05T13:03:56.000Z</time>
      </trkpt>
      <trkpt lat="42.75582" lon="1.59742">
        <ele>1693</ele>
        <time>2020-01-05T13:03:58.000Z</time>
      </trkpt>
      <trkpt lat="42.75583" lon="1.59739">
        <ele>1693</ele>
        <time>2020-01-05T13:04:00.000Z</time>
      </trkpt>
      <trkpt lat="42.75584" lon="1.59737">
        <ele>1693</ele>
        <time>2020-01-05T13:04:02.000Z</time>
      </trkpt>
      <trkpt lat="42.75585" lon="1.59734">
        <ele>1693</ele>
        <time>2020-01-05T13:04:04.000Z</time>
      </trkpt>
      <trkpt lat="42.75586" lon="1.59732">
        <ele>1692</ele>
        <time>2020-01-05T13:04:06.000Z</time>
      </trkpt>
      <trkpt lat="42.75587" lon="1.59729">
        <ele>1692</ele>
        <time>2020-01-05T13:04:08.000Z</time>
      </trkpt>
      <trkpt lat="42.75587" lon="1.59727">
        <ele>1691</ele>
        <time>2020-01-05T13:04:10.000Z</time>
      </trkpt>
      <trkpt lat="42.75587" lon="1.59724">
        <ele>1691</ele>
        <time>2020-01-05T13:04:12.000Z</time>
      </trkpt>
      <trkpt lat="42.75588" lon="1.59721">
        <ele>1690</ele>
        <time>2020-01-05T13:04:14.000Z</time>
      </trkpt>
      <trkpt lat="42.75589" lon="1.59719">
        <ele>1690</ele>
        <time>2020-01-05T13:04:16.000Z</time>
      </trkpt>
      <trkpt lat="42.75589" lon="1.59716">
        <ele>1689</ele>
        <time>2020-01-05T13:04:18.000Z</time>
      </trkpt>
      <trkpt lat="42.75589" lon="1.59713">
        <ele>1688</ele>
        <time>2020-01-05T13:04:20.000Z</time>
      </trkpt>
      <trkpt lat="42.75589" lon="1.59711">
        <ele>1688</ele>
        <time>2020-01-05T13:04:22.000Z</time>
      </trkpt>
      <trkpt lat="42.7559" lon="1.59707">
        <ele>1687</ele>
        <time>2020-01-05T13:04:24.000Z</time>
      </trkpt>
      <trkpt lat="42.75591" lon="1.59704">
        <ele>1686</ele>
        <time>2020-01-05T13:04:26.000Z</time>
      </trkpt>
      <trkpt lat="42.75591" lon="1.59702">
        <ele>1685</ele>
        <time>2020-01-05T13:04:28.000Z</time>
      </trkpt>
      <trkpt lat="42.75592" lon="1.597">
        <ele>1685</ele>
        <time>2020-01-05T13:04:30.000Z</time>
      </trkpt>
      <trkpt lat="42.75592" lon="1.59698">
        <ele>1684</ele>
        <time>2020-01-05T13:04:32.000Z</time>
      </trkpt>
      <trkpt lat="42.75593" lon="1.59696">
        <ele>1684</ele>
        <time>2020-01-05T13:04:34.000Z</time>
      </trkpt>
      <trkpt lat="42.75594" lon="1.59693">
        <ele>1683</ele>
        <time>2020-01-05T13:04:36.000Z</time>
      </trkpt>
      <trkpt lat="42.75595" lon="1.59692">
        <ele>1682</ele>
        <time>2020-01-05T13:04:38.000Z</time>
      </trkpt>
      <trkpt lat="42.75595" lon="1.59691">
        <ele>1682</ele>
        <time>2020-01-05T13:04:40.000Z</time>
      </trkpt>
      <trkpt lat="42.75596" lon="1.59689">
        <ele>1681</ele>
        <time>2020-01-05T13:04:42.000Z</time>
      </trkpt>
      <trkpt lat="42.75597" lon="1.59689">
        <ele>1681</ele>
        <time>2020-01-05T13:04:44.000Z</time>
      </trkpt>
      <trkpt lat="42.75597" lon="1.59688">
        <ele>1681</ele>
        <time>2020-01-05T13:04:46.000Z</time>
      </trkpt>
      <trkpt lat="42.75597" lon="1.59687">
        <ele>1681</ele>
        <time>2020-01-05T13:04:48.000Z</time>
      </trkpt>
      <trkpt lat="42.75598" lon="1.59685">
        <ele>1680</ele>
        <time>2020-01-05T13:04:50.000Z</time>
      </trkpt>
      <trkpt lat="42.75599" lon="1.59685">
        <ele>1680</ele>
        <time>2020-01-05T13:04:52.000Z</time>
      </trkpt>
      <trkpt lat="42.756" lon="1.59683">
        <ele>1679</ele>
        <time>2020-01-05T13:04:54.000Z</time>
      </trkpt>
      <trkpt lat="42.756" lon="1.59682">
        <ele>1679</ele>
        <time>2020-01-05T13:04:56.000Z</time>
      </trkpt>
      <trkpt lat="42.756" lon="1.5968">
        <ele>1678</ele>
        <time>2020-01-05T13:04:58.000Z</time>
      </trkpt>
      <trkpt lat="42.75601" lon="1.59679">
        <ele>1678</ele>
        <time>2020-01-05T13:05:00.000Z</time>
      </trkpt>
      <trkpt lat="42.75602" lon="1.59677">
        <ele>1677</ele>
        <time>2020-01-05T13:05:02.000Z</time>
      </trkpt>
      <trkpt lat="42.75603" lon="1.59676">
        <ele>1677</ele>
        <time>2020-01-05T13:05:04.000Z</time>
      </trkpt>
      <trkpt lat="42.75603" lon="1.59674">
        <ele>1676</ele>
        <time>2020-01-05T13:05:06.000Z</time>
      </trkpt>
      <trkpt lat="42.75604" lon="1.59672">
        <ele>1676</ele>
        <time>2020-01-05T13:05:08.000Z</time>
      </trkpt>
      <trkpt lat="42.75605" lon="1.59671">
        <ele>1675</ele>
        <time>2020-01-05T13:05:10.000Z</time>
      </trkpt>
      <trkpt lat="42.75606" lon="1.5967">
        <ele>1675</ele>
        <time>2020-01-05T13:05:12.000Z</time>
      </trkpt>
      <trkpt lat="42.75607" lon="1.59668">
        <ele>1674</ele>
        <time>2020-01-05T13:05:14.000Z</time>
      </trkpt>
      <trkpt lat="42.75608" lon="1.59667">
        <ele>1674</ele>
        <time>2020-01-05T13:05:16.000Z</time>
      </trkpt>
      <trkpt lat="42.75609" lon="1.59665">
        <ele>1673</ele>
        <time>2020-01-05T13:05:18.000Z</time>
      </trkpt>
      <trkpt lat="42.7561" lon="1.59664">
        <ele>1673</ele>
        <time>2020-01-05T13:05:20.000Z</time>
      </trkpt>
      <trkpt lat="42.7561" lon="1.59663">
        <ele>1673</ele>
        <time>2020-01-05T13:05:22.000Z</time>
      </trkpt>
      <trkpt lat="42.75611" lon="1.59661">
        <ele>1673</ele>
        <time>2020-01-05T13:05:24.000Z</time>
      </trkpt>
      <trkpt lat="42.75613" lon="1.5966">
        <ele>1672</ele>
        <time>2020-01-05T13:05:26.000Z</time>
      </trkpt>
      <trkpt lat="42.75614" lon="1.59658">
        <ele>1672</ele>
        <time>2020-01-05T13:05:28.000Z</time>
      </trkpt>
      <trkpt lat="42.75614" lon="1.59656">
        <ele>1671</ele>
        <time>2020-01-05T13:05:30.000Z</time>
      </trkpt>
      <trkpt lat="42.75615" lon="1.59654">
        <ele>1671</ele>
        <time>2020-01-05T13:05:32.000Z</time>
      </trkpt>
      <trkpt lat="42.75616" lon="1.59652">
        <ele>1671</ele>
        <time>2020-01-05T13:05:34.000Z</time>
      </trkpt>
      <trkpt lat="42.75617" lon="1.5965">
        <ele>1670</ele>
        <time>2020-01-05T13:05:36.000Z</time>
      </trkpt>
      <trkpt lat="42.75617" lon="1.59649">
        <ele>1670</ele>
        <time>2020-01-05T13:05:38.000Z</time>
      </trkpt>
      <trkpt lat="42.75618" lon="1.59648">
        <ele>1669</ele>
        <time>2020-01-05T13:05:40.000Z</time>
      </trkpt>
      <trkpt lat="42.75619" lon="1.59646">
        <ele>1669</ele>
        <time>2020-01-05T13:05:42.000Z</time>
      </trkpt>
      <trkpt lat="42.7562" lon="1.59645">
        <ele>1668</ele>
        <time>2020-01-05T13:05:44.000Z</time>
      </trkpt>
      <trkpt lat="42.75621" lon="1.59643">
        <ele>1668</ele>
        <time>2020-01-05T13:05:46.000Z</time>
      </trkpt>
      <trkpt lat="42.75622" lon="1.59641">
        <ele>1667</ele>
        <time>2020-01-05T13:05:48.000Z</time>
      </trkpt>
      <trkpt lat="42.75623" lon="1.59639">
        <ele>1666</ele>
        <time>2020-01-05T13:05:50.000Z</time>
      </trkpt>
      <trkpt lat="42.75624" lon="1.59637">
        <ele>1665</ele>
        <time>2020-01-05T13:05:52.000Z</time>
      </trkpt>
      <trkpt lat="42.75625" lon="1.59635">
        <ele>1665</ele>
        <time>2020-01-05T13:05:54.000Z</time>
      </trkpt>
      <trkpt lat="42.75626" lon="1.59633">
        <ele>1664</ele>
        <time>2020-01-05T13:05:56.000Z</time>
      </trkpt>
      <trkpt lat="42.75627" lon="1.59632">
        <ele>1664</ele>
        <time>2020-01-05T13:05:58.000Z</time>
      </trkpt>
      <trkpt lat="42.75628" lon="1.59631">
        <ele>1663</ele>
        <time>2020-01-05T13:06:00.000Z</time>
      </trkpt>
      <trkpt lat="42.75629" lon="1.59629">
        <ele>1663</ele>
        <time>2020-01-05T13:06:02.000Z</time>
      </trkpt>
      <trkpt lat="42.7563" lon="1.59627">
        <ele>1662</ele>
        <time>2020-01-05T13:06:04.000Z</time>
      </trkpt>
      <trkpt lat="42.75631" lon="1.59626">
        <ele>1662</ele>
        <time>2020-01-05T13:06:06.000Z</time>
      </trkpt>
      <trkpt lat="42.75632" lon="1.59625">
        <ele>1661</ele>
        <time>2020-01-05T13:06:08.000Z</time>
      </trkpt>
      <trkpt lat="42.75632" lon="1.59623">
        <ele>1661</ele>
        <time>2020-01-05T13:06:10.000Z</time>
      </trkpt>
      <trkpt lat="42.75632" lon="1.59621">
        <ele>1660</ele>
        <time>2020-01-05T13:06:12.000Z</time>
      </trkpt>
      <trkpt lat="42.75632" lon="1.59618">
        <ele>1660</ele>
        <time>2020-01-05T13:06:14.000Z</time>
      </trkpt>
      <trkpt lat="42.75632" lon="1.59616">
        <ele>1659</ele>
        <time>2020-01-05T13:06:16.000Z</time>
      </trkpt>
      <trkpt lat="42.75633" lon="1.59613">
        <ele>1659</ele>
        <time>2020-01-05T13:06:18.000Z</time>
      </trkpt>
      <trkpt lat="42.75634" lon="1.59611">
        <ele>1658</ele>
        <time>2020-01-05T13:06:20.000Z</time>
      </trkpt>
      <trkpt lat="42.75635" lon="1.5961">
        <ele>1658</ele>
        <time>2020-01-05T13:06:22.000Z</time>
      </trkpt>
      <trkpt lat="42.75636" lon="1.59607">
        <ele>1658</ele>
        <time>2020-01-05T13:06:24.000Z</time>
      </trkpt>
      <trkpt lat="42.75637" lon="1.59605">
        <ele>1658</ele>
        <time>2020-01-05T13:06:26.000Z</time>
      </trkpt>
      <trkpt lat="42.75638" lon="1.59603">
        <ele>1657</ele>
        <time>2020-01-05T13:06:28.000Z</time>
      </trkpt>
      <trkpt lat="42.75639" lon="1.596">
        <ele>1657</ele>
        <time>2020-01-05T13:06:30.000Z</time>
      </trkpt>
      <trkpt lat="42.7564" lon="1.59597">
        <ele>1657</ele>
        <time>2020-01-05T13:06:32.000Z</time>
      </trkpt>
      <trkpt lat="42.75641" lon="1.59594">
        <ele>1657</ele>
        <time>2020-01-05T13:06:34.000Z</time>
      </trkpt>
      <trkpt lat="42.75642" lon="1.59591">
        <ele>1656</ele>
        <time>2020-01-05T13:06:36.000Z</time>
      </trkpt>
      <trkpt lat="42.75643" lon="1.59588">
        <ele>1656</ele>
        <time>2020-01-05T13:06:38.000Z</time>
      </trkpt>
      <trkpt lat="42.75644" lon="1.59585">
        <ele>1656</ele>
        <time>2020-01-05T13:06:40.000Z</time>
      </trkpt>
      <trkpt lat="42.75645" lon="1.59583">
        <ele>1656</ele>
        <time>2020-01-05T13:06:42.000Z</time>
      </trkpt>
      <trkpt lat="42.75646" lon="1.59581">
        <ele>1656</ele>
        <time>2020-01-05T13:06:44.000Z</time>
      </trkpt>
      <trkpt lat="42.75647" lon="1.59579">
        <ele>1655</ele>
        <time>2020-01-05T13:06:46.000Z</time>
      </trkpt>
      <trkpt lat="42.75648" lon="1.59576">
        <ele>1655</ele>
        <time>2020-01-05T13:06:48.000Z</time>
      </trkpt>
      <trkpt lat="42.75649" lon="1.59573">
        <ele>1655</ele>
        <time>2020-01-05T13:06:50.000Z</time>
      </trkpt>
      <trkpt lat="42.7565" lon="1.5957">
        <ele>1655</ele>
        <time>2020-01-05T13:06:52.000Z</time>
      </trkpt>
      <trkpt lat="42.75651" lon="1.59567">
        <ele>1654</ele>
        <time>2020-01-05T13:06:54.000Z</time>
      </trkpt>
      <trkpt lat="42.75652" lon="1.59565">
        <ele>1654</ele>
        <time>2020-01-05T13:06:56.000Z</time>
      </trkpt>
      <trkpt lat="42.75653" lon="1.59562">
        <ele>1653</ele>
        <time>2020-01-05T13:06:58.000Z</time>
      </trkpt>
      <trkpt lat="42.75654" lon="1.59559">
        <ele>1652</ele>
        <time>2020-01-05T13:07:00.000Z</time>
      </trkpt>
      <trkpt lat="42.75655" lon="1.59556">
        <ele>1651</ele>
        <time>2020-01-05T13:07:02.000Z</time>
      </trkpt>
      <trkpt lat="42.75657" lon="1.59553">
        <ele>1651</ele>
        <time>2020-01-05T13:07:04.000Z</time>
      </trkpt>
      <trkpt lat="42.75658" lon="1.5955">
        <ele>1651</ele>
        <time>2020-01-05T13:07:06.000Z</time>
      </trkpt>
      <trkpt lat="42.75659" lon="1.59547">
        <ele>1650</ele>
        <time>2020-01-05T13:07:08.000Z</time>
      </trkpt>
      <trkpt lat="42.7566" lon="1.59543">
        <ele>1650</ele>
        <time>2020-01-05T13:07:10.000Z</time>
      </trkpt>
      <trkpt lat="42.75661" lon="1.5954">
        <ele>1650</ele>
        <time>2020-01-05T13:07:12.000Z</time>
      </trkpt>
      <trkpt lat="42.75662" lon="1.59537">
        <ele>1650</ele>
        <time>2020-01-05T13:07:14.000Z</time>
      </trkpt>
      <trkpt lat="42.75663" lon="1.59534">
        <ele>1649</ele>
        <time>2020-01-05T13:07:16.000Z</time>
      </trkpt>
      <trkpt lat="42.75664" lon="1.5953">
        <ele>1649</ele>
        <time>2020-01-05T13:07:18.000Z</time>
      </trkpt>
      <trkpt lat="42.75665" lon="1.59527">
        <ele>1649</ele>
        <time>2020-01-05T13:07:20.000Z</time>
      </trkpt>
      <trkpt lat="42.75666" lon="1.59525">
        <ele>1649</ele>
        <time>2020-01-05T13:07:22.000Z</time>
      </trkpt>
      <trkpt lat="42.75667" lon="1.59523">
        <ele>1648</ele>
        <time>2020-01-05T13:07:24.000Z</time>
      </trkpt>
      <trkpt lat="42.75668" lon="1.5952">
        <ele>1648</ele>
        <time>2020-01-05T13:07:26.000Z</time>
      </trkpt>
      <trkpt lat="42.75669" lon="1.59519">
        <ele>1648</ele>
        <time>2020-01-05T13:07:28.000Z</time>
      </trkpt>
      <trkpt lat="42.7567" lon="1.59517">
        <ele>1648</ele>
        <time>2020-01-05T13:07:30.000Z</time>
      </trkpt>
      <trkpt lat="42.75671" lon="1.59516">
        <ele>1648</ele>
        <time>2020-01-05T13:07:32.000Z</time>
      </trkpt>
      <trkpt lat="42.75671" lon="1.59514">
        <ele>1648</ele>
        <time>2020-01-05T13:07:34.000Z</time>
      </trkpt>
      <trkpt lat="42.75673" lon="1.59512">
        <ele>1647</ele>
        <time>2020-01-05T13:07:36.000Z</time>
      </trkpt>
      <trkpt lat="42.75674" lon="1.59511">
        <ele>1646</ele>
        <time>2020-01-05T13:07:38.000Z</time>
      </trkpt>
      <trkpt lat="42.75675" lon="1.5951">
        <ele>1645</ele>
        <time>2020-01-05T13:07:40.000Z</time>
      </trkpt>
      <trkpt lat="42.75676" lon="1.59508">
        <ele>1645</ele>
        <time>2020-01-05T13:07:42.000Z</time>
      </trkpt>
      <trkpt lat="42.75678" lon="1.59507">
        <ele>1644</ele>
        <time>2020-01-05T13:07:44.000Z</time>
      </trkpt>
      <trkpt lat="42.75679" lon="1.59506">
        <ele>1644</ele>
        <time>2020-01-05T13:07:46.000Z</time>
      </trkpt>
      <trkpt lat="42.7568" lon="1.59504">
        <ele>1643</ele>
        <time>2020-01-05T13:07:48.000Z</time>
      </trkpt>
      <trkpt lat="42.75681" lon="1.59503">
        <ele>1642</ele>
        <time>2020-01-05T13:07:50.000Z</time>
      </trkpt>
      <trkpt lat="42.75683" lon="1.59502">
        <ele>1642</ele>
        <time>2020-01-05T13:07:52.000Z</time>
      </trkpt>
      <trkpt lat="42.75684" lon="1.59501">
        <ele>1641</ele>
        <time>2020-01-05T13:07:54.000Z</time>
      </trkpt>
      <trkpt lat="42.75685" lon="1.59499">
        <ele>1640</ele>
        <time>2020-01-05T13:07:56.000Z</time>
      </trkpt>
      <trkpt lat="42.75687" lon="1.59497">
        <ele>1640</ele>
        <time>2020-01-05T13:07:58.000Z</time>
      </trkpt>
      <trkpt lat="42.75688" lon="1.59496">
        <ele>1640</ele>
        <time>2020-01-05T13:08:00.000Z</time>
      </trkpt>
      <trkpt lat="42.75688" lon="1.59494">
        <ele>1640</ele>
        <time>2020-01-05T13:08:02.000Z</time>
      </trkpt>
      <trkpt lat="42.75689" lon="1.59492">
        <ele>1640</ele>
        <time>2020-01-05T13:08:04.000Z</time>
      </trkpt>
      <trkpt lat="42.75691" lon="1.5949">
        <ele>1640</ele>
        <time>2020-01-05T13:08:06.000Z</time>
      </trkpt>
      <trkpt lat="42.75692" lon="1.59486">
        <ele>1641</ele>
        <time>2020-01-05T13:08:08.000Z</time>
      </trkpt>
      <trkpt lat="42.75694" lon="1.59484">
        <ele>1641</ele>
        <time>2020-01-05T13:08:10.000Z</time>
      </trkpt>
      <trkpt lat="42.75695" lon="1.59482">
        <ele>1640</ele>
        <time>2020-01-05T13:08:12.000Z</time>
      </trkpt>
      <trkpt lat="42.75696" lon="1.59479">
        <ele>1639</ele>
        <time>2020-01-05T13:08:14.000Z</time>
      </trkpt>
      <trkpt lat="42.75696" lon="1.59476">
        <ele>1639</ele>
        <time>2020-01-05T13:08:16.000Z</time>
      </trkpt>
      <trkpt lat="42.75697" lon="1.59473">
        <ele>1638</ele>
        <time>2020-01-05T13:08:18.000Z</time>
      </trkpt>
      <trkpt lat="42.75699" lon="1.59472">
        <ele>1638</ele>
        <time>2020-01-05T13:08:20.000Z</time>
      </trkpt>
      <trkpt lat="42.75701" lon="1.59469">
        <ele>1637</ele>
        <time>2020-01-05T13:08:22.000Z</time>
      </trkpt>
      <trkpt lat="42.75702" lon="1.59466">
        <ele>1637</ele>
        <time>2020-01-05T13:08:24.000Z</time>
      </trkpt>
      <trkpt lat="42.75703" lon="1.59463">
        <ele>1636</ele>
        <time>2020-01-05T13:08:26.000Z</time>
      </trkpt>
      <trkpt lat="42.75705" lon="1.5946">
        <ele>1635</ele>
        <time>2020-01-05T13:08:28.000Z</time>
      </trkpt>
      <trkpt lat="42.75706" lon="1.59457">
        <ele>1635</ele>
        <time>2020-01-05T13:08:30.000Z</time>
      </trkpt>
      <trkpt lat="42.75708" lon="1.59454">
        <ele>1634</ele>
        <time>2020-01-05T13:08:32.000Z</time>
      </trkpt>
      <trkpt lat="42.75709" lon="1.59451">
        <ele>1633</ele>
        <time>2020-01-05T13:08:34.000Z</time>
      </trkpt>
      <trkpt lat="42.7571" lon="1.59447">
        <ele>1633</ele>
        <time>2020-01-05T13:08:36.000Z</time>
      </trkpt>
      <trkpt lat="42.75711" lon="1.59443">
        <ele>1632</ele>
        <time>2020-01-05T13:08:38.000Z</time>
      </trkpt>
      <trkpt lat="42.75712" lon="1.5944">
        <ele>1632</ele>
        <time>2020-01-05T13:08:40.000Z</time>
      </trkpt>
      <trkpt lat="42.75714" lon="1.59437">
        <ele>1632</ele>
        <time>2020-01-05T13:08:42.000Z</time>
      </trkpt>
      <trkpt lat="42.75716" lon="1.59434">
        <ele>1633</ele>
        <time>2020-01-05T13:08:44.000Z</time>
      </trkpt>
      <trkpt lat="42.75717" lon="1.59431">
        <ele>1633</ele>
        <time>2020-01-05T13:08:46.000Z</time>
      </trkpt>
      <trkpt lat="42.75718" lon="1.59429">
        <ele>1634</ele>
        <time>2020-01-05T13:08:48.000Z</time>
      </trkpt>
      <trkpt lat="42.7572" lon="1.59426">
        <ele>1634</ele>
        <time>2020-01-05T13:08:50.000Z</time>
      </trkpt>
      <trkpt lat="42.75721" lon="1.59423">
        <ele>1634</ele>
        <time>2020-01-05T13:08:52.000Z</time>
      </trkpt>
      <trkpt lat="42.75722" lon="1.5942">
        <ele>1635</ele>
        <time>2020-01-05T13:08:54.000Z</time>
      </trkpt>
      <trkpt lat="42.75723" lon="1.59418">
        <ele>1635</ele>
        <time>2020-01-05T13:08:56.000Z</time>
      </trkpt>
      <trkpt lat="42.75725" lon="1.59415">
        <ele>1636</ele>
        <time>2020-01-05T13:08:58.000Z</time>
      </trkpt>
      <trkpt lat="42.75726" lon="1.59412">
        <ele>1636</ele>
        <time>2020-01-05T13:09:00.000Z</time>
      </trkpt>
      <trkpt lat="42.75728" lon="1.59409">
        <ele>1636</ele>
        <time>2020-01-05T13:09:02.000Z</time>
      </trkpt>
      <trkpt lat="42.75729" lon="1.59407">
        <ele>1637</ele>
        <time>2020-01-05T13:09:04.000Z</time>
      </trkpt>
      <trkpt lat="42.75731" lon="1.59405">
        <ele>1637</ele>
        <time>2020-01-05T13:09:06.000Z</time>
      </trkpt>
      <trkpt lat="42.75732" lon="1.59403">
        <ele>1638</ele>
        <time>2020-01-05T13:09:08.000Z</time>
      </trkpt>
      <trkpt lat="42.75734" lon="1.59401">
        <ele>1638</ele>
        <time>2020-01-05T13:09:10.000Z</time>
      </trkpt>
      <trkpt lat="42.75736" lon="1.59398">
        <ele>1637</ele>
        <time>2020-01-05T13:09:12.000Z</time>
      </trkpt>
      <trkpt lat="42.75738" lon="1.59395">
        <ele>1637</ele>
        <time>2020-01-05T13:09:14.000Z</time>
      </trkpt>
      <trkpt lat="42.7574" lon="1.59393">
        <ele>1637</ele>
        <time>2020-01-05T13:09:16.000Z</time>
      </trkpt>
      <trkpt lat="42.75741" lon="1.59391">
        <ele>1636</ele>
        <time>2020-01-05T13:09:18.000Z</time>
      </trkpt>
      <trkpt lat="42.75743" lon="1.59389">
        <ele>1636</ele>
        <time>2020-01-05T13:09:20.000Z</time>
      </trkpt>
      <trkpt lat="42.75745" lon="1.59386">
        <ele>1636</ele>
        <time>2020-01-05T13:09:22.000Z</time>
      </trkpt>
      <trkpt lat="42.75746" lon="1.59383">
        <ele>1636</ele>
        <time>2020-01-05T13:09:24.000Z</time>
      </trkpt>
      <trkpt lat="42.75748" lon="1.59381">
        <ele>1636</ele>
        <time>2020-01-05T13:09:26.000Z</time>
      </trkpt>
      <trkpt lat="42.75749" lon="1.5938">
        <ele>1637</ele>
        <time>2020-01-05T13:09:28.000Z</time>
      </trkpt>
      <trkpt lat="42.75751" lon="1.59378">
        <ele>1637</ele>
        <time>2020-01-05T13:09:30.000Z</time>
      </trkpt>
      <trkpt lat="42.75753" lon="1.59375">
        <ele>1637</ele>
        <time>2020-01-05T13:09:32.000Z</time>
      </trkpt>
      <trkpt lat="42.75754" lon="1.59373">
        <ele>1637</ele>
        <time>2020-01-05T13:09:34.000Z</time>
      </trkpt>
      <trkpt lat="42.75755" lon="1.5937">
        <ele>1637</ele>
        <time>2020-01-05T13:09:36.000Z</time>
      </trkpt>
      <trkpt lat="42.75756" lon="1.59367">
        <ele>1636</ele>
        <time>2020-01-05T13:09:38.000Z</time>
      </trkpt>
      <trkpt lat="42.75757" lon="1.59364">
        <ele>1636</ele>
        <time>2020-01-05T13:09:40.000Z</time>
      </trkpt>
      <trkpt lat="42.75758" lon="1.59361">
        <ele>1635</ele>
        <time>2020-01-05T13:09:42.000Z</time>
      </trkpt>
      <trkpt lat="42.7576" lon="1.59359">
        <ele>1635</ele>
        <time>2020-01-05T13:09:44.000Z</time>
      </trkpt>
      <trkpt lat="42.75761" lon="1.59356">
        <ele>1634</ele>
        <time>2020-01-05T13:09:46.000Z</time>
      </trkpt>
      <trkpt lat="42.75762" lon="1.59353">
        <ele>1634</ele>
        <time>2020-01-05T13:09:48.000Z</time>
      </trkpt>
      <trkpt lat="42.75764" lon="1.59351">
        <ele>1634</ele>
        <time>2020-01-05T13:09:50.000Z</time>
      </trkpt>
      <trkpt lat="42.75765" lon="1.59348">
        <ele>1633</ele>
        <time>2020-01-05T13:09:52.000Z</time>
      </trkpt>
      <trkpt lat="42.75767" lon="1.59346">
        <ele>1632</ele>
        <time>2020-01-05T13:09:54.000Z</time>
      </trkpt>
      <trkpt lat="42.75769" lon="1.59343">
        <ele>1632</ele>
        <time>2020-01-05T13:09:56.000Z</time>
      </trkpt>
      <trkpt lat="42.75771" lon="1.59341">
        <ele>1631</ele>
        <time>2020-01-05T13:09:58.000Z</time>
      </trkpt>
      <trkpt lat="42.75772" lon="1.59338">
        <ele>1631</ele>
        <time>2020-01-05T13:10:00.000Z</time>
      </trkpt>
      <trkpt lat="42.75773" lon="1.59336">
        <ele>1631</ele>
        <time>2020-01-05T13:10:02.000Z</time>
      </trkpt>
      <trkpt lat="42.75775" lon="1.59333">
        <ele>1631</ele>
        <time>2020-01-05T13:10:04.000Z</time>
      </trkpt>
      <trkpt lat="42.75777" lon="1.59331">
        <ele>1631</ele>
        <time>2020-01-05T13:10:06.000Z</time>
      </trkpt>
      <trkpt lat="42.75778" lon="1.59329">
        <ele>1631</ele>
        <time>2020-01-05T13:10:08.000Z</time>
      </trkpt>
      <trkpt lat="42.7578" lon="1.59327">
        <ele>1631</ele>
        <time>2020-01-05T13:10:10.000Z</time>
      </trkpt>
      <trkpt lat="42.75781" lon="1.59324">
        <ele>1631</ele>
        <time>2020-01-05T13:10:12.000Z</time>
      </trkpt>
      <trkpt lat="42.75783" lon="1.59322">
        <ele>1631</ele>
        <time>2020-01-05T13:10:14.000Z</time>
      </trkpt>
      <trkpt lat="42.75785" lon="1.5932">
        <ele>1630</ele>
        <time>2020-01-05T13:10:16.000Z</time>
      </trkpt>
      <trkpt lat="42.75786" lon="1.59317">
        <ele>1630</ele>
        <time>2020-01-05T13:10:18.000Z</time>
      </trkpt>
      <trkpt lat="42.75788" lon="1.59315">
        <ele>1630</ele>
        <time>2020-01-05T13:10:20.000Z</time>
      </trkpt>
      <trkpt lat="42.75789" lon="1.59312">
        <ele>1629</ele>
        <time>2020-01-05T13:10:22.000Z</time>
      </trkpt>
      <trkpt lat="42.7579" lon="1.5931">
        <ele>1628</ele>
        <time>2020-01-05T13:10:24.000Z</time>
      </trkpt>
      <trkpt lat="42.75792" lon="1.59307">
        <ele>1628</ele>
        <time>2020-01-05T13:10:26.000Z</time>
      </trkpt>
      <trkpt lat="42.75793" lon="1.59304">
        <ele>1627</ele>
        <time>2020-01-05T13:10:28.000Z</time>
      </trkpt>
      <trkpt lat="42.75795" lon="1.59302">
        <ele>1627</ele>
        <time>2020-01-05T13:10:30.000Z</time>
      </trkpt>
      <trkpt lat="42.75796" lon="1.59299">
        <ele>1626</ele>
        <time>2020-01-05T13:10:32.000Z</time>
      </trkpt>
      <trkpt lat="42.75798" lon="1.59297">
        <ele>1625</ele>
        <time>2020-01-05T13:10:34.000Z</time>
      </trkpt>
      <trkpt lat="42.75799" lon="1.59295">
        <ele>1625</ele>
        <time>2020-01-05T13:10:36.000Z</time>
      </trkpt>
      <trkpt lat="42.75801" lon="1.59293">
        <ele>1624</ele>
        <time>2020-01-05T13:10:38.000Z</time>
      </trkpt>
      <trkpt lat="42.75802" lon="1.59291">
        <ele>1624</ele>
        <time>2020-01-05T13:10:40.000Z</time>
      </trkpt>
      <trkpt lat="42.75803" lon="1.59288">
        <ele>1623</ele>
        <time>2020-01-05T13:10:42.000Z</time>
      </trkpt>
      <trkpt lat="42.75804" lon="1.59285">
        <ele>1623</ele>
        <time>2020-01-05T13:10:44.000Z</time>
      </trkpt>
      <trkpt lat="42.75806" lon="1.59284">
        <ele>1623</ele>
        <time>2020-01-05T13:10:46.000Z</time>
      </trkpt>
      <trkpt lat="42.75807" lon="1.59282">
        <ele>1622</ele>
        <time>2020-01-05T13:10:48.000Z</time>
      </trkpt>
      <trkpt lat="42.75809" lon="1.5928">
        <ele>1622</ele>
        <time>2020-01-05T13:10:50.000Z</time>
      </trkpt>
      <trkpt lat="42.75811" lon="1.59278">
        <ele>1622</ele>
        <time>2020-01-05T13:10:52.000Z</time>
      </trkpt>
      <trkpt lat="42.75812" lon="1.59277">
        <ele>1622</ele>
        <time>2020-01-05T13:10:54.000Z</time>
      </trkpt>
      <trkpt lat="42.75814" lon="1.59275">
        <ele>1622</ele>
        <time>2020-01-05T13:10:56.000Z</time>
      </trkpt>
      <trkpt lat="42.75816" lon="1.59273">
        <ele>1622</ele>
        <time>2020-01-05T13:10:58.000Z</time>
      </trkpt>
      <trkpt lat="42.75817" lon="1.59271">
        <ele>1621</ele>
        <time>2020-01-05T13:11:00.000Z</time>
      </trkpt>
      <trkpt lat="42.75819" lon="1.59269">
        <ele>1621</ele>
        <time>2020-01-05T13:11:02.000Z</time>
      </trkpt>
      <trkpt lat="42.75821" lon="1.59268">
        <ele>1621</ele>
        <time>2020-01-05T13:11:04.000Z</time>
      </trkpt>
      <trkpt lat="42.75823" lon="1.59266">
        <ele>1621</ele>
        <time>2020-01-05T13:11:06.000Z</time>
      </trkpt>
      <trkpt lat="42.75824" lon="1.59264">
        <ele>1621</ele>
        <time>2020-01-05T13:11:08.000Z</time>
      </trkpt>
      <trkpt lat="42.75825" lon="1.59262">
        <ele>1621</ele>
        <time>2020-01-05T13:11:10.000Z</time>
      </trkpt>
      <trkpt lat="42.75827" lon="1.59261">
        <ele>1620</ele>
        <time>2020-01-05T13:11:12.000Z</time>
      </trkpt>
      <trkpt lat="42.75828" lon="1.59259">
        <ele>1620</ele>
        <time>2020-01-05T13:11:14.000Z</time>
      </trkpt>
      <trkpt lat="42.7583" lon="1.59258">
        <ele>1620</ele>
        <time>2020-01-05T13:11:16.000Z</time>
      </trkpt>
      <trkpt lat="42.75832" lon="1.59257">
        <ele>1620</ele>
        <time>2020-01-05T13:11:18.000Z</time>
      </trkpt>
      <trkpt lat="42.75834" lon="1.59256">
        <ele>1620</ele>
        <time>2020-01-05T13:11:20.000Z</time>
      </trkpt>
      <trkpt lat="42.75836" lon="1.59255">
        <ele>1620</ele>
        <time>2020-01-05T13:11:22.000Z</time>
      </trkpt>
      <trkpt lat="42.75838" lon="1.59253">
        <ele>1620</ele>
        <time>2020-01-05T13:11:24.000Z</time>
      </trkpt>
      <trkpt lat="42.75839" lon="1.59251">
        <ele>1619</ele>
        <time>2020-01-05T13:11:26.000Z</time>
      </trkpt>
      <trkpt lat="42.7584" lon="1.59248">
        <ele>1618</ele>
        <time>2020-01-05T13:11:28.000Z</time>
      </trkpt>
      <trkpt lat="42.75842" lon="1.59247">
        <ele>1618</ele>
        <time>2020-01-05T13:11:30.000Z</time>
      </trkpt>
      <trkpt lat="42.75844" lon="1.59246">
        <ele>1617</ele>
        <time>2020-01-05T13:11:32.000Z</time>
      </trkpt>
      <trkpt lat="42.75845" lon="1.59244">
        <ele>1617</ele>
        <time>2020-01-05T13:11:34.000Z</time>
      </trkpt>
      <trkpt lat="42.75846" lon="1.59243">
        <ele>1616</ele>
        <time>2020-01-05T13:11:36.000Z</time>
      </trkpt>
      <trkpt lat="42.75848" lon="1.59241">
        <ele>1616</ele>
        <time>2020-01-05T13:11:38.000Z</time>
      </trkpt>
      <trkpt lat="42.75849" lon="1.59239">
        <ele>1615</ele>
        <time>2020-01-05T13:11:40.000Z</time>
      </trkpt>
      <trkpt lat="42.7585" lon="1.59238">
        <ele>1615</ele>
        <time>2020-01-05T13:11:42.000Z</time>
      </trkpt>
      <trkpt lat="42.7585" lon="1.59238">
        <ele>1615</ele>
        <time>2020-01-05T13:11:44.000Z</time>
      </trkpt>
      <trkpt lat="42.7585" lon="1.59238">
        <ele>1615</ele>
        <time>2020-01-05T13:11:46.000Z</time>
      </trkpt>
      <trkpt lat="42.7585" lon="1.59238">
        <ele>1615</ele>
        <time>2020-01-05T13:11:48.000Z</time>
      </trkpt>
      <trkpt lat="42.7585" lon="1.59238">
        <ele>1615</ele>
        <time>2020-01-05T13:11:50.000Z</time>
      </trkpt>
      <trkpt lat="42.7585" lon="1.59238">
        <ele>1615</ele>
        <time>2020-01-05T13:11:52.000Z</time>
      </trkpt>
      <trkpt lat="42.7585" lon="1.59238">
        <ele>1615</ele>
        <time>2020-01-05T13:11:54.000Z</time>
      </trkpt>
      <trkpt lat="42.75849" lon="1.59238">
        <ele>1615</ele>
        <time>2020-01-05T13:11:56.000Z</time>
      </trkpt>
      <trkpt lat="42.75849" lon="1.59238">
        <ele>1615</ele>
        <time>2020-01-05T13:11:58.000Z</time>
      </trkpt>
      <trkpt lat="42.75849" lon="1.59238">
        <ele>1615</ele>
        <time>2020-01-05T13:12:00.000Z</time>
      </trkpt>
      <trkpt lat="42.75849" lon="1.59238">
        <ele>1615</ele>
        <time>2020-01-05T13:12:02.000Z</time>
      </trkpt>
      <trkpt lat="42.75849" lon="1.59238">
        <ele>1615</ele>
        <time>2020-01-05T13:12:04.000Z</time>
      </trkpt>
      <trkpt lat="42.75851" lon="1.59238">
        <ele>1615</ele>
        <time>2020-01-05T13:12:06.000Z</time>
      </trkpt>
      <trkpt lat="42.75853" lon="1.59236">
        <ele>1614</ele>
        <time>2020-01-05T13:12:08.000Z</time>
      </trkpt>
      <trkpt lat="42.75855" lon="1.59235">
        <ele>1614</ele>
        <time>2020-01-05T13:12:10.000Z</time>
      </trkpt>
      <trkpt lat="42.75856" lon="1.59234">
        <ele>1613</ele>
        <time>2020-01-05T13:12:12.000Z</time>
      </trkpt>
      <trkpt lat="42.75858" lon="1.59232">
        <ele>1612</ele>
        <time>2020-01-05T13:12:14.000Z</time>
      </trkpt>
      <trkpt lat="42.7586" lon="1.5923">
        <ele>1611</ele>
        <time>2020-01-05T13:12:16.000Z</time>
      </trkpt>
      <trkpt lat="42.75861" lon="1.59228">
        <ele>1611</ele>
        <time>2020-01-05T13:12:18.000Z</time>
      </trkpt>
      <trkpt lat="42.75863" lon="1.59227">
        <ele>1610</ele>
        <time>2020-01-05T13:12:20.000Z</time>
      </trkpt>
      <trkpt lat="42.75865" lon="1.59226">
        <ele>1609</ele>
        <time>2020-01-05T13:12:22.000Z</time>
      </trkpt>
      <trkpt lat="42.75866" lon="1.59224">
        <ele>1609</ele>
        <time>2020-01-05T13:12:24.000Z</time>
      </trkpt>
      <trkpt lat="42.75868" lon="1.59223">
        <ele>1608</ele>
        <time>2020-01-05T13:12:26.000Z</time>
      </trkpt>
      <trkpt lat="42.75869" lon="1.59221">
        <ele>1607</ele>
        <time>2020-01-05T13:12:28.000Z</time>
      </trkpt>
      <trkpt lat="42.7587" lon="1.59219">
        <ele>1606</ele>
        <time>2020-01-05T13:12:30.000Z</time>
      </trkpt>
      <trkpt lat="42.75872" lon="1.59217">
        <ele>1606</ele>
        <time>2020-01-05T13:12:32.000Z</time>
      </trkpt>
      <trkpt lat="42.75873" lon="1.59216">
        <ele>1605</ele>
        <time>2020-01-05T13:12:34.000Z</time>
      </trkpt>
      <trkpt lat="42.75874" lon="1.59214">
        <ele>1604</ele>
        <time>2020-01-05T13:12:36.000Z</time>
      </trkpt>
      <trkpt lat="42.75876" lon="1.59212">
        <ele>1604</ele>
        <time>2020-01-05T13:12:38.000Z</time>
      </trkpt>
      <trkpt lat="42.75877" lon="1.59211">
        <ele>1603</ele>
        <time>2020-01-05T13:12:40.000Z</time>
      </trkpt>
      <trkpt lat="42.75879" lon="1.59209">
        <ele>1602</ele>
        <time>2020-01-05T13:12:42.000Z</time>
      </trkpt>
      <trkpt lat="42.75879" lon="1.59208">
        <ele>1602</ele>
        <time>2020-01-05T13:12:44.000Z</time>
      </trkpt>
      <trkpt lat="42.7588" lon="1.59207">
        <ele>1602</ele>
        <time>2020-01-05T13:12:46.000Z</time>
      </trkpt>
      <trkpt lat="42.75881" lon="1.59206">
        <ele>1601</ele>
        <time>2020-01-05T13:12:48.000Z</time>
      </trkpt>
      <trkpt lat="42.75882" lon="1.59204">
        <ele>1600</ele>
        <time>2020-01-05T13:12:50.000Z</time>
      </trkpt>
      <trkpt lat="42.75884" lon="1.59203">
        <ele>1600</ele>
        <time>2020-01-05T13:12:52.000Z</time>
      </trkpt>
      <trkpt lat="42.75885" lon="1.59201">
        <ele>1599</ele>
        <time>2020-01-05T13:12:54.000Z</time>
      </trkpt>
      <trkpt lat="42.75887" lon="1.59201">
        <ele>1599</ele>
        <time>2020-01-05T13:12:56.000Z</time>
      </trkpt>
      <trkpt lat="42.75889" lon="1.592">
        <ele>1598</ele>
        <time>2020-01-05T13:12:58.000Z</time>
      </trkpt>
      <trkpt lat="42.7589" lon="1.59199">
        <ele>1598</ele>
        <time>2020-01-05T13:13:00.000Z</time>
      </trkpt>
      <trkpt lat="42.75891" lon="1.59198">
        <ele>1597</ele>
        <time>2020-01-05T13:13:02.000Z</time>
      </trkpt>
      <trkpt lat="42.75893" lon="1.59196">
        <ele>1597</ele>
        <time>2020-01-05T13:13:04.000Z</time>
      </trkpt>
      <trkpt lat="42.75894" lon="1.59195">
        <ele>1596</ele>
        <time>2020-01-05T13:13:06.000Z</time>
      </trkpt>
      <trkpt lat="42.75896" lon="1.59193">
        <ele>1596</ele>
        <time>2020-01-05T13:13:08.000Z</time>
      </trkpt>
      <trkpt lat="42.75897" lon="1.59191">
        <ele>1595</ele>
        <time>2020-01-05T13:13:10.000Z</time>
      </trkpt>
      <trkpt lat="42.75899" lon="1.5919">
        <ele>1595</ele>
        <time>2020-01-05T13:13:12.000Z</time>
      </trkpt>
      <trkpt lat="42.759" lon="1.59189">
        <ele>1594</ele>
        <time>2020-01-05T13:13:14.000Z</time>
      </trkpt>
      <trkpt lat="42.75901" lon="1.59187">
        <ele>1594</ele>
        <time>2020-01-05T13:13:16.000Z</time>
      </trkpt>
      <trkpt lat="42.75903" lon="1.59185">
        <ele>1593</ele>
        <time>2020-01-05T13:13:18.000Z</time>
      </trkpt>
      <trkpt lat="42.75904" lon="1.59184">
        <ele>1593</ele>
        <time>2020-01-05T13:13:20.000Z</time>
      </trkpt>
      <trkpt lat="42.75905" lon="1.59183">
        <ele>1593</ele>
        <time>2020-01-05T13:13:22.000Z</time>
      </trkpt>
      <trkpt lat="42.75905" lon="1.59182">
        <ele>1592</ele>
        <time>2020-01-05T13:13:24.000Z</time>
      </trkpt>
      <trkpt lat="42.75905" lon="1.5918">
        <ele>1592</ele>
        <time>2020-01-05T13:13:26.000Z</time>
      </trkpt>
      <trkpt lat="42.75906" lon="1.59178">
        <ele>1592</ele>
        <time>2020-01-05T13:13:28.000Z</time>
      </trkpt>
      <trkpt lat="42.75907" lon="1.59177">
        <ele>1591</ele>
        <time>2020-01-05T13:13:30.000Z</time>
      </trkpt>
      <trkpt lat="42.75909" lon="1.59176">
        <ele>1591</ele>
        <time>2020-01-05T13:13:32.000Z</time>
      </trkpt>
      <trkpt lat="42.7591" lon="1.59175">
        <ele>1591</ele>
        <time>2020-01-05T13:13:34.000Z</time>
      </trkpt>
      <trkpt lat="42.75911" lon="1.59175">
        <ele>1590</ele>
        <time>2020-01-05T13:13:36.000Z</time>
      </trkpt>
      <trkpt lat="42.75913" lon="1.59175">
        <ele>1590</ele>
        <time>2020-01-05T13:13:38.000Z</time>
      </trkpt>
      <trkpt lat="42.75914" lon="1.59175">
        <ele>1590</ele>
        <time>2020-01-05T13:13:40.000Z</time>
      </trkpt>
      <trkpt lat="42.75915" lon="1.59174">
        <ele>1589</ele>
        <time>2020-01-05T13:13:42.000Z</time>
      </trkpt>
      <trkpt lat="42.75917" lon="1.59173">
        <ele>1589</ele>
        <time>2020-01-05T13:13:44.000Z</time>
      </trkpt>
      <trkpt lat="42.75918" lon="1.59172">
        <ele>1588</ele>
        <time>2020-01-05T13:13:46.000Z</time>
      </trkpt>
      <trkpt lat="42.7592" lon="1.59171">
        <ele>1588</ele>
        <time>2020-01-05T13:13:48.000Z</time>
      </trkpt>
      <trkpt lat="42.75922" lon="1.5917">
        <ele>1587</ele>
        <time>2020-01-05T13:13:50.000Z</time>
      </trkpt>
      <trkpt lat="42.75924" lon="1.5917">
        <ele>1587</ele>
        <time>2020-01-05T13:13:52.000Z</time>
      </trkpt>
      <trkpt lat="42.75926" lon="1.59169">
        <ele>1586</ele>
        <time>2020-01-05T13:13:54.000Z</time>
      </trkpt>
      <trkpt lat="42.75928" lon="1.59169">
        <ele>1585</ele>
        <time>2020-01-05T13:13:56.000Z</time>
      </trkpt>
      <trkpt lat="42.7593" lon="1.59168">
        <ele>1584</ele>
        <time>2020-01-05T13:13:58.000Z</time>
      </trkpt>
      <trkpt lat="42.75932" lon="1.59167">
        <ele>1583</ele>
        <time>2020-01-05T13:14:00.000Z</time>
      </trkpt>
      <trkpt lat="42.75934" lon="1.59166">
        <ele>1582</ele>
        <time>2020-01-05T13:14:02.000Z</time>
      </trkpt>
      <trkpt lat="42.75935" lon="1.59165">
        <ele>1582</ele>
        <time>2020-01-05T13:14:04.000Z</time>
      </trkpt>
      <trkpt lat="42.75937" lon="1.59163">
        <ele>1581</ele>
        <time>2020-01-05T13:14:06.000Z</time>
      </trkpt>
      <trkpt lat="42.75939" lon="1.59162">
        <ele>1581</ele>
        <time>2020-01-05T13:14:08.000Z</time>
      </trkpt>
      <trkpt lat="42.75941" lon="1.5916">
        <ele>1580</ele>
        <time>2020-01-05T13:14:10.000Z</time>
      </trkpt>
      <trkpt lat="42.75942" lon="1.59158">
        <ele>1580</ele>
        <time>2020-01-05T13:14:12.000Z</time>
      </trkpt>
      <trkpt lat="42.75943" lon="1.59156">
        <ele>1580</ele>
        <time>2020-01-05T13:14:14.000Z</time>
      </trkpt>
      <trkpt lat="42.75944" lon="1.59155">
        <ele>1580</ele>
        <time>2020-01-05T13:14:16.000Z</time>
      </trkpt>
      <trkpt lat="42.75946" lon="1.59153">
        <ele>1579</ele>
        <time>2020-01-05T13:14:18.000Z</time>
      </trkpt>
      <trkpt lat="42.75948" lon="1.59151">
        <ele>1579</ele>
        <time>2020-01-05T13:14:20.000Z</time>
      </trkpt>
      <trkpt lat="42.75949" lon="1.59151">
        <ele>1578</ele>
        <time>2020-01-05T13:14:22.000Z</time>
      </trkpt>
      <trkpt lat="42.75951" lon="1.5915">
        <ele>1578</ele>
        <time>2020-01-05T13:14:24.000Z</time>
      </trkpt>
      <trkpt lat="42.75953" lon="1.59152">
        <ele>1578</ele>
        <time>2020-01-05T13:14:26.000Z</time>
      </trkpt>
      <trkpt lat="42.75952" lon="1.59152">
        <ele>1578</ele>
        <time>2020-01-05T13:14:28.000Z</time>
      </trkpt>
      <trkpt lat="42.75952" lon="1.59152">
        <ele>1578</ele>
        <time>2020-01-05T13:14:30.000Z</time>
      </trkpt>
      <trkpt lat="42.75953" lon="1.59151">
        <ele>1578</ele>
        <time>2020-01-05T13:14:32.000Z</time>
      </trkpt>
      <trkpt lat="42.75953" lon="1.59152">
        <ele>1578</ele>
        <time>2020-01-05T13:14:34.000Z</time>
      </trkpt>
      <trkpt lat="42.75953" lon="1.59152">
        <ele>1578</ele>
        <time>2020-01-05T13:14:36.000Z</time>
      </trkpt>
      <trkpt lat="42.75953" lon="1.59152">
        <ele>1578</ele>
        <time>2020-01-05T13:14:38.000Z</time>
      </trkpt>
      <trkpt lat="42.75954" lon="1.59152">
        <ele>1578</ele>
        <time>2020-01-05T13:14:40.000Z</time>
      </trkpt>
      <trkpt lat="42.75954" lon="1.59151">
        <ele>1577</ele>
        <time>2020-01-05T13:14:42.000Z</time>
      </trkpt>
      <trkpt lat="42.75954" lon="1.59151">
        <ele>1577</ele>
        <time>2020-01-05T13:14:44.000Z</time>
      </trkpt>
      <trkpt lat="42.75955" lon="1.59152">
        <ele>1577</ele>
        <time>2020-01-05T13:14:46.000Z</time>
      </trkpt>
      <trkpt lat="42.75955" lon="1.59152">
        <ele>1577</ele>
        <time>2020-01-05T13:14:48.000Z</time>
      </trkpt>
      <trkpt lat="42.75954" lon="1.59153">
        <ele>1577</ele>
        <time>2020-01-05T13:14:50.000Z</time>
      </trkpt>
      <trkpt lat="42.75954" lon="1.59153">
        <ele>1578</ele>
        <time>2020-01-05T13:14:52.000Z</time>
      </trkpt>
      <trkpt lat="42.75954" lon="1.59153">
        <ele>1578</ele>
        <time>2020-01-05T13:14:54.000Z</time>
      </trkpt>
      <trkpt lat="42.75954" lon="1.59153">
        <ele>1578</ele>
        <time>2020-01-05T13:14:56.000Z</time>
      </trkpt>
      <trkpt lat="42.75954" lon="1.59152">
        <ele>1578</ele>
        <time>2020-01-05T13:14:58.000Z</time>
      </trkpt>
      <trkpt lat="42.75954" lon="1.59152">
        <ele>1578</ele>
        <time>2020-01-05T13:15:00.000Z</time>
      </trkpt>
      <trkpt lat="42.75954" lon="1.59152">
        <ele>1577</ele>
        <time>2020-01-05T13:15:02.000Z</time>
      </trkpt>
      <trkpt lat="42.75955" lon="1.59152">
        <ele>1577</ele>
        <time>2020-01-05T13:15:04.000Z</time>
      </trkpt>
      <trkpt lat="42.75955" lon="1.59152">
        <ele>1577</ele>
        <time>2020-01-05T13:15:06.000Z</time>
      </trkpt>
      <trkpt lat="42.75954" lon="1.59152">
        <ele>1577</ele>
        <time>2020-01-05T13:15:08.000Z</time>
      </trkpt>
      <trkpt lat="42.75954" lon="1.59152">
        <ele>1578</ele>
        <time>2020-01-05T13:15:10.000Z</time>
      </trkpt>
      <trkpt lat="42.75954" lon="1.59152">
        <ele>1577</ele>
        <time>2020-01-05T13:15:12.000Z</time>
      </trkpt>
      <trkpt lat="42.75954" lon="1.59152">
        <ele>1577</ele>
        <time>2020-01-05T13:15:14.000Z</time>
      </trkpt>
      <trkpt lat="42.75954" lon="1.59152">
        <ele>1577</ele>
        <time>2020-01-05T13:15:16.000Z</time>
      </trkpt>
      <trkpt lat="42.75954" lon="1.59152">
        <ele>1577</ele>
        <time>2020-01-05T13:15:18.000Z</time>
      </trkpt>
      <trkpt lat="42.75954" lon="1.59152">
        <ele>1577</ele>
        <time>2020-01-05T13:15:20.000Z</time>
      </trkpt>
      <trkpt lat="42.75954" lon="1.59153">
        <ele>1577</ele>
        <time>2020-01-05T13:15:22.000Z</time>
      </trkpt>
      <trkpt lat="42.75954" lon="1.59153">
        <ele>1577</ele>
        <time>2020-01-05T13:15:24.000Z</time>
      </trkpt>
      <trkpt lat="42.75954" lon="1.59153">
        <ele>1578</ele>
        <time>2020-01-05T13:15:26.000Z</time>
      </trkpt>
      <trkpt lat="42.75954" lon="1.59153">
        <ele>1577</ele>
        <time>2020-01-05T13:15:28.000Z</time>
      </trkpt>
      <trkpt lat="42.75954" lon="1.59153">
        <ele>1577</ele>
        <time>2020-01-05T13:15:30.000Z</time>
      </trkpt>
      <trkpt lat="42.75954" lon="1.59153">
        <ele>1578</ele>
        <time>2020-01-05T13:15:32.000Z</time>
      </trkpt>
      <trkpt lat="42.75953" lon="1.59152">
        <ele>1578</ele>
        <time>2020-01-05T13:15:34.000Z</time>
      </trkpt>
      <trkpt lat="42.75952" lon="1.59152">
        <ele>1578</ele>
        <time>2020-01-05T13:15:36.000Z</time>
      </trkpt>
      <trkpt lat="42.75952" lon="1.59152">
        <ele>1578</ele>
        <time>2020-01-05T13:15:38.000Z</time>
      </trkpt>
      <trkpt lat="42.7595" lon="1.59151">
        <ele>1578</ele>
        <time>2020-01-05T13:15:40.000Z</time>
      </trkpt>
      <trkpt lat="42.7595" lon="1.59149">
        <ele>1578</ele>
        <time>2020-01-05T13:15:42.000Z</time>
      </trkpt>
      <trkpt lat="42.7595" lon="1.59147">
        <ele>1577</ele>
        <time>2020-01-05T13:15:44.000Z</time>
      </trkpt>
      <trkpt lat="42.75951" lon="1.59145">
        <ele>1576</ele>
        <time>2020-01-05T13:15:46.000Z</time>
      </trkpt>
      <trkpt lat="42.75953" lon="1.59143">
        <ele>1575</ele>
        <time>2020-01-05T13:15:48.000Z</time>
      </trkpt>
      <trkpt lat="42.75954" lon="1.59142">
        <ele>1575</ele>
        <time>2020-01-05T13:15:50.000Z</time>
      </trkpt>
      <trkpt lat="42.75957" lon="1.59143">
        <ele>1574</ele>
        <time>2020-01-05T13:15:52.000Z</time>
      </trkpt>
      <trkpt lat="42.75957" lon="1.59143">
        <ele>1574</ele>
        <time>2020-01-05T13:15:54.000Z</time>
      </trkpt>
      <trkpt lat="42.75959" lon="1.59143">
        <ele>1574</ele>
        <time>2020-01-05T13:15:56.000Z</time>
      </trkpt>
      <trkpt lat="42.7596" lon="1.59143">
        <ele>1573</ele>
        <time>2020-01-05T13:15:58.000Z</time>
      </trkpt>
      <trkpt lat="42.75962" lon="1.59144">
        <ele>1573</ele>
        <time>2020-01-05T13:16:00.000Z</time>
      </trkpt>
      <trkpt lat="42.75963" lon="1.59144">
        <ele>1573</ele>
        <time>2020-01-05T13:16:02.000Z</time>
      </trkpt>
      <trkpt lat="42.75964" lon="1.59145">
        <ele>1573</ele>
        <time>2020-01-05T13:16:04.000Z</time>
      </trkpt>
      <trkpt lat="42.75965" lon="1.59146">
        <ele>1573</ele>
        <time>2020-01-05T13:16:06.000Z</time>
      </trkpt>
      <trkpt lat="42.75966" lon="1.59145">
        <ele>1573</ele>
        <time>2020-01-05T13:16:08.000Z</time>
      </trkpt>
      <trkpt lat="42.75966" lon="1.59144">
        <ele>1572</ele>
        <time>2020-01-05T13:16:10.000Z</time>
      </trkpt>
      <trkpt lat="42.75967" lon="1.59143">
        <ele>1572</ele>
        <time>2020-01-05T13:16:12.000Z</time>
      </trkpt>
      <trkpt lat="42.75967" lon="1.59142">
        <ele>1572</ele>
        <time>2020-01-05T13:16:14.000Z</time>
      </trkpt>
      <trkpt lat="42.75968" lon="1.59141">
        <ele>1571</ele>
        <time>2020-01-05T13:16:16.000Z</time>
      </trkpt>
      <trkpt lat="42.7597" lon="1.59141">
        <ele>1571</ele>
        <time>2020-01-05T13:16:18.000Z</time>
      </trkpt>
      <trkpt lat="42.75971" lon="1.5914">
        <ele>1570</ele>
        <time>2020-01-05T13:16:20.000Z</time>
      </trkpt>
      <trkpt lat="42.75972" lon="1.5914">
        <ele>1570</ele>
        <time>2020-01-05T13:16:22.000Z</time>
      </trkpt>
      <trkpt lat="42.75973" lon="1.59141">
        <ele>1570</ele>
        <time>2020-01-05T13:16:24.000Z</time>
      </trkpt>
      <trkpt lat="42.75973" lon="1.5914">
        <ele>1570</ele>
        <time>2020-01-05T13:16:26.000Z</time>
      </trkpt>
      <trkpt lat="42.75974" lon="1.59139">
        <ele>1569</ele>
        <time>2020-01-05T13:16:28.000Z</time>
      </trkpt>
      <trkpt lat="42.75974" lon="1.59138">
        <ele>1569</ele>
        <time>2020-01-05T13:16:30.000Z</time>
      </trkpt>
      <trkpt lat="42.75974" lon="1.59137">
        <ele>1568</ele>
        <time>2020-01-05T13:16:32.000Z</time>
      </trkpt>
      <trkpt lat="42.75974" lon="1.59136">
        <ele>1568</ele>
        <time>2020-01-05T13:16:34.000Z</time>
      </trkpt>
      <trkpt lat="42.75975" lon="1.59135">
        <ele>1568</ele>
        <time>2020-01-05T13:16:36.000Z</time>
      </trkpt>
      <trkpt lat="42.75974" lon="1.59134">
        <ele>1568</ele>
        <time>2020-01-05T13:16:38.000Z</time>
      </trkpt>
      <trkpt lat="42.75975" lon="1.59132">
        <ele>1567</ele>
        <time>2020-01-05T13:16:40.000Z</time>
      </trkpt>
      <trkpt lat="42.75975" lon="1.59131">
        <ele>1567</ele>
        <time>2020-01-05T13:16:42.000Z</time>
      </trkpt>
      <trkpt lat="42.75975" lon="1.5913">
        <ele>1566</ele>
        <time>2020-01-05T13:16:44.000Z</time>
      </trkpt>
      <trkpt lat="42.75976" lon="1.59129">
        <ele>1566</ele>
        <time>2020-01-05T13:16:46.000Z</time>
      </trkpt>
      <trkpt lat="42.75978" lon="1.59129">
        <ele>1565</ele>
        <time>2020-01-05T13:16:48.000Z</time>
      </trkpt>
      <trkpt lat="42.75979" lon="1.59129">
        <ele>1565</ele>
        <time>2020-01-05T13:16:50.000Z</time>
      </trkpt>
      <trkpt lat="42.7598" lon="1.59129">
        <ele>1565</ele>
        <time>2020-01-05T13:16:52.000Z</time>
      </trkpt>
      <trkpt lat="42.75981" lon="1.59128">
        <ele>1564</ele>
        <time>2020-01-05T13:16:54.000Z</time>
      </trkpt>
      <trkpt lat="42.75982" lon="1.59127">
        <ele>1564</ele>
        <time>2020-01-05T13:16:56.000Z</time>
      </trkpt>
      <trkpt lat="42.75984" lon="1.59128">
        <ele>1564</ele>
        <time>2020-01-05T13:16:58.000Z</time>
      </trkpt>
      <trkpt lat="42.75985" lon="1.59129">
        <ele>1564</ele>
        <time>2020-01-05T13:17:00.000Z</time>
      </trkpt>
      <trkpt lat="42.75985" lon="1.59129">
        <ele>1564</ele>
        <time>2020-01-05T13:17:02.000Z</time>
      </trkpt>
      <trkpt lat="42.75986" lon="1.59129">
        <ele>1564</ele>
        <time>2020-01-05T13:17:04.000Z</time>
      </trkpt>
      <trkpt lat="42.75987" lon="1.59129">
        <ele>1563</ele>
        <time>2020-01-05T13:17:06.000Z</time>
      </trkpt>
      <trkpt lat="42.75988" lon="1.5913">
        <ele>1563</ele>
        <time>2020-01-05T13:17:08.000Z</time>
      </trkpt>
      <trkpt lat="42.75988" lon="1.5913">
        <ele>1563</ele>
        <time>2020-01-05T13:17:10.000Z</time>
      </trkpt>
      <trkpt lat="42.75989" lon="1.5913">
        <ele>1563</ele>
        <time>2020-01-05T13:17:12.000Z</time>
      </trkpt>
      <trkpt lat="42.75989" lon="1.5913">
        <ele>1563</ele>
        <time>2020-01-05T13:17:14.000Z</time>
      </trkpt>
      <trkpt lat="42.75989" lon="1.59129">
        <ele>1563</ele>
        <time>2020-01-05T13:17:16.000Z</time>
      </trkpt>
      <trkpt lat="42.75989" lon="1.59128">
        <ele>1562</ele>
        <time>2020-01-05T13:17:18.000Z</time>
      </trkpt>
      <trkpt lat="42.7599" lon="1.59127">
        <ele>1562</ele>
        <time>2020-01-05T13:17:20.000Z</time>
      </trkpt>
      <trkpt lat="42.7599" lon="1.59126">
        <ele>1562</ele>
        <time>2020-01-05T13:17:22.000Z</time>
      </trkpt>
      <trkpt lat="42.75991" lon="1.59127">
        <ele>1562</ele>
        <time>2020-01-05T13:17:24.000Z</time>
      </trkpt>
      <trkpt lat="42.75991" lon="1.59126">
        <ele>1562</ele>
        <time>2020-01-05T13:17:26.000Z</time>
      </trkpt>
      <trkpt lat="42.75992" lon="1.59126">
        <ele>1561</ele>
        <time>2020-01-05T13:17:28.000Z</time>
      </trkpt>
      <trkpt lat="42.75993" lon="1.59126">
        <ele>1561</ele>
        <time>2020-01-05T13:17:30.000Z</time>
      </trkpt>
      <trkpt lat="42.75995" lon="1.59125">
        <ele>1561</ele>
        <time>2020-01-05T13:17:32.000Z</time>
      </trkpt>
      <trkpt lat="42.75996" lon="1.59125">
        <ele>1560</ele>
        <time>2020-01-05T13:17:34.000Z</time>
      </trkpt>
      <trkpt lat="42.75996" lon="1.59124">
        <ele>1560</ele>
        <time>2020-01-05T13:17:36.000Z</time>
      </trkpt>
      <trkpt lat="42.75998" lon="1.59123">
        <ele>1559</ele>
        <time>2020-01-05T13:17:38.000Z</time>
      </trkpt>
      <trkpt lat="42.75999" lon="1.59122">
        <ele>1559</ele>
        <time>2020-01-05T13:17:40.000Z</time>
      </trkpt>
      <trkpt lat="42.76" lon="1.59121">
        <ele>1558</ele>
        <time>2020-01-05T13:17:42.000Z</time>
      </trkpt>
      <trkpt lat="42.76003" lon="1.59121">
        <ele>1558</ele>
        <time>2020-01-05T13:17:44.000Z</time>
      </trkpt>
      <trkpt lat="42.76004" lon="1.59121">
        <ele>1557</ele>
        <time>2020-01-05T13:17:46.000Z</time>
      </trkpt>
      <trkpt lat="42.76005" lon="1.59121">
        <ele>1557</ele>
        <time>2020-01-05T13:17:48.000Z</time>
      </trkpt>
      <trkpt lat="42.76006" lon="1.5912">
        <ele>1556</ele>
        <time>2020-01-05T13:17:50.000Z</time>
      </trkpt>
      <trkpt lat="42.76007" lon="1.59119">
        <ele>1555</ele>
        <time>2020-01-05T13:17:52.000Z</time>
      </trkpt>
      <trkpt lat="42.76009" lon="1.59118">
        <ele>1554</ele>
        <time>2020-01-05T13:17:54.000Z</time>
      </trkpt>
      <trkpt lat="42.7601" lon="1.59118">
        <ele>1554</ele>
        <time>2020-01-05T13:17:56.000Z</time>
      </trkpt>
      <trkpt lat="42.76011" lon="1.59118">
        <ele>1553</ele>
        <time>2020-01-05T13:17:58.000Z</time>
      </trkpt>
      <trkpt lat="42.76012" lon="1.59117">
        <ele>1552</ele>
        <time>2020-01-05T13:18:00.000Z</time>
      </trkpt>
      <trkpt lat="42.76013" lon="1.59117">
        <ele>1552</ele>
        <time>2020-01-05T13:18:02.000Z</time>
      </trkpt>
      <trkpt lat="42.76013" lon="1.59117">
        <ele>1552</ele>
        <time>2020-01-05T13:18:04.000Z</time>
      </trkpt>
      <trkpt lat="42.76012" lon="1.59117">
        <ele>1552</ele>
        <time>2020-01-05T13:18:06.000Z</time>
      </trkpt>
      <trkpt lat="42.76012" lon="1.59117">
        <ele>1552</ele>
        <time>2020-01-05T13:18:08.000Z</time>
      </trkpt>
      <trkpt lat="42.76013" lon="1.59117">
        <ele>1552</ele>
        <time>2020-01-05T13:18:10.000Z</time>
      </trkpt>
      <trkpt lat="42.76013" lon="1.59117">
        <ele>1552</ele>
        <time>2020-01-05T13:18:12.000Z</time>
      </trkpt>
      <trkpt lat="42.76013" lon="1.59117">
        <ele>1552</ele>
        <time>2020-01-05T13:18:14.000Z</time>
      </trkpt>
      <trkpt lat="42.76014" lon="1.59116">
        <ele>1551</ele>
        <time>2020-01-05T13:18:16.000Z</time>
      </trkpt>
      <trkpt lat="42.76015" lon="1.59115">
        <ele>1551</ele>
        <time>2020-01-05T13:18:18.000Z</time>
      </trkpt>
      <trkpt lat="42.76016" lon="1.59114">
        <ele>1550</ele>
        <time>2020-01-05T13:18:20.000Z</time>
      </trkpt>
      <trkpt lat="42.76017" lon="1.59113">
        <ele>1549</ele>
        <time>2020-01-05T13:18:22.000Z</time>
      </trkpt>
      <trkpt lat="42.76019" lon="1.59113">
        <ele>1548</ele>
        <time>2020-01-05T13:18:24.000Z</time>
      </trkpt>
      <trkpt lat="42.7602" lon="1.59112">
        <ele>1548</ele>
        <time>2020-01-05T13:18:26.000Z</time>
      </trkpt>
      <trkpt lat="42.76021" lon="1.59112">
        <ele>1547</ele>
        <time>2020-01-05T13:18:28.000Z</time>
      </trkpt>
      <trkpt lat="42.76022" lon="1.59111">
        <ele>1546</ele>
        <time>2020-01-05T13:18:30.000Z</time>
      </trkpt>
      <trkpt lat="42.76024" lon="1.59111">
        <ele>1546</ele>
        <time>2020-01-05T13:18:32.000Z</time>
      </trkpt>
      <trkpt lat="42.76025" lon="1.59111">
        <ele>1545</ele>
        <time>2020-01-05T13:18:34.000Z</time>
      </trkpt>
      <trkpt lat="42.76027" lon="1.5911">
        <ele>1544</ele>
        <time>2020-01-05T13:18:36.000Z</time>
      </trkpt>
      <trkpt lat="42.76028" lon="1.5911">
        <ele>1544</ele>
        <time>2020-01-05T13:18:38.000Z</time>
      </trkpt>
      <trkpt lat="42.76029" lon="1.59109">
        <ele>1543</ele>
        <time>2020-01-05T13:18:40.000Z</time>
      </trkpt>
      <trkpt lat="42.76031" lon="1.59109">
        <ele>1542</ele>
        <time>2020-01-05T13:18:42.000Z</time>
      </trkpt>
      <trkpt lat="42.76032" lon="1.59109">
        <ele>1541</ele>
        <time>2020-01-05T13:18:44.000Z</time>
      </trkpt>
      <trkpt lat="42.76034" lon="1.59108">
        <ele>1541</ele>
        <time>2020-01-05T13:18:46.000Z</time>
      </trkpt>
      <trkpt lat="42.76035" lon="1.59107">
        <ele>1540</ele>
        <time>2020-01-05T13:18:48.000Z</time>
      </trkpt>
      <trkpt lat="42.76036" lon="1.59107">
        <ele>1539</ele>
        <time>2020-01-05T13:18:50.000Z</time>
      </trkpt>
      <trkpt lat="42.76037" lon="1.59107">
        <ele>1539</ele>
        <time>2020-01-05T13:18:52.000Z</time>
      </trkpt>
      <trkpt lat="42.76039" lon="1.59108">
        <ele>1538</ele>
        <time>2020-01-05T13:18:54.000Z</time>
      </trkpt>
      <trkpt lat="42.7604" lon="1.5911">
        <ele>1538</ele>
        <time>2020-01-05T13:18:56.000Z</time>
      </trkpt>
      <trkpt lat="42.76041" lon="1.59111">
        <ele>1538</ele>
        <time>2020-01-05T13:18:58.000Z</time>
      </trkpt>
      <trkpt lat="42.76042" lon="1.59111">
        <ele>1538</ele>
        <time>2020-01-05T13:19:00.000Z</time>
      </trkpt>
      <trkpt lat="42.76043" lon="1.59111">
        <ele>1537</ele>
        <time>2020-01-05T13:19:02.000Z</time>
      </trkpt>
      <trkpt lat="42.76043" lon="1.59112">
        <ele>1537</ele>
        <time>2020-01-05T13:19:04.000Z</time>
      </trkpt>
      <trkpt lat="42.76044" lon="1.59111">
        <ele>1537</ele>
        <time>2020-01-05T13:19:06.000Z</time>
      </trkpt>
      <trkpt lat="42.76045" lon="1.59111">
        <ele>1536</ele>
        <time>2020-01-05T13:19:08.000Z</time>
      </trkpt>
      <trkpt lat="42.76046" lon="1.59111">
        <ele>1536</ele>
        <time>2020-01-05T13:19:10.000Z</time>
      </trkpt>
      <trkpt lat="42.76046" lon="1.5911">
        <ele>1536</ele>
        <time>2020-01-05T13:19:12.000Z</time>
      </trkpt>
      <trkpt lat="42.76046" lon="1.5911">
        <ele>1535</ele>
        <time>2020-01-05T13:19:14.000Z</time>
      </trkpt>
      <trkpt lat="42.76046" lon="1.59109">
        <ele>1535</ele>
        <time>2020-01-05T13:19:16.000Z</time>
      </trkpt>
      <trkpt lat="42.76047" lon="1.59108">
        <ele>1535</ele>
        <time>2020-01-05T13:19:18.000Z</time>
      </trkpt>
      <trkpt lat="42.76048" lon="1.59108">
        <ele>1535</ele>
        <time>2020-01-05T13:19:20.000Z</time>
      </trkpt>
      <trkpt lat="42.76048" lon="1.59108">
        <ele>1535</ele>
        <time>2020-01-05T13:19:22.000Z</time>
      </trkpt>
      <trkpt lat="42.76049" lon="1.59107">
        <ele>1534</ele>
        <time>2020-01-05T13:19:24.000Z</time>
      </trkpt>
      <trkpt lat="42.7605" lon="1.59105">
        <ele>1534</ele>
        <time>2020-01-05T13:19:26.000Z</time>
      </trkpt>
      <trkpt lat="42.76051" lon="1.59105">
        <ele>1534</ele>
        <time>2020-01-05T13:19:28.000Z</time>
      </trkpt>
      <trkpt lat="42.76053" lon="1.59105">
        <ele>1533</ele>
        <time>2020-01-05T13:19:30.000Z</time>
      </trkpt>
      <trkpt lat="42.76053" lon="1.59105">
        <ele>1533</ele>
        <time>2020-01-05T13:19:32.000Z</time>
      </trkpt>
      <trkpt lat="42.76054" lon="1.59105">
        <ele>1533</ele>
        <time>2020-01-05T13:19:34.000Z</time>
      </trkpt>
      <trkpt lat="42.76055" lon="1.59105">
        <ele>1533</ele>
        <time>2020-01-05T13:19:36.000Z</time>
      </trkpt>
      <trkpt lat="42.76056" lon="1.59104">
        <ele>1532</ele>
        <time>2020-01-05T13:19:38.000Z</time>
      </trkpt>
      <trkpt lat="42.76057" lon="1.59104">
        <ele>1532</ele>
        <time>2020-01-05T13:19:40.000Z</time>
      </trkpt>
      <trkpt lat="42.76058" lon="1.59105">
        <ele>1532</ele>
        <time>2020-01-05T13:19:42.000Z</time>
      </trkpt>
      <trkpt lat="42.76059" lon="1.59106">
        <ele>1532</ele>
        <time>2020-01-05T13:19:44.000Z</time>
      </trkpt>
      <trkpt lat="42.76059" lon="1.59106">
        <ele>1531</ele>
        <time>2020-01-05T13:19:46.000Z</time>
      </trkpt>
      <trkpt lat="42.76061" lon="1.59106">
        <ele>1531</ele>
        <time>2020-01-05T13:19:48.000Z</time>
      </trkpt>
      <trkpt lat="42.76062" lon="1.59106">
        <ele>1531</ele>
        <time>2020-01-05T13:19:50.000Z</time>
      </trkpt>
      <trkpt lat="42.76063" lon="1.59105">
        <ele>1530</ele>
        <time>2020-01-05T13:19:52.000Z</time>
      </trkpt>
      <trkpt lat="42.76064" lon="1.59105">
        <ele>1530</ele>
        <time>2020-01-05T13:19:54.000Z</time>
      </trkpt>
      <trkpt lat="42.76065" lon="1.59104">
        <ele>1530</ele>
        <time>2020-01-05T13:19:56.000Z</time>
      </trkpt>
      <trkpt lat="42.76066" lon="1.59103">
        <ele>1529</ele>
        <time>2020-01-05T13:19:58.000Z</time>
      </trkpt>
      <trkpt lat="42.76068" lon="1.59103">
        <ele>1529</ele>
        <time>2020-01-05T13:20:00.000Z</time>
      </trkpt>
      <trkpt lat="42.76069" lon="1.59104">
        <ele>1528</ele>
        <time>2020-01-05T13:20:02.000Z</time>
      </trkpt>
      <trkpt lat="42.76071" lon="1.59105">
        <ele>1528</ele>
        <time>2020-01-05T13:20:04.000Z</time>
      </trkpt>
      <trkpt lat="42.76072" lon="1.59105">
        <ele>1528</ele>
        <time>2020-01-05T13:20:06.000Z</time>
      </trkpt>
      <trkpt lat="42.76074" lon="1.59106">
        <ele>1527</ele>
        <time>2020-01-05T13:20:08.000Z</time>
      </trkpt>
      <trkpt lat="42.76076" lon="1.59106">
        <ele>1527</ele>
        <time>2020-01-05T13:20:10.000Z</time>
      </trkpt>
      <trkpt lat="42.76077" lon="1.59106">
        <ele>1527</ele>
        <time>2020-01-05T13:20:12.000Z</time>
      </trkpt>
      <trkpt lat="42.76078" lon="1.59106">
        <ele>1526</ele>
        <time>2020-01-05T13:20:14.000Z</time>
      </trkpt>
      <trkpt lat="42.7608" lon="1.59106">
        <ele>1526</ele>
        <time>2020-01-05T13:20:16.000Z</time>
      </trkpt>
      <trkpt lat="42.76081" lon="1.59106">
        <ele>1525</ele>
        <time>2020-01-05T13:20:18.000Z</time>
      </trkpt>
      <trkpt lat="42.76082" lon="1.59105">
        <ele>1525</ele>
        <time>2020-01-05T13:20:20.000Z</time>
      </trkpt>
      <trkpt lat="42.76084" lon="1.59104">
        <ele>1524</ele>
        <time>2020-01-05T13:20:22.000Z</time>
      </trkpt>
      <trkpt lat="42.76085" lon="1.59103">
        <ele>1524</ele>
        <time>2020-01-05T13:20:24.000Z</time>
      </trkpt>
      <trkpt lat="42.76086" lon="1.59102">
        <ele>1524</ele>
        <time>2020-01-05T13:20:26.000Z</time>
      </trkpt>
      <trkpt lat="42.76087" lon="1.59102">
        <ele>1523</ele>
        <time>2020-01-05T13:20:28.000Z</time>
      </trkpt>
      <trkpt lat="42.76088" lon="1.59101">
        <ele>1523</ele>
        <time>2020-01-05T13:20:30.000Z</time>
      </trkpt>
      <trkpt lat="42.76089" lon="1.59099">
        <ele>1522</ele>
        <time>2020-01-05T13:20:32.000Z</time>
      </trkpt>
      <trkpt lat="42.76091" lon="1.59099">
        <ele>1521</ele>
        <time>2020-01-05T13:20:34.000Z</time>
      </trkpt>
      <trkpt lat="42.76092" lon="1.59099">
        <ele>1521</ele>
        <time>2020-01-05T13:20:36.000Z</time>
      </trkpt>
      <trkpt lat="42.76093" lon="1.59099">
        <ele>1520</ele>
        <time>2020-01-05T13:20:38.000Z</time>
      </trkpt>
      <trkpt lat="42.76095" lon="1.59098">
        <ele>1519</ele>
        <time>2020-01-05T13:20:40.000Z</time>
      </trkpt>
      <trkpt lat="42.76097" lon="1.59098">
        <ele>1518</ele>
        <time>2020-01-05T13:20:42.000Z</time>
      </trkpt>
      <trkpt lat="42.76099" lon="1.59097">
        <ele>1517</ele>
        <time>2020-01-05T13:20:44.000Z</time>
      </trkpt>
      <trkpt lat="42.76101" lon="1.59097">
        <ele>1517</ele>
        <time>2020-01-05T13:20:46.000Z</time>
      </trkpt>
      <trkpt lat="42.76102" lon="1.59097">
        <ele>1516</ele>
        <time>2020-01-05T13:20:48.000Z</time>
      </trkpt>
      <trkpt lat="42.76104" lon="1.59097">
        <ele>1515</ele>
        <time>2020-01-05T13:20:50.000Z</time>
      </trkpt>
      <trkpt lat="42.76106" lon="1.59096">
        <ele>1514</ele>
        <time>2020-01-05T13:20:52.000Z</time>
      </trkpt>
      <trkpt lat="42.76108" lon="1.59096">
        <ele>1513</ele>
        <time>2020-01-05T13:20:54.000Z</time>
      </trkpt>
      <trkpt lat="42.7611" lon="1.59097">
        <ele>1513</ele>
        <time>2020-01-05T13:20:56.000Z</time>
      </trkpt>
      <trkpt lat="42.76111" lon="1.59098">
        <ele>1512</ele>
        <time>2020-01-05T13:20:58.000Z</time>
      </trkpt>
      <trkpt lat="42.76113" lon="1.59099">
        <ele>1512</ele>
        <time>2020-01-05T13:21:00.000Z</time>
      </trkpt>
      <trkpt lat="42.76114" lon="1.59098">
        <ele>1511</ele>
        <time>2020-01-05T13:21:02.000Z</time>
      </trkpt>
      <trkpt lat="42.76116" lon="1.59098">
        <ele>1510</ele>
        <time>2020-01-05T13:21:04.000Z</time>
      </trkpt>
      <trkpt lat="42.76117" lon="1.59097">
        <ele>1510</ele>
        <time>2020-01-05T13:21:06.000Z</time>
      </trkpt>
      <trkpt lat="42.76119" lon="1.59096">
        <ele>1509</ele>
        <time>2020-01-05T13:21:08.000Z</time>
      </trkpt>
      <trkpt lat="42.76121" lon="1.59096">
        <ele>1509</ele>
        <time>2020-01-05T13:21:10.000Z</time>
      </trkpt>
      <trkpt lat="42.76123" lon="1.59095">
        <ele>1509</ele>
        <time>2020-01-05T13:21:12.000Z</time>
      </trkpt>
      <trkpt lat="42.76125" lon="1.59095">
        <ele>1508</ele>
        <time>2020-01-05T13:21:14.000Z</time>
      </trkpt>
      <trkpt lat="42.76127" lon="1.59095">
        <ele>1508</ele>
        <time>2020-01-05T13:21:16.000Z</time>
      </trkpt>
      <trkpt lat="42.7613" lon="1.59096">
        <ele>1507</ele>
        <time>2020-01-05T13:21:18.000Z</time>
      </trkpt>
      <trkpt lat="42.76133" lon="1.59095">
        <ele>1507</ele>
        <time>2020-01-05T13:21:20.000Z</time>
      </trkpt>
      <trkpt lat="42.76135" lon="1.59093">
        <ele>1506</ele>
        <time>2020-01-05T13:21:22.000Z</time>
      </trkpt>
      <trkpt lat="42.76137" lon="1.59092">
        <ele>1506</ele>
        <time>2020-01-05T13:21:24.000Z</time>
      </trkpt>
      <trkpt lat="42.76139" lon="1.59089">
        <ele>1506</ele>
        <time>2020-01-05T13:21:26.000Z</time>
      </trkpt>
      <trkpt lat="42.76141" lon="1.59087">
        <ele>1506</ele>
        <time>2020-01-05T13:21:28.000Z</time>
      </trkpt>
      <trkpt lat="42.76143" lon="1.59085">
        <ele>1506</ele>
        <time>2020-01-05T13:21:30.000Z</time>
      </trkpt>
      <trkpt lat="42.76145" lon="1.59082">
        <ele>1506</ele>
        <time>2020-01-05T13:21:32.000Z</time>
      </trkpt>
      <trkpt lat="42.76145" lon="1.59079">
        <ele>1506</ele>
        <time>2020-01-05T13:21:34.000Z</time>
      </trkpt>
      <trkpt lat="42.76146" lon="1.59077">
        <ele>1506</ele>
        <time>2020-01-05T13:21:36.000Z</time>
      </trkpt>
      <trkpt lat="42.76146" lon="1.59074">
        <ele>1506</ele>
        <time>2020-01-05T13:21:38.000Z</time>
      </trkpt>
      <trkpt lat="42.76146" lon="1.59072">
        <ele>1507</ele>
        <time>2020-01-05T13:21:40.000Z</time>
      </trkpt>
      <trkpt lat="42.76146" lon="1.5907">
        <ele>1507</ele>
        <time>2020-01-05T13:21:42.000Z</time>
      </trkpt>
      <trkpt lat="42.76146" lon="1.59068">
        <ele>1507</ele>
        <time>2020-01-05T13:21:44.000Z</time>
      </trkpt>
      <trkpt lat="42.76147" lon="1.59065">
        <ele>1506</ele>
        <time>2020-01-05T13:21:46.000Z</time>
      </trkpt>
      <trkpt lat="42.76147" lon="1.59063">
        <ele>1505</ele>
        <time>2020-01-05T13:21:48.000Z</time>
      </trkpt>
      <trkpt lat="42.76147" lon="1.59061">
        <ele>1505</ele>
        <time>2020-01-05T13:21:50.000Z</time>
      </trkpt>
      <trkpt lat="42.76146" lon="1.5906">
        <ele>1505</ele>
        <time>2020-01-05T13:21:52.000Z</time>
      </trkpt>
      <trkpt lat="42.76146" lon="1.59058">
        <ele>1504</ele>
        <time>2020-01-05T13:21:54.000Z</time>
      </trkpt>
      <trkpt lat="42.76147" lon="1.59057">
        <ele>1504</ele>
        <time>2020-01-05T13:21:56.000Z</time>
      </trkpt>
      <trkpt lat="42.76148" lon="1.59056">
        <ele>1503</ele>
        <time>2020-01-05T13:21:58.000Z</time>
      </trkpt>
      <trkpt lat="42.76148" lon="1.59055">
        <ele>1503</ele>
        <time>2020-01-05T13:22:00.000Z</time>
      </trkpt>
      <trkpt lat="42.76149" lon="1.59053">
        <ele>1502</ele>
        <time>2020-01-05T13:22:02.000Z</time>
      </trkpt>
      <trkpt lat="42.76149" lon="1.59052">
        <ele>1502</ele>
        <time>2020-01-05T13:22:04.000Z</time>
      </trkpt>
      <trkpt lat="42.76149" lon="1.5905">
        <ele>1501</ele>
        <time>2020-01-05T13:22:06.000Z</time>
      </trkpt>
      <trkpt lat="42.76149" lon="1.59048">
        <ele>1501</ele>
        <time>2020-01-05T13:22:08.000Z</time>
      </trkpt>
      <trkpt lat="42.76148" lon="1.59047">
        <ele>1500</ele>
        <time>2020-01-05T13:22:10.000Z</time>
      </trkpt>
      <trkpt lat="42.76148" lon="1.59046">
        <ele>1500</ele>
        <time>2020-01-05T13:22:12.000Z</time>
      </trkpt>
      <trkpt lat="42.76149" lon="1.59044">
        <ele>1500</ele>
        <time>2020-01-05T13:22:14.000Z</time>
      </trkpt>
      <trkpt lat="42.76149" lon="1.59044">
        <ele>1500</ele>
        <time>2020-01-05T13:22:16.000Z</time>
      </trkpt>
      <trkpt lat="42.76149" lon="1.59044">
        <ele>1499</ele>
        <time>2020-01-05T13:22:18.000Z</time>
      </trkpt>
      <trkpt lat="42.76149" lon="1.59042">
        <ele>1499</ele>
        <time>2020-01-05T13:22:20.000Z</time>
      </trkpt>
      <trkpt lat="42.7615" lon="1.59042">
        <ele>1499</ele>
        <time>2020-01-05T13:22:22.000Z</time>
      </trkpt>
      <trkpt lat="42.7615" lon="1.59041">
        <ele>1499</ele>
        <time>2020-01-05T13:22:24.000Z</time>
      </trkpt>
      <trkpt lat="42.7615" lon="1.5904">
        <ele>1499</ele>
        <time>2020-01-05T13:22:26.000Z</time>
      </trkpt>
      <trkpt lat="42.76151" lon="1.5904">
        <ele>1499</ele>
        <time>2020-01-05T13:22:28.000Z</time>
      </trkpt>
      <trkpt lat="42.76151" lon="1.5904">
        <ele>1499</ele>
        <time>2020-01-05T13:22:30.000Z</time>
      </trkpt>
      <trkpt lat="42.76152" lon="1.5904">
        <ele>1499</ele>
        <time>2020-01-05T13:22:32.000Z</time>
      </trkpt>
      <trkpt lat="42.76152" lon="1.59038">
        <ele>1498</ele>
        <time>2020-01-05T13:22:34.000Z</time>
      </trkpt>
      <trkpt lat="42.76153" lon="1.59038">
        <ele>1498</ele>
        <time>2020-01-05T13:22:36.000Z</time>
      </trkpt>
      <trkpt lat="42.76155" lon="1.59037">
        <ele>1498</ele>
        <time>2020-01-05T13:22:38.000Z</time>
      </trkpt>
      <trkpt lat="42.76156" lon="1.59038">
        <ele>1498</ele>
        <time>2020-01-05T13:22:40.000Z</time>
      </trkpt>
      <trkpt lat="42.76158" lon="1.59039">
        <ele>1498</ele>
        <time>2020-01-05T13:22:42.000Z</time>
      </trkpt>
      <trkpt lat="42.76159" lon="1.59039">
        <ele>1498</ele>
        <time>2020-01-05T13:22:44.000Z</time>
      </trkpt>
      <trkpt lat="42.7616" lon="1.59039">
        <ele>1498</ele>
        <time>2020-01-05T13:22:46.000Z</time>
      </trkpt>
      <trkpt lat="42.76161" lon="1.59038">
        <ele>1497</ele>
        <time>2020-01-05T13:22:48.000Z</time>
      </trkpt>
      <trkpt lat="42.76162" lon="1.59038">
        <ele>1497</ele>
        <time>2020-01-05T13:22:50.000Z</time>
      </trkpt>
      <trkpt lat="42.76164" lon="1.59038">
        <ele>1497</ele>
        <time>2020-01-05T13:22:52.000Z</time>
      </trkpt>
      <trkpt lat="42.76165" lon="1.59038">
        <ele>1497</ele>
        <time>2020-01-05T13:22:54.000Z</time>
      </trkpt>
      <trkpt lat="42.76167" lon="1.5904">
        <ele>1497</ele>
        <time>2020-01-05T13:22:56.000Z</time>
      </trkpt>
      <trkpt lat="42.76168" lon="1.59041">
        <ele>1497</ele>
        <time>2020-01-05T13:22:58.000Z</time>
      </trkpt>
      <trkpt lat="42.76169" lon="1.59043">
        <ele>1498</ele>
        <time>2020-01-05T13:23:00.000Z</time>
      </trkpt>
      <trkpt lat="42.7617" lon="1.59044">
        <ele>1498</ele>
        <time>2020-01-05T13:23:02.000Z</time>
      </trkpt>
      <trkpt lat="42.76171" lon="1.59044">
        <ele>1498</ele>
        <time>2020-01-05T13:23:04.000Z</time>
      </trkpt>
      <trkpt lat="42.76172" lon="1.59044">
        <ele>1497</ele>
        <time>2020-01-05T13:23:06.000Z</time>
      </trkpt>
      <trkpt lat="42.76173" lon="1.59043">
        <ele>1497</ele>
        <time>2020-01-05T13:23:08.000Z</time>
      </trkpt>
      <trkpt lat="42.76174" lon="1.59043">
        <ele>1497</ele>
        <time>2020-01-05T13:23:10.000Z</time>
      </trkpt>
      <trkpt lat="42.76175" lon="1.59043">
        <ele>1497</ele>
        <time>2020-01-05T13:23:12.000Z</time>
      </trkpt>
      <trkpt lat="42.76176" lon="1.59043">
        <ele>1496</ele>
        <time>2020-01-05T13:23:14.000Z</time>
      </trkpt>
      <trkpt lat="42.76178" lon="1.59044">
        <ele>1496</ele>
        <time>2020-01-05T13:23:16.000Z</time>
      </trkpt>
      <trkpt lat="42.76179" lon="1.59043">
        <ele>1495</ele>
        <time>2020-01-05T13:23:18.000Z</time>
      </trkpt>
      <trkpt lat="42.76181" lon="1.59043">
        <ele>1495</ele>
        <time>2020-01-05T13:23:20.000Z</time>
      </trkpt>
      <trkpt lat="42.76183" lon="1.59042">
        <ele>1494</ele>
        <time>2020-01-05T13:23:22.000Z</time>
      </trkpt>
      <trkpt lat="42.76185" lon="1.59042">
        <ele>1494</ele>
        <time>2020-01-05T13:23:24.000Z</time>
      </trkpt>
      <trkpt lat="42.76187" lon="1.59043">
        <ele>1494</ele>
        <time>2020-01-05T13:23:26.000Z</time>
      </trkpt>
      <trkpt lat="42.76189" lon="1.59043">
        <ele>1493</ele>
        <time>2020-01-05T13:23:28.000Z</time>
      </trkpt>
      <trkpt lat="42.76191" lon="1.59044">
        <ele>1493</ele>
        <time>2020-01-05T13:23:30.000Z</time>
      </trkpt>
      <trkpt lat="42.76193" lon="1.59045">
        <ele>1492</ele>
        <time>2020-01-05T13:23:32.000Z</time>
      </trkpt>
      <trkpt lat="42.76196" lon="1.59046">
        <ele>1492</ele>
        <time>2020-01-05T13:23:34.000Z</time>
      </trkpt>
      <trkpt lat="42.76198" lon="1.59047">
        <ele>1492</ele>
        <time>2020-01-05T13:23:36.000Z</time>
      </trkpt>
      <trkpt lat="42.762" lon="1.59048">
        <ele>1491</ele>
        <time>2020-01-05T13:23:38.000Z</time>
      </trkpt>
      <trkpt lat="42.76202" lon="1.59049">
        <ele>1491</ele>
        <time>2020-01-05T13:23:40.000Z</time>
      </trkpt>
      <trkpt lat="42.76204" lon="1.59049">
        <ele>1491</ele>
        <time>2020-01-05T13:23:42.000Z</time>
      </trkpt>
      <trkpt lat="42.76206" lon="1.59048">
        <ele>1490</ele>
        <time>2020-01-05T13:23:44.000Z</time>
      </trkpt>
      <trkpt lat="42.76207" lon="1.59047">
        <ele>1489</ele>
        <time>2020-01-05T13:23:46.000Z</time>
      </trkpt>
      <trkpt lat="42.76209" lon="1.59045">
        <ele>1489</ele>
        <time>2020-01-05T13:23:48.000Z</time>
      </trkpt>
      <trkpt lat="42.76211" lon="1.59044">
        <ele>1488</ele>
        <time>2020-01-05T13:23:50.000Z</time>
      </trkpt>
      <trkpt lat="42.76212" lon="1.59043">
        <ele>1487</ele>
        <time>2020-01-05T13:23:52.000Z</time>
      </trkpt>
      <trkpt lat="42.76214" lon="1.59042">
        <ele>1487</ele>
        <time>2020-01-05T13:23:54.000Z</time>
      </trkpt>
      <trkpt lat="42.76216" lon="1.59041">
        <ele>1486</ele>
        <time>2020-01-05T13:23:56.000Z</time>
      </trkpt>
      <trkpt lat="42.76217" lon="1.5904">
        <ele>1486</ele>
        <time>2020-01-05T13:23:58.000Z</time>
      </trkpt>
      <trkpt lat="42.76218" lon="1.59038">
        <ele>1485</ele>
        <time>2020-01-05T13:24:00.000Z</time>
      </trkpt>
      <trkpt lat="42.7622" lon="1.59037">
        <ele>1485</ele>
        <time>2020-01-05T13:24:02.000Z</time>
      </trkpt>
      <trkpt lat="42.76221" lon="1.59037">
        <ele>1484</ele>
        <time>2020-01-05T13:24:04.000Z</time>
      </trkpt>
      <trkpt lat="42.76222" lon="1.59036">
        <ele>1484</ele>
        <time>2020-01-05T13:24:06.000Z</time>
      </trkpt>
      <trkpt lat="42.76222" lon="1.59036">
        <ele>1484</ele>
        <time>2020-01-05T13:24:08.000Z</time>
      </trkpt>
      <trkpt lat="42.76222" lon="1.59035">
        <ele>1484</ele>
        <time>2020-01-05T13:24:10.000Z</time>
      </trkpt>
      <trkpt lat="42.76222" lon="1.59035">
        <ele>1484</ele>
        <time>2020-01-05T13:24:12.000Z</time>
      </trkpt>
      <trkpt lat="42.76222" lon="1.59036">
        <ele>1484</ele>
        <time>2020-01-05T13:24:14.000Z</time>
      </trkpt>
      <trkpt lat="42.76222" lon="1.59035">
        <ele>1484</ele>
        <time>2020-01-05T13:24:16.000Z</time>
      </trkpt>
      <trkpt lat="42.76222" lon="1.59035">
        <ele>1484</ele>
        <time>2020-01-05T13:24:18.000Z</time>
      </trkpt>
      <trkpt lat="42.76222" lon="1.59035">
        <ele>1484</ele>
        <time>2020-01-05T13:24:20.000Z</time>
      </trkpt>
      <trkpt lat="42.76222" lon="1.59034">
        <ele>1484</ele>
        <time>2020-01-05T13:24:22.000Z</time>
      </trkpt>
      <trkpt lat="42.76222" lon="1.59034">
        <ele>1484</ele>
        <time>2020-01-05T13:24:24.000Z</time>
      </trkpt>
      <trkpt lat="42.76222" lon="1.59034">
        <ele>1484</ele>
        <time>2020-01-05T13:24:26.000Z</time>
      </trkpt>
      <trkpt lat="42.76222" lon="1.59034">
        <ele>1484</ele>
        <time>2020-01-05T13:24:28.000Z</time>
      </trkpt>
      <trkpt lat="42.76222" lon="1.59034">
        <ele>1484</ele>
        <time>2020-01-05T13:24:30.000Z</time>
      </trkpt>
      <trkpt lat="42.76222" lon="1.59033">
        <ele>1484</ele>
        <time>2020-01-05T13:24:32.000Z</time>
      </trkpt>
      <trkpt lat="42.76222" lon="1.59033">
        <ele>1484</ele>
        <time>2020-01-05T13:24:34.000Z</time>
      </trkpt>
      <trkpt lat="42.76222" lon="1.59033">
        <ele>1484</ele>
        <time>2020-01-05T13:24:36.000Z</time>
      </trkpt>
      <trkpt lat="42.76222" lon="1.59033">
        <ele>1484</ele>
        <time>2020-01-05T13:24:38.000Z</time>
      </trkpt>
      <trkpt lat="42.76221" lon="1.59033">
        <ele>1484</ele>
        <time>2020-01-05T13:24:40.000Z</time>
      </trkpt>
      <trkpt lat="42.76221" lon="1.59033">
        <ele>1484</ele>
        <time>2020-01-05T13:24:42.000Z</time>
      </trkpt>
      <trkpt lat="42.76221" lon="1.59033">
        <ele>1484</ele>
        <time>2020-01-05T13:24:44.000Z</time>
      </trkpt>
      <trkpt lat="42.76221" lon="1.59033">
        <ele>1484</ele>
        <time>2020-01-05T13:24:46.000Z</time>
      </trkpt>
      <trkpt lat="42.76221" lon="1.59033">
        <ele>1484</ele>
        <time>2020-01-05T13:24:48.000Z</time>
      </trkpt>
      <trkpt lat="42.76221" lon="1.59033">
        <ele>1484</ele>
        <time>2020-01-05T13:24:50.000Z</time>
      </trkpt>
      <trkpt lat="42.7622" lon="1.59033">
        <ele>1484</ele>
        <time>2020-01-05T13:24:52.000Z</time>
      </trkpt>
      <trkpt lat="42.7622" lon="1.59033">
        <ele>1484</ele>
        <time>2020-01-05T13:24:54.000Z</time>
      </trkpt>
      <trkpt lat="42.7622" lon="1.59033">
        <ele>1484</ele>
        <time>2020-01-05T13:24:56.000Z</time>
      </trkpt>
      <trkpt lat="42.7622" lon="1.59034">
        <ele>1484</ele>
        <time>2020-01-05T13:24:58.000Z</time>
      </trkpt>
      <trkpt lat="42.7622" lon="1.59035">
        <ele>1484</ele>
        <time>2020-01-05T13:25:00.000Z</time>
      </trkpt>
      <trkpt lat="42.76221" lon="1.59034">
        <ele>1484</ele>
        <time>2020-01-05T13:25:02.000Z</time>
      </trkpt>
      <trkpt lat="42.7622" lon="1.59034">
        <ele>1484</ele>
        <time>2020-01-05T13:25:04.000Z</time>
      </trkpt>
      <trkpt lat="42.7622" lon="1.59034">
        <ele>1484</ele>
        <time>2020-01-05T13:25:06.000Z</time>
      </trkpt>
      <trkpt lat="42.7622" lon="1.59034">
        <ele>1484</ele>
        <time>2020-01-05T13:25:08.000Z</time>
      </trkpt>
      <trkpt lat="42.7622" lon="1.59035">
        <ele>1484</ele>
        <time>2020-01-05T13:25:10.000Z</time>
      </trkpt>
      <trkpt lat="42.7622" lon="1.59034">
        <ele>1484</ele>
        <time>2020-01-05T13:25:12.000Z</time>
      </trkpt>
      <trkpt lat="42.7622" lon="1.59034">
        <ele>1484</ele>
        <time>2020-01-05T13:25:14.000Z</time>
      </trkpt>
      <trkpt lat="42.7622" lon="1.59034">
        <ele>1484</ele>
        <time>2020-01-05T13:25:16.000Z</time>
      </trkpt>
      <trkpt lat="42.7622" lon="1.59033">
        <ele>1484</ele>
        <time>2020-01-05T13:25:18.000Z</time>
      </trkpt>
      <trkpt lat="42.7622" lon="1.59033">
        <ele>1484</ele>
        <time>2020-01-05T13:25:20.000Z</time>
      </trkpt>
      <trkpt lat="42.76221" lon="1.59032">
        <ele>1484</ele>
        <time>2020-01-05T13:25:22.000Z</time>
      </trkpt>
      <trkpt lat="42.76221" lon="1.59032">
        <ele>1484</ele>
        <time>2020-01-05T13:25:24.000Z</time>
      </trkpt>
      <trkpt lat="42.76221" lon="1.59032">
        <ele>1484</ele>
        <time>2020-01-05T13:25:26.000Z</time>
      </trkpt>
      <trkpt lat="42.76221" lon="1.59032">
        <ele>1484</ele>
        <time>2020-01-05T13:25:28.000Z</time>
      </trkpt>
      <trkpt lat="42.76221" lon="1.59032">
        <ele>1484</ele>
        <time>2020-01-05T13:25:30.000Z</time>
      </trkpt>
      <trkpt lat="42.76221" lon="1.59032">
        <ele>1484</ele>
        <time>2020-01-05T13:25:32.000Z</time>
      </trkpt>
      <trkpt lat="42.76221" lon="1.59032">
        <ele>1484</ele>
        <time>2020-01-05T13:25:34.000Z</time>
      </trkpt>
      <trkpt lat="42.76221" lon="1.59032">
        <ele>1484</ele>
        <time>2020-01-05T13:25:36.000Z</time>
      </trkpt>
      <trkpt lat="42.76222" lon="1.59033">
        <ele>1484</ele>
        <time>2020-01-05T13:25:38.000Z</time>
      </trkpt>
      <trkpt lat="42.76222" lon="1.59033">
        <ele>1484</ele>
        <time>2020-01-05T13:25:40.000Z</time>
      </trkpt>
      <trkpt lat="42.76222" lon="1.59033">
        <ele>1484</ele>
        <time>2020-01-05T13:25:42.000Z</time>
      </trkpt>
      <trkpt lat="42.76222" lon="1.59033">
        <ele>1484</ele>
        <time>2020-01-05T13:25:44.000Z</time>
      </trkpt>
      <trkpt lat="42.76222" lon="1.59033">
        <ele>1484</ele>
        <time>2020-01-05T13:25:46.000Z</time>
      </trkpt>
      <trkpt lat="42.76222" lon="1.59033">
        <ele>1484</ele>
        <time>2020-01-05T13:25:48.000Z</time>
      </trkpt>
      <trkpt lat="42.76222" lon="1.59033">
        <ele>1484</ele>
        <time>2020-01-05T13:25:50.000Z</time>
      </trkpt>
      <trkpt lat="42.76222" lon="1.59033">
        <ele>1484</ele>
        <time>2020-01-05T13:25:52.000Z</time>
      </trkpt>
      <trkpt lat="42.76222" lon="1.59033">
        <ele>1484</ele>
        <time>2020-01-05T13:25:54.000Z</time>
      </trkpt>
      <trkpt lat="42.76222" lon="1.59033">
        <ele>1484</ele>
        <time>2020-01-05T13:25:56.000Z</time>
      </trkpt>
      <trkpt lat="42.76222" lon="1.59033">
        <ele>1484</ele>
        <time>2020-01-05T13:25:58.000Z</time>
      </trkpt>
      <trkpt lat="42.76222" lon="1.59033">
        <ele>1484</ele>
        <time>2020-01-05T13:26:00.000Z</time>
      </trkpt>
      <trkpt lat="42.76222" lon="1.59033">
        <ele>1484</ele>
        <time>2020-01-05T13:26:02.000Z</time>
      </trkpt>
      <trkpt lat="42.76223" lon="1.59033">
        <ele>1484</ele>
        <time>2020-01-05T13:26:04.000Z</time>
      </trkpt>
      <trkpt lat="42.76223" lon="1.59033">
        <ele>1484</ele>
        <time>2020-01-05T13:26:06.000Z</time>
      </trkpt>
      <trkpt lat="42.76223" lon="1.59032">
        <ele>1484</ele>
        <time>2020-01-05T13:26:08.000Z</time>
      </trkpt>
      <trkpt lat="42.76223" lon="1.59033">
        <ele>1484</ele>
        <time>2020-01-05T13:26:10.000Z</time>
      </trkpt>
      <trkpt lat="42.76223" lon="1.59033">
        <ele>1484</ele>
        <time>2020-01-05T13:26:12.000Z</time>
      </trkpt>
      <trkpt lat="42.76223" lon="1.59033">
        <ele>1484</ele>
        <time>2020-01-05T13:26:14.000Z</time>
      </trkpt>
      <trkpt lat="42.76223" lon="1.59032">
        <ele>1484</ele>
        <time>2020-01-05T13:26:16.000Z</time>
      </trkpt>
      <trkpt lat="42.76223" lon="1.59032">
        <ele>1484</ele>
        <time>2020-01-05T13:26:18.000Z</time>
      </trkpt>
      <trkpt lat="42.76223" lon="1.59031">
        <ele>1484</ele>
        <time>2020-01-05T13:26:20.000Z</time>
      </trkpt>
      <trkpt lat="42.76223" lon="1.59031">
        <ele>1484</ele>
        <time>2020-01-05T13:26:22.000Z</time>
      </trkpt>
      <trkpt lat="42.76222" lon="1.59031">
        <ele>1484</ele>
        <time>2020-01-05T13:26:24.000Z</time>
      </trkpt>
      <trkpt lat="42.76222" lon="1.59031">
        <ele>1484</ele>
        <time>2020-01-05T13:26:26.000Z</time>
      </trkpt>
      <trkpt lat="42.76222" lon="1.59032">
        <ele>1484</ele>
        <time>2020-01-05T13:26:28.000Z</time>
      </trkpt>
      <trkpt lat="42.76222" lon="1.59031">
        <ele>1484</ele>
        <time>2020-01-05T13:26:30.000Z</time>
      </trkpt>
      <trkpt lat="42.76222" lon="1.59031">
        <ele>1484</ele>
        <time>2020-01-05T13:26:32.000Z</time>
      </trkpt>
      <trkpt lat="42.76222" lon="1.59031">
        <ele>1484</ele>
        <time>2020-01-05T13:26:34.000Z</time>
      </trkpt>
      <trkpt lat="42.76222" lon="1.59031">
        <ele>1484</ele>
        <time>2020-01-05T13:26:36.000Z</time>
      </trkpt>
      <trkpt lat="42.76222" lon="1.59032">
        <ele>1484</ele>
        <time>2020-01-05T13:26:38.000Z</time>
      </trkpt>
      <trkpt lat="42.76223" lon="1.59032">
        <ele>1484</ele>
        <time>2020-01-05T13:26:40.000Z</time>
      </trkpt>
      <trkpt lat="42.76223" lon="1.59032">
        <ele>1484</ele>
        <time>2020-01-05T13:26:42.000Z</time>
      </trkpt>
      <trkpt lat="42.76223" lon="1.59032">
        <ele>1484</ele>
        <time>2020-01-05T13:26:44.000Z</time>
      </trkpt>
      <trkpt lat="42.76223" lon="1.59032">
        <ele>1484</ele>
        <time>2020-01-05T13:26:46.000Z</time>
      </trkpt>
      <trkpt lat="42.76223" lon="1.59033">
        <ele>1484</ele>
        <time>2020-01-05T13:26:48.000Z</time>
      </trkpt>
      <trkpt lat="42.76223" lon="1.59033">
        <ele>1484</ele>
        <time>2020-01-05T13:26:50.000Z</time>
      </trkpt>
      <trkpt lat="42.76224" lon="1.59033">
        <ele>1484</ele>
        <time>2020-01-05T13:26:52.000Z</time>
      </trkpt>
      <trkpt lat="42.76224" lon="1.59033">
        <ele>1484</ele>
        <time>2020-01-05T13:26:54.000Z</time>
      </trkpt>
      <trkpt lat="42.76224" lon="1.59034">
        <ele>1484</ele>
        <time>2020-01-05T13:26:56.000Z</time>
      </trkpt>
      <trkpt lat="42.76224" lon="1.59034">
        <ele>1484</ele>
        <time>2020-01-05T13:26:58.000Z</time>
      </trkpt>
      <trkpt lat="42.76224" lon="1.59034">
        <ele>1484</ele>
        <time>2020-01-05T13:27:00.000Z</time>
      </trkpt>
      <trkpt lat="42.76223" lon="1.59034">
        <ele>1484</ele>
        <time>2020-01-05T13:27:02.000Z</time>
      </trkpt>
      <trkpt lat="42.76223" lon="1.59034">
        <ele>1484</ele>
        <time>2020-01-05T13:27:04.000Z</time>
      </trkpt>
      <trkpt lat="42.76223" lon="1.59035">
        <ele>1484</ele>
        <time>2020-01-05T13:27:06.000Z</time>
      </trkpt>
      <trkpt lat="42.76223" lon="1.59034">
        <ele>1484</ele>
        <time>2020-01-05T13:27:08.000Z</time>
      </trkpt>
      <trkpt lat="42.76223" lon="1.59034">
        <ele>1484</ele>
        <time>2020-01-05T13:27:10.000Z</time>
      </trkpt>
      <trkpt lat="42.76223" lon="1.59034">
        <ele>1484</ele>
        <time>2020-01-05T13:27:12.000Z</time>
      </trkpt>
      <trkpt lat="42.76223" lon="1.59035">
        <ele>1484</ele>
        <time>2020-01-05T13:27:14.000Z</time>
      </trkpt>
      <trkpt lat="42.76223" lon="1.59035">
        <ele>1484</ele>
        <time>2020-01-05T13:27:16.000Z</time>
      </trkpt>
      <trkpt lat="42.76223" lon="1.59035">
        <ele>1484</ele>
        <time>2020-01-05T13:27:18.000Z</time>
      </trkpt>
      <trkpt lat="42.76223" lon="1.59035">
        <ele>1484</ele>
        <time>2020-01-05T13:27:20.000Z</time>
      </trkpt>
      <trkpt lat="42.76223" lon="1.59035">
        <ele>1484</ele>
        <time>2020-01-05T13:27:22.000Z</time>
      </trkpt>
      <trkpt lat="42.76223" lon="1.59035">
        <ele>1484</ele>
        <time>2020-01-05T13:27:24.000Z</time>
      </trkpt>
      <trkpt lat="42.76223" lon="1.59035">
        <ele>1484</ele>
        <time>2020-01-05T13:27:26.000Z</time>
      </trkpt>
      <trkpt lat="42.76223" lon="1.59035">
        <ele>1484</ele>
        <time>2020-01-05T13:27:28.000Z</time>
      </trkpt>
      <trkpt lat="42.76223" lon="1.59036">
        <ele>1484</ele>
        <time>2020-01-05T13:27:30.000Z</time>
      </trkpt>
      <trkpt lat="42.76223" lon="1.59036">
        <ele>1484</ele>
        <time>2020-01-05T13:27:32.000Z</time>
      </trkpt>
      <trkpt lat="42.76223" lon="1.59035">
        <ele>1484</ele>
        <time>2020-01-05T13:27:34.000Z</time>
      </trkpt>
      <trkpt lat="42.76223" lon="1.59035">
        <ele>1484</ele>
        <time>2020-01-05T13:27:36.000Z</time>
      </trkpt>
      <trkpt lat="42.76223" lon="1.59035">
        <ele>1484</ele>
        <time>2020-01-05T13:27:38.000Z</time>
      </trkpt>
      <trkpt lat="42.76223" lon="1.59034">
        <ele>1484</ele>
        <time>2020-01-05T13:27:40.000Z</time>
      </trkpt>
      <trkpt lat="42.76223" lon="1.59035">
        <ele>1484</ele>
        <time>2020-01-05T13:27:42.000Z</time>
      </trkpt>
      <trkpt lat="42.76223" lon="1.59035">
        <ele>1484</ele>
        <time>2020-01-05T13:27:44.000Z</time>
      </trkpt>
      <trkpt lat="42.76223" lon="1.59035">
        <ele>1484</ele>
        <time>2020-01-05T13:27:46.000Z</time>
      </trkpt>
      <trkpt lat="42.76223" lon="1.59035">
        <ele>1484</ele>
        <time>2020-01-05T13:27:48.000Z</time>
      </trkpt>
      <trkpt lat="42.76223" lon="1.59035">
        <ele>1484</ele>
        <time>2020-01-05T13:27:50.000Z</time>
      </trkpt>
      <trkpt lat="42.76223" lon="1.59035">
        <ele>1484</ele>
        <time>2020-01-05T13:27:52.000Z</time>
      </trkpt>
      <trkpt lat="42.76223" lon="1.59035">
        <ele>1484</ele>
        <time>2020-01-05T13:27:54.000Z</time>
      </trkpt>
      <trkpt lat="42.76223" lon="1.59035">
        <ele>1484</ele>
        <time>2020-01-05T13:27:56.000Z</time>
      </trkpt>
      <trkpt lat="42.76223" lon="1.59035">
        <ele>1484</ele>
        <time>2020-01-05T13:27:58.000Z</time>
      </trkpt>
      <trkpt lat="42.76223" lon="1.59036">
        <ele>1484</ele>
        <time>2020-01-05T13:28:00.000Z</time>
      </trkpt>
      <trkpt lat="42.76223" lon="1.59035">
        <ele>1484</ele>
        <time>2020-01-05T13:28:02.000Z</time>
      </trkpt>
      <trkpt lat="42.76223" lon="1.59034">
        <ele>1484</ele>
        <time>2020-01-05T13:28:04.000Z</time>
      </trkpt>
      <trkpt lat="42.76223" lon="1.59034">
        <ele>1484</ele>
        <time>2020-01-05T13:28:06.000Z</time>
      </trkpt>
      <trkpt lat="42.76222" lon="1.59034">
        <ele>1484</ele>
        <time>2020-01-05T13:28:08.000Z</time>
      </trkpt>
      <trkpt lat="42.76222" lon="1.59033">
        <ele>1484</ele>
        <time>2020-01-05T13:28:10.000Z</time>
      </trkpt>
      <trkpt lat="42.76222" lon="1.59033">
        <ele>1484</ele>
        <time>2020-01-05T13:28:12.000Z</time>
      </trkpt>
      <trkpt lat="42.76222" lon="1.59033">
        <ele>1484</ele>
        <time>2020-01-05T13:28:14.000Z</time>
      </trkpt>
      <trkpt lat="42.76223" lon="1.59033">
        <ele>1484</ele>
        <time>2020-01-05T13:28:16.000Z</time>
      </trkpt>
      <trkpt lat="42.76223" lon="1.59033">
        <ele>1484</ele>
        <time>2020-01-05T13:28:18.000Z</time>
      </trkpt>
      <trkpt lat="42.76223" lon="1.59033">
        <ele>1484</ele>
        <time>2020-01-05T13:28:20.000Z</time>
      </trkpt>
      <trkpt lat="42.76223" lon="1.59033">
        <ele>1484</ele>
        <time>2020-01-05T13:28:22.000Z</time>
      </trkpt>
      <trkpt lat="42.76223" lon="1.59033">
        <ele>1484</ele>
        <time>2020-01-05T13:28:24.000Z</time>
      </trkpt>
      <trkpt lat="42.76223" lon="1.59033">
        <ele>1484</ele>
        <time>2020-01-05T13:28:26.000Z</time>
      </trkpt>
      <trkpt lat="42.76223" lon="1.59032">
        <ele>1484</ele>
        <time>2020-01-05T13:28:28.000Z</time>
      </trkpt>
      <trkpt lat="42.76223" lon="1.59032">
        <ele>1484</ele>
        <time>2020-01-05T13:28:30.000Z</time>
      </trkpt>
      <trkpt lat="42.76223" lon="1.59032">
        <ele>1484</ele>
        <time>2020-01-05T13:28:32.000Z</time>
      </trkpt>
      <trkpt lat="42.76223" lon="1.59033">
        <ele>1484</ele>
        <time>2020-01-05T13:28:34.000Z</time>
      </trkpt>
      <trkpt lat="42.76223" lon="1.59033">
        <ele>1484</ele>
        <time>2020-01-05T13:28:36.000Z</time>
      </trkpt>
      <trkpt lat="42.76223" lon="1.59033">
        <ele>1484</ele>
        <time>2020-01-05T13:28:38.000Z</time>
      </trkpt>
      <trkpt lat="42.76223" lon="1.59034">
        <ele>1484</ele>
        <time>2020-01-05T13:28:40.000Z</time>
      </trkpt>
      <trkpt lat="42.76222" lon="1.59033">
        <ele>1484</ele>
        <time>2020-01-05T13:28:42.000Z</time>
      </trkpt>
      <trkpt lat="42.76222" lon="1.59033">
        <ele>1484</ele>
        <time>2020-01-05T13:28:44.000Z</time>
      </trkpt>
      <trkpt lat="42.76222" lon="1.59033">
        <ele>1484</ele>
        <time>2020-01-05T13:28:46.000Z</time>
      </trkpt>
      <trkpt lat="42.76222" lon="1.59033">
        <ele>1484</ele>
        <time>2020-01-05T13:28:48.000Z</time>
      </trkpt>
      <trkpt lat="42.76222" lon="1.59033">
        <ele>1484</ele>
        <time>2020-01-05T13:28:50.000Z</time>
      </trkpt>
      <trkpt lat="42.76222" lon="1.59033">
        <ele>1484</ele>
        <time>2020-01-05T13:28:52.000Z</time>
      </trkpt>
      <trkpt lat="42.76223" lon="1.59032">
        <ele>1484</ele>
        <time>2020-01-05T13:28:54.000Z</time>
      </trkpt>
      <trkpt lat="42.76223" lon="1.59031">
        <ele>1483</ele>
        <time>2020-01-05T13:28:56.000Z</time>
      </trkpt>
      <trkpt lat="42.76225" lon="1.59029">
        <ele>1483</ele>
        <time>2020-01-05T13:28:58.000Z</time>
      </trkpt>
      <trkpt lat="42.76226" lon="1.59027">
        <ele>1483</ele>
        <time>2020-01-05T13:29:00.000Z</time>
      </trkpt>
      <trkpt lat="42.76228" lon="1.59026">
        <ele>1482</ele>
        <time>2020-01-05T13:29:02.000Z</time>
      </trkpt>
      <trkpt lat="42.7623" lon="1.59025">
        <ele>1482</ele>
        <time>2020-01-05T13:29:04.000Z</time>
      </trkpt>
      <trkpt lat="42.76232" lon="1.59023">
        <ele>1482</ele>
        <time>2020-01-05T13:29:06.000Z</time>
      </trkpt>
      <trkpt lat="42.76233" lon="1.59022">
        <ele>1482</ele>
        <time>2020-01-05T13:29:08.000Z</time>
      </trkpt>
      <trkpt lat="42.76234" lon="1.59021">
        <ele>1481</ele>
        <time>2020-01-05T13:29:10.000Z</time>
      </trkpt>
      <trkpt lat="42.76235" lon="1.59019">
        <ele>1481</ele>
        <time>2020-01-05T13:29:12.000Z</time>
      </trkpt>
      <trkpt lat="42.76237" lon="1.59018">
        <ele>1481</ele>
        <time>2020-01-05T13:29:14.000Z</time>
      </trkpt>
      <trkpt lat="42.76238" lon="1.59016">
        <ele>1480</ele>
        <time>2020-01-05T13:29:16.000Z</time>
      </trkpt>
      <trkpt lat="42.76239" lon="1.59014">
        <ele>1480</ele>
        <time>2020-01-05T13:29:18.000Z</time>
      </trkpt>
      <trkpt lat="42.76241" lon="1.59013">
        <ele>1480</ele>
        <time>2020-01-05T13:29:20.000Z</time>
      </trkpt>
      <trkpt lat="42.76241" lon="1.59012">
        <ele>1480</ele>
        <time>2020-01-05T13:29:22.000Z</time>
      </trkpt>
      <trkpt lat="42.76242" lon="1.59011">
        <ele>1479</ele>
        <time>2020-01-05T13:29:24.000Z</time>
      </trkpt>
      <trkpt lat="42.76243" lon="1.5901">
        <ele>1479</ele>
        <time>2020-01-05T13:29:26.000Z</time>
      </trkpt>
      <trkpt lat="42.76244" lon="1.59009">
        <ele>1479</ele>
        <time>2020-01-05T13:29:28.000Z</time>
      </trkpt>
      <trkpt lat="42.76246" lon="1.59009">
        <ele>1479</ele>
        <time>2020-01-05T13:29:30.000Z</time>
      </trkpt>
      <trkpt lat="42.76247" lon="1.59009">
        <ele>1479</ele>
        <time>2020-01-05T13:29:32.000Z</time>
      </trkpt>
      <trkpt lat="42.76248" lon="1.5901">
        <ele>1479</ele>
        <time>2020-01-05T13:29:34.000Z</time>
      </trkpt>
      <trkpt lat="42.76249" lon="1.5901">
        <ele>1479</ele>
        <time>2020-01-05T13:29:36.000Z</time>
      </trkpt>
      <trkpt lat="42.7625" lon="1.59011">
        <ele>1478</ele>
        <time>2020-01-05T13:29:38.000Z</time>
      </trkpt>
      <trkpt lat="42.76251" lon="1.59011">
        <ele>1478</ele>
        <time>2020-01-05T13:29:40.000Z</time>
      </trkpt>
      <trkpt lat="42.76252" lon="1.5901">
        <ele>1478</ele>
        <time>2020-01-05T13:29:42.000Z</time>
      </trkpt>
      <trkpt lat="42.76253" lon="1.59011">
        <ele>1478</ele>
        <time>2020-01-05T13:29:44.000Z</time>
      </trkpt>
      <trkpt lat="42.76254" lon="1.59011">
        <ele>1478</ele>
        <time>2020-01-05T13:29:46.000Z</time>
      </trkpt>
      <trkpt lat="42.76255" lon="1.5901">
        <ele>1478</ele>
        <time>2020-01-05T13:29:48.000Z</time>
      </trkpt>
      <trkpt lat="42.76256" lon="1.5901">
        <ele>1477</ele>
        <time>2020-01-05T13:29:50.000Z</time>
      </trkpt>
      <trkpt lat="42.76257" lon="1.59009">
        <ele>1477</ele>
        <time>2020-01-05T13:29:52.000Z</time>
      </trkpt>
      <trkpt lat="42.76258" lon="1.59007">
        <ele>1476</ele>
        <time>2020-01-05T13:29:54.000Z</time>
      </trkpt>
      <trkpt lat="42.76259" lon="1.59006">
        <ele>1475</ele>
        <time>2020-01-05T13:29:56.000Z</time>
      </trkpt>
      <trkpt lat="42.7626" lon="1.59005">
        <ele>1475</ele>
        <time>2020-01-05T13:29:58.000Z</time>
      </trkpt>
      <trkpt lat="42.76262" lon="1.59004">
        <ele>1474</ele>
        <time>2020-01-05T13:30:00.000Z</time>
      </trkpt>
      <trkpt lat="42.76263" lon="1.59005">
        <ele>1473</ele>
        <time>2020-01-05T13:30:02.000Z</time>
      </trkpt>
      <trkpt lat="42.76264" lon="1.59004">
        <ele>1473</ele>
        <time>2020-01-05T13:30:04.000Z</time>
      </trkpt>
      <trkpt lat="42.76265" lon="1.59003">
        <ele>1472</ele>
        <time>2020-01-05T13:30:06.000Z</time>
      </trkpt>
      <trkpt lat="42.76267" lon="1.59003">
        <ele>1472</ele>
        <time>2020-01-05T13:30:08.000Z</time>
      </trkpt>
      <trkpt lat="42.76267" lon="1.59003">
        <ele>1472</ele>
        <time>2020-01-05T13:30:10.000Z</time>
      </trkpt>
      <trkpt lat="42.76268" lon="1.59001">
        <ele>1471</ele>
        <time>2020-01-05T13:30:12.000Z</time>
      </trkpt>
      <trkpt lat="42.76269" lon="1.59">
        <ele>1471</ele>
        <time>2020-01-05T13:30:14.000Z</time>
      </trkpt>
      <trkpt lat="42.7627" lon="1.58999">
        <ele>1470</ele>
        <time>2020-01-05T13:30:16.000Z</time>
      </trkpt>
      <trkpt lat="42.76271" lon="1.58999">
        <ele>1470</ele>
        <time>2020-01-05T13:30:18.000Z</time>
      </trkpt>
      <trkpt lat="42.76272" lon="1.58999">
        <ele>1470</ele>
        <time>2020-01-05T13:30:20.000Z</time>
      </trkpt>
      <trkpt lat="42.76272" lon="1.58999">
        <ele>1470</ele>
        <time>2020-01-05T13:30:22.000Z</time>
      </trkpt>
      <trkpt lat="42.76273" lon="1.58998">
        <ele>1469</ele>
        <time>2020-01-05T13:30:24.000Z</time>
      </trkpt>
      <trkpt lat="42.76275" lon="1.58997">
        <ele>1469</ele>
        <time>2020-01-05T13:30:26.000Z</time>
      </trkpt>
      <trkpt lat="42.76276" lon="1.58998">
        <ele>1469</ele>
        <time>2020-01-05T13:30:28.000Z</time>
      </trkpt>
      <trkpt lat="42.76277" lon="1.58998">
        <ele>1468</ele>
        <time>2020-01-05T13:30:30.000Z</time>
      </trkpt>
      <trkpt lat="42.76277" lon="1.58996">
        <ele>1468</ele>
        <time>2020-01-05T13:30:32.000Z</time>
      </trkpt>
      <trkpt lat="42.76278" lon="1.58995">
        <ele>1468</ele>
        <time>2020-01-05T13:30:34.000Z</time>
      </trkpt>
      <trkpt lat="42.76279" lon="1.58994">
        <ele>1468</ele>
        <time>2020-01-05T13:30:36.000Z</time>
      </trkpt>
      <trkpt lat="42.7628" lon="1.58994">
        <ele>1467</ele>
        <time>2020-01-05T13:30:38.000Z</time>
      </trkpt>
      <trkpt lat="42.76281" lon="1.58993">
        <ele>1467</ele>
        <time>2020-01-05T13:30:40.000Z</time>
      </trkpt>
      <trkpt lat="42.76283" lon="1.58992">
        <ele>1467</ele>
        <time>2020-01-05T13:30:42.000Z</time>
      </trkpt>
      <trkpt lat="42.76285" lon="1.58991">
        <ele>1466</ele>
        <time>2020-01-05T13:30:44.000Z</time>
      </trkpt>
      <trkpt lat="42.76287" lon="1.58991">
        <ele>1466</ele>
        <time>2020-01-05T13:30:46.000Z</time>
      </trkpt>
      <trkpt lat="42.76288" lon="1.58992">
        <ele>1465</ele>
        <time>2020-01-05T13:30:48.000Z</time>
      </trkpt>
      <trkpt lat="42.76289" lon="1.58991">
        <ele>1465</ele>
        <time>2020-01-05T13:30:50.000Z</time>
      </trkpt>
      <trkpt lat="42.7629" lon="1.58989">
        <ele>1465</ele>
        <time>2020-01-05T13:30:52.000Z</time>
      </trkpt>
      <trkpt lat="42.7629" lon="1.58988">
        <ele>1465</ele>
        <time>2020-01-05T13:30:54.000Z</time>
      </trkpt>
      <trkpt lat="42.76292" lon="1.58987">
        <ele>1464</ele>
        <time>2020-01-05T13:30:56.000Z</time>
      </trkpt>
      <trkpt lat="42.76293" lon="1.58986">
        <ele>1464</ele>
        <time>2020-01-05T13:30:58.000Z</time>
      </trkpt>
      <trkpt lat="42.76294" lon="1.58985">
        <ele>1464</ele>
        <time>2020-01-05T13:31:00.000Z</time>
      </trkpt>
      <trkpt lat="42.76296" lon="1.58984">
        <ele>1463</ele>
        <time>2020-01-05T13:31:02.000Z</time>
      </trkpt>
      <trkpt lat="42.76297" lon="1.58983">
        <ele>1462</ele>
        <time>2020-01-05T13:31:04.000Z</time>
      </trkpt>
      <trkpt lat="42.76299" lon="1.58982">
        <ele>1461</ele>
        <time>2020-01-05T13:31:06.000Z</time>
      </trkpt>
      <trkpt lat="42.76301" lon="1.58982">
        <ele>1461</ele>
        <time>2020-01-05T13:31:08.000Z</time>
      </trkpt>
      <trkpt lat="42.76303" lon="1.58982">
        <ele>1460</ele>
        <time>2020-01-05T13:31:10.000Z</time>
      </trkpt>
      <trkpt lat="42.76304" lon="1.58982">
        <ele>1460</ele>
        <time>2020-01-05T13:31:12.000Z</time>
      </trkpt>
      <trkpt lat="42.76306" lon="1.5898">
        <ele>1459</ele>
        <time>2020-01-05T13:31:14.000Z</time>
      </trkpt>
      <trkpt lat="42.76308" lon="1.5898">
        <ele>1458</ele>
        <time>2020-01-05T13:31:16.000Z</time>
      </trkpt>
      <trkpt lat="42.76309" lon="1.5898">
        <ele>1457</ele>
        <time>2020-01-05T13:31:18.000Z</time>
      </trkpt>
      <trkpt lat="42.76311" lon="1.58979">
        <ele>1457</ele>
        <time>2020-01-05T13:31:20.000Z</time>
      </trkpt>
      <trkpt lat="42.76312" lon="1.58978">
        <ele>1456</ele>
        <time>2020-01-05T13:31:22.000Z</time>
      </trkpt>
      <trkpt lat="42.76313" lon="1.58977">
        <ele>1455</ele>
        <time>2020-01-05T13:31:24.000Z</time>
      </trkpt>
      <trkpt lat="42.76315" lon="1.58977">
        <ele>1455</ele>
        <time>2020-01-05T13:31:26.000Z</time>
      </trkpt>
      <trkpt lat="42.76316" lon="1.58978">
        <ele>1455</ele>
        <time>2020-01-05T13:31:28.000Z</time>
      </trkpt>
      <trkpt lat="42.76318" lon="1.5898">
        <ele>1455</ele>
        <time>2020-01-05T13:31:30.000Z</time>
      </trkpt>
      <trkpt lat="42.76319" lon="1.58981">
        <ele>1455</ele>
        <time>2020-01-05T13:31:32.000Z</time>
      </trkpt>
      <trkpt lat="42.76319" lon="1.58981">
        <ele>1455</ele>
        <time>2020-01-05T13:31:34.000Z</time>
      </trkpt>
      <trkpt lat="42.76321" lon="1.58981">
        <ele>1454</ele>
        <time>2020-01-05T13:31:36.000Z</time>
      </trkpt>
      <trkpt lat="42.76323" lon="1.5898">
        <ele>1453</ele>
        <time>2020-01-05T13:31:38.000Z</time>
      </trkpt>
      <trkpt lat="42.76324" lon="1.5898">
        <ele>1453</ele>
        <time>2020-01-05T13:31:40.000Z</time>
      </trkpt>
      <trkpt lat="42.76326" lon="1.5898">
        <ele>1452</ele>
        <time>2020-01-05T13:31:42.000Z</time>
      </trkpt>
      <trkpt lat="42.76328" lon="1.58979">
        <ele>1451</ele>
        <time>2020-01-05T13:31:44.000Z</time>
      </trkpt>
      <trkpt lat="42.7633" lon="1.58979">
        <ele>1451</ele>
        <time>2020-01-05T13:31:46.000Z</time>
      </trkpt>
      <trkpt lat="42.76332" lon="1.58978">
        <ele>1450</ele>
        <time>2020-01-05T13:31:48.000Z</time>
      </trkpt>
      <trkpt lat="42.76333" lon="1.58977">
        <ele>1449</ele>
        <time>2020-01-05T13:31:50.000Z</time>
      </trkpt>
      <trkpt lat="42.76335" lon="1.58975">
        <ele>1449</ele>
        <time>2020-01-05T13:31:52.000Z</time>
      </trkpt>
      <trkpt lat="42.76337" lon="1.58973">
        <ele>1448</ele>
        <time>2020-01-05T13:31:54.000Z</time>
      </trkpt>
      <trkpt lat="42.76339" lon="1.58973">
        <ele>1447</ele>
        <time>2020-01-05T13:31:56.000Z</time>
      </trkpt>
      <trkpt lat="42.76341" lon="1.58971">
        <ele>1446</ele>
        <time>2020-01-05T13:31:58.000Z</time>
      </trkpt>
      <trkpt lat="42.76343" lon="1.58971">
        <ele>1445</ele>
        <time>2020-01-05T13:32:00.000Z</time>
      </trkpt>
      <trkpt lat="42.76345" lon="1.58971">
        <ele>1445</ele>
        <time>2020-01-05T13:32:02.000Z</time>
      </trkpt>
      <trkpt lat="42.76346" lon="1.58971">
        <ele>1444</ele>
        <time>2020-01-05T13:32:04.000Z</time>
      </trkpt>
      <trkpt lat="42.76347" lon="1.58969">
        <ele>1444</ele>
        <time>2020-01-05T13:32:06.000Z</time>
      </trkpt>
      <trkpt lat="42.76348" lon="1.58968">
        <ele>1443</ele>
        <time>2020-01-05T13:32:08.000Z</time>
      </trkpt>
      <trkpt lat="42.7635" lon="1.58966">
        <ele>1442</ele>
        <time>2020-01-05T13:32:10.000Z</time>
      </trkpt>
      <trkpt lat="42.76351" lon="1.58966">
        <ele>1441</ele>
        <time>2020-01-05T13:32:12.000Z</time>
      </trkpt>
      <trkpt lat="42.76354" lon="1.58964">
        <ele>1440</ele>
        <time>2020-01-05T13:32:14.000Z</time>
      </trkpt>
      <trkpt lat="42.76355" lon="1.58963">
        <ele>1440</ele>
        <time>2020-01-05T13:32:16.000Z</time>
      </trkpt>
      <trkpt lat="42.76357" lon="1.58962">
        <ele>1439</ele>
        <time>2020-01-05T13:32:18.000Z</time>
      </trkpt>
      <trkpt lat="42.76359" lon="1.58962">
        <ele>1438</ele>
        <time>2020-01-05T13:32:20.000Z</time>
      </trkpt>
      <trkpt lat="42.7636" lon="1.58961">
        <ele>1438</ele>
        <time>2020-01-05T13:32:22.000Z</time>
      </trkpt>
      <trkpt lat="42.76362" lon="1.5896">
        <ele>1437</ele>
        <time>2020-01-05T13:32:24.000Z</time>
      </trkpt>
      <trkpt lat="42.76363" lon="1.5896">
        <ele>1436</ele>
        <time>2020-01-05T13:32:26.000Z</time>
      </trkpt>
      <trkpt lat="42.76365" lon="1.58958">
        <ele>1435</ele>
        <time>2020-01-05T13:32:28.000Z</time>
      </trkpt>
      <trkpt lat="42.76367" lon="1.58957">
        <ele>1435</ele>
        <time>2020-01-05T13:32:30.000Z</time>
      </trkpt>
      <trkpt lat="42.76368" lon="1.58957">
        <ele>1434</ele>
        <time>2020-01-05T13:32:32.000Z</time>
      </trkpt>
      <trkpt lat="42.7637" lon="1.58956">
        <ele>1433</ele>
        <time>2020-01-05T13:32:34.000Z</time>
      </trkpt>
      <trkpt lat="42.76372" lon="1.58956">
        <ele>1433</ele>
        <time>2020-01-05T13:32:36.000Z</time>
      </trkpt>
      <trkpt lat="42.76373" lon="1.58955">
        <ele>1432</ele>
        <time>2020-01-05T13:32:38.000Z</time>
      </trkpt>
      <trkpt lat="42.76375" lon="1.58955">
        <ele>1432</ele>
        <time>2020-01-05T13:32:40.000Z</time>
      </trkpt>
      <trkpt lat="42.76377" lon="1.58955">
        <ele>1431</ele>
        <time>2020-01-05T13:32:42.000Z</time>
      </trkpt>
      <trkpt lat="42.76378" lon="1.58955">
        <ele>1431</ele>
        <time>2020-01-05T13:32:44.000Z</time>
      </trkpt>
      <trkpt lat="42.7638" lon="1.58955">
        <ele>1430</ele>
        <time>2020-01-05T13:32:46.000Z</time>
      </trkpt>
      <trkpt lat="42.76381" lon="1.58955">
        <ele>1429</ele>
        <time>2020-01-05T13:32:48.000Z</time>
      </trkpt>
      <trkpt lat="42.76383" lon="1.58954">
        <ele>1429</ele>
        <time>2020-01-05T13:32:50.000Z</time>
      </trkpt>
      <trkpt lat="42.76385" lon="1.58953">
        <ele>1428</ele>
        <time>2020-01-05T13:32:52.000Z</time>
      </trkpt>
      <trkpt lat="42.76386" lon="1.58953">
        <ele>1428</ele>
        <time>2020-01-05T13:32:54.000Z</time>
      </trkpt>
      <trkpt lat="42.76387" lon="1.58952">
        <ele>1427</ele>
        <time>2020-01-05T13:32:56.000Z</time>
      </trkpt>
      <trkpt lat="42.76389" lon="1.58952">
        <ele>1426</ele>
        <time>2020-01-05T13:32:58.000Z</time>
      </trkpt>
      <trkpt lat="42.7639" lon="1.58951">
        <ele>1426</ele>
        <time>2020-01-05T13:33:00.000Z</time>
      </trkpt>
      <trkpt lat="42.76391" lon="1.58951">
        <ele>1426</ele>
        <time>2020-01-05T13:33:02.000Z</time>
      </trkpt>
      <trkpt lat="42.76392" lon="1.5895">
        <ele>1425</ele>
        <time>2020-01-05T13:33:04.000Z</time>
      </trkpt>
      <trkpt lat="42.76394" lon="1.58949">
        <ele>1425</ele>
        <time>2020-01-05T13:33:06.000Z</time>
      </trkpt>
      <trkpt lat="42.76395" lon="1.58949">
        <ele>1425</ele>
        <time>2020-01-05T13:33:08.000Z</time>
      </trkpt>
      <trkpt lat="42.76396" lon="1.58949">
        <ele>1424</ele>
        <time>2020-01-05T13:33:10.000Z</time>
      </trkpt>
      <trkpt lat="42.76398" lon="1.58951">
        <ele>1424</ele>
        <time>2020-01-05T13:33:12.000Z</time>
      </trkpt>
      <trkpt lat="42.76399" lon="1.58952">
        <ele>1424</ele>
        <time>2020-01-05T13:33:14.000Z</time>
      </trkpt>
      <trkpt lat="42.764" lon="1.58953">
        <ele>1424</ele>
        <time>2020-01-05T13:33:16.000Z</time>
      </trkpt>
      <trkpt lat="42.764" lon="1.58953">
        <ele>1424</ele>
        <time>2020-01-05T13:33:18.000Z</time>
      </trkpt>
      <trkpt lat="42.76401" lon="1.58953">
        <ele>1424</ele>
        <time>2020-01-05T13:33:20.000Z</time>
      </trkpt>
      <trkpt lat="42.76401" lon="1.58952">
        <ele>1424</ele>
        <time>2020-01-05T13:33:22.000Z</time>
      </trkpt>
      <trkpt lat="42.76401" lon="1.5895">
        <ele>1423</ele>
        <time>2020-01-05T13:33:24.000Z</time>
      </trkpt>
      <trkpt lat="42.76401" lon="1.58949">
        <ele>1423</ele>
        <time>2020-01-05T13:33:26.000Z</time>
      </trkpt>
      <trkpt lat="42.76402" lon="1.58948">
        <ele>1423</ele>
        <time>2020-01-05T13:33:28.000Z</time>
      </trkpt>
      <trkpt lat="42.76402" lon="1.58947">
        <ele>1423</ele>
        <time>2020-01-05T13:33:30.000Z</time>
      </trkpt>
      <trkpt lat="42.76401" lon="1.58945">
        <ele>1423</ele>
        <time>2020-01-05T13:33:32.000Z</time>
      </trkpt>
      <trkpt lat="42.76401" lon="1.58944">
        <ele>1423</ele>
        <time>2020-01-05T13:33:34.000Z</time>
      </trkpt>
      <trkpt lat="42.76401" lon="1.58943">
        <ele>1423</ele>
        <time>2020-01-05T13:33:36.000Z</time>
      </trkpt>
      <trkpt lat="42.76401" lon="1.58941">
        <ele>1422</ele>
        <time>2020-01-05T13:33:38.000Z</time>
      </trkpt>
      <trkpt lat="42.764" lon="1.5894">
        <ele>1422</ele>
        <time>2020-01-05T13:33:40.000Z</time>
      </trkpt>
      <trkpt lat="42.764" lon="1.58939">
        <ele>1422</ele>
        <time>2020-01-05T13:33:42.000Z</time>
      </trkpt>
      <trkpt lat="42.764" lon="1.58938">
        <ele>1422</ele>
        <time>2020-01-05T13:33:44.000Z</time>
      </trkpt>
      <trkpt lat="42.764" lon="1.58937">
        <ele>1422</ele>
        <time>2020-01-05T13:33:46.000Z</time>
      </trkpt>
      <trkpt lat="42.76399" lon="1.58935">
        <ele>1422</ele>
        <time>2020-01-05T13:33:48.000Z</time>
      </trkpt>
      <trkpt lat="42.76399" lon="1.58935">
        <ele>1422</ele>
        <time>2020-01-05T13:33:50.000Z</time>
      </trkpt>
      <trkpt lat="42.76399" lon="1.58934">
        <ele>1422</ele>
        <time>2020-01-05T13:33:52.000Z</time>
      </trkpt>
      <trkpt lat="42.76399" lon="1.58932">
        <ele>1422</ele>
        <time>2020-01-05T13:33:54.000Z</time>
      </trkpt>
      <trkpt lat="42.76399" lon="1.58931">
        <ele>1422</ele>
        <time>2020-01-05T13:33:56.000Z</time>
      </trkpt>
      <trkpt lat="42.76398" lon="1.58931">
        <ele>1422</ele>
        <time>2020-01-05T13:33:58.000Z</time>
      </trkpt>
      <trkpt lat="42.76398" lon="1.58929">
        <ele>1422</ele>
        <time>2020-01-05T13:34:00.000Z</time>
      </trkpt>
      <trkpt lat="42.76398" lon="1.58928">
        <ele>1422</ele>
        <time>2020-01-05T13:34:02.000Z</time>
      </trkpt>
      <trkpt lat="42.76397" lon="1.58927">
        <ele>1422</ele>
        <time>2020-01-05T13:34:04.000Z</time>
      </trkpt>
      <trkpt lat="42.76395" lon="1.58927">
        <ele>1422</ele>
        <time>2020-01-05T13:34:06.000Z</time>
      </trkpt>
      <trkpt lat="42.76394" lon="1.58926">
        <ele>1422</ele>
        <time>2020-01-05T13:34:08.000Z</time>
      </trkpt>
      <trkpt lat="42.76393" lon="1.58924">
        <ele>1422</ele>
        <time>2020-01-05T13:34:10.000Z</time>
      </trkpt>
      <trkpt lat="42.76393" lon="1.58923">
        <ele>1422</ele>
        <time>2020-01-05T13:34:12.000Z</time>
      </trkpt>
      <trkpt lat="42.76394" lon="1.58922">
        <ele>1422</ele>
        <time>2020-01-05T13:34:14.000Z</time>
      </trkpt>
      <trkpt lat="42.76393" lon="1.58922">
        <ele>1422</ele>
        <time>2020-01-05T13:34:16.000Z</time>
      </trkpt>
      <trkpt lat="42.76394" lon="1.58921">
        <ele>1422</ele>
        <time>2020-01-05T13:34:18.000Z</time>
      </trkpt>
      <trkpt lat="42.76394" lon="1.5892">
        <ele>1421</ele>
        <time>2020-01-05T13:34:20.000Z</time>
      </trkpt>
      <trkpt lat="42.76394" lon="1.5892">
        <ele>1421</ele>
        <time>2020-01-05T13:34:22.000Z</time>
      </trkpt>
      <trkpt lat="42.76394" lon="1.58918">
        <ele>1421</ele>
        <time>2020-01-05T13:34:24.000Z</time>
      </trkpt>
      <trkpt lat="42.76394" lon="1.58916">
        <ele>1421</ele>
        <time>2020-01-05T13:34:26.000Z</time>
      </trkpt>
      <trkpt lat="42.76394" lon="1.58915">
        <ele>1421</ele>
        <time>2020-01-05T13:34:28.000Z</time>
      </trkpt>
      <trkpt lat="42.76394" lon="1.58913">
        <ele>1421</ele>
        <time>2020-01-05T13:34:30.000Z</time>
      </trkpt>
      <trkpt lat="42.76396" lon="1.58912">
        <ele>1420</ele>
        <time>2020-01-05T13:34:32.000Z</time>
      </trkpt>
      <trkpt lat="42.76397" lon="1.58911">
        <ele>1420</ele>
        <time>2020-01-05T13:34:34.000Z</time>
      </trkpt>
      <trkpt lat="42.76398" lon="1.58911">
        <ele>1419</ele>
        <time>2020-01-05T13:34:36.000Z</time>
      </trkpt>
      <trkpt lat="42.76398" lon="1.5891">
        <ele>1419</ele>
        <time>2020-01-05T13:34:38.000Z</time>
      </trkpt>
      <trkpt lat="42.76399" lon="1.5891">
        <ele>1419</ele>
        <time>2020-01-05T13:34:40.000Z</time>
      </trkpt>
      <trkpt lat="42.76399" lon="1.58909">
        <ele>1419</ele>
        <time>2020-01-05T13:34:42.000Z</time>
      </trkpt>
      <trkpt lat="42.76399" lon="1.58908">
        <ele>1419</ele>
        <time>2020-01-05T13:34:44.000Z</time>
      </trkpt>
      <trkpt lat="42.764" lon="1.58906">
        <ele>1418</ele>
        <time>2020-01-05T13:34:46.000Z</time>
      </trkpt>
      <trkpt lat="42.764" lon="1.58906">
        <ele>1418</ele>
        <time>2020-01-05T13:34:48.000Z</time>
      </trkpt>
      <trkpt lat="42.76402" lon="1.58906">
        <ele>1418</ele>
        <time>2020-01-05T13:34:50.000Z</time>
      </trkpt>
      <trkpt lat="42.76403" lon="1.58906">
        <ele>1418</ele>
        <time>2020-01-05T13:34:52.000Z</time>
      </trkpt>
      <trkpt lat="42.76403" lon="1.58906">
        <ele>1418</ele>
        <time>2020-01-05T13:34:54.000Z</time>
      </trkpt>
      <trkpt lat="42.76404" lon="1.58906">
        <ele>1417</ele>
        <time>2020-01-05T13:34:56.000Z</time>
      </trkpt>
      <trkpt lat="42.76406" lon="1.58905">
        <ele>1417</ele>
        <time>2020-01-05T13:34:58.000Z</time>
      </trkpt>
      <trkpt lat="42.76407" lon="1.58906">
        <ele>1417</ele>
        <time>2020-01-05T13:35:00.000Z</time>
      </trkpt>
      <trkpt lat="42.76408" lon="1.58906">
        <ele>1416</ele>
        <time>2020-01-05T13:35:02.000Z</time>
      </trkpt>
      <trkpt lat="42.76409" lon="1.58906">
        <ele>1416</ele>
        <time>2020-01-05T13:35:04.000Z</time>
      </trkpt>
      <trkpt lat="42.7641" lon="1.58906">
        <ele>1416</ele>
        <time>2020-01-05T13:35:06.000Z</time>
      </trkpt>
      <trkpt lat="42.76412" lon="1.58906">
        <ele>1416</ele>
        <time>2020-01-05T13:35:08.000Z</time>
      </trkpt>
      <trkpt lat="42.76412" lon="1.58907">
        <ele>1416</ele>
        <time>2020-01-05T13:35:10.000Z</time>
      </trkpt>
      <trkpt lat="42.76413" lon="1.58906">
        <ele>1415</ele>
        <time>2020-01-05T13:35:12.000Z</time>
      </trkpt>
      <trkpt lat="42.76415" lon="1.58905">
        <ele>1415</ele>
        <time>2020-01-05T13:35:14.000Z</time>
      </trkpt>
      <trkpt lat="42.76416" lon="1.58906">
        <ele>1415</ele>
        <time>2020-01-05T13:35:16.000Z</time>
      </trkpt>
      <trkpt lat="42.76417" lon="1.58905">
        <ele>1414</ele>
        <time>2020-01-05T13:35:18.000Z</time>
      </trkpt>
      <trkpt lat="42.76419" lon="1.58905">
        <ele>1414</ele>
        <time>2020-01-05T13:35:20.000Z</time>
      </trkpt>
      <trkpt lat="42.7642" lon="1.58905">
        <ele>1414</ele>
        <time>2020-01-05T13:35:22.000Z</time>
      </trkpt>
      <trkpt lat="42.76421" lon="1.58905">
        <ele>1413</ele>
        <time>2020-01-05T13:35:24.000Z</time>
      </trkpt>
      <trkpt lat="42.76421" lon="1.58905">
        <ele>1413</ele>
        <time>2020-01-05T13:35:26.000Z</time>
      </trkpt>
      <trkpt lat="42.76422" lon="1.58904">
        <ele>1413</ele>
        <time>2020-01-05T13:35:28.000Z</time>
      </trkpt>
      <trkpt lat="42.76423" lon="1.58903">
        <ele>1413</ele>
        <time>2020-01-05T13:35:30.000Z</time>
      </trkpt>
      <trkpt lat="42.76424" lon="1.58901">
        <ele>1412</ele>
        <time>2020-01-05T13:35:32.000Z</time>
      </trkpt>
      <trkpt lat="42.76424" lon="1.589">
        <ele>1412</ele>
        <time>2020-01-05T13:35:34.000Z</time>
      </trkpt>
      <trkpt lat="42.76425" lon="1.58899">
        <ele>1411</ele>
        <time>2020-01-05T13:35:36.000Z</time>
      </trkpt>
      <trkpt lat="42.76425" lon="1.58898">
        <ele>1411</ele>
        <time>2020-01-05T13:35:38.000Z</time>
      </trkpt>
      <trkpt lat="42.76426" lon="1.58897">
        <ele>1410</ele>
        <time>2020-01-05T13:35:40.000Z</time>
      </trkpt>
      <trkpt lat="42.76427" lon="1.58897">
        <ele>1410</ele>
        <time>2020-01-05T13:35:42.000Z</time>
      </trkpt>
      <trkpt lat="42.76428" lon="1.58897">
        <ele>1410</ele>
        <time>2020-01-05T13:35:44.000Z</time>
      </trkpt>
      <trkpt lat="42.7643" lon="1.58898">
        <ele>1409</ele>
        <time>2020-01-05T13:35:46.000Z</time>
      </trkpt>
      <trkpt lat="42.76432" lon="1.58899">
        <ele>1409</ele>
        <time>2020-01-05T13:35:48.000Z</time>
      </trkpt>
      <trkpt lat="42.76433" lon="1.58901">
        <ele>1409</ele>
        <time>2020-01-05T13:35:50.000Z</time>
      </trkpt>
      <trkpt lat="42.76435" lon="1.58904">
        <ele>1409</ele>
        <time>2020-01-05T13:35:52.000Z</time>
      </trkpt>
      <trkpt lat="42.76436" lon="1.58906">
        <ele>1409</ele>
        <time>2020-01-05T13:35:54.000Z</time>
      </trkpt>
      <trkpt lat="42.76437" lon="1.58908">
        <ele>1409</ele>
        <time>2020-01-05T13:35:56.000Z</time>
      </trkpt>
      <trkpt lat="42.76438" lon="1.58909">
        <ele>1409</ele>
        <time>2020-01-05T13:35:58.000Z</time>
      </trkpt>
      <trkpt lat="42.76439" lon="1.5891">
        <ele>1408</ele>
        <time>2020-01-05T13:36:00.000Z</time>
      </trkpt>
      <trkpt lat="42.76441" lon="1.58912">
        <ele>1408</ele>
        <time>2020-01-05T13:36:02.000Z</time>
      </trkpt>
      <trkpt lat="42.76443" lon="1.58913">
        <ele>1408</ele>
        <time>2020-01-05T13:36:04.000Z</time>
      </trkpt>
      <trkpt lat="42.76444" lon="1.58915">
        <ele>1407</ele>
        <time>2020-01-05T13:36:06.000Z</time>
      </trkpt>
      <trkpt lat="42.76445" lon="1.58916">
        <ele>1407</ele>
        <time>2020-01-05T13:36:08.000Z</time>
      </trkpt>
      <trkpt lat="42.76446" lon="1.58916">
        <ele>1407</ele>
        <time>2020-01-05T13:36:10.000Z</time>
      </trkpt>
      <trkpt lat="42.76447" lon="1.58917">
        <ele>1407</ele>
        <time>2020-01-05T13:36:12.000Z</time>
      </trkpt>
      <trkpt lat="42.76449" lon="1.58918">
        <ele>1406</ele>
        <time>2020-01-05T13:36:14.000Z</time>
      </trkpt>
      <trkpt lat="42.76449" lon="1.58919">
        <ele>1406</ele>
        <time>2020-01-05T13:36:16.000Z</time>
      </trkpt>
      <trkpt lat="42.7645" lon="1.5892">
        <ele>1406</ele>
        <time>2020-01-05T13:36:18.000Z</time>
      </trkpt>
      <trkpt lat="42.76452" lon="1.58921">
        <ele>1406</ele>
        <time>2020-01-05T13:36:20.000Z</time>
      </trkpt>
      <trkpt lat="42.76453" lon="1.58922">
        <ele>1406</ele>
        <time>2020-01-05T13:36:22.000Z</time>
      </trkpt>
      <trkpt lat="42.76453" lon="1.58925">
        <ele>1406</ele>
        <time>2020-01-05T13:36:24.000Z</time>
      </trkpt>
      <trkpt lat="42.76454" lon="1.58928">
        <ele>1406</ele>
        <time>2020-01-05T13:36:26.000Z</time>
      </trkpt>
      <trkpt lat="42.76455" lon="1.58931">
        <ele>1406</ele>
        <time>2020-01-05T13:36:28.000Z</time>
      </trkpt>
      <trkpt lat="42.76456" lon="1.58933">
        <ele>1405</ele>
        <time>2020-01-05T13:36:30.000Z</time>
      </trkpt>
      <trkpt lat="42.76457" lon="1.58935">
        <ele>1405</ele>
        <time>2020-01-05T13:36:32.000Z</time>
      </trkpt>
      <trkpt lat="42.76458" lon="1.58937">
        <ele>1405</ele>
        <time>2020-01-05T13:36:34.000Z</time>
      </trkpt>
      <trkpt lat="42.76459" lon="1.58937">
        <ele>1405</ele>
        <time>2020-01-05T13:36:36.000Z</time>
      </trkpt>
      <trkpt lat="42.7646" lon="1.58938">
        <ele>1405</ele>
        <time>2020-01-05T13:36:38.000Z</time>
      </trkpt>
      <trkpt lat="42.76461" lon="1.58939">
        <ele>1405</ele>
        <time>2020-01-05T13:36:40.000Z</time>
      </trkpt>
      <trkpt lat="42.76464" lon="1.58941">
        <ele>1404</ele>
        <time>2020-01-05T13:36:42.000Z</time>
      </trkpt>
      <trkpt lat="42.76466" lon="1.58942">
        <ele>1403</ele>
        <time>2020-01-05T13:36:44.000Z</time>
      </trkpt>
      <trkpt lat="42.76468" lon="1.58942">
        <ele>1403</ele>
        <time>2020-01-05T13:36:46.000Z</time>
      </trkpt>
      <trkpt lat="42.7647" lon="1.58943">
        <ele>1402</ele>
        <time>2020-01-05T13:36:48.000Z</time>
      </trkpt>
      <trkpt lat="42.76473" lon="1.58944">
        <ele>1402</ele>
        <time>2020-01-05T13:36:50.000Z</time>
      </trkpt>
      <trkpt lat="42.76474" lon="1.58945">
        <ele>1401</ele>
        <time>2020-01-05T13:36:52.000Z</time>
      </trkpt>
      <trkpt lat="42.76475" lon="1.58946">
        <ele>1401</ele>
        <time>2020-01-05T13:36:54.000Z</time>
      </trkpt>
      <trkpt lat="42.76477" lon="1.58947">
        <ele>1401</ele>
        <time>2020-01-05T13:36:56.000Z</time>
      </trkpt>
      <trkpt lat="42.76479" lon="1.58947">
        <ele>1400</ele>
        <time>2020-01-05T13:36:58.000Z</time>
      </trkpt>
      <trkpt lat="42.76481" lon="1.58946">
        <ele>1399</ele>
        <time>2020-01-05T13:37:00.000Z</time>
      </trkpt>
      <trkpt lat="42.76482" lon="1.58945">
        <ele>1399</ele>
        <time>2020-01-05T13:37:02.000Z</time>
      </trkpt>
      <trkpt lat="42.76483" lon="1.58942">
        <ele>1399</ele>
        <time>2020-01-05T13:37:04.000Z</time>
      </trkpt>
      <trkpt lat="42.76483" lon="1.5894">
        <ele>1398</ele>
        <time>2020-01-05T13:37:06.000Z</time>
      </trkpt>
      <trkpt lat="42.76483" lon="1.58937">
        <ele>1398</ele>
        <time>2020-01-05T13:37:08.000Z</time>
      </trkpt>
      <trkpt lat="42.76482" lon="1.58934">
        <ele>1398</ele>
        <time>2020-01-05T13:37:10.000Z</time>
      </trkpt>
      <trkpt lat="42.76481" lon="1.58931">
        <ele>1398</ele>
        <time>2020-01-05T13:37:12.000Z</time>
      </trkpt>
      <trkpt lat="42.76479" lon="1.58929">
        <ele>1398</ele>
        <time>2020-01-05T13:37:14.000Z</time>
      </trkpt>
      <trkpt lat="42.76479" lon="1.58927">
        <ele>1398</ele>
        <time>2020-01-05T13:37:16.000Z</time>
      </trkpt>
      <trkpt lat="42.76477" lon="1.58926">
        <ele>1398</ele>
        <time>2020-01-05T13:37:18.000Z</time>
      </trkpt>
      <trkpt lat="42.76478" lon="1.58924">
        <ele>1398</ele>
        <time>2020-01-05T13:37:20.000Z</time>
      </trkpt>
      <trkpt lat="42.76478" lon="1.58922">
        <ele>1398</ele>
        <time>2020-01-05T13:37:22.000Z</time>
      </trkpt>
      <trkpt lat="42.76479" lon="1.5892">
        <ele>1397</ele>
        <time>2020-01-05T13:37:24.000Z</time>
      </trkpt>
      <trkpt lat="42.76479" lon="1.58919">
        <ele>1397</ele>
        <time>2020-01-05T13:37:26.000Z</time>
      </trkpt>
      <trkpt lat="42.76479" lon="1.58917">
        <ele>1397</ele>
        <time>2020-01-05T13:37:28.000Z</time>
      </trkpt>
      <trkpt lat="42.7648" lon="1.58915">
        <ele>1397</ele>
        <time>2020-01-05T13:37:30.000Z</time>
      </trkpt>
      <trkpt lat="42.7648" lon="1.58912">
        <ele>1396</ele>
        <time>2020-01-05T13:37:32.000Z</time>
      </trkpt>
      <trkpt lat="42.76481" lon="1.58911">
        <ele>1396</ele>
        <time>2020-01-05T13:37:34.000Z</time>
      </trkpt>
      <trkpt lat="42.76481" lon="1.58909">
        <ele>1396</ele>
        <time>2020-01-05T13:37:36.000Z</time>
      </trkpt>
      <trkpt lat="42.76481" lon="1.58907">
        <ele>1396</ele>
        <time>2020-01-05T13:37:38.000Z</time>
      </trkpt>
      <trkpt lat="42.76481" lon="1.58906">
        <ele>1395</ele>
        <time>2020-01-05T13:37:40.000Z</time>
      </trkpt>
      <trkpt lat="42.76482" lon="1.58904">
        <ele>1395</ele>
        <time>2020-01-05T13:37:42.000Z</time>
      </trkpt>
      <trkpt lat="42.76482" lon="1.58902">
        <ele>1395</ele>
        <time>2020-01-05T13:37:44.000Z</time>
      </trkpt>
      <trkpt lat="42.76482" lon="1.589">
        <ele>1394</ele>
        <time>2020-01-05T13:37:46.000Z</time>
      </trkpt>
      <trkpt lat="42.76482" lon="1.58898">
        <ele>1394</ele>
        <time>2020-01-05T13:37:48.000Z</time>
      </trkpt>
      <trkpt lat="42.76481" lon="1.58896">
        <ele>1393</ele>
        <time>2020-01-05T13:37:50.000Z</time>
      </trkpt>
      <trkpt lat="42.76481" lon="1.58894">
        <ele>1393</ele>
        <time>2020-01-05T13:37:52.000Z</time>
      </trkpt>
      <trkpt lat="42.7648" lon="1.58892">
        <ele>1392</ele>
        <time>2020-01-05T13:37:54.000Z</time>
      </trkpt>
      <trkpt lat="42.7648" lon="1.5889">
        <ele>1392</ele>
        <time>2020-01-05T13:37:56.000Z</time>
      </trkpt>
      <trkpt lat="42.7648" lon="1.58889">
        <ele>1392</ele>
        <time>2020-01-05T13:37:58.000Z</time>
      </trkpt>
      <trkpt lat="42.7648" lon="1.58887">
        <ele>1391</ele>
        <time>2020-01-05T13:38:00.000Z</time>
      </trkpt>
      <trkpt lat="42.76479" lon="1.58886">
        <ele>1391</ele>
        <time>2020-01-05T13:38:02.000Z</time>
      </trkpt>
      <trkpt lat="42.76479" lon="1.58884">
        <ele>1390</ele>
        <time>2020-01-05T13:38:04.000Z</time>
      </trkpt>
      <trkpt lat="42.76478" lon="1.58883">
        <ele>1390</ele>
        <time>2020-01-05T13:38:06.000Z</time>
      </trkpt>
      <trkpt lat="42.76479" lon="1.58881">
        <ele>1389</ele>
        <time>2020-01-05T13:38:08.000Z</time>
      </trkpt>
      <trkpt lat="42.76479" lon="1.58879">
        <ele>1389</ele>
        <time>2020-01-05T13:38:10.000Z</time>
      </trkpt>
      <trkpt lat="42.7648" lon="1.58878">
        <ele>1388</ele>
        <time>2020-01-05T13:38:12.000Z</time>
      </trkpt>
      <trkpt lat="42.7648" lon="1.58876">
        <ele>1388</ele>
        <time>2020-01-05T13:38:14.000Z</time>
      </trkpt>
      <trkpt lat="42.76481" lon="1.58874">
        <ele>1387</ele>
        <time>2020-01-05T13:38:16.000Z</time>
      </trkpt>
      <trkpt lat="42.76481" lon="1.58874">
        <ele>1387</ele>
        <time>2020-01-05T13:38:18.000Z</time>
      </trkpt>
      <trkpt lat="42.76481" lon="1.58873">
        <ele>1387</ele>
        <time>2020-01-05T13:38:20.000Z</time>
      </trkpt>
      <trkpt lat="42.76481" lon="1.58873">
        <ele>1387</ele>
        <time>2020-01-05T13:38:22.000Z</time>
      </trkpt>
      <trkpt lat="42.76481" lon="1.58872">
        <ele>1387</ele>
        <time>2020-01-05T13:38:24.000Z</time>
      </trkpt>
      <trkpt lat="42.76481" lon="1.5887">
        <ele>1386</ele>
        <time>2020-01-05T13:38:26.000Z</time>
      </trkpt>
      <trkpt lat="42.76482" lon="1.58867">
        <ele>1386</ele>
        <time>2020-01-05T13:38:28.000Z</time>
      </trkpt>
      <trkpt lat="42.76482" lon="1.58865">
        <ele>1385</ele>
        <time>2020-01-05T13:38:30.000Z</time>
      </trkpt>
      <trkpt lat="42.76483" lon="1.58862">
        <ele>1384</ele>
        <time>2020-01-05T13:38:32.000Z</time>
      </trkpt>
      <trkpt lat="42.76483" lon="1.58859">
        <ele>1384</ele>
        <time>2020-01-05T13:38:34.000Z</time>
      </trkpt>
      <trkpt lat="42.76482" lon="1.58856">
        <ele>1383</ele>
        <time>2020-01-05T13:38:36.000Z</time>
      </trkpt>
      <trkpt lat="42.76481" lon="1.58854">
        <ele>1383</ele>
        <time>2020-01-05T13:38:38.000Z</time>
      </trkpt>
      <trkpt lat="42.7648" lon="1.58852">
        <ele>1383</ele>
        <time>2020-01-05T13:38:40.000Z</time>
      </trkpt>
      <trkpt lat="42.76479" lon="1.5885">
        <ele>1383</ele>
        <time>2020-01-05T13:38:42.000Z</time>
      </trkpt>
      <trkpt lat="42.76478" lon="1.58848">
        <ele>1382</ele>
        <time>2020-01-05T13:38:44.000Z</time>
      </trkpt>
      <trkpt lat="42.76477" lon="1.58846">
        <ele>1382</ele>
        <time>2020-01-05T13:38:46.000Z</time>
      </trkpt>
      <trkpt lat="42.76476" lon="1.58843">
        <ele>1382</ele>
        <time>2020-01-05T13:38:48.000Z</time>
      </trkpt>
      <trkpt lat="42.76475" lon="1.58841">
        <ele>1381</ele>
        <time>2020-01-05T13:38:50.000Z</time>
      </trkpt>
      <trkpt lat="42.76475" lon="1.58837">
        <ele>1380</ele>
        <time>2020-01-05T13:38:52.000Z</time>
      </trkpt>
      <trkpt lat="42.76474" lon="1.58835">
        <ele>1380</ele>
        <time>2020-01-05T13:38:54.000Z</time>
      </trkpt>
      <trkpt lat="42.76474" lon="1.58832">
        <ele>1380</ele>
        <time>2020-01-05T13:38:56.000Z</time>
      </trkpt>
      <trkpt lat="42.76473" lon="1.58829">
        <ele>1379</ele>
        <time>2020-01-05T13:38:58.000Z</time>
      </trkpt>
      <trkpt lat="42.76472" lon="1.58827">
        <ele>1379</ele>
        <time>2020-01-05T13:39:00.000Z</time>
      </trkpt>
      <trkpt lat="42.76471" lon="1.58824">
        <ele>1378</ele>
        <time>2020-01-05T13:39:02.000Z</time>
      </trkpt>
      <trkpt lat="42.7647" lon="1.58822">
        <ele>1378</ele>
        <time>2020-01-05T13:39:04.000Z</time>
      </trkpt>
      <trkpt lat="42.76469" lon="1.58819">
        <ele>1378</ele>
        <time>2020-01-05T13:39:06.000Z</time>
      </trkpt>
      <trkpt lat="42.76468" lon="1.58817">
        <ele>1377</ele>
        <time>2020-01-05T13:39:08.000Z</time>
      </trkpt>
      <trkpt lat="42.76467" lon="1.58815">
        <ele>1377</ele>
        <time>2020-01-05T13:39:10.000Z</time>
      </trkpt>
      <trkpt lat="42.76467" lon="1.58813">
        <ele>1376</ele>
        <time>2020-01-05T13:39:12.000Z</time>
      </trkpt>
      <trkpt lat="42.76466" lon="1.5881">
        <ele>1375</ele>
        <time>2020-01-05T13:39:14.000Z</time>
      </trkpt>
      <trkpt lat="42.76465" lon="1.58807">
        <ele>1374</ele>
        <time>2020-01-05T13:39:16.000Z</time>
      </trkpt>
      <trkpt lat="42.76465" lon="1.58805">
        <ele>1374</ele>
        <time>2020-01-05T13:39:18.000Z</time>
      </trkpt>
      <trkpt lat="42.76464" lon="1.58802">
        <ele>1373</ele>
        <time>2020-01-05T13:39:20.000Z</time>
      </trkpt>
      <trkpt lat="42.76464" lon="1.588">
        <ele>1372</ele>
        <time>2020-01-05T13:39:22.000Z</time>
      </trkpt>
      <trkpt lat="42.76463" lon="1.58797">
        <ele>1371</ele>
        <time>2020-01-05T13:39:24.000Z</time>
      </trkpt>
      <trkpt lat="42.76462" lon="1.58794">
        <ele>1370</ele>
        <time>2020-01-05T13:39:26.000Z</time>
      </trkpt>
      <trkpt lat="42.76461" lon="1.58792">
        <ele>1370</ele>
        <time>2020-01-05T13:39:28.000Z</time>
      </trkpt>
      <trkpt lat="42.7646" lon="1.5879">
        <ele>1369</ele>
        <time>2020-01-05T13:39:30.000Z</time>
      </trkpt>
      <trkpt lat="42.76458" lon="1.58789">
        <ele>1369</ele>
        <time>2020-01-05T13:39:32.000Z</time>
      </trkpt>
      <trkpt lat="42.76456" lon="1.58787">
        <ele>1369</ele>
        <time>2020-01-05T13:39:34.000Z</time>
      </trkpt>
      <trkpt lat="42.76454" lon="1.58785">
        <ele>1368</ele>
        <time>2020-01-05T13:39:36.000Z</time>
      </trkpt>
      <trkpt lat="42.76453" lon="1.58783">
        <ele>1368</ele>
        <time>2020-01-05T13:39:38.000Z</time>
      </trkpt>
      <trkpt lat="42.76452" lon="1.58781">
        <ele>1368</ele>
        <time>2020-01-05T13:39:40.000Z</time>
      </trkpt>
      <trkpt lat="42.76451" lon="1.58779">
        <ele>1367</ele>
        <time>2020-01-05T13:39:42.000Z</time>
      </trkpt>
      <trkpt lat="42.7645" lon="1.58778">
        <ele>1367</ele>
        <time>2020-01-05T13:39:44.000Z</time>
      </trkpt>
      <trkpt lat="42.76448" lon="1.58775">
        <ele>1366</ele>
        <time>2020-01-05T13:39:46.000Z</time>
      </trkpt>
      <trkpt lat="42.76447" lon="1.58773">
        <ele>1366</ele>
        <time>2020-01-05T13:39:48.000Z</time>
      </trkpt>
      <trkpt lat="42.76445" lon="1.58772">
        <ele>1366</ele>
        <time>2020-01-05T13:39:50.000Z</time>
      </trkpt>
      <trkpt lat="42.76445" lon="1.5877">
        <ele>1365</ele>
        <time>2020-01-05T13:39:52.000Z</time>
      </trkpt>
      <trkpt lat="42.76444" lon="1.58768">
        <ele>1365</ele>
        <time>2020-01-05T13:39:54.000Z</time>
      </trkpt>
      <trkpt lat="42.76442" lon="1.58767">
        <ele>1365</ele>
        <time>2020-01-05T13:39:56.000Z</time>
      </trkpt>
      <trkpt lat="42.76441" lon="1.58767">
        <ele>1365</ele>
        <time>2020-01-05T13:39:58.000Z</time>
      </trkpt>
      <trkpt lat="42.7644" lon="1.58766">
        <ele>1364</ele>
        <time>2020-01-05T13:40:00.000Z</time>
      </trkpt>
      <trkpt lat="42.76439" lon="1.58764">
        <ele>1364</ele>
        <time>2020-01-05T13:40:02.000Z</time>
      </trkpt>
      <trkpt lat="42.76438" lon="1.58762">
        <ele>1364</ele>
        <time>2020-01-05T13:40:04.000Z</time>
      </trkpt>
      <trkpt lat="42.76436" lon="1.58761">
        <ele>1363</ele>
        <time>2020-01-05T13:40:06.000Z</time>
      </trkpt>
      <trkpt lat="42.76435" lon="1.58759">
        <ele>1363</ele>
        <time>2020-01-05T13:40:08.000Z</time>
      </trkpt>
      <trkpt lat="42.76434" lon="1.58757">
        <ele>1363</ele>
        <time>2020-01-05T13:40:10.000Z</time>
      </trkpt>
      <trkpt lat="42.76433" lon="1.58756">
        <ele>1362</ele>
        <time>2020-01-05T13:40:12.000Z</time>
      </trkpt>
      <trkpt lat="42.76432" lon="1.58754">
        <ele>1362</ele>
        <time>2020-01-05T13:40:14.000Z</time>
      </trkpt>
      <trkpt lat="42.76431" lon="1.58753">
        <ele>1362</ele>
        <time>2020-01-05T13:40:16.000Z</time>
      </trkpt>
      <trkpt lat="42.76429" lon="1.58751">
        <ele>1361</ele>
        <time>2020-01-05T13:40:18.000Z</time>
      </trkpt>
      <trkpt lat="42.76427" lon="1.58749">
        <ele>1361</ele>
        <time>2020-01-05T13:40:20.000Z</time>
      </trkpt>
      <trkpt lat="42.76426" lon="1.58747">
        <ele>1360</ele>
        <time>2020-01-05T13:40:22.000Z</time>
      </trkpt>
      <trkpt lat="42.76425" lon="1.58746">
        <ele>1360</ele>
        <time>2020-01-05T13:40:24.000Z</time>
      </trkpt>
      <trkpt lat="42.76423" lon="1.58744">
        <ele>1360</ele>
        <time>2020-01-05T13:40:26.000Z</time>
      </trkpt>
      <trkpt lat="42.76422" lon="1.58742">
        <ele>1359</ele>
        <time>2020-01-05T13:40:28.000Z</time>
      </trkpt>
      <trkpt lat="42.76421" lon="1.58739">
        <ele>1359</ele>
        <time>2020-01-05T13:40:30.000Z</time>
      </trkpt>
      <trkpt lat="42.76419" lon="1.58737">
        <ele>1359</ele>
        <time>2020-01-05T13:40:32.000Z</time>
      </trkpt>
      <trkpt lat="42.76417" lon="1.58736">
        <ele>1358</ele>
        <time>2020-01-05T13:40:34.000Z</time>
      </trkpt>
      <trkpt lat="42.76416" lon="1.58733">
        <ele>1357</ele>
        <time>2020-01-05T13:40:36.000Z</time>
      </trkpt>
      <trkpt lat="42.76415" lon="1.58731">
        <ele>1357</ele>
        <time>2020-01-05T13:40:38.000Z</time>
      </trkpt>
      <trkpt lat="42.76413" lon="1.58729">
        <ele>1356</ele>
        <time>2020-01-05T13:40:40.000Z</time>
      </trkpt>
      <trkpt lat="42.76412" lon="1.58729">
        <ele>1356</ele>
        <time>2020-01-05T13:40:42.000Z</time>
      </trkpt>
      <trkpt lat="42.76411" lon="1.58727">
        <ele>1356</ele>
        <time>2020-01-05T13:40:44.000Z</time>
      </trkpt>
      <trkpt lat="42.76409" lon="1.58726">
        <ele>1356</ele>
        <time>2020-01-05T13:40:46.000Z</time>
      </trkpt>
      <trkpt lat="42.76408" lon="1.58725">
        <ele>1355</ele>
        <time>2020-01-05T13:40:48.000Z</time>
      </trkpt>
      <trkpt lat="42.76407" lon="1.58723">
        <ele>1355</ele>
        <time>2020-01-05T13:40:50.000Z</time>
      </trkpt>
      <trkpt lat="42.76406" lon="1.58721">
        <ele>1354</ele>
        <time>2020-01-05T13:40:52.000Z</time>
      </trkpt>
      <trkpt lat="42.76405" lon="1.58721">
        <ele>1354</ele>
        <time>2020-01-05T13:40:54.000Z</time>
      </trkpt>
      <trkpt lat="42.76404" lon="1.58719">
        <ele>1353</ele>
        <time>2020-01-05T13:40:56.000Z</time>
      </trkpt>
      <trkpt lat="42.76403" lon="1.58717">
        <ele>1353</ele>
        <time>2020-01-05T13:40:58.000Z</time>
      </trkpt>
      <trkpt lat="42.76402" lon="1.58715">
        <ele>1352</ele>
        <time>2020-01-05T13:41:00.000Z</time>
      </trkpt>
      <trkpt lat="42.76401" lon="1.58714">
        <ele>1352</ele>
        <time>2020-01-05T13:41:02.000Z</time>
      </trkpt>
      <trkpt lat="42.76399" lon="1.58712">
        <ele>1352</ele>
        <time>2020-01-05T13:41:04.000Z</time>
      </trkpt>
      <trkpt lat="42.76398" lon="1.58712">
        <ele>1352</ele>
        <time>2020-01-05T13:41:06.000Z</time>
      </trkpt>
      <trkpt lat="42.76396" lon="1.5871">
        <ele>1351</ele>
        <time>2020-01-05T13:41:08.000Z</time>
      </trkpt>
      <trkpt lat="42.76395" lon="1.58708">
        <ele>1351</ele>
        <time>2020-01-05T13:41:10.000Z</time>
      </trkpt>
      <trkpt lat="42.76394" lon="1.58706">
        <ele>1350</ele>
        <time>2020-01-05T13:41:12.000Z</time>
      </trkpt>
      <trkpt lat="42.76394" lon="1.58704">
        <ele>1349</ele>
        <time>2020-01-05T13:41:14.000Z</time>
      </trkpt>
      <trkpt lat="42.76394" lon="1.58703">
        <ele>1349</ele>
        <time>2020-01-05T13:41:16.000Z</time>
      </trkpt>
      <trkpt lat="42.76393" lon="1.58701">
        <ele>1348</ele>
        <time>2020-01-05T13:41:18.000Z</time>
      </trkpt>
      <trkpt lat="42.76391" lon="1.587">
        <ele>1348</ele>
        <time>2020-01-05T13:41:20.000Z</time>
      </trkpt>
      <trkpt lat="42.7639" lon="1.58698">
        <ele>1348</ele>
        <time>2020-01-05T13:41:22.000Z</time>
      </trkpt>
      <trkpt lat="42.76389" lon="1.58697">
        <ele>1347</ele>
        <time>2020-01-05T13:41:24.000Z</time>
      </trkpt>
      <trkpt lat="42.76388" lon="1.58696">
        <ele>1347</ele>
        <time>2020-01-05T13:41:26.000Z</time>
      </trkpt>
      <trkpt lat="42.76388" lon="1.58695">
        <ele>1346</ele>
        <time>2020-01-05T13:41:28.000Z</time>
      </trkpt>
      <trkpt lat="42.76387" lon="1.58694">
        <ele>1346</ele>
        <time>2020-01-05T13:41:30.000Z</time>
      </trkpt>
      <trkpt lat="42.76386" lon="1.58692">
        <ele>1346</ele>
        <time>2020-01-05T13:41:32.000Z</time>
      </trkpt>
      <trkpt lat="42.76384" lon="1.58691">
        <ele>1346</ele>
        <time>2020-01-05T13:41:34.000Z</time>
      </trkpt>
      <trkpt lat="42.76383" lon="1.5869">
        <ele>1345</ele>
        <time>2020-01-05T13:41:36.000Z</time>
      </trkpt>
      <trkpt lat="42.76382" lon="1.58688">
        <ele>1345</ele>
        <time>2020-01-05T13:41:38.000Z</time>
      </trkpt>
      <trkpt lat="42.7638" lon="1.58687">
        <ele>1344</ele>
        <time>2020-01-05T13:41:40.000Z</time>
      </trkpt>
      <trkpt lat="42.76379" lon="1.58686">
        <ele>1344</ele>
        <time>2020-01-05T13:41:42.000Z</time>
      </trkpt>
      <trkpt lat="42.76378" lon="1.58684">
        <ele>1344</ele>
        <time>2020-01-05T13:41:44.000Z</time>
      </trkpt>
      <trkpt lat="42.76376" lon="1.58683">
        <ele>1344</ele>
        <time>2020-01-05T13:41:46.000Z</time>
      </trkpt>
      <trkpt lat="42.76375" lon="1.58682">
        <ele>1343</ele>
        <time>2020-01-05T13:41:48.000Z</time>
      </trkpt>
      <trkpt lat="42.76373" lon="1.5868">
        <ele>1343</ele>
        <time>2020-01-05T13:41:50.000Z</time>
      </trkpt>
      <trkpt lat="42.7637" lon="1.58678">
        <ele>1343</ele>
        <time>2020-01-05T13:41:52.000Z</time>
      </trkpt>
      <trkpt lat="42.76368" lon="1.58676">
        <ele>1342</ele>
        <time>2020-01-05T13:41:54.000Z</time>
      </trkpt>
      <trkpt lat="42.76367" lon="1.58674">
        <ele>1342</ele>
        <time>2020-01-05T13:41:56.000Z</time>
      </trkpt>
      <trkpt lat="42.76366" lon="1.58674">
        <ele>1341</ele>
        <time>2020-01-05T13:41:58.000Z</time>
      </trkpt>
      <trkpt lat="42.76365" lon="1.58673">
        <ele>1341</ele>
        <time>2020-01-05T13:42:00.000Z</time>
      </trkpt>
      <trkpt lat="42.76364" lon="1.58672">
        <ele>1341</ele>
        <time>2020-01-05T13:42:02.000Z</time>
      </trkpt>
      <trkpt lat="42.76362" lon="1.58672">
        <ele>1341</ele>
        <time>2020-01-05T13:42:04.000Z</time>
      </trkpt>
      <trkpt lat="42.7636" lon="1.58671">
        <ele>1341</ele>
        <time>2020-01-05T13:42:06.000Z</time>
      </trkpt>
      <trkpt lat="42.76359" lon="1.58669">
        <ele>1341</ele>
        <time>2020-01-05T13:42:08.000Z</time>
      </trkpt>
      <trkpt lat="42.76358" lon="1.58668">
        <ele>1341</ele>
        <time>2020-01-05T13:42:10.000Z</time>
      </trkpt>
      <trkpt lat="42.76354" lon="1.58668">
        <ele>1341</ele>
        <time>2020-01-05T13:42:12.000Z</time>
      </trkpt>
      <trkpt lat="42.76352" lon="1.58666">
        <ele>1341</ele>
        <time>2020-01-05T13:42:14.000Z</time>
      </trkpt>
      <trkpt lat="42.76351" lon="1.58665">
        <ele>1340</ele>
        <time>2020-01-05T13:42:16.000Z</time>
      </trkpt>
      <trkpt lat="42.76349" lon="1.58664">
        <ele>1340</ele>
        <time>2020-01-05T13:42:18.000Z</time>
      </trkpt>
      <trkpt lat="42.76348" lon="1.58663">
        <ele>1340</ele>
        <time>2020-01-05T13:42:20.000Z</time>
      </trkpt>
      <trkpt lat="42.76347" lon="1.58662">
        <ele>1340</ele>
        <time>2020-01-05T13:42:22.000Z</time>
      </trkpt>
      <trkpt lat="42.76346" lon="1.5866">
        <ele>1339</ele>
        <time>2020-01-05T13:42:24.000Z</time>
      </trkpt>
      <trkpt lat="42.76345" lon="1.58659">
        <ele>1339</ele>
        <time>2020-01-05T13:42:26.000Z</time>
      </trkpt>
      <trkpt lat="42.76343" lon="1.58658">
        <ele>1339</ele>
        <time>2020-01-05T13:42:28.000Z</time>
      </trkpt>
      <trkpt lat="42.76342" lon="1.58656">
        <ele>1338</ele>
        <time>2020-01-05T13:42:30.000Z</time>
      </trkpt>
      <trkpt lat="42.76341" lon="1.58653">
        <ele>1337</ele>
        <time>2020-01-05T13:42:32.000Z</time>
      </trkpt>
      <trkpt lat="42.76342" lon="1.58651">
        <ele>1336</ele>
        <time>2020-01-05T13:42:34.000Z</time>
      </trkpt>
      <trkpt lat="42.76341" lon="1.58649">
        <ele>1336</ele>
        <time>2020-01-05T13:42:36.000Z</time>
      </trkpt>
      <trkpt lat="42.76339" lon="1.58647">
        <ele>1335</ele>
        <time>2020-01-05T13:42:38.000Z</time>
      </trkpt>
      <trkpt lat="42.76338" lon="1.58644">
        <ele>1334</ele>
        <time>2020-01-05T13:42:40.000Z</time>
      </trkpt>
      <trkpt lat="42.76336" lon="1.58643">
        <ele>1334</ele>
        <time>2020-01-05T13:42:42.000Z</time>
      </trkpt>
      <trkpt lat="42.76334" lon="1.58642">
        <ele>1334</ele>
        <time>2020-01-05T13:42:44.000Z</time>
      </trkpt>
      <trkpt lat="42.76333" lon="1.5864">
        <ele>1334</ele>
        <time>2020-01-05T13:42:46.000Z</time>
      </trkpt>
      <trkpt lat="42.76331" lon="1.58639">
        <ele>1333</ele>
        <time>2020-01-05T13:42:48.000Z</time>
      </trkpt>
      <trkpt lat="42.7633" lon="1.58638">
        <ele>1333</ele>
        <time>2020-01-05T13:42:50.000Z</time>
      </trkpt>
      <trkpt lat="42.76329" lon="1.58637">
        <ele>1333</ele>
        <time>2020-01-05T13:42:52.000Z</time>
      </trkpt>
      <trkpt lat="42.76328" lon="1.58635">
        <ele>1332</ele>
        <time>2020-01-05T13:42:54.000Z</time>
      </trkpt>
      <trkpt lat="42.76326" lon="1.58633">
        <ele>1332</ele>
        <time>2020-01-05T13:42:56.000Z</time>
      </trkpt>
      <trkpt lat="42.76325" lon="1.58631">
        <ele>1331</ele>
        <time>2020-01-05T13:42:58.000Z</time>
      </trkpt>
      <trkpt lat="42.76322" lon="1.58629">
        <ele>1331</ele>
        <time>2020-01-05T13:43:00.000Z</time>
      </trkpt>
      <trkpt lat="42.76321" lon="1.58627">
        <ele>1331</ele>
        <time>2020-01-05T13:43:02.000Z</time>
      </trkpt>
      <trkpt lat="42.76319" lon="1.58626">
        <ele>1330</ele>
        <time>2020-01-05T13:43:04.000Z</time>
      </trkpt>
      <trkpt lat="42.76317" lon="1.58624">
        <ele>1330</ele>
        <time>2020-01-05T13:43:06.000Z</time>
      </trkpt>
      <trkpt lat="42.76315" lon="1.58623">
        <ele>1330</ele>
        <time>2020-01-05T13:43:08.000Z</time>
      </trkpt>
      <trkpt lat="42.76314" lon="1.58623">
        <ele>1330</ele>
        <time>2020-01-05T13:43:10.000Z</time>
      </trkpt>
      <trkpt lat="42.76313" lon="1.58622">
        <ele>1330</ele>
        <time>2020-01-05T13:43:12.000Z</time>
      </trkpt>
      <trkpt lat="42.76312" lon="1.58621">
        <ele>1330</ele>
        <time>2020-01-05T13:43:14.000Z</time>
      </trkpt>
      <trkpt lat="42.76312" lon="1.5862">
        <ele>1329</ele>
        <time>2020-01-05T13:43:16.000Z</time>
      </trkpt>
      <trkpt lat="42.76312" lon="1.5862">
        <ele>1329</ele>
        <time>2020-01-05T13:43:18.000Z</time>
      </trkpt>
      <trkpt lat="42.7631" lon="1.58617">
        <ele>1328</ele>
        <time>2020-01-05T13:43:20.000Z</time>
      </trkpt>
      <trkpt lat="42.76311" lon="1.58614">
        <ele>1327</ele>
        <time>2020-01-05T13:43:22.000Z</time>
      </trkpt>
      <trkpt lat="42.76311" lon="1.58611">
        <ele>1326</ele>
        <time>2020-01-05T13:43:24.000Z</time>
      </trkpt>
      <trkpt lat="42.76311" lon="1.5861">
        <ele>1326</ele>
        <time>2020-01-05T13:43:26.000Z</time>
      </trkpt>
      <trkpt lat="42.7631" lon="1.58608">
        <ele>1325</ele>
        <time>2020-01-05T13:43:28.000Z</time>
      </trkpt>
      <trkpt lat="42.76309" lon="1.58606">
        <ele>1325</ele>
        <time>2020-01-05T13:43:30.000Z</time>
      </trkpt>
      <trkpt lat="42.76309" lon="1.58603">
        <ele>1324</ele>
        <time>2020-01-05T13:43:32.000Z</time>
      </trkpt>
      <trkpt lat="42.76308" lon="1.586">
        <ele>1322</ele>
        <time>2020-01-05T13:43:34.000Z</time>
      </trkpt>
      <trkpt lat="42.76307" lon="1.58598">
        <ele>1322</ele>
        <time>2020-01-05T13:43:36.000Z</time>
      </trkpt>
      <trkpt lat="42.76307" lon="1.58596">
        <ele>1321</ele>
        <time>2020-01-05T13:43:38.000Z</time>
      </trkpt>
      <trkpt lat="42.76305" lon="1.58595">
        <ele>1321</ele>
        <time>2020-01-05T13:43:40.000Z</time>
      </trkpt>
      <trkpt lat="42.76304" lon="1.58594">
        <ele>1321</ele>
        <time>2020-01-05T13:43:42.000Z</time>
      </trkpt>
      <trkpt lat="42.76303" lon="1.58593">
        <ele>1321</ele>
        <time>2020-01-05T13:43:44.000Z</time>
      </trkpt>
      <trkpt lat="42.763" lon="1.58592">
        <ele>1321</ele>
        <time>2020-01-05T13:43:46.000Z</time>
      </trkpt>
      <trkpt lat="42.76299" lon="1.58591">
        <ele>1320</ele>
        <time>2020-01-05T13:43:48.000Z</time>
      </trkpt>
      <trkpt lat="42.76299" lon="1.58588">
        <ele>1319</ele>
        <time>2020-01-05T13:43:50.000Z</time>
      </trkpt>
      <trkpt lat="42.76299" lon="1.58586">
        <ele>1319</ele>
        <time>2020-01-05T13:43:52.000Z</time>
      </trkpt>
      <trkpt lat="42.763" lon="1.58584">
        <ele>1318</ele>
        <time>2020-01-05T13:43:54.000Z</time>
      </trkpt>
      <trkpt lat="42.76301" lon="1.58583">
        <ele>1317</ele>
        <time>2020-01-05T13:43:56.000Z</time>
      </trkpt>
      <trkpt lat="42.76303" lon="1.58582">
        <ele>1317</ele>
        <time>2020-01-05T13:43:58.000Z</time>
      </trkpt>
      <trkpt lat="42.76304" lon="1.58581">
        <ele>1316</ele>
        <time>2020-01-05T13:44:00.000Z</time>
      </trkpt>
      <trkpt lat="42.76305" lon="1.5858">
        <ele>1316</ele>
        <time>2020-01-05T13:44:02.000Z</time>
      </trkpt>
      <trkpt lat="42.76306" lon="1.5858">
        <ele>1315</ele>
        <time>2020-01-05T13:44:04.000Z</time>
      </trkpt>
      <trkpt lat="42.76308" lon="1.58579">
        <ele>1315</ele>
        <time>2020-01-05T13:44:06.000Z</time>
      </trkpt>
      <trkpt lat="42.76309" lon="1.58578">
        <ele>1314</ele>
        <time>2020-01-05T13:44:08.000Z</time>
      </trkpt>
      <trkpt lat="42.76311" lon="1.58577">
        <ele>1314</ele>
        <time>2020-01-05T13:44:10.000Z</time>
      </trkpt>
      <trkpt lat="42.76313" lon="1.58576">
        <ele>1313</ele>
        <time>2020-01-05T13:44:12.000Z</time>
      </trkpt>
      <trkpt lat="42.76315" lon="1.58576">
        <ele>1312</ele>
        <time>2020-01-05T13:44:14.000Z</time>
      </trkpt>
      <trkpt lat="42.76316" lon="1.58575">
        <ele>1312</ele>
        <time>2020-01-05T13:44:16.000Z</time>
      </trkpt>
      <trkpt lat="42.76319" lon="1.58574">
        <ele>1311</ele>
        <time>2020-01-05T13:44:18.000Z</time>
      </trkpt>
      <trkpt lat="42.76321" lon="1.58574">
        <ele>1311</ele>
        <time>2020-01-05T13:44:20.000Z</time>
      </trkpt>
      <trkpt lat="42.76322" lon="1.58573">
        <ele>1310</ele>
        <time>2020-01-05T13:44:22.000Z</time>
      </trkpt>
      <trkpt lat="42.76324" lon="1.58573">
        <ele>1310</ele>
        <time>2020-01-05T13:44:24.000Z</time>
      </trkpt>
      <trkpt lat="42.76326" lon="1.58572">
        <ele>1309</ele>
        <time>2020-01-05T13:44:26.000Z</time>
      </trkpt>
      <trkpt lat="42.76327" lon="1.58572">
        <ele>1309</ele>
        <time>2020-01-05T13:44:28.000Z</time>
      </trkpt>
      <trkpt lat="42.76329" lon="1.58572">
        <ele>1309</ele>
        <time>2020-01-05T13:44:30.000Z</time>
      </trkpt>
      <trkpt lat="42.7633" lon="1.58571">
        <ele>1308</ele>
        <time>2020-01-05T13:44:32.000Z</time>
      </trkpt>
      <trkpt lat="42.76332" lon="1.58571">
        <ele>1308</ele>
        <time>2020-01-05T13:44:34.000Z</time>
      </trkpt>
      <trkpt lat="42.76333" lon="1.58571">
        <ele>1308</ele>
        <time>2020-01-05T13:44:36.000Z</time>
      </trkpt>
      <trkpt lat="42.76334" lon="1.5857">
        <ele>1307</ele>
        <time>2020-01-05T13:44:38.000Z</time>
      </trkpt>
      <trkpt lat="42.76335" lon="1.5857">
        <ele>1307</ele>
        <time>2020-01-05T13:44:40.000Z</time>
      </trkpt>
      <trkpt lat="42.76337" lon="1.58571">
        <ele>1307</ele>
        <time>2020-01-05T13:44:42.000Z</time>
      </trkpt>
      <trkpt lat="42.76339" lon="1.5857">
        <ele>1307</ele>
        <time>2020-01-05T13:44:44.000Z</time>
      </trkpt>
      <trkpt lat="42.76341" lon="1.58571">
        <ele>1307</ele>
        <time>2020-01-05T13:44:46.000Z</time>
      </trkpt>
      <trkpt lat="42.76342" lon="1.58571">
        <ele>1307</ele>
        <time>2020-01-05T13:44:48.000Z</time>
      </trkpt>
      <trkpt lat="42.76343" lon="1.58571">
        <ele>1306</ele>
        <time>2020-01-05T13:44:50.000Z</time>
      </trkpt>
      <trkpt lat="42.76344" lon="1.58571">
        <ele>1306</ele>
        <time>2020-01-05T13:44:52.000Z</time>
      </trkpt>
      <trkpt lat="42.76346" lon="1.58572">
        <ele>1306</ele>
        <time>2020-01-05T13:44:54.000Z</time>
      </trkpt>
      <trkpt lat="42.76348" lon="1.58572">
        <ele>1306</ele>
        <time>2020-01-05T13:44:56.000Z</time>
      </trkpt>
      <trkpt lat="42.76349" lon="1.58572">
        <ele>1306</ele>
        <time>2020-01-05T13:44:58.000Z</time>
      </trkpt>
      <trkpt lat="42.7635" lon="1.58573">
        <ele>1306</ele>
        <time>2020-01-05T13:45:00.000Z</time>
      </trkpt>
      <trkpt lat="42.76351" lon="1.58572">
        <ele>1306</ele>
        <time>2020-01-05T13:45:02.000Z</time>
      </trkpt>
      <trkpt lat="42.76352" lon="1.58572">
        <ele>1306</ele>
        <time>2020-01-05T13:45:04.000Z</time>
      </trkpt>
      <trkpt lat="42.76354" lon="1.58571">
        <ele>1306</ele>
        <time>2020-01-05T13:45:06.000Z</time>
      </trkpt>
      <trkpt lat="42.76356" lon="1.58571">
        <ele>1305</ele>
        <time>2020-01-05T13:45:08.000Z</time>
      </trkpt>
      <trkpt lat="42.76357" lon="1.58571">
        <ele>1305</ele>
        <time>2020-01-05T13:45:10.000Z</time>
      </trkpt>
      <trkpt lat="42.76359" lon="1.5857">
        <ele>1305</ele>
        <time>2020-01-05T13:45:12.000Z</time>
      </trkpt>
      <trkpt lat="42.7636" lon="1.5857">
        <ele>1305</ele>
        <time>2020-01-05T13:45:14.000Z</time>
      </trkpt>
      <trkpt lat="42.76361" lon="1.58569">
        <ele>1304</ele>
        <time>2020-01-05T13:45:16.000Z</time>
      </trkpt>
      <trkpt lat="42.76362" lon="1.58569">
        <ele>1304</ele>
        <time>2020-01-05T13:45:18.000Z</time>
      </trkpt>
      <trkpt lat="42.76363" lon="1.58567">
        <ele>1303</ele>
        <time>2020-01-05T13:45:20.000Z</time>
      </trkpt>
      <trkpt lat="42.76363" lon="1.58567">
        <ele>1303</ele>
        <time>2020-01-05T13:45:22.000Z</time>
      </trkpt>
      <trkpt lat="42.76364" lon="1.58566">
        <ele>1303</ele>
        <time>2020-01-05T13:45:24.000Z</time>
      </trkpt>
      <trkpt lat="42.76365" lon="1.58566">
        <ele>1303</ele>
        <time>2020-01-05T13:45:26.000Z</time>
      </trkpt>
      <trkpt lat="42.76366" lon="1.58566">
        <ele>1302</ele>
        <time>2020-01-05T13:45:28.000Z</time>
      </trkpt>
      <trkpt lat="42.76368" lon="1.58566">
        <ele>1302</ele>
        <time>2020-01-05T13:45:30.000Z</time>
      </trkpt>
      <trkpt lat="42.76369" lon="1.58564">
        <ele>1301</ele>
        <time>2020-01-05T13:45:32.000Z</time>
      </trkpt>
      <trkpt lat="42.7637" lon="1.58563">
        <ele>1301</ele>
        <time>2020-01-05T13:45:34.000Z</time>
      </trkpt>
      <trkpt lat="42.76371" lon="1.58561">
        <ele>1300</ele>
        <time>2020-01-05T13:45:36.000Z</time>
      </trkpt>
      <trkpt lat="42.76371" lon="1.58559">
        <ele>1299</ele>
        <time>2020-01-05T13:45:38.000Z</time>
      </trkpt>
      <trkpt lat="42.76373" lon="1.58558">
        <ele>1298</ele>
        <time>2020-01-05T13:45:40.000Z</time>
      </trkpt>
      <trkpt lat="42.76374" lon="1.58557">
        <ele>1298</ele>
        <time>2020-01-05T13:45:42.000Z</time>
      </trkpt>
      <trkpt lat="42.76375" lon="1.58556">
        <ele>1298</ele>
        <time>2020-01-05T13:45:44.000Z</time>
      </trkpt>
      <trkpt lat="42.76376" lon="1.58555">
        <ele>1297</ele>
        <time>2020-01-05T13:45:46.000Z</time>
      </trkpt>
      <trkpt lat="42.76377" lon="1.58554">
        <ele>1296</ele>
        <time>2020-01-05T13:45:48.000Z</time>
      </trkpt>
      <trkpt lat="42.76378" lon="1.58553">
        <ele>1296</ele>
        <time>2020-01-05T13:45:50.000Z</time>
      </trkpt>
      <trkpt lat="42.76379" lon="1.58553">
        <ele>1296</ele>
        <time>2020-01-05T13:45:52.000Z</time>
      </trkpt>
      <trkpt lat="42.7638" lon="1.58553">
        <ele>1296</ele>
        <time>2020-01-05T13:45:54.000Z</time>
      </trkpt>
      <trkpt lat="42.76381" lon="1.58552">
        <ele>1295</ele>
        <time>2020-01-05T13:45:56.000Z</time>
      </trkpt>
      <trkpt lat="42.76382" lon="1.58551">
        <ele>1295</ele>
        <time>2020-01-05T13:45:58.000Z</time>
      </trkpt>
      <trkpt lat="42.76383" lon="1.58551">
        <ele>1295</ele>
        <time>2020-01-05T13:46:00.000Z</time>
      </trkpt>
      <trkpt lat="42.76383" lon="1.5855">
        <ele>1294</ele>
        <time>2020-01-05T13:46:02.000Z</time>
      </trkpt>
      <trkpt lat="42.76384" lon="1.5855">
        <ele>1294</ele>
        <time>2020-01-05T13:46:04.000Z</time>
      </trkpt>
      <trkpt lat="42.76384" lon="1.58549">
        <ele>1294</ele>
        <time>2020-01-05T13:46:06.000Z</time>
      </trkpt>
      <trkpt lat="42.76384" lon="1.58549">
        <ele>1294</ele>
        <time>2020-01-05T13:46:08.000Z</time>
      </trkpt>
      <trkpt lat="42.76384" lon="1.58549">
        <ele>1294</ele>
        <time>2020-01-05T13:46:10.000Z</time>
      </trkpt>
      <trkpt lat="42.76385" lon="1.5855">
        <ele>1294</ele>
        <time>2020-01-05T13:46:12.000Z</time>
      </trkpt>
      <trkpt lat="42.76385" lon="1.5855">
        <ele>1294</ele>
        <time>2020-01-05T13:46:14.000Z</time>
      </trkpt>
      <trkpt lat="42.76386" lon="1.5855">
        <ele>1294</ele>
        <time>2020-01-05T13:46:16.000Z</time>
      </trkpt>
      <trkpt lat="42.76386" lon="1.5855">
        <ele>1294</ele>
        <time>2020-01-05T13:46:18.000Z</time>
      </trkpt>
      <trkpt lat="42.76387" lon="1.5855">
        <ele>1294</ele>
        <time>2020-01-05T13:46:20.000Z</time>
      </trkpt>
      <trkpt lat="42.76387" lon="1.58549">
        <ele>1294</ele>
        <time>2020-01-05T13:46:22.000Z</time>
      </trkpt>
      <trkpt lat="42.76387" lon="1.58548">
        <ele>1293</ele>
        <time>2020-01-05T13:46:24.000Z</time>
      </trkpt>
      <trkpt lat="42.76387" lon="1.58547">
        <ele>1293</ele>
        <time>2020-01-05T13:46:26.000Z</time>
      </trkpt>
      <trkpt lat="42.76386" lon="1.58547">
        <ele>1293</ele>
        <time>2020-01-05T13:46:28.000Z</time>
      </trkpt>
      <trkpt lat="42.76387" lon="1.58546">
        <ele>1292</ele>
        <time>2020-01-05T13:46:30.000Z</time>
      </trkpt>
      <trkpt lat="42.76387" lon="1.58546">
        <ele>1292</ele>
        <time>2020-01-05T13:46:32.000Z</time>
      </trkpt>
      <trkpt lat="42.76387" lon="1.58546">
        <ele>1292</ele>
        <time>2020-01-05T13:46:34.000Z</time>
      </trkpt>
      <trkpt lat="42.76387" lon="1.58546">
        <ele>1292</ele>
        <time>2020-01-05T13:46:36.000Z</time>
      </trkpt>
      <trkpt lat="42.76387" lon="1.58546">
        <ele>1292</ele>
        <time>2020-01-05T13:46:38.000Z</time>
      </trkpt>
      <trkpt lat="42.76388" lon="1.58546">
        <ele>1292</ele>
        <time>2020-01-05T13:46:40.000Z</time>
      </trkpt>
      <trkpt lat="42.76387" lon="1.58545">
        <ele>1292</ele>
        <time>2020-01-05T13:46:42.000Z</time>
      </trkpt>
      <trkpt lat="42.76387" lon="1.58544">
        <ele>1292</ele>
        <time>2020-01-05T13:46:44.000Z</time>
      </trkpt>
      <trkpt lat="42.76387" lon="1.58543">
        <ele>1291</ele>
        <time>2020-01-05T13:46:46.000Z</time>
      </trkpt>
      <trkpt lat="42.76386" lon="1.58543">
        <ele>1291</ele>
        <time>2020-01-05T13:46:48.000Z</time>
      </trkpt>
      <trkpt lat="42.76386" lon="1.58543">
        <ele>1291</ele>
        <time>2020-01-05T13:46:50.000Z</time>
      </trkpt>
      <trkpt lat="42.76385" lon="1.58543">
        <ele>1291</ele>
        <time>2020-01-05T13:46:52.000Z</time>
      </trkpt>
      <trkpt lat="42.76385" lon="1.58542">
        <ele>1291</ele>
        <time>2020-01-05T13:46:54.000Z</time>
      </trkpt>
      <trkpt lat="42.76385" lon="1.58542">
        <ele>1291</ele>
        <time>2020-01-05T13:46:56.000Z</time>
      </trkpt>
      <trkpt lat="42.76385" lon="1.58541">
        <ele>1291</ele>
        <time>2020-01-05T13:46:58.000Z</time>
      </trkpt>
      <trkpt lat="42.76386" lon="1.5854">
        <ele>1290</ele>
        <time>2020-01-05T13:47:00.000Z</time>
      </trkpt>
      <trkpt lat="42.76386" lon="1.5854">
        <ele>1290</ele>
        <time>2020-01-05T13:47:02.000Z</time>
      </trkpt>
      <trkpt lat="42.76386" lon="1.5854">
        <ele>1290</ele>
        <time>2020-01-05T13:47:04.000Z</time>
      </trkpt>
      <trkpt lat="42.76386" lon="1.58539">
        <ele>1290</ele>
        <time>2020-01-05T13:47:06.000Z</time>
      </trkpt>
      <trkpt lat="42.76386" lon="1.5854">
        <ele>1290</ele>
        <time>2020-01-05T13:47:08.000Z</time>
      </trkpt>
      <trkpt lat="42.76385" lon="1.58541">
        <ele>1290</ele>
        <time>2020-01-05T13:47:10.000Z</time>
      </trkpt>
      <trkpt lat="42.76385" lon="1.58542">
        <ele>1291</ele>
        <time>2020-01-05T13:47:12.000Z</time>
      </trkpt>
      <trkpt lat="42.76384" lon="1.58543">
        <ele>1291</ele>
        <time>2020-01-05T13:47:14.000Z</time>
      </trkpt>
      <trkpt lat="42.76384" lon="1.58543">
        <ele>1291</ele>
        <time>2020-01-05T13:47:16.000Z</time>
      </trkpt>
      <trkpt lat="42.76385" lon="1.58544">
        <ele>1292</ele>
        <time>2020-01-05T13:47:18.000Z</time>
      </trkpt>
      <trkpt lat="42.76385" lon="1.58544">
        <ele>1292</ele>
        <time>2020-01-05T13:47:20.000Z</time>
      </trkpt>
      <trkpt lat="42.76385" lon="1.58544">
        <ele>1291</ele>
        <time>2020-01-05T13:47:22.000Z</time>
      </trkpt>
      <trkpt lat="42.76385" lon="1.58544">
        <ele>1292</ele>
        <time>2020-01-05T13:47:24.000Z</time>
      </trkpt>
      <trkpt lat="42.76386" lon="1.58544">
        <ele>1291</ele>
        <time>2020-01-05T13:47:26.000Z</time>
      </trkpt>
      <trkpt lat="42.76385" lon="1.58544">
        <ele>1292</ele>
        <time>2020-01-05T13:47:28.000Z</time>
      </trkpt>
      <trkpt lat="42.76385" lon="1.58545">
        <ele>1292</ele>
        <time>2020-01-05T13:47:30.000Z</time>
      </trkpt>
      <trkpt lat="42.76385" lon="1.58545">
        <ele>1292</ele>
        <time>2020-01-05T13:47:32.000Z</time>
      </trkpt>
      <trkpt lat="42.76385" lon="1.58545">
        <ele>1292</ele>
        <time>2020-01-05T13:47:34.000Z</time>
      </trkpt>
      <trkpt lat="42.76385" lon="1.58546">
        <ele>1292</ele>
        <time>2020-01-05T13:47:36.000Z</time>
      </trkpt>
      <trkpt lat="42.76385" lon="1.58546">
        <ele>1292</ele>
        <time>2020-01-05T13:47:38.000Z</time>
      </trkpt>
      <trkpt lat="42.76385" lon="1.58547">
        <ele>1293</ele>
        <time>2020-01-05T13:47:40.000Z</time>
      </trkpt>
      <trkpt lat="42.76385" lon="1.58546">
        <ele>1292</ele>
        <time>2020-01-05T13:47:42.000Z</time>
      </trkpt>
      <trkpt lat="42.76385" lon="1.58546">
        <ele>1292</ele>
        <time>2020-01-05T13:47:44.000Z</time>
      </trkpt>
      <trkpt lat="42.76385" lon="1.58546">
        <ele>1292</ele>
        <time>2020-01-05T13:47:46.000Z</time>
      </trkpt>
      <trkpt lat="42.76385" lon="1.58547">
        <ele>1293</ele>
        <time>2020-01-05T13:47:48.000Z</time>
      </trkpt>
      <trkpt lat="42.76384" lon="1.58548">
        <ele>1294</ele>
        <time>2020-01-05T13:47:50.000Z</time>
      </trkpt>
      <trkpt lat="42.76384" lon="1.58548">
        <ele>1293</ele>
        <time>2020-01-05T13:47:52.000Z</time>
      </trkpt>
      <trkpt lat="42.76384" lon="1.5855">
        <ele>1294</ele>
        <time>2020-01-05T13:47:54.000Z</time>
      </trkpt>
      <trkpt lat="42.76384" lon="1.5855">
        <ele>1294</ele>
        <time>2020-01-05T13:47:56.000Z</time>
      </trkpt>
      <trkpt lat="42.76384" lon="1.58553">
        <ele>1295</ele>
        <time>2020-01-05T13:47:58.000Z</time>
      </trkpt>
      <trkpt lat="42.76385" lon="1.58555">
        <ele>1296</ele>
        <time>2020-01-05T13:48:00.000Z</time>
      </trkpt>
      <trkpt lat="42.76385" lon="1.58556">
        <ele>1297</ele>
        <time>2020-01-05T13:48:02.000Z</time>
      </trkpt>
      <trkpt lat="42.76385" lon="1.58557">
        <ele>1297</ele>
        <time>2020-01-05T13:48:04.000Z</time>
      </trkpt>
      <trkpt lat="42.76385" lon="1.58557">
        <ele>1297</ele>
        <time>2020-01-05T13:48:06.000Z</time>
      </trkpt>
      <trkpt lat="42.76385" lon="1.58559">
        <ele>1298</ele>
        <time>2020-01-05T13:48:08.000Z</time>
      </trkpt>
      <trkpt lat="42.76385" lon="1.58559">
        <ele>1298</ele>
        <time>2020-01-05T13:48:10.000Z</time>
      </trkpt>
      <trkpt lat="42.76385" lon="1.5856">
        <ele>1298</ele>
        <time>2020-01-05T13:48:12.000Z</time>
      </trkpt>
      <trkpt lat="42.76385" lon="1.58561">
        <ele>1299</ele>
        <time>2020-01-05T13:48:14.000Z</time>
      </trkpt>
      <trkpt lat="42.76384" lon="1.58561">
        <ele>1299</ele>
        <time>2020-01-05T13:48:16.000Z</time>
      </trkpt>
      <trkpt lat="42.76383" lon="1.58561">
        <ele>1299</ele>
        <time>2020-01-05T13:48:18.000Z</time>
      </trkpt>
      <trkpt lat="42.76382" lon="1.58559">
        <ele>1298</ele>
        <time>2020-01-05T13:48:20.000Z</time>
      </trkpt>
      <trkpt lat="42.76381" lon="1.58558">
        <ele>1298</ele>
        <time>2020-01-05T13:48:22.000Z</time>
      </trkpt>
      <trkpt lat="42.76381" lon="1.58556">
        <ele>1297</ele>
        <time>2020-01-05T13:48:24.000Z</time>
      </trkpt>
      <trkpt lat="42.76382" lon="1.58556">
        <ele>1297</ele>
        <time>2020-01-05T13:48:26.000Z</time>
      </trkpt>
      <trkpt lat="42.76383" lon="1.58555">
        <ele>1296</ele>
        <time>2020-01-05T13:48:28.000Z</time>
      </trkpt>
      <trkpt lat="42.76384" lon="1.58554">
        <ele>1296</ele>
        <time>2020-01-05T13:48:30.000Z</time>
      </trkpt>
      <trkpt lat="42.76385" lon="1.58553">
        <ele>1295</ele>
        <time>2020-01-05T13:48:32.000Z</time>
      </trkpt>
      <trkpt lat="42.76386" lon="1.58552">
        <ele>1295</ele>
        <time>2020-01-05T13:48:34.000Z</time>
      </trkpt>
      <trkpt lat="42.76386" lon="1.58551">
        <ele>1294</ele>
        <time>2020-01-05T13:48:36.000Z</time>
      </trkpt>
      <trkpt lat="42.76386" lon="1.5855">
        <ele>1294</ele>
        <time>2020-01-05T13:48:38.000Z</time>
      </trkpt>
      <trkpt lat="42.76387" lon="1.58549">
        <ele>1293</ele>
        <time>2020-01-05T13:48:40.000Z</time>
      </trkpt>
      <trkpt lat="42.76387" lon="1.58549">
        <ele>1293</ele>
        <time>2020-01-05T13:48:42.000Z</time>
      </trkpt>
      <trkpt lat="42.76388" lon="1.5855">
        <ele>1294</ele>
        <time>2020-01-05T13:48:44.000Z</time>
      </trkpt>
      <trkpt lat="42.76388" lon="1.58549">
        <ele>1293</ele>
        <time>2020-01-05T13:48:46.000Z</time>
      </trkpt>
      <trkpt lat="42.76388" lon="1.58549">
        <ele>1293</ele>
        <time>2020-01-05T13:48:48.000Z</time>
      </trkpt>
      <trkpt lat="42.76388" lon="1.58548">
        <ele>1293</ele>
        <time>2020-01-05T13:48:50.000Z</time>
      </trkpt>
      <trkpt lat="42.76386" lon="1.58548">
        <ele>1293</ele>
        <time>2020-01-05T13:48:52.000Z</time>
      </trkpt>
      <trkpt lat="42.76386" lon="1.58548">
        <ele>1293</ele>
        <time>2020-01-05T13:48:54.000Z</time>
      </trkpt>
      <trkpt lat="42.76386" lon="1.58547">
        <ele>1293</ele>
        <time>2020-01-05T13:48:56.000Z</time>
      </trkpt>
      <trkpt lat="42.76387" lon="1.58547">
        <ele>1293</ele>
        <time>2020-01-05T13:48:58.000Z</time>
      </trkpt>
      <trkpt lat="42.76387" lon="1.58547">
        <ele>1293</ele>
        <time>2020-01-05T13:49:00.000Z</time>
      </trkpt>
      <trkpt lat="42.76388" lon="1.58547">
        <ele>1292</ele>
        <time>2020-01-05T13:49:02.000Z</time>
      </trkpt>
      <trkpt lat="42.76389" lon="1.58547">
        <ele>1292</ele>
        <time>2020-01-05T13:49:04.000Z</time>
      </trkpt>
      <trkpt lat="42.76389" lon="1.58547">
        <ele>1293</ele>
        <time>2020-01-05T13:49:06.000Z</time>
      </trkpt>
      <trkpt lat="42.76388" lon="1.58548">
        <ele>1293</ele>
        <time>2020-01-05T13:49:08.000Z</time>
      </trkpt>
      <trkpt lat="42.76387" lon="1.58549">
        <ele>1293</ele>
        <time>2020-01-05T13:49:10.000Z</time>
      </trkpt>
      <trkpt lat="42.76386" lon="1.58551">
        <ele>1294</ele>
        <time>2020-01-05T13:49:12.000Z</time>
      </trkpt>
      <trkpt lat="42.76385" lon="1.5855">
        <ele>1294</ele>
        <time>2020-01-05T13:49:14.000Z</time>
      </trkpt>
      <trkpt lat="42.76384" lon="1.58551">
        <ele>1295</ele>
        <time>2020-01-05T13:49:16.000Z</time>
      </trkpt>
      <trkpt lat="42.76382" lon="1.58551">
        <ele>1295</ele>
        <time>2020-01-05T13:49:18.000Z</time>
      </trkpt>
      <trkpt lat="42.76382" lon="1.58551">
        <ele>1295</ele>
        <time>2020-01-05T13:49:20.000Z</time>
      </trkpt>
      <trkpt lat="42.76382" lon="1.58551">
        <ele>1295</ele>
        <time>2020-01-05T13:49:22.000Z</time>
      </trkpt>
      <trkpt lat="42.76382" lon="1.58551">
        <ele>1295</ele>
        <time>2020-01-05T13:49:24.000Z</time>
      </trkpt>
      <trkpt lat="42.76381" lon="1.58551">
        <ele>1295</ele>
        <time>2020-01-05T13:49:26.000Z</time>
      </trkpt>
      <trkpt lat="42.76381" lon="1.58552">
        <ele>1295</ele>
        <time>2020-01-05T13:49:28.000Z</time>
      </trkpt>
      <trkpt lat="42.76381" lon="1.58553">
        <ele>1296</ele>
        <time>2020-01-05T13:49:30.000Z</time>
      </trkpt>
      <trkpt lat="42.76381" lon="1.58553">
        <ele>1296</ele>
        <time>2020-01-05T13:49:32.000Z</time>
      </trkpt>
      <trkpt lat="42.76381" lon="1.58554">
        <ele>1296</ele>
        <time>2020-01-05T13:49:34.000Z</time>
      </trkpt>
      <trkpt lat="42.76382" lon="1.58554">
        <ele>1296</ele>
        <time>2020-01-05T13:49:36.000Z</time>
      </trkpt>
      <trkpt lat="42.76382" lon="1.58553">
        <ele>1296</ele>
        <time>2020-01-05T13:49:38.000Z</time>
      </trkpt>
      <trkpt lat="42.76382" lon="1.58553">
        <ele>1296</ele>
        <time>2020-01-05T13:49:40.000Z</time>
      </trkpt>
      <trkpt lat="42.76384" lon="1.58554">
        <ele>1296</ele>
        <time>2020-01-05T13:49:42.000Z</time>
      </trkpt>
      <trkpt lat="42.76384" lon="1.58554">
        <ele>1296</ele>
        <time>2020-01-05T13:49:44.000Z</time>
      </trkpt>
      <trkpt lat="42.76385" lon="1.58554">
        <ele>1296</ele>
        <time>2020-01-05T13:49:46.000Z</time>
      </trkpt>
      <trkpt lat="42.76385" lon="1.58553">
        <ele>1295</ele>
        <time>2020-01-05T13:49:48.000Z</time>
      </trkpt>
      <trkpt lat="42.76384" lon="1.58553">
        <ele>1295</ele>
        <time>2020-01-05T13:49:50.000Z</time>
      </trkpt>
      <trkpt lat="42.76385" lon="1.58552">
        <ele>1295</ele>
        <time>2020-01-05T13:49:52.000Z</time>
      </trkpt>
      <trkpt lat="42.76385" lon="1.58551">
        <ele>1294</ele>
        <time>2020-01-05T13:49:54.000Z</time>
      </trkpt>
      <trkpt lat="42.76385" lon="1.58549">
        <ele>1294</ele>
        <time>2020-01-05T13:49:56.000Z</time>
      </trkpt>
      <trkpt lat="42.76386" lon="1.58548">
        <ele>1293</ele>
        <time>2020-01-05T13:49:58.000Z</time>
      </trkpt>
      <trkpt lat="42.76386" lon="1.58547">
        <ele>1293</ele>
        <time>2020-01-05T13:50:00.000Z</time>
      </trkpt>
      <trkpt lat="42.76388" lon="1.58546">
        <ele>1292</ele>
        <time>2020-01-05T13:50:02.000Z</time>
      </trkpt>
      <trkpt lat="42.76389" lon="1.58544">
        <ele>1291</ele>
        <time>2020-01-05T13:50:04.000Z</time>
      </trkpt>
      <trkpt lat="42.7639" lon="1.58543">
        <ele>1291</ele>
        <time>2020-01-05T13:50:06.000Z</time>
      </trkpt>
      <trkpt lat="42.7639" lon="1.58542">
        <ele>1290</ele>
        <time>2020-01-05T13:50:08.000Z</time>
      </trkpt>
      <trkpt lat="42.76392" lon="1.58541">
        <ele>1290</ele>
        <time>2020-01-05T13:50:10.000Z</time>
      </trkpt>
      <trkpt lat="42.76392" lon="1.58539">
        <ele>1289</ele>
        <time>2020-01-05T13:50:12.000Z</time>
      </trkpt>
      <trkpt lat="42.76393" lon="1.58537">
        <ele>1288</ele>
        <time>2020-01-05T13:50:14.000Z</time>
      </trkpt>
      <trkpt lat="42.76395" lon="1.58536">
        <ele>1288</ele>
        <time>2020-01-05T13:50:16.000Z</time>
      </trkpt>
      <trkpt lat="42.76396" lon="1.58536">
        <ele>1288</ele>
        <time>2020-01-05T13:50:18.000Z</time>
      </trkpt>
      <trkpt lat="42.76397" lon="1.58536">
        <ele>1288</ele>
        <time>2020-01-05T13:50:20.000Z</time>
      </trkpt>
      <trkpt lat="42.76399" lon="1.58535">
        <ele>1288</ele>
        <time>2020-01-05T13:50:22.000Z</time>
      </trkpt>
      <trkpt lat="42.76399" lon="1.58533">
        <ele>1287</ele>
        <time>2020-01-05T13:50:24.000Z</time>
      </trkpt>
      <trkpt lat="42.76401" lon="1.58531">
        <ele>1287</ele>
        <time>2020-01-05T13:50:26.000Z</time>
      </trkpt>
      <trkpt lat="42.76403" lon="1.5853">
        <ele>1287</ele>
        <time>2020-01-05T13:50:28.000Z</time>
      </trkpt>
      <trkpt lat="42.76404" lon="1.58529">
        <ele>1286</ele>
        <time>2020-01-05T13:50:30.000Z</time>
      </trkpt>
      <trkpt lat="42.76405" lon="1.58527">
        <ele>1286</ele>
        <time>2020-01-05T13:50:32.000Z</time>
      </trkpt>
      <trkpt lat="42.76406" lon="1.58525">
        <ele>1285</ele>
        <time>2020-01-05T13:50:34.000Z</time>
      </trkpt>
      <trkpt lat="42.76409" lon="1.58524">
        <ele>1285</ele>
        <time>2020-01-05T13:50:36.000Z</time>
      </trkpt>
      <trkpt lat="42.76411" lon="1.58523">
        <ele>1285</ele>
        <time>2020-01-05T13:50:38.000Z</time>
      </trkpt>
      <trkpt lat="42.76413" lon="1.58521">
        <ele>1284</ele>
        <time>2020-01-05T13:50:40.000Z</time>
      </trkpt>
      <trkpt lat="42.76415" lon="1.5852">
        <ele>1284</ele>
        <time>2020-01-05T13:50:42.000Z</time>
      </trkpt>
      <trkpt lat="42.76417" lon="1.58518">
        <ele>1283</ele>
        <time>2020-01-05T13:50:44.000Z</time>
      </trkpt>
      <trkpt lat="42.76418" lon="1.58517">
        <ele>1283</ele>
        <time>2020-01-05T13:50:46.000Z</time>
      </trkpt>
      <trkpt lat="42.76421" lon="1.58515">
        <ele>1283</ele>
        <time>2020-01-05T13:50:48.000Z</time>
      </trkpt>
      <trkpt lat="42.76423" lon="1.58514">
        <ele>1282</ele>
        <time>2020-01-05T13:50:50.000Z</time>
      </trkpt>
      <trkpt lat="42.76424" lon="1.58512">
        <ele>1282</ele>
        <time>2020-01-05T13:50:52.000Z</time>
      </trkpt>
      <trkpt lat="42.76425" lon="1.5851">
        <ele>1281</ele>
        <time>2020-01-05T13:50:54.000Z</time>
      </trkpt>
      <trkpt lat="42.76426" lon="1.58508">
        <ele>1281</ele>
        <time>2020-01-05T13:50:56.000Z</time>
      </trkpt>
      <trkpt lat="42.76428" lon="1.58506">
        <ele>1280</ele>
        <time>2020-01-05T13:50:58.000Z</time>
      </trkpt>
      <trkpt lat="42.76429" lon="1.58505">
        <ele>1280</ele>
        <time>2020-01-05T13:51:00.000Z</time>
      </trkpt>
      <trkpt lat="42.7643" lon="1.58503">
        <ele>1280</ele>
        <time>2020-01-05T13:51:02.000Z</time>
      </trkpt>
      <trkpt lat="42.76431" lon="1.58502">
        <ele>1279</ele>
        <time>2020-01-05T13:51:04.000Z</time>
      </trkpt>
      <trkpt lat="42.76431" lon="1.585">
        <ele>1279</ele>
        <time>2020-01-05T13:51:06.000Z</time>
      </trkpt>
      <trkpt lat="42.76432" lon="1.58498">
        <ele>1278</ele>
        <time>2020-01-05T13:51:08.000Z</time>
      </trkpt>
      <trkpt lat="42.76432" lon="1.58497">
        <ele>1278</ele>
        <time>2020-01-05T13:51:10.000Z</time>
      </trkpt>
      <trkpt lat="42.76432" lon="1.58495">
        <ele>1277</ele>
        <time>2020-01-05T13:51:12.000Z</time>
      </trkpt>
      <trkpt lat="42.76434" lon="1.58493">
        <ele>1277</ele>
        <time>2020-01-05T13:51:14.000Z</time>
      </trkpt>
      <trkpt lat="42.76435" lon="1.58491">
        <ele>1277</ele>
        <time>2020-01-05T13:51:16.000Z</time>
      </trkpt>
      <trkpt lat="42.76436" lon="1.5849">
        <ele>1277</ele>
        <time>2020-01-05T13:51:18.000Z</time>
      </trkpt>
      <trkpt lat="42.76437" lon="1.58488">
        <ele>1276</ele>
        <time>2020-01-05T13:51:20.000Z</time>
      </trkpt>
      <trkpt lat="42.76438" lon="1.58486">
        <ele>1276</ele>
        <time>2020-01-05T13:51:22.000Z</time>
      </trkpt>
      <trkpt lat="42.76439" lon="1.58484">
        <ele>1276</ele>
        <time>2020-01-05T13:51:24.000Z</time>
      </trkpt>
      <trkpt lat="42.76439" lon="1.58483">
        <ele>1275</ele>
        <time>2020-01-05T13:51:26.000Z</time>
      </trkpt>
      <trkpt lat="42.7644" lon="1.58482">
        <ele>1275</ele>
        <time>2020-01-05T13:51:28.000Z</time>
      </trkpt>
      <trkpt lat="42.76442" lon="1.58481">
        <ele>1275</ele>
        <time>2020-01-05T13:51:30.000Z</time>
      </trkpt>
      <trkpt lat="42.76442" lon="1.5848">
        <ele>1275</ele>
        <time>2020-01-05T13:51:32.000Z</time>
      </trkpt>
      <trkpt lat="42.76443" lon="1.58478">
        <ele>1274</ele>
        <time>2020-01-05T13:51:34.000Z</time>
      </trkpt>
      <trkpt lat="42.76444" lon="1.58476">
        <ele>1274</ele>
        <time>2020-01-05T13:51:36.000Z</time>
      </trkpt>
      <trkpt lat="42.76444" lon="1.58475">
        <ele>1274</ele>
        <time>2020-01-05T13:51:38.000Z</time>
      </trkpt>
      <trkpt lat="42.76445" lon="1.58473">
        <ele>1273</ele>
        <time>2020-01-05T13:51:40.000Z</time>
      </trkpt>
      <trkpt lat="42.76446" lon="1.58471">
        <ele>1273</ele>
        <time>2020-01-05T13:51:42.000Z</time>
      </trkpt>
      <trkpt lat="42.76447" lon="1.58469">
        <ele>1273</ele>
        <time>2020-01-05T13:51:44.000Z</time>
      </trkpt>
      <trkpt lat="42.76448" lon="1.58466">
        <ele>1272</ele>
        <time>2020-01-05T13:51:46.000Z</time>
      </trkpt>
      <trkpt lat="42.76449" lon="1.58464">
        <ele>1272</ele>
        <time>2020-01-05T13:51:48.000Z</time>
      </trkpt>
      <trkpt lat="42.7645" lon="1.58462">
        <ele>1271</ele>
        <time>2020-01-05T13:51:50.000Z</time>
      </trkpt>
      <trkpt lat="42.7645" lon="1.5846">
        <ele>1271</ele>
        <time>2020-01-05T13:51:52.000Z</time>
      </trkpt>
      <trkpt lat="42.76452" lon="1.58459">
        <ele>1271</ele>
        <time>2020-01-05T13:51:54.000Z</time>
      </trkpt>
      <trkpt lat="42.76453" lon="1.58457">
        <ele>1270</ele>
        <time>2020-01-05T13:51:56.000Z</time>
      </trkpt>
      <trkpt lat="42.76455" lon="1.58454">
        <ele>1270</ele>
        <time>2020-01-05T13:51:58.000Z</time>
      </trkpt>
      <trkpt lat="42.76456" lon="1.58452">
        <ele>1269</ele>
        <time>2020-01-05T13:52:00.000Z</time>
      </trkpt>
      <trkpt lat="42.76457" lon="1.5845">
        <ele>1269</ele>
        <time>2020-01-05T13:52:02.000Z</time>
      </trkpt>
      <trkpt lat="42.76458" lon="1.58447">
        <ele>1269</ele>
        <time>2020-01-05T13:52:04.000Z</time>
      </trkpt>
      <trkpt lat="42.76459" lon="1.58445">
        <ele>1268</ele>
        <time>2020-01-05T13:52:06.000Z</time>
      </trkpt>
      <trkpt lat="42.7646" lon="1.58442">
        <ele>1267</ele>
        <time>2020-01-05T13:52:08.000Z</time>
      </trkpt>
      <trkpt lat="42.76461" lon="1.58439">
        <ele>1267</ele>
        <time>2020-01-05T13:52:10.000Z</time>
      </trkpt>
      <trkpt lat="42.76463" lon="1.58437">
        <ele>1267</ele>
        <time>2020-01-05T13:52:12.000Z</time>
      </trkpt>
      <trkpt lat="42.76465" lon="1.58435">
        <ele>1267</ele>
        <time>2020-01-05T13:52:14.000Z</time>
      </trkpt>
      <trkpt lat="42.76467" lon="1.58432">
        <ele>1266</ele>
        <time>2020-01-05T13:52:16.000Z</time>
      </trkpt>
      <trkpt lat="42.76468" lon="1.5843">
        <ele>1266</ele>
        <time>2020-01-05T13:52:18.000Z</time>
      </trkpt>
      <trkpt lat="42.76469" lon="1.58428">
        <ele>1265</ele>
        <time>2020-01-05T13:52:20.000Z</time>
      </trkpt>
      <trkpt lat="42.76469" lon="1.58426">
        <ele>1265</ele>
        <time>2020-01-05T13:52:22.000Z</time>
      </trkpt>
      <trkpt lat="42.7647" lon="1.58424">
        <ele>1265</ele>
        <time>2020-01-05T13:52:24.000Z</time>
      </trkpt>
      <trkpt lat="42.76471" lon="1.58421">
        <ele>1264</ele>
        <time>2020-01-05T13:52:26.000Z</time>
      </trkpt>
      <trkpt lat="42.76471" lon="1.58418">
        <ele>1264</ele>
        <time>2020-01-05T13:52:28.000Z</time>
      </trkpt>
      <trkpt lat="42.76472" lon="1.58416">
        <ele>1263</ele>
        <time>2020-01-05T13:52:30.000Z</time>
      </trkpt>
      <trkpt lat="42.76472" lon="1.58414">
        <ele>1263</ele>
        <time>2020-01-05T13:52:32.000Z</time>
      </trkpt>
      <trkpt lat="42.76473" lon="1.58412">
        <ele>1262</ele>
        <time>2020-01-05T13:52:34.000Z</time>
      </trkpt>
      <trkpt lat="42.76473" lon="1.58409">
        <ele>1262</ele>
        <time>2020-01-05T13:52:36.000Z</time>
      </trkpt>
      <trkpt lat="42.76474" lon="1.58407">
        <ele>1262</ele>
        <time>2020-01-05T13:52:38.000Z</time>
      </trkpt>
      <trkpt lat="42.76474" lon="1.58405">
        <ele>1261</ele>
        <time>2020-01-05T13:52:40.000Z</time>
      </trkpt>
      <trkpt lat="42.76475" lon="1.58403">
        <ele>1261</ele>
        <time>2020-01-05T13:52:42.000Z</time>
      </trkpt>
      <trkpt lat="42.76475" lon="1.58399">
        <ele>1260</ele>
        <time>2020-01-05T13:52:44.000Z</time>
      </trkpt>
      <trkpt lat="42.76476" lon="1.58398">
        <ele>1260</ele>
        <time>2020-01-05T13:52:46.000Z</time>
      </trkpt>
      <trkpt lat="42.76477" lon="1.58395">
        <ele>1259</ele>
        <time>2020-01-05T13:52:48.000Z</time>
      </trkpt>
      <trkpt lat="42.76477" lon="1.58393">
        <ele>1259</ele>
        <time>2020-01-05T13:52:50.000Z</time>
      </trkpt>
      <trkpt lat="42.76477" lon="1.58391">
        <ele>1258</ele>
        <time>2020-01-05T13:52:52.000Z</time>
      </trkpt>
      <trkpt lat="42.76478" lon="1.58388">
        <ele>1258</ele>
        <time>2020-01-05T13:52:54.000Z</time>
      </trkpt>
      <trkpt lat="42.76478" lon="1.58386">
        <ele>1258</ele>
        <time>2020-01-05T13:52:56.000Z</time>
      </trkpt>
      <trkpt lat="42.76479" lon="1.58385">
        <ele>1257</ele>
        <time>2020-01-05T13:52:58.000Z</time>
      </trkpt>
      <trkpt lat="42.7648" lon="1.58383">
        <ele>1257</ele>
        <time>2020-01-05T13:53:00.000Z</time>
      </trkpt>
      <trkpt lat="42.7648" lon="1.58382">
        <ele>1257</ele>
        <time>2020-01-05T13:53:02.000Z</time>
      </trkpt>
      <trkpt lat="42.76481" lon="1.58381">
        <ele>1257</ele>
        <time>2020-01-05T13:53:04.000Z</time>
      </trkpt>
      <trkpt lat="42.76482" lon="1.58379">
        <ele>1256</ele>
        <time>2020-01-05T13:53:06.000Z</time>
      </trkpt>
      <trkpt lat="42.76484" lon="1.58377">
        <ele>1256</ele>
        <time>2020-01-05T13:53:08.000Z</time>
      </trkpt>
      <trkpt lat="42.76484" lon="1.58375">
        <ele>1256</ele>
        <time>2020-01-05T13:53:10.000Z</time>
      </trkpt>
      <trkpt lat="42.76484" lon="1.58373">
        <ele>1256</ele>
        <time>2020-01-05T13:53:12.000Z</time>
      </trkpt>
      <trkpt lat="42.76484" lon="1.5837">
        <ele>1255</ele>
        <time>2020-01-05T13:53:14.000Z</time>
      </trkpt>
      <trkpt lat="42.76484" lon="1.58368">
        <ele>1255</ele>
        <time>2020-01-05T13:53:16.000Z</time>
      </trkpt>
      <trkpt lat="42.76484" lon="1.58366">
        <ele>1254</ele>
        <time>2020-01-05T13:53:18.000Z</time>
      </trkpt>
      <trkpt lat="42.76484" lon="1.58365">
        <ele>1254</ele>
        <time>2020-01-05T13:53:20.000Z</time>
      </trkpt>
      <trkpt lat="42.76484" lon="1.58363">
        <ele>1254</ele>
        <time>2020-01-05T13:53:22.000Z</time>
      </trkpt>
      <trkpt lat="42.76484" lon="1.58361">
        <ele>1254</ele>
        <time>2020-01-05T13:53:24.000Z</time>
      </trkpt>
      <trkpt lat="42.76485" lon="1.58359">
        <ele>1253</ele>
        <time>2020-01-05T13:53:26.000Z</time>
      </trkpt>
      <trkpt lat="42.76485" lon="1.58357">
        <ele>1253</ele>
        <time>2020-01-05T13:53:28.000Z</time>
      </trkpt>
      <trkpt lat="42.76486" lon="1.58355">
        <ele>1253</ele>
        <time>2020-01-05T13:53:30.000Z</time>
      </trkpt>
      <trkpt lat="42.76486" lon="1.58354">
        <ele>1252</ele>
        <time>2020-01-05T13:53:32.000Z</time>
      </trkpt>
      <trkpt lat="42.76486" lon="1.58352">
        <ele>1252</ele>
        <time>2020-01-05T13:53:34.000Z</time>
      </trkpt>
      <trkpt lat="42.76486" lon="1.5835">
        <ele>1252</ele>
        <time>2020-01-05T13:53:36.000Z</time>
      </trkpt>
      <trkpt lat="42.76486" lon="1.58348">
        <ele>1252</ele>
        <time>2020-01-05T13:53:38.000Z</time>
      </trkpt>
      <trkpt lat="42.76487" lon="1.58346">
        <ele>1251</ele>
        <time>2020-01-05T13:53:40.000Z</time>
      </trkpt>
      <trkpt lat="42.76488" lon="1.58343">
        <ele>1251</ele>
        <time>2020-01-05T13:53:42.000Z</time>
      </trkpt>
      <trkpt lat="42.76489" lon="1.5834">
        <ele>1251</ele>
        <time>2020-01-05T13:53:44.000Z</time>
      </trkpt>
      <trkpt lat="42.76491" lon="1.58337">
        <ele>1250</ele>
        <time>2020-01-05T13:53:46.000Z</time>
      </trkpt>
      <trkpt lat="42.76492" lon="1.58334">
        <ele>1250</ele>
        <time>2020-01-05T13:53:48.000Z</time>
      </trkpt>
      <trkpt lat="42.76493" lon="1.58332">
        <ele>1250</ele>
        <time>2020-01-05T13:53:50.000Z</time>
      </trkpt>
      <trkpt lat="42.76494" lon="1.5833">
        <ele>1249</ele>
        <time>2020-01-05T13:53:52.000Z</time>
      </trkpt>
      <trkpt lat="42.76495" lon="1.58327">
        <ele>1249</ele>
        <time>2020-01-05T13:53:54.000Z</time>
      </trkpt>
      <trkpt lat="42.76495" lon="1.58326">
        <ele>1249</ele>
        <time>2020-01-05T13:53:56.000Z</time>
      </trkpt>
      <trkpt lat="42.76495" lon="1.58324">
        <ele>1249</ele>
        <time>2020-01-05T13:53:58.000Z</time>
      </trkpt>
      <trkpt lat="42.76496" lon="1.5832">
        <ele>1248</ele>
        <time>2020-01-05T13:54:00.000Z</time>
      </trkpt>
      <trkpt lat="42.76496" lon="1.58318">
        <ele>1248</ele>
        <time>2020-01-05T13:54:02.000Z</time>
      </trkpt>
      <trkpt lat="42.76496" lon="1.58315">
        <ele>1247</ele>
        <time>2020-01-05T13:54:04.000Z</time>
      </trkpt>
      <trkpt lat="42.76497" lon="1.58313">
        <ele>1247</ele>
        <time>2020-01-05T13:54:06.000Z</time>
      </trkpt>
      <trkpt lat="42.76497" lon="1.5831">
        <ele>1246</ele>
        <time>2020-01-05T13:54:08.000Z</time>
      </trkpt>
      <trkpt lat="42.76498" lon="1.58307">
        <ele>1245</ele>
        <time>2020-01-05T13:54:10.000Z</time>
      </trkpt>
      <trkpt lat="42.76498" lon="1.58305">
        <ele>1245</ele>
        <time>2020-01-05T13:54:12.000Z</time>
      </trkpt>
      <trkpt lat="42.76499" lon="1.58302">
        <ele>1245</ele>
        <time>2020-01-05T13:54:14.000Z</time>
      </trkpt>
      <trkpt lat="42.765" lon="1.583">
        <ele>1245</ele>
        <time>2020-01-05T13:54:16.000Z</time>
      </trkpt>
      <trkpt lat="42.765" lon="1.58298">
        <ele>1244</ele>
        <time>2020-01-05T13:54:18.000Z</time>
      </trkpt>
      <trkpt lat="42.76501" lon="1.58297">
        <ele>1244</ele>
        <time>2020-01-05T13:54:20.000Z</time>
      </trkpt>
      <trkpt lat="42.765" lon="1.58295">
        <ele>1244</ele>
        <time>2020-01-05T13:54:22.000Z</time>
      </trkpt>
      <trkpt lat="42.765" lon="1.58293">
        <ele>1243</ele>
        <time>2020-01-05T13:54:24.000Z</time>
      </trkpt>
      <trkpt lat="42.765" lon="1.58292">
        <ele>1243</ele>
        <time>2020-01-05T13:54:26.000Z</time>
      </trkpt>
      <trkpt lat="42.76501" lon="1.58289">
        <ele>1243</ele>
        <time>2020-01-05T13:54:28.000Z</time>
      </trkpt>
      <trkpt lat="42.76502" lon="1.58287">
        <ele>1243</ele>
        <time>2020-01-05T13:54:30.000Z</time>
      </trkpt>
      <trkpt lat="42.76503" lon="1.58284">
        <ele>1242</ele>
        <time>2020-01-05T13:54:32.000Z</time>
      </trkpt>
      <trkpt lat="42.76503" lon="1.58282">
        <ele>1242</ele>
        <time>2020-01-05T13:54:34.000Z</time>
      </trkpt>
      <trkpt lat="42.76504" lon="1.5828">
        <ele>1242</ele>
        <time>2020-01-05T13:54:36.000Z</time>
      </trkpt>
      <trkpt lat="42.76504" lon="1.58278">
        <ele>1241</ele>
        <time>2020-01-05T13:54:38.000Z</time>
      </trkpt>
      <trkpt lat="42.76504" lon="1.58275">
        <ele>1241</ele>
        <time>2020-01-05T13:54:40.000Z</time>
      </trkpt>
      <trkpt lat="42.76504" lon="1.58272">
        <ele>1240</ele>
        <time>2020-01-05T13:54:42.000Z</time>
      </trkpt>
      <trkpt lat="42.76504" lon="1.5827">
        <ele>1240</ele>
        <time>2020-01-05T13:54:44.000Z</time>
      </trkpt>
      <trkpt lat="42.76504" lon="1.58269">
        <ele>1239</ele>
        <time>2020-01-05T13:54:46.000Z</time>
      </trkpt>
      <trkpt lat="42.76504" lon="1.58267">
        <ele>1239</ele>
        <time>2020-01-05T13:54:48.000Z</time>
      </trkpt>
      <trkpt lat="42.76504" lon="1.58265">
        <ele>1239</ele>
        <time>2020-01-05T13:54:50.000Z</time>
      </trkpt>
      <trkpt lat="42.76504" lon="1.58264">
        <ele>1238</ele>
        <time>2020-01-05T13:54:52.000Z</time>
      </trkpt>
      <trkpt lat="42.76504" lon="1.58262">
        <ele>1238</ele>
        <time>2020-01-05T13:54:54.000Z</time>
      </trkpt>
      <trkpt lat="42.76503" lon="1.58261">
        <ele>1238</ele>
        <time>2020-01-05T13:54:56.000Z</time>
      </trkpt>
      <trkpt lat="42.76503" lon="1.58259">
        <ele>1237</ele>
        <time>2020-01-05T13:54:58.000Z</time>
      </trkpt>
      <trkpt lat="42.76503" lon="1.58258">
        <ele>1237</ele>
        <time>2020-01-05T13:55:00.000Z</time>
      </trkpt>
      <trkpt lat="42.76503" lon="1.58255">
        <ele>1237</ele>
        <time>2020-01-05T13:55:02.000Z</time>
      </trkpt>
      <trkpt lat="42.76503" lon="1.58253">
        <ele>1236</ele>
        <time>2020-01-05T13:55:04.000Z</time>
      </trkpt>
      <trkpt lat="42.76502" lon="1.58252">
        <ele>1236</ele>
        <time>2020-01-05T13:55:06.000Z</time>
      </trkpt>
      <trkpt lat="42.76502" lon="1.5825">
        <ele>1235</ele>
        <time>2020-01-05T13:55:08.000Z</time>
      </trkpt>
      <trkpt lat="42.76502" lon="1.58249">
        <ele>1235</ele>
        <time>2020-01-05T13:55:10.000Z</time>
      </trkpt>
      <trkpt lat="42.76502" lon="1.58248">
        <ele>1235</ele>
        <time>2020-01-05T13:55:12.000Z</time>
      </trkpt>
      <trkpt lat="42.76502" lon="1.58246">
        <ele>1235</ele>
        <time>2020-01-05T13:55:14.000Z</time>
      </trkpt>
      <trkpt lat="42.76502" lon="1.58243">
        <ele>1234</ele>
        <time>2020-01-05T13:55:16.000Z</time>
      </trkpt>
      <trkpt lat="42.76502" lon="1.5824">
        <ele>1234</ele>
        <time>2020-01-05T13:55:18.000Z</time>
      </trkpt>
      <trkpt lat="42.76502" lon="1.58237">
        <ele>1233</ele>
        <time>2020-01-05T13:55:20.000Z</time>
      </trkpt>
      <trkpt lat="42.76503" lon="1.58235">
        <ele>1233</ele>
        <time>2020-01-05T13:55:22.000Z</time>
      </trkpt>
      <trkpt lat="42.76502" lon="1.58233">
        <ele>1232</ele>
        <time>2020-01-05T13:55:24.000Z</time>
      </trkpt>
      <trkpt lat="42.76501" lon="1.58231">
        <ele>1232</ele>
        <time>2020-01-05T13:55:26.000Z</time>
      </trkpt>
      <trkpt lat="42.76501" lon="1.5823">
        <ele>1231</ele>
        <time>2020-01-05T13:55:28.000Z</time>
      </trkpt>
      <trkpt lat="42.76501" lon="1.58229">
        <ele>1231</ele>
        <time>2020-01-05T13:55:30.000Z</time>
      </trkpt>
      <trkpt lat="42.76501" lon="1.58227">
        <ele>1230</ele>
        <time>2020-01-05T13:55:32.000Z</time>
      </trkpt>
      <trkpt lat="42.76502" lon="1.58225">
        <ele>1230</ele>
        <time>2020-01-05T13:55:34.000Z</time>
      </trkpt>
      <trkpt lat="42.76503" lon="1.58224">
        <ele>1230</ele>
        <time>2020-01-05T13:55:36.000Z</time>
      </trkpt>
      <trkpt lat="42.76502" lon="1.58223">
        <ele>1229</ele>
        <time>2020-01-05T13:55:38.000Z</time>
      </trkpt>
      <trkpt lat="42.76503" lon="1.58221">
        <ele>1229</ele>
        <time>2020-01-05T13:55:40.000Z</time>
      </trkpt>
      <trkpt lat="42.76504" lon="1.58219">
        <ele>1228</ele>
        <time>2020-01-05T13:55:42.000Z</time>
      </trkpt>
      <trkpt lat="42.76504" lon="1.58215">
        <ele>1227</ele>
        <time>2020-01-05T13:55:44.000Z</time>
      </trkpt>
      <trkpt lat="42.76504" lon="1.58213">
        <ele>1227</ele>
        <time>2020-01-05T13:55:46.000Z</time>
      </trkpt>
      <trkpt lat="42.76505" lon="1.58211">
        <ele>1226</ele>
        <time>2020-01-05T13:55:48.000Z</time>
      </trkpt>
      <trkpt lat="42.76505" lon="1.5821">
        <ele>1226</ele>
        <time>2020-01-05T13:55:50.000Z</time>
      </trkpt>
      <trkpt lat="42.76504" lon="1.58209">
        <ele>1225</ele>
        <time>2020-01-05T13:55:52.000Z</time>
      </trkpt>
      <trkpt lat="42.76504" lon="1.58206">
        <ele>1225</ele>
        <time>2020-01-05T13:55:54.000Z</time>
      </trkpt>
      <trkpt lat="42.76504" lon="1.58205">
        <ele>1224</ele>
        <time>2020-01-05T13:55:56.000Z</time>
      </trkpt>
      <trkpt lat="42.76504" lon="1.58206">
        <ele>1225</ele>
        <time>2020-01-05T13:55:58.000Z</time>
      </trkpt>
      <trkpt lat="42.76504" lon="1.58204">
        <ele>1224</ele>
        <time>2020-01-05T13:56:00.000Z</time>
      </trkpt>
      <trkpt lat="42.76504" lon="1.58203">
        <ele>1224</ele>
        <time>2020-01-05T13:56:02.000Z</time>
      </trkpt>
      <trkpt lat="42.76504" lon="1.58201">
        <ele>1223</ele>
        <time>2020-01-05T13:56:04.000Z</time>
      </trkpt>
      <trkpt lat="42.76502" lon="1.582">
        <ele>1223</ele>
        <time>2020-01-05T13:56:06.000Z</time>
      </trkpt>
      <trkpt lat="42.76502" lon="1.58198">
        <ele>1222</ele>
        <time>2020-01-05T13:56:08.000Z</time>
      </trkpt>
      <trkpt lat="42.76501" lon="1.58196">
        <ele>1221</ele>
        <time>2020-01-05T13:56:10.000Z</time>
      </trkpt>
      <trkpt lat="42.76501" lon="1.58194">
        <ele>1221</ele>
        <time>2020-01-05T13:56:12.000Z</time>
      </trkpt>
      <trkpt lat="42.76502" lon="1.58192">
        <ele>1220</ele>
        <time>2020-01-05T13:56:14.000Z</time>
      </trkpt>
      <trkpt lat="42.76502" lon="1.5819">
        <ele>1220</ele>
        <time>2020-01-05T13:56:16.000Z</time>
      </trkpt>
      <trkpt lat="42.76502" lon="1.58189">
        <ele>1219</ele>
        <time>2020-01-05T13:56:18.000Z</time>
      </trkpt>
      <trkpt lat="42.76502" lon="1.58187">
        <ele>1219</ele>
        <time>2020-01-05T13:56:20.000Z</time>
      </trkpt>
      <trkpt lat="42.76503" lon="1.58185">
        <ele>1218</ele>
        <time>2020-01-05T13:56:22.000Z</time>
      </trkpt>
      <trkpt lat="42.76505" lon="1.58182">
        <ele>1218</ele>
        <time>2020-01-05T13:56:24.000Z</time>
      </trkpt>
      <trkpt lat="42.76506" lon="1.5818">
        <ele>1217</ele>
        <time>2020-01-05T13:56:26.000Z</time>
      </trkpt>
      <trkpt lat="42.76508" lon="1.58178">
        <ele>1217</ele>
        <time>2020-01-05T13:56:28.000Z</time>
      </trkpt>
      <trkpt lat="42.76509" lon="1.58176">
        <ele>1216</ele>
        <time>2020-01-05T13:56:30.000Z</time>
      </trkpt>
      <trkpt lat="42.7651" lon="1.58175">
        <ele>1216</ele>
        <time>2020-01-05T13:56:32.000Z</time>
      </trkpt>
      <trkpt lat="42.76511" lon="1.58175">
        <ele>1216</ele>
        <time>2020-01-05T13:56:34.000Z</time>
      </trkpt>
      <trkpt lat="42.7651" lon="1.58174">
        <ele>1216</ele>
        <time>2020-01-05T13:56:36.000Z</time>
      </trkpt>
      <trkpt lat="42.7651" lon="1.58174">
        <ele>1216</ele>
        <time>2020-01-05T13:56:38.000Z</time>
      </trkpt>
      <trkpt lat="42.7651" lon="1.58173">
        <ele>1216</ele>
        <time>2020-01-05T13:56:40.000Z</time>
      </trkpt>
      <trkpt lat="42.7651" lon="1.58173">
        <ele>1215</ele>
        <time>2020-01-05T13:56:42.000Z</time>
      </trkpt>
      <trkpt lat="42.7651" lon="1.58172">
        <ele>1215</ele>
        <time>2020-01-05T13:56:44.000Z</time>
      </trkpt>
      <trkpt lat="42.7651" lon="1.58171">
        <ele>1215</ele>
        <time>2020-01-05T13:56:46.000Z</time>
      </trkpt>
      <trkpt lat="42.76511" lon="1.58171">
        <ele>1215</ele>
        <time>2020-01-05T13:56:48.000Z</time>
      </trkpt>
      <trkpt lat="42.76512" lon="1.58171">
        <ele>1215</ele>
        <time>2020-01-05T13:56:50.000Z</time>
      </trkpt>
      <trkpt lat="42.76513" lon="1.58172">
        <ele>1215</ele>
        <time>2020-01-05T13:56:52.000Z</time>
      </trkpt>
      <trkpt lat="42.76514" lon="1.58171">
        <ele>1215</ele>
        <time>2020-01-05T13:56:54.000Z</time>
      </trkpt>
      <trkpt lat="42.76515" lon="1.58171">
        <ele>1215</ele>
        <time>2020-01-05T13:56:56.000Z</time>
      </trkpt>
      <trkpt lat="42.76516" lon="1.58169">
        <ele>1215</ele>
        <time>2020-01-05T13:56:58.000Z</time>
      </trkpt>
      <trkpt lat="42.76517" lon="1.58168">
        <ele>1214</ele>
        <time>2020-01-05T13:57:00.000Z</time>
      </trkpt>
      <trkpt lat="42.76518" lon="1.58167">
        <ele>1214</ele>
        <time>2020-01-05T13:57:02.000Z</time>
      </trkpt>
      <trkpt lat="42.76518" lon="1.58166">
        <ele>1214</ele>
        <time>2020-01-05T13:57:04.000Z</time>
      </trkpt>
      <trkpt lat="42.76517" lon="1.58165">
        <ele>1214</ele>
        <time>2020-01-05T13:57:06.000Z</time>
      </trkpt>
      <trkpt lat="42.76518" lon="1.58165">
        <ele>1214</ele>
        <time>2020-01-05T13:57:08.000Z</time>
      </trkpt>
      <trkpt lat="42.76519" lon="1.58164">
        <ele>1214</ele>
        <time>2020-01-05T13:57:10.000Z</time>
      </trkpt>
      <trkpt lat="42.7652" lon="1.58163">
        <ele>1213</ele>
        <time>2020-01-05T13:57:12.000Z</time>
      </trkpt>
      <trkpt lat="42.76521" lon="1.58162">
        <ele>1213</ele>
        <time>2020-01-05T13:57:14.000Z</time>
      </trkpt>
      <trkpt lat="42.76521" lon="1.58161">
        <ele>1213</ele>
        <time>2020-01-05T13:57:16.000Z</time>
      </trkpt>
      <trkpt lat="42.76522" lon="1.58159">
        <ele>1212</ele>
        <time>2020-01-05T13:57:18.000Z</time>
      </trkpt>
      <trkpt lat="42.76523" lon="1.58158">
        <ele>1212</ele>
        <time>2020-01-05T13:57:20.000Z</time>
      </trkpt>
      <trkpt lat="42.76525" lon="1.58157">
        <ele>1212</ele>
        <time>2020-01-05T13:57:22.000Z</time>
      </trkpt>
      <trkpt lat="42.76525" lon="1.58156">
        <ele>1212</ele>
        <time>2020-01-05T13:57:24.000Z</time>
      </trkpt>
      <trkpt lat="42.76526" lon="1.58156">
        <ele>1212</ele>
        <time>2020-01-05T13:57:26.000Z</time>
      </trkpt>
      <trkpt lat="42.76526" lon="1.58154">
        <ele>1212</ele>
        <time>2020-01-05T13:57:28.000Z</time>
      </trkpt>
      <trkpt lat="42.76526" lon="1.58154">
        <ele>1212</ele>
        <time>2020-01-05T13:57:30.000Z</time>
      </trkpt>
      <trkpt lat="42.76526" lon="1.58153">
        <ele>1211</ele>
        <time>2020-01-05T13:57:32.000Z</time>
      </trkpt>
      <trkpt lat="42.76527" lon="1.58152">
        <ele>1211</ele>
        <time>2020-01-05T13:57:34.000Z</time>
      </trkpt>
      <trkpt lat="42.76527" lon="1.58151">
        <ele>1211</ele>
        <time>2020-01-05T13:57:36.000Z</time>
      </trkpt>
      <trkpt lat="42.76529" lon="1.58149">
        <ele>1210</ele>
        <time>2020-01-05T13:57:38.000Z</time>
      </trkpt>
      <trkpt lat="42.7653" lon="1.58148">
        <ele>1210</ele>
        <time>2020-01-05T13:57:40.000Z</time>
      </trkpt>
      <trkpt lat="42.7653" lon="1.58147">
        <ele>1210</ele>
        <time>2020-01-05T13:57:42.000Z</time>
      </trkpt>
      <trkpt lat="42.76531" lon="1.58146">
        <ele>1210</ele>
        <time>2020-01-05T13:57:44.000Z</time>
      </trkpt>
      <trkpt lat="42.76531" lon="1.58145">
        <ele>1209</ele>
        <time>2020-01-05T13:57:46.000Z</time>
      </trkpt>
      <trkpt lat="42.7653" lon="1.58143">
        <ele>1209</ele>
        <time>2020-01-05T13:57:48.000Z</time>
      </trkpt>
      <trkpt lat="42.7653" lon="1.58144">
        <ele>1209</ele>
        <time>2020-01-05T13:57:50.000Z</time>
      </trkpt>
      <trkpt lat="42.7653" lon="1.58142">
        <ele>1208</ele>
        <time>2020-01-05T13:57:52.000Z</time>
      </trkpt>
      <trkpt lat="42.7653" lon="1.58141">
        <ele>1208</ele>
        <time>2020-01-05T13:57:54.000Z</time>
      </trkpt>
      <trkpt lat="42.76531" lon="1.58139">
        <ele>1207</ele>
        <time>2020-01-05T13:57:56.000Z</time>
      </trkpt>
      <trkpt lat="42.76531" lon="1.58137">
        <ele>1207</ele>
        <time>2020-01-05T13:57:58.000Z</time>
      </trkpt>
      <trkpt lat="42.7653" lon="1.58136">
        <ele>1207</ele>
        <time>2020-01-05T13:58:00.000Z</time>
      </trkpt>
      <trkpt lat="42.76531" lon="1.58136">
        <ele>1207</ele>
        <time>2020-01-05T13:58:02.000Z</time>
      </trkpt>
      <trkpt lat="42.76531" lon="1.58136">
        <ele>1207</ele>
        <time>2020-01-05T13:58:04.000Z</time>
      </trkpt>
      <trkpt lat="42.76531" lon="1.58135">
        <ele>1206</ele>
        <time>2020-01-05T13:58:06.000Z</time>
      </trkpt>
      <trkpt lat="42.76532" lon="1.58135">
        <ele>1206</ele>
        <time>2020-01-05T13:58:08.000Z</time>
      </trkpt>
      <trkpt lat="42.76533" lon="1.58135">
        <ele>1206</ele>
        <time>2020-01-05T13:58:10.000Z</time>
      </trkpt>
      <trkpt lat="42.76532" lon="1.58134">
        <ele>1206</ele>
        <time>2020-01-05T13:58:12.000Z</time>
      </trkpt>
      <trkpt lat="42.76532" lon="1.58135">
        <ele>1206</ele>
        <time>2020-01-05T13:58:14.000Z</time>
      </trkpt>
      <trkpt lat="42.76531" lon="1.58134">
        <ele>1206</ele>
        <time>2020-01-05T13:58:16.000Z</time>
      </trkpt>
      <trkpt lat="42.76531" lon="1.58135">
        <ele>1206</ele>
        <time>2020-01-05T13:58:18.000Z</time>
      </trkpt>
      <trkpt lat="42.76531" lon="1.58134">
        <ele>1206</ele>
        <time>2020-01-05T13:58:20.000Z</time>
      </trkpt>
      <trkpt lat="42.76531" lon="1.58134">
        <ele>1206</ele>
        <time>2020-01-05T13:58:22.000Z</time>
      </trkpt>
      <trkpt lat="42.76531" lon="1.58133">
        <ele>1206</ele>
        <time>2020-01-05T13:58:24.000Z</time>
      </trkpt>
      <trkpt lat="42.76531" lon="1.58133">
        <ele>1206</ele>
        <time>2020-01-05T13:58:26.000Z</time>
      </trkpt>
      <trkpt lat="42.76529" lon="1.58133">
        <ele>1205</ele>
        <time>2020-01-05T13:58:28.000Z</time>
      </trkpt>
      <trkpt lat="42.76529" lon="1.58132">
        <ele>1205</ele>
        <time>2020-01-05T13:58:30.000Z</time>
      </trkpt>
      <trkpt lat="42.76528" lon="1.58131">
        <ele>1205</ele>
        <time>2020-01-05T13:58:32.000Z</time>
      </trkpt>
      <trkpt lat="42.76529" lon="1.58129">
        <ele>1204</ele>
        <time>2020-01-05T13:58:34.000Z</time>
      </trkpt>
      <trkpt lat="42.76529" lon="1.58129">
        <ele>1204</ele>
        <time>2020-01-05T13:58:36.000Z</time>
      </trkpt>
      <trkpt lat="42.76529" lon="1.58127">
        <ele>1204</ele>
        <time>2020-01-05T13:58:38.000Z</time>
      </trkpt>
      <trkpt lat="42.7653" lon="1.58126">
        <ele>1204</ele>
        <time>2020-01-05T13:58:40.000Z</time>
      </trkpt>
      <trkpt lat="42.7653" lon="1.58126">
        <ele>1203</ele>
        <time>2020-01-05T13:58:42.000Z</time>
      </trkpt>
      <trkpt lat="42.7653" lon="1.58125">
        <ele>1203</ele>
        <time>2020-01-05T13:58:44.000Z</time>
      </trkpt>
      <trkpt lat="42.7653" lon="1.58124">
        <ele>1203</ele>
        <time>2020-01-05T13:58:46.000Z</time>
      </trkpt>
      <trkpt lat="42.7653" lon="1.58123">
        <ele>1203</ele>
        <time>2020-01-05T13:58:48.000Z</time>
      </trkpt>
      <trkpt lat="42.76531" lon="1.5812">
        <ele>1202</ele>
        <time>2020-01-05T13:58:50.000Z</time>
      </trkpt>
      <trkpt lat="42.76531" lon="1.58118">
        <ele>1201</ele>
        <time>2020-01-05T13:58:52.000Z</time>
      </trkpt>
      <trkpt lat="42.76531" lon="1.58116">
        <ele>1201</ele>
        <time>2020-01-05T13:58:54.000Z</time>
      </trkpt>
      <trkpt lat="42.76532" lon="1.58115">
        <ele>1200</ele>
        <time>2020-01-05T13:58:56.000Z</time>
      </trkpt>
      <trkpt lat="42.76532" lon="1.58114">
        <ele>1200</ele>
        <time>2020-01-05T13:58:58.000Z</time>
      </trkpt>
      <trkpt lat="42.76532" lon="1.58113">
        <ele>1200</ele>
        <time>2020-01-05T13:59:00.000Z</time>
      </trkpt>
      <trkpt lat="42.76532" lon="1.58111">
        <ele>1199</ele>
        <time>2020-01-05T13:59:02.000Z</time>
      </trkpt>
      <trkpt lat="42.76533" lon="1.58111">
        <ele>1199</ele>
        <time>2020-01-05T13:59:04.000Z</time>
      </trkpt>
      <trkpt lat="42.76533" lon="1.58109">
        <ele>1199</ele>
        <time>2020-01-05T13:59:06.000Z</time>
      </trkpt>
      <trkpt lat="42.76534" lon="1.58107">
        <ele>1198</ele>
        <time>2020-01-05T13:59:08.000Z</time>
      </trkpt>
      <trkpt lat="42.76534" lon="1.58106">
        <ele>1198</ele>
        <time>2020-01-05T13:59:10.000Z</time>
      </trkpt>
      <trkpt lat="42.76535" lon="1.58105">
        <ele>1198</ele>
        <time>2020-01-05T13:59:12.000Z</time>
      </trkpt>
      <trkpt lat="42.76534" lon="1.58104">
        <ele>1197</ele>
        <time>2020-01-05T13:59:14.000Z</time>
      </trkpt>
      <trkpt lat="42.76535" lon="1.58102">
        <ele>1197</ele>
        <time>2020-01-05T13:59:16.000Z</time>
      </trkpt>
      <trkpt lat="42.76535" lon="1.581">
        <ele>1196</ele>
        <time>2020-01-05T13:59:18.000Z</time>
      </trkpt>
      <trkpt lat="42.76535" lon="1.58099">
        <ele>1196</ele>
        <time>2020-01-05T13:59:20.000Z</time>
      </trkpt>
      <trkpt lat="42.76534" lon="1.58097">
        <ele>1195</ele>
        <time>2020-01-05T13:59:22.000Z</time>
      </trkpt>
      <trkpt lat="42.76534" lon="1.58095">
        <ele>1195</ele>
        <time>2020-01-05T13:59:24.000Z</time>
      </trkpt>
      <trkpt lat="42.76534" lon="1.58094">
        <ele>1195</ele>
        <time>2020-01-05T13:59:26.000Z</time>
      </trkpt>
      <trkpt lat="42.76534" lon="1.58094">
        <ele>1195</ele>
        <time>2020-01-05T13:59:28.000Z</time>
      </trkpt>
      <trkpt lat="42.76534" lon="1.58093">
        <ele>1194</ele>
        <time>2020-01-05T13:59:30.000Z</time>
      </trkpt>
      <trkpt lat="42.76534" lon="1.58093">
        <ele>1194</ele>
        <time>2020-01-05T13:59:32.000Z</time>
      </trkpt>
      <trkpt lat="42.76533" lon="1.58094">
        <ele>1194</ele>
        <time>2020-01-05T13:59:34.000Z</time>
      </trkpt>
      <trkpt lat="42.76531" lon="1.58093">
        <ele>1194</ele>
        <time>2020-01-05T13:59:36.000Z</time>
      </trkpt>
      <trkpt lat="42.7653" lon="1.58093">
        <ele>1194</ele>
        <time>2020-01-05T13:59:38.000Z</time>
      </trkpt>
      <trkpt lat="42.7653" lon="1.58093">
        <ele>1194</ele>
        <time>2020-01-05T13:59:40.000Z</time>
      </trkpt>
      <trkpt lat="42.7653" lon="1.58093">
        <ele>1194</ele>
        <time>2020-01-05T13:59:42.000Z</time>
      </trkpt>
      <trkpt lat="42.7653" lon="1.58091">
        <ele>1193</ele>
        <time>2020-01-05T13:59:44.000Z</time>
      </trkpt>
      <trkpt lat="42.76529" lon="1.58089">
        <ele>1193</ele>
        <time>2020-01-05T13:59:46.000Z</time>
      </trkpt>
      <trkpt lat="42.76529" lon="1.58087">
        <ele>1192</ele>
        <time>2020-01-05T13:59:48.000Z</time>
      </trkpt>
      <trkpt lat="42.76528" lon="1.58086">
        <ele>1192</ele>
        <time>2020-01-05T13:59:50.000Z</time>
      </trkpt>
      <trkpt lat="42.76528" lon="1.58085">
        <ele>1192</ele>
        <time>2020-01-05T13:59:52.000Z</time>
      </trkpt>
      <trkpt lat="42.76528" lon="1.58083">
        <ele>1191</ele>
        <time>2020-01-05T13:59:54.000Z</time>
      </trkpt>
      <trkpt lat="42.76527" lon="1.58083">
        <ele>1191</ele>
        <time>2020-01-05T13:59:56.000Z</time>
      </trkpt>
      <trkpt lat="42.76526" lon="1.58081">
        <ele>1190</ele>
        <time>2020-01-05T13:59:58.000Z</time>
      </trkpt>
      <trkpt lat="42.76525" lon="1.58078">
        <ele>1190</ele>
        <time>2020-01-05T14:00:00.000Z</time>
      </trkpt>
      <trkpt lat="42.76525" lon="1.58076">
        <ele>1189</ele>
        <time>2020-01-05T14:00:02.000Z</time>
      </trkpt>
      <trkpt lat="42.76524" lon="1.58073">
        <ele>1189</ele>
        <time>2020-01-05T14:00:04.000Z</time>
      </trkpt>
      <trkpt lat="42.76525" lon="1.58072">
        <ele>1188</ele>
        <time>2020-01-05T14:00:06.000Z</time>
      </trkpt>
      <trkpt lat="42.76525" lon="1.5807">
        <ele>1188</ele>
        <time>2020-01-05T14:00:08.000Z</time>
      </trkpt>
      <trkpt lat="42.76523" lon="1.58069">
        <ele>1187</ele>
        <time>2020-01-05T14:00:10.000Z</time>
      </trkpt>
      <trkpt lat="42.76523" lon="1.58067">
        <ele>1187</ele>
        <time>2020-01-05T14:00:12.000Z</time>
      </trkpt>
      <trkpt lat="42.76523" lon="1.58066">
        <ele>1187</ele>
        <time>2020-01-05T14:00:14.000Z</time>
      </trkpt>
      <trkpt lat="42.76521" lon="1.58064">
        <ele>1186</ele>
        <time>2020-01-05T14:00:16.000Z</time>
      </trkpt>
      <trkpt lat="42.7652" lon="1.58064">
        <ele>1186</ele>
        <time>2020-01-05T14:00:18.000Z</time>
      </trkpt>
      <trkpt lat="42.76519" lon="1.58063">
        <ele>1185</ele>
        <time>2020-01-05T14:00:20.000Z</time>
      </trkpt>
      <trkpt lat="42.76519" lon="1.58063">
        <ele>1185</ele>
        <time>2020-01-05T14:00:22.000Z</time>
      </trkpt>
      <trkpt lat="42.76519" lon="1.58061">
        <ele>1185</ele>
        <time>2020-01-05T14:00:24.000Z</time>
      </trkpt>
      <trkpt lat="42.76519" lon="1.58061">
        <ele>1185</ele>
        <time>2020-01-05T14:00:26.000Z</time>
      </trkpt>
      <trkpt lat="42.76519" lon="1.58059">
        <ele>1185</ele>
        <time>2020-01-05T14:00:28.000Z</time>
      </trkpt>
      <trkpt lat="42.76518" lon="1.58058">
        <ele>1184</ele>
        <time>2020-01-05T14:00:30.000Z</time>
      </trkpt>
      <trkpt lat="42.76517" lon="1.58057">
        <ele>1183</ele>
        <time>2020-01-05T14:00:32.000Z</time>
      </trkpt>
      <trkpt lat="42.76516" lon="1.58057">
        <ele>1183</ele>
        <time>2020-01-05T14:00:34.000Z</time>
      </trkpt>
      <trkpt lat="42.76514" lon="1.58054">
        <ele>1182</ele>
        <time>2020-01-05T14:00:36.000Z</time>
      </trkpt>
      <trkpt lat="42.76514" lon="1.58052">
        <ele>1182</ele>
        <time>2020-01-05T14:00:38.000Z</time>
      </trkpt>
      <trkpt lat="42.76514" lon="1.58049">
        <ele>1181</ele>
        <time>2020-01-05T14:00:40.000Z</time>
      </trkpt>
      <trkpt lat="42.76514" lon="1.58048">
        <ele>1181</ele>
        <time>2020-01-05T14:00:42.000Z</time>
      </trkpt>
      <trkpt lat="42.76514" lon="1.58046">
        <ele>1180</ele>
        <time>2020-01-05T14:00:44.000Z</time>
      </trkpt>
      <trkpt lat="42.76514" lon="1.58044">
        <ele>1180</ele>
        <time>2020-01-05T14:00:46.000Z</time>
      </trkpt>
      <trkpt lat="42.76514" lon="1.58041">
        <ele>1179</ele>
        <time>2020-01-05T14:00:48.000Z</time>
      </trkpt>
      <trkpt lat="42.76513" lon="1.58039">
        <ele>1178</ele>
        <time>2020-01-05T14:00:50.000Z</time>
      </trkpt>
      <trkpt lat="42.76513" lon="1.58036">
        <ele>1177</ele>
        <time>2020-01-05T14:00:52.000Z</time>
      </trkpt>
      <trkpt lat="42.76512" lon="1.58033">
        <ele>1177</ele>
        <time>2020-01-05T14:00:54.000Z</time>
      </trkpt>
      <trkpt lat="42.76512" lon="1.58031">
        <ele>1176</ele>
        <time>2020-01-05T14:00:56.000Z</time>
      </trkpt>
      <trkpt lat="42.76513" lon="1.58029">
        <ele>1176</ele>
        <time>2020-01-05T14:00:58.000Z</time>
      </trkpt>
      <trkpt lat="42.76514" lon="1.58029">
        <ele>1176</ele>
        <time>2020-01-05T14:01:00.000Z</time>
      </trkpt>
      <trkpt lat="42.76514" lon="1.58028">
        <ele>1176</ele>
        <time>2020-01-05T14:01:02.000Z</time>
      </trkpt>
      <trkpt lat="42.76514" lon="1.58025">
        <ele>1175</ele>
        <time>2020-01-05T14:01:04.000Z</time>
      </trkpt>
      <trkpt lat="42.76515" lon="1.58024">
        <ele>1175</ele>
        <time>2020-01-05T14:01:06.000Z</time>
      </trkpt>
      <trkpt lat="42.76515" lon="1.58022">
        <ele>1174</ele>
        <time>2020-01-05T14:01:08.000Z</time>
      </trkpt>
      <trkpt lat="42.76515" lon="1.5802">
        <ele>1174</ele>
        <time>2020-01-05T14:01:10.000Z</time>
      </trkpt>
      <trkpt lat="42.76515" lon="1.58018">
        <ele>1173</ele>
        <time>2020-01-05T14:01:12.000Z</time>
      </trkpt>
      <trkpt lat="42.76516" lon="1.58017">
        <ele>1173</ele>
        <time>2020-01-05T14:01:14.000Z</time>
      </trkpt>
      <trkpt lat="42.76517" lon="1.58015">
        <ele>1173</ele>
        <time>2020-01-05T14:01:16.000Z</time>
      </trkpt>
      <trkpt lat="42.76517" lon="1.58014">
        <ele>1173</ele>
        <time>2020-01-05T14:01:18.000Z</time>
      </trkpt>
      <trkpt lat="42.76518" lon="1.58012">
        <ele>1172</ele>
        <time>2020-01-05T14:01:20.000Z</time>
      </trkpt>
      <trkpt lat="42.76519" lon="1.58011">
        <ele>1172</ele>
        <time>2020-01-05T14:01:22.000Z</time>
      </trkpt>
      <trkpt lat="42.76519" lon="1.58008">
        <ele>1171</ele>
        <time>2020-01-05T14:01:24.000Z</time>
      </trkpt>
      <trkpt lat="42.7652" lon="1.58006">
        <ele>1171</ele>
        <time>2020-01-05T14:01:26.000Z</time>
      </trkpt>
      <trkpt lat="42.76519" lon="1.58006">
        <ele>1171</ele>
        <time>2020-01-05T14:01:28.000Z</time>
      </trkpt>
      <trkpt lat="42.76519" lon="1.58005">
        <ele>1171</ele>
        <time>2020-01-05T14:01:30.000Z</time>
      </trkpt>
      <trkpt lat="42.76519" lon="1.58004">
        <ele>1170</ele>
        <time>2020-01-05T14:01:32.000Z</time>
      </trkpt>
      <trkpt lat="42.7652" lon="1.58002">
        <ele>1170</ele>
        <time>2020-01-05T14:01:34.000Z</time>
      </trkpt>
      <trkpt lat="42.7652" lon="1.57999">
        <ele>1169</ele>
        <time>2020-01-05T14:01:36.000Z</time>
      </trkpt>
      <trkpt lat="42.7652" lon="1.57997">
        <ele>1169</ele>
        <time>2020-01-05T14:01:38.000Z</time>
      </trkpt>
      <trkpt lat="42.76521" lon="1.57996">
        <ele>1169</ele>
        <time>2020-01-05T14:01:40.000Z</time>
      </trkpt>
      <trkpt lat="42.76522" lon="1.57994">
        <ele>1169</ele>
        <time>2020-01-05T14:01:42.000Z</time>
      </trkpt>
      <trkpt lat="42.76523" lon="1.57993">
        <ele>1169</ele>
        <time>2020-01-05T14:01:44.000Z</time>
      </trkpt>
      <trkpt lat="42.76524" lon="1.57993">
        <ele>1169</ele>
        <time>2020-01-05T14:01:46.000Z</time>
      </trkpt>
      <trkpt lat="42.76524" lon="1.57992">
        <ele>1169</ele>
        <time>2020-01-05T14:01:48.000Z</time>
      </trkpt>
      <trkpt lat="42.76527" lon="1.5799">
        <ele>1168</ele>
        <time>2020-01-05T14:01:50.000Z</time>
      </trkpt>
      <trkpt lat="42.76529" lon="1.57988">
        <ele>1168</ele>
        <time>2020-01-05T14:01:52.000Z</time>
      </trkpt>
      <trkpt lat="42.7653" lon="1.57987">
        <ele>1169</ele>
        <time>2020-01-05T14:01:54.000Z</time>
      </trkpt>
      <trkpt lat="42.76532" lon="1.57986">
        <ele>1169</ele>
        <time>2020-01-05T14:01:56.000Z</time>
      </trkpt>
      <trkpt lat="42.76535" lon="1.57985">
        <ele>1169</ele>
        <time>2020-01-05T14:01:58.000Z</time>
      </trkpt>
      <trkpt lat="42.76536" lon="1.57984">
        <ele>1169</ele>
        <time>2020-01-05T14:02:00.000Z</time>
      </trkpt>
      <trkpt lat="42.76537" lon="1.57984">
        <ele>1169</ele>
        <time>2020-01-05T14:02:02.000Z</time>
      </trkpt>
      <trkpt lat="42.76536" lon="1.57982">
        <ele>1168</ele>
        <time>2020-01-05T14:02:04.000Z</time>
      </trkpt>
      <trkpt lat="42.76536" lon="1.57981">
        <ele>1168</ele>
        <time>2020-01-05T14:02:06.000Z</time>
      </trkpt>
      <trkpt lat="42.76537" lon="1.5798">
        <ele>1168</ele>
        <time>2020-01-05T14:02:08.000Z</time>
      </trkpt>
      <trkpt lat="42.76536" lon="1.57979">
        <ele>1168</ele>
        <time>2020-01-05T14:02:10.000Z</time>
      </trkpt>
      <trkpt lat="42.76536" lon="1.57978">
        <ele>1167</ele>
        <time>2020-01-05T14:02:12.000Z</time>
      </trkpt>
      <trkpt lat="42.76536" lon="1.57978">
        <ele>1167</ele>
        <time>2020-01-05T14:02:14.000Z</time>
      </trkpt>
      <trkpt lat="42.76536" lon="1.57978">
        <ele>1167</ele>
        <time>2020-01-05T14:02:16.000Z</time>
      </trkpt>
      <trkpt lat="42.76537" lon="1.57977">
        <ele>1167</ele>
        <time>2020-01-05T14:02:18.000Z</time>
      </trkpt>
      <trkpt lat="42.76537" lon="1.57975">
        <ele>1167</ele>
        <time>2020-01-05T14:02:20.000Z</time>
      </trkpt>
      <trkpt lat="42.76538" lon="1.57974">
        <ele>1167</ele>
        <time>2020-01-05T14:02:22.000Z</time>
      </trkpt>
      <trkpt lat="42.76539" lon="1.57975">
        <ele>1167</ele>
        <time>2020-01-05T14:02:24.000Z</time>
      </trkpt>
      <trkpt lat="42.76539" lon="1.57973">
        <ele>1166</ele>
        <time>2020-01-05T14:02:26.000Z</time>
      </trkpt>
      <trkpt lat="42.76539" lon="1.5797">
        <ele>1166</ele>
        <time>2020-01-05T14:02:28.000Z</time>
      </trkpt>
      <trkpt lat="42.76538" lon="1.57968">
        <ele>1165</ele>
        <time>2020-01-05T14:02:30.000Z</time>
      </trkpt>
      <trkpt lat="42.76538" lon="1.57965">
        <ele>1164</ele>
        <time>2020-01-05T14:02:32.000Z</time>
      </trkpt>
      <trkpt lat="42.76539" lon="1.57964">
        <ele>1164</ele>
        <time>2020-01-05T14:02:34.000Z</time>
      </trkpt>
      <trkpt lat="42.76539" lon="1.57964">
        <ele>1164</ele>
        <time>2020-01-05T14:02:36.000Z</time>
      </trkpt>
      <trkpt lat="42.7654" lon="1.57963">
        <ele>1164</ele>
        <time>2020-01-05T14:02:38.000Z</time>
      </trkpt>
      <trkpt lat="42.7654" lon="1.57962">
        <ele>1164</ele>
        <time>2020-01-05T14:02:40.000Z</time>
      </trkpt>
      <trkpt lat="42.76539" lon="1.57961">
        <ele>1163</ele>
        <time>2020-01-05T14:02:42.000Z</time>
      </trkpt>
      <trkpt lat="42.76539" lon="1.5796">
        <ele>1163</ele>
        <time>2020-01-05T14:02:44.000Z</time>
      </trkpt>
      <trkpt lat="42.76539" lon="1.57958">
        <ele>1163</ele>
        <time>2020-01-05T14:02:46.000Z</time>
      </trkpt>
      <trkpt lat="42.76539" lon="1.57956">
        <ele>1162</ele>
        <time>2020-01-05T14:02:48.000Z</time>
      </trkpt>
      <trkpt lat="42.76539" lon="1.57955">
        <ele>1162</ele>
        <time>2020-01-05T14:02:50.000Z</time>
      </trkpt>
      <trkpt lat="42.76539" lon="1.57954">
        <ele>1162</ele>
        <time>2020-01-05T14:02:52.000Z</time>
      </trkpt>
      <trkpt lat="42.76541" lon="1.57952">
        <ele>1161</ele>
        <time>2020-01-05T14:02:54.000Z</time>
      </trkpt>
      <trkpt lat="42.76541" lon="1.57951">
        <ele>1161</ele>
        <time>2020-01-05T14:02:56.000Z</time>
      </trkpt>
      <trkpt lat="42.76542" lon="1.57949">
        <ele>1161</ele>
        <time>2020-01-05T14:02:58.000Z</time>
      </trkpt>
      <trkpt lat="42.76543" lon="1.57948">
        <ele>1161</ele>
        <time>2020-01-05T14:03:00.000Z</time>
      </trkpt>
      <trkpt lat="42.76544" lon="1.57947">
        <ele>1161</ele>
        <time>2020-01-05T14:03:02.000Z</time>
      </trkpt>
      <trkpt lat="42.76545" lon="1.57945">
        <ele>1160</ele>
        <time>2020-01-05T14:03:04.000Z</time>
      </trkpt>
      <trkpt lat="42.76546" lon="1.57944">
        <ele>1160</ele>
        <time>2020-01-05T14:03:06.000Z</time>
      </trkpt>
      <trkpt lat="42.76546" lon="1.57942">
        <ele>1160</ele>
        <time>2020-01-05T14:03:08.000Z</time>
      </trkpt>
      <trkpt lat="42.76547" lon="1.57942">
        <ele>1160</ele>
        <time>2020-01-05T14:03:10.000Z</time>
      </trkpt>
      <trkpt lat="42.76546" lon="1.5794">
        <ele>1159</ele>
        <time>2020-01-05T14:03:12.000Z</time>
      </trkpt>
      <trkpt lat="42.76545" lon="1.57939">
        <ele>1159</ele>
        <time>2020-01-05T14:03:14.000Z</time>
      </trkpt>
      <trkpt lat="42.76546" lon="1.57939">
        <ele>1159</ele>
        <time>2020-01-05T14:03:16.000Z</time>
      </trkpt>
      <trkpt lat="42.76546" lon="1.57938">
        <ele>1159</ele>
        <time>2020-01-05T14:03:18.000Z</time>
      </trkpt>
      <trkpt lat="42.76546" lon="1.57937">
        <ele>1158</ele>
        <time>2020-01-05T14:03:20.000Z</time>
      </trkpt>
      <trkpt lat="42.76546" lon="1.57936">
        <ele>1158</ele>
        <time>2020-01-05T14:03:22.000Z</time>
      </trkpt>
      <trkpt lat="42.76546" lon="1.57934">
        <ele>1157</ele>
        <time>2020-01-05T14:03:24.000Z</time>
      </trkpt>
      <trkpt lat="42.76545" lon="1.57933">
        <ele>1157</ele>
        <time>2020-01-05T14:03:26.000Z</time>
      </trkpt>
      <trkpt lat="42.76545" lon="1.57932">
        <ele>1157</ele>
        <time>2020-01-05T14:03:28.000Z</time>
      </trkpt>
      <trkpt lat="42.76544" lon="1.57931">
        <ele>1156</ele>
        <time>2020-01-05T14:03:30.000Z</time>
      </trkpt>
      <trkpt lat="42.76544" lon="1.5793">
        <ele>1156</ele>
        <time>2020-01-05T14:03:32.000Z</time>
      </trkpt>
      <trkpt lat="42.76544" lon="1.57928">
        <ele>1155</ele>
        <time>2020-01-05T14:03:34.000Z</time>
      </trkpt>
      <trkpt lat="42.76543" lon="1.57927">
        <ele>1155</ele>
        <time>2020-01-05T14:03:36.000Z</time>
      </trkpt>
      <trkpt lat="42.76543" lon="1.57924">
        <ele>1154</ele>
        <time>2020-01-05T14:03:38.000Z</time>
      </trkpt>
      <trkpt lat="42.76544" lon="1.5792">
        <ele>1153</ele>
        <time>2020-01-05T14:03:40.000Z</time>
      </trkpt>
      <trkpt lat="42.76543" lon="1.57919">
        <ele>1152</ele>
        <time>2020-01-05T14:03:42.000Z</time>
      </trkpt>
      <trkpt lat="42.76543" lon="1.57917">
        <ele>1152</ele>
        <time>2020-01-05T14:03:44.000Z</time>
      </trkpt>
      <trkpt lat="42.76543" lon="1.57916">
        <ele>1152</ele>
        <time>2020-01-05T14:03:46.000Z</time>
      </trkpt>
      <trkpt lat="42.76543" lon="1.57914">
        <ele>1151</ele>
        <time>2020-01-05T14:03:48.000Z</time>
      </trkpt>
      <trkpt lat="42.76544" lon="1.57913">
        <ele>1151</ele>
        <time>2020-01-05T14:03:50.000Z</time>
      </trkpt>
      <trkpt lat="42.76544" lon="1.57913">
        <ele>1151</ele>
        <time>2020-01-05T14:03:52.000Z</time>
      </trkpt>
      <trkpt lat="42.76544" lon="1.57912">
        <ele>1151</ele>
        <time>2020-01-05T14:03:54.000Z</time>
      </trkpt>
      <trkpt lat="42.76544" lon="1.57911">
        <ele>1151</ele>
        <time>2020-01-05T14:03:56.000Z</time>
      </trkpt>
      <trkpt lat="42.76545" lon="1.57911">
        <ele>1150</ele>
        <time>2020-01-05T14:03:58.000Z</time>
      </trkpt>
      <trkpt lat="42.76545" lon="1.5791">
        <ele>1150</ele>
        <time>2020-01-05T14:04:00.000Z</time>
      </trkpt>
      <trkpt lat="42.76544" lon="1.57908">
        <ele>1150</ele>
        <time>2020-01-05T14:04:02.000Z</time>
      </trkpt>
      <trkpt lat="42.76543" lon="1.57906">
        <ele>1149</ele>
        <time>2020-01-05T14:04:04.000Z</time>
      </trkpt>
      <trkpt lat="42.76544" lon="1.57904">
        <ele>1148</ele>
        <time>2020-01-05T14:04:06.000Z</time>
      </trkpt>
      <trkpt lat="42.76545" lon="1.57903">
        <ele>1148</ele>
        <time>2020-01-05T14:04:08.000Z</time>
      </trkpt>
      <trkpt lat="42.76546" lon="1.57901">
        <ele>1148</ele>
        <time>2020-01-05T14:04:10.000Z</time>
      </trkpt>
      <trkpt lat="42.76546" lon="1.579">
        <ele>1148</ele>
        <time>2020-01-05T14:04:12.000Z</time>
      </trkpt>
      <trkpt lat="42.76546" lon="1.57898">
        <ele>1147</ele>
        <time>2020-01-05T14:04:14.000Z</time>
      </trkpt>
      <trkpt lat="42.76546" lon="1.57896">
        <ele>1146</ele>
        <time>2020-01-05T14:04:16.000Z</time>
      </trkpt>
      <trkpt lat="42.76545" lon="1.57895">
        <ele>1146</ele>
        <time>2020-01-05T14:04:18.000Z</time>
      </trkpt>
      <trkpt lat="42.76545" lon="1.57893">
        <ele>1146</ele>
        <time>2020-01-05T14:04:20.000Z</time>
      </trkpt>
      <trkpt lat="42.76545" lon="1.57894">
        <ele>1146</ele>
        <time>2020-01-05T14:04:22.000Z</time>
      </trkpt>
      <trkpt lat="42.76545" lon="1.57893">
        <ele>1146</ele>
        <time>2020-01-05T14:04:24.000Z</time>
      </trkpt>
      <trkpt lat="42.76546" lon="1.57893">
        <ele>1146</ele>
        <time>2020-01-05T14:04:26.000Z</time>
      </trkpt>
      <trkpt lat="42.76546" lon="1.57893">
        <ele>1146</ele>
        <time>2020-01-05T14:04:28.000Z</time>
      </trkpt>
      <trkpt lat="42.76546" lon="1.57892">
        <ele>1145</ele>
        <time>2020-01-05T14:04:30.000Z</time>
      </trkpt>
      <trkpt lat="42.76545" lon="1.57891">
        <ele>1145</ele>
        <time>2020-01-05T14:04:32.000Z</time>
      </trkpt>
      <trkpt lat="42.76544" lon="1.5789">
        <ele>1144</ele>
        <time>2020-01-05T14:04:34.000Z</time>
      </trkpt>
      <trkpt lat="42.76544" lon="1.57889">
        <ele>1144</ele>
        <time>2020-01-05T14:04:36.000Z</time>
      </trkpt>
      <trkpt lat="42.76545" lon="1.5789">
        <ele>1145</ele>
        <time>2020-01-05T14:04:38.000Z</time>
      </trkpt>
      <trkpt lat="42.76545" lon="1.57889">
        <ele>1144</ele>
        <time>2020-01-05T14:04:40.000Z</time>
      </trkpt>
      <trkpt lat="42.76545" lon="1.57888">
        <ele>1144</ele>
        <time>2020-01-05T14:04:42.000Z</time>
      </trkpt>
      <trkpt lat="42.76544" lon="1.57886">
        <ele>1144</ele>
        <time>2020-01-05T14:04:44.000Z</time>
      </trkpt>
      <trkpt lat="42.76544" lon="1.57884">
        <ele>1143</ele>
        <time>2020-01-05T14:04:46.000Z</time>
      </trkpt>
      <trkpt lat="42.76544" lon="1.57883">
        <ele>1143</ele>
        <time>2020-01-05T14:04:48.000Z</time>
      </trkpt>
      <trkpt lat="42.76543" lon="1.57882">
        <ele>1142</ele>
        <time>2020-01-05T14:04:50.000Z</time>
      </trkpt>
      <trkpt lat="42.76543" lon="1.57881">
        <ele>1142</ele>
        <time>2020-01-05T14:04:52.000Z</time>
      </trkpt>
      <trkpt lat="42.76543" lon="1.57879">
        <ele>1141</ele>
        <time>2020-01-05T14:04:54.000Z</time>
      </trkpt>
      <trkpt lat="42.76542" lon="1.57877">
        <ele>1141</ele>
        <time>2020-01-05T14:04:56.000Z</time>
      </trkpt>
      <trkpt lat="42.76542" lon="1.57876">
        <ele>1140</ele>
        <time>2020-01-05T14:04:58.000Z</time>
      </trkpt>
      <trkpt lat="42.76542" lon="1.57875">
        <ele>1140</ele>
        <time>2020-01-05T14:05:00.000Z</time>
      </trkpt>
      <trkpt lat="42.76542" lon="1.57873">
        <ele>1139</ele>
        <time>2020-01-05T14:05:02.000Z</time>
      </trkpt>
      <trkpt lat="42.76541" lon="1.5787">
        <ele>1139</ele>
        <time>2020-01-05T14:05:04.000Z</time>
      </trkpt>
      <trkpt lat="42.76541" lon="1.57869">
        <ele>1138</ele>
        <time>2020-01-05T14:05:06.000Z</time>
      </trkpt>
      <trkpt lat="42.76541" lon="1.57869">
        <ele>1138</ele>
        <time>2020-01-05T14:05:08.000Z</time>
      </trkpt>
      <trkpt lat="42.7654" lon="1.57867">
        <ele>1138</ele>
        <time>2020-01-05T14:05:10.000Z</time>
      </trkpt>
      <trkpt lat="42.7654" lon="1.57867">
        <ele>1137</ele>
        <time>2020-01-05T14:05:12.000Z</time>
      </trkpt>
      <trkpt lat="42.7654" lon="1.57865">
        <ele>1137</ele>
        <time>2020-01-05T14:05:14.000Z</time>
      </trkpt>
      <trkpt lat="42.7654" lon="1.57865">
        <ele>1137</ele>
        <time>2020-01-05T14:05:16.000Z</time>
      </trkpt>
      <trkpt lat="42.7654" lon="1.57864">
        <ele>1137</ele>
        <time>2020-01-05T14:05:18.000Z</time>
      </trkpt>
      <trkpt lat="42.76541" lon="1.57863">
        <ele>1136</ele>
        <time>2020-01-05T14:05:20.000Z</time>
      </trkpt>
      <trkpt lat="42.76541" lon="1.57861">
        <ele>1136</ele>
        <time>2020-01-05T14:05:22.000Z</time>
      </trkpt>
      <trkpt lat="42.7654" lon="1.5786">
        <ele>1136</ele>
        <time>2020-01-05T14:05:24.000Z</time>
      </trkpt>
      <trkpt lat="42.76539" lon="1.5786">
        <ele>1135</ele>
        <time>2020-01-05T14:05:26.000Z</time>
      </trkpt>
      <trkpt lat="42.76538" lon="1.57857">
        <ele>1134</ele>
        <time>2020-01-05T14:05:28.000Z</time>
      </trkpt>
      <trkpt lat="42.76538" lon="1.57856">
        <ele>1134</ele>
        <time>2020-01-05T14:05:30.000Z</time>
      </trkpt>
      <trkpt lat="42.76538" lon="1.57855">
        <ele>1134</ele>
        <time>2020-01-05T14:05:32.000Z</time>
      </trkpt>
      <trkpt lat="42.76538" lon="1.57853">
        <ele>1133</ele>
        <time>2020-01-05T14:05:34.000Z</time>
      </trkpt>
      <trkpt lat="42.76538" lon="1.57852">
        <ele>1133</ele>
        <time>2020-01-05T14:05:36.000Z</time>
      </trkpt>
      <trkpt lat="42.76537" lon="1.5785">
        <ele>1132</ele>
        <time>2020-01-05T14:05:38.000Z</time>
      </trkpt>
      <trkpt lat="42.76537" lon="1.57849">
        <ele>1132</ele>
        <time>2020-01-05T14:05:40.000Z</time>
      </trkpt>
      <trkpt lat="42.76536" lon="1.57847">
        <ele>1131</ele>
        <time>2020-01-05T14:05:42.000Z</time>
      </trkpt>
      <trkpt lat="42.76535" lon="1.57844">
        <ele>1131</ele>
        <time>2020-01-05T14:05:44.000Z</time>
      </trkpt>
      <trkpt lat="42.76535" lon="1.57842">
        <ele>1130</ele>
        <time>2020-01-05T14:05:46.000Z</time>
      </trkpt>
      <trkpt lat="42.76535" lon="1.57841">
        <ele>1130</ele>
        <time>2020-01-05T14:05:48.000Z</time>
      </trkpt>
      <trkpt lat="42.76535" lon="1.57839">
        <ele>1129</ele>
        <time>2020-01-05T14:05:50.000Z</time>
      </trkpt>
      <trkpt lat="42.76535" lon="1.57839">
        <ele>1129</ele>
        <time>2020-01-05T14:05:52.000Z</time>
      </trkpt>
      <trkpt lat="42.76535" lon="1.57838">
        <ele>1129</ele>
        <time>2020-01-05T14:05:54.000Z</time>
      </trkpt>
      <trkpt lat="42.76535" lon="1.57836">
        <ele>1128</ele>
        <time>2020-01-05T14:05:56.000Z</time>
      </trkpt>
      <trkpt lat="42.76536" lon="1.57835">
        <ele>1128</ele>
        <time>2020-01-05T14:05:58.000Z</time>
      </trkpt>
      <trkpt lat="42.76535" lon="1.57833">
        <ele>1128</ele>
        <time>2020-01-05T14:06:00.000Z</time>
      </trkpt>
      <trkpt lat="42.76535" lon="1.5783">
        <ele>1127</ele>
        <time>2020-01-05T14:06:02.000Z</time>
      </trkpt>
      <trkpt lat="42.76535" lon="1.57829">
        <ele>1126</ele>
        <time>2020-01-05T14:06:04.000Z</time>
      </trkpt>
      <trkpt lat="42.76534" lon="1.57827">
        <ele>1126</ele>
        <time>2020-01-05T14:06:06.000Z</time>
      </trkpt>
      <trkpt lat="42.76533" lon="1.57825">
        <ele>1125</ele>
        <time>2020-01-05T14:06:08.000Z</time>
      </trkpt>
      <trkpt lat="42.76532" lon="1.57823">
        <ele>1125</ele>
        <time>2020-01-05T14:06:10.000Z</time>
      </trkpt>
      <trkpt lat="42.7653" lon="1.57822">
        <ele>1124</ele>
        <time>2020-01-05T14:06:12.000Z</time>
      </trkpt>
      <trkpt lat="42.76529" lon="1.57822">
        <ele>1124</ele>
        <time>2020-01-05T14:06:14.000Z</time>
      </trkpt>
      <trkpt lat="42.76528" lon="1.57821">
        <ele>1123</ele>
        <time>2020-01-05T14:06:16.000Z</time>
      </trkpt>
      <trkpt lat="42.76527" lon="1.57821">
        <ele>1123</ele>
        <time>2020-01-05T14:06:18.000Z</time>
      </trkpt>
      <trkpt lat="42.76526" lon="1.5782">
        <ele>1123</ele>
        <time>2020-01-05T14:06:20.000Z</time>
      </trkpt>
      <trkpt lat="42.76526" lon="1.57817">
        <ele>1122</ele>
        <time>2020-01-05T14:06:22.000Z</time>
      </trkpt>
      <trkpt lat="42.76526" lon="1.57816">
        <ele>1122</ele>
        <time>2020-01-05T14:06:24.000Z</time>
      </trkpt>
      <trkpt lat="42.76527" lon="1.57815">
        <ele>1121</ele>
        <time>2020-01-05T14:06:26.000Z</time>
      </trkpt>
      <trkpt lat="42.76527" lon="1.57813">
        <ele>1121</ele>
        <time>2020-01-05T14:06:28.000Z</time>
      </trkpt>
      <trkpt lat="42.76527" lon="1.57812">
        <ele>1121</ele>
        <time>2020-01-05T14:06:30.000Z</time>
      </trkpt>
      <trkpt lat="42.76527" lon="1.57811">
        <ele>1120</ele>
        <time>2020-01-05T14:06:32.000Z</time>
      </trkpt>
      <trkpt lat="42.76527" lon="1.57809">
        <ele>1120</ele>
        <time>2020-01-05T14:06:34.000Z</time>
      </trkpt>
      <trkpt lat="42.76528" lon="1.57808">
        <ele>1120</ele>
        <time>2020-01-05T14:06:36.000Z</time>
      </trkpt>
      <trkpt lat="42.76528" lon="1.57807">
        <ele>1119</ele>
        <time>2020-01-05T14:06:38.000Z</time>
      </trkpt>
      <trkpt lat="42.76529" lon="1.57807">
        <ele>1120</ele>
        <time>2020-01-05T14:06:40.000Z</time>
      </trkpt>
      <trkpt lat="42.7653" lon="1.57807">
        <ele>1120</ele>
        <time>2020-01-05T14:06:42.000Z</time>
      </trkpt>
      <trkpt lat="42.76531" lon="1.57806">
        <ele>1120</ele>
        <time>2020-01-05T14:06:44.000Z</time>
      </trkpt>
      <trkpt lat="42.76531" lon="1.57806">
        <ele>1120</ele>
        <time>2020-01-05T14:06:46.000Z</time>
      </trkpt>
      <trkpt lat="42.76532" lon="1.57806">
        <ele>1120</ele>
        <time>2020-01-05T14:06:48.000Z</time>
      </trkpt>
      <trkpt lat="42.76532" lon="1.57805">
        <ele>1120</ele>
        <time>2020-01-05T14:06:50.000Z</time>
      </trkpt>
      <trkpt lat="42.76532" lon="1.57805">
        <ele>1120</ele>
        <time>2020-01-05T14:06:52.000Z</time>
      </trkpt>
      <trkpt lat="42.76532" lon="1.57805">
        <ele>1120</ele>
        <time>2020-01-05T14:06:54.000Z</time>
      </trkpt>
      <trkpt lat="42.76532" lon="1.57806">
        <ele>1120</ele>
        <time>2020-01-05T14:06:56.000Z</time>
      </trkpt>
      <trkpt lat="42.76531" lon="1.57807">
        <ele>1120</ele>
        <time>2020-01-05T14:06:58.000Z</time>
      </trkpt>
      <trkpt lat="42.76532" lon="1.57807">
        <ele>1120</ele>
        <time>2020-01-05T14:07:00.000Z</time>
      </trkpt>
      <trkpt lat="42.76532" lon="1.57806">
        <ele>1120</ele>
        <time>2020-01-05T14:07:02.000Z</time>
      </trkpt>
      <trkpt lat="42.76532" lon="1.57806">
        <ele>1120</ele>
        <time>2020-01-05T14:07:04.000Z</time>
      </trkpt>
      <trkpt lat="42.76533" lon="1.57805">
        <ele>1120</ele>
        <time>2020-01-05T14:07:06.000Z</time>
      </trkpt>
      <trkpt lat="42.76533" lon="1.57806">
        <ele>1120</ele>
        <time>2020-01-05T14:07:08.000Z</time>
      </trkpt>
      <trkpt lat="42.76533" lon="1.57806">
        <ele>1120</ele>
        <time>2020-01-05T14:07:10.000Z</time>
      </trkpt>
      <trkpt lat="42.76533" lon="1.57806">
        <ele>1120</ele>
        <time>2020-01-05T14:07:12.000Z</time>
      </trkpt>
      <trkpt lat="42.76532" lon="1.57805">
        <ele>1120</ele>
        <time>2020-01-05T14:07:14.000Z</time>
      </trkpt>
      <trkpt lat="42.76532" lon="1.57805">
        <ele>1120</ele>
        <time>2020-01-05T14:07:16.000Z</time>
      </trkpt>
      <trkpt lat="42.76531" lon="1.57805">
        <ele>1120</ele>
        <time>2020-01-05T14:07:18.000Z</time>
      </trkpt>
      <trkpt lat="42.7653" lon="1.57805">
        <ele>1119</ele>
        <time>2020-01-05T14:07:20.000Z</time>
      </trkpt>
      <trkpt lat="42.7653" lon="1.57805">
        <ele>1119</ele>
        <time>2020-01-05T14:07:22.000Z</time>
      </trkpt>
      <trkpt lat="42.7653" lon="1.57805">
        <ele>1119</ele>
        <time>2020-01-05T14:07:24.000Z</time>
      </trkpt>
      <trkpt lat="42.76529" lon="1.57805">
        <ele>1119</ele>
        <time>2020-01-05T14:07:26.000Z</time>
      </trkpt>
      <trkpt lat="42.76529" lon="1.57804">
        <ele>1119</ele>
        <time>2020-01-05T14:07:28.000Z</time>
      </trkpt>
      <trkpt lat="42.76529" lon="1.57804">
        <ele>1119</ele>
        <time>2020-01-05T14:07:30.000Z</time>
      </trkpt>
      <trkpt lat="42.76529" lon="1.57804">
        <ele>1119</ele>
        <time>2020-01-05T14:07:32.000Z</time>
      </trkpt>
      <trkpt lat="42.7653" lon="1.57804">
        <ele>1119</ele>
        <time>2020-01-05T14:07:34.000Z</time>
      </trkpt>
      <trkpt lat="42.76529" lon="1.57803">
        <ele>1119</ele>
        <time>2020-01-05T14:07:36.000Z</time>
      </trkpt>
      <trkpt lat="42.7653" lon="1.57803">
        <ele>1119</ele>
        <time>2020-01-05T14:07:38.000Z</time>
      </trkpt>
      <trkpt lat="42.7653" lon="1.57802">
        <ele>1118</ele>
        <time>2020-01-05T14:07:40.000Z</time>
      </trkpt>
      <trkpt lat="42.76529" lon="1.57802">
        <ele>1118</ele>
        <time>2020-01-05T14:07:42.000Z</time>
      </trkpt>
      <trkpt lat="42.76529" lon="1.57801">
        <ele>1118</ele>
        <time>2020-01-05T14:07:44.000Z</time>
      </trkpt>
      <trkpt lat="42.76529" lon="1.57801">
        <ele>1118</ele>
        <time>2020-01-05T14:07:46.000Z</time>
      </trkpt>
      <trkpt lat="42.7653" lon="1.57801">
        <ele>1118</ele>
        <time>2020-01-05T14:07:48.000Z</time>
      </trkpt>
      <trkpt lat="42.7653" lon="1.57801">
        <ele>1118</ele>
        <time>2020-01-05T14:07:50.000Z</time>
      </trkpt>
      <trkpt lat="42.7653" lon="1.578">
        <ele>1118</ele>
        <time>2020-01-05T14:07:52.000Z</time>
      </trkpt>
      <trkpt lat="42.7653" lon="1.57799">
        <ele>1118</ele>
        <time>2020-01-05T14:07:54.000Z</time>
      </trkpt>
      <trkpt lat="42.7653" lon="1.57799">
        <ele>1118</ele>
        <time>2020-01-05T14:07:56.000Z</time>
      </trkpt>
      <trkpt lat="42.76531" lon="1.578">
        <ele>1118</ele>
        <time>2020-01-05T14:07:58.000Z</time>
      </trkpt>
      <trkpt lat="42.76531" lon="1.57801">
        <ele>1118</ele>
        <time>2020-01-05T14:08:00.000Z</time>
      </trkpt>
      <trkpt lat="42.7653" lon="1.57802">
        <ele>1118</ele>
        <time>2020-01-05T14:08:02.000Z</time>
      </trkpt>
      <trkpt lat="42.7653" lon="1.57802">
        <ele>1118</ele>
        <time>2020-01-05T14:08:04.000Z</time>
      </trkpt>
      <trkpt lat="42.7653" lon="1.57802">
        <ele>1118</ele>
        <time>2020-01-05T14:08:06.000Z</time>
      </trkpt>
      <trkpt lat="42.76529" lon="1.57802">
        <ele>1118</ele>
        <time>2020-01-05T14:08:08.000Z</time>
      </trkpt>
      <trkpt lat="42.76529" lon="1.57803">
        <ele>1118</ele>
        <time>2020-01-05T14:08:10.000Z</time>
      </trkpt>
      <trkpt lat="42.76528" lon="1.57802">
        <ele>1118</ele>
        <time>2020-01-05T14:08:12.000Z</time>
      </trkpt>
      <trkpt lat="42.76528" lon="1.57802">
        <ele>1118</ele>
        <time>2020-01-05T14:08:14.000Z</time>
      </trkpt>
      <trkpt lat="42.76528" lon="1.57803">
        <ele>1118</ele>
        <time>2020-01-05T14:08:16.000Z</time>
      </trkpt>
      <trkpt lat="42.76528" lon="1.57804">
        <ele>1119</ele>
        <time>2020-01-05T14:08:18.000Z</time>
      </trkpt>
      <trkpt lat="42.76529" lon="1.57804">
        <ele>1119</ele>
        <time>2020-01-05T14:08:20.000Z</time>
      </trkpt>
      <trkpt lat="42.76529" lon="1.57805">
        <ele>1119</ele>
        <time>2020-01-05T14:08:22.000Z</time>
      </trkpt>
      <trkpt lat="42.76529" lon="1.57805">
        <ele>1119</ele>
        <time>2020-01-05T14:08:24.000Z</time>
      </trkpt>
      <trkpt lat="42.76529" lon="1.57805">
        <ele>1119</ele>
        <time>2020-01-05T14:08:26.000Z</time>
      </trkpt>
      <trkpt lat="42.7653" lon="1.57804">
        <ele>1119</ele>
        <time>2020-01-05T14:08:28.000Z</time>
      </trkpt>
      <trkpt lat="42.76529" lon="1.57804">
        <ele>1119</ele>
        <time>2020-01-05T14:08:30.000Z</time>
      </trkpt>
      <trkpt lat="42.7653" lon="1.57804">
        <ele>1119</ele>
        <time>2020-01-05T14:08:32.000Z</time>
      </trkpt>
      <trkpt lat="42.7653" lon="1.57805">
        <ele>1119</ele>
        <time>2020-01-05T14:08:34.000Z</time>
      </trkpt>
      <trkpt lat="42.7653" lon="1.57805">
        <ele>1119</ele>
        <time>2020-01-05T14:08:36.000Z</time>
      </trkpt>
      <trkpt lat="42.7653" lon="1.57805">
        <ele>1119</ele>
        <time>2020-01-05T14:08:38.000Z</time>
      </trkpt>
      <trkpt lat="42.7653" lon="1.57805">
        <ele>1119</ele>
        <time>2020-01-05T14:08:40.000Z</time>
      </trkpt>
      <trkpt lat="42.7653" lon="1.57805">
        <ele>1119</ele>
        <time>2020-01-05T14:08:42.000Z</time>
      </trkpt>
      <trkpt lat="42.7653" lon="1.57806">
        <ele>1120</ele>
        <time>2020-01-05T14:08:44.000Z</time>
      </trkpt>
      <trkpt lat="42.7653" lon="1.57806">
        <ele>1120</ele>
        <time>2020-01-05T14:08:46.000Z</time>
      </trkpt>
      <trkpt lat="42.76531" lon="1.57806">
        <ele>1120</ele>
        <time>2020-01-05T14:08:48.000Z</time>
      </trkpt>
      <trkpt lat="42.76531" lon="1.57805">
        <ele>1120</ele>
        <time>2020-01-05T14:08:50.000Z</time>
      </trkpt>
      <trkpt lat="42.76531" lon="1.57805">
        <ele>1120</ele>
        <time>2020-01-05T14:08:52.000Z</time>
      </trkpt>
      <trkpt lat="42.76531" lon="1.57806">
        <ele>1120</ele>
        <time>2020-01-05T14:08:54.000Z</time>
      </trkpt>
      <trkpt lat="42.76532" lon="1.57806">
        <ele>1120</ele>
        <time>2020-01-05T14:08:56.000Z</time>
      </trkpt>
      <trkpt lat="42.76532" lon="1.57806">
        <ele>1120</ele>
        <time>2020-01-05T14:08:58.000Z</time>
      </trkpt>
      <trkpt lat="42.76532" lon="1.57806">
        <ele>1120</ele>
        <time>2020-01-05T14:09:00.000Z</time>
      </trkpt>
      <trkpt lat="42.76532" lon="1.57806">
        <ele>1120</ele>
        <time>2020-01-05T14:09:02.000Z</time>
      </trkpt>
      <trkpt lat="42.76532" lon="1.57806">
        <ele>1120</ele>
        <time>2020-01-05T14:09:04.000Z</time>
      </trkpt>
      <trkpt lat="42.76532" lon="1.57805">
        <ele>1120</ele>
        <time>2020-01-05T14:09:06.000Z</time>
      </trkpt>
      <trkpt lat="42.76533" lon="1.57805">
        <ele>1120</ele>
        <time>2020-01-05T14:09:08.000Z</time>
      </trkpt>
      <trkpt lat="42.76533" lon="1.57805">
        <ele>1120</ele>
        <time>2020-01-05T14:09:10.000Z</time>
      </trkpt>
      <trkpt lat="42.76533" lon="1.57805">
        <ele>1120</ele>
        <time>2020-01-05T14:09:12.000Z</time>
      </trkpt>
      <trkpt lat="42.76533" lon="1.57804">
        <ele>1120</ele>
        <time>2020-01-05T14:09:14.000Z</time>
      </trkpt>
      <trkpt lat="42.76533" lon="1.57803">
        <ele>1119</ele>
        <time>2020-01-05T14:09:16.000Z</time>
      </trkpt>
      <trkpt lat="42.76533" lon="1.57803">
        <ele>1119</ele>
        <time>2020-01-05T14:09:18.000Z</time>
      </trkpt>
      <trkpt lat="42.76533" lon="1.57803">
        <ele>1119</ele>
        <time>2020-01-05T14:09:20.000Z</time>
      </trkpt>
      <trkpt lat="42.76534" lon="1.57804">
        <ele>1120</ele>
        <time>2020-01-05T14:09:22.000Z</time>
      </trkpt>
      <trkpt lat="42.76534" lon="1.57804">
        <ele>1120</ele>
        <time>2020-01-05T14:09:24.000Z</time>
      </trkpt>
      <trkpt lat="42.76534" lon="1.57804">
        <ele>1120</ele>
        <time>2020-01-05T14:09:26.000Z</time>
      </trkpt>
      <trkpt lat="42.76535" lon="1.57804">
        <ele>1120</ele>
        <time>2020-01-05T14:09:28.000Z</time>
      </trkpt>
      <trkpt lat="42.76535" lon="1.57803">
        <ele>1120</ele>
        <time>2020-01-05T14:09:30.000Z</time>
      </trkpt>
      <trkpt lat="42.76534" lon="1.57804">
        <ele>1120</ele>
        <time>2020-01-05T14:09:32.000Z</time>
      </trkpt>
      <trkpt lat="42.76534" lon="1.57804">
        <ele>1120</ele>
        <time>2020-01-05T14:09:34.000Z</time>
      </trkpt>
      <trkpt lat="42.76534" lon="1.57805">
        <ele>1120</ele>
        <time>2020-01-05T14:09:36.000Z</time>
      </trkpt>
      <trkpt lat="42.76533" lon="1.57804">
        <ele>1120</ele>
        <time>2020-01-05T14:09:38.000Z</time>
      </trkpt>
      <trkpt lat="42.76531" lon="1.57804">
        <ele>1119</ele>
        <time>2020-01-05T14:09:40.000Z</time>
      </trkpt>
      <trkpt lat="42.76531" lon="1.57803">
        <ele>1119</ele>
        <time>2020-01-05T14:09:42.000Z</time>
      </trkpt>
      <trkpt lat="42.7653" lon="1.57803">
        <ele>1119</ele>
        <time>2020-01-05T14:09:44.000Z</time>
      </trkpt>
      <trkpt lat="42.7653" lon="1.57802">
        <ele>1119</ele>
        <time>2020-01-05T14:09:46.000Z</time>
      </trkpt>
      <trkpt lat="42.7653" lon="1.57801">
        <ele>1118</ele>
        <time>2020-01-05T14:09:48.000Z</time>
      </trkpt>
      <trkpt lat="42.76529" lon="1.57801">
        <ele>1118</ele>
        <time>2020-01-05T14:09:50.000Z</time>
      </trkpt>
      <trkpt lat="42.76529" lon="1.57801">
        <ele>1118</ele>
        <time>2020-01-05T14:09:52.000Z</time>
      </trkpt>
      <trkpt lat="42.76529" lon="1.578">
        <ele>1118</ele>
        <time>2020-01-05T14:09:54.000Z</time>
      </trkpt>
      <trkpt lat="42.76528" lon="1.57799">
        <ele>1117</ele>
        <time>2020-01-05T14:09:56.000Z</time>
      </trkpt>
      <trkpt lat="42.76529" lon="1.57797">
        <ele>1117</ele>
        <time>2020-01-05T14:09:58.000Z</time>
      </trkpt>
      <trkpt lat="42.76529" lon="1.57796">
        <ele>1117</ele>
        <time>2020-01-05T14:10:00.000Z</time>
      </trkpt>
      <trkpt lat="42.76529" lon="1.57795">
        <ele>1116</ele>
        <time>2020-01-05T14:10:02.000Z</time>
      </trkpt>
      <trkpt lat="42.76529" lon="1.57794">
        <ele>1116</ele>
        <time>2020-01-05T14:10:04.000Z</time>
      </trkpt>
      <trkpt lat="42.76528" lon="1.57793">
        <ele>1116</ele>
        <time>2020-01-05T14:10:06.000Z</time>
      </trkpt>
      <trkpt lat="42.76529" lon="1.57791">
        <ele>1115</ele>
        <time>2020-01-05T14:10:08.000Z</time>
      </trkpt>
      <trkpt lat="42.76529" lon="1.57789">
        <ele>1115</ele>
        <time>2020-01-05T14:10:10.000Z</time>
      </trkpt>
      <trkpt lat="42.76528" lon="1.57787">
        <ele>1114</ele>
        <time>2020-01-05T14:10:12.000Z</time>
      </trkpt>
      <trkpt lat="42.76528" lon="1.57786">
        <ele>1114</ele>
        <time>2020-01-05T14:10:14.000Z</time>
      </trkpt>
      <trkpt lat="42.76528" lon="1.57784">
        <ele>1113</ele>
        <time>2020-01-05T14:10:16.000Z</time>
      </trkpt>
      <trkpt lat="42.76527" lon="1.57782">
        <ele>1113</ele>
        <time>2020-01-05T14:10:18.000Z</time>
      </trkpt>
      <trkpt lat="42.76527" lon="1.57781">
        <ele>1112</ele>
        <time>2020-01-05T14:10:20.000Z</time>
      </trkpt>
      <trkpt lat="42.76526" lon="1.57779">
        <ele>1112</ele>
        <time>2020-01-05T14:10:22.000Z</time>
      </trkpt>
      <trkpt lat="42.76526" lon="1.57778">
        <ele>1111</ele>
        <time>2020-01-05T14:10:24.000Z</time>
      </trkpt>
      <trkpt lat="42.76526" lon="1.57776">
        <ele>1110</ele>
        <time>2020-01-05T14:10:26.000Z</time>
      </trkpt>
      <trkpt lat="42.76527" lon="1.57773">
        <ele>1110</ele>
        <time>2020-01-05T14:10:28.000Z</time>
      </trkpt>
      <trkpt lat="42.76527" lon="1.57771">
        <ele>1109</ele>
        <time>2020-01-05T14:10:30.000Z</time>
      </trkpt>
      <trkpt lat="42.76527" lon="1.57768">
        <ele>1108</ele>
        <time>2020-01-05T14:10:32.000Z</time>
      </trkpt>
      <trkpt lat="42.76527" lon="1.57766">
        <ele>1108</ele>
        <time>2020-01-05T14:10:34.000Z</time>
      </trkpt>
      <trkpt lat="42.76527" lon="1.57765">
        <ele>1108</ele>
        <time>2020-01-05T14:10:36.000Z</time>
      </trkpt>
      <trkpt lat="42.76527" lon="1.57763">
        <ele>1107</ele>
        <time>2020-01-05T14:10:38.000Z</time>
      </trkpt>
      <trkpt lat="42.76527" lon="1.57762">
        <ele>1107</ele>
        <time>2020-01-05T14:10:40.000Z</time>
      </trkpt>
      <trkpt lat="42.76527" lon="1.5776">
        <ele>1106</ele>
        <time>2020-01-05T14:10:42.000Z</time>
      </trkpt>
      <trkpt lat="42.76527" lon="1.57759">
        <ele>1106</ele>
        <time>2020-01-05T14:10:44.000Z</time>
      </trkpt>
      <trkpt lat="42.76527" lon="1.57758">
        <ele>1106</ele>
        <time>2020-01-05T14:10:46.000Z</time>
      </trkpt>
      <trkpt lat="42.76528" lon="1.57755">
        <ele>1105</ele>
        <time>2020-01-05T14:10:48.000Z</time>
      </trkpt>
      <trkpt lat="42.76528" lon="1.57754">
        <ele>1104</ele>
        <time>2020-01-05T14:10:50.000Z</time>
      </trkpt>
      <trkpt lat="42.76528" lon="1.57751">
        <ele>1104</ele>
        <time>2020-01-05T14:10:52.000Z</time>
      </trkpt>
      <trkpt lat="42.76528" lon="1.57749">
        <ele>1103</ele>
        <time>2020-01-05T14:10:54.000Z</time>
      </trkpt>
      <trkpt lat="42.76529" lon="1.57745">
        <ele>1102</ele>
        <time>2020-01-05T14:10:56.000Z</time>
      </trkpt>
      <trkpt lat="42.76529" lon="1.57743">
        <ele>1101</ele>
        <time>2020-01-05T14:10:58.000Z</time>
      </trkpt>
      <trkpt lat="42.7653" lon="1.57741">
        <ele>1101</ele>
        <time>2020-01-05T14:11:00.000Z</time>
      </trkpt>
      <trkpt lat="42.76531" lon="1.5774">
        <ele>1100</ele>
        <time>2020-01-05T14:11:02.000Z</time>
      </trkpt>
      <trkpt lat="42.76532" lon="1.57738">
        <ele>1100</ele>
        <time>2020-01-05T14:11:04.000Z</time>
      </trkpt>
      <trkpt lat="42.76533" lon="1.57736">
        <ele>1100</ele>
        <time>2020-01-05T14:11:06.000Z</time>
      </trkpt>
      <trkpt lat="42.76535" lon="1.57735">
        <ele>1099</ele>
        <time>2020-01-05T14:11:08.000Z</time>
      </trkpt>
      <trkpt lat="42.76537" lon="1.57733">
        <ele>1099</ele>
        <time>2020-01-05T14:11:10.000Z</time>
      </trkpt>
      <trkpt lat="42.7654" lon="1.57732">
        <ele>1099</ele>
        <time>2020-01-05T14:11:12.000Z</time>
      </trkpt>
      <trkpt lat="42.76541" lon="1.57731">
        <ele>1099</ele>
        <time>2020-01-05T14:11:14.000Z</time>
      </trkpt>
      <trkpt lat="42.76543" lon="1.57729">
        <ele>1099</ele>
        <time>2020-01-05T14:11:16.000Z</time>
      </trkpt>
      <trkpt lat="42.76546" lon="1.57728">
        <ele>1098</ele>
        <time>2020-01-05T14:11:18.000Z</time>
      </trkpt>
      <trkpt lat="42.76549" lon="1.57726">
        <ele>1098</ele>
        <time>2020-01-05T14:11:20.000Z</time>
      </trkpt>
      <trkpt lat="42.76551" lon="1.57725">
        <ele>1098</ele>
        <time>2020-01-05T14:11:22.000Z</time>
      </trkpt>
      <trkpt lat="42.76553" lon="1.57724">
        <ele>1098</ele>
        <time>2020-01-05T14:11:24.000Z</time>
      </trkpt>
      <trkpt lat="42.76556" lon="1.57723">
        <ele>1098</ele>
        <time>2020-01-05T14:11:26.000Z</time>
      </trkpt>
      <trkpt lat="42.76558" lon="1.57722">
        <ele>1098</ele>
        <time>2020-01-05T14:11:28.000Z</time>
      </trkpt>
      <trkpt lat="42.7656" lon="1.57721">
        <ele>1098</ele>
        <time>2020-01-05T14:11:30.000Z</time>
      </trkpt>
      <trkpt lat="42.76562" lon="1.5772">
        <ele>1097</ele>
        <time>2020-01-05T14:11:32.000Z</time>
      </trkpt>
      <trkpt lat="42.76564" lon="1.57719">
        <ele>1097</ele>
        <time>2020-01-05T14:11:34.000Z</time>
      </trkpt>
      <trkpt lat="42.76566" lon="1.57718">
        <ele>1097</ele>
        <time>2020-01-05T14:11:36.000Z</time>
      </trkpt>
      <trkpt lat="42.76568" lon="1.57718">
        <ele>1097</ele>
        <time>2020-01-05T14:11:38.000Z</time>
      </trkpt>
      <trkpt lat="42.76568" lon="1.57717">
        <ele>1097</ele>
        <time>2020-01-05T14:11:40.000Z</time>
      </trkpt>
      <trkpt lat="42.76569" lon="1.57716">
        <ele>1097</ele>
        <time>2020-01-05T14:11:42.000Z</time>
      </trkpt>
      <trkpt lat="42.76571" lon="1.57716">
        <ele>1097</ele>
        <time>2020-01-05T14:11:44.000Z</time>
      </trkpt>
      <trkpt lat="42.76572" lon="1.57715">
        <ele>1097</ele>
        <time>2020-01-05T14:11:46.000Z</time>
      </trkpt>
      <trkpt lat="42.76573" lon="1.57715">
        <ele>1097</ele>
        <time>2020-01-05T14:11:48.000Z</time>
      </trkpt>
      <trkpt lat="42.76575" lon="1.57715">
        <ele>1097</ele>
        <time>2020-01-05T14:11:50.000Z</time>
      </trkpt>
      <trkpt lat="42.76577" lon="1.57715">
        <ele>1097</ele>
        <time>2020-01-05T14:11:52.000Z</time>
      </trkpt>
      <trkpt lat="42.76578" lon="1.57714">
        <ele>1097</ele>
        <time>2020-01-05T14:11:54.000Z</time>
      </trkpt>
      <trkpt lat="42.7658" lon="1.57713">
        <ele>1097</ele>
        <time>2020-01-05T14:11:56.000Z</time>
      </trkpt>
      <trkpt lat="42.76581" lon="1.57714">
        <ele>1097</ele>
        <time>2020-01-05T14:11:58.000Z</time>
      </trkpt>
      <trkpt lat="42.76583" lon="1.57713">
        <ele>1097</ele>
        <time>2020-01-05T14:12:00.000Z</time>
      </trkpt>
      <trkpt lat="42.76583" lon="1.57712">
        <ele>1097</ele>
        <time>2020-01-05T14:12:02.000Z</time>
      </trkpt>
      <trkpt lat="42.76585" lon="1.57711">
        <ele>1096</ele>
        <time>2020-01-05T14:12:04.000Z</time>
      </trkpt>
      <trkpt lat="42.76586" lon="1.5771">
        <ele>1096</ele>
        <time>2020-01-05T14:12:06.000Z</time>
      </trkpt>
      <trkpt lat="42.76588" lon="1.5771">
        <ele>1096</ele>
        <time>2020-01-05T14:12:08.000Z</time>
      </trkpt>
      <trkpt lat="42.76589" lon="1.5771">
        <ele>1096</ele>
        <time>2020-01-05T14:12:10.000Z</time>
      </trkpt>
      <trkpt lat="42.7659" lon="1.57709">
        <ele>1096</ele>
        <time>2020-01-05T14:12:12.000Z</time>
      </trkpt>
      <trkpt lat="42.76592" lon="1.57709">
        <ele>1096</ele>
        <time>2020-01-05T14:12:14.000Z</time>
      </trkpt>
      <trkpt lat="42.76593" lon="1.57709">
        <ele>1096</ele>
        <time>2020-01-05T14:12:16.000Z</time>
      </trkpt>
      <trkpt lat="42.76595" lon="1.57708">
        <ele>1096</ele>
        <time>2020-01-05T14:12:18.000Z</time>
      </trkpt>
      <trkpt lat="42.76596" lon="1.57706">
        <ele>1095</ele>
        <time>2020-01-05T14:12:20.000Z</time>
      </trkpt>
      <trkpt lat="42.76596" lon="1.57704">
        <ele>1094</ele>
        <time>2020-01-05T14:12:22.000Z</time>
      </trkpt>
      <trkpt lat="42.76598" lon="1.57702">
        <ele>1094</ele>
        <time>2020-01-05T14:12:24.000Z</time>
      </trkpt>
      <trkpt lat="42.76599" lon="1.57701">
        <ele>1093</ele>
        <time>2020-01-05T14:12:26.000Z</time>
      </trkpt>
      <trkpt lat="42.76601" lon="1.57699">
        <ele>1092</ele>
        <time>2020-01-05T14:12:28.000Z</time>
      </trkpt>
      <trkpt lat="42.76602" lon="1.57697">
        <ele>1092</ele>
        <time>2020-01-05T14:12:30.000Z</time>
      </trkpt>
      <trkpt lat="42.76604" lon="1.57696">
        <ele>1092</ele>
        <time>2020-01-05T14:12:32.000Z</time>
      </trkpt>
      <trkpt lat="42.76605" lon="1.57697">
        <ele>1092</ele>
        <time>2020-01-05T14:12:34.000Z</time>
      </trkpt>
      <trkpt lat="42.76606" lon="1.57697">
        <ele>1092</ele>
        <time>2020-01-05T14:12:36.000Z</time>
      </trkpt>
      <trkpt lat="42.76607" lon="1.57696">
        <ele>1092</ele>
        <time>2020-01-05T14:12:38.000Z</time>
      </trkpt>
      <trkpt lat="42.76608" lon="1.57695">
        <ele>1091</ele>
        <time>2020-01-05T14:12:40.000Z</time>
      </trkpt>
      <trkpt lat="42.76608" lon="1.57695">
        <ele>1091</ele>
        <time>2020-01-05T14:12:42.000Z</time>
      </trkpt>
      <trkpt lat="42.76609" lon="1.57694">
        <ele>1091</ele>
        <time>2020-01-05T14:12:44.000Z</time>
      </trkpt>
      <trkpt lat="42.7661" lon="1.57693">
        <ele>1091</ele>
        <time>2020-01-05T14:12:46.000Z</time>
      </trkpt>
      <trkpt lat="42.7661" lon="1.57693">
        <ele>1091</ele>
        <time>2020-01-05T14:12:48.000Z</time>
      </trkpt>
      <trkpt lat="42.76611" lon="1.57692">
        <ele>1090</ele>
        <time>2020-01-05T14:12:50.000Z</time>
      </trkpt>
      <trkpt lat="42.76611" lon="1.57692">
        <ele>1090</ele>
        <time>2020-01-05T14:12:52.000Z</time>
      </trkpt>
      <trkpt lat="42.76612" lon="1.57691">
        <ele>1090</ele>
        <time>2020-01-05T14:12:54.000Z</time>
      </trkpt>
      <trkpt lat="42.76612" lon="1.57691">
        <ele>1090</ele>
        <time>2020-01-05T14:12:56.000Z</time>
      </trkpt>
      <trkpt lat="42.76612" lon="1.5769">
        <ele>1089</ele>
        <time>2020-01-05T14:12:58.000Z</time>
      </trkpt>
      <trkpt lat="42.76612" lon="1.57689">
        <ele>1089</ele>
        <time>2020-01-05T14:13:00.000Z</time>
      </trkpt>
      <trkpt lat="42.76613" lon="1.57686">
        <ele>1088</ele>
        <time>2020-01-05T14:13:02.000Z</time>
      </trkpt>
      <trkpt lat="42.76614" lon="1.57684">
        <ele>1087</ele>
        <time>2020-01-05T14:13:04.000Z</time>
      </trkpt>
      <trkpt lat="42.76615" lon="1.57682">
        <ele>1086</ele>
        <time>2020-01-05T14:13:06.000Z</time>
      </trkpt>
      <trkpt lat="42.76615" lon="1.5768">
        <ele>1085</ele>
        <time>2020-01-05T14:13:08.000Z</time>
      </trkpt>
      <trkpt lat="42.76615" lon="1.57678">
        <ele>1085</ele>
        <time>2020-01-05T14:13:10.000Z</time>
      </trkpt>
      <trkpt lat="42.76615" lon="1.57677">
        <ele>1084</ele>
        <time>2020-01-05T14:13:12.000Z</time>
      </trkpt>
      <trkpt lat="42.76616" lon="1.57675">
        <ele>1083</ele>
        <time>2020-01-05T14:13:14.000Z</time>
      </trkpt>
      <trkpt lat="42.76616" lon="1.57674">
        <ele>1083</ele>
        <time>2020-01-05T14:13:16.000Z</time>
      </trkpt>
      <trkpt lat="42.76616" lon="1.57672">
        <ele>1082</ele>
        <time>2020-01-05T14:13:18.000Z</time>
      </trkpt>
      <trkpt lat="42.76617" lon="1.5767">
        <ele>1082</ele>
        <time>2020-01-05T14:13:20.000Z</time>
      </trkpt>
      <trkpt lat="42.76617" lon="1.57669">
        <ele>1081</ele>
        <time>2020-01-05T14:13:22.000Z</time>
      </trkpt>
      <trkpt lat="42.76616" lon="1.57667">
        <ele>1081</ele>
        <time>2020-01-05T14:13:24.000Z</time>
      </trkpt>
      <trkpt lat="42.76616" lon="1.57666">
        <ele>1080</ele>
        <time>2020-01-05T14:13:26.000Z</time>
      </trkpt>
      <trkpt lat="42.76616" lon="1.57665">
        <ele>1080</ele>
        <time>2020-01-05T14:13:28.000Z</time>
      </trkpt>
      <trkpt lat="42.76616" lon="1.57662">
        <ele>1079</ele>
        <time>2020-01-05T14:13:30.000Z</time>
      </trkpt>
      <trkpt lat="42.76615" lon="1.5766">
        <ele>1078</ele>
        <time>2020-01-05T14:13:32.000Z</time>
      </trkpt>
      <trkpt lat="42.76615" lon="1.57658">
        <ele>1077</ele>
        <time>2020-01-05T14:13:34.000Z</time>
      </trkpt>
      <trkpt lat="42.76615" lon="1.57655">
        <ele>1076</ele>
        <time>2020-01-05T14:13:36.000Z</time>
      </trkpt>
      <trkpt lat="42.76615" lon="1.57653">
        <ele>1075</ele>
        <time>2020-01-05T14:13:38.000Z</time>
      </trkpt>
      <trkpt lat="42.76616" lon="1.57652">
        <ele>1075</ele>
        <time>2020-01-05T14:13:40.000Z</time>
      </trkpt>
      <trkpt lat="42.76616" lon="1.5765">
        <ele>1074</ele>
        <time>2020-01-05T14:13:42.000Z</time>
      </trkpt>
      <trkpt lat="42.76617" lon="1.57648">
        <ele>1074</ele>
        <time>2020-01-05T14:13:44.000Z</time>
      </trkpt>
      <trkpt lat="42.76619" lon="1.57647">
        <ele>1074</ele>
        <time>2020-01-05T14:13:46.000Z</time>
      </trkpt>
      <trkpt lat="42.7662" lon="1.57644">
        <ele>1074</ele>
        <time>2020-01-05T14:13:48.000Z</time>
      </trkpt>
      <trkpt lat="42.7662" lon="1.57643">
        <ele>1073</ele>
        <time>2020-01-05T14:13:50.000Z</time>
      </trkpt>
      <trkpt lat="42.76621" lon="1.57642">
        <ele>1073</ele>
        <time>2020-01-05T14:13:52.000Z</time>
      </trkpt>
      <trkpt lat="42.76621" lon="1.5764">
        <ele>1073</ele>
        <time>2020-01-05T14:13:54.000Z</time>
      </trkpt>
      <trkpt lat="42.76621" lon="1.57639">
        <ele>1072</ele>
        <time>2020-01-05T14:13:56.000Z</time>
      </trkpt>
      <trkpt lat="42.76622" lon="1.57636">
        <ele>1072</ele>
        <time>2020-01-05T14:13:58.000Z</time>
      </trkpt>
      <trkpt lat="42.76623" lon="1.57635">
        <ele>1071</ele>
        <time>2020-01-05T14:14:00.000Z</time>
      </trkpt>
      <trkpt lat="42.76624" lon="1.57634">
        <ele>1072</ele>
        <time>2020-01-05T14:14:02.000Z</time>
      </trkpt>
      <trkpt lat="42.76625" lon="1.57635">
        <ele>1072</ele>
        <time>2020-01-05T14:14:04.000Z</time>
      </trkpt>
      <trkpt lat="42.76626" lon="1.57634">
        <ele>1072</ele>
        <time>2020-01-05T14:14:06.000Z</time>
      </trkpt>
      <trkpt lat="42.76627" lon="1.57634">
        <ele>1072</ele>
        <time>2020-01-05T14:14:08.000Z</time>
      </trkpt>
      <trkpt lat="42.76628" lon="1.57634">
        <ele>1072</ele>
        <time>2020-01-05T14:14:10.000Z</time>
      </trkpt>
      <trkpt lat="42.76629" lon="1.57633">
        <ele>1072</ele>
        <time>2020-01-05T14:14:12.000Z</time>
      </trkpt>
      <trkpt lat="42.7663" lon="1.57633">
        <ele>1072</ele>
        <time>2020-01-05T14:14:14.000Z</time>
      </trkpt>
      <trkpt lat="42.76631" lon="1.57633">
        <ele>1072</ele>
        <time>2020-01-05T14:14:16.000Z</time>
      </trkpt>
      <trkpt lat="42.76632" lon="1.57632">
        <ele>1072</ele>
        <time>2020-01-05T14:14:18.000Z</time>
      </trkpt>
      <trkpt lat="42.76631" lon="1.57631">
        <ele>1072</ele>
        <time>2020-01-05T14:14:20.000Z</time>
      </trkpt>
      <trkpt lat="42.76631" lon="1.5763">
        <ele>1072</ele>
        <time>2020-01-05T14:14:22.000Z</time>
      </trkpt>
      <trkpt lat="42.7663" lon="1.57629">
        <ele>1071</ele>
        <time>2020-01-05T14:14:24.000Z</time>
      </trkpt>
      <trkpt lat="42.76629" lon="1.57628">
        <ele>1071</ele>
        <time>2020-01-05T14:14:26.000Z</time>
      </trkpt>
      <trkpt lat="42.76628" lon="1.57626">
        <ele>1070</ele>
        <time>2020-01-05T14:14:28.000Z</time>
      </trkpt>
      <trkpt lat="42.76627" lon="1.57625">
        <ele>1070</ele>
        <time>2020-01-05T14:14:30.000Z</time>
      </trkpt>
      <trkpt lat="42.76627" lon="1.57623">
        <ele>1069</ele>
        <time>2020-01-05T14:14:32.000Z</time>
      </trkpt>
      <trkpt lat="42.76628" lon="1.57621">
        <ele>1069</ele>
        <time>2020-01-05T14:14:34.000Z</time>
      </trkpt>
      <trkpt lat="42.76628" lon="1.57619">
        <ele>1068</ele>
        <time>2020-01-05T14:14:36.000Z</time>
      </trkpt>
      <trkpt lat="42.76629" lon="1.57618">
        <ele>1068</ele>
        <time>2020-01-05T14:14:38.000Z</time>
      </trkpt>
      <trkpt lat="42.76629" lon="1.57616">
        <ele>1068</ele>
        <time>2020-01-05T14:14:40.000Z</time>
      </trkpt>
      <trkpt lat="42.76629" lon="1.57614">
        <ele>1067</ele>
        <time>2020-01-05T14:14:42.000Z</time>
      </trkpt>
      <trkpt lat="42.76628" lon="1.57613">
        <ele>1067</ele>
        <time>2020-01-05T14:14:44.000Z</time>
      </trkpt>
      <trkpt lat="42.76628" lon="1.57611">
        <ele>1066</ele>
        <time>2020-01-05T14:14:46.000Z</time>
      </trkpt>
      <trkpt lat="42.76627" lon="1.57608">
        <ele>1065</ele>
        <time>2020-01-05T14:14:48.000Z</time>
      </trkpt>
      <trkpt lat="42.76625" lon="1.57606">
        <ele>1064</ele>
        <time>2020-01-05T14:14:50.000Z</time>
      </trkpt>
      <trkpt lat="42.76624" lon="1.57604">
        <ele>1064</ele>
        <time>2020-01-05T14:14:52.000Z</time>
      </trkpt>
      <trkpt lat="42.76622" lon="1.57603">
        <ele>1063</ele>
        <time>2020-01-05T14:14:54.000Z</time>
      </trkpt>
      <trkpt lat="42.76622" lon="1.57602">
        <ele>1063</ele>
        <time>2020-01-05T14:14:56.000Z</time>
      </trkpt>
      <trkpt lat="42.76622" lon="1.57601">
        <ele>1062</ele>
        <time>2020-01-05T14:14:58.000Z</time>
      </trkpt>
      <trkpt lat="42.76622" lon="1.576">
        <ele>1062</ele>
        <time>2020-01-05T14:15:00.000Z</time>
      </trkpt>
      <trkpt lat="42.76621" lon="1.57599">
        <ele>1062</ele>
        <time>2020-01-05T14:15:02.000Z</time>
      </trkpt>
      <trkpt lat="42.76622" lon="1.57598">
        <ele>1061</ele>
        <time>2020-01-05T14:15:04.000Z</time>
      </trkpt>
      <trkpt lat="42.76622" lon="1.57598">
        <ele>1061</ele>
        <time>2020-01-05T14:15:06.000Z</time>
      </trkpt>
      <trkpt lat="42.76622" lon="1.57597">
        <ele>1061</ele>
        <time>2020-01-05T14:15:08.000Z</time>
      </trkpt>
      <trkpt lat="42.76622" lon="1.57594">
        <ele>1060</ele>
        <time>2020-01-05T14:15:10.000Z</time>
      </trkpt>
      <trkpt lat="42.76624" lon="1.57591">
        <ele>1059</ele>
        <time>2020-01-05T14:15:12.000Z</time>
      </trkpt>
      <trkpt lat="42.76625" lon="1.57589">
        <ele>1059</ele>
        <time>2020-01-05T14:15:14.000Z</time>
      </trkpt>
      <trkpt lat="42.76625" lon="1.57588">
        <ele>1058</ele>
        <time>2020-01-05T14:15:16.000Z</time>
      </trkpt>
      <trkpt lat="42.76625" lon="1.57586">
        <ele>1058</ele>
        <time>2020-01-05T14:15:18.000Z</time>
      </trkpt>
      <trkpt lat="42.76626" lon="1.57584">
        <ele>1057</ele>
        <time>2020-01-05T14:15:20.000Z</time>
      </trkpt>
      <trkpt lat="42.76626" lon="1.57583">
        <ele>1057</ele>
        <time>2020-01-05T14:15:22.000Z</time>
      </trkpt>
      <trkpt lat="42.76627" lon="1.57583">
        <ele>1057</ele>
        <time>2020-01-05T14:15:24.000Z</time>
      </trkpt>
      <trkpt lat="42.76627" lon="1.57582">
        <ele>1056</ele>
        <time>2020-01-05T14:15:26.000Z</time>
      </trkpt>
      <trkpt lat="42.76627" lon="1.57581">
        <ele>1056</ele>
        <time>2020-01-05T14:15:28.000Z</time>
      </trkpt>
      <trkpt lat="42.76627" lon="1.5758">
        <ele>1056</ele>
        <time>2020-01-05T14:15:30.000Z</time>
      </trkpt>
      <trkpt lat="42.76628" lon="1.57579">
        <ele>1055</ele>
        <time>2020-01-05T14:15:32.000Z</time>
      </trkpt>
      <trkpt lat="42.76628" lon="1.57577">
        <ele>1055</ele>
        <time>2020-01-05T14:15:34.000Z</time>
      </trkpt>
      <trkpt lat="42.76629" lon="1.57576">
        <ele>1055</ele>
        <time>2020-01-05T14:15:36.000Z</time>
      </trkpt>
      <trkpt lat="42.7663" lon="1.57573">
        <ele>1054</ele>
        <time>2020-01-05T14:15:38.000Z</time>
      </trkpt>
      <trkpt lat="42.76633" lon="1.57572">
        <ele>1054</ele>
        <time>2020-01-05T14:15:40.000Z</time>
      </trkpt>
      <trkpt lat="42.76634" lon="1.57571">
        <ele>1054</ele>
        <time>2020-01-05T14:15:42.000Z</time>
      </trkpt>
      <trkpt lat="42.76635" lon="1.57571">
        <ele>1054</ele>
        <time>2020-01-05T14:15:44.000Z</time>
      </trkpt>
      <trkpt lat="42.76635" lon="1.57571">
        <ele>1054</ele>
        <time>2020-01-05T14:15:46.000Z</time>
      </trkpt>
      <trkpt lat="42.76636" lon="1.57571">
        <ele>1054</ele>
        <time>2020-01-05T14:15:48.000Z</time>
      </trkpt>
      <trkpt lat="42.76637" lon="1.5757">
        <ele>1053</ele>
        <time>2020-01-05T14:15:50.000Z</time>
      </trkpt>
      <trkpt lat="42.76637" lon="1.57569">
        <ele>1053</ele>
        <time>2020-01-05T14:15:52.000Z</time>
      </trkpt>
      <trkpt lat="42.76638" lon="1.57568">
        <ele>1053</ele>
        <time>2020-01-05T14:15:54.000Z</time>
      </trkpt>
      <trkpt lat="42.7664" lon="1.57568">
        <ele>1053</ele>
        <time>2020-01-05T14:15:56.000Z</time>
      </trkpt>
      <trkpt lat="42.76642" lon="1.57567">
        <ele>1053</ele>
        <time>2020-01-05T14:15:58.000Z</time>
      </trkpt>
      <trkpt lat="42.76644" lon="1.57567">
        <ele>1053</ele>
        <time>2020-01-05T14:16:00.000Z</time>
      </trkpt>
      <trkpt lat="42.76646" lon="1.57566">
        <ele>1053</ele>
        <time>2020-01-05T14:16:02.000Z</time>
      </trkpt>
      <trkpt lat="42.76647" lon="1.57566">
        <ele>1053</ele>
        <time>2020-01-05T14:16:04.000Z</time>
      </trkpt>
      <trkpt lat="42.76648" lon="1.57566">
        <ele>1053</ele>
        <time>2020-01-05T14:16:06.000Z</time>
      </trkpt>
      <trkpt lat="42.76649" lon="1.57565">
        <ele>1053</ele>
        <time>2020-01-05T14:16:08.000Z</time>
      </trkpt>
      <trkpt lat="42.7665" lon="1.57564">
        <ele>1053</ele>
        <time>2020-01-05T14:16:10.000Z</time>
      </trkpt>
      <trkpt lat="42.76651" lon="1.57563">
        <ele>1052</ele>
        <time>2020-01-05T14:16:12.000Z</time>
      </trkpt>
      <trkpt lat="42.76651" lon="1.57562">
        <ele>1052</ele>
        <time>2020-01-05T14:16:14.000Z</time>
      </trkpt>
      <trkpt lat="42.76652" lon="1.57561">
        <ele>1051</ele>
        <time>2020-01-05T14:16:16.000Z</time>
      </trkpt>
      <trkpt lat="42.76653" lon="1.57561">
        <ele>1051</ele>
        <time>2020-01-05T14:16:18.000Z</time>
      </trkpt>
      <trkpt lat="42.76653" lon="1.5756">
        <ele>1051</ele>
        <time>2020-01-05T14:16:20.000Z</time>
      </trkpt>
      <trkpt lat="42.76653" lon="1.57559">
        <ele>1051</ele>
        <time>2020-01-05T14:16:22.000Z</time>
      </trkpt>
      <trkpt lat="42.76653" lon="1.57559">
        <ele>1051</ele>
        <time>2020-01-05T14:16:24.000Z</time>
      </trkpt>
      <trkpt lat="42.76654" lon="1.57557">
        <ele>1050</ele>
        <time>2020-01-05T14:16:26.000Z</time>
      </trkpt>
      <trkpt lat="42.76654" lon="1.57555">
        <ele>1050</ele>
        <time>2020-01-05T14:16:28.000Z</time>
      </trkpt>
      <trkpt lat="42.76654" lon="1.57554">
        <ele>1049</ele>
        <time>2020-01-05T14:16:30.000Z</time>
      </trkpt>
      <trkpt lat="42.76655" lon="1.57551">
        <ele>1048</ele>
        <time>2020-01-05T14:16:32.000Z</time>
      </trkpt>
      <trkpt lat="42.76658" lon="1.57549">
        <ele>1047</ele>
        <time>2020-01-05T14:16:34.000Z</time>
      </trkpt>
      <trkpt lat="42.76658" lon="1.57547">
        <ele>1046</ele>
        <time>2020-01-05T14:16:36.000Z</time>
      </trkpt>
      <trkpt lat="42.7666" lon="1.57545">
        <ele>1046</ele>
        <time>2020-01-05T14:16:38.000Z</time>
      </trkpt>
      <trkpt lat="42.7666" lon="1.57543">
        <ele>1045</ele>
        <time>2020-01-05T14:16:40.000Z</time>
      </trkpt>
      <trkpt lat="42.76661" lon="1.5754">
        <ele>1044</ele>
        <time>2020-01-05T14:16:42.000Z</time>
      </trkpt>
      <trkpt lat="42.76662" lon="1.57539">
        <ele>1043</ele>
        <time>2020-01-05T14:16:44.000Z</time>
      </trkpt>
      <trkpt lat="42.76662" lon="1.57538">
        <ele>1043</ele>
        <time>2020-01-05T14:16:46.000Z</time>
      </trkpt>
      <trkpt lat="42.76663" lon="1.57537">
        <ele>1042</ele>
        <time>2020-01-05T14:16:48.000Z</time>
      </trkpt>
      <trkpt lat="42.76663" lon="1.57536">
        <ele>1042</ele>
        <time>2020-01-05T14:16:50.000Z</time>
      </trkpt>
      <trkpt lat="42.76664" lon="1.57535">
        <ele>1042</ele>
        <time>2020-01-05T14:16:52.000Z</time>
      </trkpt>
      <trkpt lat="42.76665" lon="1.57533">
        <ele>1041</ele>
        <time>2020-01-05T14:16:54.000Z</time>
      </trkpt>
      <trkpt lat="42.76666" lon="1.57532">
        <ele>1041</ele>
        <time>2020-01-05T14:16:56.000Z</time>
      </trkpt>
      <trkpt lat="42.76667" lon="1.5753">
        <ele>1040</ele>
        <time>2020-01-05T14:16:58.000Z</time>
      </trkpt>
      <trkpt lat="42.76669" lon="1.5753">
        <ele>1040</ele>
        <time>2020-01-05T14:17:00.000Z</time>
      </trkpt>
      <trkpt lat="42.7667" lon="1.57529">
        <ele>1040</ele>
        <time>2020-01-05T14:17:02.000Z</time>
      </trkpt>
      <trkpt lat="42.76672" lon="1.57529">
        <ele>1040</ele>
        <time>2020-01-05T14:17:04.000Z</time>
      </trkpt>
      <trkpt lat="42.76674" lon="1.57528">
        <ele>1039</ele>
        <time>2020-01-05T14:17:06.000Z</time>
      </trkpt>
      <trkpt lat="42.76676" lon="1.57528">
        <ele>1039</ele>
        <time>2020-01-05T14:17:08.000Z</time>
      </trkpt>
      <trkpt lat="42.76679" lon="1.57528">
        <ele>1038</ele>
        <time>2020-01-05T14:17:10.000Z</time>
      </trkpt>
      <trkpt lat="42.7668" lon="1.57526">
        <ele>1038</ele>
        <time>2020-01-05T14:17:12.000Z</time>
      </trkpt>
      <trkpt lat="42.76682" lon="1.57526">
        <ele>1037</ele>
        <time>2020-01-05T14:17:14.000Z</time>
      </trkpt>
      <trkpt lat="42.76685" lon="1.57525">
        <ele>1037</ele>
        <time>2020-01-05T14:17:16.000Z</time>
      </trkpt>
      <trkpt lat="42.76686" lon="1.57525">
        <ele>1037</ele>
        <time>2020-01-05T14:17:18.000Z</time>
      </trkpt>
      <trkpt lat="42.76688" lon="1.57524">
        <ele>1036</ele>
        <time>2020-01-05T14:17:20.000Z</time>
      </trkpt>
      <trkpt lat="42.7669" lon="1.57523">
        <ele>1036</ele>
        <time>2020-01-05T14:17:22.000Z</time>
      </trkpt>
      <trkpt lat="42.76691" lon="1.57524">
        <ele>1036</ele>
        <time>2020-01-05T14:17:24.000Z</time>
      </trkpt>
      <trkpt lat="42.76692" lon="1.57523">
        <ele>1035</ele>
        <time>2020-01-05T14:17:26.000Z</time>
      </trkpt>
      <trkpt lat="42.76692" lon="1.57523">
        <ele>1035</ele>
        <time>2020-01-05T14:17:28.000Z</time>
      </trkpt>
      <trkpt lat="42.76694" lon="1.57522">
        <ele>1035</ele>
        <time>2020-01-05T14:17:30.000Z</time>
      </trkpt>
      <trkpt lat="42.76695" lon="1.57521">
        <ele>1034</ele>
        <time>2020-01-05T14:17:32.000Z</time>
      </trkpt>
      <trkpt lat="42.76697" lon="1.57521">
        <ele>1034</ele>
        <time>2020-01-05T14:17:34.000Z</time>
      </trkpt>
      <trkpt lat="42.76698" lon="1.57521">
        <ele>1034</ele>
        <time>2020-01-05T14:17:36.000Z</time>
      </trkpt>
      <trkpt lat="42.76698" lon="1.57522">
        <ele>1034</ele>
        <time>2020-01-05T14:17:38.000Z</time>
      </trkpt>
      <trkpt lat="42.76699" lon="1.57521">
        <ele>1034</ele>
        <time>2020-01-05T14:17:40.000Z</time>
      </trkpt>
      <trkpt lat="42.76699" lon="1.5752">
        <ele>1034</ele>
        <time>2020-01-05T14:17:42.000Z</time>
      </trkpt>
      <trkpt lat="42.76699" lon="1.57519">
        <ele>1033</ele>
        <time>2020-01-05T14:17:44.000Z</time>
      </trkpt>
      <trkpt lat="42.76699" lon="1.57518">
        <ele>1033</ele>
        <time>2020-01-05T14:17:46.000Z</time>
      </trkpt>
      <trkpt lat="42.767" lon="1.57516">
        <ele>1032</ele>
        <time>2020-01-05T14:17:48.000Z</time>
      </trkpt>
      <trkpt lat="42.767" lon="1.57515">
        <ele>1031</ele>
        <time>2020-01-05T14:17:50.000Z</time>
      </trkpt>
      <trkpt lat="42.767" lon="1.57514">
        <ele>1031</ele>
        <time>2020-01-05T14:17:52.000Z</time>
      </trkpt>
      <trkpt lat="42.76701" lon="1.57514">
        <ele>1031</ele>
        <time>2020-01-05T14:17:54.000Z</time>
      </trkpt>
      <trkpt lat="42.76701" lon="1.57513">
        <ele>1031</ele>
        <time>2020-01-05T14:17:56.000Z</time>
      </trkpt>
      <trkpt lat="42.76702" lon="1.57512">
        <ele>1031</ele>
        <time>2020-01-05T14:17:58.000Z</time>
      </trkpt>
      <trkpt lat="42.76702" lon="1.57511">
        <ele>1030</ele>
        <time>2020-01-05T14:18:00.000Z</time>
      </trkpt>
      <trkpt lat="42.76703" lon="1.57509">
        <ele>1030</ele>
        <time>2020-01-05T14:18:02.000Z</time>
      </trkpt>
      <trkpt lat="42.76702" lon="1.57508">
        <ele>1029</ele>
        <time>2020-01-05T14:18:04.000Z</time>
      </trkpt>
      <trkpt lat="42.76703" lon="1.57506">
        <ele>1029</ele>
        <time>2020-01-05T14:18:06.000Z</time>
      </trkpt>
      <trkpt lat="42.76702" lon="1.57505">
        <ele>1028</ele>
        <time>2020-01-05T14:18:08.000Z</time>
      </trkpt>
      <trkpt lat="42.76702" lon="1.57503">
        <ele>1028</ele>
        <time>2020-01-05T14:18:10.000Z</time>
      </trkpt>
      <trkpt lat="42.76702" lon="1.57501">
        <ele>1027</ele>
        <time>2020-01-05T14:18:12.000Z</time>
      </trkpt>
      <trkpt lat="42.76703" lon="1.575">
        <ele>1027</ele>
        <time>2020-01-05T14:18:14.000Z</time>
      </trkpt>
      <trkpt lat="42.76704" lon="1.57499">
        <ele>1027</ele>
        <time>2020-01-05T14:18:16.000Z</time>
      </trkpt>
      <trkpt lat="42.76706" lon="1.57497">
        <ele>1027</ele>
        <time>2020-01-05T14:18:18.000Z</time>
      </trkpt>
      <trkpt lat="42.76707" lon="1.57497">
        <ele>1027</ele>
        <time>2020-01-05T14:18:20.000Z</time>
      </trkpt>
      <trkpt lat="42.76708" lon="1.57496">
        <ele>1026</ele>
        <time>2020-01-05T14:18:22.000Z</time>
      </trkpt>
      <trkpt lat="42.76707" lon="1.57495">
        <ele>1026</ele>
        <time>2020-01-05T14:18:24.000Z</time>
      </trkpt>
      <trkpt lat="42.76706" lon="1.57493">
        <ele>1025</ele>
        <time>2020-01-05T14:18:26.000Z</time>
      </trkpt>
      <trkpt lat="42.76706" lon="1.57491">
        <ele>1025</ele>
        <time>2020-01-05T14:18:28.000Z</time>
      </trkpt>
      <trkpt lat="42.76707" lon="1.57489">
        <ele>1024</ele>
        <time>2020-01-05T14:18:30.000Z</time>
      </trkpt>
      <trkpt lat="42.76707" lon="1.57487">
        <ele>1024</ele>
        <time>2020-01-05T14:18:32.000Z</time>
      </trkpt>
      <trkpt lat="42.76707" lon="1.57485">
        <ele>1023</ele>
        <time>2020-01-05T14:18:34.000Z</time>
      </trkpt>
      <trkpt lat="42.76706" lon="1.57485">
        <ele>1023</ele>
        <time>2020-01-05T14:18:36.000Z</time>
      </trkpt>
      <trkpt lat="42.76706" lon="1.57485">
        <ele>1023</ele>
        <time>2020-01-05T14:18:38.000Z</time>
      </trkpt>
      <trkpt lat="42.76706" lon="1.57484">
        <ele>1023</ele>
        <time>2020-01-05T14:18:40.000Z</time>
      </trkpt>
      <trkpt lat="42.76705" lon="1.57483">
        <ele>1023</ele>
        <time>2020-01-05T14:18:42.000Z</time>
      </trkpt>
      <trkpt lat="42.76705" lon="1.57484">
        <ele>1023</ele>
        <time>2020-01-05T14:18:44.000Z</time>
      </trkpt>
      <trkpt lat="42.76705" lon="1.57483">
        <ele>1023</ele>
        <time>2020-01-05T14:18:46.000Z</time>
      </trkpt>
      <trkpt lat="42.76705" lon="1.57484">
        <ele>1023</ele>
        <time>2020-01-05T14:18:48.000Z</time>
      </trkpt>
      <trkpt lat="42.76706" lon="1.57484">
        <ele>1023</ele>
        <time>2020-01-05T14:18:50.000Z</time>
      </trkpt>
      <trkpt lat="42.76707" lon="1.57485">
        <ele>1023</ele>
        <time>2020-01-05T14:18:52.000Z</time>
      </trkpt>
      <trkpt lat="42.76707" lon="1.57485">
        <ele>1023</ele>
        <time>2020-01-05T14:18:54.000Z</time>
      </trkpt>
      <trkpt lat="42.76707" lon="1.57485">
        <ele>1023</ele>
        <time>2020-01-05T14:18:56.000Z</time>
      </trkpt>
      <trkpt lat="42.76708" lon="1.57485">
        <ele>1023</ele>
        <time>2020-01-05T14:18:58.000Z</time>
      </trkpt>
      <trkpt lat="42.76708" lon="1.57485">
        <ele>1023</ele>
        <time>2020-01-05T14:19:00.000Z</time>
      </trkpt>
      <trkpt lat="42.76708" lon="1.57485">
        <ele>1023</ele>
        <time>2020-01-05T14:19:02.000Z</time>
      </trkpt>
      <trkpt lat="42.76708" lon="1.57486">
        <ele>1023</ele>
        <time>2020-01-05T14:19:04.000Z</time>
      </trkpt>
      <trkpt lat="42.76708" lon="1.57486">
        <ele>1024</ele>
        <time>2020-01-05T14:19:06.000Z</time>
      </trkpt>
      <trkpt lat="42.76709" lon="1.57487">
        <ele>1024</ele>
        <time>2020-01-05T14:19:08.000Z</time>
      </trkpt>
      <trkpt lat="42.76709" lon="1.57488">
        <ele>1024</ele>
        <time>2020-01-05T14:19:10.000Z</time>
      </trkpt>
      <trkpt lat="42.76709" lon="1.57488">
        <ele>1024</ele>
        <time>2020-01-05T14:19:12.000Z</time>
      </trkpt>
      <trkpt lat="42.76709" lon="1.57489">
        <ele>1024</ele>
        <time>2020-01-05T14:19:14.000Z</time>
      </trkpt>
      <trkpt lat="42.76709" lon="1.57489">
        <ele>1024</ele>
        <time>2020-01-05T14:19:16.000Z</time>
      </trkpt>
      <trkpt lat="42.76709" lon="1.57489">
        <ele>1025</ele>
        <time>2020-01-05T14:19:18.000Z</time>
      </trkpt>
      <trkpt lat="42.7671" lon="1.57489">
        <ele>1025</ele>
        <time>2020-01-05T14:19:20.000Z</time>
      </trkpt>
      <trkpt lat="42.7671" lon="1.57489">
        <ele>1024</ele>
        <time>2020-01-05T14:19:22.000Z</time>
      </trkpt>
      <trkpt lat="42.76711" lon="1.57489">
        <ele>1024</ele>
        <time>2020-01-05T14:19:24.000Z</time>
      </trkpt>
      <trkpt lat="42.76711" lon="1.57488">
        <ele>1024</ele>
        <time>2020-01-05T14:19:26.000Z</time>
      </trkpt>
      <trkpt lat="42.76712" lon="1.57487">
        <ele>1024</ele>
        <time>2020-01-05T14:19:28.000Z</time>
      </trkpt>
      <trkpt lat="42.76712" lon="1.57487">
        <ele>1024</ele>
        <time>2020-01-05T14:19:30.000Z</time>
      </trkpt>
      <trkpt lat="42.76713" lon="1.57486">
        <ele>1024</ele>
        <time>2020-01-05T14:19:32.000Z</time>
      </trkpt>
      <trkpt lat="42.76713" lon="1.57485">
        <ele>1024</ele>
        <time>2020-01-05T14:19:34.000Z</time>
      </trkpt>
      <trkpt lat="42.76713" lon="1.57485">
        <ele>1024</ele>
        <time>2020-01-05T14:19:36.000Z</time>
      </trkpt>
      <trkpt lat="42.76714" lon="1.57484">
        <ele>1023</ele>
        <time>2020-01-05T14:19:38.000Z</time>
      </trkpt>
      <trkpt lat="42.76715" lon="1.57483">
        <ele>1023</ele>
        <time>2020-01-05T14:19:40.000Z</time>
      </trkpt>
      <trkpt lat="42.76714" lon="1.57482">
        <ele>1023</ele>
        <time>2020-01-05T14:19:42.000Z</time>
      </trkpt>
      <trkpt lat="42.76713" lon="1.57482">
        <ele>1022</ele>
        <time>2020-01-05T14:19:44.000Z</time>
      </trkpt>
      <trkpt lat="42.76714" lon="1.57481">
        <ele>1022</ele>
        <time>2020-01-05T14:19:46.000Z</time>
      </trkpt>
      <trkpt lat="42.76714" lon="1.57481">
        <ele>1022</ele>
        <time>2020-01-05T14:19:48.000Z</time>
      </trkpt>
      <trkpt lat="42.76714" lon="1.57481">
        <ele>1022</ele>
        <time>2020-01-05T14:19:50.000Z</time>
      </trkpt>
      <trkpt lat="42.76714" lon="1.57481">
        <ele>1022</ele>
        <time>2020-01-05T14:19:52.000Z</time>
      </trkpt>
      <trkpt lat="42.76713" lon="1.57481">
        <ele>1022</ele>
        <time>2020-01-05T14:19:54.000Z</time>
      </trkpt>
      <trkpt lat="42.76712" lon="1.57481">
        <ele>1022</ele>
        <time>2020-01-05T14:19:56.000Z</time>
      </trkpt>
      <trkpt lat="42.7671" lon="1.57481">
        <ele>1022</ele>
        <time>2020-01-05T14:19:58.000Z</time>
      </trkpt>
      <trkpt lat="42.7671" lon="1.57481">
        <ele>1022</ele>
        <time>2020-01-05T14:20:00.000Z</time>
      </trkpt>
      <trkpt lat="42.76708" lon="1.57481">
        <ele>1022</ele>
        <time>2020-01-05T14:20:02.000Z</time>
      </trkpt>
      <trkpt lat="42.76708" lon="1.57482">
        <ele>1022</ele>
        <time>2020-01-05T14:20:04.000Z</time>
      </trkpt>
      <trkpt lat="42.76706" lon="1.57483">
        <ele>1022</ele>
        <time>2020-01-05T14:20:06.000Z</time>
      </trkpt>
      <trkpt lat="42.76705" lon="1.57483">
        <ele>1023</ele>
        <time>2020-01-05T14:20:08.000Z</time>
      </trkpt>
      <trkpt lat="42.76704" lon="1.57483">
        <ele>1022</ele>
        <time>2020-01-05T14:20:10.000Z</time>
      </trkpt>
      <trkpt lat="42.76703" lon="1.57483">
        <ele>1022</ele>
        <time>2020-01-05T14:20:12.000Z</time>
      </trkpt>
      <trkpt lat="42.76702" lon="1.57483">
        <ele>1022</ele>
        <time>2020-01-05T14:20:14.000Z</time>
      </trkpt>
      <trkpt lat="42.767" lon="1.57483">
        <ele>1022</ele>
        <time>2020-01-05T14:20:16.000Z</time>
      </trkpt>
      <trkpt lat="42.76698" lon="1.57482">
        <ele>1022</ele>
        <time>2020-01-05T14:20:18.000Z</time>
      </trkpt>
      <trkpt lat="42.76697" lon="1.57482">
        <ele>1022</ele>
        <time>2020-01-05T14:20:20.000Z</time>
      </trkpt>
      <trkpt lat="42.76696" lon="1.57481">
        <ele>1021</ele>
        <time>2020-01-05T14:20:22.000Z</time>
      </trkpt>
      <trkpt lat="42.76695" lon="1.57481">
        <ele>1021</ele>
        <time>2020-01-05T14:20:24.000Z</time>
      </trkpt>
      <trkpt lat="42.76694" lon="1.57479">
        <ele>1020</ele>
        <time>2020-01-05T14:20:26.000Z</time>
      </trkpt>
      <trkpt lat="42.76693" lon="1.57478">
        <ele>1020</ele>
        <time>2020-01-05T14:20:28.000Z</time>
      </trkpt>
      <trkpt lat="42.76693" lon="1.57476">
        <ele>1019</ele>
        <time>2020-01-05T14:20:30.000Z</time>
      </trkpt>
      <trkpt lat="42.76693" lon="1.57473">
        <ele>1018</ele>
        <time>2020-01-05T14:20:32.000Z</time>
      </trkpt>
      <trkpt lat="42.76693" lon="1.5747">
        <ele>1017</ele>
        <time>2020-01-05T14:20:34.000Z</time>
      </trkpt>
      <trkpt lat="42.76693" lon="1.57468">
        <ele>1016</ele>
        <time>2020-01-05T14:20:36.000Z</time>
      </trkpt>
      <trkpt lat="42.76693" lon="1.57465">
        <ele>1015</ele>
        <time>2020-01-05T14:20:38.000Z</time>
      </trkpt>
      <trkpt lat="42.76692" lon="1.57462">
        <ele>1014</ele>
        <time>2020-01-05T14:20:40.000Z</time>
      </trkpt>
      <trkpt lat="42.76692" lon="1.57459">
        <ele>1013</ele>
        <time>2020-01-05T14:20:42.000Z</time>
      </trkpt>
      <trkpt lat="42.76691" lon="1.57458">
        <ele>1012</ele>
        <time>2020-01-05T14:20:44.000Z</time>
      </trkpt>
      <trkpt lat="42.76691" lon="1.57456">
        <ele>1012</ele>
        <time>2020-01-05T14:20:46.000Z</time>
      </trkpt>
      <trkpt lat="42.76691" lon="1.57455">
        <ele>1011</ele>
        <time>2020-01-05T14:20:48.000Z</time>
      </trkpt>
      <trkpt lat="42.7669" lon="1.57454">
        <ele>1011</ele>
        <time>2020-01-05T14:20:50.000Z</time>
      </trkpt>
      <trkpt lat="42.7669" lon="1.57453">
        <ele>1010</ele>
        <time>2020-01-05T14:20:52.000Z</time>
      </trkpt>
      <trkpt lat="42.7669" lon="1.57452">
        <ele>1010</ele>
        <time>2020-01-05T14:20:54.000Z</time>
      </trkpt>
      <trkpt lat="42.7669" lon="1.57451">
        <ele>1010</ele>
        <time>2020-01-05T14:20:56.000Z</time>
      </trkpt>
      <trkpt lat="42.7669" lon="1.5745">
        <ele>1009</ele>
        <time>2020-01-05T14:20:58.000Z</time>
      </trkpt>
      <trkpt lat="42.76689" lon="1.57449">
        <ele>1009</ele>
        <time>2020-01-05T14:21:00.000Z</time>
      </trkpt>
      <trkpt lat="42.76689" lon="1.57449">
        <ele>1009</ele>
        <time>2020-01-05T14:21:02.000Z</time>
      </trkpt>
      <trkpt lat="42.76688" lon="1.57447">
        <ele>1008</ele>
        <time>2020-01-05T14:21:04.000Z</time>
      </trkpt>
      <trkpt lat="42.76685" lon="1.57446">
        <ele>1007</ele>
        <time>2020-01-05T14:21:06.000Z</time>
      </trkpt>
      <trkpt lat="42.76684" lon="1.57444">
        <ele>1007</ele>
        <time>2020-01-05T14:21:08.000Z</time>
      </trkpt>
      <trkpt lat="42.76684" lon="1.57442">
        <ele>1006</ele>
        <time>2020-01-05T14:21:10.000Z</time>
      </trkpt>
      <trkpt lat="42.76683" lon="1.57441">
        <ele>1006</ele>
        <time>2020-01-05T14:21:12.000Z</time>
      </trkpt>
      <trkpt lat="42.76683" lon="1.5744">
        <ele>1005</ele>
        <time>2020-01-05T14:21:14.000Z</time>
      </trkpt>
      <trkpt lat="42.76682" lon="1.57439">
        <ele>1005</ele>
        <time>2020-01-05T14:21:16.000Z</time>
      </trkpt>
      <trkpt lat="42.76682" lon="1.57437">
        <ele>1004</ele>
        <time>2020-01-05T14:21:18.000Z</time>
      </trkpt>
      <trkpt lat="42.76681" lon="1.57435">
        <ele>1003</ele>
        <time>2020-01-05T14:21:20.000Z</time>
      </trkpt>
      <trkpt lat="42.7668" lon="1.57433">
        <ele>1002</ele>
        <time>2020-01-05T14:21:22.000Z</time>
      </trkpt>
      <trkpt lat="42.76679" lon="1.57431">
        <ele>1001</ele>
        <time>2020-01-05T14:21:24.000Z</time>
      </trkpt>
      <trkpt lat="42.76678" lon="1.57429">
        <ele>1001</ele>
        <time>2020-01-05T14:21:26.000Z</time>
      </trkpt>
      <trkpt lat="42.76676" lon="1.57426">
        <ele>1000</ele>
        <time>2020-01-05T14:21:28.000Z</time>
      </trkpt>
      <trkpt lat="42.76676" lon="1.57424">
        <ele>999</ele>
        <time>2020-01-05T14:21:30.000Z</time>
      </trkpt>
      <trkpt lat="42.76675" lon="1.57422">
        <ele>998</ele>
        <time>2020-01-05T14:21:32.000Z</time>
      </trkpt>
      <trkpt lat="42.76673" lon="1.5742">
        <ele>997</ele>
        <time>2020-01-05T14:21:34.000Z</time>
      </trkpt>
      <trkpt lat="42.76673" lon="1.57417">
        <ele>996</ele>
        <time>2020-01-05T14:21:36.000Z</time>
      </trkpt>
      <trkpt lat="42.76673" lon="1.57415">
        <ele>995</ele>
        <time>2020-01-05T14:21:38.000Z</time>
      </trkpt>
      <trkpt lat="42.76673" lon="1.57414">
        <ele>995</ele>
        <time>2020-01-05T14:21:40.000Z</time>
      </trkpt>
      <trkpt lat="42.76673" lon="1.57412">
        <ele>994</ele>
        <time>2020-01-05T14:21:42.000Z</time>
      </trkpt>
      <trkpt lat="42.76673" lon="1.5741">
        <ele>993</ele>
        <time>2020-01-05T14:21:44.000Z</time>
      </trkpt>
      <trkpt lat="42.76674" lon="1.57408">
        <ele>993</ele>
        <time>2020-01-05T14:21:46.000Z</time>
      </trkpt>
      <trkpt lat="42.76674" lon="1.57406">
        <ele>992</ele>
        <time>2020-01-05T14:21:48.000Z</time>
      </trkpt>
      <trkpt lat="42.76675" lon="1.57403">
        <ele>991</ele>
        <time>2020-01-05T14:21:50.000Z</time>
      </trkpt>
      <trkpt lat="42.76676" lon="1.57401">
        <ele>990</ele>
        <time>2020-01-05T14:21:52.000Z</time>
      </trkpt>
      <trkpt lat="42.76676" lon="1.57399">
        <ele>990</ele>
        <time>2020-01-05T14:21:54.000Z</time>
      </trkpt>
      <trkpt lat="42.76676" lon="1.57397">
        <ele>990</ele>
        <time>2020-01-05T14:21:56.000Z</time>
      </trkpt>
      <trkpt lat="42.76676" lon="1.57395">
        <ele>989</ele>
        <time>2020-01-05T14:21:58.000Z</time>
      </trkpt>
      <trkpt lat="42.76677" lon="1.57393">
        <ele>989</ele>
        <time>2020-01-05T14:22:00.000Z</time>
      </trkpt>
      <trkpt lat="42.76677" lon="1.57391">
        <ele>989</ele>
        <time>2020-01-05T14:22:02.000Z</time>
      </trkpt>
      <trkpt lat="42.76676" lon="1.57389">
        <ele>988</ele>
        <time>2020-01-05T14:22:04.000Z</time>
      </trkpt>
      <trkpt lat="42.76676" lon="1.57387">
        <ele>988</ele>
        <time>2020-01-05T14:22:06.000Z</time>
      </trkpt>
      <trkpt lat="42.76674" lon="1.57385">
        <ele>987</ele>
        <time>2020-01-05T14:22:08.000Z</time>
      </trkpt>
      <trkpt lat="42.7667" lon="1.57383">
        <ele>986</ele>
        <time>2020-01-05T14:22:10.000Z</time>
      </trkpt>
      <trkpt lat="42.76669" lon="1.57383">
        <ele>986</ele>
        <time>2020-01-05T14:22:12.000Z</time>
      </trkpt>
      <trkpt lat="42.76667" lon="1.57382">
        <ele>986</ele>
        <time>2020-01-05T14:22:14.000Z</time>
      </trkpt>
      <trkpt lat="42.76667" lon="1.57382">
        <ele>986</ele>
        <time>2020-01-05T14:22:16.000Z</time>
      </trkpt>
      <trkpt lat="42.76666" lon="1.57382">
        <ele>986</ele>
        <time>2020-01-05T14:22:18.000Z</time>
      </trkpt>
      <trkpt lat="42.76665" lon="1.57382">
        <ele>986</ele>
        <time>2020-01-05T14:22:20.000Z</time>
      </trkpt>
      <trkpt lat="42.76665" lon="1.57382">
        <ele>986</ele>
        <time>2020-01-05T14:22:22.000Z</time>
      </trkpt>
      <trkpt lat="42.76665" lon="1.57383">
        <ele>986</ele>
        <time>2020-01-05T14:22:24.000Z</time>
      </trkpt>
      <trkpt lat="42.76664" lon="1.57382">
        <ele>986</ele>
        <time>2020-01-05T14:22:26.000Z</time>
      </trkpt>
      <trkpt lat="42.76663" lon="1.57381">
        <ele>986</ele>
        <time>2020-01-05T14:22:28.000Z</time>
      </trkpt>
      <trkpt lat="42.76663" lon="1.5738">
        <ele>985</ele>
        <time>2020-01-05T14:22:30.000Z</time>
      </trkpt>
      <trkpt lat="42.76662" lon="1.57378">
        <ele>985</ele>
        <time>2020-01-05T14:22:32.000Z</time>
      </trkpt>
      <trkpt lat="42.76661" lon="1.57376">
        <ele>985</ele>
        <time>2020-01-05T14:22:34.000Z</time>
      </trkpt>
      <trkpt lat="42.76661" lon="1.57376">
        <ele>985</ele>
        <time>2020-01-05T14:22:36.000Z</time>
      </trkpt>
      <trkpt lat="42.76661" lon="1.57374">
        <ele>984</ele>
        <time>2020-01-05T14:22:38.000Z</time>
      </trkpt>
      <trkpt lat="42.7666" lon="1.57373">
        <ele>984</ele>
        <time>2020-01-05T14:22:40.000Z</time>
      </trkpt>
      <trkpt lat="42.76659" lon="1.57372">
        <ele>984</ele>
        <time>2020-01-05T14:22:42.000Z</time>
      </trkpt>
      <trkpt lat="42.76659" lon="1.5737">
        <ele>983</ele>
        <time>2020-01-05T14:22:44.000Z</time>
      </trkpt>
      <trkpt lat="42.76658" lon="1.57369">
        <ele>983</ele>
        <time>2020-01-05T14:22:46.000Z</time>
      </trkpt>
      <trkpt lat="42.76657" lon="1.57368">
        <ele>983</ele>
        <time>2020-01-05T14:22:48.000Z</time>
      </trkpt>
      <trkpt lat="42.76656" lon="1.57367">
        <ele>983</ele>
        <time>2020-01-05T14:22:50.000Z</time>
      </trkpt>
      <trkpt lat="42.76654" lon="1.57366">
        <ele>982</ele>
        <time>2020-01-05T14:22:52.000Z</time>
      </trkpt>
      <trkpt lat="42.76653" lon="1.57364">
        <ele>982</ele>
        <time>2020-01-05T14:22:54.000Z</time>
      </trkpt>
      <trkpt lat="42.7665" lon="1.57363">
        <ele>982</ele>
        <time>2020-01-05T14:22:56.000Z</time>
      </trkpt>
      <trkpt lat="42.76646" lon="1.57362">
        <ele>981</ele>
        <time>2020-01-05T14:22:58.000Z</time>
      </trkpt>
      <trkpt lat="42.76644" lon="1.5736">
        <ele>981</ele>
        <time>2020-01-05T14:23:00.000Z</time>
      </trkpt>
      <trkpt lat="42.76643" lon="1.57358">
        <ele>981</ele>
        <time>2020-01-05T14:23:02.000Z</time>
      </trkpt>
      <trkpt lat="42.76642" lon="1.57356">
        <ele>980</ele>
        <time>2020-01-05T14:23:04.000Z</time>
      </trkpt>
      <trkpt lat="42.76642" lon="1.57354">
        <ele>980</ele>
        <time>2020-01-05T14:23:06.000Z</time>
      </trkpt>
      <trkpt lat="42.76642" lon="1.57351">
        <ele>979</ele>
        <time>2020-01-05T14:23:08.000Z</time>
      </trkpt>
      <trkpt lat="42.76641" lon="1.57349">
        <ele>979</ele>
        <time>2020-01-05T14:23:10.000Z</time>
      </trkpt>
      <trkpt lat="42.76641" lon="1.57347">
        <ele>978</ele>
        <time>2020-01-05T14:23:12.000Z</time>
      </trkpt>
      <trkpt lat="42.7664" lon="1.57346">
        <ele>978</ele>
        <time>2020-01-05T14:23:14.000Z</time>
      </trkpt>
      <trkpt lat="42.7664" lon="1.57344">
        <ele>977</ele>
        <time>2020-01-05T14:23:16.000Z</time>
      </trkpt>
      <trkpt lat="42.7664" lon="1.57342">
        <ele>977</ele>
        <time>2020-01-05T14:23:18.000Z</time>
      </trkpt>
      <trkpt lat="42.7664" lon="1.5734">
        <ele>977</ele>
        <time>2020-01-05T14:23:20.000Z</time>
      </trkpt>
      <trkpt lat="42.7664" lon="1.57338">
        <ele>976</ele>
        <time>2020-01-05T14:23:22.000Z</time>
      </trkpt>
      <trkpt lat="42.76641" lon="1.57336">
        <ele>976</ele>
        <time>2020-01-05T14:23:24.000Z</time>
      </trkpt>
      <trkpt lat="42.76642" lon="1.57334">
        <ele>976</ele>
        <time>2020-01-05T14:23:26.000Z</time>
      </trkpt>
      <trkpt lat="42.76643" lon="1.57331">
        <ele>975</ele>
        <time>2020-01-05T14:23:28.000Z</time>
      </trkpt>
      <trkpt lat="42.76643" lon="1.57328">
        <ele>974</ele>
        <time>2020-01-05T14:23:30.000Z</time>
      </trkpt>
      <trkpt lat="42.76643" lon="1.57325">
        <ele>974</ele>
        <time>2020-01-05T14:23:32.000Z</time>
      </trkpt>
      <trkpt lat="42.76644" lon="1.57323">
        <ele>973</ele>
        <time>2020-01-05T14:23:34.000Z</time>
      </trkpt>
      <trkpt lat="42.76645" lon="1.5732">
        <ele>973</ele>
        <time>2020-01-05T14:23:36.000Z</time>
      </trkpt>
      <trkpt lat="42.76646" lon="1.57317">
        <ele>972</ele>
        <time>2020-01-05T14:23:38.000Z</time>
      </trkpt>
      <trkpt lat="42.76647" lon="1.57314">
        <ele>972</ele>
        <time>2020-01-05T14:23:40.000Z</time>
      </trkpt>
      <trkpt lat="42.76649" lon="1.57312">
        <ele>971</ele>
        <time>2020-01-05T14:23:42.000Z</time>
      </trkpt>
      <trkpt lat="42.76651" lon="1.57311">
        <ele>971</ele>
        <time>2020-01-05T14:23:44.000Z</time>
      </trkpt>
      <trkpt lat="42.76652" lon="1.57309">
        <ele>971</ele>
        <time>2020-01-05T14:23:46.000Z</time>
      </trkpt>
      <trkpt lat="42.76654" lon="1.57307">
        <ele>970</ele>
        <time>2020-01-05T14:23:48.000Z</time>
      </trkpt>
      <trkpt lat="42.76657" lon="1.57306">
        <ele>970</ele>
        <time>2020-01-05T14:23:50.000Z</time>
      </trkpt>
      <trkpt lat="42.7666" lon="1.57305">
        <ele>970</ele>
        <time>2020-01-05T14:23:52.000Z</time>
      </trkpt>
      <trkpt lat="42.76661" lon="1.57304">
        <ele>970</ele>
        <time>2020-01-05T14:23:54.000Z</time>
      </trkpt>
      <trkpt lat="42.76663" lon="1.57302">
        <ele>970</ele>
        <time>2020-01-05T14:23:56.000Z</time>
      </trkpt>
      <trkpt lat="42.76665" lon="1.57301">
        <ele>969</ele>
        <time>2020-01-05T14:23:58.000Z</time>
      </trkpt>
      <trkpt lat="42.76667" lon="1.57299">
        <ele>969</ele>
        <time>2020-01-05T14:24:00.000Z</time>
      </trkpt>
      <trkpt lat="42.76669" lon="1.57298">
        <ele>969</ele>
        <time>2020-01-05T14:24:02.000Z</time>
      </trkpt>
      <trkpt lat="42.7667" lon="1.57297">
        <ele>969</ele>
        <time>2020-01-05T14:24:04.000Z</time>
      </trkpt>
      <trkpt lat="42.76671" lon="1.57295">
        <ele>968</ele>
        <time>2020-01-05T14:24:06.000Z</time>
      </trkpt>
      <trkpt lat="42.76672" lon="1.57294">
        <ele>968</ele>
        <time>2020-01-05T14:24:08.000Z</time>
      </trkpt>
      <trkpt lat="42.76674" lon="1.57293">
        <ele>968</ele>
        <time>2020-01-05T14:24:10.000Z</time>
      </trkpt>
      <trkpt lat="42.76676" lon="1.57292">
        <ele>968</ele>
        <time>2020-01-05T14:24:12.000Z</time>
      </trkpt>
      <trkpt lat="42.76677" lon="1.57291">
        <ele>968</ele>
        <time>2020-01-05T14:24:14.000Z</time>
      </trkpt>
      <trkpt lat="42.76677" lon="1.5729">
        <ele>967</ele>
        <time>2020-01-05T14:24:16.000Z</time>
      </trkpt>
      <trkpt lat="42.76679" lon="1.57289">
        <ele>967</ele>
        <time>2020-01-05T14:24:18.000Z</time>
      </trkpt>
      <trkpt lat="42.7668" lon="1.5729">
        <ele>967</ele>
        <time>2020-01-05T14:24:20.000Z</time>
      </trkpt>
      <trkpt lat="42.76682" lon="1.57289">
        <ele>967</ele>
        <time>2020-01-05T14:24:22.000Z</time>
      </trkpt>
      <trkpt lat="42.76683" lon="1.57288">
        <ele>967</ele>
        <time>2020-01-05T14:24:24.000Z</time>
      </trkpt>
      <trkpt lat="42.76686" lon="1.57288">
        <ele>967</ele>
        <time>2020-01-05T14:24:26.000Z</time>
      </trkpt>
      <trkpt lat="42.76688" lon="1.57287">
        <ele>967</ele>
        <time>2020-01-05T14:24:28.000Z</time>
      </trkpt>
      <trkpt lat="42.7669" lon="1.57287">
        <ele>967</ele>
        <time>2020-01-05T14:24:30.000Z</time>
      </trkpt>
      <trkpt lat="42.76692" lon="1.57287">
        <ele>967</ele>
        <time>2020-01-05T14:24:32.000Z</time>
      </trkpt>
      <trkpt lat="42.76694" lon="1.57287">
        <ele>967</ele>
        <time>2020-01-05T14:24:34.000Z</time>
      </trkpt>
      <trkpt lat="42.76694" lon="1.57287">
        <ele>967</ele>
        <time>2020-01-05T14:24:36.000Z</time>
      </trkpt>
      <trkpt lat="42.76695" lon="1.57287">
        <ele>967</ele>
        <time>2020-01-05T14:24:38.000Z</time>
      </trkpt>
      <trkpt lat="42.76696" lon="1.57287">
        <ele>967</ele>
        <time>2020-01-05T14:24:40.000Z</time>
      </trkpt>
      <trkpt lat="42.76698" lon="1.57288">
        <ele>967</ele>
        <time>2020-01-05T14:24:42.000Z</time>
      </trkpt>
      <trkpt lat="42.767" lon="1.57288">
        <ele>967</ele>
        <time>2020-01-05T14:24:44.000Z</time>
      </trkpt>
      <trkpt lat="42.76702" lon="1.57288">
        <ele>967</ele>
        <time>2020-01-05T14:24:46.000Z</time>
      </trkpt>
      <trkpt lat="42.76704" lon="1.57289">
        <ele>967</ele>
        <time>2020-01-05T14:24:48.000Z</time>
      </trkpt>
      <trkpt lat="42.76706" lon="1.57289">
        <ele>967</ele>
        <time>2020-01-05T14:24:50.000Z</time>
      </trkpt>
      <trkpt lat="42.76708" lon="1.57289">
        <ele>967</ele>
        <time>2020-01-05T14:24:52.000Z</time>
      </trkpt>
      <trkpt lat="42.76711" lon="1.57289">
        <ele>967</ele>
        <time>2020-01-05T14:24:54.000Z</time>
      </trkpt>
      <trkpt lat="42.76712" lon="1.5729">
        <ele>967</ele>
        <time>2020-01-05T14:24:56.000Z</time>
      </trkpt>
      <trkpt lat="42.76715" lon="1.5729">
        <ele>967</ele>
        <time>2020-01-05T14:24:58.000Z</time>
      </trkpt>
      <trkpt lat="42.76717" lon="1.57289">
        <ele>967</ele>
        <time>2020-01-05T14:25:00.000Z</time>
      </trkpt>
      <trkpt lat="42.76719" lon="1.57288">
        <ele>967</ele>
        <time>2020-01-05T14:25:02.000Z</time>
      </trkpt>
      <trkpt lat="42.7672" lon="1.57289">
        <ele>967</ele>
        <time>2020-01-05T14:25:04.000Z</time>
      </trkpt>
      <trkpt lat="42.76722" lon="1.57289">
        <ele>967</ele>
        <time>2020-01-05T14:25:06.000Z</time>
      </trkpt>
      <trkpt lat="42.76724" lon="1.57289">
        <ele>967</ele>
        <time>2020-01-05T14:25:08.000Z</time>
      </trkpt>
      <trkpt lat="42.76726" lon="1.57288">
        <ele>967</ele>
        <time>2020-01-05T14:25:10.000Z</time>
      </trkpt>
      <trkpt lat="42.76728" lon="1.57288">
        <ele>967</ele>
        <time>2020-01-05T14:25:12.000Z</time>
      </trkpt>
      <trkpt lat="42.76729" lon="1.57288">
        <ele>967</ele>
        <time>2020-01-05T14:25:14.000Z</time>
      </trkpt>
      <trkpt lat="42.76731" lon="1.57288">
        <ele>967</ele>
        <time>2020-01-05T14:25:16.000Z</time>
      </trkpt>
      <trkpt lat="42.76733" lon="1.57288">
        <ele>967</ele>
        <time>2020-01-05T14:25:18.000Z</time>
      </trkpt>
      <trkpt lat="42.76734" lon="1.57287">
        <ele>967</ele>
        <time>2020-01-05T14:25:20.000Z</time>
      </trkpt>
      <trkpt lat="42.76736" lon="1.57288">
        <ele>967</ele>
        <time>2020-01-05T14:25:22.000Z</time>
      </trkpt>
      <trkpt lat="42.76739" lon="1.57288">
        <ele>967</ele>
        <time>2020-01-05T14:25:24.000Z</time>
      </trkpt>
      <trkpt lat="42.7674" lon="1.57287">
        <ele>967</ele>
        <time>2020-01-05T14:25:26.000Z</time>
      </trkpt>
      <trkpt lat="42.76743" lon="1.57286">
        <ele>967</ele>
        <time>2020-01-05T14:25:28.000Z</time>
      </trkpt>
      <trkpt lat="42.76745" lon="1.57285">
        <ele>967</ele>
        <time>2020-01-05T14:25:30.000Z</time>
      </trkpt>
      <trkpt lat="42.76747" lon="1.57284">
        <ele>966</ele>
        <time>2020-01-05T14:25:32.000Z</time>
      </trkpt>
      <trkpt lat="42.76749" lon="1.57283">
        <ele>966</ele>
        <time>2020-01-05T14:25:34.000Z</time>
      </trkpt>
      <trkpt lat="42.7675" lon="1.57282">
        <ele>966</ele>
        <time>2020-01-05T14:25:36.000Z</time>
      </trkpt>
      <trkpt lat="42.76752" lon="1.57281">
        <ele>966</ele>
        <time>2020-01-05T14:25:38.000Z</time>
      </trkpt>
      <trkpt lat="42.76754" lon="1.57279">
        <ele>966</ele>
        <time>2020-01-05T14:25:40.000Z</time>
      </trkpt>
      <trkpt lat="42.76754" lon="1.57277">
        <ele>965</ele>
        <time>2020-01-05T14:25:42.000Z</time>
      </trkpt>
      <trkpt lat="42.76756" lon="1.57276">
        <ele>965</ele>
        <time>2020-01-05T14:25:44.000Z</time>
      </trkpt>
      <trkpt lat="42.76757" lon="1.57276">
        <ele>965</ele>
        <time>2020-01-05T14:25:46.000Z</time>
      </trkpt>
      <trkpt lat="42.76757" lon="1.57276">
        <ele>965</ele>
        <time>2020-01-05T14:25:48.000Z</time>
      </trkpt>
      <trkpt lat="42.76757" lon="1.57275">
        <ele>965</ele>
        <time>2020-01-05T14:25:50.000Z</time>
      </trkpt>
      <trkpt lat="42.76758" lon="1.57274">
        <ele>965</ele>
        <time>2020-01-05T14:25:52.000Z</time>
      </trkpt>
      <trkpt lat="42.76758" lon="1.57273">
        <ele>965</ele>
        <time>2020-01-05T14:25:54.000Z</time>
      </trkpt>
      <trkpt lat="42.76758" lon="1.57272">
        <ele>965</ele>
        <time>2020-01-05T14:25:56.000Z</time>
      </trkpt>
      <trkpt lat="42.76758" lon="1.57271">
        <ele>965</ele>
        <time>2020-01-05T14:25:58.000Z</time>
      </trkpt>
      <trkpt lat="42.76758" lon="1.5727">
        <ele>964</ele>
        <time>2020-01-05T14:26:00.000Z</time>
      </trkpt>
      <trkpt lat="42.76757" lon="1.57269">
        <ele>964</ele>
        <time>2020-01-05T14:26:02.000Z</time>
      </trkpt>
      <trkpt lat="42.76756" lon="1.57267">
        <ele>964</ele>
        <time>2020-01-05T14:26:04.000Z</time>
      </trkpt>
      <trkpt lat="42.76755" lon="1.57266">
        <ele>963</ele>
        <time>2020-01-05T14:26:06.000Z</time>
      </trkpt>
      <trkpt lat="42.76754" lon="1.57266">
        <ele>963</ele>
        <time>2020-01-05T14:26:08.000Z</time>
      </trkpt>
      <trkpt lat="42.76753" lon="1.57266">
        <ele>963</ele>
        <time>2020-01-05T14:26:10.000Z</time>
      </trkpt>
      <trkpt lat="42.76752" lon="1.57266">
        <ele>963</ele>
        <time>2020-01-05T14:26:12.000Z</time>
      </trkpt>
      <trkpt lat="42.76751" lon="1.57267">
        <ele>963</ele>
        <time>2020-01-05T14:26:14.000Z</time>
      </trkpt>
      <trkpt lat="42.7675" lon="1.57268">
        <ele>963</ele>
        <time>2020-01-05T14:26:16.000Z</time>
      </trkpt>
      <trkpt lat="42.76748" lon="1.57269">
        <ele>964</ele>
        <time>2020-01-05T14:26:18.000Z</time>
      </trkpt>
      <trkpt lat="42.76746" lon="1.57269">
        <ele>964</ele>
        <time>2020-01-05T14:26:20.000Z</time>
      </trkpt>
      <trkpt lat="42.76744" lon="1.5727">
        <ele>964</ele>
        <time>2020-01-05T14:26:22.000Z</time>
      </trkpt>
      <trkpt lat="42.76743" lon="1.57271">
        <ele>964</ele>
        <time>2020-01-05T14:26:24.000Z</time>
      </trkpt>
      <trkpt lat="42.76742" lon="1.57271">
        <ele>964</ele>
        <time>2020-01-05T14:26:26.000Z</time>
      </trkpt>
      <trkpt lat="42.76741" lon="1.5727">
        <ele>964</ele>
        <time>2020-01-05T14:26:28.000Z</time>
      </trkpt>
      <trkpt lat="42.7674" lon="1.5727">
        <ele>964</ele>
        <time>2020-01-05T14:26:30.000Z</time>
      </trkpt>
      <trkpt lat="42.76738" lon="1.57269">
        <ele>963</ele>
        <time>2020-01-05T14:26:32.000Z</time>
      </trkpt>
      <trkpt lat="42.76738" lon="1.57269">
        <ele>963</ele>
        <time>2020-01-05T14:26:34.000Z</time>
      </trkpt>
      <trkpt lat="42.76737" lon="1.57269">
        <ele>963</ele>
        <time>2020-01-05T14:26:36.000Z</time>
      </trkpt>
      <trkpt lat="42.76737" lon="1.57269">
        <ele>963</ele>
        <time>2020-01-05T14:26:38.000Z</time>
      </trkpt>
      <trkpt lat="42.76736" lon="1.57269">
        <ele>963</ele>
        <time>2020-01-05T14:26:40.000Z</time>
      </trkpt>
      <trkpt lat="42.76736" lon="1.57269">
        <ele>963</ele>
        <time>2020-01-05T14:26:42.000Z</time>
      </trkpt>
      <trkpt lat="42.76737" lon="1.57269">
        <ele>963</ele>
        <time>2020-01-05T14:26:44.000Z</time>
      </trkpt>
      <trkpt lat="42.76737" lon="1.57268">
        <ele>963</ele>
        <time>2020-01-05T14:26:46.000Z</time>
      </trkpt>
      <trkpt lat="42.76737" lon="1.57268">
        <ele>963</ele>
        <time>2020-01-05T14:26:48.000Z</time>
      </trkpt>
      <trkpt lat="42.76738" lon="1.57268">
        <ele>963</ele>
        <time>2020-01-05T14:26:50.000Z</time>
      </trkpt>
      <trkpt lat="42.76738" lon="1.57268">
        <ele>963</ele>
        <time>2020-01-05T14:26:52.000Z</time>
      </trkpt>
      <trkpt lat="42.76738" lon="1.57267">
        <ele>963</ele>
        <time>2020-01-05T14:26:54.000Z</time>
      </trkpt>
      <trkpt lat="42.76739" lon="1.57266">
        <ele>963</ele>
        <time>2020-01-05T14:26:56.000Z</time>
      </trkpt>
      <trkpt lat="42.76739" lon="1.57265">
        <ele>963</ele>
        <time>2020-01-05T14:26:58.000Z</time>
      </trkpt>
      <trkpt lat="42.7674" lon="1.57265">
        <ele>963</ele>
        <time>2020-01-05T14:27:00.000Z</time>
      </trkpt>
      <trkpt lat="42.7674" lon="1.57265">
        <ele>963</ele>
        <time>2020-01-05T14:27:02.000Z</time>
      </trkpt>
      <trkpt lat="42.7674" lon="1.57264">
        <ele>963</ele>
        <time>2020-01-05T14:27:04.000Z</time>
      </trkpt>
      <trkpt lat="42.7674" lon="1.57264">
        <ele>963</ele>
        <time>2020-01-05T14:27:06.000Z</time>
      </trkpt>
      <trkpt lat="42.76741" lon="1.57265">
        <ele>963</ele>
        <time>2020-01-05T14:27:08.000Z</time>
      </trkpt>
      <trkpt lat="42.76741" lon="1.57265">
        <ele>963</ele>
        <time>2020-01-05T14:27:10.000Z</time>
      </trkpt>
      <trkpt lat="42.7674" lon="1.57265">
        <ele>963</ele>
        <time>2020-01-05T14:27:12.000Z</time>
      </trkpt>
      <trkpt lat="42.7674" lon="1.57265">
        <ele>963</ele>
        <time>2020-01-05T14:27:14.000Z</time>
      </trkpt>
      <trkpt lat="42.76739" lon="1.57265">
        <ele>963</ele>
        <time>2020-01-05T14:27:16.000Z</time>
      </trkpt>
      <trkpt lat="42.7674" lon="1.57265">
        <ele>963</ele>
        <time>2020-01-05T14:27:18.000Z</time>
      </trkpt>
      <trkpt lat="42.7674" lon="1.57265">
        <ele>963</ele>
        <time>2020-01-05T14:27:20.000Z</time>
      </trkpt>
      <trkpt lat="42.76739" lon="1.57265">
        <ele>963</ele>
        <time>2020-01-05T14:27:22.000Z</time>
      </trkpt>
      <trkpt lat="42.76739" lon="1.57265">
        <ele>963</ele>
        <time>2020-01-05T14:27:24.000Z</time>
      </trkpt>
      <trkpt lat="42.76739" lon="1.57265">
        <ele>963</ele>
        <time>2020-01-05T14:27:26.000Z</time>
      </trkpt>
      <trkpt lat="42.7674" lon="1.57264">
        <ele>963</ele>
        <time>2020-01-05T14:27:28.000Z</time>
      </trkpt>
      <trkpt lat="42.7674" lon="1.57264">
        <ele>962</ele>
        <time>2020-01-05T14:27:30.000Z</time>
      </trkpt>
      <trkpt lat="42.7674" lon="1.57264">
        <ele>962</ele>
        <time>2020-01-05T14:27:32.000Z</time>
      </trkpt>
      <trkpt lat="42.7674" lon="1.57263">
        <ele>962</ele>
        <time>2020-01-05T14:27:34.000Z</time>
      </trkpt>
      <trkpt lat="42.7674" lon="1.57262">
        <ele>962</ele>
        <time>2020-01-05T14:27:36.000Z</time>
      </trkpt>
      <trkpt lat="42.7674" lon="1.57262">
        <ele>962</ele>
        <time>2020-01-05T14:27:38.000Z</time>
      </trkpt>
      <trkpt lat="42.7674" lon="1.57262">
        <ele>962</ele>
        <time>2020-01-05T14:27:40.000Z</time>
      </trkpt>
      <trkpt lat="42.7674" lon="1.57262">
        <ele>962</ele>
        <time>2020-01-05T14:27:42.000Z</time>
      </trkpt>
      <trkpt lat="42.7674" lon="1.57262">
        <ele>962</ele>
        <time>2020-01-05T14:27:44.000Z</time>
      </trkpt>
      <trkpt lat="42.7674" lon="1.57261">
        <ele>962</ele>
        <time>2020-01-05T14:27:46.000Z</time>
      </trkpt>
      <trkpt lat="42.7674" lon="1.57261">
        <ele>962</ele>
        <time>2020-01-05T14:27:48.000Z</time>
      </trkpt>
      <trkpt lat="42.7674" lon="1.57261">
        <ele>962</ele>
        <time>2020-01-05T14:27:50.000Z</time>
      </trkpt>
      <trkpt lat="42.7674" lon="1.57261">
        <ele>962</ele>
        <time>2020-01-05T14:27:52.000Z</time>
      </trkpt>
      <trkpt lat="42.7674" lon="1.57261">
        <ele>962</ele>
        <time>2020-01-05T14:27:54.000Z</time>
      </trkpt>
      <trkpt lat="42.76739" lon="1.5726">
        <ele>962</ele>
        <time>2020-01-05T14:27:56.000Z</time>
      </trkpt>
      <trkpt lat="42.76739" lon="1.57261">
        <ele>962</ele>
        <time>2020-01-05T14:27:58.000Z</time>
      </trkpt>
      <trkpt lat="42.76739" lon="1.57261">
        <ele>962</ele>
        <time>2020-01-05T14:28:00.000Z</time>
      </trkpt>
      <trkpt lat="42.76739" lon="1.57261">
        <ele>962</ele>
        <time>2020-01-05T14:28:02.000Z</time>
      </trkpt>
      <trkpt lat="42.76739" lon="1.57262">
        <ele>962</ele>
        <time>2020-01-05T14:28:04.000Z</time>
      </trkpt>
      <trkpt lat="42.7674" lon="1.57263">
        <ele>962</ele>
        <time>2020-01-05T14:28:06.000Z</time>
      </trkpt>
      <trkpt lat="42.7674" lon="1.57263">
        <ele>962</ele>
        <time>2020-01-05T14:28:08.000Z</time>
      </trkpt>
      <trkpt lat="42.7674" lon="1.57263">
        <ele>962</ele>
        <time>2020-01-05T14:28:10.000Z</time>
      </trkpt>
      <trkpt lat="42.7674" lon="1.57262">
        <ele>962</ele>
        <time>2020-01-05T14:28:12.000Z</time>
      </trkpt>
      <trkpt lat="42.7674" lon="1.57262">
        <ele>962</ele>
        <time>2020-01-05T14:28:14.000Z</time>
      </trkpt>
      <trkpt lat="42.7674" lon="1.57262">
        <ele>962</ele>
        <time>2020-01-05T14:28:16.000Z</time>
      </trkpt>
      <trkpt lat="42.7674" lon="1.57263">
        <ele>962</ele>
        <time>2020-01-05T14:28:18.000Z</time>
      </trkpt>
      <trkpt lat="42.7674" lon="1.57263">
        <ele>962</ele>
        <time>2020-01-05T14:28:20.000Z</time>
      </trkpt>
      <trkpt lat="42.7674" lon="1.57263">
        <ele>962</ele>
        <time>2020-01-05T14:28:22.000Z</time>
      </trkpt>
      <trkpt lat="42.7674" lon="1.57263">
        <ele>962</ele>
        <time>2020-01-05T14:28:24.000Z</time>
      </trkpt>
      <trkpt lat="42.76739" lon="1.57263">
        <ele>962</ele>
        <time>2020-01-05T14:28:26.000Z</time>
      </trkpt>
      <trkpt lat="42.76739" lon="1.57263">
        <ele>962</ele>
        <time>2020-01-05T14:28:28.000Z</time>
      </trkpt>
      <trkpt lat="42.7674" lon="1.57263">
        <ele>962</ele>
        <time>2020-01-05T14:28:30.000Z</time>
      </trkpt>
      <trkpt lat="42.7674" lon="1.57263">
        <ele>962</ele>
        <time>2020-01-05T14:28:32.000Z</time>
      </trkpt>
      <trkpt lat="42.7674" lon="1.57263">
        <ele>962</ele>
        <time>2020-01-05T14:28:34.000Z</time>
      </trkpt>
      <trkpt lat="42.76741" lon="1.57263">
        <ele>962</ele>
        <time>2020-01-05T14:28:36.000Z</time>
      </trkpt>
      <trkpt lat="42.76742" lon="1.57263">
        <ele>962</ele>
        <time>2020-01-05T14:28:38.000Z</time>
      </trkpt>
      <trkpt lat="42.76742" lon="1.57263">
        <ele>962</ele>
        <time>2020-01-05T14:28:40.000Z</time>
      </trkpt>
      <trkpt lat="42.76742" lon="1.57263">
        <ele>962</ele>
        <time>2020-01-05T14:28:42.000Z</time>
      </trkpt>
      <trkpt lat="42.76742" lon="1.57263">
        <ele>962</ele>
        <time>2020-01-05T14:28:44.000Z</time>
      </trkpt>
      <trkpt lat="42.76743" lon="1.57263">
        <ele>962</ele>
        <time>2020-01-05T14:28:46.000Z</time>
      </trkpt>
      <trkpt lat="42.76742" lon="1.57262">
        <ele>962</ele>
        <time>2020-01-05T14:28:48.000Z</time>
      </trkpt>
      <trkpt lat="42.76742" lon="1.57262">
        <ele>962</ele>
        <time>2020-01-05T14:28:50.000Z</time>
      </trkpt>
      <trkpt lat="42.76741" lon="1.57262">
        <ele>962</ele>
        <time>2020-01-05T14:28:52.000Z</time>
      </trkpt>
      <trkpt lat="42.76741" lon="1.57262">
        <ele>962</ele>
        <time>2020-01-05T14:28:54.000Z</time>
      </trkpt>
      <trkpt lat="42.76741" lon="1.57262">
        <ele>962</ele>
        <time>2020-01-05T14:28:56.000Z</time>
      </trkpt>
      <trkpt lat="42.76742" lon="1.57262">
        <ele>962</ele>
        <time>2020-01-05T14:28:58.000Z</time>
      </trkpt>
      <trkpt lat="42.76741" lon="1.57262">
        <ele>962</ele>
        <time>2020-01-05T14:29:00.000Z</time>
      </trkpt>
      <trkpt lat="42.76741" lon="1.57261">
        <ele>962</ele>
        <time>2020-01-05T14:29:02.000Z</time>
      </trkpt>
      <trkpt lat="42.76741" lon="1.57262">
        <ele>962</ele>
        <time>2020-01-05T14:29:04.000Z</time>
      </trkpt>
    </trkseg>
  </trk>
</gpx>